<?xml version='1.0' encoding='UTF-8'?><gpx version="1.1" creator="JPX - https://github.com/jenetics/jpx" xmlns="http://www.topografix.com/GPX/1/1"><trk><trkseg><trkpt lat="44.95017" lon="8.0267233"><ele>239.5</ele><time>2026-05-01T08:19:54.273Z</time></trkpt><trkpt lat="44.9502122" lon="8.0265772"><ele>235.0</ele><time>2026-05-01T08:20:08.273Z</time></trkpt><trkpt lat="44.950094" lon="8.0239898"><ele>229.0</ele><time>2026-05-01T08:20:34.273Z</time></trkpt><trkpt lat="44.9501663" lon="8.0237881"><ele>223.0</ele><time>2026-05-01T08:20:35.273Z</time></trkpt><trkpt lat="44.9502633" lon="8.0235403"><ele>217.0</ele><time>2026-05-01T08:20:37.273Z</time></trkpt><trkpt lat="44.9503074" lon="8.0233113"><ele>215.5</ele><time>2026-05-01T08:20:38.273Z</time></trkpt><trkpt lat="44.9503637" lon="8.0231168"><ele>214.0</ele><time>2026-05-01T08:20:39.273Z</time></trkpt><trkpt lat="44.9504274" lon="8.022948"><ele>212.5</ele><time>2026-05-01T08:20:40.274Z</time></trkpt><trkpt lat="44.9504961" lon="8.0228009"><ele>211.0</ele><time>2026-05-01T08:20:41.273Z</time></trkpt><trkpt lat="44.9505634" lon="8.0226362"><ele>211.0</ele><time>2026-05-01T08:20:42.274Z</time></trkpt><trkpt lat="44.9506396" lon="8.0225196"><ele>211.0</ele><time>2026-05-01T08:20:43.273Z</time></trkpt><trkpt lat="44.9507037" lon="8.0223997"><ele>211.0</ele><time>2026-05-01T08:20:44.273Z</time></trkpt><trkpt lat="44.9507762" lon="8.0222989"><ele>211.0</ele><time>2026-05-01T08:20:45.273Z</time></trkpt><trkpt lat="44.9508668" lon="8.0222294"><ele>211.0</ele><time>2026-05-01T08:20:46.274Z</time></trkpt><trkpt lat="44.9509621" lon="8.022182"><ele>208.60000000000002</ele><time>2026-05-01T08:20:47.273Z</time></trkpt><trkpt lat="44.9510669" lon="8.0221645"><ele>206.2</ele><time>2026-05-01T08:20:48.274Z</time></trkpt><trkpt lat="44.9511847" lon="8.0221761"><ele>203.8</ele><time>2026-05-01T08:20:49.273Z</time></trkpt><trkpt lat="44.9512888" lon="8.0222065"><ele>201.39999999999998</ele><time>2026-05-01T08:20:50.273Z</time></trkpt><trkpt lat="44.9513865" lon="8.0222513"><ele>199.0</ele><time>2026-05-01T08:20:51.273Z</time></trkpt><trkpt lat="44.9514606" lon="8.0223075"><ele>199.0</ele><time>2026-05-01T08:20:52.274Z</time></trkpt><trkpt lat="44.9515191" lon="8.0223978"><ele>199.0</ele><time>2026-05-01T08:20:53.273Z</time></trkpt><trkpt lat="44.9515533" lon="8.022508"><ele>199.0</ele><time>2026-05-01T08:20:54.273Z</time></trkpt><trkpt lat="44.9515219" lon="8.0226651"><ele>199.0</ele><time>2026-05-01T08:20:55.273Z</time></trkpt><trkpt lat="44.9514623" lon="8.0228514"><ele>199.0</ele><time>2026-05-01T08:20:56.273Z</time></trkpt><trkpt lat="44.9514106" lon="8.02304"><ele>202.0</ele><time>2026-05-01T08:20:57.274Z</time></trkpt><trkpt lat="44.9513628" lon="8.0232259"><ele>205.0</ele><time>2026-05-01T08:20:58.273Z</time></trkpt><trkpt lat="44.9513249" lon="8.0234049"><ele>208.0</ele><time>2026-05-01T08:20:59.273Z</time></trkpt><trkpt lat="44.9512958" lon="8.0235732"><ele>211.0</ele><time>2026-05-01T08:21:00.273Z</time></trkpt><trkpt lat="44.9512631" lon="8.023724"><ele>212.20000000000002</ele><time>2026-05-01T08:21:01.273Z</time></trkpt><trkpt lat="44.9512086" lon="8.0238571"><ele>213.4</ele><time>2026-05-01T08:21:02.273Z</time></trkpt><trkpt lat="44.9511306" lon="8.0239558"><ele>214.6</ele><time>2026-05-01T08:21:03.273Z</time></trkpt><trkpt lat="44.9510458" lon="8.0239965"><ele>215.8</ele><time>2026-05-01T08:21:04.273Z</time></trkpt><trkpt lat="44.9509505" lon="8.0240065"><ele>217.0</ele><time>2026-05-01T08:21:05.273Z</time></trkpt><trkpt lat="44.9508611" lon="8.02404"><ele>216.99999999999997</ele><time>2026-05-01T08:21:06.273Z</time></trkpt><trkpt lat="44.9507869" lon="8.0241293"><ele>217.0</ele><time>2026-05-01T08:21:07.273Z</time></trkpt><trkpt lat="44.9507296" lon="8.0242456"><ele>217.0</ele><time>2026-05-01T08:21:08.274Z</time></trkpt><trkpt lat="44.9507132" lon="8.0243658"><ele>217.0</ele><time>2026-05-01T08:21:09.273Z</time></trkpt><trkpt lat="44.950718" lon="8.0244599"><ele>216.99999999999997</ele><time>2026-05-01T08:21:10.273Z</time></trkpt><trkpt lat="44.9507294" lon="8.0245845"><ele>217.0</ele><time>2026-05-01T08:21:12.273Z</time></trkpt><trkpt lat="44.9507654" lon="8.0246676"><ele>218.33333333333331</ele><time>2026-05-01T08:21:15.273Z</time></trkpt><trkpt lat="44.9507629" lon="8.0248023"><ele>219.66666666666666</ele><time>2026-05-01T08:23:19.273Z</time></trkpt><trkpt lat="44.9507828" lon="8.0248976"><ele>221.0</ele><time>2026-05-01T08:23:20.274Z</time></trkpt><trkpt lat="44.9508108" lon="8.024999"><ele>222.33333333333331</ele><time>2026-05-01T08:23:21.273Z</time></trkpt><trkpt lat="44.9508401" lon="8.0251045"><ele>223.66666666666666</ele><time>2026-05-01T08:23:22.274Z</time></trkpt><trkpt lat="44.9508738" lon="8.025213"><ele>225.0</ele><time>2026-05-01T08:23:23.273Z</time></trkpt><trkpt lat="44.9509088" lon="8.0253226"><ele>227.16666666666666</ele><time>2026-05-01T08:23:24.274Z</time></trkpt><trkpt lat="44.9509344" lon="8.0254304"><ele>229.33333333333331</ele><time>2026-05-01T08:23:25.273Z</time></trkpt><trkpt lat="44.9509588" lon="8.0255391"><ele>231.5</ele><time>2026-05-01T08:23:26.273Z</time></trkpt><trkpt lat="44.9509788" lon="8.0256492"><ele>233.66666666666666</ele><time>2026-05-01T08:23:27.273Z</time></trkpt><trkpt lat="44.950994" lon="8.0257593"><ele>235.83333333333331</ele><time>2026-05-01T08:23:28.273Z</time></trkpt><trkpt lat="44.9509981" lon="8.0258659"><ele>238.0</ele><time>2026-05-01T08:23:29.273Z</time></trkpt><trkpt lat="44.9509931" lon="8.0259592"><ele>237.25</ele><time>2026-05-01T08:23:30.273Z</time></trkpt><trkpt lat="44.9509654" lon="8.0261212"><ele>236.5</ele><time>2026-05-01T08:23:32.273Z</time></trkpt><trkpt lat="44.950914" lon="8.0262601"><ele>235.75</ele><time>2026-05-01T08:23:34.273Z</time></trkpt><trkpt lat="44.9508531" lon="8.0263746"><ele>235.0</ele><time>2026-05-01T08:23:36.273Z</time></trkpt><trkpt lat="44.9507741" lon="8.0265049"><ele>235.0</ele><time>2026-05-01T08:23:38.273Z</time></trkpt><trkpt lat="44.9507257" lon="8.0265728"><ele>235.0</ele><time>2026-05-01T08:23:39.274Z</time></trkpt><trkpt lat="44.9506805" lon="8.026641"><ele>235.0</ele><time>2026-05-01T08:23:40.273Z</time></trkpt><trkpt lat="44.9506013" lon="8.0267666"><ele>235.0</ele><time>2026-05-01T08:23:42.273Z</time></trkpt><trkpt lat="44.9505174" lon="8.0268779"><ele>235.0</ele><time>2026-05-01T08:23:44.274Z</time></trkpt><trkpt lat="44.9504409" lon="8.0269851"><ele>236.8</ele><time>2026-05-01T08:23:46.273Z</time></trkpt><trkpt lat="44.950373" lon="8.0271056"><ele>238.6</ele><time>2026-05-01T08:23:48.273Z</time></trkpt><trkpt lat="44.9503213" lon="8.0272177"><ele>240.39999999999998</ele><time>2026-05-01T08:23:50.273Z</time></trkpt><trkpt lat="44.9502621" lon="8.0272599"><ele>242.2</ele><time>2026-05-01T08:23:52.273Z</time></trkpt><trkpt lat="44.9501992" lon="8.0271733"><ele>244.0</ele><time>2026-05-01T08:23:55.273Z</time></trkpt><trkpt lat="44.9501873" lon="8.0270377"><ele>243.99999999999997</ele><time>2026-05-01T08:23:57.273Z</time></trkpt><trkpt lat="44.9501731" lon="8.0268643"><ele>244.0</ele><time>2026-05-01T08:23:59.273Z</time></trkpt><trkpt lat="44.9501775" lon="8.0267636"><ele>244.0</ele><time>2026-05-01T08:24:00.273Z</time></trkpt><trkpt lat="44.9501967" lon="8.0266687"><ele>244.0</ele><time>2026-05-01T08:24:01.273Z</time></trkpt><trkpt lat="44.9502365" lon="8.0265764"><ele>243.99999999999997</ele><time>2026-05-01T08:24:02.273Z</time></trkpt><trkpt lat="44.9502763" lon="8.026496"><ele>244.0</ele><time>2026-05-01T08:24:03.274Z</time></trkpt><trkpt lat="44.9503082" lon="8.0264173"><ele>242.49999999999997</ele><time>2026-05-01T08:24:04.273Z</time></trkpt><trkpt lat="44.9503425" lon="8.0263253"><ele>241.0</ele><time>2026-05-01T08:24:05.273Z</time></trkpt><trkpt lat="44.95037" lon="8.026224"><ele>239.5</ele><time>2026-05-01T08:24:06.273Z</time></trkpt><trkpt lat="44.9503938" lon="8.0261218"><ele>238.0</ele><time>2026-05-01T08:24:07.273Z</time></trkpt><trkpt lat="44.9504124" lon="8.0260169"><ele>236.49999999999997</ele><time>2026-05-01T08:24:08.273Z</time></trkpt><trkpt lat="44.9504237" lon="8.0259031"><ele>235.0</ele><time>2026-05-01T08:24:09.273Z</time></trkpt><trkpt lat="44.9504189" lon="8.0257646"><ele>234.0</ele><time>2026-05-01T08:24:10.274Z</time></trkpt><trkpt lat="44.9504081" lon="8.0256231"><ele>233.0</ele><time>2026-05-01T08:24:11.273Z</time></trkpt><trkpt lat="44.9503986" lon="8.0254839"><ele>232.0</ele><time>2026-05-01T08:24:12.273Z</time></trkpt><trkpt lat="44.9503891" lon="8.0253497"><ele>231.0</ele><time>2026-05-01T08:24:13.273Z</time></trkpt><trkpt lat="44.9503822" lon="8.0252173"><ele>230.0</ele><time>2026-05-01T08:24:14.273Z</time></trkpt><trkpt lat="44.9503714" lon="8.0250975"><ele>230.00000000000003</ele><time>2026-05-01T08:24:15.273Z</time></trkpt><trkpt lat="44.9503503" lon="8.0249834"><ele>230.0</ele><time>2026-05-01T08:24:16.273Z</time></trkpt><trkpt lat="44.9503376" lon="8.0248639"><ele>230.0</ele><time>2026-05-01T08:24:17.273Z</time></trkpt><trkpt lat="44.9503224" lon="8.0247377"><ele>230.0</ele><time>2026-05-01T08:24:18.273Z</time></trkpt><trkpt lat="44.9503076" lon="8.0246106"><ele>230.00000000000003</ele><time>2026-05-01T08:24:19.273Z</time></trkpt><trkpt lat="44.9502971" lon="8.0244764"><ele>230.0</ele><time>2026-05-01T08:24:20.273Z</time></trkpt><trkpt lat="44.9502946" lon="8.0243532"><ele>229.16666666666669</ele><time>2026-05-01T08:24:21.273Z</time></trkpt><trkpt lat="44.9503022" lon="8.0242365"><ele>228.33333333333334</ele><time>2026-05-01T08:24:22.273Z</time></trkpt><trkpt lat="44.950308" lon="8.0241301"><ele>227.5</ele><time>2026-05-01T08:24:23.273Z</time></trkpt><trkpt lat="44.9502899" lon="8.0239884"><ele>226.66666666666669</ele><time>2026-05-01T08:24:25.273Z</time></trkpt><trkpt lat="44.9501893" lon="8.0240349"><ele>225.83333333333334</ele><time>2026-05-01T08:24:28.273Z</time></trkpt><trkpt lat="44.9501479" lon="8.0241204"><ele>225.0</ele><time>2026-05-01T08:24:29.273Z</time></trkpt><trkpt lat="44.9500989" lon="8.024244"><ele>222.16666666666666</ele><time>2026-05-01T08:24:30.273Z</time></trkpt><trkpt lat="44.9500358" lon="8.0243633"><ele>219.33333333333331</ele><time>2026-05-01T08:24:31.273Z</time></trkpt><trkpt lat="44.9499719" lon="8.0244439"><ele>216.5</ele><time>2026-05-01T08:24:32.273Z</time></trkpt><trkpt lat="44.9499025" lon="8.0244556"><ele>213.66666666666666</ele><time>2026-05-01T08:24:33.273Z</time></trkpt><trkpt lat="44.9498218" lon="8.0244202"><ele>210.83333333333331</ele><time>2026-05-01T08:24:34.273Z</time></trkpt><trkpt lat="44.9497435" lon="8.0243343"><ele>208.0</ele><time>2026-05-01T08:24:35.273Z</time></trkpt><trkpt lat="44.9497065" lon="8.0242073"><ele>206.25</ele><time>2026-05-01T08:24:36.273Z</time></trkpt><trkpt lat="44.9497216" lon="8.0240722"><ele>204.5</ele><time>2026-05-01T08:24:37.273Z</time></trkpt><trkpt lat="44.9497806" lon="8.02393"><ele>202.75</ele><time>2026-05-01T08:24:38.273Z</time></trkpt><trkpt lat="44.9498638" lon="8.0237825"><ele>201.0</ele><time>2026-05-01T08:24:39.273Z</time></trkpt><trkpt lat="44.949938" lon="8.0236149"><ele>201.0</ele><time>2026-05-01T08:24:40.273Z</time></trkpt><trkpt lat="44.9499956" lon="8.0234246"><ele>201.0</ele><time>2026-05-01T08:24:41.273Z</time></trkpt><trkpt lat="44.9500276" lon="8.0232273"><ele>201.0</ele><time>2026-05-01T08:24:42.273Z</time></trkpt><trkpt lat="44.9500403" lon="8.0230227"><ele>201.0</ele><time>2026-05-01T08:24:43.273Z</time></trkpt><trkpt lat="44.95005" lon="8.0228188"><ele>201.5</ele><time>2026-05-01T08:24:44.273Z</time></trkpt><trkpt lat="44.9500543" lon="8.0226208"><ele>202.0</ele><time>2026-05-01T08:24:45.273Z</time></trkpt><trkpt lat="44.9500641" lon="8.0224193"><ele>202.5</ele><time>2026-05-01T08:24:46.273Z</time></trkpt><trkpt lat="44.9500652" lon="8.0222067"><ele>203.0</ele><time>2026-05-01T08:24:47.273Z</time></trkpt><trkpt lat="44.9500512" lon="8.0219914"><ele>200.0</ele><time>2026-05-01T08:24:48.274Z</time></trkpt><trkpt lat="44.9500313" lon="8.021787"><ele>197.0</ele><time>2026-05-01T08:24:49.273Z</time></trkpt><trkpt lat="44.950019" lon="8.0215948"><ele>194.0</ele><time>2026-05-01T08:24:50.273Z</time></trkpt><trkpt lat="44.9500099" lon="8.0214026"><ele>191.0</ele><time>2026-05-01T08:24:51.273Z</time></trkpt><trkpt lat="44.9500068" lon="8.0212158"><ele>188.75</ele><time>2026-05-01T08:24:52.273Z</time></trkpt><trkpt lat="44.95" lon="8.021042"><ele>186.5</ele><time>2026-05-01T08:24:53.274Z</time></trkpt><trkpt lat="44.9499885" lon="8.0208697"><ele>184.25</ele><time>2026-05-01T08:24:54.273Z</time></trkpt><trkpt lat="44.9499747" lon="8.0207029"><ele>182.0</ele><time>2026-05-01T08:24:55.273Z</time></trkpt><trkpt lat="44.949965" lon="8.0205429"><ele>181.33333333333331</ele><time>2026-05-01T08:24:56.273Z</time></trkpt><trkpt lat="44.9499708" lon="8.0203944"><ele>180.66666666666666</ele><time>2026-05-01T08:24:57.273Z</time></trkpt><trkpt lat="44.9499808" lon="8.0202706"><ele>180.0</ele><time>2026-05-01T08:24:58.273Z</time></trkpt><trkpt lat="44.9499871" lon="8.0201672"><ele>179.33333333333334</ele><time>2026-05-01T08:24:59.273Z</time></trkpt><trkpt lat="44.9499972" lon="8.0200507"><ele>178.66666666666669</ele><time>2026-05-01T08:25:01.273Z</time></trkpt><trkpt lat="44.9499305" lon="8.0199563"><ele>178.0</ele><time>2026-05-01T08:25:04.273Z</time></trkpt><trkpt lat="44.9498526" lon="8.0199346"><ele>177.0</ele><time>2026-05-01T08:25:05.273Z</time></trkpt><trkpt lat="44.9497475" lon="8.0199357"><ele>176.0</ele><time>2026-05-01T08:25:06.273Z</time></trkpt><trkpt lat="44.9496193" lon="8.0199393"><ele>175.0</ele><time>2026-05-01T08:25:07.274Z</time></trkpt><trkpt lat="44.949481" lon="8.0199361"><ele>174.0</ele><time>2026-05-01T08:25:08.273Z</time></trkpt><trkpt lat="44.9493382" lon="8.0199285"><ele>173.33333333333334</ele><time>2026-05-01T08:25:09.273Z</time></trkpt><trkpt lat="44.9491782" lon="8.0199197"><ele>172.66666666666669</ele><time>2026-05-01T08:25:10.273Z</time></trkpt><trkpt lat="44.9490283" lon="8.0199098"><ele>172.0</ele><time>2026-05-01T08:25:11.273Z</time></trkpt><trkpt lat="44.9488663" lon="8.0198947"><ele>172.0</ele><time>2026-05-01T08:25:12.274Z</time></trkpt><trkpt lat="44.9487053" lon="8.0198832"><ele>172.0</ele><time>2026-05-01T08:25:13.274Z</time></trkpt><trkpt lat="44.9485445" lon="8.0198674"><ele>172.0</ele><time>2026-05-01T08:25:14.274Z</time></trkpt><trkpt lat="44.9483783" lon="8.019848"><ele>171.66666666666669</ele><time>2026-05-01T08:25:15.274Z</time></trkpt><trkpt lat="44.9482026" lon="8.0198351"><ele>171.33333333333334</ele><time>2026-05-01T08:25:16.273Z</time></trkpt><trkpt lat="44.9480195" lon="8.0198322"><ele>171.0</ele><time>2026-05-01T08:25:17.273Z</time></trkpt><trkpt lat="44.947841" lon="8.0198233"><ele>171.0</ele><time>2026-05-01T08:25:18.273Z</time></trkpt><trkpt lat="44.9476602" lon="8.0198023"><ele>171.0</ele><time>2026-05-01T08:25:19.273Z</time></trkpt><trkpt lat="44.9474813" lon="8.0197856"><ele>171.0</ele><time>2026-05-01T08:25:20.273Z</time></trkpt><trkpt lat="44.9472969" lon="8.0197703"><ele>170.33333333333334</ele><time>2026-05-01T08:25:21.273Z</time></trkpt><trkpt lat="44.9471056" lon="8.0197651"><ele>169.66666666666669</ele><time>2026-05-01T08:25:22.273Z</time></trkpt><trkpt lat="44.9468979" lon="8.0197834"><ele>169.0</ele><time>2026-05-01T08:25:23.273Z</time></trkpt><trkpt lat="44.9466875" lon="8.0198182"><ele>169.0</ele><time>2026-05-01T08:25:24.273Z</time></trkpt><trkpt lat="44.946466" lon="8.0198528"><ele>169.0</ele><time>2026-05-01T08:25:25.273Z</time></trkpt><trkpt lat="44.9462438" lon="8.0198701"><ele>169.0</ele><time>2026-05-01T08:25:26.274Z</time></trkpt><trkpt lat="44.9460303" lon="8.0198893"><ele>169.0</ele><time>2026-05-01T08:25:27.273Z</time></trkpt><trkpt lat="44.9458177" lon="8.0199128"><ele>169.0</ele><time>2026-05-01T08:25:28.273Z</time></trkpt><trkpt lat="44.9456162" lon="8.0199439"><ele>169.0</ele><time>2026-05-01T08:25:29.273Z</time></trkpt><trkpt lat="44.9454118" lon="8.0199763"><ele>170.66666666666669</ele><time>2026-05-01T08:25:30.273Z</time></trkpt><trkpt lat="44.9452007" lon="8.0200003"><ele>172.33333333333334</ele><time>2026-05-01T08:25:31.273Z</time></trkpt><trkpt lat="44.9449902" lon="8.0200288"><ele>174.0</ele><time>2026-05-01T08:25:32.273Z</time></trkpt><trkpt lat="44.9447787" lon="8.0200558"><ele>174.0</ele><time>2026-05-01T08:25:33.273Z</time></trkpt><trkpt lat="44.9445714" lon="8.0200811"><ele>174.0</ele><time>2026-05-01T08:25:34.273Z</time></trkpt><trkpt lat="44.944368" lon="8.0200996"><ele>174.0</ele><time>2026-05-01T08:25:35.274Z</time></trkpt><trkpt lat="44.9441579" lon="8.0201306"><ele>175.33333333333334</ele><time>2026-05-01T08:25:36.273Z</time></trkpt><trkpt lat="44.9439537" lon="8.0201813"><ele>176.66666666666669</ele><time>2026-05-01T08:25:37.273Z</time></trkpt><trkpt lat="44.9437501" lon="8.0202488"><ele>178.0</ele><time>2026-05-01T08:25:38.273Z</time></trkpt><trkpt lat="44.9435513" lon="8.0203407"><ele>176.0</ele><time>2026-05-01T08:25:39.273Z</time></trkpt><trkpt lat="44.9433555" lon="8.0204435"><ele>174.0</ele><time>2026-05-01T08:25:40.274Z</time></trkpt><trkpt lat="44.9431562" lon="8.0205468"><ele>172.0</ele><time>2026-05-01T08:25:41.273Z</time></trkpt><trkpt lat="44.9429576" lon="8.0206529"><ele>172.0</ele><time>2026-05-01T08:25:42.273Z</time></trkpt><trkpt lat="44.9427584" lon="8.0207592"><ele>172.0</ele><time>2026-05-01T08:25:43.273Z</time></trkpt><trkpt lat="44.9425585" lon="8.020856"><ele>172.0</ele><time>2026-05-01T08:25:44.274Z</time></trkpt><trkpt lat="44.9423615" lon="8.0209527"><ele>173.0</ele><time>2026-05-01T08:25:45.273Z</time></trkpt><trkpt lat="44.9421593" lon="8.0210479"><ele>174.0</ele><time>2026-05-01T08:25:46.274Z</time></trkpt><trkpt lat="44.9419517" lon="8.0211472"><ele>175.0</ele><time>2026-05-01T08:25:47.273Z</time></trkpt><trkpt lat="44.9417501" lon="8.0212501"><ele>173.33333333333334</ele><time>2026-05-01T08:25:48.274Z</time></trkpt><trkpt lat="44.9415422" lon="8.0213551"><ele>171.66666666666666</ele><time>2026-05-01T08:25:49.273Z</time></trkpt><trkpt lat="44.9413305" lon="8.0214562"><ele>170.0</ele><time>2026-05-01T08:25:50.273Z</time></trkpt><trkpt lat="44.9411241" lon="8.0215622"><ele>170.33333333333331</ele><time>2026-05-01T08:25:51.273Z</time></trkpt><trkpt lat="44.9409147" lon="8.0216757"><ele>170.66666666666666</ele><time>2026-05-01T08:25:52.273Z</time></trkpt><trkpt lat="44.9407066" lon="8.0217847"><ele>171.0</ele><time>2026-05-01T08:25:53.273Z</time></trkpt><trkpt lat="44.9405041" lon="8.0218874"><ele>171.0</ele><time>2026-05-01T08:25:54.273Z</time></trkpt><trkpt lat="44.9403014" lon="8.0219848"><ele>171.0</ele><time>2026-05-01T08:25:55.274Z</time></trkpt><trkpt lat="44.9400956" lon="8.0220814"><ele>171.0</ele><time>2026-05-01T08:25:56.273Z</time></trkpt><trkpt lat="44.9398906" lon="8.0221836"><ele>171.0</ele><time>2026-05-01T08:25:57.273Z</time></trkpt><trkpt lat="44.9396886" lon="8.0222867"><ele>171.0</ele><time>2026-05-01T08:25:58.273Z</time></trkpt><trkpt lat="44.9394929" lon="8.0223841"><ele>171.0</ele><time>2026-05-01T08:25:59.273Z</time></trkpt><trkpt lat="44.9392994" lon="8.0224823"><ele>171.0</ele><time>2026-05-01T08:26:00.273Z</time></trkpt><trkpt lat="44.9391033" lon="8.0225777"><ele>171.0</ele><time>2026-05-01T08:26:01.273Z</time></trkpt><trkpt lat="44.9389081" lon="8.0226783"><ele>171.0</ele><time>2026-05-01T08:26:02.273Z</time></trkpt><trkpt lat="44.9387114" lon="8.0227731"><ele>171.0</ele><time>2026-05-01T08:26:03.273Z</time></trkpt><trkpt lat="44.9385057" lon="8.0228739"><ele>171.0</ele><time>2026-05-01T08:26:04.273Z</time></trkpt><trkpt lat="44.9382929" lon="8.0229772"><ele>171.0</ele><time>2026-05-01T08:26:05.273Z</time></trkpt><trkpt lat="44.938076" lon="8.0230866"><ele>169.5</ele><time>2026-05-01T08:26:06.273Z</time></trkpt><trkpt lat="44.9378571" lon="8.0231982"><ele>168.0</ele><time>2026-05-01T08:26:07.273Z</time></trkpt><trkpt lat="44.9376344" lon="8.0233072"><ele>167.0</ele><time>2026-05-01T08:26:08.273Z</time></trkpt><trkpt lat="44.9374213" lon="8.0234127"><ele>166.0</ele><time>2026-05-01T08:26:09.273Z</time></trkpt><trkpt lat="44.9372052" lon="8.0235205"><ele>166.0</ele><time>2026-05-01T08:26:10.273Z</time></trkpt><trkpt lat="44.9369927" lon="8.0236246"><ele>166.0</ele><time>2026-05-01T08:26:11.274Z</time></trkpt><trkpt lat="44.9367781" lon="8.0237337"><ele>167.0</ele><time>2026-05-01T08:26:12.273Z</time></trkpt><trkpt lat="44.9365631" lon="8.023845"><ele>168.0</ele><time>2026-05-01T08:26:13.274Z</time></trkpt><trkpt lat="44.9363509" lon="8.0239426"><ele>168.0</ele><time>2026-05-01T08:26:14.273Z</time></trkpt><trkpt lat="44.9361362" lon="8.0240385"><ele>168.0</ele><time>2026-05-01T08:26:15.273Z</time></trkpt><trkpt lat="44.9359198" lon="8.0241506"><ele>168.0</ele><time>2026-05-01T08:26:16.273Z</time></trkpt><trkpt lat="44.935702" lon="8.0242809"><ele>168.0</ele><time>2026-05-01T08:26:17.273Z</time></trkpt><trkpt lat="44.9354841" lon="8.0244098"><ele>168.0</ele><time>2026-05-01T08:26:18.273Z</time></trkpt><trkpt lat="44.9352792" lon="8.024544"><ele>168.0</ele><time>2026-05-01T08:26:19.273Z</time></trkpt><trkpt lat="44.9350703" lon="8.0246919"><ele>168.5</ele><time>2026-05-01T08:26:20.273Z</time></trkpt><trkpt lat="44.9348622" lon="8.0248386"><ele>169.0</ele><time>2026-05-01T08:26:21.273Z</time></trkpt><trkpt lat="44.9346554" lon="8.0249851"><ele>170.0</ele><time>2026-05-01T08:26:22.273Z</time></trkpt><trkpt lat="44.9344458" lon="8.0251333"><ele>171.0</ele><time>2026-05-01T08:26:23.273Z</time></trkpt><trkpt lat="44.9342382" lon="8.0252696"><ele>171.0</ele><time>2026-05-01T08:26:24.273Z</time></trkpt><trkpt lat="44.934032" lon="8.0254069"><ele>171.0</ele><time>2026-05-01T08:26:25.273Z</time></trkpt><trkpt lat="44.9338314" lon="8.0255504"><ele>171.0</ele><time>2026-05-01T08:26:26.273Z</time></trkpt><trkpt lat="44.9336345" lon="8.0256986"><ele>171.0</ele><time>2026-05-01T08:26:27.273Z</time></trkpt><trkpt lat="44.9334338" lon="8.0258468"><ele>170.0</ele><time>2026-05-01T08:26:28.273Z</time></trkpt><trkpt lat="44.933235" lon="8.0259951"><ele>169.0</ele><time>2026-05-01T08:26:29.273Z</time></trkpt><trkpt lat="44.9330365" lon="8.0261342"><ele>168.0</ele><time>2026-05-01T08:26:30.273Z</time></trkpt><trkpt lat="44.932831" lon="8.0262685"><ele>168.0</ele><time>2026-05-01T08:26:31.273Z</time></trkpt><trkpt lat="44.9326241" lon="8.026405"><ele>168.0</ele><time>2026-05-01T08:26:32.273Z</time></trkpt><trkpt lat="44.9324184" lon="8.0265522"><ele>167.5</ele><time>2026-05-01T08:26:33.273Z</time></trkpt><trkpt lat="44.932215" lon="8.0266998"><ele>167.0</ele><time>2026-05-01T08:26:34.273Z</time></trkpt><trkpt lat="44.9320074" lon="8.0268453"><ele>167.0</ele><time>2026-05-01T08:26:35.273Z</time></trkpt><trkpt lat="44.9318034" lon="8.0269795"><ele>167.0</ele><time>2026-05-01T08:26:36.273Z</time></trkpt><trkpt lat="44.931603" lon="8.0271193"><ele>167.0</ele><time>2026-05-01T08:26:37.273Z</time></trkpt><trkpt lat="44.9313972" lon="8.0272595"><ele>166.0</ele><time>2026-05-01T08:26:38.273Z</time></trkpt><trkpt lat="44.9311965" lon="8.027406"><ele>165.0</ele><time>2026-05-01T08:26:39.273Z</time></trkpt><trkpt lat="44.930993" lon="8.0275533"><ele>164.0</ele><time>2026-05-01T08:26:40.273Z</time></trkpt><trkpt lat="44.9307925" lon="8.0276987"><ele>163.0</ele><time>2026-05-01T08:26:41.273Z</time></trkpt><trkpt lat="44.9305897" lon="8.0278452"><ele>163.0</ele><time>2026-05-01T08:26:42.273Z</time></trkpt><trkpt lat="44.9303869" lon="8.0280009"><ele>163.0</ele><time>2026-05-01T08:26:43.274Z</time></trkpt><trkpt lat="44.9301929" lon="8.0281681"><ele>161.5</ele><time>2026-05-01T08:26:44.273Z</time></trkpt><trkpt lat="44.9300065" lon="8.0283593"><ele>160.0</ele><time>2026-05-01T08:26:45.273Z</time></trkpt><trkpt lat="44.9298285" lon="8.0285648"><ele>160.0</ele><time>2026-05-01T08:26:46.274Z</time></trkpt><trkpt lat="44.929658" lon="8.0287726"><ele>160.0</ele><time>2026-05-01T08:26:47.274Z</time></trkpt><trkpt lat="44.9294813" lon="8.0289871"><ele>160.0</ele><time>2026-05-01T08:26:48.273Z</time></trkpt><trkpt lat="44.9293046" lon="8.0291951"><ele>160.0</ele><time>2026-05-01T08:26:49.273Z</time></trkpt><trkpt lat="44.9291379" lon="8.0293962"><ele>160.0</ele><time>2026-05-01T08:26:50.273Z</time></trkpt><trkpt lat="44.928967" lon="8.0295992"><ele>159.66666666666669</ele><time>2026-05-01T08:26:51.273Z</time></trkpt><trkpt lat="44.9287984" lon="8.0298051"><ele>159.33333333333334</ele><time>2026-05-01T08:26:52.273Z</time></trkpt><trkpt lat="44.9286255" lon="8.0300096"><ele>159.0</ele><time>2026-05-01T08:26:53.273Z</time></trkpt><trkpt lat="44.9284509" lon="8.0302059"><ele>159.33333333333334</ele><time>2026-05-01T08:26:54.274Z</time></trkpt><trkpt lat="44.9282769" lon="8.0303869"><ele>159.66666666666669</ele><time>2026-05-01T08:26:55.273Z</time></trkpt><trkpt lat="44.9280988" lon="8.030572"><ele>160.0</ele><time>2026-05-01T08:26:56.273Z</time></trkpt><trkpt lat="44.9279214" lon="8.0307565"><ele>160.33333333333334</ele><time>2026-05-01T08:26:57.273Z</time></trkpt><trkpt lat="44.9277416" lon="8.030943"><ele>160.66666666666666</ele><time>2026-05-01T08:26:58.273Z</time></trkpt><trkpt lat="44.9275598" lon="8.0311287"><ele>161.0</ele><time>2026-05-01T08:26:59.273Z</time></trkpt><trkpt lat="44.9273828" lon="8.0313158"><ele>161.0</ele><time>2026-05-01T08:27:00.273Z</time></trkpt><trkpt lat="44.9272091" lon="8.0314929"><ele>161.0</ele><time>2026-05-01T08:27:01.273Z</time></trkpt><trkpt lat="44.9270385" lon="8.0316748"><ele>161.0</ele><time>2026-05-01T08:27:02.273Z</time></trkpt><trkpt lat="44.9268728" lon="8.0318437"><ele>161.66666666666666</ele><time>2026-05-01T08:27:03.273Z</time></trkpt><trkpt lat="44.9267078" lon="8.0319996"><ele>162.33333333333334</ele><time>2026-05-01T08:27:04.273Z</time></trkpt><trkpt lat="44.9265312" lon="8.0321452"><ele>163.0</ele><time>2026-05-01T08:27:05.274Z</time></trkpt><trkpt lat="44.9263407" lon="8.0322779"><ele>163.0</ele><time>2026-05-01T08:27:06.273Z</time></trkpt><trkpt lat="44.9261523" lon="8.032391"><ele>163.0</ele><time>2026-05-01T08:27:07.273Z</time></trkpt><trkpt lat="44.9259588" lon="8.0324888"><ele>163.0</ele><time>2026-05-01T08:27:08.273Z</time></trkpt><trkpt lat="44.9257631" lon="8.0325844"><ele>165.5</ele><time>2026-05-01T08:27:09.273Z</time></trkpt><trkpt lat="44.9255448" lon="8.0326897"><ele>168.0</ele><time>2026-05-01T08:27:10.273Z</time></trkpt><trkpt lat="44.9253332" lon="8.0327977"><ele>168.0</ele><time>2026-05-01T08:27:11.273Z</time></trkpt><trkpt lat="44.92513" lon="8.0329027"><ele>168.0</ele><time>2026-05-01T08:27:12.273Z</time></trkpt><trkpt lat="44.9249269" lon="8.0330061"><ele>168.0</ele><time>2026-05-01T08:27:13.273Z</time></trkpt><trkpt lat="44.924725" lon="8.0331066"><ele>166.33333333333334</ele><time>2026-05-01T08:27:14.273Z</time></trkpt><trkpt lat="44.9245234" lon="8.03321"><ele>164.66666666666669</ele><time>2026-05-01T08:27:15.273Z</time></trkpt><trkpt lat="44.9243287" lon="8.0333036"><ele>163.0</ele><time>2026-05-01T08:27:16.273Z</time></trkpt><trkpt lat="44.924132" lon="8.0333871"><ele>162.66666666666669</ele><time>2026-05-01T08:27:17.273Z</time></trkpt><trkpt lat="44.9239417" lon="8.033485"><ele>162.33333333333334</ele><time>2026-05-01T08:27:18.273Z</time></trkpt><trkpt lat="44.9237578" lon="8.0336079"><ele>162.0</ele><time>2026-05-01T08:27:19.273Z</time></trkpt><trkpt lat="44.9235811" lon="8.0337709"><ele>162.0</ele><time>2026-05-01T08:27:20.273Z</time></trkpt><trkpt lat="44.9234088" lon="8.0339713"><ele>162.0</ele><time>2026-05-01T08:27:21.273Z</time></trkpt><trkpt lat="44.9232425" lon="8.0341992"><ele>161.0</ele><time>2026-05-01T08:27:22.273Z</time></trkpt><trkpt lat="44.923082" lon="8.0344332"><ele>160.0</ele><time>2026-05-01T08:27:23.273Z</time></trkpt><trkpt lat="44.9229184" lon="8.0346525"><ele>160.0</ele><time>2026-05-01T08:27:24.273Z</time></trkpt><trkpt lat="44.9227523" lon="8.0348709"><ele>160.0</ele><time>2026-05-01T08:27:25.273Z</time></trkpt><trkpt lat="44.9225933" lon="8.0350897"><ele>160.0</ele><time>2026-05-01T08:27:26.274Z</time></trkpt><trkpt lat="44.9224395" lon="8.0353031"><ele>161.33333333333334</ele><time>2026-05-01T08:27:27.273Z</time></trkpt><trkpt lat="44.922287" lon="8.0355243"><ele>162.66666666666666</ele><time>2026-05-01T08:27:28.273Z</time></trkpt><trkpt lat="44.9221364" lon="8.0357366"><ele>164.0</ele><time>2026-05-01T08:27:29.273Z</time></trkpt><trkpt lat="44.9219784" lon="8.0359322"><ele>164.66666666666666</ele><time>2026-05-01T08:27:30.273Z</time></trkpt><trkpt lat="44.921821" lon="8.0361276"><ele>165.33333333333334</ele><time>2026-05-01T08:27:31.273Z</time></trkpt><trkpt lat="44.9216755" lon="8.0363162"><ele>166.0</ele><time>2026-05-01T08:27:32.273Z</time></trkpt><trkpt lat="44.9215356" lon="8.0364962"><ele>164.33333333333334</ele><time>2026-05-01T08:27:33.273Z</time></trkpt><trkpt lat="44.9214004" lon="8.0366645"><ele>162.66666666666666</ele><time>2026-05-01T08:27:34.273Z</time></trkpt><trkpt lat="44.921271" lon="8.0368063"><ele>161.0</ele><time>2026-05-01T08:27:35.274Z</time></trkpt><trkpt lat="44.9211361" lon="8.0369208"><ele>161.0</ele><time>2026-05-01T08:27:36.273Z</time></trkpt><trkpt lat="44.920979" lon="8.0369992"><ele>161.0</ele><time>2026-05-01T08:27:37.273Z</time></trkpt><trkpt lat="44.9208055" lon="8.0370192"><ele>161.0</ele><time>2026-05-01T08:27:38.274Z</time></trkpt><trkpt lat="44.9206176" lon="8.0369838"><ele>159.66666666666666</ele><time>2026-05-01T08:27:39.273Z</time></trkpt><trkpt lat="44.9204109" lon="8.0369347"><ele>158.33333333333334</ele><time>2026-05-01T08:27:40.273Z</time></trkpt><trkpt lat="44.9202051" lon="8.0368757"><ele>157.0</ele><time>2026-05-01T08:27:41.273Z</time></trkpt><trkpt lat="44.9199953" lon="8.0368172"><ele>156.33333333333334</ele><time>2026-05-01T08:27:42.273Z</time></trkpt><trkpt lat="44.9197775" lon="8.0367634"><ele>155.66666666666666</ele><time>2026-05-01T08:27:43.273Z</time></trkpt><trkpt lat="44.9195572" lon="8.0367065"><ele>155.0</ele><time>2026-05-01T08:27:44.273Z</time></trkpt><trkpt lat="44.9193412" lon="8.0366419"><ele>155.33333333333331</ele><time>2026-05-01T08:27:45.273Z</time></trkpt><trkpt lat="44.9191246" lon="8.0365868"><ele>155.66666666666666</ele><time>2026-05-01T08:27:46.273Z</time></trkpt><trkpt lat="44.9189034" lon="8.0365289"><ele>156.0</ele><time>2026-05-01T08:27:47.273Z</time></trkpt><trkpt lat="44.9186759" lon="8.036472"><ele>156.0</ele><time>2026-05-01T08:27:48.273Z</time></trkpt><trkpt lat="44.9184548" lon="8.0364032"><ele>156.0</ele><time>2026-05-01T08:27:49.273Z</time></trkpt><trkpt lat="44.9182353" lon="8.0363382"><ele>156.0</ele><time>2026-05-01T08:27:50.273Z</time></trkpt><trkpt lat="44.9180187" lon="8.0362655"><ele>156.0</ele><time>2026-05-01T08:27:51.273Z</time></trkpt><trkpt lat="44.9178106" lon="8.0361909"><ele>156.0</ele><time>2026-05-01T08:27:52.274Z</time></trkpt><trkpt lat="44.9176052" lon="8.0361174"><ele>157.0</ele><time>2026-05-01T08:27:53.273Z</time></trkpt><trkpt lat="44.9173944" lon="8.0360463"><ele>158.0</ele><time>2026-05-01T08:27:54.273Z</time></trkpt><trkpt lat="44.9171845" lon="8.0359748"><ele>159.0</ele><time>2026-05-01T08:27:55.273Z</time></trkpt><trkpt lat="44.916981" lon="8.0359005"><ele>159.0</ele><time>2026-05-01T08:27:56.274Z</time></trkpt><trkpt lat="44.9167766" lon="8.0358356"><ele>159.0</ele><time>2026-05-01T08:27:57.273Z</time></trkpt><trkpt lat="44.9165827" lon="8.0357738"><ele>159.0</ele><time>2026-05-01T08:27:58.273Z</time></trkpt><trkpt lat="44.916396" lon="8.0357102"><ele>158.33333333333334</ele><time>2026-05-01T08:27:59.273Z</time></trkpt><trkpt lat="44.9162267" lon="8.0356263"><ele>157.66666666666669</ele><time>2026-05-01T08:28:00.273Z</time></trkpt><trkpt lat="44.9160734" lon="8.0355292"><ele>157.0</ele><time>2026-05-01T08:28:01.273Z</time></trkpt><trkpt lat="44.9159424" lon="8.035413"><ele>158.0</ele><time>2026-05-01T08:28:02.273Z</time></trkpt><trkpt lat="44.9158252" lon="8.0353025"><ele>159.0</ele><time>2026-05-01T08:28:03.274Z</time></trkpt><trkpt lat="44.9157169" lon="8.0351924"><ele>160.0</ele><time>2026-05-01T08:28:04.273Z</time></trkpt><trkpt lat="44.9156224" lon="8.0350751"><ele>161.0</ele><time>2026-05-01T08:28:05.273Z</time></trkpt><trkpt lat="44.9155647" lon="8.0349319"><ele>161.0</ele><time>2026-05-01T08:28:06.273Z</time></trkpt><trkpt lat="44.9155407" lon="8.0347714"><ele>161.0</ele><time>2026-05-01T08:28:07.273Z</time></trkpt><trkpt lat="44.9155584" lon="8.0345932"><ele>161.0</ele><time>2026-05-01T08:28:08.274Z</time></trkpt><trkpt lat="44.9156236" lon="8.0344037"><ele>161.0</ele><time>2026-05-01T08:28:09.273Z</time></trkpt><trkpt lat="44.9157153" lon="8.034222"><ele>161.25</ele><time>2026-05-01T08:28:10.273Z</time></trkpt><trkpt lat="44.915793" lon="8.0340404"><ele>161.5</ele><time>2026-05-01T08:28:11.273Z</time></trkpt><trkpt lat="44.9158688" lon="8.0338591"><ele>161.75</ele><time>2026-05-01T08:28:12.273Z</time></trkpt><trkpt lat="44.9159542" lon="8.0336984"><ele>162.0</ele><time>2026-05-01T08:28:13.273Z</time></trkpt><trkpt lat="44.9160609" lon="8.0335614"><ele>162.0</ele><time>2026-05-01T08:28:14.274Z</time></trkpt><trkpt lat="44.9161784" lon="8.0334612"><ele>162.0</ele><time>2026-05-01T08:28:15.273Z</time></trkpt><trkpt lat="44.9162995" lon="8.0333733"><ele>162.0</ele><time>2026-05-01T08:28:16.273Z</time></trkpt><trkpt lat="44.9164124" lon="8.0332879"><ele>162.0</ele><time>2026-05-01T08:28:17.274Z</time></trkpt><trkpt lat="44.916508" lon="8.0332006"><ele>162.2</ele><time>2026-05-01T08:28:18.273Z</time></trkpt><trkpt lat="44.9165792" lon="8.0330973"><ele>162.39999999999998</ele><time>2026-05-01T08:28:19.273Z</time></trkpt><trkpt lat="44.9166121" lon="8.0329935"><ele>162.60000000000002</ele><time>2026-05-01T08:28:20.274Z</time></trkpt><trkpt lat="44.916612" lon="8.0328748"><ele>162.8</ele><time>2026-05-01T08:28:21.273Z</time></trkpt><trkpt lat="44.9165913" lon="8.0327554"><ele>163.0</ele><time>2026-05-01T08:28:22.273Z</time></trkpt><trkpt lat="44.9165367" lon="8.0326425"><ele>163.0</ele><time>2026-05-01T08:28:23.273Z</time></trkpt><trkpt lat="44.916471" lon="8.0325335"><ele>163.0</ele><time>2026-05-01T08:28:24.274Z</time></trkpt><trkpt lat="44.9164124" lon="8.0324223"><ele>163.0</ele><time>2026-05-01T08:28:25.273Z</time></trkpt><trkpt lat="44.9163767" lon="8.0323101"><ele>163.0</ele><time>2026-05-01T08:28:26.273Z</time></trkpt><trkpt lat="44.9163456" lon="8.0322088"><ele>163.0</ele><time>2026-05-01T08:28:27.273Z</time></trkpt><trkpt lat="44.9162969" lon="8.0321166"><ele>163.0</ele><time>2026-05-01T08:28:28.273Z</time></trkpt><trkpt lat="44.9162312" lon="8.0320583"><ele>163.0</ele><time>2026-05-01T08:28:29.273Z</time></trkpt><trkpt lat="44.9161508" lon="8.0320491"><ele>163.0</ele><time>2026-05-01T08:28:30.273Z</time></trkpt><trkpt lat="44.9160688" lon="8.0320821"><ele>163.0</ele><time>2026-05-01T08:28:31.274Z</time></trkpt><trkpt lat="44.9160053" lon="8.0321596"><ele>163.0</ele><time>2026-05-01T08:28:32.273Z</time></trkpt><trkpt lat="44.9159694" lon="8.0322784"><ele>163.0</ele><time>2026-05-01T08:28:33.274Z</time></trkpt><trkpt lat="44.9159555" lon="8.0324248"><ele>163.0</ele><time>2026-05-01T08:28:34.273Z</time></trkpt><trkpt lat="44.9159547" lon="8.0325714"><ele>163.0</ele><time>2026-05-01T08:28:35.273Z</time></trkpt><trkpt lat="44.9159424" lon="8.0327119"><ele>163.0</ele><time>2026-05-01T08:28:36.273Z</time></trkpt><trkpt lat="44.9159019" lon="8.0328355"><ele>163.0</ele><time>2026-05-01T08:28:37.273Z</time></trkpt><trkpt lat="44.9158394" lon="8.0329456"><ele>163.0</ele><time>2026-05-01T08:28:38.273Z</time></trkpt><trkpt lat="44.9157779" lon="8.0330581"><ele>163.0</ele><time>2026-05-01T08:28:39.274Z</time></trkpt><trkpt lat="44.9157144" lon="8.0331777"><ele>163.0</ele><time>2026-05-01T08:28:40.273Z</time></trkpt><trkpt lat="44.9156551" lon="8.0333008"><ele>163.0</ele><time>2026-05-01T08:28:41.273Z</time></trkpt><trkpt lat="44.9155948" lon="8.0334214"><ele>163.0</ele><time>2026-05-01T08:28:42.273Z</time></trkpt><trkpt lat="44.9155348" lon="8.0335407"><ele>163.0</ele><time>2026-05-01T08:28:43.273Z</time></trkpt><trkpt lat="44.9154721" lon="8.0336669"><ele>163.0</ele><time>2026-05-01T08:28:44.273Z</time></trkpt><trkpt lat="44.9154072" lon="8.0337982"><ele>163.0</ele><time>2026-05-01T08:28:45.274Z</time></trkpt><trkpt lat="44.9153406" lon="8.0339329"><ele>163.0</ele><time>2026-05-01T08:28:46.273Z</time></trkpt><trkpt lat="44.9152806" lon="8.0340701"><ele>163.0</ele><time>2026-05-01T08:28:47.273Z</time></trkpt><trkpt lat="44.9152146" lon="8.0342096"><ele>163.0</ele><time>2026-05-01T08:28:48.273Z</time></trkpt><trkpt lat="44.915147" lon="8.0343427"><ele>163.0</ele><time>2026-05-01T08:28:49.273Z</time></trkpt><trkpt lat="44.9150777" lon="8.0344753"><ele>163.0</ele><time>2026-05-01T08:28:50.273Z</time></trkpt><trkpt lat="44.9150179" lon="8.0345959"><ele>163.0</ele><time>2026-05-01T08:28:51.273Z</time></trkpt><trkpt lat="44.9149627" lon="8.0347078"><ele>163.0</ele><time>2026-05-01T08:28:52.273Z</time></trkpt><trkpt lat="44.9149111" lon="8.0348112"><ele>163.0</ele><time>2026-05-01T08:28:53.274Z</time></trkpt><trkpt lat="44.9148598" lon="8.0349139"><ele>162.83333333333334</ele><time>2026-05-01T08:28:54.273Z</time></trkpt><trkpt lat="44.9148128" lon="8.0350079"><ele>162.66666666666669</ele><time>2026-05-01T08:28:55.273Z</time></trkpt><trkpt lat="44.9147706" lon="8.0350899"><ele>162.5</ele><time>2026-05-01T08:28:56.273Z</time></trkpt><trkpt lat="44.9147281" lon="8.035175"><ele>162.33333333333334</ele><time>2026-05-01T08:28:57.273Z</time></trkpt><trkpt lat="44.914682" lon="8.0352644"><ele>162.16666666666666</ele><time>2026-05-01T08:28:58.274Z</time></trkpt><trkpt lat="44.9146267" lon="8.0353418"><ele>162.0</ele><time>2026-05-01T08:28:59.273Z</time></trkpt><trkpt lat="44.9145644" lon="8.0354122"><ele>162.0</ele><time>2026-05-01T08:29:00.273Z</time></trkpt><trkpt lat="44.9145044" lon="8.0354585"><ele>162.0</ele><time>2026-05-01T08:29:01.274Z</time></trkpt><trkpt lat="44.914427" lon="8.0354859"><ele>162.0</ele><time>2026-05-01T08:29:02.273Z</time></trkpt><trkpt lat="44.9143527" lon="8.0354704"><ele>162.0</ele><time>2026-05-01T08:29:03.273Z</time></trkpt><trkpt lat="44.9142809" lon="8.0354505"><ele>162.0</ele><time>2026-05-01T08:29:04.273Z</time></trkpt><trkpt lat="44.9142092" lon="8.0354487"><ele>162.0</ele><time>2026-05-01T08:29:05.274Z</time></trkpt><trkpt lat="44.9141445" lon="8.0354794"><ele>162.0</ele><time>2026-05-01T08:29:06.273Z</time></trkpt><trkpt lat="44.914086" lon="8.0355448"><ele>162.14285714285714</ele><time>2026-05-01T08:29:07.273Z</time></trkpt><trkpt lat="44.9140484" lon="8.0356364"><ele>162.28571428571428</ele><time>2026-05-01T08:29:08.273Z</time></trkpt><trkpt lat="44.9140295" lon="8.0357346"><ele>162.42857142857144</ele><time>2026-05-01T08:29:09.273Z</time></trkpt><trkpt lat="44.9140159" lon="8.0358351"><ele>162.57142857142856</ele><time>2026-05-01T08:29:10.273Z</time></trkpt><trkpt lat="44.9139988" lon="8.0359315"><ele>162.7142857142857</ele><time>2026-05-01T08:29:11.273Z</time></trkpt><trkpt lat="44.9139728" lon="8.0360256"><ele>162.85714285714286</ele><time>2026-05-01T08:29:12.273Z</time></trkpt><trkpt lat="44.9139366" lon="8.0361156"><ele>163.0</ele><time>2026-05-01T08:29:13.274Z</time></trkpt><trkpt lat="44.9138894" lon="8.0361847"><ele>163.0</ele><time>2026-05-01T08:29:14.273Z</time></trkpt><trkpt lat="44.9138283" lon="8.0362331"><ele>163.0</ele><time>2026-05-01T08:29:15.273Z</time></trkpt><trkpt lat="44.9137623" lon="8.036256"><ele>163.0</ele><time>2026-05-01T08:29:16.273Z</time></trkpt><trkpt lat="44.9136981" lon="8.0362563"><ele>163.0</ele><time>2026-05-01T08:29:17.273Z</time></trkpt><trkpt lat="44.9136314" lon="8.0362298"><ele>163.0</ele><time>2026-05-01T08:29:18.273Z</time></trkpt><trkpt lat="44.9135723" lon="8.0361769"><ele>163.0</ele><time>2026-05-01T08:29:19.273Z</time></trkpt><trkpt lat="44.9135174" lon="8.0361129"><ele>163.0</ele><time>2026-05-01T08:29:20.273Z</time></trkpt><trkpt lat="44.9134725" lon="8.0360496"><ele>164.2</ele><time>2026-05-01T08:29:21.273Z</time></trkpt><trkpt lat="44.9133866" lon="8.0359331"><ele>165.4</ele><time>2026-05-01T08:29:23.273Z</time></trkpt><trkpt lat="44.9133182" lon="8.0357966"><ele>166.6</ele><time>2026-05-01T08:29:25.273Z</time></trkpt><trkpt lat="44.9132779" lon="8.0356606"><ele>167.79999999999998</ele><time>2026-05-01T08:29:27.273Z</time></trkpt><trkpt lat="44.9132543" lon="8.0355758"><ele>169.0</ele><time>2026-05-01T08:29:29.273Z</time></trkpt><trkpt lat="44.9132379" lon="8.0354876"><ele>169.83333333333334</ele><time>2026-05-01T08:29:31.273Z</time></trkpt><trkpt lat="44.9131928" lon="8.0353673"><ele>170.66666666666669</ele><time>2026-05-01T08:29:33.273Z</time></trkpt><trkpt lat="44.9131475" lon="8.0352993"><ele>171.5</ele><time>2026-05-01T08:29:34.273Z</time></trkpt><trkpt lat="44.9130839" lon="8.0352468"><ele>172.33333333333334</ele><time>2026-05-01T08:29:35.273Z</time></trkpt><trkpt lat="44.9130077" lon="8.0352098"><ele>173.16666666666666</ele><time>2026-05-01T08:29:36.274Z</time></trkpt><trkpt lat="44.9129193" lon="8.0351827"><ele>174.0</ele><time>2026-05-01T08:29:37.273Z</time></trkpt><trkpt lat="44.9128251" lon="8.0351509"><ele>174.0</ele><time>2026-05-01T08:29:38.273Z</time></trkpt><trkpt lat="44.912721" lon="8.0351089"><ele>174.0</ele><time>2026-05-01T08:29:39.273Z</time></trkpt><trkpt lat="44.9126079" lon="8.0350528"><ele>174.0</ele><time>2026-05-01T08:29:40.273Z</time></trkpt><trkpt lat="44.9124962" lon="8.0349876"><ele>174.0</ele><time>2026-05-01T08:29:41.274Z</time></trkpt><trkpt lat="44.9123846" lon="8.0348902"><ele>172.66666666666666</ele><time>2026-05-01T08:29:42.273Z</time></trkpt><trkpt lat="44.912285" lon="8.0347583"><ele>171.33333333333331</ele><time>2026-05-01T08:29:43.273Z</time></trkpt><trkpt lat="44.912189" lon="8.0345938"><ele>170.0</ele><time>2026-05-01T08:29:44.273Z</time></trkpt><trkpt lat="44.9120926" lon="8.0344076"><ele>170.0</ele><time>2026-05-01T08:29:45.273Z</time></trkpt><trkpt lat="44.9120017" lon="8.0342297"><ele>170.0</ele><time>2026-05-01T08:29:46.273Z</time></trkpt><trkpt lat="44.9119083" lon="8.0340653"><ele>170.0</ele><time>2026-05-01T08:29:47.273Z</time></trkpt><trkpt lat="44.9118122" lon="8.0339055"><ele>169.5</ele><time>2026-05-01T08:29:48.273Z</time></trkpt><trkpt lat="44.9117214" lon="8.0337485"><ele>169.0</ele><time>2026-05-01T08:29:49.273Z</time></trkpt><trkpt lat="44.9116326" lon="8.0335918"><ele>168.5</ele><time>2026-05-01T08:29:50.273Z</time></trkpt><trkpt lat="44.9115409" lon="8.0334398"><ele>168.0</ele><time>2026-05-01T08:29:51.273Z</time></trkpt><trkpt lat="44.9114433" lon="8.0332747"><ele>168.0</ele><time>2026-05-01T08:29:52.273Z</time></trkpt><trkpt lat="44.9113493" lon="8.03311"><ele>168.0</ele><time>2026-05-01T08:29:53.274Z</time></trkpt><trkpt lat="44.9112634" lon="8.0329444"><ele>168.0</ele><time>2026-05-01T08:29:54.273Z</time></trkpt><trkpt lat="44.9111746" lon="8.0327958"><ele>168.0</ele><time>2026-05-01T08:29:55.273Z</time></trkpt><trkpt lat="44.9110869" lon="8.0326585"><ele>168.0</ele><time>2026-05-01T08:29:56.273Z</time></trkpt><trkpt lat="44.9110065" lon="8.0325231"><ele>168.0</ele><time>2026-05-01T08:29:57.273Z</time></trkpt><trkpt lat="44.9109316" lon="8.0323979"><ele>168.0</ele><time>2026-05-01T08:29:58.273Z</time></trkpt><trkpt lat="44.9108721" lon="8.0322812"><ele>168.0</ele><time>2026-05-01T08:29:59.273Z</time></trkpt><trkpt lat="44.910813" lon="8.032162"><ele>168.0</ele><time>2026-05-01T08:30:00.273Z</time></trkpt><trkpt lat="44.9107478" lon="8.0320382"><ele>167.75</ele><time>2026-05-01T08:30:01.273Z</time></trkpt><trkpt lat="44.9106721" lon="8.0319121"><ele>167.5</ele><time>2026-05-01T08:30:02.273Z</time></trkpt><trkpt lat="44.9105858" lon="8.0317742"><ele>167.25</ele><time>2026-05-01T08:30:03.273Z</time></trkpt><trkpt lat="44.9104882" lon="8.0316213"><ele>167.0</ele><time>2026-05-01T08:30:04.273Z</time></trkpt><trkpt lat="44.9103844" lon="8.0314562"><ele>167.0</ele><time>2026-05-01T08:30:05.273Z</time></trkpt><trkpt lat="44.9102744" lon="8.0312783"><ele>167.0</ele><time>2026-05-01T08:30:06.273Z</time></trkpt><trkpt lat="44.9101668" lon="8.0310899"><ele>167.0</ele><time>2026-05-01T08:30:07.273Z</time></trkpt><trkpt lat="44.9100613" lon="8.0309083"><ele>167.66666666666666</ele><time>2026-05-01T08:30:08.273Z</time></trkpt><trkpt lat="44.9099499" lon="8.0307131"><ele>168.33333333333334</ele><time>2026-05-01T08:30:09.274Z</time></trkpt><trkpt lat="44.909829" lon="8.0305176"><ele>169.0</ele><time>2026-05-01T08:30:10.273Z</time></trkpt><trkpt lat="44.9097047" lon="8.0303145"><ele>169.0</ele><time>2026-05-01T08:30:11.273Z</time></trkpt><trkpt lat="44.909579" lon="8.0301113"><ele>169.0</ele><time>2026-05-01T08:30:12.273Z</time></trkpt><trkpt lat="44.9094491" lon="8.0298972"><ele>169.0</ele><time>2026-05-01T08:30:13.273Z</time></trkpt><trkpt lat="44.909313" lon="8.0296771"><ele>168.0</ele><time>2026-05-01T08:30:14.273Z</time></trkpt><trkpt lat="44.9091857" lon="8.0294507"><ele>167.0</ele><time>2026-05-01T08:30:15.273Z</time></trkpt><trkpt lat="44.9090462" lon="8.0292351"><ele>166.0</ele><time>2026-05-01T08:30:16.273Z</time></trkpt><trkpt lat="44.9089126" lon="8.0290268"><ele>166.0</ele><time>2026-05-01T08:30:17.273Z</time></trkpt><trkpt lat="44.9087867" lon="8.0288273"><ele>166.0</ele><time>2026-05-01T08:30:18.273Z</time></trkpt><trkpt lat="44.9086752" lon="8.0286375"><ele>166.0</ele><time>2026-05-01T08:30:19.273Z</time></trkpt><trkpt lat="44.9085701" lon="8.0284574"><ele>166.66666666666669</ele><time>2026-05-01T08:30:20.273Z</time></trkpt><trkpt lat="44.9084646" lon="8.0282875"><ele>167.33333333333334</ele><time>2026-05-01T08:30:21.273Z</time></trkpt><trkpt lat="44.9083628" lon="8.0281289"><ele>168.0</ele><time>2026-05-01T08:30:22.273Z</time></trkpt><trkpt lat="44.9082708" lon="8.0279745"><ele>168.0</ele><time>2026-05-01T08:30:23.274Z</time></trkpt><trkpt lat="44.9081793" lon="8.0278214"><ele>168.0</ele><time>2026-05-01T08:30:24.273Z</time></trkpt><trkpt lat="44.908086" lon="8.0276676"><ele>168.0</ele><time>2026-05-01T08:30:25.273Z</time></trkpt><trkpt lat="44.9079885" lon="8.0275036"><ele>168.0</ele><time>2026-05-01T08:30:26.273Z</time></trkpt><trkpt lat="44.907893" lon="8.0273386"><ele>168.66666666666666</ele><time>2026-05-01T08:30:27.273Z</time></trkpt><trkpt lat="44.9077978" lon="8.0271706"><ele>169.33333333333331</ele><time>2026-05-01T08:30:28.273Z</time></trkpt><trkpt lat="44.9077014" lon="8.0270023"><ele>170.0</ele><time>2026-05-01T08:30:29.273Z</time></trkpt><trkpt lat="44.9075958" lon="8.0268369"><ele>170.33333333333331</ele><time>2026-05-01T08:30:30.273Z</time></trkpt><trkpt lat="44.9074906" lon="8.0266632"><ele>170.66666666666666</ele><time>2026-05-01T08:30:31.273Z</time></trkpt><trkpt lat="44.907388" lon="8.0264864"><ele>171.0</ele><time>2026-05-01T08:30:32.273Z</time></trkpt><trkpt lat="44.9072945" lon="8.026315"><ele>171.0</ele><time>2026-05-01T08:30:33.274Z</time></trkpt><trkpt lat="44.907193" lon="8.0261416"><ele>171.0</ele><time>2026-05-01T08:30:34.273Z</time></trkpt><trkpt lat="44.9070914" lon="8.0259753"><ele>171.0</ele><time>2026-05-01T08:30:35.273Z</time></trkpt><trkpt lat="44.9069914" lon="8.0258077"><ele>171.33333333333334</ele><time>2026-05-01T08:30:36.273Z</time></trkpt><trkpt lat="44.9068902" lon="8.0256413"><ele>171.66666666666669</ele><time>2026-05-01T08:30:37.274Z</time></trkpt><trkpt lat="44.9067928" lon="8.0254719"><ele>172.0</ele><time>2026-05-01T08:30:38.273Z</time></trkpt><trkpt lat="44.9066916" lon="8.0253016"><ele>172.0</ele><time>2026-05-01T08:30:39.273Z</time></trkpt><trkpt lat="44.9065899" lon="8.0251285"><ele>172.0</ele><time>2026-05-01T08:30:40.273Z</time></trkpt><trkpt lat="44.9064824" lon="8.0249491"><ele>172.0</ele><time>2026-05-01T08:30:41.273Z</time></trkpt><trkpt lat="44.9063708" lon="8.0247708"><ele>173.66666666666669</ele><time>2026-05-01T08:30:42.273Z</time></trkpt><trkpt lat="44.9062676" lon="8.0245968"><ele>175.33333333333334</ele><time>2026-05-01T08:30:43.273Z</time></trkpt><trkpt lat="44.9061632" lon="8.0244229"><ele>177.0</ele><time>2026-05-01T08:30:44.273Z</time></trkpt><trkpt lat="44.9060511" lon="8.0242421"><ele>176.33333333333334</ele><time>2026-05-01T08:30:45.273Z</time></trkpt><trkpt lat="44.9059444" lon="8.024055"><ele>175.66666666666669</ele><time>2026-05-01T08:30:46.273Z</time></trkpt><trkpt lat="44.9058317" lon="8.0238688"><ele>175.0</ele><time>2026-05-01T08:30:47.273Z</time></trkpt><trkpt lat="44.9057166" lon="8.0236816"><ele>175.0</ele><time>2026-05-01T08:30:48.273Z</time></trkpt><trkpt lat="44.9056015" lon="8.023474"><ele>175.0</ele><time>2026-05-01T08:30:49.273Z</time></trkpt><trkpt lat="44.9054846" lon="8.0232733"><ele>175.0</ele><time>2026-05-01T08:30:50.273Z</time></trkpt><trkpt lat="44.9053588" lon="8.0230748"><ele>176.66666666666669</ele><time>2026-05-01T08:30:51.273Z</time></trkpt><trkpt lat="44.9052365" lon="8.0228735"><ele>178.33333333333334</ele><time>2026-05-01T08:30:52.273Z</time></trkpt><trkpt lat="44.9051142" lon="8.0226736"><ele>180.0</ele><time>2026-05-01T08:30:53.273Z</time></trkpt><trkpt lat="44.9049722" lon="8.0224809"><ele>176.33333333333334</ele><time>2026-05-01T08:30:54.273Z</time></trkpt><trkpt lat="44.9048309" lon="8.0222939"><ele>172.66666666666669</ele><time>2026-05-01T08:30:55.273Z</time></trkpt><trkpt lat="44.9046899" lon="8.022104"><ele>169.0</ele><time>2026-05-01T08:30:56.273Z</time></trkpt><trkpt lat="44.9045433" lon="8.0219196"><ele>169.0</ele><time>2026-05-01T08:30:57.273Z</time></trkpt><trkpt lat="44.9043916" lon="8.0217304"><ele>169.0</ele><time>2026-05-01T08:30:58.273Z</time></trkpt><trkpt lat="44.9042246" lon="8.0215454"><ele>169.0</ele><time>2026-05-01T08:30:59.273Z</time></trkpt><trkpt lat="44.9040557" lon="8.0213662"><ele>170.0</ele><time>2026-05-01T08:31:00.273Z</time></trkpt><trkpt lat="44.9038955" lon="8.0211871"><ele>171.0</ele><time>2026-05-01T08:31:01.273Z</time></trkpt><trkpt lat="44.9037341" lon="8.0210076"><ele>172.0</ele><time>2026-05-01T08:31:02.274Z</time></trkpt><trkpt lat="44.9035733" lon="8.0208258"><ele>173.66666666666669</ele><time>2026-05-01T08:31:03.273Z</time></trkpt><trkpt lat="44.9034206" lon="8.0206379"><ele>175.33333333333334</ele><time>2026-05-01T08:31:04.273Z</time></trkpt><trkpt lat="44.9032731" lon="8.0204487"><ele>177.0</ele><time>2026-05-01T08:31:05.273Z</time></trkpt><trkpt lat="44.9031258" lon="8.0202537"><ele>177.0</ele><time>2026-05-01T08:31:06.273Z</time></trkpt><trkpt lat="44.9029725" lon="8.0200581"><ele>177.0</ele><time>2026-05-01T08:31:07.273Z</time></trkpt><trkpt lat="44.9028226" lon="8.0198586"><ele>177.0</ele><time>2026-05-01T08:31:08.273Z</time></trkpt><trkpt lat="44.9026809" lon="8.019667"><ele>176.66666666666666</ele><time>2026-05-01T08:31:09.273Z</time></trkpt><trkpt lat="44.9025412" lon="8.0194855"><ele>176.33333333333331</ele><time>2026-05-01T08:31:10.273Z</time></trkpt><trkpt lat="44.9024151" lon="8.0193031"><ele>176.0</ele><time>2026-05-01T08:31:11.273Z</time></trkpt><trkpt lat="44.9022952" lon="8.0191256"><ele>176.66666666666666</ele><time>2026-05-01T08:31:12.273Z</time></trkpt><trkpt lat="44.9021758" lon="8.0189444"><ele>177.33333333333334</ele><time>2026-05-01T08:31:13.273Z</time></trkpt><trkpt lat="44.902051" lon="8.0187656"><ele>178.0</ele><time>2026-05-01T08:31:14.273Z</time></trkpt><trkpt lat="44.901923" lon="8.0185841"><ele>178.0</ele><time>2026-05-01T08:31:15.273Z</time></trkpt><trkpt lat="44.9017919" lon="8.0184053"><ele>178.0</ele><time>2026-05-01T08:31:16.273Z</time></trkpt><trkpt lat="44.9016605" lon="8.0182314"><ele>178.0</ele><time>2026-05-01T08:31:17.273Z</time></trkpt><trkpt lat="44.9015346" lon="8.0180525"><ele>177.66666666666669</ele><time>2026-05-01T08:31:18.273Z</time></trkpt><trkpt lat="44.9014067" lon="8.0178811"><ele>177.33333333333334</ele><time>2026-05-01T08:31:19.273Z</time></trkpt><trkpt lat="44.901281" lon="8.0176965"><ele>177.0</ele><time>2026-05-01T08:31:20.273Z</time></trkpt><trkpt lat="44.9011472" lon="8.0175108"><ele>177.33333333333334</ele><time>2026-05-01T08:31:21.274Z</time></trkpt><trkpt lat="44.9009921" lon="8.0173254"><ele>177.66666666666669</ele><time>2026-05-01T08:31:22.273Z</time></trkpt><trkpt lat="44.9008391" lon="8.0171271"><ele>178.0</ele><time>2026-05-01T08:31:23.273Z</time></trkpt><trkpt lat="44.9006811" lon="8.016902"><ele>179.0</ele><time>2026-05-01T08:31:24.273Z</time></trkpt><trkpt lat="44.9005247" lon="8.0166576"><ele>180.0</ele><time>2026-05-01T08:31:25.273Z</time></trkpt><trkpt lat="44.9003623" lon="8.0164145"><ele>180.0</ele><time>2026-05-01T08:31:26.273Z</time></trkpt><trkpt lat="44.9001917" lon="8.0161817"><ele>180.0</ele><time>2026-05-01T08:31:27.273Z</time></trkpt><trkpt lat="44.9000143" lon="8.0159426"><ele>179.5</ele><time>2026-05-01T08:31:28.273Z</time></trkpt><trkpt lat="44.8998371" lon="8.0157048"><ele>179.0</ele><time>2026-05-01T08:31:29.273Z</time></trkpt><trkpt lat="44.8996594" lon="8.0154687"><ele>179.0</ele><time>2026-05-01T08:31:30.273Z</time></trkpt><trkpt lat="44.8994885" lon="8.0152326"><ele>179.0</ele><time>2026-05-01T08:31:31.273Z</time></trkpt><trkpt lat="44.8993229" lon="8.0149994"><ele>179.0</ele><time>2026-05-01T08:31:32.273Z</time></trkpt><trkpt lat="44.8991581" lon="8.0147693"><ele>179.0</ele><time>2026-05-01T08:31:33.273Z</time></trkpt><trkpt lat="44.8989987" lon="8.0145404"><ele>179.0</ele><time>2026-05-01T08:31:34.273Z</time></trkpt><trkpt lat="44.898839" lon="8.0143151"><ele>179.0</ele><time>2026-05-01T08:31:35.273Z</time></trkpt><trkpt lat="44.8986798" lon="8.0140884"><ele>179.5</ele><time>2026-05-01T08:31:36.274Z</time></trkpt><trkpt lat="44.8985229" lon="8.0138621"><ele>180.0</ele><time>2026-05-01T08:31:37.273Z</time></trkpt><trkpt lat="44.8983606" lon="8.0136396"><ele>180.0</ele><time>2026-05-01T08:31:38.273Z</time></trkpt><trkpt lat="44.8982016" lon="8.0134178"><ele>180.0</ele><time>2026-05-01T08:31:39.273Z</time></trkpt><trkpt lat="44.8980502" lon="8.0131862"><ele>180.0</ele><time>2026-05-01T08:31:40.273Z</time></trkpt><trkpt lat="44.8978971" lon="8.0129587"><ele>180.0</ele><time>2026-05-01T08:31:41.273Z</time></trkpt><trkpt lat="44.897742" lon="8.0127312"><ele>180.0</ele><time>2026-05-01T08:31:42.273Z</time></trkpt><trkpt lat="44.8975867" lon="8.0125053"><ele>180.0</ele><time>2026-05-01T08:31:43.273Z</time></trkpt><trkpt lat="44.8974296" lon="8.0122815"><ele>180.0</ele><time>2026-05-01T08:31:44.273Z</time></trkpt><trkpt lat="44.8972676" lon="8.0120653"><ele>180.0</ele><time>2026-05-01T08:31:45.273Z</time></trkpt><trkpt lat="44.8971163" lon="8.0118538"><ele>180.0</ele><time>2026-05-01T08:31:46.273Z</time></trkpt><trkpt lat="44.8969755" lon="8.0116532"><ele>179.33333333333334</ele><time>2026-05-01T08:31:47.273Z</time></trkpt><trkpt lat="44.8968396" lon="8.0114696"><ele>178.66666666666669</ele><time>2026-05-01T08:31:48.273Z</time></trkpt><trkpt lat="44.8967096" lon="8.0112946"><ele>178.0</ele><time>2026-05-01T08:31:49.273Z</time></trkpt><trkpt lat="44.8965883" lon="8.0111303"><ele>178.0</ele><time>2026-05-01T08:31:50.274Z</time></trkpt><trkpt lat="44.8964758" lon="8.0109715"><ele>178.0</ele><time>2026-05-01T08:31:51.273Z</time></trkpt><trkpt lat="44.8963626" lon="8.0108303"><ele>178.0</ele><time>2026-05-01T08:31:52.273Z</time></trkpt><trkpt lat="44.8962596" lon="8.0107154"><ele>178.0</ele><time>2026-05-01T08:31:53.273Z</time></trkpt><trkpt lat="44.8961676" lon="8.0106166"><ele>177.8</ele><time>2026-05-01T08:31:54.274Z</time></trkpt><trkpt lat="44.8960875" lon="8.0105319"><ele>177.60000000000002</ele><time>2026-05-01T08:31:55.273Z</time></trkpt><trkpt lat="44.8960257" lon="8.0104651"><ele>177.39999999999998</ele><time>2026-05-01T08:31:56.273Z</time></trkpt><trkpt lat="44.8959898" lon="8.0103877"><ele>177.2</ele><time>2026-05-01T08:31:57.273Z</time></trkpt><trkpt lat="44.8960095" lon="8.0102177"><ele>177.0</ele><time>2026-05-01T08:31:59.273Z</time></trkpt><trkpt lat="44.8960531" lon="8.0101096"><ele>178.0</ele><time>2026-05-01T08:32:00.273Z</time></trkpt><trkpt lat="44.896102" lon="8.0099818"><ele>179.0</ele><time>2026-05-01T08:32:01.274Z</time></trkpt><trkpt lat="44.8961556" lon="8.0098264"><ele>180.0</ele><time>2026-05-01T08:32:02.273Z</time></trkpt><trkpt lat="44.8962164" lon="8.0096508"><ele>181.0</ele><time>2026-05-01T08:32:03.273Z</time></trkpt><trkpt lat="44.8962828" lon="8.0094642"><ele>181.0</ele><time>2026-05-01T08:32:04.273Z</time></trkpt><trkpt lat="44.8963489" lon="8.0092579"><ele>181.0</ele><time>2026-05-01T08:32:05.273Z</time></trkpt><trkpt lat="44.896423" lon="8.009051"><ele>181.0</ele><time>2026-05-01T08:32:06.273Z</time></trkpt><trkpt lat="44.8964921" lon="8.0088573"><ele>182.5</ele><time>2026-05-01T08:32:07.273Z</time></trkpt><trkpt lat="44.8965396" lon="8.0086763"><ele>184.0</ele><time>2026-05-01T08:32:08.273Z</time></trkpt><trkpt lat="44.896541" lon="8.0084856"><ele>185.5</ele><time>2026-05-01T08:32:09.273Z</time></trkpt><trkpt lat="44.8965119" lon="8.0082941"><ele>187.0</ele><time>2026-05-01T08:32:10.273Z</time></trkpt><trkpt lat="44.896451" lon="8.0080915"><ele>188.33333333333334</ele><time>2026-05-01T08:32:11.273Z</time></trkpt><trkpt lat="44.8963824" lon="8.0078854"><ele>189.66666666666666</ele><time>2026-05-01T08:32:12.273Z</time></trkpt><trkpt lat="44.8963258" lon="8.0076703"><ele>191.0</ele><time>2026-05-01T08:32:13.273Z</time></trkpt><trkpt lat="44.8962807" lon="8.0074462"><ele>193.66666666666666</ele><time>2026-05-01T08:32:14.274Z</time></trkpt><trkpt lat="44.8962552" lon="8.0072135"><ele>196.33333333333331</ele><time>2026-05-01T08:32:15.273Z</time></trkpt><trkpt lat="44.8962436" lon="8.0069781"><ele>199.0</ele><time>2026-05-01T08:32:16.273Z</time></trkpt><trkpt lat="44.8962248" lon="8.0067584"><ele>202.33333333333331</ele><time>2026-05-01T08:32:17.273Z</time></trkpt><trkpt lat="44.8962218" lon="8.0065361"><ele>205.66666666666669</ele><time>2026-05-01T08:32:18.273Z</time></trkpt><trkpt lat="44.8962293" lon="8.0063104"><ele>209.0</ele><time>2026-05-01T08:32:19.274Z</time></trkpt><trkpt lat="44.8962499" lon="8.0060917"><ele>209.0</ele><time>2026-05-01T08:32:20.273Z</time></trkpt><trkpt lat="44.8962769" lon="8.0058806"><ele>209.0</ele><time>2026-05-01T08:32:21.273Z</time></trkpt><trkpt lat="44.8963352" lon="8.0056675"><ele>209.0</ele><time>2026-05-01T08:32:22.273Z</time></trkpt><trkpt lat="44.8964125" lon="8.0054432"><ele>212.33333333333334</ele><time>2026-05-01T08:32:23.273Z</time></trkpt><trkpt lat="44.8964916" lon="8.0052072"><ele>215.66666666666669</ele><time>2026-05-01T08:32:24.273Z</time></trkpt><trkpt lat="44.8965687" lon="8.0049804"><ele>219.0</ele><time>2026-05-01T08:32:25.273Z</time></trkpt><trkpt lat="44.8966248" lon="8.0047593"><ele>221.0</ele><time>2026-05-01T08:32:26.273Z</time></trkpt><trkpt lat="44.8966524" lon="8.0045392"><ele>223.0</ele><time>2026-05-01T08:32:27.273Z</time></trkpt><trkpt lat="44.896647" lon="8.0043151"><ele>225.0</ele><time>2026-05-01T08:32:28.273Z</time></trkpt><trkpt lat="44.8966154" lon="8.0040952"><ele>226.75</ele><time>2026-05-01T08:32:29.273Z</time></trkpt><trkpt lat="44.8965819" lon="8.0038925"><ele>228.5</ele><time>2026-05-01T08:32:30.273Z</time></trkpt><trkpt lat="44.8965343" lon="8.0037126"><ele>230.25</ele><time>2026-05-01T08:32:31.274Z</time></trkpt><trkpt lat="44.8964559" lon="8.0035409"><ele>232.0</ele><time>2026-05-01T08:32:32.273Z</time></trkpt><trkpt lat="44.8963557" lon="8.0033565"><ele>233.33333333333331</ele><time>2026-05-01T08:32:33.273Z</time></trkpt><trkpt lat="44.8962658" lon="8.003161"><ele>234.66666666666669</ele><time>2026-05-01T08:32:34.273Z</time></trkpt><trkpt lat="44.8961735" lon="8.0029629"><ele>236.0</ele><time>2026-05-01T08:32:35.273Z</time></trkpt><trkpt lat="44.896094" lon="8.0027621"><ele>236.0</ele><time>2026-05-01T08:32:36.273Z</time></trkpt><trkpt lat="44.896018" lon="8.0025595"><ele>236.0</ele><time>2026-05-01T08:32:37.273Z</time></trkpt><trkpt lat="44.8959518" lon="8.0023519"><ele>236.0</ele><time>2026-05-01T08:32:38.274Z</time></trkpt><trkpt lat="44.8959012" lon="8.0021478"><ele>238.33333333333334</ele><time>2026-05-01T08:32:39.273Z</time></trkpt><trkpt lat="44.895872" lon="8.0019142"><ele>240.66666666666669</ele><time>2026-05-01T08:32:40.273Z</time></trkpt><trkpt lat="44.8958623" lon="8.0016668"><ele>243.0</ele><time>2026-05-01T08:32:41.273Z</time></trkpt><trkpt lat="44.8958594" lon="8.0014136"><ele>244.66666666666669</ele><time>2026-05-01T08:32:42.273Z</time></trkpt><trkpt lat="44.8958594" lon="8.0011688"><ele>246.33333333333334</ele><time>2026-05-01T08:32:43.273Z</time></trkpt><trkpt lat="44.895852" lon="8.0009476"><ele>248.0</ele><time>2026-05-01T08:32:44.273Z</time></trkpt><trkpt lat="44.8958429" lon="8.000732"><ele>249.0</ele><time>2026-05-01T08:32:45.273Z</time></trkpt><trkpt lat="44.8958298" lon="8.0004984"><ele>250.0</ele><time>2026-05-01T08:32:46.273Z</time></trkpt><trkpt lat="44.8958076" lon="8.0002593"><ele>251.0</ele><time>2026-05-01T08:32:47.273Z</time></trkpt><trkpt lat="44.8957735" lon="8.0000013"><ele>251.0</ele><time>2026-05-01T08:32:48.273Z</time></trkpt><trkpt lat="44.8957439" lon="7.9997338"><ele>251.0</ele><time>2026-05-01T08:32:49.273Z</time></trkpt><trkpt lat="44.8956993" lon="7.9994787"><ele>251.0</ele><time>2026-05-01T08:32:50.273Z</time></trkpt><trkpt lat="44.8956512" lon="7.9992348"><ele>252.0</ele><time>2026-05-01T08:32:51.273Z</time></trkpt><trkpt lat="44.8956081" lon="7.999014"><ele>253.0</ele><time>2026-05-01T08:32:52.273Z</time></trkpt><trkpt lat="44.8955584" lon="7.9988167"><ele>254.0</ele><time>2026-05-01T08:32:53.273Z</time></trkpt><trkpt lat="44.8954947" lon="7.9986174"><ele>254.0</ele><time>2026-05-01T08:32:54.273Z</time></trkpt><trkpt lat="44.8954191" lon="7.9984241"><ele>254.0</ele><time>2026-05-01T08:32:55.273Z</time></trkpt><trkpt lat="44.8953215" lon="7.9982494"><ele>254.0</ele><time>2026-05-01T08:32:56.273Z</time></trkpt><trkpt lat="44.8951819" lon="7.9980934"><ele>254.0</ele><time>2026-05-01T08:32:57.273Z</time></trkpt><trkpt lat="44.8950097" lon="7.9979463"><ele>254.0</ele><time>2026-05-01T08:32:58.273Z</time></trkpt><trkpt lat="44.8948509" lon="7.9977933"><ele>254.0</ele><time>2026-05-01T08:32:59.273Z</time></trkpt><trkpt lat="44.8947168" lon="7.9976109"><ele>252.66666666666669</ele><time>2026-05-01T08:33:00.273Z</time></trkpt><trkpt lat="44.8946006" lon="7.9974167"><ele>251.33333333333331</ele><time>2026-05-01T08:33:01.273Z</time></trkpt><trkpt lat="44.8944909" lon="7.9972056"><ele>250.0</ele><time>2026-05-01T08:33:02.274Z</time></trkpt><trkpt lat="44.8943816" lon="7.9969905"><ele>249.66666666666666</ele><time>2026-05-01T08:33:03.273Z</time></trkpt><trkpt lat="44.8942518" lon="7.9967929"><ele>249.33333333333331</ele><time>2026-05-01T08:33:04.273Z</time></trkpt><trkpt lat="44.894109" lon="7.9966222"><ele>249.0</ele><time>2026-05-01T08:33:05.273Z</time></trkpt><trkpt lat="44.893952" lon="7.9964898"><ele>250.0</ele><time>2026-05-01T08:33:06.273Z</time></trkpt><trkpt lat="44.8937982" lon="7.9963773"><ele>251.0</ele><time>2026-05-01T08:33:07.274Z</time></trkpt><trkpt lat="44.8936443" lon="7.9962634"><ele>252.0</ele><time>2026-05-01T08:33:08.273Z</time></trkpt><trkpt lat="44.893489" lon="7.9961598"><ele>252.33333333333331</ele><time>2026-05-01T08:33:09.273Z</time></trkpt><trkpt lat="44.8933477" lon="7.996036"><ele>252.66666666666666</ele><time>2026-05-01T08:33:10.274Z</time></trkpt><trkpt lat="44.8932125" lon="7.995887"><ele>253.0</ele><time>2026-05-01T08:33:11.273Z</time></trkpt><trkpt lat="44.8930914" lon="7.9957125"><ele>253.0</ele><time>2026-05-01T08:33:12.273Z</time></trkpt><trkpt lat="44.8929762" lon="7.9955344"><ele>253.0</ele><time>2026-05-01T08:33:13.273Z</time></trkpt><trkpt lat="44.8928697" lon="7.9953556"><ele>253.0</ele><time>2026-05-01T08:33:14.273Z</time></trkpt><trkpt lat="44.8927781" lon="7.9951685"><ele>250.33333333333331</ele><time>2026-05-01T08:33:15.273Z</time></trkpt><trkpt lat="44.892698" lon="7.9949543"><ele>247.66666666666669</ele><time>2026-05-01T08:33:16.274Z</time></trkpt><trkpt lat="44.8926387" lon="7.9947196"><ele>245.0</ele><time>2026-05-01T08:33:17.273Z</time></trkpt><trkpt lat="44.8925955" lon="7.9944666"><ele>248.33333333333334</ele><time>2026-05-01T08:33:18.273Z</time></trkpt><trkpt lat="44.8925483" lon="7.99422"><ele>251.66666666666669</ele><time>2026-05-01T08:33:19.273Z</time></trkpt><trkpt lat="44.8924862" lon="7.993981"><ele>255.0</ele><time>2026-05-01T08:33:20.273Z</time></trkpt><trkpt lat="44.892407" lon="7.9937618"><ele>255.0</ele><time>2026-05-01T08:33:21.274Z</time></trkpt><trkpt lat="44.8923261" lon="7.9935673"><ele>255.0</ele><time>2026-05-01T08:33:22.273Z</time></trkpt><trkpt lat="44.8922407" lon="7.9933851"><ele>255.0</ele><time>2026-05-01T08:33:23.273Z</time></trkpt><trkpt lat="44.8921393" lon="7.9932201"><ele>254.33333333333331</ele><time>2026-05-01T08:33:24.273Z</time></trkpt><trkpt lat="44.892015" lon="7.993086"><ele>253.66666666666666</ele><time>2026-05-01T08:33:25.273Z</time></trkpt><trkpt lat="44.8918698" lon="7.9929677"><ele>253.0</ele><time>2026-05-01T08:33:26.273Z</time></trkpt><trkpt lat="44.8917125" lon="7.9928646"><ele>255.33333333333331</ele><time>2026-05-01T08:33:27.273Z</time></trkpt><trkpt lat="44.8915487" lon="7.9927668"><ele>257.6666666666667</ele><time>2026-05-01T08:33:28.273Z</time></trkpt><trkpt lat="44.8913859" lon="7.9926702"><ele>260.0</ele><time>2026-05-01T08:33:29.273Z</time></trkpt><trkpt lat="44.8912238" lon="7.9925721"><ele>259.6666666666667</ele><time>2026-05-01T08:33:30.273Z</time></trkpt><trkpt lat="44.8910614" lon="7.992472"><ele>259.3333333333333</ele><time>2026-05-01T08:33:31.273Z</time></trkpt><trkpt lat="44.8909133" lon="7.9923776"><ele>259.0</ele><time>2026-05-01T08:33:32.273Z</time></trkpt><trkpt lat="44.8907756" lon="7.9922903"><ele>259.0</ele><time>2026-05-01T08:33:33.274Z</time></trkpt><trkpt lat="44.8906505" lon="7.9922081"><ele>259.0</ele><time>2026-05-01T08:33:34.273Z</time></trkpt><trkpt lat="44.8905461" lon="7.9921181"><ele>259.0</ele><time>2026-05-01T08:33:35.273Z</time></trkpt><trkpt lat="44.8904643" lon="7.9920036"><ele>259.0</ele><time>2026-05-01T08:33:36.273Z</time></trkpt><trkpt lat="44.8903945" lon="7.9918784"><ele>259.0</ele><time>2026-05-01T08:33:37.273Z</time></trkpt><trkpt lat="44.8903242" lon="7.9917519"><ele>259.0</ele><time>2026-05-01T08:33:38.273Z</time></trkpt><trkpt lat="44.8902587" lon="7.9916266"><ele>259.0</ele><time>2026-05-01T08:33:39.273Z</time></trkpt><trkpt lat="44.8901907" lon="7.9915215"><ele>259.0</ele><time>2026-05-01T08:33:40.273Z</time></trkpt><trkpt lat="44.8901401" lon="7.9914155"><ele>259.0</ele><time>2026-05-01T08:33:41.273Z</time></trkpt><trkpt lat="44.8900999" lon="7.9913412"><ele>259.59999999999997</ele><time>2026-05-01T08:33:42.273Z</time></trkpt><trkpt lat="44.8900369" lon="7.9912304"><ele>260.2</ele><time>2026-05-01T08:33:44.273Z</time></trkpt><trkpt lat="44.8900403" lon="7.9911274"><ele>260.79999999999995</ele><time>2026-05-01T08:33:46.273Z</time></trkpt><trkpt lat="44.8901379" lon="7.9909732"><ele>261.4</ele><time>2026-05-01T08:33:48.273Z</time></trkpt><trkpt lat="44.8902076" lon="7.9908558"><ele>262.0</ele><time>2026-05-01T08:33:49.273Z</time></trkpt><trkpt lat="44.8902922" lon="7.9907297"><ele>259.25</ele><time>2026-05-01T08:33:50.273Z</time></trkpt><trkpt lat="44.8903817" lon="7.9905993"><ele>256.5</ele><time>2026-05-01T08:33:51.273Z</time></trkpt><trkpt lat="44.8904639" lon="7.9904778"><ele>253.75</ele><time>2026-05-01T08:33:52.273Z</time></trkpt><trkpt lat="44.8905282" lon="7.9903601"><ele>251.0</ele><time>2026-05-01T08:33:53.273Z</time></trkpt><trkpt lat="44.8905771" lon="7.9902382"><ele>251.0</ele><time>2026-05-01T08:33:54.274Z</time></trkpt><trkpt lat="44.8905992" lon="7.990104"><ele>251.00000000000003</ele><time>2026-05-01T08:33:55.273Z</time></trkpt><trkpt lat="44.8906015" lon="7.9899535"><ele>251.00000000000003</ele><time>2026-05-01T08:33:56.273Z</time></trkpt><trkpt lat="44.8905771" lon="7.9897947"><ele>251.0</ele><time>2026-05-01T08:33:57.273Z</time></trkpt><trkpt lat="44.8905308" lon="7.9896359"><ele>251.0</ele><time>2026-05-01T08:33:58.273Z</time></trkpt><trkpt lat="44.8904908" lon="7.9894688"><ele>250.25</ele><time>2026-05-01T08:33:59.273Z</time></trkpt><trkpt lat="44.8904647" lon="7.9892928"><ele>249.5</ele><time>2026-05-01T08:34:00.273Z</time></trkpt><trkpt lat="44.8904537" lon="7.9891184"><ele>248.75</ele><time>2026-05-01T08:34:01.273Z</time></trkpt><trkpt lat="44.8904608" lon="7.9889617"><ele>248.0</ele><time>2026-05-01T08:34:02.274Z</time></trkpt><trkpt lat="44.8904878" lon="7.9888137"><ele>247.2</ele><time>2026-05-01T08:34:03.273Z</time></trkpt><trkpt lat="44.8905282" lon="7.9886728"><ele>246.4</ele><time>2026-05-01T08:34:04.273Z</time></trkpt><trkpt lat="44.8905846" lon="7.988543"><ele>245.59999999999997</ele><time>2026-05-01T08:34:05.273Z</time></trkpt><trkpt lat="44.8906569" lon="7.9884154"><ele>244.79999999999998</ele><time>2026-05-01T08:34:06.273Z</time></trkpt><trkpt lat="44.890746" lon="7.9883062"><ele>244.0</ele><time>2026-05-01T08:34:07.272Z</time></trkpt><trkpt lat="44.8908433" lon="7.9881886"><ele>243.5</ele><time>2026-05-01T08:34:08.272Z</time></trkpt><trkpt lat="44.8909349" lon="7.9880738"><ele>243.0</ele><time>2026-05-01T08:34:09.272Z</time></trkpt><trkpt lat="44.891023" lon="7.987969"><ele>242.5</ele><time>2026-05-01T08:34:10.272Z</time></trkpt><trkpt lat="44.8911171" lon="7.9878653"><ele>242.0</ele><time>2026-05-01T08:34:11.272Z</time></trkpt><trkpt lat="44.8912076" lon="7.9877613"><ele>242.0</ele><time>2026-05-01T08:34:12.272Z</time></trkpt><trkpt lat="44.8912975" lon="7.9876602"><ele>242.0</ele><time>2026-05-01T08:34:13.272Z</time></trkpt><trkpt lat="44.8913874" lon="7.9875421"><ele>242.0</ele><time>2026-05-01T08:34:14.272Z</time></trkpt><trkpt lat="44.8914667" lon="7.9874232"><ele>242.0</ele><time>2026-05-01T08:34:15.272Z</time></trkpt><trkpt lat="44.8915331" lon="7.9873098"><ele>241.75</ele><time>2026-05-01T08:34:16.272Z</time></trkpt><trkpt lat="44.8916229" lon="7.9872132"><ele>241.5</ele><time>2026-05-01T08:34:17.272Z</time></trkpt><trkpt lat="44.8917232" lon="7.9871479"><ele>241.25</ele><time>2026-05-01T08:34:18.272Z</time></trkpt><trkpt lat="44.8918394" lon="7.987109"><ele>241.0</ele><time>2026-05-01T08:34:19.272Z</time></trkpt><trkpt lat="44.8919629" lon="7.9870708"><ele>240.75</ele><time>2026-05-01T08:34:20.272Z</time></trkpt><trkpt lat="44.8920832" lon="7.9870344"><ele>240.5</ele><time>2026-05-01T08:34:21.272Z</time></trkpt><trkpt lat="44.8922088" lon="7.9869893"><ele>240.25</ele><time>2026-05-01T08:34:22.272Z</time></trkpt><trkpt lat="44.8923224" lon="7.9869123"><ele>240.0</ele><time>2026-05-01T08:34:23.272Z</time></trkpt><trkpt lat="44.8924306" lon="7.9868169"><ele>240.0</ele><time>2026-05-01T08:34:24.272Z</time></trkpt><trkpt lat="44.8925417" lon="7.9867185"><ele>240.0</ele><time>2026-05-01T08:34:25.272Z</time></trkpt><trkpt lat="44.8926304" lon="7.9866421"><ele>240.0</ele><time>2026-05-01T08:34:26.273Z</time></trkpt><trkpt lat="44.8927004" lon="7.9865909"><ele>240.0</ele><time>2026-05-01T08:34:27.273Z</time></trkpt><trkpt lat="44.8927466" lon="7.9865236"><ele>240.0</ele><time>2026-05-01T08:34:28.273Z</time></trkpt><trkpt lat="44.8927503" lon="7.9864009"><ele>237.2</ele><time>2026-05-01T08:34:30.272Z</time></trkpt><trkpt lat="44.8927032" lon="7.9863413"><ele>234.4</ele><time>2026-05-01T08:34:31.272Z</time></trkpt><trkpt lat="44.8926206" lon="7.9863026"><ele>231.60000000000002</ele><time>2026-05-01T08:34:32.272Z</time></trkpt><trkpt lat="44.8925108" lon="7.9862666"><ele>228.8</ele><time>2026-05-01T08:34:33.272Z</time></trkpt><trkpt lat="44.8923851" lon="7.9862453"><ele>226.0</ele><time>2026-05-01T08:34:34.272Z</time></trkpt><trkpt lat="44.8922531" lon="7.9862282"><ele>226.0</ele><time>2026-05-01T08:34:35.272Z</time></trkpt><trkpt lat="44.8921329" lon="7.9862115"><ele>226.00000000000003</ele><time>2026-05-01T08:34:36.272Z</time></trkpt><trkpt lat="44.8920325" lon="7.9861846"><ele>226.00000000000003</ele><time>2026-05-01T08:34:37.272Z</time></trkpt><trkpt lat="44.8919534" lon="7.9861143"><ele>226.0</ele><time>2026-05-01T08:34:38.272Z</time></trkpt><trkpt lat="44.8918928" lon="7.9860103"><ele>226.0</ele><time>2026-05-01T08:34:39.273Z</time></trkpt><trkpt lat="44.8918835" lon="7.9858555"><ele>220.75</ele><time>2026-05-01T08:34:40.272Z</time></trkpt><trkpt lat="44.8919073" lon="7.985658"><ele>215.5</ele><time>2026-05-01T08:34:41.272Z</time></trkpt><trkpt lat="44.8919426" lon="7.985461"><ele>210.25</ele><time>2026-05-01T08:34:42.272Z</time></trkpt><trkpt lat="44.8919713" lon="7.9852644"><ele>205.0</ele><time>2026-05-01T08:34:43.272Z</time></trkpt><trkpt lat="44.8919968" lon="7.9850825"><ele>204.0</ele><time>2026-05-01T08:34:44.272Z</time></trkpt><trkpt lat="44.8920166" lon="7.9849158"><ele>203.0</ele><time>2026-05-01T08:34:45.272Z</time></trkpt><trkpt lat="44.8920319" lon="7.9847549"><ele>202.0</ele><time>2026-05-01T08:34:46.272Z</time></trkpt><trkpt lat="44.8920464" lon="7.9846121"><ele>201.0</ele><time>2026-05-01T08:34:47.272Z</time></trkpt><trkpt lat="44.8920669" lon="7.9844911"><ele>200.0</ele><time>2026-05-01T08:34:48.272Z</time></trkpt><trkpt lat="44.892074" lon="7.9843999"><ele>200.0</ele><time>2026-05-01T08:34:49.272Z</time></trkpt><trkpt lat="44.8921385" lon="7.9842508"><ele>200.0</ele><time>2026-05-01T08:34:51.272Z</time></trkpt><trkpt lat="44.8922006" lon="7.9841961"><ele>200.0</ele><time>2026-05-01T08:34:52.272Z</time></trkpt><trkpt lat="44.8922809" lon="7.9841458"><ele>200.0</ele><time>2026-05-01T08:34:53.272Z</time></trkpt><trkpt lat="44.8923749" lon="7.9840855"><ele>200.0</ele><time>2026-05-01T08:34:54.272Z</time></trkpt><trkpt lat="44.8924798" lon="7.9840228"><ele>199.25</ele><time>2026-05-01T08:34:55.272Z</time></trkpt><trkpt lat="44.8925932" lon="7.9839516"><ele>198.5</ele><time>2026-05-01T08:34:56.272Z</time></trkpt><trkpt lat="44.8927204" lon="7.9838849"><ele>197.75</ele><time>2026-05-01T08:34:57.272Z</time></trkpt><trkpt lat="44.8928593" lon="7.9838175"><ele>197.0</ele><time>2026-05-01T08:34:58.272Z</time></trkpt><trkpt lat="44.8930116" lon="7.9837545"><ele>197.0</ele><time>2026-05-01T08:34:59.272Z</time></trkpt><trkpt lat="44.8931561" lon="7.9836933"><ele>197.0</ele><time>2026-05-01T08:35:00.272Z</time></trkpt><trkpt lat="44.8933123" lon="7.9836346"><ele>197.0</ele><time>2026-05-01T08:35:01.272Z</time></trkpt><trkpt lat="44.8934766" lon="7.9835898"><ele>197.0</ele><time>2026-05-01T08:35:02.272Z</time></trkpt><trkpt lat="44.8936412" lon="7.9835583"><ele>197.0</ele><time>2026-05-01T08:35:03.272Z</time></trkpt><trkpt lat="44.8938098" lon="7.9835349"><ele>197.0</ele><time>2026-05-01T08:35:04.272Z</time></trkpt><trkpt lat="44.893986" lon="7.9835197"><ele>197.0</ele><time>2026-05-01T08:35:05.272Z</time></trkpt><trkpt lat="44.8941595" lon="7.9835117"><ele>197.0</ele><time>2026-05-01T08:35:06.272Z</time></trkpt><trkpt lat="44.8943344" lon="7.9835082"><ele>197.0</ele><time>2026-05-01T08:35:07.272Z</time></trkpt><trkpt lat="44.8945127" lon="7.9835195"><ele>196.66666666666669</ele><time>2026-05-01T08:35:08.272Z</time></trkpt><trkpt lat="44.8946991" lon="7.9835298"><ele>196.33333333333331</ele><time>2026-05-01T08:35:09.272Z</time></trkpt><trkpt lat="44.8948895" lon="7.9835398"><ele>196.0</ele><time>2026-05-01T08:35:10.273Z</time></trkpt><trkpt lat="44.8950786" lon="7.9835506"><ele>196.66666666666666</ele><time>2026-05-01T08:35:11.272Z</time></trkpt><trkpt lat="44.8952713" lon="7.9835572"><ele>197.33333333333331</ele><time>2026-05-01T08:35:12.273Z</time></trkpt><trkpt lat="44.8954632" lon="7.9835759"><ele>198.0</ele><time>2026-05-01T08:35:13.272Z</time></trkpt><trkpt lat="44.8956564" lon="7.9835908"><ele>198.0</ele><time>2026-05-01T08:35:14.272Z</time></trkpt><trkpt lat="44.8958496" lon="7.9836114"><ele>198.0</ele><time>2026-05-01T08:35:15.272Z</time></trkpt><trkpt lat="44.896036" lon="7.9836343"><ele>198.0</ele><time>2026-05-01T08:35:16.272Z</time></trkpt><trkpt lat="44.8962189" lon="7.9836603"><ele>198.66666666666669</ele><time>2026-05-01T08:35:17.272Z</time></trkpt><trkpt lat="44.8964035" lon="7.983684"><ele>199.33333333333334</ele><time>2026-05-01T08:35:18.272Z</time></trkpt><trkpt lat="44.89659" lon="7.9837165"><ele>200.0</ele><time>2026-05-01T08:35:19.272Z</time></trkpt><trkpt lat="44.8967767" lon="7.9837582"><ele>201.66666666666669</ele><time>2026-05-01T08:35:20.272Z</time></trkpt><trkpt lat="44.8969659" lon="7.9838063"><ele>203.33333333333331</ele><time>2026-05-01T08:35:21.272Z</time></trkpt><trkpt lat="44.8971527" lon="7.9838637"><ele>205.0</ele><time>2026-05-01T08:35:22.272Z</time></trkpt><trkpt lat="44.8973291" lon="7.9839295"><ele>205.0</ele><time>2026-05-01T08:35:23.272Z</time></trkpt><trkpt lat="44.897508" lon="7.9839853"><ele>205.0</ele><time>2026-05-01T08:35:24.272Z</time></trkpt><trkpt lat="44.8976805" lon="7.9840305"><ele>205.0</ele><time>2026-05-01T08:35:25.272Z</time></trkpt><trkpt lat="44.897855" lon="7.9840608"><ele>204.0</ele><time>2026-05-01T08:35:26.272Z</time></trkpt><trkpt lat="44.8980226" lon="7.98406"><ele>203.0</ele><time>2026-05-01T08:35:27.272Z</time></trkpt><trkpt lat="44.8981831" lon="7.9840293"><ele>202.0</ele><time>2026-05-01T08:35:28.272Z</time></trkpt><trkpt lat="44.8983434" lon="7.9839696"><ele>199.66666666666666</ele><time>2026-05-01T08:35:29.272Z</time></trkpt><trkpt lat="44.898497" lon="7.9838661"><ele>197.33333333333331</ele><time>2026-05-01T08:35:30.272Z</time></trkpt><trkpt lat="44.8986376" lon="7.9837045"><ele>195.0</ele><time>2026-05-01T08:35:31.272Z</time></trkpt><trkpt lat="44.8987585" lon="7.9835066"><ele>194.33333333333331</ele><time>2026-05-01T08:35:32.272Z</time></trkpt><trkpt lat="44.8988621" lon="7.9832883"><ele>193.66666666666666</ele><time>2026-05-01T08:35:33.272Z</time></trkpt><trkpt lat="44.8989582" lon="7.9830435"><ele>193.0</ele><time>2026-05-01T08:35:34.272Z</time></trkpt><trkpt lat="44.8990643" lon="7.9827907"><ele>193.0</ele><time>2026-05-01T08:35:35.272Z</time></trkpt><trkpt lat="44.899174" lon="7.9825266"><ele>193.0</ele><time>2026-05-01T08:35:36.272Z</time></trkpt><trkpt lat="44.8992813" lon="7.9822671"><ele>193.0</ele><time>2026-05-01T08:35:37.272Z</time></trkpt><trkpt lat="44.8993785" lon="7.9820064"><ele>192.66666666666666</ele><time>2026-05-01T08:35:38.272Z</time></trkpt><trkpt lat="44.899479" lon="7.9817389"><ele>192.33333333333331</ele><time>2026-05-01T08:35:39.272Z</time></trkpt><trkpt lat="44.8995819" lon="7.9814848"><ele>192.0</ele><time>2026-05-01T08:35:40.272Z</time></trkpt><trkpt lat="44.8996905" lon="7.9812319"><ele>194.0</ele><time>2026-05-01T08:35:41.272Z</time></trkpt><trkpt lat="44.8998031" lon="7.9809773"><ele>196.0</ele><time>2026-05-01T08:35:42.272Z</time></trkpt><trkpt lat="44.8999084" lon="7.9807197"><ele>198.0</ele><time>2026-05-01T08:35:43.273Z</time></trkpt><trkpt lat="44.9000088" lon="7.9804498"><ele>204.66666666666669</ele><time>2026-05-01T08:35:44.272Z</time></trkpt><trkpt lat="44.9001115" lon="7.9801801"><ele>211.33333333333334</ele><time>2026-05-01T08:35:45.272Z</time></trkpt><trkpt lat="44.9002127" lon="7.9799228"><ele>218.0</ele><time>2026-05-01T08:35:46.272Z</time></trkpt><trkpt lat="44.9003121" lon="7.9796651"><ele>218.33333333333334</ele><time>2026-05-01T08:35:47.273Z</time></trkpt><trkpt lat="44.900411" lon="7.9794189"><ele>218.66666666666669</ele><time>2026-05-01T08:35:48.272Z</time></trkpt><trkpt lat="44.9005144" lon="7.9791763"><ele>219.0</ele><time>2026-05-01T08:35:49.272Z</time></trkpt><trkpt lat="44.9006116" lon="7.9789412"><ele>219.0</ele><time>2026-05-01T08:35:50.272Z</time></trkpt><trkpt lat="44.9007192" lon="7.9786999"><ele>219.0</ele><time>2026-05-01T08:35:51.272Z</time></trkpt><trkpt lat="44.9008362" lon="7.9784561"><ele>219.0</ele><time>2026-05-01T08:35:52.272Z</time></trkpt><trkpt lat="44.9009635" lon="7.9782122"><ele>224.0</ele><time>2026-05-01T08:35:53.272Z</time></trkpt><trkpt lat="44.9010943" lon="7.9779708"><ele>229.0</ele><time>2026-05-01T08:35:54.272Z</time></trkpt><trkpt lat="44.9012333" lon="7.9777505"><ele>234.0</ele><time>2026-05-01T08:35:55.272Z</time></trkpt><trkpt lat="44.9013857" lon="7.9775417"><ele>236.0</ele><time>2026-05-01T08:35:56.272Z</time></trkpt><trkpt lat="44.9015219" lon="7.9773294"><ele>238.0</ele><time>2026-05-01T08:35:57.272Z</time></trkpt><trkpt lat="44.9016421" lon="7.9771195"><ele>240.0</ele><time>2026-05-01T08:35:58.272Z</time></trkpt><trkpt lat="44.9017627" lon="7.9769044"><ele>240.0</ele><time>2026-05-01T08:35:59.272Z</time></trkpt><trkpt lat="44.9018775" lon="7.9766732"><ele>240.0</ele><time>2026-05-01T08:36:00.272Z</time></trkpt><trkpt lat="44.9019808" lon="7.9764243"><ele>240.0</ele><time>2026-05-01T08:36:01.272Z</time></trkpt><trkpt lat="44.9020756" lon="7.9761736"><ele>240.0</ele><time>2026-05-01T08:36:02.272Z</time></trkpt><trkpt lat="44.9021952" lon="7.9759316"><ele>240.0</ele><time>2026-05-01T08:36:03.272Z</time></trkpt><trkpt lat="44.9023293" lon="7.9757121"><ele>240.0</ele><time>2026-05-01T08:36:04.272Z</time></trkpt><trkpt lat="44.9024741" lon="7.9755138"><ele>241.0</ele><time>2026-05-01T08:36:05.272Z</time></trkpt><trkpt lat="44.9026317" lon="7.9753196"><ele>242.0</ele><time>2026-05-01T08:36:06.272Z</time></trkpt><trkpt lat="44.9027769" lon="7.9751327"><ele>243.0</ele><time>2026-05-01T08:36:07.272Z</time></trkpt><trkpt lat="44.9029106" lon="7.9749451"><ele>243.0</ele><time>2026-05-01T08:36:08.273Z</time></trkpt><trkpt lat="44.903017" lon="7.9747339"><ele>243.0</ele><time>2026-05-01T08:36:09.272Z</time></trkpt><trkpt lat="44.9030858" lon="7.9744917"><ele>243.0</ele><time>2026-05-01T08:36:10.272Z</time></trkpt><trkpt lat="44.90311" lon="7.9742203"><ele>244.0</ele><time>2026-05-01T08:36:11.272Z</time></trkpt><trkpt lat="44.9030999" lon="7.9739415"><ele>245.0</ele><time>2026-05-01T08:36:12.272Z</time></trkpt><trkpt lat="44.9030512" lon="7.9736835"><ele>246.0</ele><time>2026-05-01T08:36:13.272Z</time></trkpt><trkpt lat="44.9029537" lon="7.9734488"><ele>245.0</ele><time>2026-05-01T08:36:14.273Z</time></trkpt><trkpt lat="44.9028199" lon="7.9732544"><ele>244.0</ele><time>2026-05-01T08:36:15.273Z</time></trkpt><trkpt lat="44.9026833" lon="7.9730887"><ele>243.0</ele><time>2026-05-01T08:36:16.273Z</time></trkpt><trkpt lat="44.9025801" lon="7.9729127"><ele>243.0</ele><time>2026-05-01T08:36:17.272Z</time></trkpt><trkpt lat="44.9025029" lon="7.9727317"><ele>243.0</ele><time>2026-05-01T08:36:18.272Z</time></trkpt><trkpt lat="44.9024504" lon="7.9725546"><ele>243.0</ele><time>2026-05-01T08:36:19.272Z</time></trkpt><trkpt lat="44.9024384" lon="7.9723691"><ele>243.0</ele><time>2026-05-01T08:36:20.272Z</time></trkpt><trkpt lat="44.9024496" lon="7.9721916"><ele>244.75</ele><time>2026-05-01T08:36:21.272Z</time></trkpt><trkpt lat="44.9024929" lon="7.9720058"><ele>246.5</ele><time>2026-05-01T08:36:22.273Z</time></trkpt><trkpt lat="44.9025486" lon="7.9718269"><ele>248.25</ele><time>2026-05-01T08:36:23.272Z</time></trkpt><trkpt lat="44.9026301" lon="7.971619"><ele>250.0</ele><time>2026-05-01T08:36:24.272Z</time></trkpt><trkpt lat="44.9027233" lon="7.9714022"><ele>255.0</ele><time>2026-05-01T08:36:25.272Z</time></trkpt><trkpt lat="44.9028228" lon="7.9711924"><ele>260.0</ele><time>2026-05-01T08:36:26.272Z</time></trkpt><trkpt lat="44.9029157" lon="7.9709896"><ele>265.0</ele><time>2026-05-01T08:36:27.272Z</time></trkpt><trkpt lat="44.9030107" lon="7.9707881"><ele>265.0</ele><time>2026-05-01T08:36:28.272Z</time></trkpt><trkpt lat="44.9030917" lon="7.9705985"><ele>265.0</ele><time>2026-05-01T08:36:29.273Z</time></trkpt><trkpt lat="44.9031754" lon="7.9704172"><ele>265.0</ele><time>2026-05-01T08:36:30.272Z</time></trkpt><trkpt lat="44.9032499" lon="7.9702546"><ele>265.0</ele><time>2026-05-01T08:36:31.272Z</time></trkpt><trkpt lat="44.9033199" lon="7.9700968"><ele>264.8</ele><time>2026-05-01T08:36:32.272Z</time></trkpt><trkpt lat="44.9033777" lon="7.9699619"><ele>264.6</ele><time>2026-05-01T08:36:33.272Z</time></trkpt><trkpt lat="44.9034334" lon="7.9698374"><ele>264.4</ele><time>2026-05-01T08:36:34.272Z</time></trkpt><trkpt lat="44.9034725" lon="7.9696998"><ele>264.2</ele><time>2026-05-01T08:36:35.272Z</time></trkpt><trkpt lat="44.9034825" lon="7.9695381"><ele>264.0</ele><time>2026-05-01T08:36:36.272Z</time></trkpt><trkpt lat="44.9034747" lon="7.9693704"><ele>264.75</ele><time>2026-05-01T08:36:37.273Z</time></trkpt><trkpt lat="44.903462" lon="7.9691879"><ele>265.5</ele><time>2026-05-01T08:36:38.272Z</time></trkpt><trkpt lat="44.9034504" lon="7.9689931"><ele>266.25</ele><time>2026-05-01T08:36:39.272Z</time></trkpt><trkpt lat="44.9034236" lon="7.9688034"><ele>267.0</ele><time>2026-05-01T08:36:40.272Z</time></trkpt><trkpt lat="44.9033691" lon="7.9686311"><ele>267.0</ele><time>2026-05-01T08:36:41.272Z</time></trkpt><trkpt lat="44.9032901" lon="7.9684759"><ele>267.0</ele><time>2026-05-01T08:36:42.272Z</time></trkpt><trkpt lat="44.9032012" lon="7.9683429"><ele>267.0</ele><time>2026-05-01T08:36:43.272Z</time></trkpt><trkpt lat="44.903101" lon="7.9682336"><ele>267.0</ele><time>2026-05-01T08:36:44.272Z</time></trkpt><trkpt lat="44.9030154" lon="7.968129"><ele>268.6</ele><time>2026-05-01T08:36:45.273Z</time></trkpt><trkpt lat="44.9029393" lon="7.9680027"><ele>270.2</ele><time>2026-05-01T08:36:46.272Z</time></trkpt><trkpt lat="44.9028988" lon="7.9678701"><ele>271.8</ele><time>2026-05-01T08:36:47.272Z</time></trkpt><trkpt lat="44.9028939" lon="7.9677477"><ele>273.4</ele><time>2026-05-01T08:36:48.272Z</time></trkpt><trkpt lat="44.9029261" lon="7.9675971"><ele>275.0</ele><time>2026-05-01T08:36:50.272Z</time></trkpt><trkpt lat="44.9029776" lon="7.9675058"><ele>275.4</ele><time>2026-05-01T08:36:52.272Z</time></trkpt><trkpt lat="44.9030114" lon="7.9674193"><ele>275.8</ele><time>2026-05-01T08:36:54.272Z</time></trkpt><trkpt lat="44.9029636" lon="7.9673004"><ele>276.2</ele><time>2026-05-01T08:36:56.272Z</time></trkpt><trkpt lat="44.9028867" lon="7.9672389"><ele>276.6</ele><time>2026-05-01T08:36:57.272Z</time></trkpt><trkpt lat="44.9027775" lon="7.9671639"><ele>277.0</ele><time>2026-05-01T08:36:58.272Z</time></trkpt><trkpt lat="44.9026656" lon="7.9670707"><ele>277.0</ele><time>2026-05-01T08:36:59.272Z</time></trkpt><trkpt lat="44.902553" lon="7.9669475"><ele>277.0</ele><time>2026-05-01T08:37:00.272Z</time></trkpt><trkpt lat="44.9024329" lon="7.9668427"><ele>277.0</ele><time>2026-05-01T08:37:01.272Z</time></trkpt><trkpt lat="44.9023129" lon="7.9667287"><ele>277.0</ele><time>2026-05-01T08:37:02.273Z</time></trkpt><trkpt lat="44.9021996" lon="7.9666287"><ele>277.0</ele><time>2026-05-01T08:37:03.272Z</time></trkpt><trkpt lat="44.9020753" lon="7.9665326"><ele>277.0</ele><time>2026-05-01T08:37:04.272Z</time></trkpt><trkpt lat="44.9019506" lon="7.9664272"><ele>277.0</ele><time>2026-05-01T08:37:05.272Z</time></trkpt><trkpt lat="44.90183" lon="7.9663306"><ele>277.0</ele><time>2026-05-01T08:37:06.272Z</time></trkpt><trkpt lat="44.9017154" lon="7.9662191"><ele>277.0</ele><time>2026-05-01T08:37:07.272Z</time></trkpt><trkpt lat="44.9015886" lon="7.9661056"><ele>277.0</ele><time>2026-05-01T08:37:08.272Z</time></trkpt><trkpt lat="44.9014695" lon="7.9659893"><ele>277.0</ele><time>2026-05-01T08:37:09.272Z</time></trkpt><trkpt lat="44.9013382" lon="7.965874"><ele>277.0</ele><time>2026-05-01T08:37:10.272Z</time></trkpt><trkpt lat="44.9012049" lon="7.9657605"><ele>277.0</ele><time>2026-05-01T08:37:11.273Z</time></trkpt><trkpt lat="44.9010653" lon="7.9656376"><ele>277.0</ele><time>2026-05-01T08:37:12.272Z</time></trkpt><trkpt lat="44.9009445" lon="7.9655011"><ele>276.66666666666663</ele><time>2026-05-01T08:37:13.272Z</time></trkpt><trkpt lat="44.9008094" lon="7.9653854"><ele>276.3333333333333</ele><time>2026-05-01T08:37:14.272Z</time></trkpt><trkpt lat="44.9006774" lon="7.9652682"><ele>276.0</ele><time>2026-05-01T08:37:15.272Z</time></trkpt><trkpt lat="44.9005401" lon="7.9651586"><ele>276.0</ele><time>2026-05-01T08:37:16.272Z</time></trkpt><trkpt lat="44.9004178" lon="7.9650554"><ele>276.0</ele><time>2026-05-01T08:37:17.272Z</time></trkpt><trkpt lat="44.900304" lon="7.9649528"><ele>276.0</ele><time>2026-05-01T08:37:18.272Z</time></trkpt><trkpt lat="44.9001946" lon="7.9648543"><ele>276.0</ele><time>2026-05-01T08:37:19.272Z</time></trkpt><trkpt lat="44.9000897" lon="7.9647681"><ele>276.5</ele><time>2026-05-01T08:37:20.272Z</time></trkpt><trkpt lat="44.8999915" lon="7.9647079"><ele>277.0</ele><time>2026-05-01T08:37:21.272Z</time></trkpt><trkpt lat="44.8999059" lon="7.964668"><ele>277.5</ele><time>2026-05-01T08:37:22.272Z</time></trkpt><trkpt lat="44.8998311" lon="7.9646311"><ele>278.0</ele><time>2026-05-01T08:37:23.272Z</time></trkpt><trkpt lat="44.8997486" lon="7.9645994"><ele>278.5</ele><time>2026-05-01T08:37:24.272Z</time></trkpt><trkpt lat="44.8996673" lon="7.964562"><ele>279.0</ele><time>2026-05-01T08:37:25.272Z</time></trkpt><trkpt lat="44.8995854" lon="7.9645215"><ele>279.0</ele><time>2026-05-01T08:37:26.272Z</time></trkpt><trkpt lat="44.8994992" lon="7.9644792"><ele>279.0</ele><time>2026-05-01T08:37:27.272Z</time></trkpt><trkpt lat="44.8994074" lon="7.9644451"><ele>279.0</ele><time>2026-05-01T08:37:28.272Z</time></trkpt><trkpt lat="44.8993186" lon="7.964411"><ele>279.0</ele><time>2026-05-01T08:37:29.272Z</time></trkpt><trkpt lat="44.8992222" lon="7.964376"><ele>279.0</ele><time>2026-05-01T08:37:30.272Z</time></trkpt><trkpt lat="44.8991325" lon="7.9643307"><ele>279.0</ele><time>2026-05-01T08:37:31.272Z</time></trkpt><trkpt lat="44.899063" lon="7.9642793"><ele>279.0</ele><time>2026-05-01T08:37:32.272Z</time></trkpt><trkpt lat="44.8990027" lon="7.9642285"><ele>279.0</ele><time>2026-05-01T08:37:33.273Z</time></trkpt><trkpt lat="44.8988955" lon="7.9641605"><ele>279.0</ele><time>2026-05-01T08:37:35.272Z</time></trkpt><trkpt lat="44.8988082" lon="7.9641194"><ele>279.0</ele><time>2026-05-01T08:37:37.272Z</time></trkpt><trkpt lat="44.8987431" lon="7.9640815"><ele>279.0</ele><time>2026-05-01T08:37:39.273Z</time></trkpt><trkpt lat="44.8986478" lon="7.9640275"><ele>278.8</ele><time>2026-05-01T08:37:41.272Z</time></trkpt><trkpt lat="44.8985814" lon="7.9639898"><ele>278.59999999999997</ele><time>2026-05-01T08:37:42.273Z</time></trkpt><trkpt lat="44.8985058" lon="7.9639363"><ele>278.4</ele><time>2026-05-01T08:37:43.272Z</time></trkpt><trkpt lat="44.8984177" lon="7.963876"><ele>278.2</ele><time>2026-05-01T08:37:44.272Z</time></trkpt><trkpt lat="44.898322" lon="7.963809"><ele>278.0</ele><time>2026-05-01T08:37:45.272Z</time></trkpt><trkpt lat="44.8982292" lon="7.9637413"><ele>278.0</ele><time>2026-05-01T08:37:46.272Z</time></trkpt><trkpt lat="44.8981475" lon="7.9636769"><ele>278.0</ele><time>2026-05-01T08:37:47.272Z</time></trkpt><trkpt lat="44.898074" lon="7.9636292"><ele>278.0</ele><time>2026-05-01T08:37:48.272Z</time></trkpt><trkpt lat="44.8980045" lon="7.9635876"><ele>278.0</ele><time>2026-05-01T08:37:49.272Z</time></trkpt><trkpt lat="44.8979381" lon="7.9635511"><ele>278.0</ele><time>2026-05-01T08:37:50.272Z</time></trkpt><trkpt lat="44.8978734" lon="7.9635253"><ele>278.0</ele><time>2026-05-01T08:37:51.272Z</time></trkpt><trkpt lat="44.8977779" lon="7.9634779"><ele>278.0</ele><time>2026-05-01T08:37:53.272Z</time></trkpt><trkpt lat="44.8977558" lon="7.9633852"><ele>278.0</ele><time>2026-05-01T08:37:56.272Z</time></trkpt><trkpt lat="44.897746" lon="7.9632554"><ele>278.0</ele><time>2026-05-01T08:37:58.272Z</time></trkpt><trkpt lat="44.8976573" lon="7.963144"><ele>278.0</ele><time>2026-05-01T08:38:00.272Z</time></trkpt><trkpt lat="44.8975269" lon="7.9630971"><ele>278.0</ele><time>2026-05-01T08:38:02.272Z</time></trkpt><trkpt lat="44.8974496" lon="7.9631052"><ele>278.0</ele><time>2026-05-01T08:38:03.272Z</time></trkpt><trkpt lat="44.8973711" lon="7.963105"><ele>278.0</ele><time>2026-05-01T08:38:04.272Z</time></trkpt><trkpt lat="44.8973097" lon="7.9630808"><ele>278.0</ele><time>2026-05-01T08:38:05.272Z</time></trkpt><trkpt lat="44.8972556" lon="7.9630256"><ele>278.0</ele><time>2026-05-01T08:38:06.272Z</time></trkpt><trkpt lat="44.8972052" lon="7.9629349"><ele>278.0</ele><time>2026-05-01T08:38:07.272Z</time></trkpt><trkpt lat="44.8971693" lon="7.9628162"><ele>278.0</ele><time>2026-05-01T08:38:08.273Z</time></trkpt><trkpt lat="44.89715" lon="7.9626752"><ele>276.75</ele><time>2026-05-01T08:38:09.272Z</time></trkpt><trkpt lat="44.8971416" lon="7.9625104"><ele>275.5</ele><time>2026-05-01T08:38:10.272Z</time></trkpt><trkpt lat="44.897137" lon="7.9623383"><ele>274.25</ele><time>2026-05-01T08:38:11.272Z</time></trkpt><trkpt lat="44.8971336" lon="7.9621654"><ele>273.0</ele><time>2026-05-01T08:38:12.273Z</time></trkpt><trkpt lat="44.8971265" lon="7.9620023"><ele>273.0</ele><time>2026-05-01T08:38:13.272Z</time></trkpt><trkpt lat="44.897111" lon="7.9618469"><ele>273.0</ele><time>2026-05-01T08:38:14.272Z</time></trkpt><trkpt lat="44.8970783" lon="7.9617"><ele>273.0</ele><time>2026-05-01T08:38:15.272Z</time></trkpt><trkpt lat="44.8970646" lon="7.9615381"><ele>273.0</ele><time>2026-05-01T08:38:16.273Z</time></trkpt><trkpt lat="44.8970613" lon="7.9613782"><ele>273.0</ele><time>2026-05-01T08:38:17.272Z</time></trkpt><trkpt lat="44.8970509" lon="7.9612132"><ele>273.0</ele><time>2026-05-01T08:38:18.272Z</time></trkpt><trkpt lat="44.8970532" lon="7.9610435"><ele>273.0</ele><time>2026-05-01T08:38:19.272Z</time></trkpt><trkpt lat="44.8970481" lon="7.9608772"><ele>273.0</ele><time>2026-05-01T08:38:20.272Z</time></trkpt><trkpt lat="44.8970323" lon="7.9607164"><ele>273.0</ele><time>2026-05-01T08:38:21.272Z</time></trkpt><trkpt lat="44.8970059" lon="7.9605674"><ele>273.0</ele><time>2026-05-01T08:38:22.272Z</time></trkpt><trkpt lat="44.896985" lon="7.9604221"><ele>273.0</ele><time>2026-05-01T08:38:23.272Z</time></trkpt><trkpt lat="44.8969755" lon="7.9603025"><ele>273.0</ele><time>2026-05-01T08:38:24.272Z</time></trkpt><trkpt lat="44.8969734" lon="7.9602028"><ele>273.0</ele><time>2026-05-01T08:38:25.272Z</time></trkpt><trkpt lat="44.8969814" lon="7.9600926"><ele>273.0</ele><time>2026-05-01T08:38:27.272Z</time></trkpt><trkpt lat="44.8969539" lon="7.9599911"><ele>273.0</ele><time>2026-05-01T08:38:30.272Z</time></trkpt><trkpt lat="44.8968886" lon="7.9598356"><ele>273.6</ele><time>2026-05-01T08:38:32.272Z</time></trkpt><trkpt lat="44.8968341" lon="7.9597394"><ele>274.20000000000005</ele><time>2026-05-01T08:38:33.272Z</time></trkpt><trkpt lat="44.8967723" lon="7.9596205"><ele>274.8</ele><time>2026-05-01T08:38:34.272Z</time></trkpt><trkpt lat="44.8967103" lon="7.9594809"><ele>275.40000000000003</ele><time>2026-05-01T08:38:35.272Z</time></trkpt><trkpt lat="44.8966492" lon="7.9593504"><ele>276.0</ele><time>2026-05-01T08:38:36.273Z</time></trkpt><trkpt lat="44.8965885" lon="7.9592045"><ele>276.0</ele><time>2026-05-01T08:38:37.272Z</time></trkpt><trkpt lat="44.8965157" lon="7.9590664"><ele>276.0</ele><time>2026-05-01T08:38:38.273Z</time></trkpt><trkpt lat="44.8964276" lon="7.958928"><ele>276.0</ele><time>2026-05-01T08:38:39.272Z</time></trkpt><trkpt lat="44.8963296" lon="7.9587864"><ele>276.0</ele><time>2026-05-01T08:38:40.272Z</time></trkpt><trkpt lat="44.8962387" lon="7.9586361"><ele>276.0</ele><time>2026-05-01T08:38:41.273Z</time></trkpt><trkpt lat="44.8961577" lon="7.9584878"><ele>276.0</ele><time>2026-05-01T08:38:42.272Z</time></trkpt><trkpt lat="44.8960823" lon="7.9583446"><ele>276.0</ele><time>2026-05-01T08:38:43.272Z</time></trkpt><trkpt lat="44.8960101" lon="7.9582094"><ele>276.0</ele><time>2026-05-01T08:38:44.272Z</time></trkpt><trkpt lat="44.8959258" lon="7.9580799"><ele>276.5</ele><time>2026-05-01T08:38:45.272Z</time></trkpt><trkpt lat="44.8958192" lon="7.9579632"><ele>277.0</ele><time>2026-05-01T08:38:46.272Z</time></trkpt><trkpt lat="44.8957012" lon="7.9578392"><ele>277.5</ele><time>2026-05-01T08:38:47.272Z</time></trkpt><trkpt lat="44.8955734" lon="7.9577168"><ele>278.0</ele><time>2026-05-01T08:38:48.272Z</time></trkpt><trkpt lat="44.8954542" lon="7.9575681"><ele>278.0</ele><time>2026-05-01T08:38:49.272Z</time></trkpt><trkpt lat="44.8953506" lon="7.9574063"><ele>278.0</ele><time>2026-05-01T08:38:50.273Z</time></trkpt><trkpt lat="44.8952572" lon="7.957238"><ele>278.0</ele><time>2026-05-01T08:38:51.273Z</time></trkpt><trkpt lat="44.8951629" lon="7.957061"><ele>278.33333333333337</ele><time>2026-05-01T08:38:52.272Z</time></trkpt><trkpt lat="44.8950727" lon="7.9568752"><ele>278.6666666666667</ele><time>2026-05-01T08:38:53.272Z</time></trkpt><trkpt lat="44.8949851" lon="7.9566752"><ele>279.0</ele><time>2026-05-01T08:38:54.272Z</time></trkpt><trkpt lat="44.894904" lon="7.9564803"><ele>278.6666666666667</ele><time>2026-05-01T08:38:55.272Z</time></trkpt><trkpt lat="44.8948143" lon="7.9562657"><ele>278.33333333333337</ele><time>2026-05-01T08:38:56.273Z</time></trkpt><trkpt lat="44.8947047" lon="7.9560433"><ele>278.0</ele><time>2026-05-01T08:38:57.272Z</time></trkpt><trkpt lat="44.894591" lon="7.9558153"><ele>278.0</ele><time>2026-05-01T08:38:58.273Z</time></trkpt><trkpt lat="44.8944705" lon="7.9555824"><ele>278.0</ele><time>2026-05-01T08:38:59.272Z</time></trkpt><trkpt lat="44.8943498" lon="7.9553325"><ele>278.0</ele><time>2026-05-01T08:39:00.272Z</time></trkpt><trkpt lat="44.8942341" lon="7.9550842"><ele>277.6666666666667</ele><time>2026-05-01T08:39:01.272Z</time></trkpt><trkpt lat="44.8941147" lon="7.9548386"><ele>277.3333333333333</ele><time>2026-05-01T08:39:02.273Z</time></trkpt><trkpt lat="44.8939937" lon="7.9545914"><ele>277.0</ele><time>2026-05-01T08:39:03.272Z</time></trkpt><trkpt lat="44.8938806" lon="7.9543376"><ele>276.0</ele><time>2026-05-01T08:39:04.273Z</time></trkpt><trkpt lat="44.8937664" lon="7.9540837"><ele>275.0</ele><time>2026-05-01T08:39:05.272Z</time></trkpt><trkpt lat="44.8936534" lon="7.9538242"><ele>274.0</ele><time>2026-05-01T08:39:06.272Z</time></trkpt><trkpt lat="44.8935382" lon="7.9535732"><ele>273.3333333333333</ele><time>2026-05-01T08:39:07.272Z</time></trkpt><trkpt lat="44.893431" lon="7.9533344"><ele>272.6666666666667</ele><time>2026-05-01T08:39:08.272Z</time></trkpt><trkpt lat="44.8933395" lon="7.953103"><ele>272.0</ele><time>2026-05-01T08:39:09.272Z</time></trkpt><trkpt lat="44.8932273" lon="7.9529005"><ele>272.0</ele><time>2026-05-01T08:39:10.272Z</time></trkpt><trkpt lat="44.89311" lon="7.9527107"><ele>272.0</ele><time>2026-05-01T08:39:11.272Z</time></trkpt><trkpt lat="44.8929841" lon="7.952546"><ele>272.0</ele><time>2026-05-01T08:39:12.272Z</time></trkpt><trkpt lat="44.8928494" lon="7.9523846"><ele>272.33333333333337</ele><time>2026-05-01T08:39:13.272Z</time></trkpt><trkpt lat="44.8926988" lon="7.9522281"><ele>272.6666666666667</ele><time>2026-05-01T08:39:14.272Z</time></trkpt><trkpt lat="44.8925374" lon="7.9520667"><ele>273.0</ele><time>2026-05-01T08:39:15.272Z</time></trkpt><trkpt lat="44.892373" lon="7.9519004"><ele>273.0</ele><time>2026-05-01T08:39:16.273Z</time></trkpt><trkpt lat="44.892199" lon="7.9517331"><ele>273.0</ele><time>2026-05-01T08:39:17.272Z</time></trkpt><trkpt lat="44.8920269" lon="7.9515582"><ele>273.0</ele><time>2026-05-01T08:39:18.272Z</time></trkpt><trkpt lat="44.8918577" lon="7.9513859"><ele>275.0</ele><time>2026-05-01T08:39:19.272Z</time></trkpt><trkpt lat="44.8916883" lon="7.9512145"><ele>277.0</ele><time>2026-05-01T08:39:20.272Z</time></trkpt><trkpt lat="44.8915184" lon="7.9510401"><ele>279.0</ele><time>2026-05-01T08:39:21.272Z</time></trkpt><trkpt lat="44.8913516" lon="7.9508589"><ele>279.6666666666667</ele><time>2026-05-01T08:39:22.272Z</time></trkpt><trkpt lat="44.8911825" lon="7.9506696"><ele>280.33333333333337</ele><time>2026-05-01T08:39:23.272Z</time></trkpt><trkpt lat="44.8910227" lon="7.9504763"><ele>281.0</ele><time>2026-05-01T08:39:24.272Z</time></trkpt><trkpt lat="44.8908749" lon="7.9502858"><ele>281.33333333333337</ele><time>2026-05-01T08:39:25.272Z</time></trkpt><trkpt lat="44.8907333" lon="7.9500987"><ele>281.6666666666667</ele><time>2026-05-01T08:39:26.272Z</time></trkpt><trkpt lat="44.8906076" lon="7.9499043"><ele>282.0</ele><time>2026-05-01T08:39:27.273Z</time></trkpt><trkpt lat="44.8904867" lon="7.9497013"><ele>282.0</ele><time>2026-05-01T08:39:28.273Z</time></trkpt><trkpt lat="44.8903762" lon="7.9494729"><ele>282.0</ele><time>2026-05-01T08:39:29.272Z</time></trkpt><trkpt lat="44.890297" lon="7.9492316"><ele>282.0</ele><time>2026-05-01T08:39:30.272Z</time></trkpt><trkpt lat="44.8902372" lon="7.9489893"><ele>282.3333333333333</ele><time>2026-05-01T08:39:31.272Z</time></trkpt><trkpt lat="44.8901791" lon="7.9487653"><ele>282.66666666666663</ele><time>2026-05-01T08:39:32.272Z</time></trkpt><trkpt lat="44.8900998" lon="7.9485413"><ele>283.0</ele><time>2026-05-01T08:39:33.272Z</time></trkpt><trkpt lat="44.8899986" lon="7.9483255"><ele>282.0</ele><time>2026-05-01T08:39:34.272Z</time></trkpt><trkpt lat="44.889862" lon="7.9481315"><ele>281.0</ele><time>2026-05-01T08:39:35.272Z</time></trkpt><trkpt lat="44.8897168" lon="7.9479823"><ele>280.0</ele><time>2026-05-01T08:39:36.272Z</time></trkpt><trkpt lat="44.8895653" lon="7.947881"><ele>280.0</ele><time>2026-05-01T08:39:37.272Z</time></trkpt><trkpt lat="44.8894114" lon="7.9478353"><ele>280.0</ele><time>2026-05-01T08:39:38.272Z</time></trkpt><trkpt lat="44.8892397" lon="7.947857"><ele>280.0</ele><time>2026-05-01T08:39:39.272Z</time></trkpt><trkpt lat="44.8890692" lon="7.9479453"><ele>280.75</ele><time>2026-05-01T08:39:40.273Z</time></trkpt><trkpt lat="44.8889317" lon="7.9480705"><ele>281.5</ele><time>2026-05-01T08:39:41.272Z</time></trkpt><trkpt lat="44.8888311" lon="7.9482125"><ele>282.25</ele><time>2026-05-01T08:39:42.273Z</time></trkpt><trkpt lat="44.8887569" lon="7.9483715"><ele>283.0</ele><time>2026-05-01T08:39:43.273Z</time></trkpt><trkpt lat="44.8886886" lon="7.9485333"><ele>283.25</ele><time>2026-05-01T08:39:44.272Z</time></trkpt><trkpt lat="44.8886089" lon="7.9486783"><ele>283.5</ele><time>2026-05-01T08:39:45.272Z</time></trkpt><trkpt lat="44.8885162" lon="7.9488284"><ele>283.75</ele><time>2026-05-01T08:39:46.272Z</time></trkpt><trkpt lat="44.8884251" lon="7.94899"><ele>284.0</ele><time>2026-05-01T08:39:47.272Z</time></trkpt><trkpt lat="44.8883201" lon="7.9491528"><ele>284.33333333333337</ele><time>2026-05-01T08:39:48.272Z</time></trkpt><trkpt lat="44.8882082" lon="7.949315"><ele>284.6666666666667</ele><time>2026-05-01T08:39:49.272Z</time></trkpt><trkpt lat="44.8880933" lon="7.9494511"><ele>285.0</ele><time>2026-05-01T08:39:50.272Z</time></trkpt><trkpt lat="44.8879682" lon="7.949561"><ele>285.0</ele><time>2026-05-01T08:39:51.272Z</time></trkpt><trkpt lat="44.8878483" lon="7.9496554"><ele>285.0</ele><time>2026-05-01T08:39:52.273Z</time></trkpt><trkpt lat="44.8877414" lon="7.9497426"><ele>285.0</ele><time>2026-05-01T08:39:53.273Z</time></trkpt><trkpt lat="44.8876374" lon="7.9498033"><ele>285.0</ele><time>2026-05-01T08:39:54.272Z</time></trkpt><trkpt lat="44.8875334" lon="7.9498342"><ele>284.5</ele><time>2026-05-01T08:39:55.272Z</time></trkpt><trkpt lat="44.8874275" lon="7.9498079"><ele>284.0</ele><time>2026-05-01T08:39:56.272Z</time></trkpt><trkpt lat="44.8873077" lon="7.9497203"><ele>283.5</ele><time>2026-05-01T08:39:57.273Z</time></trkpt><trkpt lat="44.8871807" lon="7.9495912"><ele>283.0</ele><time>2026-05-01T08:39:58.272Z</time></trkpt><trkpt lat="44.8870438" lon="7.9494422"><ele>283.0</ele><time>2026-05-01T08:39:59.272Z</time></trkpt><trkpt lat="44.88691" lon="7.9492915"><ele>283.0</ele><time>2026-05-01T08:40:00.272Z</time></trkpt><trkpt lat="44.8867696" lon="7.9491352"><ele>283.0</ele><time>2026-05-01T08:40:01.272Z</time></trkpt><trkpt lat="44.8866262" lon="7.9489794"><ele>280.3333333333333</ele><time>2026-05-01T08:40:02.272Z</time></trkpt><trkpt lat="44.8864857" lon="7.9488193"><ele>277.6666666666667</ele><time>2026-05-01T08:40:03.272Z</time></trkpt><trkpt lat="44.8863411" lon="7.9486546"><ele>275.0</ele><time>2026-05-01T08:40:04.273Z</time></trkpt><trkpt lat="44.8861978" lon="7.9484985"><ele>274.0</ele><time>2026-05-01T08:40:05.272Z</time></trkpt><trkpt lat="44.8860654" lon="7.9483543"><ele>273.0</ele><time>2026-05-01T08:40:06.273Z</time></trkpt><trkpt lat="44.88593" lon="7.9482171"><ele>272.0</ele><time>2026-05-01T08:40:07.272Z</time></trkpt><trkpt lat="44.8857904" lon="7.9481064"><ele>272.0</ele><time>2026-05-01T08:40:08.272Z</time></trkpt><trkpt lat="44.8856483" lon="7.9480427"><ele>272.0</ele><time>2026-05-01T08:40:09.272Z</time></trkpt><trkpt lat="44.885501" lon="7.9480238"><ele>272.0</ele><time>2026-05-01T08:40:10.272Z</time></trkpt><trkpt lat="44.885352" lon="7.9480425"><ele>272.0</ele><time>2026-05-01T08:40:11.272Z</time></trkpt><trkpt lat="44.8851929" lon="7.9480811"><ele>273.0</ele><time>2026-05-01T08:40:12.272Z</time></trkpt><trkpt lat="44.8850331" lon="7.9481243"><ele>274.0</ele><time>2026-05-01T08:40:13.272Z</time></trkpt><trkpt lat="44.8848784" lon="7.9481604"><ele>275.0</ele><time>2026-05-01T08:40:14.272Z</time></trkpt><trkpt lat="44.8847098" lon="7.9482152"><ele>275.0</ele><time>2026-05-01T08:40:15.272Z</time></trkpt><trkpt lat="44.884536" lon="7.9483122"><ele>275.0</ele><time>2026-05-01T08:40:16.273Z</time></trkpt><trkpt lat="44.8843864" lon="7.9484286"><ele>275.0</ele><time>2026-05-01T08:40:17.272Z</time></trkpt><trkpt lat="44.8842458" lon="7.9485673"><ele>274.75</ele><time>2026-05-01T08:40:18.272Z</time></trkpt><trkpt lat="44.8841232" lon="7.9486976"><ele>274.5</ele><time>2026-05-01T08:40:19.272Z</time></trkpt><trkpt lat="44.8840067" lon="7.9488139"><ele>274.25</ele><time>2026-05-01T08:40:20.272Z</time></trkpt><trkpt lat="44.8838963" lon="7.9489117"><ele>274.0</ele><time>2026-05-01T08:40:21.272Z</time></trkpt><trkpt lat="44.8837866" lon="7.948991"><ele>274.0</ele><time>2026-05-01T08:40:22.273Z</time></trkpt><trkpt lat="44.8836818" lon="7.9490308"><ele>274.0</ele><time>2026-05-01T08:40:23.272Z</time></trkpt><trkpt lat="44.8835648" lon="7.9490127"><ele>274.0</ele><time>2026-05-01T08:40:24.272Z</time></trkpt><trkpt lat="44.8834591" lon="7.9489176"><ele>274.0</ele><time>2026-05-01T08:40:25.272Z</time></trkpt><trkpt lat="44.883395" lon="7.9487449"><ele>275.0</ele><time>2026-05-01T08:40:26.272Z</time></trkpt><trkpt lat="44.8833625" lon="7.9485489"><ele>276.0</ele><time>2026-05-01T08:40:27.272Z</time></trkpt><trkpt lat="44.8833518" lon="7.9483244"><ele>277.0</ele><time>2026-05-01T08:40:28.273Z</time></trkpt><trkpt lat="44.8833536" lon="7.9480788"><ele>278.66666666666663</ele><time>2026-05-01T08:40:29.272Z</time></trkpt><trkpt lat="44.8833566" lon="7.9478241"><ele>280.3333333333333</ele><time>2026-05-01T08:40:30.272Z</time></trkpt><trkpt lat="44.8833528" lon="7.9475722"><ele>282.0</ele><time>2026-05-01T08:40:31.272Z</time></trkpt><trkpt lat="44.8833293" lon="7.9473289"><ele>282.6666666666667</ele><time>2026-05-01T08:40:32.273Z</time></trkpt><trkpt lat="44.8833009" lon="7.9470877"><ele>283.33333333333337</ele><time>2026-05-01T08:40:33.272Z</time></trkpt><trkpt lat="44.883254" lon="7.9468628"><ele>284.0</ele><time>2026-05-01T08:40:34.272Z</time></trkpt><trkpt lat="44.8831765" lon="7.9466659"><ele>285.0</ele><time>2026-05-01T08:40:35.272Z</time></trkpt><trkpt lat="44.8830748" lon="7.9464805"><ele>286.0</ele><time>2026-05-01T08:40:36.273Z</time></trkpt><trkpt lat="44.8829395" lon="7.946333"><ele>287.0</ele><time>2026-05-01T08:40:37.272Z</time></trkpt><trkpt lat="44.8827783" lon="7.9462186"><ele>286.6666666666667</ele><time>2026-05-01T08:40:38.272Z</time></trkpt><trkpt lat="44.8825956" lon="7.9461385"><ele>286.3333333333333</ele><time>2026-05-01T08:40:39.272Z</time></trkpt><trkpt lat="44.8824163" lon="7.9460542"><ele>286.0</ele><time>2026-05-01T08:40:40.272Z</time></trkpt><trkpt lat="44.8822465" lon="7.9459575"><ele>287.3333333333333</ele><time>2026-05-01T08:40:41.272Z</time></trkpt><trkpt lat="44.882072" lon="7.9458529"><ele>288.6666666666667</ele><time>2026-05-01T08:40:42.272Z</time></trkpt><trkpt lat="44.8819011" lon="7.945752"><ele>290.0</ele><time>2026-05-01T08:40:43.272Z</time></trkpt><trkpt lat="44.8817323" lon="7.9456568"><ele>290.33333333333337</ele><time>2026-05-01T08:40:44.272Z</time></trkpt><trkpt lat="44.8815597" lon="7.9455696"><ele>290.6666666666667</ele><time>2026-05-01T08:40:45.272Z</time></trkpt><trkpt lat="44.8813885" lon="7.9454761"><ele>291.0</ele><time>2026-05-01T08:40:46.273Z</time></trkpt><trkpt lat="44.8812317" lon="7.9453677"><ele>291.0</ele><time>2026-05-01T08:40:47.272Z</time></trkpt><trkpt lat="44.8810864" lon="7.9452368"><ele>291.0</ele><time>2026-05-01T08:40:48.272Z</time></trkpt><trkpt lat="44.8809495" lon="7.9450807"><ele>291.0</ele><time>2026-05-01T08:40:49.273Z</time></trkpt><trkpt lat="44.8808247" lon="7.9449057"><ele>291.6666666666667</ele><time>2026-05-01T08:40:50.272Z</time></trkpt><trkpt lat="44.8807019" lon="7.9447272"><ele>292.33333333333337</ele><time>2026-05-01T08:40:51.272Z</time></trkpt><trkpt lat="44.880572" lon="7.9445532"><ele>293.0</ele><time>2026-05-01T08:40:52.272Z</time></trkpt><trkpt lat="44.8804312" lon="7.9444033"><ele>293.0</ele><time>2026-05-01T08:40:53.272Z</time></trkpt><trkpt lat="44.8802884" lon="7.9442795"><ele>293.0</ele><time>2026-05-01T08:40:54.272Z</time></trkpt><trkpt lat="44.8801313" lon="7.9441876"><ele>293.0</ele><time>2026-05-01T08:40:55.272Z</time></trkpt><trkpt lat="44.8799599" lon="7.9441231"><ele>293.33333333333337</ele><time>2026-05-01T08:40:56.272Z</time></trkpt><trkpt lat="44.8797847" lon="7.9440545"><ele>293.6666666666667</ele><time>2026-05-01T08:40:57.272Z</time></trkpt><trkpt lat="44.8796049" lon="7.9439788"><ele>294.0</ele><time>2026-05-01T08:40:58.272Z</time></trkpt><trkpt lat="44.8794205" lon="7.9439086"><ele>293.6666666666667</ele><time>2026-05-01T08:40:59.272Z</time></trkpt><trkpt lat="44.8792329" lon="7.9438837"><ele>293.33333333333337</ele><time>2026-05-01T08:41:00.272Z</time></trkpt><trkpt lat="44.8790467" lon="7.9439044"><ele>293.0</ele><time>2026-05-01T08:41:01.272Z</time></trkpt><trkpt lat="44.8788559" lon="7.9439649"><ele>293.0</ele><time>2026-05-01T08:41:02.272Z</time></trkpt><trkpt lat="44.8786627" lon="7.9440484"><ele>293.0</ele><time>2026-05-01T08:41:03.272Z</time></trkpt><trkpt lat="44.8784727" lon="7.9441281"><ele>293.0</ele><time>2026-05-01T08:41:04.272Z</time></trkpt><trkpt lat="44.8782796" lon="7.944182"><ele>293.6666666666667</ele><time>2026-05-01T08:41:05.272Z</time></trkpt><trkpt lat="44.8780857" lon="7.9442158"><ele>294.3333333333333</ele><time>2026-05-01T08:41:06.272Z</time></trkpt><trkpt lat="44.8778944" lon="7.9442288"><ele>295.0</ele><time>2026-05-01T08:41:07.273Z</time></trkpt><trkpt lat="44.877688" lon="7.9442407"><ele>296.66666666666663</ele><time>2026-05-01T08:41:08.272Z</time></trkpt><trkpt lat="44.8774817" lon="7.9442822"><ele>298.3333333333333</ele><time>2026-05-01T08:41:09.272Z</time></trkpt><trkpt lat="44.8772717" lon="7.9443206"><ele>300.0</ele><time>2026-05-01T08:41:10.272Z</time></trkpt><trkpt lat="44.8770621" lon="7.9443653"><ele>300.0</ele><time>2026-05-01T08:41:11.272Z</time></trkpt><trkpt lat="44.8768539" lon="7.9444222"><ele>300.0</ele><time>2026-05-01T08:41:12.272Z</time></trkpt><trkpt lat="44.876652" lon="7.9444731"><ele>300.0</ele><time>2026-05-01T08:41:13.272Z</time></trkpt><trkpt lat="44.8764497" lon="7.9445294"><ele>300.3333333333333</ele><time>2026-05-01T08:41:14.272Z</time></trkpt><trkpt lat="44.8762585" lon="7.9445852"><ele>300.66666666666663</ele><time>2026-05-01T08:41:15.272Z</time></trkpt><trkpt lat="44.8760792" lon="7.944645"><ele>301.0</ele><time>2026-05-01T08:41:16.272Z</time></trkpt><trkpt lat="44.8759074" lon="7.9447173"><ele>301.3333333333333</ele><time>2026-05-01T08:41:17.272Z</time></trkpt><trkpt lat="44.8757504" lon="7.944808"><ele>301.6666666666667</ele><time>2026-05-01T08:41:18.272Z</time></trkpt><trkpt lat="44.8756024" lon="7.9448942"><ele>302.0</ele><time>2026-05-01T08:41:19.272Z</time></trkpt><trkpt lat="44.8754597" lon="7.9449654"><ele>302.0</ele><time>2026-05-01T08:41:20.272Z</time></trkpt><trkpt lat="44.8753093" lon="7.9450143"><ele>302.0</ele><time>2026-05-01T08:41:21.272Z</time></trkpt><trkpt lat="44.8751539" lon="7.9450433"><ele>302.0</ele><time>2026-05-01T08:41:22.272Z</time></trkpt><trkpt lat="44.8749908" lon="7.945059"><ele>302.6666666666667</ele><time>2026-05-01T08:41:23.272Z</time></trkpt><trkpt lat="44.8748287" lon="7.9450597"><ele>303.3333333333333</ele><time>2026-05-01T08:41:24.273Z</time></trkpt><trkpt lat="44.8746575" lon="7.945053"><ele>304.0</ele><time>2026-05-01T08:41:25.272Z</time></trkpt><trkpt lat="44.8744793" lon="7.9450413"><ele>304.0</ele><time>2026-05-01T08:41:26.272Z</time></trkpt><trkpt lat="44.8742966" lon="7.9450184"><ele>304.0</ele><time>2026-05-01T08:41:27.272Z</time></trkpt><trkpt lat="44.8741138" lon="7.9449657"><ele>304.0</ele><time>2026-05-01T08:41:28.272Z</time></trkpt><trkpt lat="44.8739448" lon="7.9449012"><ele>304.3333333333333</ele><time>2026-05-01T08:41:29.272Z</time></trkpt><trkpt lat="44.8737781" lon="7.9448329"><ele>304.6666666666667</ele><time>2026-05-01T08:41:30.273Z</time></trkpt><trkpt lat="44.873612" lon="7.9447703"><ele>305.0</ele><time>2026-05-01T08:41:31.272Z</time></trkpt><trkpt lat="44.8734511" lon="7.9447138"><ele>305.25</ele><time>2026-05-01T08:41:32.272Z</time></trkpt><trkpt lat="44.8733067" lon="7.9446683"><ele>305.5</ele><time>2026-05-01T08:41:33.272Z</time></trkpt><trkpt lat="44.8731724" lon="7.9446348"><ele>305.75</ele><time>2026-05-01T08:41:34.272Z</time></trkpt><trkpt lat="44.8730387" lon="7.9446009"><ele>306.0</ele><time>2026-05-01T08:41:35.272Z</time></trkpt><trkpt lat="44.8729022" lon="7.9445863"><ele>306.0</ele><time>2026-05-01T08:41:36.272Z</time></trkpt><trkpt lat="44.872756" lon="7.9446054"><ele>306.0</ele><time>2026-05-01T08:41:37.272Z</time></trkpt><trkpt lat="44.8726006" lon="7.944655"><ele>306.0</ele><time>2026-05-01T08:41:38.272Z</time></trkpt><trkpt lat="44.8724363" lon="7.944729"><ele>305.6666666666667</ele><time>2026-05-01T08:41:39.272Z</time></trkpt><trkpt lat="44.8722733" lon="7.944807"><ele>305.33333333333337</ele><time>2026-05-01T08:41:40.272Z</time></trkpt><trkpt lat="44.8721193" lon="7.9448855"><ele>305.0</ele><time>2026-05-01T08:41:41.272Z</time></trkpt><trkpt lat="44.8719826" lon="7.944954"><ele>305.0</ele><time>2026-05-01T08:41:42.272Z</time></trkpt><trkpt lat="44.8718538" lon="7.9450123"><ele>305.0</ele><time>2026-05-01T08:41:43.272Z</time></trkpt><trkpt lat="44.8717504" lon="7.9450637"><ele>305.0</ele><time>2026-05-01T08:41:44.273Z</time></trkpt><trkpt lat="44.871661" lon="7.9451113"><ele>305.0</ele><time>2026-05-01T08:41:45.272Z</time></trkpt><trkpt lat="44.8715765" lon="7.9451561"><ele>305.0</ele><time>2026-05-01T08:41:46.272Z</time></trkpt><trkpt lat="44.8714868" lon="7.9451999"><ele>305.2</ele><time>2026-05-01T08:41:47.272Z</time></trkpt><trkpt lat="44.8713874" lon="7.9452448"><ele>305.4</ele><time>2026-05-01T08:41:48.272Z</time></trkpt><trkpt lat="44.8712871" lon="7.9452808"><ele>305.6</ele><time>2026-05-01T08:41:49.272Z</time></trkpt><trkpt lat="44.8711758" lon="7.945288"><ele>305.8</ele><time>2026-05-01T08:41:50.272Z</time></trkpt><trkpt lat="44.8710532" lon="7.9452761"><ele>306.0</ele><time>2026-05-01T08:41:51.272Z</time></trkpt><trkpt lat="44.8709255" lon="7.9452291"><ele>306.75</ele><time>2026-05-01T08:41:52.273Z</time></trkpt><trkpt lat="44.8707999" lon="7.9451567"><ele>307.5</ele><time>2026-05-01T08:41:53.272Z</time></trkpt><trkpt lat="44.8706732" lon="7.94507"><ele>308.25</ele><time>2026-05-01T08:41:54.272Z</time></trkpt><trkpt lat="44.8705524" lon="7.9449927"><ele>309.0</ele><time>2026-05-01T08:41:55.273Z</time></trkpt><trkpt lat="44.8704343" lon="7.9449267"><ele>309.0</ele><time>2026-05-01T08:41:56.272Z</time></trkpt><trkpt lat="44.8703289" lon="7.9448585"><ele>309.0</ele><time>2026-05-01T08:41:57.272Z</time></trkpt><trkpt lat="44.8702384" lon="7.9447679"><ele>309.0</ele><time>2026-05-01T08:41:58.272Z</time></trkpt><trkpt lat="44.8701644" lon="7.9446563"><ele>309.0</ele><time>2026-05-01T08:41:59.272Z</time></trkpt><trkpt lat="44.8701165" lon="7.9445228"><ele>309.0</ele><time>2026-05-01T08:42:00.272Z</time></trkpt><trkpt lat="44.8700821" lon="7.9443739"><ele>309.25</ele><time>2026-05-01T08:42:01.273Z</time></trkpt><trkpt lat="44.8700365" lon="7.9442184"><ele>309.5</ele><time>2026-05-01T08:42:02.272Z</time></trkpt><trkpt lat="44.869978" lon="7.9440621"><ele>309.75</ele><time>2026-05-01T08:42:03.273Z</time></trkpt><trkpt lat="44.869915" lon="7.9439081"><ele>310.0</ele><time>2026-05-01T08:42:04.272Z</time></trkpt><trkpt lat="44.8698665" lon="7.943772"><ele>310.0</ele><time>2026-05-01T08:42:05.272Z</time></trkpt><trkpt lat="44.8698122" lon="7.9436473"><ele>310.0</ele><time>2026-05-01T08:42:06.272Z</time></trkpt><trkpt lat="44.869766" lon="7.9435566"><ele>310.0</ele><time>2026-05-01T08:42:07.272Z</time></trkpt><trkpt lat="44.8696956" lon="7.9434459"><ele>310.0</ele><time>2026-05-01T08:42:09.272Z</time></trkpt><trkpt lat="44.8696016" lon="7.9434618"><ele>310.0</ele><time>2026-05-01T08:42:14.273Z</time></trkpt><trkpt lat="44.8694976" lon="7.9435845"><ele>310.0</ele><time>2026-05-01T08:42:16.272Z</time></trkpt><trkpt lat="44.8694493" lon="7.9436812"><ele>310.0</ele><time>2026-05-01T08:42:17.272Z</time></trkpt><trkpt lat="44.8694065" lon="7.9437737"><ele>310.0</ele><time>2026-05-01T08:42:18.272Z</time></trkpt><trkpt lat="44.8693554" lon="7.9438735"><ele>310.0</ele><time>2026-05-01T08:42:19.272Z</time></trkpt><trkpt lat="44.86929" lon="7.9439761"><ele>310.0</ele><time>2026-05-01T08:42:20.272Z</time></trkpt><trkpt lat="44.8692189" lon="7.9440651"><ele>310.0</ele><time>2026-05-01T08:42:21.272Z</time></trkpt><trkpt lat="44.8691248" lon="7.9441506"><ele>309.75</ele><time>2026-05-01T08:42:22.272Z</time></trkpt><trkpt lat="44.8690312" lon="7.9442386"><ele>309.5</ele><time>2026-05-01T08:42:23.272Z</time></trkpt><trkpt lat="44.8689268" lon="7.9443162"><ele>309.25</ele><time>2026-05-01T08:42:24.272Z</time></trkpt><trkpt lat="44.8688142" lon="7.9443789"><ele>309.0</ele><time>2026-05-01T08:42:25.272Z</time></trkpt><trkpt lat="44.8687039" lon="7.944433"><ele>309.0</ele><time>2026-05-01T08:42:26.273Z</time></trkpt><trkpt lat="44.8685804" lon="7.944491"><ele>309.0</ele><time>2026-05-01T08:42:27.272Z</time></trkpt><trkpt lat="44.8684582" lon="7.9445358"><ele>309.0</ele><time>2026-05-01T08:42:28.272Z</time></trkpt><trkpt lat="44.8683507" lon="7.9445728"><ele>309.0</ele><time>2026-05-01T08:42:29.272Z</time></trkpt><trkpt lat="44.8682398" lon="7.9446113"><ele>310.25</ele><time>2026-05-01T08:42:30.272Z</time></trkpt><trkpt lat="44.868134" lon="7.9446449"><ele>311.5</ele><time>2026-05-01T08:42:31.272Z</time></trkpt><trkpt lat="44.8680279" lon="7.9446642"><ele>312.75</ele><time>2026-05-01T08:42:32.272Z</time></trkpt><trkpt lat="44.8679152" lon="7.9446821"><ele>314.0</ele><time>2026-05-01T08:42:33.272Z</time></trkpt><trkpt lat="44.8677871" lon="7.9446891"><ele>314.0</ele><time>2026-05-01T08:42:34.272Z</time></trkpt><trkpt lat="44.8676668" lon="7.9447002"><ele>314.0</ele><time>2026-05-01T08:42:35.272Z</time></trkpt><trkpt lat="44.8675485" lon="7.9447088"><ele>314.0</ele><time>2026-05-01T08:42:36.272Z</time></trkpt><trkpt lat="44.867437" lon="7.9447185"><ele>314.0</ele><time>2026-05-01T08:42:37.272Z</time></trkpt><trkpt lat="44.8673369" lon="7.9447246"><ele>314.33333333333337</ele><time>2026-05-01T08:42:38.272Z</time></trkpt><trkpt lat="44.8672503" lon="7.9447265"><ele>314.6666666666667</ele><time>2026-05-01T08:42:39.273Z</time></trkpt><trkpt lat="44.8671699" lon="7.9447245"><ele>315.0</ele><time>2026-05-01T08:42:40.273Z</time></trkpt><trkpt lat="44.8670959" lon="7.9447385"><ele>315.3333333333333</ele><time>2026-05-01T08:42:41.272Z</time></trkpt><trkpt lat="44.867023" lon="7.9447493"><ele>315.66666666666663</ele><time>2026-05-01T08:42:42.273Z</time></trkpt><trkpt lat="44.8669423" lon="7.9447524"><ele>316.0</ele><time>2026-05-01T08:42:44.272Z</time></trkpt><trkpt lat="44.8668663" lon="7.9447207"><ele>316.0</ele><time>2026-05-01T08:42:46.272Z</time></trkpt><trkpt lat="44.8667778" lon="7.9445867"><ele>316.0</ele><time>2026-05-01T08:42:48.272Z</time></trkpt><trkpt lat="44.8667413" lon="7.9444763"><ele>316.0</ele><time>2026-05-01T08:42:49.272Z</time></trkpt><trkpt lat="44.8667175" lon="7.9443616"><ele>316.0</ele><time>2026-05-01T08:42:50.273Z</time></trkpt><trkpt lat="44.8666906" lon="7.9442455"><ele>316.0</ele><time>2026-05-01T08:42:51.272Z</time></trkpt><trkpt lat="44.8666625" lon="7.9441204"><ele>316.5</ele><time>2026-05-01T08:42:52.272Z</time></trkpt><trkpt lat="44.8666292" lon="7.9439978"><ele>317.0</ele><time>2026-05-01T08:42:53.272Z</time></trkpt><trkpt lat="44.8665911" lon="7.943881"><ele>317.5</ele><time>2026-05-01T08:42:54.272Z</time></trkpt><trkpt lat="44.8665553" lon="7.9437702"><ele>318.0</ele><time>2026-05-01T08:42:55.272Z</time></trkpt><trkpt lat="44.8665247" lon="7.9436705"><ele>318.5</ele><time>2026-05-01T08:42:56.272Z</time></trkpt><trkpt lat="44.8664884" lon="7.9435624"><ele>319.0</ele><time>2026-05-01T08:42:57.272Z</time></trkpt><trkpt lat="44.8664546" lon="7.9434394"><ele>318.8</ele><time>2026-05-01T08:42:58.272Z</time></trkpt><trkpt lat="44.8664124" lon="7.9433149"><ele>318.59999999999997</ele><time>2026-05-01T08:42:59.272Z</time></trkpt><trkpt lat="44.8663617" lon="7.9431856"><ele>318.4</ele><time>2026-05-01T08:43:00.272Z</time></trkpt><trkpt lat="44.8663282" lon="7.9430411"><ele>318.2</ele><time>2026-05-01T08:43:01.272Z</time></trkpt><trkpt lat="44.86629" lon="7.942889"><ele>318.0</ele><time>2026-05-01T08:43:02.272Z</time></trkpt><trkpt lat="44.8662683" lon="7.9427205"><ele>318.0</ele><time>2026-05-01T08:43:03.272Z</time></trkpt><trkpt lat="44.8662503" lon="7.9425488"><ele>318.0</ele><time>2026-05-01T08:43:04.272Z</time></trkpt><trkpt lat="44.8662347" lon="7.9423779"><ele>318.0</ele><time>2026-05-01T08:43:05.272Z</time></trkpt><trkpt lat="44.8662279" lon="7.9422044"><ele>318.0</ele><time>2026-05-01T08:43:06.272Z</time></trkpt><trkpt lat="44.8662138" lon="7.9420307"><ele>317.0</ele><time>2026-05-01T08:43:07.272Z</time></trkpt><trkpt lat="44.8661662" lon="7.9418631"><ele>316.0</ele><time>2026-05-01T08:43:08.272Z</time></trkpt><trkpt lat="44.8660955" lon="7.9416996"><ele>315.0</ele><time>2026-05-01T08:43:09.272Z</time></trkpt><trkpt lat="44.8660053" lon="7.9415516"><ele>314.0</ele><time>2026-05-01T08:43:10.272Z</time></trkpt><trkpt lat="44.8659037" lon="7.9414104"><ele>312.25</ele><time>2026-05-01T08:43:11.272Z</time></trkpt><trkpt lat="44.8658043" lon="7.9412754"><ele>310.5</ele><time>2026-05-01T08:43:12.272Z</time></trkpt><trkpt lat="44.8657039" lon="7.9411411"><ele>308.75</ele><time>2026-05-01T08:43:13.272Z</time></trkpt><trkpt lat="44.8656002" lon="7.9410116"><ele>307.0</ele><time>2026-05-01T08:43:14.272Z</time></trkpt><trkpt lat="44.8654875" lon="7.9408882"><ele>307.0</ele><time>2026-05-01T08:43:15.272Z</time></trkpt><trkpt lat="44.8653828" lon="7.9407482"><ele>307.0</ele><time>2026-05-01T08:43:16.272Z</time></trkpt><trkpt lat="44.8653017" lon="7.9405842"><ele>307.0</ele><time>2026-05-01T08:43:17.272Z</time></trkpt><trkpt lat="44.8652242" lon="7.9403941"><ele>307.0</ele><time>2026-05-01T08:43:18.272Z</time></trkpt><trkpt lat="44.8651695" lon="7.9401779"><ele>305.5</ele><time>2026-05-01T08:43:19.273Z</time></trkpt><trkpt lat="44.8651142" lon="7.9399657"><ele>304.0</ele><time>2026-05-01T08:43:20.272Z</time></trkpt><trkpt lat="44.8650478" lon="7.9397692"><ele>302.5</ele><time>2026-05-01T08:43:21.273Z</time></trkpt><trkpt lat="44.864973" lon="7.9396155"><ele>301.0</ele><time>2026-05-01T08:43:22.272Z</time></trkpt><trkpt lat="44.8648626" lon="7.9395112"><ele>300.75</ele><time>2026-05-01T08:43:23.272Z</time></trkpt><trkpt lat="44.8647347" lon="7.9394615"><ele>300.5</ele><time>2026-05-01T08:43:24.272Z</time></trkpt><trkpt lat="44.8645904" lon="7.9394549"><ele>300.25</ele><time>2026-05-01T08:43:25.273Z</time></trkpt><trkpt lat="44.8644325" lon="7.9394677"><ele>300.0</ele><time>2026-05-01T08:43:26.272Z</time></trkpt><trkpt lat="44.8642631" lon="7.9394766"><ele>300.0</ele><time>2026-05-01T08:43:27.272Z</time></trkpt><trkpt lat="44.8640943" lon="7.939471"><ele>300.0</ele><time>2026-05-01T08:43:28.273Z</time></trkpt><trkpt lat="44.8639231" lon="7.9394599"><ele>300.0</ele><time>2026-05-01T08:43:29.272Z</time></trkpt><trkpt lat="44.863764" lon="7.9394378"><ele>300.0</ele><time>2026-05-01T08:43:30.272Z</time></trkpt><trkpt lat="44.8636085" lon="7.9394"><ele>300.0</ele><time>2026-05-01T08:43:31.272Z</time></trkpt><trkpt lat="44.8634581" lon="7.9393576"><ele>300.0</ele><time>2026-05-01T08:43:32.272Z</time></trkpt><trkpt lat="44.8633196" lon="7.9393094"><ele>299.75</ele><time>2026-05-01T08:43:33.272Z</time></trkpt><trkpt lat="44.8631987" lon="7.9392175"><ele>299.5</ele><time>2026-05-01T08:43:34.272Z</time></trkpt><trkpt lat="44.8630908" lon="7.9390769"><ele>299.25</ele><time>2026-05-01T08:43:35.272Z</time></trkpt><trkpt lat="44.8629968" lon="7.9389037"><ele>299.0</ele><time>2026-05-01T08:43:36.272Z</time></trkpt><trkpt lat="44.8629194" lon="7.9387038"><ele>300.33333333333337</ele><time>2026-05-01T08:43:37.273Z</time></trkpt><trkpt lat="44.8628417" lon="7.9384629"><ele>301.6666666666667</ele><time>2026-05-01T08:43:38.272Z</time></trkpt><trkpt lat="44.8627701" lon="7.9382034"><ele>303.0</ele><time>2026-05-01T08:43:39.272Z</time></trkpt><trkpt lat="44.8626994" lon="7.9379419"><ele>301.3333333333333</ele><time>2026-05-01T08:43:40.273Z</time></trkpt><trkpt lat="44.8626466" lon="7.9376729"><ele>299.66666666666663</ele><time>2026-05-01T08:43:41.272Z</time></trkpt><trkpt lat="44.8625648" lon="7.937429"><ele>298.0</ele><time>2026-05-01T08:43:42.273Z</time></trkpt><trkpt lat="44.8624854" lon="7.9371939"><ele>298.0</ele><time>2026-05-01T08:43:43.272Z</time></trkpt><trkpt lat="44.8624071" lon="7.9369655"><ele>298.0</ele><time>2026-05-01T08:43:44.272Z</time></trkpt><trkpt lat="44.8623132" lon="7.9367367"><ele>298.0</ele><time>2026-05-01T08:43:45.272Z</time></trkpt><trkpt lat="44.8622169" lon="7.9365011"><ele>297.3333333333333</ele><time>2026-05-01T08:43:46.272Z</time></trkpt><trkpt lat="44.8621341" lon="7.9362639"><ele>296.6666666666667</ele><time>2026-05-01T08:43:47.272Z</time></trkpt><trkpt lat="44.8620475" lon="7.9360191"><ele>296.0</ele><time>2026-05-01T08:43:48.272Z</time></trkpt><trkpt lat="44.8619578" lon="7.9357819"><ele>296.0</ele><time>2026-05-01T08:43:49.273Z</time></trkpt><trkpt lat="44.8618589" lon="7.9355666"><ele>296.0</ele><time>2026-05-01T08:43:50.272Z</time></trkpt><trkpt lat="44.8617641" lon="7.9353611"><ele>296.0</ele><time>2026-05-01T08:43:51.272Z</time></trkpt><trkpt lat="44.8616756" lon="7.9351689"><ele>297.75</ele><time>2026-05-01T08:43:52.272Z</time></trkpt><trkpt lat="44.8616147" lon="7.9349803"><ele>299.5</ele><time>2026-05-01T08:43:53.272Z</time></trkpt><trkpt lat="44.8615573" lon="7.9347928"><ele>301.25</ele><time>2026-05-01T08:43:54.272Z</time></trkpt><trkpt lat="44.8615183" lon="7.9346207"><ele>303.0</ele><time>2026-05-01T08:43:55.272Z</time></trkpt><trkpt lat="44.8614692" lon="7.9344528"><ele>303.0</ele><time>2026-05-01T08:43:56.273Z</time></trkpt><trkpt lat="44.8613797" lon="7.934293"><ele>303.0</ele><time>2026-05-01T08:43:57.272Z</time></trkpt><trkpt lat="44.861272" lon="7.9341611"><ele>303.0</ele><time>2026-05-01T08:43:58.272Z</time></trkpt><trkpt lat="44.8611599" lon="7.9340566"><ele>303.0</ele><time>2026-05-01T08:43:59.272Z</time></trkpt><trkpt lat="44.8610545" lon="7.9339849"><ele>303.2</ele><time>2026-05-01T08:44:00.273Z</time></trkpt><trkpt lat="44.8609522" lon="7.9339776"><ele>303.4</ele><time>2026-05-01T08:44:01.272Z</time></trkpt><trkpt lat="44.8608528" lon="7.934031"><ele>303.59999999999997</ele><time>2026-05-01T08:44:02.272Z</time></trkpt><trkpt lat="44.8607682" lon="7.9341308"><ele>303.8</ele><time>2026-05-01T08:44:03.272Z</time></trkpt><trkpt lat="44.8607002" lon="7.934243"><ele>304.0</ele><time>2026-05-01T08:44:04.272Z</time></trkpt><trkpt lat="44.8606183" lon="7.9343534"><ele>304.0</ele><time>2026-05-01T08:44:05.272Z</time></trkpt><trkpt lat="44.8605354" lon="7.9344169"><ele>304.0</ele><time>2026-05-01T08:44:06.272Z</time></trkpt><trkpt lat="44.8604389" lon="7.9344193"><ele>304.0</ele><time>2026-05-01T08:44:07.272Z</time></trkpt><trkpt lat="44.8603374" lon="7.9343755"><ele>304.0</ele><time>2026-05-01T08:44:08.272Z</time></trkpt><trkpt lat="44.8602622" lon="7.9342749"><ele>304.0</ele><time>2026-05-01T08:44:09.272Z</time></trkpt><trkpt lat="44.8602138" lon="7.9340964"><ele>306.0</ele><time>2026-05-01T08:44:10.272Z</time></trkpt><trkpt lat="44.8601434" lon="7.933908"><ele>308.0</ele><time>2026-05-01T08:44:11.272Z</time></trkpt><trkpt lat="44.8600428" lon="7.9337671"><ele>310.0</ele><time>2026-05-01T08:44:12.272Z</time></trkpt><trkpt lat="44.8599379" lon="7.9336885"><ele>312.0</ele><time>2026-05-01T08:44:13.272Z</time></trkpt><trkpt lat="44.8598067" lon="7.9336557"><ele>313.25</ele><time>2026-05-01T08:44:14.272Z</time></trkpt><trkpt lat="44.8596655" lon="7.9336205"><ele>314.5</ele><time>2026-05-01T08:44:15.273Z</time></trkpt><trkpt lat="44.8595251" lon="7.9335778"><ele>315.75</ele><time>2026-05-01T08:44:16.272Z</time></trkpt><trkpt lat="44.8593833" lon="7.9335275"><ele>317.0</ele><time>2026-05-01T08:44:17.272Z</time></trkpt><trkpt lat="44.8592403" lon="7.933479"><ele>318.33333333333337</ele><time>2026-05-01T08:44:18.273Z</time></trkpt><trkpt lat="44.859092" lon="7.9334254"><ele>319.6666666666667</ele><time>2026-05-01T08:44:19.272Z</time></trkpt><trkpt lat="44.8589464" lon="7.9333706"><ele>321.0</ele><time>2026-05-01T08:44:20.272Z</time></trkpt><trkpt lat="44.8587989" lon="7.93332"><ele>321.25</ele><time>2026-05-01T08:44:21.272Z</time></trkpt><trkpt lat="44.85866" lon="7.9332488"><ele>321.5</ele><time>2026-05-01T08:44:22.272Z</time></trkpt><trkpt lat="44.8585358" lon="7.9331458"><ele>321.75</ele><time>2026-05-01T08:44:23.272Z</time></trkpt><trkpt lat="44.85843" lon="7.9330296"><ele>322.0</ele><time>2026-05-01T08:44:24.273Z</time></trkpt><trkpt lat="44.8583259" lon="7.9329067"><ele>322.0</ele><time>2026-05-01T08:44:25.272Z</time></trkpt><trkpt lat="44.8582025" lon="7.932799"><ele>322.0</ele><time>2026-05-01T08:44:26.272Z</time></trkpt><trkpt lat="44.8580603" lon="7.9327171"><ele>322.0</ele><time>2026-05-01T08:44:27.272Z</time></trkpt><trkpt lat="44.8578978" lon="7.9326338"><ele>322.0</ele><time>2026-05-01T08:44:28.272Z</time></trkpt><trkpt lat="44.8577219" lon="7.9325569"><ele>322.0</ele><time>2026-05-01T08:44:29.272Z</time></trkpt><trkpt lat="44.8575339" lon="7.9324843"><ele>322.0</ele><time>2026-05-01T08:44:30.272Z</time></trkpt><trkpt lat="44.8573518" lon="7.9324116"><ele>324.0</ele><time>2026-05-01T08:44:31.272Z</time></trkpt><trkpt lat="44.8571624" lon="7.932338"><ele>326.0</ele><time>2026-05-01T08:44:32.272Z</time></trkpt><trkpt lat="44.8569738" lon="7.9322661"><ele>328.0</ele><time>2026-05-01T08:44:33.272Z</time></trkpt><trkpt lat="44.8567897" lon="7.9322029"><ele>326.3333333333333</ele><time>2026-05-01T08:44:34.272Z</time></trkpt><trkpt lat="44.8566132" lon="7.9321478"><ele>324.6666666666667</ele><time>2026-05-01T08:44:35.273Z</time></trkpt><trkpt lat="44.8564395" lon="7.9320975"><ele>323.0</ele><time>2026-05-01T08:44:36.272Z</time></trkpt><trkpt lat="44.8562757" lon="7.9320283"><ele>323.0</ele><time>2026-05-01T08:44:37.272Z</time></trkpt><trkpt lat="44.8561245" lon="7.9319302"><ele>323.0</ele><time>2026-05-01T08:44:38.272Z</time></trkpt><trkpt lat="44.8559773" lon="7.931804"><ele>323.0</ele><time>2026-05-01T08:44:39.272Z</time></trkpt><trkpt lat="44.8558157" lon="7.9316583"><ele>325.33333333333337</ele><time>2026-05-01T08:44:40.272Z</time></trkpt><trkpt lat="44.8556504" lon="7.9315144"><ele>327.6666666666667</ele><time>2026-05-01T08:44:41.272Z</time></trkpt><trkpt lat="44.8554826" lon="7.931368"><ele>330.0</ele><time>2026-05-01T08:44:42.272Z</time></trkpt><trkpt lat="44.8553039" lon="7.931218"><ele>330.0</ele><time>2026-05-01T08:44:43.272Z</time></trkpt><trkpt lat="44.8551295" lon="7.9310649"><ele>330.0</ele><time>2026-05-01T08:44:44.272Z</time></trkpt><trkpt lat="44.8549621" lon="7.930914"><ele>330.0</ele><time>2026-05-01T08:44:45.272Z</time></trkpt><trkpt lat="44.8547947" lon="7.9307701"><ele>329.6666666666667</ele><time>2026-05-01T08:44:46.272Z</time></trkpt><trkpt lat="44.854637" lon="7.9306287"><ele>329.33333333333337</ele><time>2026-05-01T08:44:47.272Z</time></trkpt><trkpt lat="44.8544801" lon="7.9304929"><ele>329.0</ele><time>2026-05-01T08:44:48.272Z</time></trkpt><trkpt lat="44.8543228" lon="7.9303622"><ele>328.6666666666667</ele><time>2026-05-01T08:44:49.272Z</time></trkpt><trkpt lat="44.8541669" lon="7.9302352"><ele>328.3333333333333</ele><time>2026-05-01T08:44:50.272Z</time></trkpt><trkpt lat="44.8540069" lon="7.9301074"><ele>328.0</ele><time>2026-05-01T08:44:51.273Z</time></trkpt><trkpt lat="44.8538421" lon="7.9299744"><ele>328.3333333333333</ele><time>2026-05-01T08:44:52.272Z</time></trkpt><trkpt lat="44.853685" lon="7.9298425"><ele>328.6666666666667</ele><time>2026-05-01T08:44:53.272Z</time></trkpt><trkpt lat="44.853542" lon="7.9297257"><ele>329.0</ele><time>2026-05-01T08:44:54.272Z</time></trkpt><trkpt lat="44.8534147" lon="7.9295922"><ele>329.0</ele><time>2026-05-01T08:44:55.272Z</time></trkpt><trkpt lat="44.8533118" lon="7.9294382"><ele>329.0</ele><time>2026-05-01T08:44:56.272Z</time></trkpt><trkpt lat="44.8532359" lon="7.9292644"><ele>329.0</ele><time>2026-05-01T08:44:57.272Z</time></trkpt><trkpt lat="44.8531934" lon="7.9290831"><ele>329.0</ele><time>2026-05-01T08:44:58.273Z</time></trkpt><trkpt lat="44.8531812" lon="7.9288952"><ele>329.0</ele><time>2026-05-01T08:44:59.272Z</time></trkpt><trkpt lat="44.8531958" lon="7.928679"><ele>329.0</ele><time>2026-05-01T08:45:00.272Z</time></trkpt><trkpt lat="44.8532148" lon="7.9284588"><ele>329.0</ele><time>2026-05-01T08:45:01.273Z</time></trkpt><trkpt lat="44.8532262" lon="7.9282427"><ele>329.0</ele><time>2026-05-01T08:45:02.272Z</time></trkpt><trkpt lat="44.8532425" lon="7.92803"><ele>329.0</ele><time>2026-05-01T08:45:03.272Z</time></trkpt><trkpt lat="44.8532783" lon="7.9278256"><ele>329.0</ele><time>2026-05-01T08:45:04.272Z</time></trkpt><trkpt lat="44.8533503" lon="7.9276422"><ele>328.0</ele><time>2026-05-01T08:45:05.272Z</time></trkpt><trkpt lat="44.8534685" lon="7.9274849"><ele>327.0</ele><time>2026-05-01T08:45:06.272Z</time></trkpt><trkpt lat="44.853609" lon="7.9273654"><ele>326.0</ele><time>2026-05-01T08:45:07.272Z</time></trkpt><trkpt lat="44.8537304" lon="7.9272312"><ele>326.0</ele><time>2026-05-01T08:45:08.272Z</time></trkpt><trkpt lat="44.8538273" lon="7.9270769"><ele>326.0</ele><time>2026-05-01T08:45:09.272Z</time></trkpt><trkpt lat="44.8538904" lon="7.9268971"><ele>326.0</ele><time>2026-05-01T08:45:10.273Z</time></trkpt><trkpt lat="44.8539189" lon="7.926687"><ele>326.0</ele><time>2026-05-01T08:45:11.272Z</time></trkpt><trkpt lat="44.8539366" lon="7.926462"><ele>325.6666666666667</ele><time>2026-05-01T08:45:12.272Z</time></trkpt><trkpt lat="44.8539687" lon="7.9262243"><ele>325.3333333333333</ele><time>2026-05-01T08:45:13.272Z</time></trkpt><trkpt lat="44.8540403" lon="7.9260156"><ele>325.0</ele><time>2026-05-01T08:45:14.272Z</time></trkpt><trkpt lat="44.8541423" lon="7.9258193"><ele>324.66666666666663</ele><time>2026-05-01T08:45:15.272Z</time></trkpt><trkpt lat="44.8542575" lon="7.9256309"><ele>324.3333333333333</ele><time>2026-05-01T08:45:16.272Z</time></trkpt><trkpt lat="44.854389" lon="7.9254583"><ele>324.0</ele><time>2026-05-01T08:45:17.272Z</time></trkpt><trkpt lat="44.8545269" lon="7.9253038"><ele>324.0</ele><time>2026-05-01T08:45:18.273Z</time></trkpt><trkpt lat="44.8546796" lon="7.9251624"><ele>324.0</ele><time>2026-05-01T08:45:19.272Z</time></trkpt><trkpt lat="44.8548386" lon="7.9250436"><ele>324.0</ele><time>2026-05-01T08:45:20.273Z</time></trkpt><trkpt lat="44.8549758" lon="7.9249028"><ele>325.0</ele><time>2026-05-01T08:45:21.272Z</time></trkpt><trkpt lat="44.8551011" lon="7.9247396"><ele>326.0</ele><time>2026-05-01T08:45:22.272Z</time></trkpt><trkpt lat="44.855212" lon="7.9245305"><ele>327.0</ele><time>2026-05-01T08:45:23.272Z</time></trkpt><trkpt lat="44.8553072" lon="7.9242976"><ele>326.6666666666667</ele><time>2026-05-01T08:45:24.272Z</time></trkpt><trkpt lat="44.8554152" lon="7.924069"><ele>326.33333333333337</ele><time>2026-05-01T08:45:25.273Z</time></trkpt><trkpt lat="44.855531" lon="7.9238602"><ele>326.0</ele><time>2026-05-01T08:45:26.272Z</time></trkpt><trkpt lat="44.8556588" lon="7.923676"><ele>326.0</ele><time>2026-05-01T08:45:27.273Z</time></trkpt><trkpt lat="44.8557742" lon="7.9234962"><ele>326.0</ele><time>2026-05-01T08:45:28.272Z</time></trkpt><trkpt lat="44.8558794" lon="7.9233217"><ele>326.0</ele><time>2026-05-01T08:45:29.272Z</time></trkpt><trkpt lat="44.8559725" lon="7.9231466"><ele>325.5</ele><time>2026-05-01T08:45:30.272Z</time></trkpt><trkpt lat="44.8560432" lon="7.9229683"><ele>325.0</ele><time>2026-05-01T08:45:31.273Z</time></trkpt><trkpt lat="44.8560953" lon="7.9227839"><ele>324.5</ele><time>2026-05-01T08:45:32.272Z</time></trkpt><trkpt lat="44.8561208" lon="7.92258"><ele>324.0</ele><time>2026-05-01T08:45:33.272Z</time></trkpt><trkpt lat="44.8560996" lon="7.9223687"><ele>324.0</ele><time>2026-05-01T08:45:34.272Z</time></trkpt><trkpt lat="44.8560506" lon="7.9221362"><ele>324.0</ele><time>2026-05-01T08:45:35.273Z</time></trkpt><trkpt lat="44.8560016" lon="7.9218928"><ele>324.0</ele><time>2026-05-01T08:45:36.272Z</time></trkpt><trkpt lat="44.8559581" lon="7.9216459"><ele>325.0</ele><time>2026-05-01T08:45:37.273Z</time></trkpt><trkpt lat="44.8559175" lon="7.9213919"><ele>326.0</ele><time>2026-05-01T08:45:38.272Z</time></trkpt><trkpt lat="44.8558689" lon="7.9211334"><ele>327.0</ele><time>2026-05-01T08:45:39.272Z</time></trkpt><trkpt lat="44.8558302" lon="7.9208727"><ele>327.0</ele><time>2026-05-01T08:45:40.272Z</time></trkpt><trkpt lat="44.855788" lon="7.9206051"><ele>327.0</ele><time>2026-05-01T08:45:41.272Z</time></trkpt><trkpt lat="44.8557429" lon="7.9203398"><ele>327.0</ele><time>2026-05-01T08:45:42.272Z</time></trkpt><trkpt lat="44.8556965" lon="7.9200703"><ele>326.3333333333333</ele><time>2026-05-01T08:45:43.272Z</time></trkpt><trkpt lat="44.8556527" lon="7.9198063"><ele>325.66666666666663</ele><time>2026-05-01T08:45:44.272Z</time></trkpt><trkpt lat="44.8556142" lon="7.9195491"><ele>325.0</ele><time>2026-05-01T08:45:45.272Z</time></trkpt><trkpt lat="44.8555747" lon="7.9193039"><ele>323.66666666666663</ele><time>2026-05-01T08:45:46.272Z</time></trkpt><trkpt lat="44.8555472" lon="7.9190628"><ele>322.3333333333333</ele><time>2026-05-01T08:45:47.272Z</time></trkpt><trkpt lat="44.85555" lon="7.9188323"><ele>321.0</ele><time>2026-05-01T08:45:48.272Z</time></trkpt><trkpt lat="44.8555678" lon="7.9185999"><ele>321.6666666666667</ele><time>2026-05-01T08:45:49.272Z</time></trkpt><trkpt lat="44.8556094" lon="7.9183635"><ele>322.33333333333337</ele><time>2026-05-01T08:45:50.272Z</time></trkpt><trkpt lat="44.8556713" lon="7.9181266"><ele>323.0</ele><time>2026-05-01T08:45:51.272Z</time></trkpt><trkpt lat="44.8557443" lon="7.9178892"><ele>323.0</ele><time>2026-05-01T08:45:52.272Z</time></trkpt><trkpt lat="44.8558259" lon="7.9176422"><ele>323.0</ele><time>2026-05-01T08:45:53.273Z</time></trkpt><trkpt lat="44.8559222" lon="7.9173896"><ele>323.0</ele><time>2026-05-01T08:45:54.272Z</time></trkpt><trkpt lat="44.8560275" lon="7.9171609"><ele>321.0</ele><time>2026-05-01T08:45:55.272Z</time></trkpt><trkpt lat="44.8561518" lon="7.9169563"><ele>319.0</ele><time>2026-05-01T08:45:56.272Z</time></trkpt><trkpt lat="44.8562904" lon="7.9167599"><ele>317.0</ele><time>2026-05-01T08:45:57.272Z</time></trkpt><trkpt lat="44.8564368" lon="7.9165691"><ele>317.0</ele><time>2026-05-01T08:45:58.272Z</time></trkpt><trkpt lat="44.856583" lon="7.9163855"><ele>317.0</ele><time>2026-05-01T08:45:59.272Z</time></trkpt><trkpt lat="44.8567268" lon="7.9162102"><ele>317.0</ele><time>2026-05-01T08:46:00.272Z</time></trkpt><trkpt lat="44.8568636" lon="7.9160504"><ele>317.6666666666667</ele><time>2026-05-01T08:46:01.272Z</time></trkpt><trkpt lat="44.8569916" lon="7.9159052"><ele>318.3333333333333</ele><time>2026-05-01T08:46:02.272Z</time></trkpt><trkpt lat="44.8571277" lon="7.9157725"><ele>319.0</ele><time>2026-05-01T08:46:03.272Z</time></trkpt><trkpt lat="44.8572631" lon="7.9156555"><ele>319.0</ele><time>2026-05-01T08:46:04.272Z</time></trkpt><trkpt lat="44.8573873" lon="7.9155489"><ele>319.0</ele><time>2026-05-01T08:46:05.272Z</time></trkpt><trkpt lat="44.8574902" lon="7.9154409"><ele>319.0</ele><time>2026-05-01T08:46:06.272Z</time></trkpt><trkpt lat="44.8575695" lon="7.9153033"><ele>319.0</ele><time>2026-05-01T08:46:07.272Z</time></trkpt><trkpt lat="44.857629" lon="7.9151306"><ele>316.66666666666663</ele><time>2026-05-01T08:46:08.272Z</time></trkpt><trkpt lat="44.8576625" lon="7.9149274"><ele>314.3333333333333</ele><time>2026-05-01T08:46:09.272Z</time></trkpt><trkpt lat="44.8576811" lon="7.9146909"><ele>312.0</ele><time>2026-05-01T08:46:10.272Z</time></trkpt><trkpt lat="44.8576928" lon="7.9144334"><ele>313.3333333333333</ele><time>2026-05-01T08:46:11.272Z</time></trkpt><trkpt lat="44.8577158" lon="7.9141812"><ele>314.66666666666663</ele><time>2026-05-01T08:46:12.273Z</time></trkpt><trkpt lat="44.8577419" lon="7.9139335"><ele>316.0</ele><time>2026-05-01T08:46:13.272Z</time></trkpt><trkpt lat="44.8577657" lon="7.9136825"><ele>316.0</ele><time>2026-05-01T08:46:14.272Z</time></trkpt><trkpt lat="44.8577835" lon="7.9134289"><ele>316.0</ele><time>2026-05-01T08:46:15.272Z</time></trkpt><trkpt lat="44.857806" lon="7.9131812"><ele>316.0</ele><time>2026-05-01T08:46:16.273Z</time></trkpt><trkpt lat="44.857818" lon="7.9129369"><ele>316.0</ele><time>2026-05-01T08:46:17.272Z</time></trkpt><trkpt lat="44.8578357" lon="7.9126895"><ele>316.0</ele><time>2026-05-01T08:46:18.272Z</time></trkpt><trkpt lat="44.8578581" lon="7.9124432"><ele>316.0</ele><time>2026-05-01T08:46:19.272Z</time></trkpt><trkpt lat="44.8578814" lon="7.9121997"><ele>316.0</ele><time>2026-05-01T08:46:20.272Z</time></trkpt><trkpt lat="44.8579051" lon="7.9119579"><ele>316.0</ele><time>2026-05-01T08:46:21.273Z</time></trkpt><trkpt lat="44.8579279" lon="7.9117237"><ele>316.0</ele><time>2026-05-01T08:46:22.272Z</time></trkpt><trkpt lat="44.8579512" lon="7.9114936"><ele>315.3333333333333</ele><time>2026-05-01T08:46:23.272Z</time></trkpt><trkpt lat="44.8579697" lon="7.9112721"><ele>314.6666666666667</ele><time>2026-05-01T08:46:24.272Z</time></trkpt><trkpt lat="44.8579894" lon="7.9110633"><ele>314.0</ele><time>2026-05-01T08:46:25.273Z</time></trkpt><trkpt lat="44.8580036" lon="7.9108602"><ele>313.5</ele><time>2026-05-01T08:46:26.272Z</time></trkpt><trkpt lat="44.8580276" lon="7.9106641"><ele>313.0</ele><time>2026-05-01T08:46:27.272Z</time></trkpt><trkpt lat="44.8580562" lon="7.9104821"><ele>312.5</ele><time>2026-05-01T08:46:28.272Z</time></trkpt><trkpt lat="44.8581135" lon="7.9103112"><ele>312.0</ele><time>2026-05-01T08:46:29.272Z</time></trkpt><trkpt lat="44.8581933" lon="7.9101568"><ele>312.3333333333333</ele><time>2026-05-01T08:46:30.273Z</time></trkpt><trkpt lat="44.8582971" lon="7.9100154"><ele>312.66666666666663</ele><time>2026-05-01T08:46:31.272Z</time></trkpt><trkpt lat="44.8584174" lon="7.9098757"><ele>313.0</ele><time>2026-05-01T08:46:32.272Z</time></trkpt><trkpt lat="44.858541" lon="7.9097247"><ele>311.3333333333333</ele><time>2026-05-01T08:46:33.273Z</time></trkpt><trkpt lat="44.8586778" lon="7.9095693"><ele>309.6666666666667</ele><time>2026-05-01T08:46:34.272Z</time></trkpt><trkpt lat="44.8588152" lon="7.9094129"><ele>308.0</ele><time>2026-05-01T08:46:35.272Z</time></trkpt><trkpt lat="44.8589509" lon="7.909261"><ele>308.33333333333337</ele><time>2026-05-01T08:46:36.272Z</time></trkpt><trkpt lat="44.8590821" lon="7.9091098"><ele>308.6666666666667</ele><time>2026-05-01T08:46:37.273Z</time></trkpt><trkpt lat="44.8592102" lon="7.9089595"><ele>309.0</ele><time>2026-05-01T08:46:38.272Z</time></trkpt><trkpt lat="44.8593367" lon="7.9088092"><ele>309.0</ele><time>2026-05-01T08:46:39.272Z</time></trkpt><trkpt lat="44.8594587" lon="7.9086609"><ele>309.0</ele><time>2026-05-01T08:46:40.272Z</time></trkpt><trkpt lat="44.8595785" lon="7.9085175"><ele>309.0</ele><time>2026-05-01T08:46:41.272Z</time></trkpt><trkpt lat="44.8596932" lon="7.9083838"><ele>309.75</ele><time>2026-05-01T08:46:42.273Z</time></trkpt><trkpt lat="44.8598035" lon="7.9082573"><ele>310.5</ele><time>2026-05-01T08:46:43.272Z</time></trkpt><trkpt lat="44.8599057" lon="7.9081373"><ele>311.25</ele><time>2026-05-01T08:46:44.272Z</time></trkpt><trkpt lat="44.860007" lon="7.9080213"><ele>312.0</ele><time>2026-05-01T08:46:45.272Z</time></trkpt><trkpt lat="44.8600977" lon="7.9078942"><ele>311.5</ele><time>2026-05-01T08:46:46.273Z</time></trkpt><trkpt lat="44.8601625" lon="7.9077483"><ele>311.0</ele><time>2026-05-01T08:46:47.272Z</time></trkpt><trkpt lat="44.8601931" lon="7.9075735"><ele>310.5</ele><time>2026-05-01T08:46:48.272Z</time></trkpt><trkpt lat="44.8601945" lon="7.9073781"><ele>310.0</ele><time>2026-05-01T08:46:49.272Z</time></trkpt><trkpt lat="44.8601649" lon="7.9071693"><ele>310.0</ele><time>2026-05-01T08:46:50.272Z</time></trkpt><trkpt lat="44.8601016" lon="7.90696"><ele>310.0</ele><time>2026-05-01T08:46:51.273Z</time></trkpt><trkpt lat="44.8600197" lon="7.9067605"><ele>310.0</ele><time>2026-05-01T08:46:52.272Z</time></trkpt><trkpt lat="44.8599319" lon="7.906563"><ele>310.0</ele><time>2026-05-01T08:46:53.273Z</time></trkpt><trkpt lat="44.8598493" lon="7.9063707"><ele>310.0</ele><time>2026-05-01T08:46:54.273Z</time></trkpt><trkpt lat="44.8597798" lon="7.9061995"><ele>310.0</ele><time>2026-05-01T08:46:55.272Z</time></trkpt><trkpt lat="44.8597186" lon="7.906044"><ele>310.0</ele><time>2026-05-01T08:46:56.272Z</time></trkpt><trkpt lat="44.8596593" lon="7.9058928"><ele>308.8</ele><time>2026-05-01T08:46:57.272Z</time></trkpt><trkpt lat="44.8596065" lon="7.9057534"><ele>307.6</ele><time>2026-05-01T08:46:58.272Z</time></trkpt><trkpt lat="44.8595739" lon="7.9056197"><ele>306.4</ele><time>2026-05-01T08:46:59.272Z</time></trkpt><trkpt lat="44.8595675" lon="7.9054808"><ele>305.2</ele><time>2026-05-01T08:47:00.272Z</time></trkpt><trkpt lat="44.8595682" lon="7.9053442"><ele>304.0</ele><time>2026-05-01T08:47:01.272Z</time></trkpt><trkpt lat="44.8595754" lon="7.9052115"><ele>304.4</ele><time>2026-05-01T08:47:02.273Z</time></trkpt><trkpt lat="44.8595831" lon="7.9050682"><ele>304.79999999999995</ele><time>2026-05-01T08:47:03.272Z</time></trkpt><trkpt lat="44.8596125" lon="7.9049102"><ele>305.20000000000005</ele><time>2026-05-01T08:47:04.272Z</time></trkpt><trkpt lat="44.8596405" lon="7.9047699"><ele>305.6</ele><time>2026-05-01T08:47:05.272Z</time></trkpt><trkpt lat="44.8596728" lon="7.904636"><ele>306.0</ele><time>2026-05-01T08:47:06.272Z</time></trkpt><trkpt lat="44.8597038" lon="7.9044929"><ele>306.0</ele><time>2026-05-01T08:47:07.272Z</time></trkpt><trkpt lat="44.8597238" lon="7.9043533"><ele>306.0</ele><time>2026-05-01T08:47:08.273Z</time></trkpt><trkpt lat="44.859746" lon="7.9042099"><ele>306.0</ele><time>2026-05-01T08:47:09.272Z</time></trkpt><trkpt lat="44.8597741" lon="7.9040614"><ele>306.0</ele><time>2026-05-01T08:47:10.272Z</time></trkpt><trkpt lat="44.8597977" lon="7.9039107"><ele>306.0</ele><time>2026-05-01T08:47:11.272Z</time></trkpt><trkpt lat="44.8598164" lon="7.9037554"><ele>305.75</ele><time>2026-05-01T08:47:12.272Z</time></trkpt><trkpt lat="44.8598337" lon="7.9035945"><ele>305.5</ele><time>2026-05-01T08:47:13.272Z</time></trkpt><trkpt lat="44.8598582" lon="7.9034348"><ele>305.25</ele><time>2026-05-01T08:47:14.272Z</time></trkpt><trkpt lat="44.8598832" lon="7.9032647"><ele>305.0</ele><time>2026-05-01T08:47:15.272Z</time></trkpt><trkpt lat="44.8599089" lon="7.90309"><ele>305.0</ele><time>2026-05-01T08:47:16.272Z</time></trkpt><trkpt lat="44.8599335" lon="7.9029259"><ele>305.0</ele><time>2026-05-01T08:47:17.272Z</time></trkpt><trkpt lat="44.8599677" lon="7.9027675"><ele>305.0</ele><time>2026-05-01T08:47:18.272Z</time></trkpt><trkpt lat="44.8600189" lon="7.9026114"><ele>305.0</ele><time>2026-05-01T08:47:19.273Z</time></trkpt><trkpt lat="44.8600465" lon="7.9024707"><ele>305.4</ele><time>2026-05-01T08:47:20.272Z</time></trkpt><trkpt lat="44.8600767" lon="7.9023259"><ele>305.8</ele><time>2026-05-01T08:47:21.272Z</time></trkpt><trkpt lat="44.8601064" lon="7.902173"><ele>306.2</ele><time>2026-05-01T08:47:22.273Z</time></trkpt><trkpt lat="44.8601318" lon="7.9020195"><ele>306.6</ele><time>2026-05-01T08:47:23.272Z</time></trkpt><trkpt lat="44.860157" lon="7.9018668"><ele>307.0</ele><time>2026-05-01T08:47:24.272Z</time></trkpt><trkpt lat="44.860186" lon="7.901716"><ele>307.0</ele><time>2026-05-01T08:47:25.272Z</time></trkpt><trkpt lat="44.8602196" lon="7.9015829"><ele>307.0</ele><time>2026-05-01T08:47:26.272Z</time></trkpt><trkpt lat="44.8602522" lon="7.9014533"><ele>307.0</ele><time>2026-05-01T08:47:27.272Z</time></trkpt><trkpt lat="44.8602814" lon="7.9013182"><ele>307.0</ele><time>2026-05-01T08:47:28.272Z</time></trkpt><trkpt lat="44.8603212" lon="7.9011898"><ele>307.0</ele><time>2026-05-01T08:47:29.273Z</time></trkpt><trkpt lat="44.8603777" lon="7.9010754"><ele>307.0</ele><time>2026-05-01T08:47:30.272Z</time></trkpt><trkpt lat="44.8604439" lon="7.9009779"><ele>307.0</ele><time>2026-05-01T08:47:31.272Z</time></trkpt><trkpt lat="44.8605381" lon="7.9009024"><ele>307.0</ele><time>2026-05-01T08:47:32.272Z</time></trkpt><trkpt lat="44.8606407" lon="7.9008211"><ele>307.0</ele><time>2026-05-01T08:47:33.272Z</time></trkpt><trkpt lat="44.8607432" lon="7.9007138"><ele>307.0</ele><time>2026-05-01T08:47:34.272Z</time></trkpt><trkpt lat="44.8608297" lon="7.9005871"><ele>307.0</ele><time>2026-05-01T08:47:35.272Z</time></trkpt><trkpt lat="44.8609158" lon="7.9004655"><ele>307.0</ele><time>2026-05-01T08:47:36.272Z</time></trkpt><trkpt lat="44.860996" lon="7.9003478"><ele>307.0</ele><time>2026-05-01T08:47:37.273Z</time></trkpt><trkpt lat="44.8610745" lon="7.9002276"><ele>307.0</ele><time>2026-05-01T08:47:38.272Z</time></trkpt><trkpt lat="44.8611495" lon="7.9001042"><ele>305.75</ele><time>2026-05-01T08:47:39.272Z</time></trkpt><trkpt lat="44.8612234" lon="7.899979"><ele>304.5</ele><time>2026-05-01T08:47:40.273Z</time></trkpt><trkpt lat="44.8613066" lon="7.8998471"><ele>303.25</ele><time>2026-05-01T08:47:41.272Z</time></trkpt><trkpt lat="44.8613886" lon="7.8997194"><ele>302.0</ele><time>2026-05-01T08:47:42.272Z</time></trkpt><trkpt lat="44.861472" lon="7.8995915"><ele>302.0</ele><time>2026-05-01T08:47:43.273Z</time></trkpt><trkpt lat="44.8615479" lon="7.8994619"><ele>302.0</ele><time>2026-05-01T08:47:44.272Z</time></trkpt><trkpt lat="44.861624" lon="7.8993367"><ele>302.0</ele><time>2026-05-01T08:47:45.272Z</time></trkpt><trkpt lat="44.8617009" lon="7.899221"><ele>302.0</ele><time>2026-05-01T08:47:46.272Z</time></trkpt><trkpt lat="44.861789" lon="7.8991071"><ele>299.75</ele><time>2026-05-01T08:47:47.272Z</time></trkpt><trkpt lat="44.8618777" lon="7.8990125"><ele>297.5</ele><time>2026-05-01T08:47:48.272Z</time></trkpt><trkpt lat="44.8619839" lon="7.8989369"><ele>295.25</ele><time>2026-05-01T08:47:49.272Z</time></trkpt><trkpt lat="44.8621022" lon="7.8988675"><ele>293.0</ele><time>2026-05-01T08:47:50.272Z</time></trkpt><trkpt lat="44.8622258" lon="7.8987943"><ele>293.0</ele><time>2026-05-01T08:47:51.272Z</time></trkpt><trkpt lat="44.8623505" lon="7.8987286"><ele>293.0</ele><time>2026-05-01T08:47:52.272Z</time></trkpt><trkpt lat="44.8624656" lon="7.8986635"><ele>293.0</ele><time>2026-05-01T08:47:53.272Z</time></trkpt><trkpt lat="44.8625702" lon="7.89861"><ele>293.0</ele><time>2026-05-01T08:47:54.273Z</time></trkpt><trkpt lat="44.8626792" lon="7.8985575"><ele>292.0</ele><time>2026-05-01T08:47:55.272Z</time></trkpt><trkpt lat="44.8627608" lon="7.8984888"><ele>291.0</ele><time>2026-05-01T08:47:56.272Z</time></trkpt><trkpt lat="44.8628215" lon="7.8984077"><ele>290.0</ele><time>2026-05-01T08:47:57.272Z</time></trkpt><trkpt lat="44.8628644" lon="7.8983167"><ele>289.0</ele><time>2026-05-01T08:47:58.273Z</time></trkpt><trkpt lat="44.8628862" lon="7.8982073"><ele>288.0</ele><time>2026-05-01T08:47:59.272Z</time></trkpt><trkpt lat="44.8628979" lon="7.8980785"><ele>287.0</ele><time>2026-05-01T08:48:00.272Z</time></trkpt><trkpt lat="44.8629045" lon="7.8979348"><ele>287.0</ele><time>2026-05-01T08:48:01.272Z</time></trkpt><trkpt lat="44.8628985" lon="7.8977733"><ele>287.0</ele><time>2026-05-01T08:48:02.272Z</time></trkpt><trkpt lat="44.8628897" lon="7.8976178"><ele>287.0</ele><time>2026-05-01T08:48:03.273Z</time></trkpt><trkpt lat="44.8628883" lon="7.8974779"><ele>287.0</ele><time>2026-05-01T08:48:04.272Z</time></trkpt><trkpt lat="44.8628806" lon="7.8973574"><ele>287.0</ele><time>2026-05-01T08:48:05.272Z</time></trkpt><trkpt lat="44.862882" lon="7.8972486"><ele>284.6</ele><time>2026-05-01T08:48:06.272Z</time></trkpt><trkpt lat="44.8628473" lon="7.8971736"><ele>282.2</ele><time>2026-05-01T08:48:07.272Z</time></trkpt><trkpt lat="44.8628781" lon="7.8970281"><ele>279.8</ele><time>2026-05-01T08:48:09.272Z</time></trkpt><trkpt lat="44.8629028" lon="7.896913"><ele>277.4</ele><time>2026-05-01T08:48:11.272Z</time></trkpt><trkpt lat="44.8628829" lon="7.8967986"><ele>275.0</ele><time>2026-05-01T08:48:13.272Z</time></trkpt><trkpt lat="44.8627701" lon="7.896722"><ele>274.1666666666667</ele><time>2026-05-01T08:48:15.272Z</time></trkpt><trkpt lat="44.8626894" lon="7.8967004"><ele>273.33333333333337</ele><time>2026-05-01T08:48:16.272Z</time></trkpt><trkpt lat="44.8625995" lon="7.8966842"><ele>272.5</ele><time>2026-05-01T08:48:17.273Z</time></trkpt><trkpt lat="44.8625069" lon="7.8966648"><ele>271.6666666666667</ele><time>2026-05-01T08:48:18.272Z</time></trkpt><trkpt lat="44.862419" lon="7.8966311"><ele>270.8333333333333</ele><time>2026-05-01T08:48:19.272Z</time></trkpt><trkpt lat="44.8623505" lon="7.8965759"><ele>270.0</ele><time>2026-05-01T08:48:20.272Z</time></trkpt><trkpt lat="44.8622978" lon="7.8964986"><ele>270.0</ele><time>2026-05-01T08:48:21.272Z</time></trkpt><trkpt lat="44.8622599" lon="7.8964091"><ele>270.0</ele><time>2026-05-01T08:48:22.272Z</time></trkpt><trkpt lat="44.8622283" lon="7.8963154"><ele>270.0</ele><time>2026-05-01T08:48:23.272Z</time></trkpt><trkpt lat="44.8621928" lon="7.8962336"><ele>270.0</ele><time>2026-05-01T08:48:24.272Z</time></trkpt><trkpt lat="44.8621507" lon="7.8960768"><ele>270.0</ele><time>2026-05-01T08:48:26.272Z</time></trkpt><trkpt lat="44.8621608" lon="7.8959009"><ele>269.0</ele><time>2026-05-01T08:48:28.272Z</time></trkpt><trkpt lat="44.8621384" lon="7.8957993"><ele>268.0</ele><time>2026-05-01T08:48:29.272Z</time></trkpt><trkpt lat="44.8620871" lon="7.8957025"><ele>267.0</ele><time>2026-05-01T08:48:30.272Z</time></trkpt><trkpt lat="44.8620145" lon="7.8956132"><ele>266.0</ele><time>2026-05-01T08:48:31.273Z</time></trkpt><trkpt lat="44.8619411" lon="7.8955131"><ele>265.0</ele><time>2026-05-01T08:48:32.272Z</time></trkpt><trkpt lat="44.8618666" lon="7.8954078"><ele>265.0</ele><time>2026-05-01T08:48:33.272Z</time></trkpt><trkpt lat="44.8617949" lon="7.8952802"><ele>265.0</ele><time>2026-05-01T08:48:34.272Z</time></trkpt><trkpt lat="44.8617253" lon="7.8951264"><ele>265.0</ele><time>2026-05-01T08:48:35.272Z</time></trkpt><trkpt lat="44.861652" lon="7.894964"><ele>265.0</ele><time>2026-05-01T08:48:36.272Z</time></trkpt><trkpt lat="44.8615709" lon="7.8948008"><ele>264.5</ele><time>2026-05-01T08:48:37.272Z</time></trkpt><trkpt lat="44.8614872" lon="7.8946256"><ele>264.0</ele><time>2026-05-01T08:48:38.272Z</time></trkpt><trkpt lat="44.861408" lon="7.8944595"><ele>263.5</ele><time>2026-05-01T08:48:39.272Z</time></trkpt><trkpt lat="44.8613278" lon="7.8942852"><ele>263.0</ele><time>2026-05-01T08:48:40.272Z</time></trkpt><trkpt lat="44.8612444" lon="7.8941002"><ele>262.33333333333337</ele><time>2026-05-01T08:48:41.272Z</time></trkpt><trkpt lat="44.8611569" lon="7.89391"><ele>261.6666666666667</ele><time>2026-05-01T08:48:42.272Z</time></trkpt><trkpt lat="44.861067" lon="7.8937236"><ele>261.0</ele><time>2026-05-01T08:48:43.272Z</time></trkpt><trkpt lat="44.8609772" lon="7.8935307"><ele>262.3333333333333</ele><time>2026-05-01T08:48:44.272Z</time></trkpt><trkpt lat="44.8608851" lon="7.8933326"><ele>263.66666666666663</ele><time>2026-05-01T08:48:45.272Z</time></trkpt><trkpt lat="44.8608096" lon="7.8931308"><ele>265.0</ele><time>2026-05-01T08:48:46.272Z</time></trkpt><trkpt lat="44.860747" lon="7.8929301"><ele>265.0</ele><time>2026-05-01T08:48:47.273Z</time></trkpt><trkpt lat="44.8606922" lon="7.892731"><ele>265.0</ele><time>2026-05-01T08:48:48.272Z</time></trkpt><trkpt lat="44.860645" lon="7.8925278"><ele>265.0</ele><time>2026-05-01T08:48:49.273Z</time></trkpt><trkpt lat="44.8606035" lon="7.8923319"><ele>265.0</ele><time>2026-05-01T08:48:50.272Z</time></trkpt><trkpt lat="44.8605678" lon="7.8921353"><ele>265.5</ele><time>2026-05-01T08:48:51.272Z</time></trkpt><trkpt lat="44.8605333" lon="7.8919535"><ele>266.0</ele><time>2026-05-01T08:48:52.273Z</time></trkpt><trkpt lat="44.8604912" lon="7.8917674"><ele>266.5</ele><time>2026-05-01T08:48:53.272Z</time></trkpt><trkpt lat="44.8604447" lon="7.8915772"><ele>267.0</ele><time>2026-05-01T08:48:54.272Z</time></trkpt><trkpt lat="44.8603949" lon="7.891366"><ele>267.0</ele><time>2026-05-01T08:48:55.272Z</time></trkpt><trkpt lat="44.8603437" lon="7.8911464"><ele>267.0</ele><time>2026-05-01T08:48:56.272Z</time></trkpt><trkpt lat="44.8602825" lon="7.8909069"><ele>267.0</ele><time>2026-05-01T08:48:57.272Z</time></trkpt><trkpt lat="44.8602155" lon="7.8906672"><ele>267.3333333333333</ele><time>2026-05-01T08:48:58.272Z</time></trkpt><trkpt lat="44.8601561" lon="7.8904208"><ele>267.66666666666663</ele><time>2026-05-01T08:48:59.272Z</time></trkpt><trkpt lat="44.8601043" lon="7.8901756"><ele>268.0</ele><time>2026-05-01T08:49:00.272Z</time></trkpt><trkpt lat="44.8600579" lon="7.8899437"><ele>268.66666666666663</ele><time>2026-05-01T08:49:01.272Z</time></trkpt><trkpt lat="44.8600099" lon="7.8897067"><ele>269.3333333333333</ele><time>2026-05-01T08:49:02.272Z</time></trkpt><trkpt lat="44.8599555" lon="7.8894667"><ele>270.0</ele><time>2026-05-01T08:49:03.272Z</time></trkpt><trkpt lat="44.8599014" lon="7.889221"><ele>270.0</ele><time>2026-05-01T08:49:04.272Z</time></trkpt><trkpt lat="44.8598473" lon="7.8889727"><ele>270.0</ele><time>2026-05-01T08:49:05.272Z</time></trkpt><trkpt lat="44.8597951" lon="7.8887123"><ele>270.0</ele><time>2026-05-01T08:49:06.273Z</time></trkpt><trkpt lat="44.8597365" lon="7.8884475"><ele>269.6666666666667</ele><time>2026-05-01T08:49:07.272Z</time></trkpt><trkpt lat="44.8596677" lon="7.8881703"><ele>269.33333333333337</ele><time>2026-05-01T08:49:08.272Z</time></trkpt><trkpt lat="44.8595907" lon="7.8878532"><ele>269.0</ele><time>2026-05-01T08:49:09.272Z</time></trkpt><trkpt lat="44.8595086" lon="7.8875079"><ele>267.0</ele><time>2026-05-01T08:49:10.272Z</time></trkpt><trkpt lat="44.8594137" lon="7.8871492"><ele>265.0</ele><time>2026-05-01T08:49:11.272Z</time></trkpt><trkpt lat="44.8593145" lon="7.8867828"><ele>265.5</ele><time>2026-05-01T08:49:12.272Z</time></trkpt><trkpt lat="44.8592202" lon="7.886426"><ele>266.0</ele><time>2026-05-01T08:49:13.272Z</time></trkpt><trkpt lat="44.8591277" lon="7.8860742"><ele>267.5</ele><time>2026-05-01T08:49:14.273Z</time></trkpt><trkpt lat="44.8590498" lon="7.8857163"><ele>269.0</ele><time>2026-05-01T08:49:15.272Z</time></trkpt><trkpt lat="44.8589857" lon="7.8853607"><ele>268.0</ele><time>2026-05-01T08:49:16.272Z</time></trkpt><trkpt lat="44.8589218" lon="7.8850137"><ele>267.0</ele><time>2026-05-01T08:49:17.272Z</time></trkpt><trkpt lat="44.8588545" lon="7.8846742"><ele>267.0</ele><time>2026-05-01T08:49:18.272Z</time></trkpt><trkpt lat="44.8587797" lon="7.8843503"><ele>267.0</ele><time>2026-05-01T08:49:19.272Z</time></trkpt><trkpt lat="44.8587031" lon="7.8840388"><ele>267.0</ele><time>2026-05-01T08:49:20.272Z</time></trkpt><trkpt lat="44.8586303" lon="7.8837426"><ele>267.0</ele><time>2026-05-01T08:49:21.273Z</time></trkpt><trkpt lat="44.8585644" lon="7.8834505"><ele>267.0</ele><time>2026-05-01T08:49:22.272Z</time></trkpt><trkpt lat="44.8585005" lon="7.8831605"><ele>267.0</ele><time>2026-05-01T08:49:23.272Z</time></trkpt><trkpt lat="44.8584371" lon="7.8828735"><ele>267.0</ele><time>2026-05-01T08:49:24.272Z</time></trkpt><trkpt lat="44.8583766" lon="7.8825884"><ele>267.0</ele><time>2026-05-01T08:49:25.272Z</time></trkpt><trkpt lat="44.8583082" lon="7.8823065"><ele>267.0</ele><time>2026-05-01T08:49:26.272Z</time></trkpt><trkpt lat="44.8582385" lon="7.8820277"><ele>267.0</ele><time>2026-05-01T08:49:27.272Z</time></trkpt><trkpt lat="44.8581671" lon="7.8817464"><ele>267.0</ele><time>2026-05-01T08:49:28.272Z</time></trkpt><trkpt lat="44.8581022" lon="7.8814582"><ele>267.0</ele><time>2026-05-01T08:49:29.272Z</time></trkpt><trkpt lat="44.8580569" lon="7.881153"><ele>267.0</ele><time>2026-05-01T08:49:30.272Z</time></trkpt><trkpt lat="44.8580275" lon="7.8808404"><ele>267.0</ele><time>2026-05-01T08:49:31.273Z</time></trkpt><trkpt lat="44.8579959" lon="7.8805217"><ele>266.5</ele><time>2026-05-01T08:49:32.272Z</time></trkpt><trkpt lat="44.8579767" lon="7.8802002"><ele>266.0</ele><time>2026-05-01T08:49:33.272Z</time></trkpt><trkpt lat="44.8579671" lon="7.8798736"><ele>265.5</ele><time>2026-05-01T08:49:34.273Z</time></trkpt><trkpt lat="44.857964" lon="7.8795448"><ele>265.0</ele><time>2026-05-01T08:49:35.272Z</time></trkpt><trkpt lat="44.8579754" lon="7.8792099"><ele>266.0</ele><time>2026-05-01T08:49:36.273Z</time></trkpt><trkpt lat="44.857994" lon="7.8788711"><ele>267.0</ele><time>2026-05-01T08:49:37.273Z</time></trkpt><trkpt lat="44.8580102" lon="7.8785341"><ele>267.0</ele><time>2026-05-01T08:49:38.272Z</time></trkpt><trkpt lat="44.858024" lon="7.8782044"><ele>267.0</ele><time>2026-05-01T08:49:39.272Z</time></trkpt><trkpt lat="44.8580283" lon="7.8778833"><ele>266.5</ele><time>2026-05-01T08:49:40.272Z</time></trkpt><trkpt lat="44.8580289" lon="7.8775604"><ele>266.0</ele><time>2026-05-01T08:49:41.272Z</time></trkpt><trkpt lat="44.8580319" lon="7.8772404"><ele>266.0</ele><time>2026-05-01T08:49:42.273Z</time></trkpt><trkpt lat="44.8580358" lon="7.8769164"><ele>266.0</ele><time>2026-05-01T08:49:43.272Z</time></trkpt><trkpt lat="44.8580434" lon="7.8765929"><ele>267.5</ele><time>2026-05-01T08:49:44.272Z</time></trkpt><trkpt lat="44.8580517" lon="7.8762684"><ele>269.0</ele><time>2026-05-01T08:49:45.272Z</time></trkpt><trkpt lat="44.8580669" lon="7.8759508"><ele>270.5</ele><time>2026-05-01T08:49:46.272Z</time></trkpt><trkpt lat="44.8580695" lon="7.8756227"><ele>272.0</ele><time>2026-05-01T08:49:47.273Z</time></trkpt><trkpt lat="44.8580478" lon="7.8753053"><ele>273.5</ele><time>2026-05-01T08:49:48.272Z</time></trkpt><trkpt lat="44.8580173" lon="7.8749947"><ele>275.0</ele><time>2026-05-01T08:49:49.272Z</time></trkpt><trkpt lat="44.8579728" lon="7.8746794"><ele>275.0</ele><time>2026-05-01T08:49:50.272Z</time></trkpt><trkpt lat="44.8579108" lon="7.8743794"><ele>275.0</ele><time>2026-05-01T08:49:51.272Z</time></trkpt><trkpt lat="44.8578359" lon="7.8740834"><ele>275.0</ele><time>2026-05-01T08:49:52.272Z</time></trkpt><trkpt lat="44.8577471" lon="7.873786"><ele>274.6666666666667</ele><time>2026-05-01T08:49:53.272Z</time></trkpt><trkpt lat="44.8576562" lon="7.8734959"><ele>274.3333333333333</ele><time>2026-05-01T08:49:54.272Z</time></trkpt><trkpt lat="44.8575746" lon="7.8732049"><ele>274.0</ele><time>2026-05-01T08:49:55.272Z</time></trkpt><trkpt lat="44.8574917" lon="7.8729136"><ele>274.66666666666663</ele><time>2026-05-01T08:49:56.272Z</time></trkpt><trkpt lat="44.8574126" lon="7.8726234"><ele>275.3333333333333</ele><time>2026-05-01T08:49:57.273Z</time></trkpt><trkpt lat="44.8573361" lon="7.8723272"><ele>276.0</ele><time>2026-05-01T08:49:58.273Z</time></trkpt><trkpt lat="44.8572545" lon="7.8720264"><ele>277.5</ele><time>2026-05-01T08:49:59.272Z</time></trkpt><trkpt lat="44.8571685" lon="7.8717271"><ele>279.0</ele><time>2026-05-01T08:50:00.272Z</time></trkpt><trkpt lat="44.8570837" lon="7.8714274"><ele>279.0</ele><time>2026-05-01T08:50:01.272Z</time></trkpt><trkpt lat="44.8570013" lon="7.8711197"><ele>279.0</ele><time>2026-05-01T08:50:02.273Z</time></trkpt><trkpt lat="44.8569139" lon="7.870817"><ele>279.5</ele><time>2026-05-01T08:50:03.272Z</time></trkpt><trkpt lat="44.8568257" lon="7.8705108"><ele>280.0</ele><time>2026-05-01T08:50:04.272Z</time></trkpt><trkpt lat="44.8567386" lon="7.8701981"><ele>280.5</ele><time>2026-05-01T08:50:05.273Z</time></trkpt><trkpt lat="44.8566504" lon="7.8698788"><ele>281.0</ele><time>2026-05-01T08:50:06.272Z</time></trkpt><trkpt lat="44.8565586" lon="7.8695605"><ele>281.0</ele><time>2026-05-01T08:50:07.272Z</time></trkpt><trkpt lat="44.8564689" lon="7.8692476"><ele>281.0</ele><time>2026-05-01T08:50:08.272Z</time></trkpt><trkpt lat="44.8563912" lon="7.8689324"><ele>281.0</ele><time>2026-05-01T08:50:09.272Z</time></trkpt><trkpt lat="44.8563066" lon="7.8686213"><ele>281.0</ele><time>2026-05-01T08:50:10.272Z</time></trkpt><trkpt lat="44.8562244" lon="7.8683111"><ele>280.0</ele><time>2026-05-01T08:50:11.272Z</time></trkpt><trkpt lat="44.8561413" lon="7.8679967"><ele>279.0</ele><time>2026-05-01T08:50:12.272Z</time></trkpt><trkpt lat="44.8560574" lon="7.8676923"><ele>279.0</ele><time>2026-05-01T08:50:13.272Z</time></trkpt><trkpt lat="44.8559698" lon="7.8673916"><ele>279.0</ele><time>2026-05-01T08:50:14.272Z</time></trkpt><trkpt lat="44.8558904" lon="7.8670929"><ele>279.6666666666667</ele><time>2026-05-01T08:50:15.272Z</time></trkpt><trkpt lat="44.8558136" lon="7.866797"><ele>280.33333333333337</ele><time>2026-05-01T08:50:16.272Z</time></trkpt><trkpt lat="44.8557317" lon="7.8665143"><ele>281.0</ele><time>2026-05-01T08:50:17.272Z</time></trkpt><trkpt lat="44.8556406" lon="7.866245"><ele>281.0</ele><time>2026-05-01T08:50:18.272Z</time></trkpt><trkpt lat="44.8555353" lon="7.8659815"><ele>281.0</ele><time>2026-05-01T08:50:19.272Z</time></trkpt><trkpt lat="44.8554275" lon="7.8657239"><ele>281.0</ele><time>2026-05-01T08:50:20.272Z</time></trkpt><trkpt lat="44.8553138" lon="7.8654748"><ele>281.6666666666667</ele><time>2026-05-01T08:50:21.272Z</time></trkpt><trkpt lat="44.8551896" lon="7.8652384"><ele>282.3333333333333</ele><time>2026-05-01T08:50:22.272Z</time></trkpt><trkpt lat="44.8550605" lon="7.865003"><ele>283.0</ele><time>2026-05-01T08:50:23.272Z</time></trkpt><trkpt lat="44.8549252" lon="7.8647713"><ele>284.0</ele><time>2026-05-01T08:50:24.272Z</time></trkpt><trkpt lat="44.8547843" lon="7.8645448"><ele>285.0</ele><time>2026-05-01T08:50:25.272Z</time></trkpt><trkpt lat="44.8546457" lon="7.8643199"><ele>286.0</ele><time>2026-05-01T08:50:26.272Z</time></trkpt><trkpt lat="44.8545193" lon="7.8641101"><ele>286.0</ele><time>2026-05-01T08:50:27.272Z</time></trkpt><trkpt lat="44.8543981" lon="7.8638938"><ele>286.0</ele><time>2026-05-01T08:50:28.272Z</time></trkpt><trkpt lat="44.8542794" lon="7.8636816"><ele>286.0</ele><time>2026-05-01T08:50:29.272Z</time></trkpt><trkpt lat="44.8541725" lon="7.8634679"><ele>284.66666666666663</ele><time>2026-05-01T08:50:30.272Z</time></trkpt><trkpt lat="44.8540853" lon="7.8632435"><ele>283.3333333333333</ele><time>2026-05-01T08:50:31.272Z</time></trkpt><trkpt lat="44.8540042" lon="7.8629996"><ele>282.0</ele><time>2026-05-01T08:50:32.272Z</time></trkpt><trkpt lat="44.853948" lon="7.8627303"><ele>281.0</ele><time>2026-05-01T08:50:33.273Z</time></trkpt><trkpt lat="44.853904" lon="7.8624402"><ele>280.0</ele><time>2026-05-01T08:50:34.272Z</time></trkpt><trkpt lat="44.8538664" lon="7.86213"><ele>279.0</ele><time>2026-05-01T08:50:35.272Z</time></trkpt><trkpt lat="44.8538311" lon="7.8618043"><ele>277.5</ele><time>2026-05-01T08:50:36.272Z</time></trkpt><trkpt lat="44.8537931" lon="7.8614738"><ele>276.0</ele><time>2026-05-01T08:50:37.272Z</time></trkpt><trkpt lat="44.8537464" lon="7.8611591"><ele>276.0</ele><time>2026-05-01T08:50:38.272Z</time></trkpt><trkpt lat="44.8537054" lon="7.8608445"><ele>276.0</ele><time>2026-05-01T08:50:39.272Z</time></trkpt><trkpt lat="44.8536512" lon="7.8605281"><ele>276.0</ele><time>2026-05-01T08:50:40.272Z</time></trkpt><trkpt lat="44.8535949" lon="7.8602127"><ele>276.0</ele><time>2026-05-01T08:50:41.272Z</time></trkpt><trkpt lat="44.8535565" lon="7.8598892"><ele>276.0</ele><time>2026-05-01T08:50:42.272Z</time></trkpt><trkpt lat="44.8535168" lon="7.8595747"><ele>276.0</ele><time>2026-05-01T08:50:43.273Z</time></trkpt><trkpt lat="44.853472" lon="7.8592627"><ele>277.0</ele><time>2026-05-01T08:50:44.272Z</time></trkpt><trkpt lat="44.8534241" lon="7.858951"><ele>278.0</ele><time>2026-05-01T08:50:45.272Z</time></trkpt><trkpt lat="44.8533837" lon="7.8586355"><ele>279.0</ele><time>2026-05-01T08:50:46.272Z</time></trkpt><trkpt lat="44.8533409" lon="7.8583274"><ele>280.0</ele><time>2026-05-01T08:50:47.272Z</time></trkpt><trkpt lat="44.8532906" lon="7.8580164"><ele>281.0</ele><time>2026-05-01T08:50:48.272Z</time></trkpt><trkpt lat="44.8532462" lon="7.8577066"><ele>282.0</ele><time>2026-05-01T08:50:49.272Z</time></trkpt><trkpt lat="44.8532027" lon="7.8573912"><ele>283.0</ele><time>2026-05-01T08:50:50.272Z</time></trkpt><trkpt lat="44.8531636" lon="7.8570804"><ele>282.3333333333333</ele><time>2026-05-01T08:50:51.272Z</time></trkpt><trkpt lat="44.8531168" lon="7.8567731"><ele>281.6666666666667</ele><time>2026-05-01T08:50:52.272Z</time></trkpt><trkpt lat="44.8530742" lon="7.8564633"><ele>281.0</ele><time>2026-05-01T08:50:53.272Z</time></trkpt><trkpt lat="44.8530268" lon="7.8561529"><ele>281.5</ele><time>2026-05-01T08:50:54.272Z</time></trkpt><trkpt lat="44.8529799" lon="7.855834"><ele>282.0</ele><time>2026-05-01T08:50:55.272Z</time></trkpt><trkpt lat="44.8529317" lon="7.8555166"><ele>282.0</ele><time>2026-05-01T08:50:56.272Z</time></trkpt><trkpt lat="44.8528847" lon="7.8551963"><ele>282.0</ele><time>2026-05-01T08:50:57.272Z</time></trkpt><trkpt lat="44.8528392" lon="7.854864"><ele>281.0</ele><time>2026-05-01T08:50:58.272Z</time></trkpt><trkpt lat="44.8527841" lon="7.8545213"><ele>280.0</ele><time>2026-05-01T08:50:59.272Z</time></trkpt><trkpt lat="44.8527418" lon="7.854185"><ele>279.5</ele><time>2026-05-01T08:51:00.272Z</time></trkpt><trkpt lat="44.8526972" lon="7.8538499"><ele>279.0</ele><time>2026-05-01T08:51:01.273Z</time></trkpt><trkpt lat="44.8526551" lon="7.8535191"><ele>280.0</ele><time>2026-05-01T08:51:02.272Z</time></trkpt><trkpt lat="44.8526049" lon="7.853182"><ele>281.0</ele><time>2026-05-01T08:51:03.272Z</time></trkpt><trkpt lat="44.8525528" lon="7.8528366"><ele>280.5</ele><time>2026-05-01T08:51:04.272Z</time></trkpt><trkpt lat="44.8525122" lon="7.8524928"><ele>280.0</ele><time>2026-05-01T08:51:05.272Z</time></trkpt><trkpt lat="44.8524693" lon="7.8521561"><ele>280.0</ele><time>2026-05-01T08:51:06.272Z</time></trkpt><trkpt lat="44.8524225" lon="7.8518111"><ele>280.0</ele><time>2026-05-01T08:51:07.272Z</time></trkpt><trkpt lat="44.8523744" lon="7.8514701"><ele>280.0</ele><time>2026-05-01T08:51:08.272Z</time></trkpt><trkpt lat="44.8523304" lon="7.8511384"><ele>280.0</ele><time>2026-05-01T08:51:09.272Z</time></trkpt><trkpt lat="44.852282" lon="7.8507956"><ele>280.5</ele><time>2026-05-01T08:51:10.273Z</time></trkpt><trkpt lat="44.8522364" lon="7.8504577"><ele>281.0</ele><time>2026-05-01T08:51:11.272Z</time></trkpt><trkpt lat="44.8521863" lon="7.850122"><ele>281.5</ele><time>2026-05-01T08:51:12.272Z</time></trkpt><trkpt lat="44.8521369" lon="7.8497911"><ele>282.0</ele><time>2026-05-01T08:51:13.272Z</time></trkpt><trkpt lat="44.8520886" lon="7.8494586"><ele>281.0</ele><time>2026-05-01T08:51:14.272Z</time></trkpt><trkpt lat="44.852035" lon="7.8491328"><ele>280.0</ele><time>2026-05-01T08:51:15.272Z</time></trkpt><trkpt lat="44.8519733" lon="7.8488184"><ele>280.0</ele><time>2026-05-01T08:51:16.272Z</time></trkpt><trkpt lat="44.8518867" lon="7.8485275"><ele>280.0</ele><time>2026-05-01T08:51:17.273Z</time></trkpt><trkpt lat="44.8517719" lon="7.8482418"><ele>279.0</ele><time>2026-05-01T08:51:18.272Z</time></trkpt><trkpt lat="44.8516624" lon="7.8479456"><ele>278.0</ele><time>2026-05-01T08:51:19.272Z</time></trkpt><trkpt lat="44.851544" lon="7.8476534"><ele>276.0</ele><time>2026-05-01T08:51:20.272Z</time></trkpt><trkpt lat="44.8514207" lon="7.8473603"><ele>274.0</ele><time>2026-05-01T08:51:21.272Z</time></trkpt><trkpt lat="44.8513017" lon="7.8470742"><ele>274.0</ele><time>2026-05-01T08:51:22.272Z</time></trkpt><trkpt lat="44.8511821" lon="7.8467896"><ele>274.0</ele><time>2026-05-01T08:51:23.273Z</time></trkpt><trkpt lat="44.8510655" lon="7.8465028"><ele>272.0</ele><time>2026-05-01T08:51:24.272Z</time></trkpt><trkpt lat="44.8509503" lon="7.8462091"><ele>270.0</ele><time>2026-05-01T08:51:25.272Z</time></trkpt><trkpt lat="44.850831" lon="7.8459213"><ele>269.5</ele><time>2026-05-01T08:51:26.272Z</time></trkpt><trkpt lat="44.8507173" lon="7.845634"><ele>269.0</ele><time>2026-05-01T08:51:27.272Z</time></trkpt><trkpt lat="44.850628" lon="7.8453273"><ele>269.5</ele><time>2026-05-01T08:51:28.273Z</time></trkpt><trkpt lat="44.8505663" lon="7.8450045"><ele>270.0</ele><time>2026-05-01T08:51:29.272Z</time></trkpt><trkpt lat="44.8505275" lon="7.8446817"><ele>270.0</ele><time>2026-05-01T08:51:30.272Z</time></trkpt><trkpt lat="44.8505048" lon="7.8443401"><ele>270.0</ele><time>2026-05-01T08:51:31.272Z</time></trkpt><trkpt lat="44.8505002" lon="7.8440049"><ele>271.5</ele><time>2026-05-01T08:51:32.272Z</time></trkpt><trkpt lat="44.8505218" lon="7.8436596"><ele>273.0</ele><time>2026-05-01T08:51:33.272Z</time></trkpt><trkpt lat="44.8505642" lon="7.8433263"><ele>273.5</ele><time>2026-05-01T08:51:34.272Z</time></trkpt><trkpt lat="44.8506121" lon="7.84301"><ele>274.0</ele><time>2026-05-01T08:51:35.272Z</time></trkpt><trkpt lat="44.8506651" lon="7.8426887"><ele>275.0</ele><time>2026-05-01T08:51:36.272Z</time></trkpt><trkpt lat="44.8507029" lon="7.8423788"><ele>276.0</ele><time>2026-05-01T08:51:37.272Z</time></trkpt><trkpt lat="44.8507377" lon="7.8420716"><ele>277.0</ele><time>2026-05-01T08:51:38.273Z</time></trkpt><trkpt lat="44.8507761" lon="7.8417626"><ele>277.0</ele><time>2026-05-01T08:51:39.272Z</time></trkpt><trkpt lat="44.8508213" lon="7.8414578"><ele>277.0</ele><time>2026-05-01T08:51:40.272Z</time></trkpt><trkpt lat="44.8508593" lon="7.8411515"><ele>277.0</ele><time>2026-05-01T08:51:41.273Z</time></trkpt><trkpt lat="44.8508934" lon="7.8408466"><ele>277.0</ele><time>2026-05-01T08:51:42.272Z</time></trkpt><trkpt lat="44.8509234" lon="7.8405414"><ele>277.0</ele><time>2026-05-01T08:51:43.273Z</time></trkpt><trkpt lat="44.8509498" lon="7.8402365"><ele>277.0</ele><time>2026-05-01T08:51:44.272Z</time></trkpt><trkpt lat="44.8509792" lon="7.8399361"><ele>277.0</ele><time>2026-05-01T08:51:45.272Z</time></trkpt><trkpt lat="44.8510077" lon="7.8396362"><ele>277.0</ele><time>2026-05-01T08:51:46.273Z</time></trkpt><trkpt lat="44.8510417" lon="7.8393418"><ele>277.0</ele><time>2026-05-01T08:51:47.272Z</time></trkpt><trkpt lat="44.8510737" lon="7.8390413"><ele>277.0</ele><time>2026-05-01T08:51:48.273Z</time></trkpt><trkpt lat="44.8511139" lon="7.8387394"><ele>277.0</ele><time>2026-05-01T08:51:49.272Z</time></trkpt><trkpt lat="44.8511483" lon="7.8384345"><ele>277.0</ele><time>2026-05-01T08:51:50.272Z</time></trkpt><trkpt lat="44.8511861" lon="7.8381306"><ele>277.0</ele><time>2026-05-01T08:51:51.272Z</time></trkpt><trkpt lat="44.8512244" lon="7.8378169"><ele>277.0</ele><time>2026-05-01T08:51:52.272Z</time></trkpt><trkpt lat="44.8512614" lon="7.8374962"><ele>277.0</ele><time>2026-05-01T08:51:53.272Z</time></trkpt><trkpt lat="44.8512953" lon="7.8371781"><ele>277.0</ele><time>2026-05-01T08:51:54.272Z</time></trkpt><trkpt lat="44.8513329" lon="7.836866"><ele>276.5</ele><time>2026-05-01T08:51:55.272Z</time></trkpt><trkpt lat="44.8513754" lon="7.8365503"><ele>276.0</ele><time>2026-05-01T08:51:56.272Z</time></trkpt><trkpt lat="44.8514219" lon="7.8362384"><ele>276.0</ele><time>2026-05-01T08:51:57.272Z</time></trkpt><trkpt lat="44.8514768" lon="7.8359296"><ele>276.0</ele><time>2026-05-01T08:51:58.272Z</time></trkpt><trkpt lat="44.8515436" lon="7.8356153"><ele>276.0</ele><time>2026-05-01T08:51:59.272Z</time></trkpt><trkpt lat="44.851616" lon="7.8353013"><ele>276.0</ele><time>2026-05-01T08:52:00.272Z</time></trkpt><trkpt lat="44.851699" lon="7.834982"><ele>275.5</ele><time>2026-05-01T08:52:01.272Z</time></trkpt><trkpt lat="44.8517904" lon="7.8346579"><ele>275.0</ele><time>2026-05-01T08:52:02.272Z</time></trkpt><trkpt lat="44.8518907" lon="7.8343208"><ele>275.5</ele><time>2026-05-01T08:52:03.272Z</time></trkpt><trkpt lat="44.8519941" lon="7.8339726"><ele>276.0</ele><time>2026-05-01T08:52:04.272Z</time></trkpt><trkpt lat="44.852096" lon="7.8336369"><ele>276.5</ele><time>2026-05-01T08:52:05.272Z</time></trkpt><trkpt lat="44.852199" lon="7.8332979"><ele>277.0</ele><time>2026-05-01T08:52:06.272Z</time></trkpt><trkpt lat="44.8523036" lon="7.8329585"><ele>276.0</ele><time>2026-05-01T08:52:07.272Z</time></trkpt><trkpt lat="44.8523997" lon="7.8326283"><ele>275.0</ele><time>2026-05-01T08:52:08.272Z</time></trkpt><trkpt lat="44.852489" lon="7.8323133"><ele>275.0</ele><time>2026-05-01T08:52:09.272Z</time></trkpt><trkpt lat="44.852583" lon="7.8319958"><ele>275.0</ele><time>2026-05-01T08:52:10.272Z</time></trkpt><trkpt lat="44.8526777" lon="7.831685"><ele>274.5</ele><time>2026-05-01T08:52:11.272Z</time></trkpt><trkpt lat="44.8527775" lon="7.8313738"><ele>274.0</ele><time>2026-05-01T08:52:12.273Z</time></trkpt><trkpt lat="44.8528852" lon="7.8310655"><ele>274.0</ele><time>2026-05-01T08:52:13.272Z</time></trkpt><trkpt lat="44.8530016" lon="7.8307591"><ele>274.0</ele><time>2026-05-01T08:52:14.272Z</time></trkpt><trkpt lat="44.8531272" lon="7.8304564"><ele>274.0</ele><time>2026-05-01T08:52:15.273Z</time></trkpt><trkpt lat="44.8532593" lon="7.8301606"><ele>274.0</ele><time>2026-05-01T08:52:16.272Z</time></trkpt><trkpt lat="44.8534122" lon="7.8298672"><ele>274.0</ele><time>2026-05-01T08:52:17.272Z</time></trkpt><trkpt lat="44.8535667" lon="7.829579"><ele>274.0</ele><time>2026-05-01T08:52:18.273Z</time></trkpt><trkpt lat="44.8537246" lon="7.8292996"><ele>274.5</ele><time>2026-05-01T08:52:19.273Z</time></trkpt><trkpt lat="44.8538786" lon="7.8290226"><ele>275.0</ele><time>2026-05-01T08:52:20.273Z</time></trkpt><trkpt lat="44.8540349" lon="7.8287471"><ele>275.0</ele><time>2026-05-01T08:52:21.273Z</time></trkpt><trkpt lat="44.8541928" lon="7.8284737"><ele>275.0</ele><time>2026-05-01T08:52:22.273Z</time></trkpt><trkpt lat="44.854348" lon="7.8282023"><ele>273.5</ele><time>2026-05-01T08:52:23.273Z</time></trkpt><trkpt lat="44.8545013" lon="7.8279327"><ele>272.0</ele><time>2026-05-01T08:52:24.273Z</time></trkpt><trkpt lat="44.8546543" lon="7.8276689"><ele>271.5</ele><time>2026-05-01T08:52:25.273Z</time></trkpt><trkpt lat="44.8548073" lon="7.8274031"><ele>271.0</ele><time>2026-05-01T08:52:26.273Z</time></trkpt><trkpt lat="44.8549576" lon="7.827144"><ele>271.0</ele><time>2026-05-01T08:52:27.273Z</time></trkpt><trkpt lat="44.8551062" lon="7.8268801"><ele>271.0</ele><time>2026-05-01T08:52:28.273Z</time></trkpt><trkpt lat="44.8552531" lon="7.8266181"><ele>271.5</ele><time>2026-05-01T08:52:29.273Z</time></trkpt><trkpt lat="44.8553952" lon="7.8263444"><ele>272.0</ele><time>2026-05-01T08:52:30.273Z</time></trkpt><trkpt lat="44.8555382" lon="7.8260585"><ele>272.0</ele><time>2026-05-01T08:52:31.273Z</time></trkpt><trkpt lat="44.8556674" lon="7.8257671"><ele>272.0</ele><time>2026-05-01T08:52:32.273Z</time></trkpt><trkpt lat="44.8557924" lon="7.825465"><ele>272.0</ele><time>2026-05-01T08:52:33.273Z</time></trkpt><trkpt lat="44.8559164" lon="7.8251561"><ele>272.0</ele><time>2026-05-01T08:52:34.274Z</time></trkpt><trkpt lat="44.8560369" lon="7.8248466"><ele>271.5</ele><time>2026-05-01T08:52:35.273Z</time></trkpt><trkpt lat="44.8561625" lon="7.8245439"><ele>271.0</ele><time>2026-05-01T08:52:36.273Z</time></trkpt><trkpt lat="44.8562866" lon="7.8242486"><ele>272.0</ele><time>2026-05-01T08:52:37.273Z</time></trkpt><trkpt lat="44.8564074" lon="7.8239608"><ele>273.0</ele><time>2026-05-01T08:52:38.273Z</time></trkpt><trkpt lat="44.8565207" lon="7.8236791"><ele>272.6666666666667</ele><time>2026-05-01T08:52:39.273Z</time></trkpt><trkpt lat="44.8566226" lon="7.823402"><ele>272.33333333333337</ele><time>2026-05-01T08:52:40.273Z</time></trkpt><trkpt lat="44.8567153" lon="7.8231153"><ele>272.0</ele><time>2026-05-01T08:52:41.273Z</time></trkpt><trkpt lat="44.8567908" lon="7.8228244"><ele>272.0</ele><time>2026-05-01T08:52:42.274Z</time></trkpt><trkpt lat="44.8568546" lon="7.8225146"><ele>272.0</ele><time>2026-05-01T08:52:43.273Z</time></trkpt><trkpt lat="44.8569101" lon="7.8221903"><ele>272.0</ele><time>2026-05-01T08:52:44.273Z</time></trkpt><trkpt lat="44.8569409" lon="7.8218802"><ele>272.0</ele><time>2026-05-01T08:52:45.273Z</time></trkpt><trkpt lat="44.856964" lon="7.8215805"><ele>272.0</ele><time>2026-05-01T08:52:46.273Z</time></trkpt><trkpt lat="44.8569832" lon="7.8212848"><ele>271.6666666666667</ele><time>2026-05-01T08:52:47.274Z</time></trkpt><trkpt lat="44.8569892" lon="7.8209868"><ele>271.3333333333333</ele><time>2026-05-01T08:52:48.273Z</time></trkpt><trkpt lat="44.8569752" lon="7.8206815"><ele>271.0</ele><time>2026-05-01T08:52:49.274Z</time></trkpt><trkpt lat="44.8569419" lon="7.8203746"><ele>271.3333333333333</ele><time>2026-05-01T08:52:50.273Z</time></trkpt><trkpt lat="44.8568852" lon="7.8200708"><ele>271.6666666666667</ele><time>2026-05-01T08:52:51.273Z</time></trkpt><trkpt lat="44.8568025" lon="7.8197811"><ele>272.0</ele><time>2026-05-01T08:52:52.274Z</time></trkpt><trkpt lat="44.856699" lon="7.8195014"><ele>271.0</ele><time>2026-05-01T08:52:53.274Z</time></trkpt><trkpt lat="44.856584" lon="7.8192355"><ele>270.0</ele><time>2026-05-01T08:52:54.273Z</time></trkpt><trkpt lat="44.8564667" lon="7.8189773"><ele>269.0</ele><time>2026-05-01T08:52:55.273Z</time></trkpt><trkpt lat="44.8563484" lon="7.8187315"><ele>269.0</ele><time>2026-05-01T08:52:56.273Z</time></trkpt><trkpt lat="44.8562323" lon="7.8184909"><ele>269.0</ele><time>2026-05-01T08:52:57.273Z</time></trkpt><trkpt lat="44.8561114" lon="7.8182464"><ele>269.0</ele><time>2026-05-01T08:52:58.273Z</time></trkpt><trkpt lat="44.8559902" lon="7.8179936"><ele>267.0</ele><time>2026-05-01T08:52:59.273Z</time></trkpt><trkpt lat="44.8558716" lon="7.8177307"><ele>265.0</ele><time>2026-05-01T08:53:00.273Z</time></trkpt><trkpt lat="44.8557475" lon="7.8174715"><ele>263.0</ele><time>2026-05-01T08:53:01.273Z</time></trkpt><trkpt lat="44.8556183" lon="7.8172128"><ele>263.0</ele><time>2026-05-01T08:53:02.274Z</time></trkpt><trkpt lat="44.8554924" lon="7.8169538"><ele>263.0</ele><time>2026-05-01T08:53:03.273Z</time></trkpt><trkpt lat="44.8553761" lon="7.816702"><ele>263.0</ele><time>2026-05-01T08:53:04.273Z</time></trkpt><trkpt lat="44.8552641" lon="7.8164539"><ele>262.6666666666667</ele><time>2026-05-01T08:53:05.273Z</time></trkpt><trkpt lat="44.8551663" lon="7.8162082"><ele>262.3333333333333</ele><time>2026-05-01T08:53:06.273Z</time></trkpt><trkpt lat="44.8550751" lon="7.815952"><ele>262.0</ele><time>2026-05-01T08:53:07.273Z</time></trkpt><trkpt lat="44.8549947" lon="7.815677"><ele>260.5</ele><time>2026-05-01T08:53:08.273Z</time></trkpt><trkpt lat="44.8549262" lon="7.8153813"><ele>259.0</ele><time>2026-05-01T08:53:09.273Z</time></trkpt><trkpt lat="44.8548834" lon="7.8150609"><ele>259.0</ele><time>2026-05-01T08:53:10.273Z</time></trkpt><trkpt lat="44.854856" lon="7.8147364"><ele>259.0</ele><time>2026-05-01T08:53:11.273Z</time></trkpt><trkpt lat="44.8548554" lon="7.81441"><ele>258.5</ele><time>2026-05-01T08:53:12.273Z</time></trkpt><trkpt lat="44.8548669" lon="7.8140874"><ele>258.0</ele><time>2026-05-01T08:53:13.273Z</time></trkpt><trkpt lat="44.8549008" lon="7.813761"><ele>257.5</ele><time>2026-05-01T08:53:14.273Z</time></trkpt><trkpt lat="44.8549614" lon="7.8134331"><ele>257.0</ele><time>2026-05-01T08:53:15.273Z</time></trkpt><trkpt lat="44.8550213" lon="7.8130996"><ele>257.0</ele><time>2026-05-01T08:53:16.273Z</time></trkpt><trkpt lat="44.8550877" lon="7.8127643"><ele>257.0</ele><time>2026-05-01T08:53:17.273Z</time></trkpt><trkpt lat="44.8551439" lon="7.8124276"><ele>257.0</ele><time>2026-05-01T08:53:18.273Z</time></trkpt><trkpt lat="44.8552054" lon="7.8120889"><ele>257.0</ele><time>2026-05-01T08:53:19.273Z</time></trkpt><trkpt lat="44.8552686" lon="7.8117399"><ele>256.5</ele><time>2026-05-01T08:53:20.273Z</time></trkpt><trkpt lat="44.8553277" lon="7.8113968"><ele>256.0</ele><time>2026-05-01T08:53:21.273Z</time></trkpt><trkpt lat="44.8553778" lon="7.8110592"><ele>256.5</ele><time>2026-05-01T08:53:22.273Z</time></trkpt><trkpt lat="44.8554291" lon="7.8107271"><ele>257.0</ele><time>2026-05-01T08:53:23.274Z</time></trkpt><trkpt lat="44.8554848" lon="7.8104001"><ele>256.0</ele><time>2026-05-01T08:53:24.273Z</time></trkpt><trkpt lat="44.8555427" lon="7.8100664"><ele>255.0</ele><time>2026-05-01T08:53:25.273Z</time></trkpt><trkpt lat="44.8556053" lon="7.8097358"><ele>255.0</ele><time>2026-05-01T08:53:26.273Z</time></trkpt><trkpt lat="44.8556621" lon="7.8094075"><ele>255.0</ele><time>2026-05-01T08:53:27.274Z</time></trkpt><trkpt lat="44.8557227" lon="7.8090888"><ele>254.5</ele><time>2026-05-01T08:53:28.273Z</time></trkpt><trkpt lat="44.8557798" lon="7.808776"><ele>254.0</ele><time>2026-05-01T08:53:29.274Z</time></trkpt><trkpt lat="44.8558329" lon="7.8084689"><ele>255.0</ele><time>2026-05-01T08:53:30.273Z</time></trkpt><trkpt lat="44.8558892" lon="7.8081568"><ele>256.0</ele><time>2026-05-01T08:53:31.273Z</time></trkpt><trkpt lat="44.8559305" lon="7.8078393"><ele>256.0</ele><time>2026-05-01T08:53:32.273Z</time></trkpt><trkpt lat="44.8559472" lon="7.8075205"><ele>256.0</ele><time>2026-05-01T08:53:33.273Z</time></trkpt><trkpt lat="44.8559488" lon="7.8072075"><ele>256.0</ele><time>2026-05-01T08:53:34.273Z</time></trkpt><trkpt lat="44.8559325" lon="7.8068892"><ele>255.5</ele><time>2026-05-01T08:53:35.273Z</time></trkpt><trkpt lat="44.8558979" lon="7.8065579"><ele>255.0</ele><time>2026-05-01T08:53:36.273Z</time></trkpt><trkpt lat="44.8558545" lon="7.8062215"><ele>255.0</ele><time>2026-05-01T08:53:37.273Z</time></trkpt><trkpt lat="44.8558078" lon="7.8058904"><ele>255.0</ele><time>2026-05-01T08:53:38.273Z</time></trkpt><trkpt lat="44.855759" lon="7.8055618"><ele>255.0</ele><time>2026-05-01T08:53:39.273Z</time></trkpt><trkpt lat="44.8557148" lon="7.8052405"><ele>255.0</ele><time>2026-05-01T08:53:40.273Z</time></trkpt><trkpt lat="44.8556762" lon="7.8049131"><ele>255.0</ele><time>2026-05-01T08:53:41.273Z</time></trkpt><trkpt lat="44.8556308" lon="7.8045919"><ele>255.0</ele><time>2026-05-01T08:53:42.273Z</time></trkpt><trkpt lat="44.8555859" lon="7.8042816"><ele>255.0</ele><time>2026-05-01T08:53:43.274Z</time></trkpt><trkpt lat="44.8555537" lon="7.8039713"><ele>255.0</ele><time>2026-05-01T08:53:44.273Z</time></trkpt><trkpt lat="44.8555171" lon="7.8036657"><ele>255.0</ele><time>2026-05-01T08:53:45.273Z</time></trkpt><trkpt lat="44.855463" lon="7.8033604"><ele>255.5</ele><time>2026-05-01T08:53:46.273Z</time></trkpt><trkpt lat="44.8554033" lon="7.8030509"><ele>256.0</ele><time>2026-05-01T08:53:47.273Z</time></trkpt><trkpt lat="44.8553397" lon="7.8027275"><ele>255.0</ele><time>2026-05-01T08:53:48.273Z</time></trkpt><trkpt lat="44.8552742" lon="7.8024024"><ele>254.0</ele><time>2026-05-01T08:53:49.274Z</time></trkpt><trkpt lat="44.8552105" lon="7.8020714"><ele>254.0</ele><time>2026-05-01T08:53:50.273Z</time></trkpt><trkpt lat="44.855147" lon="7.801744"><ele>254.0</ele><time>2026-05-01T08:53:51.273Z</time></trkpt><trkpt lat="44.8550738" lon="7.8014198"><ele>254.0</ele><time>2026-05-01T08:53:52.273Z</time></trkpt><trkpt lat="44.8549894" lon="7.8010982"><ele>254.0</ele><time>2026-05-01T08:53:53.273Z</time></trkpt><trkpt lat="44.8548996" lon="7.8007794"><ele>254.0</ele><time>2026-05-01T08:53:54.273Z</time></trkpt><trkpt lat="44.8548062" lon="7.8004613"><ele>254.0</ele><time>2026-05-01T08:53:55.273Z</time></trkpt><trkpt lat="44.8547157" lon="7.8001432"><ele>254.5</ele><time>2026-05-01T08:53:56.273Z</time></trkpt><trkpt lat="44.8546357" lon="7.799827"><ele>255.0</ele><time>2026-05-01T08:53:57.273Z</time></trkpt><trkpt lat="44.8545607" lon="7.7995165"><ele>255.5</ele><time>2026-05-01T08:53:58.274Z</time></trkpt><trkpt lat="44.8544797" lon="7.7992145"><ele>256.0</ele><time>2026-05-01T08:53:59.273Z</time></trkpt><trkpt lat="44.8543997" lon="7.7989164"><ele>256.0</ele><time>2026-05-01T08:54:00.273Z</time></trkpt><trkpt lat="44.8543283" lon="7.7986217"><ele>256.0</ele><time>2026-05-01T08:54:01.273Z</time></trkpt><trkpt lat="44.8542542" lon="7.7983363"><ele>256.0</ele><time>2026-05-01T08:54:02.273Z</time></trkpt><trkpt lat="44.8541797" lon="7.7980622"><ele>257.0</ele><time>2026-05-01T08:54:03.273Z</time></trkpt><trkpt lat="44.8541135" lon="7.7977885"><ele>258.0</ele><time>2026-05-01T08:54:04.273Z</time></trkpt><trkpt lat="44.8540519" lon="7.7975242"><ele>259.0</ele><time>2026-05-01T08:54:05.273Z</time></trkpt><trkpt lat="44.8539947" lon="7.7972546"><ele>259.0</ele><time>2026-05-01T08:54:06.273Z</time></trkpt><trkpt lat="44.8539404" lon="7.7969856"><ele>259.0</ele><time>2026-05-01T08:54:07.273Z</time></trkpt><trkpt lat="44.8539072" lon="7.7967"><ele>259.0</ele><time>2026-05-01T08:54:08.273Z</time></trkpt><trkpt lat="44.8538881" lon="7.7964066"><ele>258.0</ele><time>2026-05-01T08:54:09.273Z</time></trkpt><trkpt lat="44.8538699" lon="7.7961092"><ele>257.0</ele><time>2026-05-01T08:54:10.273Z</time></trkpt><trkpt lat="44.8538682" lon="7.7958125"><ele>256.0</ele><time>2026-05-01T08:54:11.273Z</time></trkpt><trkpt lat="44.8538677" lon="7.7955085"><ele>255.0</ele><time>2026-05-01T08:54:12.274Z</time></trkpt><trkpt lat="44.8538615" lon="7.7952038"><ele>254.0</ele><time>2026-05-01T08:54:13.273Z</time></trkpt><trkpt lat="44.8538515" lon="7.7948975"><ele>253.0</ele><time>2026-05-01T08:54:14.273Z</time></trkpt><trkpt lat="44.8538346" lon="7.7945859"><ele>252.0</ele><time>2026-05-01T08:54:15.273Z</time></trkpt><trkpt lat="44.8538069" lon="7.7942781"><ele>251.0</ele><time>2026-05-01T08:54:16.273Z</time></trkpt><trkpt lat="44.853764" lon="7.7939634"><ele>250.0</ele><time>2026-05-01T08:54:17.273Z</time></trkpt><trkpt lat="44.8537103" lon="7.7936382"><ele>249.0</ele><time>2026-05-01T08:54:18.273Z</time></trkpt><trkpt lat="44.8536478" lon="7.7933125"><ele>248.0</ele><time>2026-05-01T08:54:19.273Z</time></trkpt><trkpt lat="44.8535887" lon="7.7929973"><ele>248.0</ele><time>2026-05-01T08:54:20.273Z</time></trkpt><trkpt lat="44.8535228" lon="7.792687"><ele>248.0</ele><time>2026-05-01T08:54:21.274Z</time></trkpt><trkpt lat="44.8534577" lon="7.7923814"><ele>250.0</ele><time>2026-05-01T08:54:22.273Z</time></trkpt><trkpt lat="44.8534011" lon="7.7920626"><ele>252.0</ele><time>2026-05-01T08:54:23.273Z</time></trkpt><trkpt lat="44.8533472" lon="7.7917456"><ele>252.5</ele><time>2026-05-01T08:54:24.273Z</time></trkpt><trkpt lat="44.8532917" lon="7.7914272"><ele>253.0</ele><time>2026-05-01T08:54:25.273Z</time></trkpt><trkpt lat="44.8532393" lon="7.79111"><ele>254.0</ele><time>2026-05-01T08:54:26.273Z</time></trkpt><trkpt lat="44.8531918" lon="7.7907949"><ele>255.0</ele><time>2026-05-01T08:54:27.274Z</time></trkpt><trkpt lat="44.8531352" lon="7.7904888"><ele>255.0</ele><time>2026-05-01T08:54:28.273Z</time></trkpt><trkpt lat="44.8530738" lon="7.7901828"><ele>255.0</ele><time>2026-05-01T08:54:29.273Z</time></trkpt><trkpt lat="44.8530094" lon="7.7898793"><ele>254.5</ele><time>2026-05-01T08:54:30.273Z</time></trkpt><trkpt lat="44.8529564" lon="7.7895686"><ele>254.0</ele><time>2026-05-01T08:54:31.274Z</time></trkpt><trkpt lat="44.8529073" lon="7.7892585"><ele>254.0</ele><time>2026-05-01T08:54:32.273Z</time></trkpt><trkpt lat="44.852856" lon="7.7889455"><ele>254.0</ele><time>2026-05-01T08:54:33.274Z</time></trkpt><trkpt lat="44.8527987" lon="7.7886336"><ele>255.0</ele><time>2026-05-01T08:54:34.274Z</time></trkpt><trkpt lat="44.8527434" lon="7.7883275"><ele>256.0</ele><time>2026-05-01T08:54:35.274Z</time></trkpt><trkpt lat="44.8526878" lon="7.78802"><ele>257.0</ele><time>2026-05-01T08:54:36.273Z</time></trkpt><trkpt lat="44.8526375" lon="7.7877146"><ele>257.33333333333337</ele><time>2026-05-01T08:54:37.273Z</time></trkpt><trkpt lat="44.8525827" lon="7.78741"><ele>257.6666666666667</ele><time>2026-05-01T08:54:38.273Z</time></trkpt><trkpt lat="44.8525264" lon="7.7871051"><ele>258.0</ele><time>2026-05-01T08:54:39.273Z</time></trkpt><trkpt lat="44.8524781" lon="7.7867969"><ele>257.0</ele><time>2026-05-01T08:54:40.273Z</time></trkpt><trkpt lat="44.8524142" lon="7.7864933"><ele>256.0</ele><time>2026-05-01T08:54:41.273Z</time></trkpt><trkpt lat="44.8523522" lon="7.7861814"><ele>256.5</ele><time>2026-05-01T08:54:42.274Z</time></trkpt><trkpt lat="44.8522974" lon="7.7858696"><ele>257.0</ele><time>2026-05-01T08:54:43.273Z</time></trkpt><trkpt lat="44.8522397" lon="7.7855552"><ele>257.0</ele><time>2026-05-01T08:54:44.273Z</time></trkpt><trkpt lat="44.8521877" lon="7.7852377"><ele>257.0</ele><time>2026-05-01T08:54:45.273Z</time></trkpt><trkpt lat="44.8521423" lon="7.7849253"><ele>257.0</ele><time>2026-05-01T08:54:46.274Z</time></trkpt><trkpt lat="44.8521075" lon="7.7846117"><ele>257.0</ele><time>2026-05-01T08:54:47.273Z</time></trkpt><trkpt lat="44.8520898" lon="7.7842947"><ele>257.0</ele><time>2026-05-01T08:54:48.273Z</time></trkpt><trkpt lat="44.8520853" lon="7.7839744"><ele>257.0</ele><time>2026-05-01T08:54:49.273Z</time></trkpt><trkpt lat="44.8520963" lon="7.7836469"><ele>256.5</ele><time>2026-05-01T08:54:50.273Z</time></trkpt><trkpt lat="44.8521188" lon="7.7833184"><ele>256.0</ele><time>2026-05-01T08:54:51.274Z</time></trkpt><trkpt lat="44.8521629" lon="7.7829972"><ele>256.0</ele><time>2026-05-01T08:54:52.273Z</time></trkpt><trkpt lat="44.8522152" lon="7.7826834"><ele>256.0</ele><time>2026-05-01T08:54:53.273Z</time></trkpt><trkpt lat="44.8522696" lon="7.7823634"><ele>256.0</ele><time>2026-05-01T08:54:54.273Z</time></trkpt><trkpt lat="44.8523246" lon="7.7820415"><ele>256.0</ele><time>2026-05-01T08:54:55.273Z</time></trkpt><trkpt lat="44.8523748" lon="7.7817208"><ele>256.0</ele><time>2026-05-01T08:54:56.274Z</time></trkpt><trkpt lat="44.8524275" lon="7.7813969"><ele>256.0</ele><time>2026-05-01T08:54:57.273Z</time></trkpt><trkpt lat="44.8524842" lon="7.7810796"><ele>255.5</ele><time>2026-05-01T08:54:58.273Z</time></trkpt><trkpt lat="44.8525352" lon="7.7807615"><ele>255.0</ele><time>2026-05-01T08:54:59.273Z</time></trkpt><trkpt lat="44.852591" lon="7.7804463"><ele>254.0</ele><time>2026-05-01T08:55:00.273Z</time></trkpt><trkpt lat="44.8526447" lon="7.7801325"><ele>253.0</ele><time>2026-05-01T08:55:01.274Z</time></trkpt><trkpt lat="44.8527022" lon="7.7798182"><ele>253.0</ele><time>2026-05-01T08:55:02.273Z</time></trkpt><trkpt lat="44.8527646" lon="7.7795108"><ele>253.0</ele><time>2026-05-01T08:55:03.273Z</time></trkpt><trkpt lat="44.8528164" lon="7.7792074"><ele>253.0</ele><time>2026-05-01T08:55:04.273Z</time></trkpt><trkpt lat="44.8528638" lon="7.7789059"><ele>253.0</ele><time>2026-05-01T08:55:05.273Z</time></trkpt><trkpt lat="44.8529043" lon="7.7786"><ele>253.0</ele><time>2026-05-01T08:55:06.273Z</time></trkpt><trkpt lat="44.8529576" lon="7.7782968"><ele>253.0</ele><time>2026-05-01T08:55:07.273Z</time></trkpt><trkpt lat="44.8530166" lon="7.7779931"><ele>253.0</ele><time>2026-05-01T08:55:08.274Z</time></trkpt><trkpt lat="44.8530722" lon="7.7776914"><ele>253.0</ele><time>2026-05-01T08:55:09.274Z</time></trkpt><trkpt lat="44.8531238" lon="7.7773942"><ele>253.0</ele><time>2026-05-01T08:55:10.273Z</time></trkpt><trkpt lat="44.8531644" lon="7.7770852"><ele>252.0</ele><time>2026-05-01T08:55:11.274Z</time></trkpt><trkpt lat="44.8531796" lon="7.7767895"><ele>251.0</ele><time>2026-05-01T08:55:12.273Z</time></trkpt><trkpt lat="44.8531735" lon="7.7764985"><ele>250.0</ele><time>2026-05-01T08:55:13.273Z</time></trkpt><trkpt lat="44.8531624" lon="7.776207"><ele>250.0</ele><time>2026-05-01T08:55:14.273Z</time></trkpt><trkpt lat="44.8531477" lon="7.7759343"><ele>250.0</ele><time>2026-05-01T08:55:15.273Z</time></trkpt><trkpt lat="44.8531282" lon="7.7756766"><ele>250.0</ele><time>2026-05-01T08:55:16.274Z</time></trkpt><trkpt lat="44.8531141" lon="7.7754262"><ele>250.0</ele><time>2026-05-01T08:55:17.274Z</time></trkpt><trkpt lat="44.8531134" lon="7.77519"><ele>250.0</ele><time>2026-05-01T08:55:18.273Z</time></trkpt><trkpt lat="44.8531222" lon="7.7749528"><ele>250.0</ele><time>2026-05-01T08:55:19.274Z</time></trkpt><trkpt lat="44.8531465" lon="7.7747165"><ele>250.33333333333331</ele><time>2026-05-01T08:55:20.274Z</time></trkpt><trkpt lat="44.8531728" lon="7.7744773"><ele>250.66666666666669</ele><time>2026-05-01T08:55:21.273Z</time></trkpt><trkpt lat="44.8532046" lon="7.7742346"><ele>251.0</ele><time>2026-05-01T08:55:22.273Z</time></trkpt><trkpt lat="44.8532415" lon="7.7739967"><ele>251.0</ele><time>2026-05-01T08:55:23.273Z</time></trkpt><trkpt lat="44.8532849" lon="7.7737563"><ele>251.0</ele><time>2026-05-01T08:55:24.273Z</time></trkpt><trkpt lat="44.8533371" lon="7.7735206"><ele>251.0</ele><time>2026-05-01T08:55:25.273Z</time></trkpt><trkpt lat="44.8533771" lon="7.7732919"><ele>251.33333333333334</ele><time>2026-05-01T08:55:26.273Z</time></trkpt><trkpt lat="44.8534322" lon="7.7730635"><ele>251.66666666666669</ele><time>2026-05-01T08:55:27.273Z</time></trkpt><trkpt lat="44.8534901" lon="7.77286"><ele>252.0</ele><time>2026-05-01T08:55:28.274Z</time></trkpt><trkpt lat="44.8535602" lon="7.7726829"><ele>252.0</ele><time>2026-05-01T08:55:29.273Z</time></trkpt><trkpt lat="44.85364" lon="7.7725173"><ele>252.0</ele><time>2026-05-01T08:55:30.273Z</time></trkpt><trkpt lat="44.8537262" lon="7.7723538"><ele>252.0</ele><time>2026-05-01T08:55:31.273Z</time></trkpt><trkpt lat="44.8538152" lon="7.7722064"><ele>252.0</ele><time>2026-05-01T08:55:32.273Z</time></trkpt><trkpt lat="44.8539009" lon="7.7720711"><ele>252.0</ele><time>2026-05-01T08:55:33.273Z</time></trkpt><trkpt lat="44.8539762" lon="7.7719559"><ele>252.0</ele><time>2026-05-01T08:55:34.273Z</time></trkpt><trkpt lat="44.8540391" lon="7.7718681"><ele>252.0</ele><time>2026-05-01T08:55:35.274Z</time></trkpt><trkpt lat="44.8540917" lon="7.7718135"><ele>252.0</ele><time>2026-05-01T08:55:36.273Z</time></trkpt><trkpt lat="44.8541871" lon="7.7717011"><ele>252.0</ele><time>2026-05-01T08:55:38.273Z</time></trkpt><trkpt lat="44.8542309" lon="7.7716262"><ele>251.2</ele><time>2026-05-01T08:55:39.273Z</time></trkpt><trkpt lat="44.8542509" lon="7.7715326"><ele>250.39999999999998</ele><time>2026-05-01T08:55:40.273Z</time></trkpt><trkpt lat="44.8542629" lon="7.7714171"><ele>249.60000000000002</ele><time>2026-05-01T08:55:41.273Z</time></trkpt><trkpt lat="44.8542411" lon="7.7712963"><ele>248.8</ele><time>2026-05-01T08:55:42.273Z</time></trkpt><trkpt lat="44.8541853" lon="7.7711634"><ele>248.0</ele><time>2026-05-01T08:55:43.274Z</time></trkpt><trkpt lat="44.854089" lon="7.7710197"><ele>247.33333333333334</ele><time>2026-05-01T08:55:44.273Z</time></trkpt><trkpt lat="44.8539769" lon="7.7708715"><ele>246.66666666666669</ele><time>2026-05-01T08:55:45.273Z</time></trkpt><trkpt lat="44.8538653" lon="7.7707175"><ele>246.0</ele><time>2026-05-01T08:55:46.273Z</time></trkpt><trkpt lat="44.8537479" lon="7.7705527"><ele>246.0</ele><time>2026-05-01T08:55:47.273Z</time></trkpt><trkpt lat="44.8536405" lon="7.7703814"><ele>246.0</ele><time>2026-05-01T08:55:48.273Z</time></trkpt><trkpt lat="44.8535342" lon="7.7701938"><ele>246.0</ele><time>2026-05-01T08:55:49.273Z</time></trkpt><trkpt lat="44.8534377" lon="7.7699942"><ele>246.66666666666669</ele><time>2026-05-01T08:55:50.274Z</time></trkpt><trkpt lat="44.853346" lon="7.7697795"><ele>247.33333333333334</ele><time>2026-05-01T08:55:51.273Z</time></trkpt><trkpt lat="44.8532573" lon="7.7695612"><ele>248.0</ele><time>2026-05-01T08:55:52.273Z</time></trkpt><trkpt lat="44.8531597" lon="7.7693423"><ele>248.0</ele><time>2026-05-01T08:55:53.273Z</time></trkpt><trkpt lat="44.8530716" lon="7.7691177"><ele>248.0</ele><time>2026-05-01T08:55:54.273Z</time></trkpt><trkpt lat="44.8529876" lon="7.7688892"><ele>248.0</ele><time>2026-05-01T08:55:55.273Z</time></trkpt><trkpt lat="44.8529126" lon="7.7686617"><ele>247.33333333333334</ele><time>2026-05-01T08:55:56.273Z</time></trkpt><trkpt lat="44.8528488" lon="7.7684299"><ele>246.66666666666669</ele><time>2026-05-01T08:55:57.274Z</time></trkpt><trkpt lat="44.8527865" lon="7.7681952"><ele>246.0</ele><time>2026-05-01T08:55:58.274Z</time></trkpt><trkpt lat="44.8527337" lon="7.7679748"><ele>246.0</ele><time>2026-05-01T08:55:59.273Z</time></trkpt><trkpt lat="44.8526853" lon="7.7677666"><ele>246.0</ele><time>2026-05-01T08:56:00.273Z</time></trkpt><trkpt lat="44.8526359" lon="7.7675753"><ele>246.0</ele><time>2026-05-01T08:56:01.273Z</time></trkpt><trkpt lat="44.8525938" lon="7.767391"><ele>246.0</ele><time>2026-05-01T08:56:02.273Z</time></trkpt><trkpt lat="44.8525544" lon="7.7672236"><ele>245.5</ele><time>2026-05-01T08:56:03.273Z</time></trkpt><trkpt lat="44.8525121" lon="7.767074"><ele>245.0</ele><time>2026-05-01T08:56:04.273Z</time></trkpt><trkpt lat="44.8524778" lon="7.7669134"><ele>244.5</ele><time>2026-05-01T08:56:05.273Z</time></trkpt><trkpt lat="44.8524418" lon="7.7667457"><ele>244.0</ele><time>2026-05-01T08:56:06.273Z</time></trkpt><trkpt lat="44.8523925" lon="7.7665699"><ele>243.33333333333331</ele><time>2026-05-01T08:56:07.273Z</time></trkpt><trkpt lat="44.8523435" lon="7.7663844"><ele>242.66666666666669</ele><time>2026-05-01T08:56:08.274Z</time></trkpt><trkpt lat="44.8522936" lon="7.7661753"><ele>242.0</ele><time>2026-05-01T08:56:09.274Z</time></trkpt><trkpt lat="44.8522596" lon="7.7659421"><ele>242.0</ele><time>2026-05-01T08:56:10.273Z</time></trkpt><trkpt lat="44.8522307" lon="7.7656877"><ele>242.0</ele><time>2026-05-01T08:56:11.273Z</time></trkpt><trkpt lat="44.8522243" lon="7.7654286"><ele>242.0</ele><time>2026-05-01T08:56:12.273Z</time></trkpt><trkpt lat="44.8522286" lon="7.765173"><ele>242.33333333333334</ele><time>2026-05-01T08:56:13.274Z</time></trkpt><trkpt lat="44.8522481" lon="7.7649168"><ele>242.66666666666669</ele><time>2026-05-01T08:56:14.273Z</time></trkpt><trkpt lat="44.8522742" lon="7.7646675"><ele>243.0</ele><time>2026-05-01T08:56:15.274Z</time></trkpt><trkpt lat="44.8523116" lon="7.764408"><ele>243.33333333333331</ele><time>2026-05-01T08:56:16.273Z</time></trkpt><trkpt lat="44.8523496" lon="7.7641443"><ele>243.66666666666666</ele><time>2026-05-01T08:56:17.273Z</time></trkpt><trkpt lat="44.8523817" lon="7.763878"><ele>244.0</ele><time>2026-05-01T08:56:18.274Z</time></trkpt><trkpt lat="44.852398" lon="7.7636191"><ele>243.66666666666666</ele><time>2026-05-01T08:56:19.273Z</time></trkpt><trkpt lat="44.8524087" lon="7.7633593"><ele>243.33333333333331</ele><time>2026-05-01T08:56:20.273Z</time></trkpt><trkpt lat="44.8524056" lon="7.7630964"><ele>243.0</ele><time>2026-05-01T08:56:21.273Z</time></trkpt><trkpt lat="44.8523909" lon="7.762829"><ele>242.66666666666669</ele><time>2026-05-01T08:56:22.273Z</time></trkpt><trkpt lat="44.8523679" lon="7.762566"><ele>242.33333333333334</ele><time>2026-05-01T08:56:23.273Z</time></trkpt><trkpt lat="44.8523375" lon="7.7622946"><ele>242.0</ele><time>2026-05-01T08:56:24.273Z</time></trkpt><trkpt lat="44.8523079" lon="7.7620037"><ele>242.0</ele><time>2026-05-01T08:56:25.273Z</time></trkpt><trkpt lat="44.8522709" lon="7.7617126"><ele>242.0</ele><time>2026-05-01T08:56:26.273Z</time></trkpt><trkpt lat="44.8522389" lon="7.7614246"><ele>242.0</ele><time>2026-05-01T08:56:27.274Z</time></trkpt><trkpt lat="44.8522091" lon="7.7611302"><ele>241.66666666666669</ele><time>2026-05-01T08:56:28.274Z</time></trkpt><trkpt lat="44.8521842" lon="7.7608396"><ele>241.33333333333331</ele><time>2026-05-01T08:56:29.273Z</time></trkpt><trkpt lat="44.852164" lon="7.760552"><ele>241.0</ele><time>2026-05-01T08:56:30.273Z</time></trkpt><trkpt lat="44.8521597" lon="7.7602532"><ele>241.33333333333331</ele><time>2026-05-01T08:56:31.273Z</time></trkpt><trkpt lat="44.8521726" lon="7.7599457"><ele>241.66666666666669</ele><time>2026-05-01T08:56:32.274Z</time></trkpt><trkpt lat="44.852202" lon="7.7596415"><ele>242.0</ele><time>2026-05-01T08:56:33.273Z</time></trkpt><trkpt lat="44.8522507" lon="7.7593178"><ele>242.0</ele><time>2026-05-01T08:56:34.273Z</time></trkpt><trkpt lat="44.8522861" lon="7.7589882"><ele>242.0</ele><time>2026-05-01T08:56:35.273Z</time></trkpt><trkpt lat="44.8523094" lon="7.7586614"><ele>242.0</ele><time>2026-05-01T08:56:36.274Z</time></trkpt><trkpt lat="44.8523272" lon="7.758335"><ele>242.0</ele><time>2026-05-01T08:56:37.273Z</time></trkpt><trkpt lat="44.8523433" lon="7.7580087"><ele>243.0</ele><time>2026-05-01T08:56:38.273Z</time></trkpt><trkpt lat="44.8523669" lon="7.7576823"><ele>244.0</ele><time>2026-05-01T08:56:39.274Z</time></trkpt><trkpt lat="44.8523903" lon="7.7573735"><ele>244.0</ele><time>2026-05-01T08:56:40.273Z</time></trkpt><trkpt lat="44.8524065" lon="7.757069"><ele>244.0</ele><time>2026-05-01T08:56:41.273Z</time></trkpt><trkpt lat="44.8524182" lon="7.756759"><ele>244.0</ele><time>2026-05-01T08:56:42.273Z</time></trkpt><trkpt lat="44.8524189" lon="7.7564507"><ele>243.66666666666666</ele><time>2026-05-01T08:56:43.273Z</time></trkpt><trkpt lat="44.8524018" lon="7.7561621"><ele>243.33333333333331</ele><time>2026-05-01T08:56:44.273Z</time></trkpt><trkpt lat="44.8523777" lon="7.7558704"><ele>243.0</ele><time>2026-05-01T08:56:45.274Z</time></trkpt><trkpt lat="44.8523489" lon="7.7555749"><ele>243.0</ele><time>2026-05-01T08:56:46.273Z</time></trkpt><trkpt lat="44.8523268" lon="7.755286"><ele>243.0</ele><time>2026-05-01T08:56:47.273Z</time></trkpt><trkpt lat="44.8523084" lon="7.7550065"><ele>243.0</ele><time>2026-05-01T08:56:48.273Z</time></trkpt><trkpt lat="44.8522901" lon="7.7547317"><ele>242.66666666666669</ele><time>2026-05-01T08:56:49.273Z</time></trkpt><trkpt lat="44.8522794" lon="7.7544547"><ele>242.33333333333334</ele><time>2026-05-01T08:56:50.273Z</time></trkpt><trkpt lat="44.8522679" lon="7.7541815"><ele>242.0</ele><time>2026-05-01T08:56:51.273Z</time></trkpt><trkpt lat="44.8522605" lon="7.7539036"><ele>242.0</ele><time>2026-05-01T08:56:52.273Z</time></trkpt><trkpt lat="44.85225" lon="7.7536178"><ele>242.0</ele><time>2026-05-01T08:56:53.274Z</time></trkpt><trkpt lat="44.8522366" lon="7.753328"><ele>242.0</ele><time>2026-05-01T08:56:54.273Z</time></trkpt><trkpt lat="44.8522266" lon="7.753047"><ele>242.33333333333334</ele><time>2026-05-01T08:56:55.273Z</time></trkpt><trkpt lat="44.8522104" lon="7.7527628"><ele>242.66666666666669</ele><time>2026-05-01T08:56:56.273Z</time></trkpt><trkpt lat="44.852198" lon="7.7524794"><ele>243.0</ele><time>2026-05-01T08:56:57.273Z</time></trkpt><trkpt lat="44.8521815" lon="7.7521923"><ele>243.33333333333331</ele><time>2026-05-01T08:56:58.273Z</time></trkpt><trkpt lat="44.8521628" lon="7.75191"><ele>243.66666666666666</ele><time>2026-05-01T08:56:59.274Z</time></trkpt><trkpt lat="44.8521377" lon="7.751631"><ele>244.0</ele><time>2026-05-01T08:57:00.273Z</time></trkpt><trkpt lat="44.8521074" lon="7.7513471"><ele>244.0</ele><time>2026-05-01T08:57:01.273Z</time></trkpt><trkpt lat="44.8520574" lon="7.7510666"><ele>244.0</ele><time>2026-05-01T08:57:02.273Z</time></trkpt><trkpt lat="44.8519964" lon="7.7507791"><ele>244.0</ele><time>2026-05-01T08:57:03.273Z</time></trkpt><trkpt lat="44.8519335" lon="7.7504921"><ele>244.0</ele><time>2026-05-01T08:57:04.273Z</time></trkpt><trkpt lat="44.8518664" lon="7.7502087"><ele>244.0</ele><time>2026-05-01T08:57:05.273Z</time></trkpt><trkpt lat="44.8517892" lon="7.7499502"><ele>244.0</ele><time>2026-05-01T08:57:06.273Z</time></trkpt><trkpt lat="44.8517146" lon="7.7497064"><ele>244.0</ele><time>2026-05-01T08:57:07.274Z</time></trkpt><trkpt lat="44.8516388" lon="7.749476"><ele>244.0</ele><time>2026-05-01T08:57:08.273Z</time></trkpt><trkpt lat="44.8515672" lon="7.7492607"><ele>244.0</ele><time>2026-05-01T08:57:09.273Z</time></trkpt><trkpt lat="44.8515119" lon="7.7490443"><ele>244.0</ele><time>2026-05-01T08:57:10.273Z</time></trkpt><trkpt lat="44.8514587" lon="7.7488447"><ele>244.0</ele><time>2026-05-01T08:57:11.274Z</time></trkpt><trkpt lat="44.8513986" lon="7.7486358"><ele>244.0</ele><time>2026-05-01T08:57:12.273Z</time></trkpt><trkpt lat="44.8513441" lon="7.7484199"><ele>244.66666666666666</ele><time>2026-05-01T08:57:13.273Z</time></trkpt><trkpt lat="44.8512903" lon="7.7481981"><ele>245.33333333333331</ele><time>2026-05-01T08:57:14.273Z</time></trkpt><trkpt lat="44.851225" lon="7.7479801"><ele>246.0</ele><time>2026-05-01T08:57:15.273Z</time></trkpt><trkpt lat="44.8511662" lon="7.7477722"><ele>245.75</ele><time>2026-05-01T08:57:16.273Z</time></trkpt><trkpt lat="44.8511069" lon="7.7475753"><ele>245.5</ele><time>2026-05-01T08:57:17.273Z</time></trkpt><trkpt lat="44.8510472" lon="7.7473894"><ele>245.25</ele><time>2026-05-01T08:57:18.273Z</time></trkpt><trkpt lat="44.8509931" lon="7.747198"><ele>245.0</ele><time>2026-05-01T08:57:19.273Z</time></trkpt><trkpt lat="44.8509369" lon="7.7470022"><ele>244.0</ele><time>2026-05-01T08:57:20.273Z</time></trkpt><trkpt lat="44.8508884" lon="7.7468019"><ele>243.0</ele><time>2026-05-01T08:57:21.273Z</time></trkpt><trkpt lat="44.8508315" lon="7.7466042"><ele>242.0</ele><time>2026-05-01T08:57:22.273Z</time></trkpt><trkpt lat="44.8507789" lon="7.7464016"><ele>242.0</ele><time>2026-05-01T08:57:23.273Z</time></trkpt><trkpt lat="44.8507264" lon="7.7462062"><ele>242.0</ele><time>2026-05-01T08:57:24.273Z</time></trkpt><trkpt lat="44.8506689" lon="7.746018"><ele>242.0</ele><time>2026-05-01T08:57:25.273Z</time></trkpt><trkpt lat="44.8506212" lon="7.7458389"><ele>242.0</ele><time>2026-05-01T08:57:26.273Z</time></trkpt><trkpt lat="44.8505798" lon="7.7456565"><ele>242.0</ele><time>2026-05-01T08:57:27.273Z</time></trkpt><trkpt lat="44.850541" lon="7.7454831"><ele>242.0</ele><time>2026-05-01T08:57:28.273Z</time></trkpt><trkpt lat="44.8504955" lon="7.7453222"><ele>242.0</ele><time>2026-05-01T08:57:29.273Z</time></trkpt><trkpt lat="44.8504681" lon="7.7451612"><ele>242.0</ele><time>2026-05-01T08:57:30.274Z</time></trkpt><trkpt lat="44.8504693" lon="7.7450084"><ele>242.0</ele><time>2026-05-01T08:57:31.273Z</time></trkpt><trkpt lat="44.8504995" lon="7.7448575"><ele>242.0</ele><time>2026-05-01T08:57:32.273Z</time></trkpt><trkpt lat="44.8505687" lon="7.7447306"><ele>242.0</ele><time>2026-05-01T08:57:33.273Z</time></trkpt><trkpt lat="44.8506653" lon="7.7446391"><ele>242.0</ele><time>2026-05-01T08:57:34.273Z</time></trkpt><trkpt lat="44.850779" lon="7.744586"><ele>242.0</ele><time>2026-05-01T08:57:35.273Z</time></trkpt><trkpt lat="44.8509048" lon="7.74456"><ele>242.0</ele><time>2026-05-01T08:57:36.273Z</time></trkpt><trkpt lat="44.8510361" lon="7.7445584"><ele>242.0</ele><time>2026-05-01T08:57:37.273Z</time></trkpt><trkpt lat="44.8511684" lon="7.7445796"><ele>242.0</ele><time>2026-05-01T08:57:38.273Z</time></trkpt><trkpt lat="44.8513027" lon="7.7446224"><ele>241.5</ele><time>2026-05-01T08:57:39.273Z</time></trkpt><trkpt lat="44.8514366" lon="7.7446602"><ele>241.0</ele><time>2026-05-01T08:57:40.273Z</time></trkpt><trkpt lat="44.8515733" lon="7.7446854"><ele>240.5</ele><time>2026-05-01T08:57:41.273Z</time></trkpt><trkpt lat="44.8517146" lon="7.7447161"><ele>240.0</ele><time>2026-05-01T08:57:42.274Z</time></trkpt><trkpt lat="44.8518563" lon="7.7447468"><ele>240.0</ele><time>2026-05-01T08:57:43.273Z</time></trkpt><trkpt lat="44.8519928" lon="7.74478"><ele>240.0</ele><time>2026-05-01T08:57:44.273Z</time></trkpt><trkpt lat="44.8521143" lon="7.744813"><ele>240.0</ele><time>2026-05-01T08:57:45.274Z</time></trkpt><trkpt lat="44.8522334" lon="7.7448466"><ele>240.0</ele><time>2026-05-01T08:57:46.273Z</time></trkpt><trkpt lat="44.8523484" lon="7.7448751"><ele>240.0</ele><time>2026-05-01T08:57:47.273Z</time></trkpt><trkpt lat="44.852457" lon="7.7449112"><ele>240.0</ele><time>2026-05-01T08:57:48.273Z</time></trkpt><trkpt lat="44.8525552" lon="7.7449669"><ele>240.0</ele><time>2026-05-01T08:57:49.273Z</time></trkpt><trkpt lat="44.8526247" lon="7.7450568"><ele>240.0</ele><time>2026-05-01T08:57:50.274Z</time></trkpt><trkpt lat="44.8526539" lon="7.7451664"><ele>240.0</ele><time>2026-05-01T08:57:51.274Z</time></trkpt><trkpt lat="44.8526582" lon="7.7452661"><ele>240.16666666666666</ele><time>2026-05-01T08:57:52.273Z</time></trkpt><trkpt lat="44.8526563" lon="7.7453627"><ele>240.33333333333331</ele><time>2026-05-01T08:57:53.273Z</time></trkpt><trkpt lat="44.8526538" lon="7.7454674"><ele>240.5</ele><time>2026-05-01T08:57:54.273Z</time></trkpt><trkpt lat="44.85265" lon="7.7455762"><ele>240.66666666666666</ele><time>2026-05-01T08:57:55.273Z</time></trkpt><trkpt lat="44.8526474" lon="7.745673"><ele>240.83333333333331</ele><time>2026-05-01T08:57:56.273Z</time></trkpt><trkpt lat="44.8526362" lon="7.7457672"><ele>241.0</ele><time>2026-05-01T08:57:57.273Z</time></trkpt><trkpt lat="44.8526051" lon="7.7459072"><ele>241.0</ele><time>2026-05-01T08:57:59.273Z</time></trkpt><trkpt lat="44.8525932" lon="7.7460038"><ele>241.00000000000003</ele><time>2026-05-01T08:58:02.274Z</time></trkpt><trkpt lat="44.8525317" lon="7.7461258"><ele>241.00000000000003</ele><time>2026-05-01T08:58:49.273Z</time></trkpt><trkpt lat="44.852513" lon="7.7462623"><ele>241.0</ele><time>2026-05-01T08:58:53.274Z</time></trkpt><trkpt lat="44.8524932" lon="7.7463947"><ele>241.0</ele><time>2026-05-01T08:58:54.273Z</time></trkpt><trkpt lat="44.8524691" lon="7.7465212"><ele>241.0</ele><time>2026-05-01T08:58:55.273Z</time></trkpt><trkpt lat="44.8524389" lon="7.7466355"><ele>241.00000000000003</ele><time>2026-05-01T08:58:56.273Z</time></trkpt><trkpt lat="44.8524133" lon="7.7467328"><ele>241.00000000000003</ele><time>2026-05-01T08:58:57.274Z</time></trkpt><trkpt lat="44.8523495" lon="7.746886"><ele>241.0</ele><time>2026-05-01T08:58:59.273Z</time></trkpt><trkpt lat="44.852307" lon="7.7469728"><ele>241.0</ele><time>2026-05-01T08:59:00.274Z</time></trkpt><trkpt lat="44.852242" lon="7.7471357"><ele>241.4</ele><time>2026-05-01T08:59:02.273Z</time></trkpt><trkpt lat="44.8522054" lon="7.7472227"><ele>241.8</ele><time>2026-05-01T08:59:03.273Z</time></trkpt><trkpt lat="44.8521611" lon="7.7473189"><ele>242.20000000000002</ele><time>2026-05-01T08:59:04.274Z</time></trkpt><trkpt lat="44.8521113" lon="7.7474331"><ele>242.60000000000002</ele><time>2026-05-01T08:59:05.273Z</time></trkpt><trkpt lat="44.8520563" lon="7.747557"><ele>243.0</ele><time>2026-05-01T08:59:06.273Z</time></trkpt><trkpt lat="44.8519977" lon="7.7476896"><ele>243.5</ele><time>2026-05-01T08:59:07.273Z</time></trkpt><trkpt lat="44.8519398" lon="7.7478289"><ele>244.0</ele><time>2026-05-01T08:59:08.273Z</time></trkpt><trkpt lat="44.851869" lon="7.7479742"><ele>244.5</ele><time>2026-05-01T08:59:09.273Z</time></trkpt><trkpt lat="44.8517953" lon="7.7481064"><ele>245.0</ele><time>2026-05-01T08:59:10.273Z</time></trkpt><trkpt lat="44.851717" lon="7.7482372"><ele>245.25</ele><time>2026-05-01T08:59:11.273Z</time></trkpt><trkpt lat="44.8516259" lon="7.7483415"><ele>245.5</ele><time>2026-05-01T08:59:12.273Z</time></trkpt><trkpt lat="44.8515142" lon="7.748419"><ele>245.75</ele><time>2026-05-01T08:59:13.273Z</time></trkpt><trkpt lat="44.8513936" lon="7.7484625"><ele>246.0</ele><time>2026-05-01T08:59:14.273Z</time></trkpt><trkpt lat="44.8512685" lon="7.748479"><ele>246.0</ele><time>2026-05-01T08:59:15.273Z</time></trkpt><trkpt lat="44.8511354" lon="7.7485043"><ele>246.0</ele><time>2026-05-01T08:59:16.273Z</time></trkpt><trkpt lat="44.8510115" lon="7.748536"><ele>246.0</ele><time>2026-05-01T08:59:17.273Z</time></trkpt><trkpt lat="44.8508849" lon="7.7485682"><ele>246.0</ele><time>2026-05-01T08:59:18.273Z</time></trkpt><trkpt lat="44.8507637" lon="7.7485967"><ele>245.5</ele><time>2026-05-01T08:59:19.273Z</time></trkpt><trkpt lat="44.8506377" lon="7.7486166"><ele>245.0</ele><time>2026-05-01T08:59:20.273Z</time></trkpt><trkpt lat="44.8505023" lon="7.748638"><ele>244.5</ele><time>2026-05-01T08:59:21.273Z</time></trkpt><trkpt lat="44.8503548" lon="7.7486592"><ele>244.0</ele><time>2026-05-01T08:59:22.274Z</time></trkpt><trkpt lat="44.8502012" lon="7.7486796"><ele>243.66666666666666</ele><time>2026-05-01T08:59:23.274Z</time></trkpt><trkpt lat="44.8500426" lon="7.7487026"><ele>243.33333333333331</ele><time>2026-05-01T08:59:24.273Z</time></trkpt><trkpt lat="44.8498776" lon="7.7487252"><ele>243.0</ele><time>2026-05-01T08:59:25.273Z</time></trkpt><trkpt lat="44.8497061" lon="7.7487472"><ele>243.0</ele><time>2026-05-01T08:59:26.273Z</time></trkpt><trkpt lat="44.8495351" lon="7.7487676"><ele>243.0</ele><time>2026-05-01T08:59:27.273Z</time></trkpt><trkpt lat="44.8493529" lon="7.7487871"><ele>243.0</ele><time>2026-05-01T08:59:28.273Z</time></trkpt><trkpt lat="44.8491699" lon="7.7488023"><ele>242.0</ele><time>2026-05-01T08:59:29.273Z</time></trkpt><trkpt lat="44.8489861" lon="7.7488159"><ele>241.0</ele><time>2026-05-01T08:59:30.273Z</time></trkpt><trkpt lat="44.8488047" lon="7.748825"><ele>240.0</ele><time>2026-05-01T08:59:31.273Z</time></trkpt><trkpt lat="44.8486188" lon="7.7488341"><ele>241.0</ele><time>2026-05-01T08:59:32.273Z</time></trkpt><trkpt lat="44.8484318" lon="7.7488568"><ele>242.0</ele><time>2026-05-01T08:59:33.273Z</time></trkpt><trkpt lat="44.8482355" lon="7.7488801"><ele>243.0</ele><time>2026-05-01T08:59:34.273Z</time></trkpt><trkpt lat="44.848033" lon="7.7489063"><ele>243.0</ele><time>2026-05-01T08:59:35.274Z</time></trkpt><trkpt lat="44.8478264" lon="7.7489182"><ele>243.0</ele><time>2026-05-01T08:59:36.273Z</time></trkpt><trkpt lat="44.8476276" lon="7.7489313"><ele>243.0</ele><time>2026-05-01T08:59:37.273Z</time></trkpt><trkpt lat="44.8474254" lon="7.7489403"><ele>243.66666666666669</ele><time>2026-05-01T08:59:38.273Z</time></trkpt><trkpt lat="44.8472201" lon="7.7489578"><ele>244.33333333333334</ele><time>2026-05-01T08:59:39.273Z</time></trkpt><trkpt lat="44.8470148" lon="7.7489761"><ele>245.0</ele><time>2026-05-01T08:59:40.273Z</time></trkpt><trkpt lat="44.8468067" lon="7.7489945"><ele>244.0</ele><time>2026-05-01T08:59:41.273Z</time></trkpt><trkpt lat="44.8465965" lon="7.7490094"><ele>243.0</ele><time>2026-05-01T08:59:42.273Z</time></trkpt><trkpt lat="44.8463863" lon="7.7490189"><ele>242.0</ele><time>2026-05-01T08:59:43.273Z</time></trkpt><trkpt lat="44.8461717" lon="7.7490322"><ele>242.33333333333334</ele><time>2026-05-01T08:59:44.273Z</time></trkpt><trkpt lat="44.8459609" lon="7.7490469"><ele>242.66666666666669</ele><time>2026-05-01T08:59:45.273Z</time></trkpt><trkpt lat="44.8457407" lon="7.7490627"><ele>243.0</ele><time>2026-05-01T08:59:46.273Z</time></trkpt><trkpt lat="44.8455191" lon="7.7490728"><ele>243.0</ele><time>2026-05-01T08:59:47.273Z</time></trkpt><trkpt lat="44.8452986" lon="7.7490871"><ele>243.0</ele><time>2026-05-01T08:59:48.273Z</time></trkpt><trkpt lat="44.8450799" lon="7.7491062"><ele>243.0</ele><time>2026-05-01T08:59:49.273Z</time></trkpt><trkpt lat="44.844857" lon="7.7491255"><ele>242.66666666666669</ele><time>2026-05-01T08:59:50.273Z</time></trkpt><trkpt lat="44.8446349" lon="7.7491426"><ele>242.33333333333334</ele><time>2026-05-01T08:59:51.273Z</time></trkpt><trkpt lat="44.8444116" lon="7.749158"><ele>242.0</ele><time>2026-05-01T08:59:52.273Z</time></trkpt><trkpt lat="44.8441867" lon="7.7491735"><ele>243.0</ele><time>2026-05-01T08:59:53.273Z</time></trkpt><trkpt lat="44.8439533" lon="7.74919"><ele>244.0</ele><time>2026-05-01T08:59:54.273Z</time></trkpt><trkpt lat="44.843727" lon="7.7492025"><ele>244.0</ele><time>2026-05-01T08:59:55.273Z</time></trkpt><trkpt lat="44.8434985" lon="7.7492171"><ele>244.0</ele><time>2026-05-01T08:59:56.273Z</time></trkpt><trkpt lat="44.8432672" lon="7.7492348"><ele>243.5</ele><time>2026-05-01T08:59:57.274Z</time></trkpt><trkpt lat="44.8430309" lon="7.749256"><ele>243.0</ele><time>2026-05-01T08:59:58.273Z</time></trkpt><trkpt lat="44.8427956" lon="7.7492784"><ele>243.5</ele><time>2026-05-01T08:59:59.273Z</time></trkpt><trkpt lat="44.842563" lon="7.7492909"><ele>244.0</ele><time>2026-05-01T09:00:00.273Z</time></trkpt><trkpt lat="44.8423298" lon="7.7493083"><ele>244.0</ele><time>2026-05-01T09:00:01.273Z</time></trkpt><trkpt lat="44.842092" lon="7.7493209"><ele>244.0</ele><time>2026-05-01T09:00:02.274Z</time></trkpt><trkpt lat="44.8418521" lon="7.7493356"><ele>243.5</ele><time>2026-05-01T09:00:03.273Z</time></trkpt><trkpt lat="44.8416147" lon="7.7493505"><ele>243.0</ele><time>2026-05-01T09:00:04.274Z</time></trkpt><trkpt lat="44.8413747" lon="7.749367"><ele>243.5</ele><time>2026-05-01T09:00:05.273Z</time></trkpt><trkpt lat="44.8411303" lon="7.749385"><ele>244.0</ele><time>2026-05-01T09:00:06.273Z</time></trkpt><trkpt lat="44.8408878" lon="7.7494047"><ele>244.0</ele><time>2026-05-01T09:00:07.273Z</time></trkpt><trkpt lat="44.8406389" lon="7.7494232"><ele>244.0</ele><time>2026-05-01T09:00:08.274Z</time></trkpt><trkpt lat="44.8403932" lon="7.7494388"><ele>244.0</ele><time>2026-05-01T09:00:09.273Z</time></trkpt><trkpt lat="44.8401521" lon="7.749461"><ele>244.0</ele><time>2026-05-01T09:00:10.273Z</time></trkpt><trkpt lat="44.8399064" lon="7.7494785"><ele>244.0</ele><time>2026-05-01T09:00:11.273Z</time></trkpt><trkpt lat="44.8396602" lon="7.749498"><ele>244.0</ele><time>2026-05-01T09:00:12.273Z</time></trkpt><trkpt lat="44.839417" lon="7.7495175"><ele>244.0</ele><time>2026-05-01T09:00:13.273Z</time></trkpt><trkpt lat="44.8391795" lon="7.749536"><ele>244.0</ele><time>2026-05-01T09:00:14.273Z</time></trkpt><trkpt lat="44.8389358" lon="7.749553"><ele>244.0</ele><time>2026-05-01T09:00:15.273Z</time></trkpt><trkpt lat="44.8386966" lon="7.749571"><ele>244.0</ele><time>2026-05-01T09:00:16.273Z</time></trkpt><trkpt lat="44.8384581" lon="7.7495912"><ele>245.0</ele><time>2026-05-01T09:00:17.273Z</time></trkpt><trkpt lat="44.8382267" lon="7.7496098"><ele>246.0</ele><time>2026-05-01T09:00:18.273Z</time></trkpt><trkpt lat="44.837988" lon="7.7496156"><ele>246.0</ele><time>2026-05-01T09:00:19.273Z</time></trkpt><trkpt lat="44.8377467" lon="7.7496347"><ele>246.0</ele><time>2026-05-01T09:00:20.273Z</time></trkpt><trkpt lat="44.8375023" lon="7.7496514"><ele>244.5</ele><time>2026-05-01T09:00:21.273Z</time></trkpt><trkpt lat="44.8372573" lon="7.7496736"><ele>243.0</ele><time>2026-05-01T09:00:22.273Z</time></trkpt><trkpt lat="44.8370164" lon="7.7496912"><ele>243.5</ele><time>2026-05-01T09:00:23.273Z</time></trkpt><trkpt lat="44.8367662" lon="7.7497057"><ele>244.0</ele><time>2026-05-01T09:00:24.273Z</time></trkpt><trkpt lat="44.8365171" lon="7.7497192"><ele>244.0</ele><time>2026-05-01T09:00:25.273Z</time></trkpt><trkpt lat="44.8362548" lon="7.7497425"><ele>244.0</ele><time>2026-05-01T09:00:26.273Z</time></trkpt><trkpt lat="44.8359862" lon="7.7497712"><ele>244.5</ele><time>2026-05-01T09:00:27.273Z</time></trkpt><trkpt lat="44.8357094" lon="7.7498022"><ele>245.0</ele><time>2026-05-01T09:00:28.273Z</time></trkpt><trkpt lat="44.8354301" lon="7.7498338"><ele>245.0</ele><time>2026-05-01T09:00:29.273Z</time></trkpt><trkpt lat="44.8351507" lon="7.7498617"><ele>245.0</ele><time>2026-05-01T09:00:30.274Z</time></trkpt><trkpt lat="44.8348677" lon="7.7498858"><ele>245.0</ele><time>2026-05-01T09:00:31.273Z</time></trkpt><trkpt lat="44.8345746" lon="7.7498997"><ele>245.0</ele><time>2026-05-01T09:00:32.274Z</time></trkpt><trkpt lat="44.8342849" lon="7.7499202"><ele>245.5</ele><time>2026-05-01T09:00:33.273Z</time></trkpt><trkpt lat="44.8339936" lon="7.7499414"><ele>246.0</ele><time>2026-05-01T09:00:34.273Z</time></trkpt><trkpt lat="44.8337004" lon="7.7499548"><ele>245.5</ele><time>2026-05-01T09:00:35.273Z</time></trkpt><trkpt lat="44.8334102" lon="7.7499763"><ele>245.0</ele><time>2026-05-01T09:00:36.273Z</time></trkpt><trkpt lat="44.8331185" lon="7.7499969"><ele>245.0</ele><time>2026-05-01T09:00:37.273Z</time></trkpt><trkpt lat="44.8328269" lon="7.750017"><ele>245.0</ele><time>2026-05-01T09:00:38.273Z</time></trkpt><trkpt lat="44.832538" lon="7.7500355"><ele>245.0</ele><time>2026-05-01T09:00:39.273Z</time></trkpt><trkpt lat="44.8322436" lon="7.7500539"><ele>245.0</ele><time>2026-05-01T09:00:40.273Z</time></trkpt><trkpt lat="44.8319472" lon="7.7500751"><ele>245.5</ele><time>2026-05-01T09:00:41.274Z</time></trkpt><trkpt lat="44.8316487" lon="7.7500953"><ele>246.0</ele><time>2026-05-01T09:00:42.273Z</time></trkpt><trkpt lat="44.8313474" lon="7.7501224"><ele>246.0</ele><time>2026-05-01T09:00:43.273Z</time></trkpt><trkpt lat="44.831047" lon="7.7501463"><ele>246.0</ele><time>2026-05-01T09:00:44.273Z</time></trkpt><trkpt lat="44.8307467" lon="7.7501698"><ele>246.0</ele><time>2026-05-01T09:00:45.273Z</time></trkpt><trkpt lat="44.8304436" lon="7.7501929"><ele>246.0</ele><time>2026-05-01T09:00:46.273Z</time></trkpt><trkpt lat="44.830146" lon="7.7502176"><ele>245.0</ele><time>2026-05-01T09:00:47.273Z</time></trkpt><trkpt lat="44.8298492" lon="7.7502343"><ele>244.0</ele><time>2026-05-01T09:00:48.273Z</time></trkpt><trkpt lat="44.8295484" lon="7.750251"><ele>244.5</ele><time>2026-05-01T09:00:49.273Z</time></trkpt><trkpt lat="44.8292483" lon="7.7502595"><ele>245.0</ele><time>2026-05-01T09:00:50.273Z</time></trkpt><trkpt lat="44.8289484" lon="7.7502679"><ele>245.0</ele><time>2026-05-01T09:00:51.273Z</time></trkpt><trkpt lat="44.8286498" lon="7.750279"><ele>245.0</ele><time>2026-05-01T09:00:52.273Z</time></trkpt><trkpt lat="44.8283503" lon="7.7502962"><ele>245.5</ele><time>2026-05-01T09:00:53.274Z</time></trkpt><trkpt lat="44.8280504" lon="7.7503141"><ele>246.0</ele><time>2026-05-01T09:00:54.273Z</time></trkpt><trkpt lat="44.8277545" lon="7.750331"><ele>246.5</ele><time>2026-05-01T09:00:55.273Z</time></trkpt><trkpt lat="44.8274612" lon="7.750349"><ele>247.0</ele><time>2026-05-01T09:00:56.273Z</time></trkpt><trkpt lat="44.8271667" lon="7.7503729"><ele>247.0</ele><time>2026-05-01T09:00:57.273Z</time></trkpt><trkpt lat="44.8268718" lon="7.7503935"><ele>247.0</ele><time>2026-05-01T09:00:58.273Z</time></trkpt><trkpt lat="44.8265826" lon="7.750415"><ele>246.5</ele><time>2026-05-01T09:00:59.273Z</time></trkpt><trkpt lat="44.8262928" lon="7.7504406"><ele>246.0</ele><time>2026-05-01T09:01:00.273Z</time></trkpt><trkpt lat="44.8260044" lon="7.7504629"><ele>245.0</ele><time>2026-05-01T09:01:01.273Z</time></trkpt><trkpt lat="44.8257148" lon="7.7504807"><ele>244.0</ele><time>2026-05-01T09:01:02.273Z</time></trkpt><trkpt lat="44.8254222" lon="7.7505031"><ele>245.0</ele><time>2026-05-01T09:01:03.274Z</time></trkpt><trkpt lat="44.8251346" lon="7.7505264"><ele>246.0</ele><time>2026-05-01T09:01:04.273Z</time></trkpt><trkpt lat="44.8248437" lon="7.7505535"><ele>246.0</ele><time>2026-05-01T09:01:05.274Z</time></trkpt><trkpt lat="44.8245502" lon="7.750575"><ele>246.0</ele><time>2026-05-01T09:01:06.273Z</time></trkpt><trkpt lat="44.8242581" lon="7.7505896"><ele>245.5</ele><time>2026-05-01T09:01:07.274Z</time></trkpt><trkpt lat="44.8239607" lon="7.7506074"><ele>245.0</ele><time>2026-05-01T09:01:08.273Z</time></trkpt><trkpt lat="44.8236653" lon="7.7506284"><ele>246.0</ele><time>2026-05-01T09:01:09.273Z</time></trkpt><trkpt lat="44.8233701" lon="7.7506458"><ele>247.0</ele><time>2026-05-01T09:01:10.273Z</time></trkpt><trkpt lat="44.8230766" lon="7.750664"><ele>247.0</ele><time>2026-05-01T09:01:11.273Z</time></trkpt><trkpt lat="44.8227803" lon="7.7506879"><ele>247.0</ele><time>2026-05-01T09:01:12.273Z</time></trkpt><trkpt lat="44.8224894" lon="7.7507072"><ele>249.0</ele><time>2026-05-01T09:01:13.273Z</time></trkpt><trkpt lat="44.8221965" lon="7.750727"><ele>251.0</ele><time>2026-05-01T09:01:14.273Z</time></trkpt><trkpt lat="44.8219003" lon="7.7507526"><ele>249.0</ele><time>2026-05-01T09:01:15.273Z</time></trkpt><trkpt lat="44.8216079" lon="7.7507749"><ele>247.0</ele><time>2026-05-01T09:01:16.273Z</time></trkpt><trkpt lat="44.8213103" lon="7.7507953"><ele>247.0</ele><time>2026-05-01T09:01:17.273Z</time></trkpt><trkpt lat="44.8210133" lon="7.7508168"><ele>247.0</ele><time>2026-05-01T09:01:18.273Z</time></trkpt><trkpt lat="44.820718" lon="7.7508356"><ele>247.0</ele><time>2026-05-01T09:01:19.273Z</time></trkpt><trkpt lat="44.8204216" lon="7.7508582"><ele>247.0</ele><time>2026-05-01T09:01:20.273Z</time></trkpt><trkpt lat="44.820125" lon="7.7508814"><ele>247.5</ele><time>2026-05-01T09:01:21.273Z</time></trkpt><trkpt lat="44.8198255" lon="7.7509005"><ele>248.0</ele><time>2026-05-01T09:01:22.273Z</time></trkpt><trkpt lat="44.8195284" lon="7.750919"><ele>247.5</ele><time>2026-05-01T09:01:23.273Z</time></trkpt><trkpt lat="44.8192359" lon="7.7509374"><ele>247.0</ele><time>2026-05-01T09:01:24.273Z</time></trkpt><trkpt lat="44.8189385" lon="7.7509542"><ele>247.0</ele><time>2026-05-01T09:01:25.273Z</time></trkpt><trkpt lat="44.8186447" lon="7.7509752"><ele>247.0</ele><time>2026-05-01T09:01:26.273Z</time></trkpt><trkpt lat="44.8183457" lon="7.7509953"><ele>247.0</ele><time>2026-05-01T09:01:27.273Z</time></trkpt><trkpt lat="44.8180515" lon="7.7510168"><ele>247.0</ele><time>2026-05-01T09:01:28.273Z</time></trkpt><trkpt lat="44.8177525" lon="7.7510353"><ele>248.0</ele><time>2026-05-01T09:01:29.273Z</time></trkpt><trkpt lat="44.8174624" lon="7.751055"><ele>249.0</ele><time>2026-05-01T09:01:30.273Z</time></trkpt><trkpt lat="44.8171665" lon="7.7510739"><ele>249.0</ele><time>2026-05-01T09:01:31.273Z</time></trkpt><trkpt lat="44.8168717" lon="7.7510965"><ele>249.0</ele><time>2026-05-01T09:01:32.273Z</time></trkpt><trkpt lat="44.8165737" lon="7.7511225"><ele>249.5</ele><time>2026-05-01T09:01:33.273Z</time></trkpt><trkpt lat="44.8162753" lon="7.7511475"><ele>250.0</ele><time>2026-05-01T09:01:34.273Z</time></trkpt><trkpt lat="44.8159739" lon="7.7511753"><ele>251.0</ele><time>2026-05-01T09:01:35.273Z</time></trkpt><trkpt lat="44.8156689" lon="7.7511966"><ele>252.0</ele><time>2026-05-01T09:01:36.273Z</time></trkpt><trkpt lat="44.8153647" lon="7.7512154"><ele>251.0</ele><time>2026-05-01T09:01:37.273Z</time></trkpt><trkpt lat="44.8150564" lon="7.751237"><ele>250.0</ele><time>2026-05-01T09:01:38.273Z</time></trkpt><trkpt lat="44.8147478" lon="7.7512642"><ele>250.0</ele><time>2026-05-01T09:01:39.273Z</time></trkpt><trkpt lat="44.8144351" lon="7.7512964"><ele>250.0</ele><time>2026-05-01T09:01:40.273Z</time></trkpt><trkpt lat="44.8141217" lon="7.7513239"><ele>250.0</ele><time>2026-05-01T09:01:41.273Z</time></trkpt><trkpt lat="44.8138097" lon="7.751348"><ele>250.0</ele><time>2026-05-01T09:01:42.273Z</time></trkpt><trkpt lat="44.8135015" lon="7.7513741"><ele>250.0</ele><time>2026-05-01T09:01:43.273Z</time></trkpt><trkpt lat="44.8131995" lon="7.7513992"><ele>250.0</ele><time>2026-05-01T09:01:44.273Z</time></trkpt><trkpt lat="44.8129029" lon="7.7514228"><ele>250.5</ele><time>2026-05-01T09:01:45.273Z</time></trkpt><trkpt lat="44.8126099" lon="7.7514393"><ele>251.0</ele><time>2026-05-01T09:01:46.273Z</time></trkpt><trkpt lat="44.8123227" lon="7.7514545"><ele>251.0</ele><time>2026-05-01T09:01:47.274Z</time></trkpt><trkpt lat="44.8120388" lon="7.7514766"><ele>251.0</ele><time>2026-05-01T09:01:48.273Z</time></trkpt><trkpt lat="44.8117441" lon="7.7514983"><ele>250.5</ele><time>2026-05-01T09:01:49.273Z</time></trkpt><trkpt lat="44.8114533" lon="7.7515225"><ele>250.0</ele><time>2026-05-01T09:01:50.273Z</time></trkpt><trkpt lat="44.8111619" lon="7.7515406"><ele>250.0</ele><time>2026-05-01T09:01:51.273Z</time></trkpt><trkpt lat="44.8108688" lon="7.7515576"><ele>250.0</ele><time>2026-05-01T09:01:52.273Z</time></trkpt><trkpt lat="44.8105784" lon="7.7515771"><ele>250.0</ele><time>2026-05-01T09:01:53.273Z</time></trkpt><trkpt lat="44.8102896" lon="7.7516012"><ele>250.0</ele><time>2026-05-01T09:01:54.273Z</time></trkpt><trkpt lat="44.8099983" lon="7.7516219"><ele>251.5</ele><time>2026-05-01T09:01:55.273Z</time></trkpt><trkpt lat="44.809708" lon="7.751642"><ele>253.0</ele><time>2026-05-01T09:01:56.273Z</time></trkpt><trkpt lat="44.8094168" lon="7.751662"><ele>253.5</ele><time>2026-05-01T09:01:57.273Z</time></trkpt><trkpt lat="44.8091254" lon="7.7516791"><ele>254.0</ele><time>2026-05-01T09:01:58.273Z</time></trkpt><trkpt lat="44.8088394" lon="7.7516973"><ele>254.0</ele><time>2026-05-01T09:01:59.273Z</time></trkpt><trkpt lat="44.8085486" lon="7.7517088"><ele>254.0</ele><time>2026-05-01T09:02:00.273Z</time></trkpt><trkpt lat="44.8082597" lon="7.7517177"><ele>253.5</ele><time>2026-05-01T09:02:01.273Z</time></trkpt><trkpt lat="44.8079674" lon="7.7517289"><ele>253.0</ele><time>2026-05-01T09:02:02.273Z</time></trkpt><trkpt lat="44.8076771" lon="7.7517419"><ele>253.5</ele><time>2026-05-01T09:02:03.273Z</time></trkpt><trkpt lat="44.8073941" lon="7.7517647"><ele>254.0</ele><time>2026-05-01T09:02:04.273Z</time></trkpt><trkpt lat="44.8071097" lon="7.7517877"><ele>254.5</ele><time>2026-05-01T09:02:05.273Z</time></trkpt><trkpt lat="44.8068247" lon="7.7518082"><ele>255.0</ele><time>2026-05-01T09:02:06.274Z</time></trkpt><trkpt lat="44.8065398" lon="7.7518324"><ele>255.0</ele><time>2026-05-01T09:02:07.273Z</time></trkpt><trkpt lat="44.8062565" lon="7.751852"><ele>255.0</ele><time>2026-05-01T09:02:08.273Z</time></trkpt><trkpt lat="44.805972" lon="7.7518719"><ele>254.0</ele><time>2026-05-01T09:02:09.273Z</time></trkpt><trkpt lat="44.8056916" lon="7.751893"><ele>253.0</ele><time>2026-05-01T09:02:10.273Z</time></trkpt><trkpt lat="44.8054102" lon="7.7519117"><ele>252.5</ele><time>2026-05-01T09:02:11.274Z</time></trkpt><trkpt lat="44.8051345" lon="7.7519318"><ele>252.0</ele><time>2026-05-01T09:02:12.273Z</time></trkpt><trkpt lat="44.8048524" lon="7.7519476"><ele>252.0</ele><time>2026-05-01T09:02:13.273Z</time></trkpt><trkpt lat="44.8045736" lon="7.7519669"><ele>252.0</ele><time>2026-05-01T09:02:14.273Z</time></trkpt><trkpt lat="44.8042997" lon="7.7519854"><ele>252.5</ele><time>2026-05-01T09:02:15.273Z</time></trkpt><trkpt lat="44.8040233" lon="7.7520037"><ele>253.0</ele><time>2026-05-01T09:02:16.273Z</time></trkpt><trkpt lat="44.8037497" lon="7.7520234"><ele>253.0</ele><time>2026-05-01T09:02:17.274Z</time></trkpt><trkpt lat="44.8034764" lon="7.7520406"><ele>253.0</ele><time>2026-05-01T09:02:18.274Z</time></trkpt><trkpt lat="44.8032044" lon="7.7520626"><ele>253.0</ele><time>2026-05-01T09:02:19.273Z</time></trkpt><trkpt lat="44.8029299" lon="7.7520843"><ele>253.0</ele><time>2026-05-01T09:02:20.273Z</time></trkpt><trkpt lat="44.8026536" lon="7.752106"><ele>253.0</ele><time>2026-05-01T09:02:21.273Z</time></trkpt><trkpt lat="44.8023798" lon="7.7521277"><ele>253.0</ele><time>2026-05-01T09:02:22.273Z</time></trkpt><trkpt lat="44.8021049" lon="7.7521455"><ele>253.0</ele><time>2026-05-01T09:02:23.273Z</time></trkpt><trkpt lat="44.8018268" lon="7.7521652"><ele>253.0</ele><time>2026-05-01T09:02:24.273Z</time></trkpt><trkpt lat="44.8015439" lon="7.7521851"><ele>253.0</ele><time>2026-05-01T09:02:25.273Z</time></trkpt><trkpt lat="44.8012619" lon="7.7522066"><ele>253.0</ele><time>2026-05-01T09:02:26.273Z</time></trkpt><trkpt lat="44.8009862" lon="7.7522197"><ele>253.5</ele><time>2026-05-01T09:02:27.273Z</time></trkpt><trkpt lat="44.8007144" lon="7.75224"><ele>254.0</ele><time>2026-05-01T09:02:28.273Z</time></trkpt><trkpt lat="44.8004389" lon="7.7522695"><ele>254.0</ele><time>2026-05-01T09:02:29.274Z</time></trkpt><trkpt lat="44.8001698" lon="7.7523019"><ele>254.0</ele><time>2026-05-01T09:02:30.273Z</time></trkpt><trkpt lat="44.7998985" lon="7.7523308"><ele>254.5</ele><time>2026-05-01T09:02:31.273Z</time></trkpt><trkpt lat="44.7996267" lon="7.7523621"><ele>255.0</ele><time>2026-05-01T09:02:32.273Z</time></trkpt><trkpt lat="44.7993504" lon="7.7523857"><ele>255.0</ele><time>2026-05-01T09:02:33.273Z</time></trkpt><trkpt lat="44.7990721" lon="7.7524105"><ele>255.0</ele><time>2026-05-01T09:02:34.273Z</time></trkpt><trkpt lat="44.7987938" lon="7.7524274"><ele>255.0</ele><time>2026-05-01T09:02:35.273Z</time></trkpt><trkpt lat="44.7985198" lon="7.7524384"><ele>255.0</ele><time>2026-05-01T09:02:36.273Z</time></trkpt><trkpt lat="44.7982465" lon="7.7524556"><ele>255.0</ele><time>2026-05-01T09:02:37.273Z</time></trkpt><trkpt lat="44.7979716" lon="7.7524752"><ele>255.0</ele><time>2026-05-01T09:02:38.274Z</time></trkpt><trkpt lat="44.7976994" lon="7.7524951"><ele>255.5</ele><time>2026-05-01T09:02:39.273Z</time></trkpt><trkpt lat="44.7974229" lon="7.7525081"><ele>256.0</ele><time>2026-05-01T09:02:40.273Z</time></trkpt><trkpt lat="44.7971429" lon="7.7525242"><ele>256.0</ele><time>2026-05-01T09:02:41.273Z</time></trkpt><trkpt lat="44.7968601" lon="7.7525408"><ele>256.0</ele><time>2026-05-01T09:02:42.273Z</time></trkpt><trkpt lat="44.7965729" lon="7.7525645"><ele>256.0</ele><time>2026-05-01T09:02:43.273Z</time></trkpt><trkpt lat="44.796292" lon="7.752585"><ele>256.0</ele><time>2026-05-01T09:02:44.273Z</time></trkpt><trkpt lat="44.7960146" lon="7.7526051"><ele>255.5</ele><time>2026-05-01T09:02:45.273Z</time></trkpt><trkpt lat="44.7957368" lon="7.7526237"><ele>255.0</ele><time>2026-05-01T09:02:46.273Z</time></trkpt><trkpt lat="44.7954601" lon="7.7526491"><ele>255.0</ele><time>2026-05-01T09:02:47.273Z</time></trkpt><trkpt lat="44.7951881" lon="7.7526737"><ele>255.0</ele><time>2026-05-01T09:02:48.273Z</time></trkpt><trkpt lat="44.7949196" lon="7.7526944"><ele>255.0</ele><time>2026-05-01T09:02:49.273Z</time></trkpt><trkpt lat="44.7946498" lon="7.7527061"><ele>255.0</ele><time>2026-05-01T09:02:50.273Z</time></trkpt><trkpt lat="44.7943832" lon="7.7527251"><ele>253.5</ele><time>2026-05-01T09:02:51.273Z</time></trkpt><trkpt lat="44.7941196" lon="7.7527435"><ele>252.0</ele><time>2026-05-01T09:02:52.273Z</time></trkpt><trkpt lat="44.7938564" lon="7.7527675"><ele>252.0</ele><time>2026-05-01T09:02:53.273Z</time></trkpt><trkpt lat="44.7935885" lon="7.7527839"><ele>252.0</ele><time>2026-05-01T09:02:54.273Z</time></trkpt><trkpt lat="44.7933158" lon="7.7527992"><ele>252.0</ele><time>2026-05-01T09:02:55.273Z</time></trkpt><trkpt lat="44.7930423" lon="7.7528199"><ele>252.0</ele><time>2026-05-01T09:02:56.273Z</time></trkpt><trkpt lat="44.7927703" lon="7.7528385"><ele>253.0</ele><time>2026-05-01T09:02:57.273Z</time></trkpt><trkpt lat="44.7925" lon="7.7528514"><ele>254.0</ele><time>2026-05-01T09:02:58.273Z</time></trkpt><trkpt lat="44.7922284" lon="7.7528674"><ele>254.0</ele><time>2026-05-01T09:02:59.273Z</time></trkpt><trkpt lat="44.7919581" lon="7.7528882"><ele>254.0</ele><time>2026-05-01T09:03:00.273Z</time></trkpt><trkpt lat="44.7916849" lon="7.752914"><ele>253.5</ele><time>2026-05-01T09:03:01.273Z</time></trkpt><trkpt lat="44.7914127" lon="7.7529321"><ele>253.0</ele><time>2026-05-01T09:03:02.273Z</time></trkpt><trkpt lat="44.7911366" lon="7.7529518"><ele>253.5</ele><time>2026-05-01T09:03:03.273Z</time></trkpt><trkpt lat="44.790857" lon="7.7529746"><ele>254.0</ele><time>2026-05-01T09:03:04.273Z</time></trkpt><trkpt lat="44.7905782" lon="7.7529936"><ele>254.0</ele><time>2026-05-01T09:03:05.274Z</time></trkpt><trkpt lat="44.7902967" lon="7.7530163"><ele>254.0</ele><time>2026-05-01T09:03:06.273Z</time></trkpt><trkpt lat="44.7900091" lon="7.7530326"><ele>254.5</ele><time>2026-05-01T09:03:07.274Z</time></trkpt><trkpt lat="44.7897192" lon="7.7530491"><ele>255.0</ele><time>2026-05-01T09:03:08.273Z</time></trkpt><trkpt lat="44.7894274" lon="7.7530659"><ele>254.5</ele><time>2026-05-01T09:03:09.273Z</time></trkpt><trkpt lat="44.7891428" lon="7.7530702"><ele>254.0</ele><time>2026-05-01T09:03:10.273Z</time></trkpt><trkpt lat="44.7888515" lon="7.7530821"><ele>254.0</ele><time>2026-05-01T09:03:11.273Z</time></trkpt><trkpt lat="44.7885755" lon="7.75308"><ele>254.0</ele><time>2026-05-01T09:03:12.273Z</time></trkpt><trkpt lat="44.7883109" lon="7.7530741"><ele>255.5</ele><time>2026-05-01T09:03:13.273Z</time></trkpt><trkpt lat="44.7880411" lon="7.7530763"><ele>257.0</ele><time>2026-05-01T09:03:14.274Z</time></trkpt><trkpt lat="44.7877671" lon="7.7530738"><ele>256.0</ele><time>2026-05-01T09:03:15.273Z</time></trkpt><trkpt lat="44.7874965" lon="7.7530734"><ele>255.0</ele><time>2026-05-01T09:03:16.273Z</time></trkpt><trkpt lat="44.7872232" lon="7.7530733"><ele>255.0</ele><time>2026-05-01T09:03:17.273Z</time></trkpt><trkpt lat="44.786947" lon="7.7530652"><ele>255.0</ele><time>2026-05-01T09:03:18.273Z</time></trkpt><trkpt lat="44.7866718" lon="7.7530513"><ele>254.0</ele><time>2026-05-01T09:03:19.273Z</time></trkpt><trkpt lat="44.786391" lon="7.7530354"><ele>253.0</ele><time>2026-05-01T09:03:20.273Z</time></trkpt><trkpt lat="44.7861051" lon="7.7530231"><ele>253.5</ele><time>2026-05-01T09:03:21.273Z</time></trkpt><trkpt lat="44.7858295" lon="7.7530043"><ele>254.0</ele><time>2026-05-01T09:03:22.273Z</time></trkpt><trkpt lat="44.7855527" lon="7.7529831"><ele>254.0</ele><time>2026-05-01T09:03:23.273Z</time></trkpt><trkpt lat="44.7852734" lon="7.7529576"><ele>254.0</ele><time>2026-05-01T09:03:24.273Z</time></trkpt><trkpt lat="44.7849962" lon="7.7529255"><ele>254.5</ele><time>2026-05-01T09:03:25.274Z</time></trkpt><trkpt lat="44.7847194" lon="7.752894"><ele>255.0</ele><time>2026-05-01T09:03:26.273Z</time></trkpt><trkpt lat="44.7844373" lon="7.752861"><ele>255.0</ele><time>2026-05-01T09:03:27.273Z</time></trkpt><trkpt lat="44.7841639" lon="7.7528306"><ele>255.0</ele><time>2026-05-01T09:03:28.273Z</time></trkpt><trkpt lat="44.7838908" lon="7.7528005"><ele>255.0</ele><time>2026-05-01T09:03:29.273Z</time></trkpt><trkpt lat="44.7836174" lon="7.7527666"><ele>255.0</ele><time>2026-05-01T09:03:30.273Z</time></trkpt><trkpt lat="44.7833371" lon="7.7527374"><ele>255.0</ele><time>2026-05-01T09:03:31.273Z</time></trkpt><trkpt lat="44.7830599" lon="7.7527005"><ele>255.0</ele><time>2026-05-01T09:03:32.273Z</time></trkpt><trkpt lat="44.7827805" lon="7.7526666"><ele>256.5</ele><time>2026-05-01T09:03:33.274Z</time></trkpt><trkpt lat="44.7825034" lon="7.7526343"><ele>258.0</ele><time>2026-05-01T09:03:34.273Z</time></trkpt><trkpt lat="44.7822266" lon="7.7526011"><ele>258.0</ele><time>2026-05-01T09:03:35.273Z</time></trkpt><trkpt lat="44.7819473" lon="7.7525678"><ele>258.0</ele><time>2026-05-01T09:03:36.273Z</time></trkpt><trkpt lat="44.7816671" lon="7.7525373"><ele>258.0</ele><time>2026-05-01T09:03:37.274Z</time></trkpt><trkpt lat="44.7813929" lon="7.7525058"><ele>258.0</ele><time>2026-05-01T09:03:38.273Z</time></trkpt><trkpt lat="44.781121" lon="7.7524809"><ele>257.5</ele><time>2026-05-01T09:03:39.273Z</time></trkpt><trkpt lat="44.7808478" lon="7.7524544"><ele>257.0</ele><time>2026-05-01T09:03:40.274Z</time></trkpt><trkpt lat="44.7805731" lon="7.7524363"><ele>257.0</ele><time>2026-05-01T09:03:41.273Z</time></trkpt><trkpt lat="44.7802926" lon="7.7524109"><ele>257.0</ele><time>2026-05-01T09:03:42.273Z</time></trkpt><trkpt lat="44.7800152" lon="7.7523862"><ele>256.0</ele><time>2026-05-01T09:03:43.273Z</time></trkpt><trkpt lat="44.7797425" lon="7.7523556"><ele>255.0</ele><time>2026-05-01T09:03:44.273Z</time></trkpt><trkpt lat="44.779462" lon="7.7523255"><ele>254.5</ele><time>2026-05-01T09:03:45.273Z</time></trkpt><trkpt lat="44.7791819" lon="7.7522955"><ele>254.0</ele><time>2026-05-01T09:03:46.273Z</time></trkpt><trkpt lat="44.778903" lon="7.7522711"><ele>254.0</ele><time>2026-05-01T09:03:47.273Z</time></trkpt><trkpt lat="44.7786246" lon="7.752242"><ele>254.0</ele><time>2026-05-01T09:03:48.273Z</time></trkpt><trkpt lat="44.7783432" lon="7.7522103"><ele>254.5</ele><time>2026-05-01T09:03:49.273Z</time></trkpt><trkpt lat="44.7780575" lon="7.7521818"><ele>255.0</ele><time>2026-05-01T09:03:50.273Z</time></trkpt><trkpt lat="44.7777737" lon="7.7521521"><ele>255.5</ele><time>2026-05-01T09:03:51.273Z</time></trkpt><trkpt lat="44.7774917" lon="7.7521263"><ele>256.0</ele><time>2026-05-01T09:03:52.273Z</time></trkpt><trkpt lat="44.7772114" lon="7.7521054"><ele>256.0</ele><time>2026-05-01T09:03:53.273Z</time></trkpt><trkpt lat="44.7769272" lon="7.7520754"><ele>256.0</ele><time>2026-05-01T09:03:54.273Z</time></trkpt><trkpt lat="44.776648" lon="7.7520469"><ele>255.0</ele><time>2026-05-01T09:03:55.273Z</time></trkpt><trkpt lat="44.776371" lon="7.7520224"><ele>254.0</ele><time>2026-05-01T09:03:56.273Z</time></trkpt><trkpt lat="44.7760944" lon="7.7519961"><ele>255.0</ele><time>2026-05-01T09:03:57.274Z</time></trkpt><trkpt lat="44.7758194" lon="7.7519628"><ele>256.0</ele><time>2026-05-01T09:03:58.273Z</time></trkpt><trkpt lat="44.7755461" lon="7.7519347"><ele>256.0</ele><time>2026-05-01T09:03:59.273Z</time></trkpt><trkpt lat="44.7752685" lon="7.7519092"><ele>256.0</ele><time>2026-05-01T09:04:00.274Z</time></trkpt><trkpt lat="44.7749916" lon="7.7518761"><ele>255.0</ele><time>2026-05-01T09:04:01.273Z</time></trkpt><trkpt lat="44.774706" lon="7.7518441"><ele>254.0</ele><time>2026-05-01T09:04:02.273Z</time></trkpt><trkpt lat="44.7744263" lon="7.751818"><ele>254.0</ele><time>2026-05-01T09:04:03.273Z</time></trkpt><trkpt lat="44.7741475" lon="7.7517872"><ele>254.0</ele><time>2026-05-01T09:04:04.273Z</time></trkpt><trkpt lat="44.7738604" lon="7.7517599"><ele>254.0</ele><time>2026-05-01T09:04:05.273Z</time></trkpt><trkpt lat="44.7735707" lon="7.7517342"><ele>254.0</ele><time>2026-05-01T09:04:06.273Z</time></trkpt><trkpt lat="44.7732804" lon="7.7517051"><ele>254.0</ele><time>2026-05-01T09:04:07.274Z</time></trkpt><trkpt lat="44.772989" lon="7.7516781"><ele>254.0</ele><time>2026-05-01T09:04:08.274Z</time></trkpt><trkpt lat="44.7726989" lon="7.7516527"><ele>255.0</ele><time>2026-05-01T09:04:09.273Z</time></trkpt><trkpt lat="44.7724191" lon="7.7516246"><ele>256.0</ele><time>2026-05-01T09:04:10.273Z</time></trkpt><trkpt lat="44.7721381" lon="7.751595"><ele>256.0</ele><time>2026-05-01T09:04:11.273Z</time></trkpt><trkpt lat="44.7718598" lon="7.7515654"><ele>256.0</ele><time>2026-05-01T09:04:12.273Z</time></trkpt><trkpt lat="44.7715786" lon="7.7515354"><ele>255.5</ele><time>2026-05-01T09:04:13.273Z</time></trkpt><trkpt lat="44.7712929" lon="7.7515069"><ele>255.0</ele><time>2026-05-01T09:04:14.273Z</time></trkpt><trkpt lat="44.7710078" lon="7.7514757"><ele>256.5</ele><time>2026-05-01T09:04:15.273Z</time></trkpt><trkpt lat="44.7707328" lon="7.7514427"><ele>258.0</ele><time>2026-05-01T09:04:16.274Z</time></trkpt><trkpt lat="44.7704621" lon="7.7514147"><ele>257.5</ele><time>2026-05-01T09:04:17.273Z</time></trkpt><trkpt lat="44.7701912" lon="7.7513854"><ele>257.0</ele><time>2026-05-01T09:04:18.273Z</time></trkpt><trkpt lat="44.7699153" lon="7.7513608"><ele>257.0</ele><time>2026-05-01T09:04:19.273Z</time></trkpt><trkpt lat="44.7696386" lon="7.7513348"><ele>257.0</ele><time>2026-05-01T09:04:20.274Z</time></trkpt><trkpt lat="44.7693662" lon="7.751304"><ele>257.0</ele><time>2026-05-01T09:04:21.273Z</time></trkpt><trkpt lat="44.7690941" lon="7.7512795"><ele>257.0</ele><time>2026-05-01T09:04:22.273Z</time></trkpt><trkpt lat="44.768824" lon="7.7512518"><ele>257.0</ele><time>2026-05-01T09:04:23.273Z</time></trkpt><trkpt lat="44.7685455" lon="7.7512222"><ele>257.0</ele><time>2026-05-01T09:04:24.273Z</time></trkpt><trkpt lat="44.7682613" lon="7.7511978"><ele>257.0</ele><time>2026-05-01T09:04:25.273Z</time></trkpt><trkpt lat="44.7679821" lon="7.7511684"><ele>257.0</ele><time>2026-05-01T09:04:26.273Z</time></trkpt><trkpt lat="44.7677119" lon="7.7511398"><ele>257.0</ele><time>2026-05-01T09:04:27.273Z</time></trkpt><trkpt lat="44.7674364" lon="7.7511143"><ele>257.0</ele><time>2026-05-01T09:04:28.273Z</time></trkpt><trkpt lat="44.7671613" lon="7.7510906"><ele>257.0</ele><time>2026-05-01T09:04:29.273Z</time></trkpt><trkpt lat="44.7668849" lon="7.7510675"><ele>257.0</ele><time>2026-05-01T09:04:30.273Z</time></trkpt><trkpt lat="44.7666126" lon="7.7510415"><ele>258.0</ele><time>2026-05-01T09:04:31.273Z</time></trkpt><trkpt lat="44.7663464" lon="7.7510079"><ele>259.0</ele><time>2026-05-01T09:04:32.274Z</time></trkpt><trkpt lat="44.7660703" lon="7.7509868"><ele>258.5</ele><time>2026-05-01T09:04:33.274Z</time></trkpt><trkpt lat="44.7657922" lon="7.7509526"><ele>258.0</ele><time>2026-05-01T09:04:34.273Z</time></trkpt><trkpt lat="44.765511" lon="7.7509234"><ele>258.0</ele><time>2026-05-01T09:04:35.273Z</time></trkpt><trkpt lat="44.7652321" lon="7.7508966"><ele>258.0</ele><time>2026-05-01T09:04:36.273Z</time></trkpt><trkpt lat="44.764952" lon="7.7508657"><ele>258.0</ele><time>2026-05-01T09:04:37.273Z</time></trkpt><trkpt lat="44.7646703" lon="7.7508411"><ele>258.0</ele><time>2026-05-01T09:04:38.273Z</time></trkpt><trkpt lat="44.7643943" lon="7.7508148"><ele>258.0</ele><time>2026-05-01T09:04:39.273Z</time></trkpt><trkpt lat="44.7641178" lon="7.7507854"><ele>258.0</ele><time>2026-05-01T09:04:40.273Z</time></trkpt><trkpt lat="44.7638383" lon="7.7507554"><ele>258.0</ele><time>2026-05-01T09:04:41.273Z</time></trkpt><trkpt lat="44.7635541" lon="7.7507282"><ele>258.0</ele><time>2026-05-01T09:04:42.273Z</time></trkpt><trkpt lat="44.7632733" lon="7.7506984"><ele>258.0</ele><time>2026-05-01T09:04:43.273Z</time></trkpt><trkpt lat="44.7629929" lon="7.7506726"><ele>258.0</ele><time>2026-05-01T09:04:44.273Z</time></trkpt><trkpt lat="44.7627084" lon="7.7506418"><ele>258.0</ele><time>2026-05-01T09:04:45.273Z</time></trkpt><trkpt lat="44.7624191" lon="7.7506106"><ele>258.0</ele><time>2026-05-01T09:04:46.273Z</time></trkpt><trkpt lat="44.7621305" lon="7.7505818"><ele>258.0</ele><time>2026-05-01T09:04:47.273Z</time></trkpt><trkpt lat="44.7618449" lon="7.7505562"><ele>258.0</ele><time>2026-05-01T09:04:48.273Z</time></trkpt><trkpt lat="44.7615627" lon="7.7505241"><ele>258.0</ele><time>2026-05-01T09:04:49.273Z</time></trkpt><trkpt lat="44.7612756" lon="7.7504895"><ele>258.0</ele><time>2026-05-01T09:04:50.273Z</time></trkpt><trkpt lat="44.7609902" lon="7.7504617"><ele>259.0</ele><time>2026-05-01T09:04:51.273Z</time></trkpt><trkpt lat="44.7607035" lon="7.750432"><ele>260.0</ele><time>2026-05-01T09:04:52.273Z</time></trkpt><trkpt lat="44.7604179" lon="7.7504059"><ele>260.0</ele><time>2026-05-01T09:04:53.273Z</time></trkpt><trkpt lat="44.7601327" lon="7.7503793"><ele>260.0</ele><time>2026-05-01T09:04:54.273Z</time></trkpt><trkpt lat="44.7598432" lon="7.7503498"><ele>260.0</ele><time>2026-05-01T09:04:55.273Z</time></trkpt><trkpt lat="44.7595517" lon="7.7503202"><ele>260.0</ele><time>2026-05-01T09:04:56.273Z</time></trkpt><trkpt lat="44.759263" lon="7.7502902"><ele>259.5</ele><time>2026-05-01T09:04:57.273Z</time></trkpt><trkpt lat="44.7589689" lon="7.7502617"><ele>259.0</ele><time>2026-05-01T09:04:58.273Z</time></trkpt><trkpt lat="44.7586769" lon="7.7502277"><ele>259.5</ele><time>2026-05-01T09:04:59.273Z</time></trkpt><trkpt lat="44.7583878" lon="7.7502038"><ele>260.0</ele><time>2026-05-01T09:05:00.273Z</time></trkpt><trkpt lat="44.758098" lon="7.7501761"><ele>260.0</ele><time>2026-05-01T09:05:01.273Z</time></trkpt><trkpt lat="44.7578082" lon="7.750148"><ele>260.0</ele><time>2026-05-01T09:05:02.273Z</time></trkpt><trkpt lat="44.7575211" lon="7.7501199"><ele>261.0</ele><time>2026-05-01T09:05:03.273Z</time></trkpt><trkpt lat="44.7572294" lon="7.7500888"><ele>262.0</ele><time>2026-05-01T09:05:04.273Z</time></trkpt><trkpt lat="44.7569329" lon="7.750067"><ele>260.0</ele><time>2026-05-01T09:05:05.273Z</time></trkpt><trkpt lat="44.7566362" lon="7.7500423"><ele>258.0</ele><time>2026-05-01T09:05:06.273Z</time></trkpt><trkpt lat="44.7563463" lon="7.7500201"><ele>258.0</ele><time>2026-05-01T09:05:07.273Z</time></trkpt><trkpt lat="44.7560576" lon="7.7500009"><ele>258.0</ele><time>2026-05-01T09:05:08.273Z</time></trkpt><trkpt lat="44.7557679" lon="7.7499838"><ele>258.5</ele><time>2026-05-01T09:05:09.273Z</time></trkpt><trkpt lat="44.7554822" lon="7.7499713"><ele>259.0</ele><time>2026-05-01T09:05:10.273Z</time></trkpt><trkpt lat="44.7551932" lon="7.7499649"><ele>260.0</ele><time>2026-05-01T09:05:11.274Z</time></trkpt><trkpt lat="44.7549065" lon="7.7499611"><ele>261.0</ele><time>2026-05-01T09:05:12.274Z</time></trkpt><trkpt lat="44.75462" lon="7.7499658"><ele>261.5</ele><time>2026-05-01T09:05:13.273Z</time></trkpt><trkpt lat="44.7543336" lon="7.7499637"><ele>262.0</ele><time>2026-05-01T09:05:14.273Z</time></trkpt><trkpt lat="44.754047" lon="7.7499659"><ele>262.0</ele><time>2026-05-01T09:05:15.273Z</time></trkpt><trkpt lat="44.7537589" lon="7.7499705"><ele>262.0</ele><time>2026-05-01T09:05:16.273Z</time></trkpt><trkpt lat="44.7534721" lon="7.749967"><ele>262.5</ele><time>2026-05-01T09:05:17.273Z</time></trkpt><trkpt lat="44.7531895" lon="7.7499706"><ele>263.0</ele><time>2026-05-01T09:05:18.273Z</time></trkpt><trkpt lat="44.752906" lon="7.7499769"><ele>263.5</ele><time>2026-05-01T09:05:19.274Z</time></trkpt><trkpt lat="44.7526171" lon="7.7499817"><ele>264.0</ele><time>2026-05-01T09:05:20.273Z</time></trkpt><trkpt lat="44.7523332" lon="7.7499937"><ele>264.0</ele><time>2026-05-01T09:05:21.273Z</time></trkpt><trkpt lat="44.7520516" lon="7.7500107"><ele>264.0</ele><time>2026-05-01T09:05:22.273Z</time></trkpt><trkpt lat="44.7517715" lon="7.7500412"><ele>263.5</ele><time>2026-05-01T09:05:23.273Z</time></trkpt><trkpt lat="44.7514888" lon="7.7500645"><ele>263.0</ele><time>2026-05-01T09:05:24.273Z</time></trkpt><trkpt lat="44.7512184" lon="7.7500833"><ele>263.5</ele><time>2026-05-01T09:05:25.273Z</time></trkpt><trkpt lat="44.7509445" lon="7.750095"><ele>264.0</ele><time>2026-05-01T09:05:26.273Z</time></trkpt><trkpt lat="44.750667" lon="7.7501218"><ele>264.0</ele><time>2026-05-01T09:05:27.273Z</time></trkpt><trkpt lat="44.7503919" lon="7.7501607"><ele>264.0</ele><time>2026-05-01T09:05:28.273Z</time></trkpt><trkpt lat="44.7501199" lon="7.7501977"><ele>262.5</ele><time>2026-05-01T09:05:29.273Z</time></trkpt><trkpt lat="44.7498454" lon="7.7502355"><ele>261.0</ele><time>2026-05-01T09:05:30.273Z</time></trkpt><trkpt lat="44.7495719" lon="7.7502737"><ele>261.5</ele><time>2026-05-01T09:05:31.273Z</time></trkpt><trkpt lat="44.7492972" lon="7.7503106"><ele>262.0</ele><time>2026-05-01T09:05:32.273Z</time></trkpt><trkpt lat="44.7490251" lon="7.7503582"><ele>262.0</ele><time>2026-05-01T09:05:33.273Z</time></trkpt><trkpt lat="44.7487552" lon="7.7504022"><ele>262.0</ele><time>2026-05-01T09:05:34.273Z</time></trkpt><trkpt lat="44.7484911" lon="7.7504497"><ele>262.0</ele><time>2026-05-01T09:05:35.273Z</time></trkpt><trkpt lat="44.7482309" lon="7.7505018"><ele>262.0</ele><time>2026-05-01T09:05:36.273Z</time></trkpt><trkpt lat="44.7479727" lon="7.7505506"><ele>262.0</ele><time>2026-05-01T09:05:37.273Z</time></trkpt><trkpt lat="44.747721" lon="7.7506026"><ele>262.0</ele><time>2026-05-01T09:05:38.273Z</time></trkpt><trkpt lat="44.7474747" lon="7.7506527"><ele>263.5</ele><time>2026-05-01T09:05:39.273Z</time></trkpt><trkpt lat="44.7472344" lon="7.7507053"><ele>265.0</ele><time>2026-05-01T09:05:40.273Z</time></trkpt><trkpt lat="44.7469978" lon="7.7507622"><ele>264.0</ele><time>2026-05-01T09:05:41.274Z</time></trkpt><trkpt lat="44.7467673" lon="7.7508145"><ele>263.0</ele><time>2026-05-01T09:05:42.273Z</time></trkpt><trkpt lat="44.7465321" lon="7.7508718"><ele>263.0</ele><time>2026-05-01T09:05:43.273Z</time></trkpt><trkpt lat="44.7462955" lon="7.7509286"><ele>263.0</ele><time>2026-05-01T09:05:44.273Z</time></trkpt><trkpt lat="44.7460616" lon="7.7509919"><ele>263.5</ele><time>2026-05-01T09:05:45.273Z</time></trkpt><trkpt lat="44.7458301" lon="7.7510522"><ele>264.0</ele><time>2026-05-01T09:05:46.273Z</time></trkpt><trkpt lat="44.7456043" lon="7.7511122"><ele>264.0</ele><time>2026-05-01T09:05:47.273Z</time></trkpt><trkpt lat="44.7453753" lon="7.7511721"><ele>264.0</ele><time>2026-05-01T09:05:48.273Z</time></trkpt><trkpt lat="44.7451483" lon="7.7512349"><ele>263.0</ele><time>2026-05-01T09:05:49.273Z</time></trkpt><trkpt lat="44.7449232" lon="7.7513018"><ele>262.0</ele><time>2026-05-01T09:05:50.273Z</time></trkpt><trkpt lat="44.7446997" lon="7.7513671"><ele>262.0</ele><time>2026-05-01T09:05:51.273Z</time></trkpt><trkpt lat="44.7444814" lon="7.751429"><ele>262.0</ele><time>2026-05-01T09:05:52.274Z</time></trkpt><trkpt lat="44.7442772" lon="7.7514889"><ele>262.0</ele><time>2026-05-01T09:05:53.273Z</time></trkpt><trkpt lat="44.7440891" lon="7.7515446"><ele>262.3333333333333</ele><time>2026-05-01T09:05:54.273Z</time></trkpt><trkpt lat="44.7439137" lon="7.7515964"><ele>262.6666666666667</ele><time>2026-05-01T09:05:55.273Z</time></trkpt><trkpt lat="44.7437501" lon="7.7516413"><ele>263.0</ele><time>2026-05-01T09:05:56.273Z</time></trkpt><trkpt lat="44.7435971" lon="7.7516814"><ele>263.5</ele><time>2026-05-01T09:05:57.273Z</time></trkpt><trkpt lat="44.74346" lon="7.7517222"><ele>264.0</ele><time>2026-05-01T09:05:58.273Z</time></trkpt><trkpt lat="44.7433349" lon="7.7517576"><ele>264.5</ele><time>2026-05-01T09:05:59.273Z</time></trkpt><trkpt lat="44.7432123" lon="7.7517951"><ele>265.0</ele><time>2026-05-01T09:06:00.273Z</time></trkpt><trkpt lat="44.7430929" lon="7.7518246"><ele>265.0</ele><time>2026-05-01T09:06:01.273Z</time></trkpt><trkpt lat="44.7429807" lon="7.7518572"><ele>265.0</ele><time>2026-05-01T09:06:02.273Z</time></trkpt><trkpt lat="44.7428669" lon="7.7518948"><ele>265.0</ele><time>2026-05-01T09:06:03.273Z</time></trkpt><trkpt lat="44.7427537" lon="7.7519302"><ele>265.0</ele><time>2026-05-01T09:06:04.273Z</time></trkpt><trkpt lat="44.7426468" lon="7.7519622"><ele>265.2</ele><time>2026-05-01T09:06:05.273Z</time></trkpt><trkpt lat="44.7425416" lon="7.7519984"><ele>265.4</ele><time>2026-05-01T09:06:06.273Z</time></trkpt><trkpt lat="44.7424287" lon="7.7520293"><ele>265.6</ele><time>2026-05-01T09:06:07.273Z</time></trkpt><trkpt lat="44.7423164" lon="7.7520582"><ele>265.8</ele><time>2026-05-01T09:06:08.273Z</time></trkpt><trkpt lat="44.742207" lon="7.7520844"><ele>266.0</ele><time>2026-05-01T09:06:09.273Z</time></trkpt><trkpt lat="44.742092" lon="7.7521197"><ele>266.0</ele><time>2026-05-01T09:06:10.274Z</time></trkpt><trkpt lat="44.7419687" lon="7.7521533"><ele>266.0</ele><time>2026-05-01T09:06:11.273Z</time></trkpt><trkpt lat="44.7418417" lon="7.7521883"><ele>266.0</ele><time>2026-05-01T09:06:12.273Z</time></trkpt><trkpt lat="44.7417178" lon="7.7522224"><ele>266.0</ele><time>2026-05-01T09:06:13.273Z</time></trkpt><trkpt lat="44.7416012" lon="7.7522527"><ele>265.6</ele><time>2026-05-01T09:06:14.273Z</time></trkpt><trkpt lat="44.7414899" lon="7.752281"><ele>265.20000000000005</ele><time>2026-05-01T09:06:15.274Z</time></trkpt><trkpt lat="44.7413834" lon="7.7523146"><ele>264.79999999999995</ele><time>2026-05-01T09:06:16.274Z</time></trkpt><trkpt lat="44.7412861" lon="7.7523519"><ele>264.4</ele><time>2026-05-01T09:06:17.273Z</time></trkpt><trkpt lat="44.7411861" lon="7.7523832"><ele>264.0</ele><time>2026-05-01T09:06:18.273Z</time></trkpt><trkpt lat="44.7410952" lon="7.752409"><ele>264.4</ele><time>2026-05-01T09:06:19.274Z</time></trkpt><trkpt lat="44.7410063" lon="7.7524314"><ele>264.79999999999995</ele><time>2026-05-01T09:06:20.273Z</time></trkpt><trkpt lat="44.7409259" lon="7.7524553"><ele>265.20000000000005</ele><time>2026-05-01T09:06:21.273Z</time></trkpt><trkpt lat="44.7408431" lon="7.75248"><ele>265.6</ele><time>2026-05-01T09:06:22.273Z</time></trkpt><trkpt lat="44.7407503" lon="7.7525114"><ele>266.0</ele><time>2026-05-01T09:06:23.273Z</time></trkpt><trkpt lat="44.7406488" lon="7.7525402"><ele>266.0</ele><time>2026-05-01T09:06:24.273Z</time></trkpt><trkpt lat="44.7405455" lon="7.7525677"><ele>266.0</ele><time>2026-05-01T09:06:25.274Z</time></trkpt><trkpt lat="44.7404544" lon="7.7525937"><ele>266.0</ele><time>2026-05-01T09:06:26.273Z</time></trkpt><trkpt lat="44.7403665" lon="7.7526106"><ele>266.0</ele><time>2026-05-01T09:06:27.273Z</time></trkpt><trkpt lat="44.7402714" lon="7.7526213"><ele>266.0</ele><time>2026-05-01T09:06:28.273Z</time></trkpt><trkpt lat="44.7401807" lon="7.7526349"><ele>266.0</ele><time>2026-05-01T09:06:29.273Z</time></trkpt><trkpt lat="44.7400828" lon="7.7526561"><ele>266.0</ele><time>2026-05-01T09:06:30.273Z</time></trkpt><trkpt lat="44.7399784" lon="7.7526789"><ele>266.0</ele><time>2026-05-01T09:06:31.274Z</time></trkpt><trkpt lat="44.7398631" lon="7.7527129"><ele>266.0</ele><time>2026-05-01T09:06:32.273Z</time></trkpt><trkpt lat="44.7397344" lon="7.752748"><ele>266.0</ele><time>2026-05-01T09:06:33.273Z</time></trkpt><trkpt lat="44.739599" lon="7.7527938"><ele>266.0</ele><time>2026-05-01T09:06:34.273Z</time></trkpt><trkpt lat="44.7394573" lon="7.7528356"><ele>266.0</ele><time>2026-05-01T09:06:35.273Z</time></trkpt><trkpt lat="44.7393122" lon="7.7528671"><ele>266.0</ele><time>2026-05-01T09:06:36.273Z</time></trkpt><trkpt lat="44.7391638" lon="7.7529073"><ele>266.0</ele><time>2026-05-01T09:06:37.273Z</time></trkpt><trkpt lat="44.7390124" lon="7.7529539"><ele>266.0</ele><time>2026-05-01T09:06:38.273Z</time></trkpt><trkpt lat="44.7388648" lon="7.7529955"><ele>266.0</ele><time>2026-05-01T09:06:39.273Z</time></trkpt><trkpt lat="44.7387106" lon="7.7530401"><ele>266.0</ele><time>2026-05-01T09:06:40.273Z</time></trkpt><trkpt lat="44.7385597" lon="7.7530824"><ele>266.0</ele><time>2026-05-01T09:06:41.274Z</time></trkpt><trkpt lat="44.7384095" lon="7.7531325"><ele>266.0</ele><time>2026-05-01T09:06:42.274Z</time></trkpt><trkpt lat="44.738257" lon="7.7531796"><ele>266.0</ele><time>2026-05-01T09:06:43.274Z</time></trkpt><trkpt lat="44.7381067" lon="7.7532165"><ele>266.0</ele><time>2026-05-01T09:06:44.273Z</time></trkpt><trkpt lat="44.737961" lon="7.7532608"><ele>266.0</ele><time>2026-05-01T09:06:45.273Z</time></trkpt><trkpt lat="44.7378101" lon="7.7533024"><ele>266.0</ele><time>2026-05-01T09:06:46.273Z</time></trkpt><trkpt lat="44.7376567" lon="7.7533385"><ele>266.0</ele><time>2026-05-01T09:06:47.274Z</time></trkpt><trkpt lat="44.7375003" lon="7.7533793"><ele>266.0</ele><time>2026-05-01T09:06:48.273Z</time></trkpt><trkpt lat="44.737342" lon="7.7534196"><ele>266.0</ele><time>2026-05-01T09:06:49.273Z</time></trkpt><trkpt lat="44.737185" lon="7.7534667"><ele>266.0</ele><time>2026-05-01T09:06:50.273Z</time></trkpt><trkpt lat="44.7370252" lon="7.7535191"><ele>266.0</ele><time>2026-05-01T09:06:51.273Z</time></trkpt><trkpt lat="44.7368578" lon="7.7535682"><ele>266.33333333333337</ele><time>2026-05-01T09:06:52.273Z</time></trkpt><trkpt lat="44.7366889" lon="7.7536154"><ele>266.6666666666667</ele><time>2026-05-01T09:06:53.273Z</time></trkpt><trkpt lat="44.7365174" lon="7.7536679"><ele>267.0</ele><time>2026-05-01T09:06:54.273Z</time></trkpt><trkpt lat="44.7363494" lon="7.7537171"><ele>267.0</ele><time>2026-05-01T09:06:55.273Z</time></trkpt><trkpt lat="44.7361735" lon="7.7537643"><ele>267.0</ele><time>2026-05-01T09:06:56.273Z</time></trkpt><trkpt lat="44.7359938" lon="7.7538153"><ele>267.0</ele><time>2026-05-01T09:06:57.273Z</time></trkpt><trkpt lat="44.7358135" lon="7.7538671"><ele>267.0</ele><time>2026-05-01T09:06:58.273Z</time></trkpt><trkpt lat="44.7356332" lon="7.7539187"><ele>267.0</ele><time>2026-05-01T09:06:59.273Z</time></trkpt><trkpt lat="44.7354532" lon="7.7539719"><ele>267.0</ele><time>2026-05-01T09:07:00.273Z</time></trkpt><trkpt lat="44.7352674" lon="7.7540336"><ele>267.6666666666667</ele><time>2026-05-01T09:07:01.273Z</time></trkpt><trkpt lat="44.7350876" lon="7.7540898"><ele>268.33333333333337</ele><time>2026-05-01T09:07:02.273Z</time></trkpt><trkpt lat="44.7349051" lon="7.7541463"><ele>269.0</ele><time>2026-05-01T09:07:03.274Z</time></trkpt><trkpt lat="44.7347159" lon="7.7541904"><ele>269.0</ele><time>2026-05-01T09:07:04.273Z</time></trkpt><trkpt lat="44.7345288" lon="7.7542423"><ele>269.0</ele><time>2026-05-01T09:07:05.273Z</time></trkpt><trkpt lat="44.7343449" lon="7.7542968"><ele>269.0</ele><time>2026-05-01T09:07:06.273Z</time></trkpt><trkpt lat="44.7341601" lon="7.7543518"><ele>268.6666666666667</ele><time>2026-05-01T09:07:07.273Z</time></trkpt><trkpt lat="44.7339737" lon="7.7544025"><ele>268.3333333333333</ele><time>2026-05-01T09:07:08.273Z</time></trkpt><trkpt lat="44.733787" lon="7.7544555"><ele>268.0</ele><time>2026-05-01T09:07:09.273Z</time></trkpt><trkpt lat="44.7336015" lon="7.7545088"><ele>268.3333333333333</ele><time>2026-05-01T09:07:10.273Z</time></trkpt><trkpt lat="44.7334191" lon="7.7545664"><ele>268.6666666666667</ele><time>2026-05-01T09:07:11.273Z</time></trkpt><trkpt lat="44.73323" lon="7.7546247"><ele>269.0</ele><time>2026-05-01T09:07:12.273Z</time></trkpt><trkpt lat="44.7330312" lon="7.7546831"><ele>269.0</ele><time>2026-05-01T09:07:13.273Z</time></trkpt><trkpt lat="44.7328279" lon="7.7547376"><ele>269.0</ele><time>2026-05-01T09:07:14.273Z</time></trkpt><trkpt lat="44.7326225" lon="7.7547926"><ele>269.0</ele><time>2026-05-01T09:07:15.273Z</time></trkpt><trkpt lat="44.7324215" lon="7.7548519"><ele>269.0</ele><time>2026-05-01T09:07:16.273Z</time></trkpt><trkpt lat="44.7322182" lon="7.7549105"><ele>269.0</ele><time>2026-05-01T09:07:17.273Z</time></trkpt><trkpt lat="44.7320134" lon="7.7549688"><ele>269.0</ele><time>2026-05-01T09:07:18.274Z</time></trkpt><trkpt lat="44.7318084" lon="7.75503"><ele>269.0</ele><time>2026-05-01T09:07:19.273Z</time></trkpt><trkpt lat="44.7316019" lon="7.7550902"><ele>269.0</ele><time>2026-05-01T09:07:20.273Z</time></trkpt><trkpt lat="44.7313933" lon="7.7551504"><ele>269.0</ele><time>2026-05-01T09:07:21.273Z</time></trkpt><trkpt lat="44.7311776" lon="7.755212"><ele>268.6666666666667</ele><time>2026-05-01T09:07:22.273Z</time></trkpt><trkpt lat="44.7309634" lon="7.7552752"><ele>268.3333333333333</ele><time>2026-05-01T09:07:23.274Z</time></trkpt><trkpt lat="44.7307441" lon="7.7553371"><ele>268.0</ele><time>2026-05-01T09:07:24.273Z</time></trkpt><trkpt lat="44.7305269" lon="7.755398"><ele>268.0</ele><time>2026-05-01T09:07:25.273Z</time></trkpt><trkpt lat="44.7303088" lon="7.755459"><ele>268.0</ele><time>2026-05-01T09:07:26.273Z</time></trkpt><trkpt lat="44.7300887" lon="7.7555234"><ele>268.0</ele><time>2026-05-01T09:07:27.273Z</time></trkpt><trkpt lat="44.7298684" lon="7.7555899"><ele>268.5</ele><time>2026-05-01T09:07:28.273Z</time></trkpt><trkpt lat="44.7296482" lon="7.7556552"><ele>269.0</ele><time>2026-05-01T09:07:29.273Z</time></trkpt><trkpt lat="44.7294264" lon="7.7557189"><ele>269.0</ele><time>2026-05-01T09:07:30.274Z</time></trkpt><trkpt lat="44.729203" lon="7.7557824"><ele>269.0</ele><time>2026-05-01T09:07:31.273Z</time></trkpt><trkpt lat="44.728974" lon="7.7558472"><ele>269.0</ele><time>2026-05-01T09:07:32.273Z</time></trkpt><trkpt lat="44.7287483" lon="7.7559122"><ele>269.0</ele><time>2026-05-01T09:07:33.273Z</time></trkpt><trkpt lat="44.7285265" lon="7.7559784"><ele>269.0</ele><time>2026-05-01T09:07:34.274Z</time></trkpt><trkpt lat="44.7283139" lon="7.756042"><ele>269.0</ele><time>2026-05-01T09:07:35.273Z</time></trkpt><trkpt lat="44.7281042" lon="7.7561075"><ele>269.0</ele><time>2026-05-01T09:07:36.273Z</time></trkpt><trkpt lat="44.7278917" lon="7.7561725"><ele>268.6666666666667</ele><time>2026-05-01T09:07:37.273Z</time></trkpt><trkpt lat="44.7276799" lon="7.7562388"><ele>268.3333333333333</ele><time>2026-05-01T09:07:38.273Z</time></trkpt><trkpt lat="44.7274713" lon="7.756311"><ele>268.0</ele><time>2026-05-01T09:07:39.273Z</time></trkpt><trkpt lat="44.7272739" lon="7.7563768"><ele>268.0</ele><time>2026-05-01T09:07:40.273Z</time></trkpt><trkpt lat="44.7270812" lon="7.756433"><ele>268.0</ele><time>2026-05-01T09:07:41.273Z</time></trkpt><trkpt lat="44.7268859" lon="7.756488"><ele>268.0</ele><time>2026-05-01T09:07:42.273Z</time></trkpt><trkpt lat="44.7266924" lon="7.7565464"><ele>268.3333333333333</ele><time>2026-05-01T09:07:43.273Z</time></trkpt><trkpt lat="44.7264988" lon="7.7566075"><ele>268.6666666666667</ele><time>2026-05-01T09:07:44.273Z</time></trkpt><trkpt lat="44.726302" lon="7.7566687"><ele>269.0</ele><time>2026-05-01T09:07:45.273Z</time></trkpt><trkpt lat="44.7260939" lon="7.7567344"><ele>270.0</ele><time>2026-05-01T09:07:46.274Z</time></trkpt><trkpt lat="44.7258773" lon="7.7568006"><ele>271.0</ele><time>2026-05-01T09:07:47.273Z</time></trkpt><trkpt lat="44.725648" lon="7.7568555"><ele>271.0</ele><time>2026-05-01T09:07:48.273Z</time></trkpt><trkpt lat="44.7254166" lon="7.7569077"><ele>271.0</ele><time>2026-05-01T09:07:49.273Z</time></trkpt><trkpt lat="44.7251794" lon="7.7569623"><ele>270.0</ele><time>2026-05-01T09:07:50.273Z</time></trkpt><trkpt lat="44.7249545" lon="7.7570235"><ele>269.0</ele><time>2026-05-01T09:07:51.273Z</time></trkpt><trkpt lat="44.7247343" lon="7.7570873"><ele>269.0</ele><time>2026-05-01T09:07:52.274Z</time></trkpt><trkpt lat="44.7245102" lon="7.7571543"><ele>269.0</ele><time>2026-05-01T09:07:53.273Z</time></trkpt><trkpt lat="44.7242869" lon="7.7572196"><ele>269.6666666666667</ele><time>2026-05-01T09:07:54.273Z</time></trkpt><trkpt lat="44.7240662" lon="7.757288"><ele>270.3333333333333</ele><time>2026-05-01T09:07:55.273Z</time></trkpt><trkpt lat="44.7238575" lon="7.7573489"><ele>271.0</ele><time>2026-05-01T09:07:56.273Z</time></trkpt><trkpt lat="44.7236696" lon="7.7574055"><ele>271.0</ele><time>2026-05-01T09:07:57.273Z</time></trkpt><trkpt lat="44.7234951" lon="7.7574558"><ele>271.0</ele><time>2026-05-01T09:07:58.273Z</time></trkpt><trkpt lat="44.7233306" lon="7.7575053"><ele>271.0</ele><time>2026-05-01T09:07:59.273Z</time></trkpt><trkpt lat="44.7231726" lon="7.7575555"><ele>271.0</ele><time>2026-05-01T09:08:00.273Z</time></trkpt><trkpt lat="44.7230223" lon="7.7575989"><ele>271.0</ele><time>2026-05-01T09:08:01.273Z</time></trkpt><trkpt lat="44.7228777" lon="7.7576377"><ele>271.0</ele><time>2026-05-01T09:08:02.273Z</time></trkpt><trkpt lat="44.7227478" lon="7.7576716"><ele>271.0</ele><time>2026-05-01T09:08:03.273Z</time></trkpt><trkpt lat="44.7226203" lon="7.7576966"><ele>271.75</ele><time>2026-05-01T09:08:04.273Z</time></trkpt><trkpt lat="44.7224981" lon="7.7577253"><ele>272.5</ele><time>2026-05-01T09:08:05.273Z</time></trkpt><trkpt lat="44.7223843" lon="7.7577423"><ele>273.25</ele><time>2026-05-01T09:08:06.273Z</time></trkpt><trkpt lat="44.7222683" lon="7.7577674"><ele>274.0</ele><time>2026-05-01T09:08:07.273Z</time></trkpt><trkpt lat="44.7221379" lon="7.7578058"><ele>274.0</ele><time>2026-05-01T09:08:08.273Z</time></trkpt><trkpt lat="44.7219908" lon="7.7578426"><ele>274.0</ele><time>2026-05-01T09:08:09.274Z</time></trkpt><trkpt lat="44.7218364" lon="7.7578874"><ele>274.0</ele><time>2026-05-01T09:08:10.273Z</time></trkpt><trkpt lat="44.721677" lon="7.7579364"><ele>273.3333333333333</ele><time>2026-05-01T09:08:11.273Z</time></trkpt><trkpt lat="44.7215029" lon="7.7579867"><ele>272.6666666666667</ele><time>2026-05-01T09:08:12.273Z</time></trkpt><trkpt lat="44.7213272" lon="7.7580425"><ele>272.0</ele><time>2026-05-01T09:08:13.273Z</time></trkpt><trkpt lat="44.7211462" lon="7.7580935"><ele>272.0</ele><time>2026-05-01T09:08:14.273Z</time></trkpt><trkpt lat="44.7209625" lon="7.7581453"><ele>272.0</ele><time>2026-05-01T09:08:15.273Z</time></trkpt><trkpt lat="44.720774" lon="7.7581987"><ele>272.0</ele><time>2026-05-01T09:08:16.273Z</time></trkpt><trkpt lat="44.7205895" lon="7.758255"><ele>272.0</ele><time>2026-05-01T09:08:17.273Z</time></trkpt><trkpt lat="44.7204075" lon="7.7583087"><ele>272.0</ele><time>2026-05-01T09:08:18.273Z</time></trkpt><trkpt lat="44.720229" lon="7.7583591"><ele>272.0</ele><time>2026-05-01T09:08:19.273Z</time></trkpt><trkpt lat="44.7200526" lon="7.758409"><ele>272.0</ele><time>2026-05-01T09:08:20.273Z</time></trkpt><trkpt lat="44.7198737" lon="7.7584589"><ele>272.0</ele><time>2026-05-01T09:08:21.273Z</time></trkpt><trkpt lat="44.7196941" lon="7.7585102"><ele>272.0</ele><time>2026-05-01T09:08:22.274Z</time></trkpt><trkpt lat="44.7195154" lon="7.7585619"><ele>272.33333333333337</ele><time>2026-05-01T09:08:23.273Z</time></trkpt><trkpt lat="44.7193369" lon="7.7586143"><ele>272.6666666666667</ele><time>2026-05-01T09:08:24.273Z</time></trkpt><trkpt lat="44.7191525" lon="7.7586655"><ele>273.0</ele><time>2026-05-01T09:08:25.273Z</time></trkpt><trkpt lat="44.7189688" lon="7.7587214"><ele>273.0</ele><time>2026-05-01T09:08:26.273Z</time></trkpt><trkpt lat="44.7187835" lon="7.7587738"><ele>273.0</ele><time>2026-05-01T09:08:27.273Z</time></trkpt><trkpt lat="44.7185966" lon="7.7588272"><ele>273.0</ele><time>2026-05-01T09:08:28.273Z</time></trkpt><trkpt lat="44.7184096" lon="7.7588848"><ele>273.3333333333333</ele><time>2026-05-01T09:08:29.273Z</time></trkpt><trkpt lat="44.7182156" lon="7.7589431"><ele>273.66666666666663</ele><time>2026-05-01T09:08:30.273Z</time></trkpt><trkpt lat="44.7180217" lon="7.7589987"><ele>274.0</ele><time>2026-05-01T09:08:31.273Z</time></trkpt><trkpt lat="44.717824" lon="7.7590553"><ele>274.66666666666663</ele><time>2026-05-01T09:08:32.273Z</time></trkpt><trkpt lat="44.7176312" lon="7.759112"><ele>275.3333333333333</ele><time>2026-05-01T09:08:33.273Z</time></trkpt><trkpt lat="44.7174293" lon="7.7591709"><ele>276.0</ele><time>2026-05-01T09:08:34.273Z</time></trkpt><trkpt lat="44.7172258" lon="7.7592301"><ele>276.0</ele><time>2026-05-01T09:08:35.274Z</time></trkpt><trkpt lat="44.7170263" lon="7.7592859"><ele>276.0</ele><time>2026-05-01T09:08:36.273Z</time></trkpt><trkpt lat="44.7168294" lon="7.7593437"><ele>276.0</ele><time>2026-05-01T09:08:37.273Z</time></trkpt><trkpt lat="44.7166271" lon="7.7594033"><ele>275.3333333333333</ele><time>2026-05-01T09:08:38.273Z</time></trkpt><trkpt lat="44.716421" lon="7.7594577"><ele>274.66666666666663</ele><time>2026-05-01T09:08:39.273Z</time></trkpt><trkpt lat="44.7162173" lon="7.7595127"><ele>274.0</ele><time>2026-05-01T09:08:40.273Z</time></trkpt><trkpt lat="44.7160137" lon="7.7595732"><ele>274.0</ele><time>2026-05-01T09:08:41.273Z</time></trkpt><trkpt lat="44.7158131" lon="7.7596291"><ele>274.0</ele><time>2026-05-01T09:08:42.273Z</time></trkpt><trkpt lat="44.7156149" lon="7.759687"><ele>274.0</ele><time>2026-05-01T09:08:43.274Z</time></trkpt><trkpt lat="44.7154208" lon="7.7597452"><ele>273.3333333333333</ele><time>2026-05-01T09:08:44.273Z</time></trkpt><trkpt lat="44.7152219" lon="7.7597987"><ele>272.6666666666667</ele><time>2026-05-01T09:08:45.273Z</time></trkpt><trkpt lat="44.7150261" lon="7.759857"><ele>272.0</ele><time>2026-05-01T09:08:46.274Z</time></trkpt><trkpt lat="44.7148267" lon="7.759918"><ele>272.0</ele><time>2026-05-01T09:08:47.273Z</time></trkpt><trkpt lat="44.7146254" lon="7.759974"><ele>272.0</ele><time>2026-05-01T09:08:48.273Z</time></trkpt><trkpt lat="44.7144238" lon="7.760032"><ele>272.0</ele><time>2026-05-01T09:08:49.273Z</time></trkpt><trkpt lat="44.7142228" lon="7.7600961"><ele>272.33333333333337</ele><time>2026-05-01T09:08:50.274Z</time></trkpt><trkpt lat="44.7140168" lon="7.7601568"><ele>272.6666666666667</ele><time>2026-05-01T09:08:51.273Z</time></trkpt><trkpt lat="44.7138089" lon="7.7602141"><ele>273.0</ele><time>2026-05-01T09:08:52.273Z</time></trkpt><trkpt lat="44.7136079" lon="7.760268"><ele>273.3333333333333</ele><time>2026-05-01T09:08:53.273Z</time></trkpt><trkpt lat="44.7134175" lon="7.7603168"><ele>273.66666666666663</ele><time>2026-05-01T09:08:54.273Z</time></trkpt><trkpt lat="44.713236" lon="7.7603584"><ele>274.0</ele><time>2026-05-01T09:08:55.274Z</time></trkpt><trkpt lat="44.7130642" lon="7.7604067"><ele>274.0</ele><time>2026-05-01T09:08:56.274Z</time></trkpt><trkpt lat="44.7128905" lon="7.7604562"><ele>274.0</ele><time>2026-05-01T09:08:57.273Z</time></trkpt><trkpt lat="44.7127198" lon="7.7605075"><ele>274.0</ele><time>2026-05-01T09:08:58.273Z</time></trkpt><trkpt lat="44.7125468" lon="7.7605626"><ele>274.66666666666663</ele><time>2026-05-01T09:08:59.273Z</time></trkpt><trkpt lat="44.712372" lon="7.760617"><ele>275.3333333333333</ele><time>2026-05-01T09:09:00.273Z</time></trkpt><trkpt lat="44.7121999" lon="7.7606642"><ele>276.0</ele><time>2026-05-01T09:09:01.273Z</time></trkpt><trkpt lat="44.7120292" lon="7.7607152"><ele>276.3333333333333</ele><time>2026-05-01T09:09:02.273Z</time></trkpt><trkpt lat="44.7118623" lon="7.7607569"><ele>276.66666666666663</ele><time>2026-05-01T09:09:03.273Z</time></trkpt><trkpt lat="44.7116883" lon="7.7608155"><ele>277.0</ele><time>2026-05-01T09:09:04.273Z</time></trkpt><trkpt lat="44.7115087" lon="7.7608733"><ele>277.0</ele><time>2026-05-01T09:09:05.273Z</time></trkpt><trkpt lat="44.7113248" lon="7.7609244"><ele>277.0</ele><time>2026-05-01T09:09:06.273Z</time></trkpt><trkpt lat="44.7111238" lon="7.7609788"><ele>277.0</ele><time>2026-05-01T09:09:07.273Z</time></trkpt><trkpt lat="44.7109301" lon="7.761038"><ele>276.66666666666663</ele><time>2026-05-01T09:09:08.273Z</time></trkpt><trkpt lat="44.710737" lon="7.7610978"><ele>276.3333333333333</ele><time>2026-05-01T09:09:09.273Z</time></trkpt><trkpt lat="44.7105478" lon="7.7611508"><ele>276.0</ele><time>2026-05-01T09:09:10.273Z</time></trkpt><trkpt lat="44.7103565" lon="7.7612112"><ele>276.6666666666667</ele><time>2026-05-01T09:09:11.273Z</time></trkpt><trkpt lat="44.7101618" lon="7.7612642"><ele>277.33333333333337</ele><time>2026-05-01T09:09:12.273Z</time></trkpt><trkpt lat="44.7099584" lon="7.7613204"><ele>278.0</ele><time>2026-05-01T09:09:13.273Z</time></trkpt><trkpt lat="44.7097605" lon="7.7613778"><ele>278.0</ele><time>2026-05-01T09:09:14.273Z</time></trkpt><trkpt lat="44.7095634" lon="7.7614319"><ele>278.0</ele><time>2026-05-01T09:09:15.273Z</time></trkpt><trkpt lat="44.7093691" lon="7.7614874"><ele>278.0</ele><time>2026-05-01T09:09:16.274Z</time></trkpt><trkpt lat="44.7091772" lon="7.7615425"><ele>277.6666666666667</ele><time>2026-05-01T09:09:17.273Z</time></trkpt><trkpt lat="44.708983" lon="7.761598"><ele>277.3333333333333</ele><time>2026-05-01T09:09:18.274Z</time></trkpt><trkpt lat="44.7087913" lon="7.7616509"><ele>277.0</ele><time>2026-05-01T09:09:19.273Z</time></trkpt><trkpt lat="44.7086011" lon="7.7617"><ele>277.3333333333333</ele><time>2026-05-01T09:09:20.273Z</time></trkpt><trkpt lat="44.7084038" lon="7.7617533"><ele>277.6666666666667</ele><time>2026-05-01T09:09:21.273Z</time></trkpt><trkpt lat="44.7081997" lon="7.7618123"><ele>278.0</ele><time>2026-05-01T09:09:22.273Z</time></trkpt><trkpt lat="44.7080058" lon="7.7618745"><ele>277.6666666666667</ele><time>2026-05-01T09:09:23.273Z</time></trkpt><trkpt lat="44.7078238" lon="7.7619329"><ele>277.3333333333333</ele><time>2026-05-01T09:09:24.273Z</time></trkpt><trkpt lat="44.7076523" lon="7.7619831"><ele>277.0</ele><time>2026-05-01T09:09:25.273Z</time></trkpt><trkpt lat="44.707494" lon="7.762031"><ele>277.0</ele><time>2026-05-01T09:09:26.273Z</time></trkpt><trkpt lat="44.7073519" lon="7.7620757"><ele>277.0</ele><time>2026-05-01T09:09:27.273Z</time></trkpt><trkpt lat="44.7072173" lon="7.7621216"><ele>277.0</ele><time>2026-05-01T09:09:28.273Z</time></trkpt><trkpt lat="44.7070773" lon="7.7621727"><ele>277.0</ele><time>2026-05-01T09:09:29.273Z</time></trkpt><trkpt lat="44.7069289" lon="7.7622206"><ele>276.66666666666663</ele><time>2026-05-01T09:09:30.273Z</time></trkpt><trkpt lat="44.7067543" lon="7.7622795"><ele>276.3333333333333</ele><time>2026-05-01T09:09:31.273Z</time></trkpt><trkpt lat="44.7065678" lon="7.762337"><ele>276.0</ele><time>2026-05-01T09:09:32.274Z</time></trkpt><trkpt lat="44.7063669" lon="7.7623971"><ele>276.0</ele><time>2026-05-01T09:09:33.273Z</time></trkpt><trkpt lat="44.7061609" lon="7.7624526"><ele>276.0</ele><time>2026-05-01T09:09:34.273Z</time></trkpt><trkpt lat="44.7059612" lon="7.7625147"><ele>276.0</ele><time>2026-05-01T09:09:35.273Z</time></trkpt><trkpt lat="44.7057568" lon="7.7625751"><ele>276.3333333333333</ele><time>2026-05-01T09:09:36.273Z</time></trkpt><trkpt lat="44.70556" lon="7.7626292"><ele>276.66666666666663</ele><time>2026-05-01T09:09:37.273Z</time></trkpt><trkpt lat="44.7053785" lon="7.7626851"><ele>277.0</ele><time>2026-05-01T09:09:38.273Z</time></trkpt><trkpt lat="44.705204" lon="7.7627328"><ele>278.0</ele><time>2026-05-01T09:09:39.273Z</time></trkpt><trkpt lat="44.7050386" lon="7.762778"><ele>279.0</ele><time>2026-05-01T09:09:40.273Z</time></trkpt><trkpt lat="44.7048747" lon="7.7628296"><ele>280.0</ele><time>2026-05-01T09:09:41.273Z</time></trkpt><trkpt lat="44.7047079" lon="7.7628758"><ele>280.0</ele><time>2026-05-01T09:09:42.273Z</time></trkpt><trkpt lat="44.7045522" lon="7.7629143"><ele>280.0</ele><time>2026-05-01T09:09:43.273Z</time></trkpt><trkpt lat="44.7043997" lon="7.7629531"><ele>280.0</ele><time>2026-05-01T09:09:44.273Z</time></trkpt><trkpt lat="44.7042543" lon="7.7629948"><ele>280.0</ele><time>2026-05-01T09:09:45.273Z</time></trkpt><trkpt lat="44.7041004" lon="7.7630457"><ele>280.0</ele><time>2026-05-01T09:09:46.274Z</time></trkpt><trkpt lat="44.7039299" lon="7.763097"><ele>280.0</ele><time>2026-05-01T09:09:47.274Z</time></trkpt><trkpt lat="44.7037646" lon="7.7631446"><ele>280.0</ele><time>2026-05-01T09:09:48.274Z</time></trkpt><trkpt lat="44.7036" lon="7.7631836"><ele>280.0</ele><time>2026-05-01T09:09:49.273Z</time></trkpt><trkpt lat="44.7034504" lon="7.7632126"><ele>280.0</ele><time>2026-05-01T09:09:50.273Z</time></trkpt><trkpt lat="44.7033153" lon="7.7632398"><ele>279.8</ele><time>2026-05-01T09:09:51.273Z</time></trkpt><trkpt lat="44.7031968" lon="7.7632669"><ele>279.6</ele><time>2026-05-01T09:09:52.274Z</time></trkpt><trkpt lat="44.7030886" lon="7.7632919"><ele>279.4</ele><time>2026-05-01T09:09:53.273Z</time></trkpt><trkpt lat="44.7029925" lon="7.7633088"><ele>279.2</ele><time>2026-05-01T09:09:54.273Z</time></trkpt><trkpt lat="44.7029068" lon="7.763318"><ele>279.0</ele><time>2026-05-01T09:09:55.273Z</time></trkpt><trkpt lat="44.7028091" lon="7.7633296"><ele>279.25</ele><time>2026-05-01T09:09:56.273Z</time></trkpt><trkpt lat="44.7026978" lon="7.7633581"><ele>279.5</ele><time>2026-05-01T09:09:57.273Z</time></trkpt><trkpt lat="44.7025668" lon="7.7634019"><ele>279.75</ele><time>2026-05-01T09:09:58.273Z</time></trkpt><trkpt lat="44.7024243" lon="7.763452"><ele>280.0</ele><time>2026-05-01T09:09:59.273Z</time></trkpt><trkpt lat="44.7022695" lon="7.7635007"><ele>280.0</ele><time>2026-05-01T09:10:00.273Z</time></trkpt><trkpt lat="44.7020952" lon="7.7635492"><ele>280.0</ele><time>2026-05-01T09:10:01.273Z</time></trkpt><trkpt lat="44.7019176" lon="7.7636029"><ele>280.0</ele><time>2026-05-01T09:10:02.274Z</time></trkpt><trkpt lat="44.7017236" lon="7.7636611"><ele>280.0</ele><time>2026-05-01T09:10:03.273Z</time></trkpt><trkpt lat="44.7015288" lon="7.7637226"><ele>280.0</ele><time>2026-05-01T09:10:04.273Z</time></trkpt><trkpt lat="44.7013338" lon="7.7637828"><ele>280.0</ele><time>2026-05-01T09:10:05.273Z</time></trkpt><trkpt lat="44.7011489" lon="7.7638365"><ele>280.66666666666663</ele><time>2026-05-01T09:10:06.273Z</time></trkpt><trkpt lat="44.7009651" lon="7.7638938"><ele>281.3333333333333</ele><time>2026-05-01T09:10:07.273Z</time></trkpt><trkpt lat="44.7007929" lon="7.7639353"><ele>282.0</ele><time>2026-05-01T09:10:08.273Z</time></trkpt><trkpt lat="44.7006159" lon="7.7639846"><ele>282.0</ele><time>2026-05-01T09:10:09.273Z</time></trkpt><trkpt lat="44.7004388" lon="7.7640395"><ele>282.0</ele><time>2026-05-01T09:10:10.273Z</time></trkpt><trkpt lat="44.7002627" lon="7.7640961"><ele>282.0</ele><time>2026-05-01T09:10:11.273Z</time></trkpt><trkpt lat="44.7000874" lon="7.7641465"><ele>282.0</ele><time>2026-05-01T09:10:12.273Z</time></trkpt><trkpt lat="44.6999086" lon="7.7641964"><ele>282.0</ele><time>2026-05-01T09:10:13.274Z</time></trkpt><trkpt lat="44.6997235" lon="7.7642442"><ele>282.0</ele><time>2026-05-01T09:10:14.274Z</time></trkpt><trkpt lat="44.6995543" lon="7.7642994"><ele>282.0</ele><time>2026-05-01T09:10:15.273Z</time></trkpt><trkpt lat="44.6993998" lon="7.7643532"><ele>282.0</ele><time>2026-05-01T09:10:16.273Z</time></trkpt><trkpt lat="44.6992505" lon="7.7644006"><ele>282.0</ele><time>2026-05-01T09:10:17.273Z</time></trkpt><trkpt lat="44.6991059" lon="7.76444"><ele>282.0</ele><time>2026-05-01T09:10:18.273Z</time></trkpt><trkpt lat="44.6989693" lon="7.7644761"><ele>282.0</ele><time>2026-05-01T09:10:19.273Z</time></trkpt><trkpt lat="44.6988409" lon="7.7645151"><ele>282.0</ele><time>2026-05-01T09:10:20.273Z</time></trkpt><trkpt lat="44.6987205" lon="7.7645477"><ele>282.0</ele><time>2026-05-01T09:10:21.273Z</time></trkpt><trkpt lat="44.6985887" lon="7.7645825"><ele>282.3333333333333</ele><time>2026-05-01T09:10:22.273Z</time></trkpt><trkpt lat="44.6984447" lon="7.7646242"><ele>282.66666666666663</ele><time>2026-05-01T09:10:23.273Z</time></trkpt><trkpt lat="44.6982928" lon="7.7646705"><ele>283.0</ele><time>2026-05-01T09:10:24.273Z</time></trkpt><trkpt lat="44.6981325" lon="7.7647238"><ele>283.0</ele><time>2026-05-01T09:10:25.273Z</time></trkpt><trkpt lat="44.6979686" lon="7.7647738"><ele>283.0</ele><time>2026-05-01T09:10:26.273Z</time></trkpt><trkpt lat="44.6977959" lon="7.7648179"><ele>283.0</ele><time>2026-05-01T09:10:27.273Z</time></trkpt><trkpt lat="44.6976116" lon="7.7648659"><ele>283.66666666666663</ele><time>2026-05-01T09:10:28.273Z</time></trkpt><trkpt lat="44.6974166" lon="7.7649209"><ele>284.3333333333333</ele><time>2026-05-01T09:10:29.274Z</time></trkpt><trkpt lat="44.6972164" lon="7.7649748"><ele>285.0</ele><time>2026-05-01T09:10:30.273Z</time></trkpt><trkpt lat="44.6970121" lon="7.7650407"><ele>284.6666666666667</ele><time>2026-05-01T09:10:31.273Z</time></trkpt><trkpt lat="44.6968031" lon="7.7651098"><ele>284.33333333333337</ele><time>2026-05-01T09:10:32.273Z</time></trkpt><trkpt lat="44.6965916" lon="7.7651742"><ele>284.0</ele><time>2026-05-01T09:10:33.273Z</time></trkpt><trkpt lat="44.6963802" lon="7.7652418"><ele>284.0</ele><time>2026-05-01T09:10:34.273Z</time></trkpt><trkpt lat="44.6961732" lon="7.7653"><ele>284.0</ele><time>2026-05-01T09:10:35.273Z</time></trkpt><trkpt lat="44.6959793" lon="7.7653542"><ele>284.0</ele><time>2026-05-01T09:10:36.273Z</time></trkpt><trkpt lat="44.6957959" lon="7.7654086"><ele>284.33333333333337</ele><time>2026-05-01T09:10:37.273Z</time></trkpt><trkpt lat="44.6956237" lon="7.7654576"><ele>284.6666666666667</ele><time>2026-05-01T09:10:38.273Z</time></trkpt><trkpt lat="44.6954588" lon="7.765507"><ele>285.0</ele><time>2026-05-01T09:10:39.273Z</time></trkpt><trkpt lat="44.6952973" lon="7.7655511"><ele>285.3333333333333</ele><time>2026-05-01T09:10:40.274Z</time></trkpt><trkpt lat="44.6951403" lon="7.7656"><ele>285.66666666666663</ele><time>2026-05-01T09:10:41.273Z</time></trkpt><trkpt lat="44.6949763" lon="7.7656485"><ele>286.0</ele><time>2026-05-01T09:10:42.273Z</time></trkpt><trkpt lat="44.6948152" lon="7.7656986"><ele>286.0</ele><time>2026-05-01T09:10:43.274Z</time></trkpt><trkpt lat="44.694669" lon="7.7657475"><ele>286.0</ele><time>2026-05-01T09:10:44.273Z</time></trkpt><trkpt lat="44.6945269" lon="7.7657897"><ele>286.0</ele><time>2026-05-01T09:10:45.273Z</time></trkpt><trkpt lat="44.6943898" lon="7.7658274"><ele>286.0</ele><time>2026-05-01T09:10:46.273Z</time></trkpt><trkpt lat="44.6942565" lon="7.7658559"><ele>285.75</ele><time>2026-05-01T09:10:47.274Z</time></trkpt><trkpt lat="44.6941189" lon="7.7658824"><ele>285.5</ele><time>2026-05-01T09:10:48.273Z</time></trkpt><trkpt lat="44.6939788" lon="7.7659194"><ele>285.25</ele><time>2026-05-01T09:10:49.273Z</time></trkpt><trkpt lat="44.693835" lon="7.7659542"><ele>285.0</ele><time>2026-05-01T09:10:50.273Z</time></trkpt><trkpt lat="44.6936744" lon="7.7659925"><ele>285.0</ele><time>2026-05-01T09:10:51.273Z</time></trkpt><trkpt lat="44.6935044" lon="7.7660354"><ele>285.0</ele><time>2026-05-01T09:10:52.273Z</time></trkpt><trkpt lat="44.693335" lon="7.7660879"><ele>285.0</ele><time>2026-05-01T09:10:53.273Z</time></trkpt><trkpt lat="44.6931661" lon="7.7661448"><ele>285.0</ele><time>2026-05-01T09:10:54.273Z</time></trkpt><trkpt lat="44.6929968" lon="7.7662014"><ele>285.0</ele><time>2026-05-01T09:10:55.274Z</time></trkpt><trkpt lat="44.6928346" lon="7.7662535"><ele>285.0</ele><time>2026-05-01T09:10:56.273Z</time></trkpt><trkpt lat="44.6926808" lon="7.7662938"><ele>285.0</ele><time>2026-05-01T09:10:57.273Z</time></trkpt><trkpt lat="44.6925345" lon="7.7663334"><ele>285.0</ele><time>2026-05-01T09:10:58.273Z</time></trkpt><trkpt lat="44.6923988" lon="7.7663695"><ele>285.0</ele><time>2026-05-01T09:10:59.273Z</time></trkpt><trkpt lat="44.6922603" lon="7.7664086"><ele>285.0</ele><time>2026-05-01T09:11:00.273Z</time></trkpt><trkpt lat="44.6921257" lon="7.7664427"><ele>285.0</ele><time>2026-05-01T09:11:01.273Z</time></trkpt><trkpt lat="44.6919982" lon="7.7664698"><ele>285.0</ele><time>2026-05-01T09:11:02.273Z</time></trkpt><trkpt lat="44.6918791" lon="7.7665034"><ele>285.0</ele><time>2026-05-01T09:11:03.273Z</time></trkpt><trkpt lat="44.6917448" lon="7.7665368"><ele>285.0</ele><time>2026-05-01T09:11:04.273Z</time></trkpt><trkpt lat="44.6916032" lon="7.7665807"><ele>285.3333333333333</ele><time>2026-05-01T09:11:05.273Z</time></trkpt><trkpt lat="44.6914446" lon="7.7666252"><ele>285.66666666666663</ele><time>2026-05-01T09:11:06.274Z</time></trkpt><trkpt lat="44.6912891" lon="7.7666777"><ele>286.0</ele><time>2026-05-01T09:11:07.273Z</time></trkpt><trkpt lat="44.6911372" lon="7.7667252"><ele>285.66666666666663</ele><time>2026-05-01T09:11:08.273Z</time></trkpt><trkpt lat="44.6909868" lon="7.76677"><ele>285.3333333333333</ele><time>2026-05-01T09:11:09.274Z</time></trkpt><trkpt lat="44.6908363" lon="7.7668109"><ele>285.0</ele><time>2026-05-01T09:11:10.273Z</time></trkpt><trkpt lat="44.6906714" lon="7.7668492"><ele>285.0</ele><time>2026-05-01T09:11:11.273Z</time></trkpt><trkpt lat="44.6905026" lon="7.7668928"><ele>285.0</ele><time>2026-05-01T09:11:12.274Z</time></trkpt><trkpt lat="44.6903346" lon="7.7669413"><ele>285.0</ele><time>2026-05-01T09:11:13.273Z</time></trkpt><trkpt lat="44.6901645" lon="7.7670024"><ele>285.0</ele><time>2026-05-01T09:11:14.273Z</time></trkpt><trkpt lat="44.6899952" lon="7.7670575"><ele>285.0</ele><time>2026-05-01T09:11:15.274Z</time></trkpt><trkpt lat="44.6898314" lon="7.7671032"><ele>285.0</ele><time>2026-05-01T09:11:16.273Z</time></trkpt><trkpt lat="44.6896743" lon="7.7671578"><ele>285.0</ele><time>2026-05-01T09:11:17.273Z</time></trkpt><trkpt lat="44.6895166" lon="7.7672042"><ele>285.0</ele><time>2026-05-01T09:11:18.273Z</time></trkpt><trkpt lat="44.689354" lon="7.7672503"><ele>285.0</ele><time>2026-05-01T09:11:19.273Z</time></trkpt><trkpt lat="44.689195" lon="7.7672927"><ele>285.3333333333333</ele><time>2026-05-01T09:11:20.273Z</time></trkpt><trkpt lat="44.6890384" lon="7.7673371"><ele>285.66666666666663</ele><time>2026-05-01T09:11:21.273Z</time></trkpt><trkpt lat="44.6888789" lon="7.767382"><ele>286.0</ele><time>2026-05-01T09:11:22.273Z</time></trkpt><trkpt lat="44.688716" lon="7.7674284"><ele>286.0</ele><time>2026-05-01T09:11:23.273Z</time></trkpt><trkpt lat="44.6885535" lon="7.7674753"><ele>286.0</ele><time>2026-05-01T09:11:24.273Z</time></trkpt><trkpt lat="44.6883882" lon="7.767525"><ele>286.0</ele><time>2026-05-01T09:11:25.273Z</time></trkpt><trkpt lat="44.688214" lon="7.7675724"><ele>286.0</ele><time>2026-05-01T09:11:26.273Z</time></trkpt><trkpt lat="44.6880414" lon="7.7676193"><ele>286.0</ele><time>2026-05-01T09:11:27.273Z</time></trkpt><trkpt lat="44.6878593" lon="7.7676703"><ele>286.0</ele><time>2026-05-01T09:11:28.273Z</time></trkpt><trkpt lat="44.6876801" lon="7.7677206"><ele>286.0</ele><time>2026-05-01T09:11:29.273Z</time></trkpt><trkpt lat="44.6874973" lon="7.7677749"><ele>286.0</ele><time>2026-05-01T09:11:30.273Z</time></trkpt><trkpt lat="44.6873199" lon="7.7678269"><ele>286.0</ele><time>2026-05-01T09:11:31.274Z</time></trkpt><trkpt lat="44.6871431" lon="7.76788"><ele>286.0</ele><time>2026-05-01T09:11:32.273Z</time></trkpt><trkpt lat="44.6869634" lon="7.7679376"><ele>286.0</ele><time>2026-05-01T09:11:33.273Z</time></trkpt><trkpt lat="44.6867819" lon="7.7679888"><ele>286.0</ele><time>2026-05-01T09:11:34.273Z</time></trkpt><trkpt lat="44.6865971" lon="7.768042"><ele>286.66666666666663</ele><time>2026-05-01T09:11:35.273Z</time></trkpt><trkpt lat="44.6864136" lon="7.768091"><ele>287.3333333333333</ele><time>2026-05-01T09:11:36.274Z</time></trkpt><trkpt lat="44.6862345" lon="7.7681394"><ele>288.0</ele><time>2026-05-01T09:11:37.273Z</time></trkpt><trkpt lat="44.686053" lon="7.7681907"><ele>288.0</ele><time>2026-05-01T09:11:38.273Z</time></trkpt><trkpt lat="44.6858713" lon="7.7682423"><ele>288.0</ele><time>2026-05-01T09:11:39.273Z</time></trkpt><trkpt lat="44.6856824" lon="7.7682898"><ele>288.0</ele><time>2026-05-01T09:11:40.273Z</time></trkpt><trkpt lat="44.6854937" lon="7.7683451"><ele>288.0</ele><time>2026-05-01T09:11:41.273Z</time></trkpt><trkpt lat="44.6853066" lon="7.7684016"><ele>288.0</ele><time>2026-05-01T09:11:42.273Z</time></trkpt><trkpt lat="44.6851142" lon="7.7684569"><ele>288.0</ele><time>2026-05-01T09:11:43.273Z</time></trkpt><trkpt lat="44.684924" lon="7.7685076"><ele>287.6666666666667</ele><time>2026-05-01T09:11:44.273Z</time></trkpt><trkpt lat="44.6847367" lon="7.7685634"><ele>287.33333333333337</ele><time>2026-05-01T09:11:45.273Z</time></trkpt><trkpt lat="44.6845484" lon="7.7686171"><ele>287.0</ele><time>2026-05-01T09:11:46.274Z</time></trkpt><trkpt lat="44.6843642" lon="7.7686636"><ele>287.0</ele><time>2026-05-01T09:11:47.273Z</time></trkpt><trkpt lat="44.6841736" lon="7.7687228"><ele>287.0</ele><time>2026-05-01T09:11:48.273Z</time></trkpt><trkpt lat="44.6839835" lon="7.7687784"><ele>287.0</ele><time>2026-05-01T09:11:49.273Z</time></trkpt><trkpt lat="44.6837948" lon="7.7688336"><ele>287.0</ele><time>2026-05-01T09:11:50.273Z</time></trkpt><trkpt lat="44.6836022" lon="7.7688873"><ele>287.0</ele><time>2026-05-01T09:11:51.273Z</time></trkpt><trkpt lat="44.6834105" lon="7.7689392"><ele>287.0</ele><time>2026-05-01T09:11:52.273Z</time></trkpt><trkpt lat="44.6832218" lon="7.7689881"><ele>287.0</ele><time>2026-05-01T09:11:53.273Z</time></trkpt><trkpt lat="44.6830333" lon="7.7690463"><ele>287.0</ele><time>2026-05-01T09:11:54.274Z</time></trkpt><trkpt lat="44.6828403" lon="7.7691075"><ele>287.0</ele><time>2026-05-01T09:11:55.273Z</time></trkpt><trkpt lat="44.6826455" lon="7.76917"><ele>287.0</ele><time>2026-05-01T09:11:56.273Z</time></trkpt><trkpt lat="44.6824516" lon="7.7692347"><ele>287.0</ele><time>2026-05-01T09:11:57.273Z</time></trkpt><trkpt lat="44.6822549" lon="7.7692984"><ele>287.0</ele><time>2026-05-01T09:11:58.273Z</time></trkpt><trkpt lat="44.6820535" lon="7.7693605"><ele>287.33333333333337</ele><time>2026-05-01T09:11:59.273Z</time></trkpt><trkpt lat="44.6818533" lon="7.7694201"><ele>287.6666666666667</ele><time>2026-05-01T09:12:00.274Z</time></trkpt><trkpt lat="44.6816576" lon="7.7694743"><ele>288.0</ele><time>2026-05-01T09:12:01.273Z</time></trkpt><trkpt lat="44.6814618" lon="7.7695319"><ele>288.0</ele><time>2026-05-01T09:12:02.273Z</time></trkpt><trkpt lat="44.6812702" lon="7.7695842"><ele>288.0</ele><time>2026-05-01T09:12:03.273Z</time></trkpt><trkpt lat="44.6810849" lon="7.7696343"><ele>288.0</ele><time>2026-05-01T09:12:04.273Z</time></trkpt><trkpt lat="44.680909" lon="7.7696883"><ele>288.3333333333333</ele><time>2026-05-01T09:12:05.273Z</time></trkpt><trkpt lat="44.6807316" lon="7.7697353"><ele>288.66666666666663</ele><time>2026-05-01T09:12:06.273Z</time></trkpt><trkpt lat="44.6805471" lon="7.7697836"><ele>289.0</ele><time>2026-05-01T09:12:07.273Z</time></trkpt><trkpt lat="44.6803554" lon="7.7698329"><ele>289.3333333333333</ele><time>2026-05-01T09:12:08.273Z</time></trkpt><trkpt lat="44.6801538" lon="7.7698868"><ele>289.6666666666667</ele><time>2026-05-01T09:12:09.274Z</time></trkpt><trkpt lat="44.6799498" lon="7.7699419"><ele>290.0</ele><time>2026-05-01T09:12:10.273Z</time></trkpt><trkpt lat="44.6797434" lon="7.770002"><ele>290.0</ele><time>2026-05-01T09:12:11.273Z</time></trkpt><trkpt lat="44.6795369" lon="7.7700648"><ele>290.0</ele><time>2026-05-01T09:12:12.273Z</time></trkpt><trkpt lat="44.6793274" lon="7.7701224"><ele>290.0</ele><time>2026-05-01T09:12:13.273Z</time></trkpt><trkpt lat="44.6791175" lon="7.7701848"><ele>290.33333333333337</ele><time>2026-05-01T09:12:14.273Z</time></trkpt><trkpt lat="44.6789073" lon="7.7702495"><ele>290.6666666666667</ele><time>2026-05-01T09:12:15.273Z</time></trkpt><trkpt lat="44.6786959" lon="7.770306"><ele>291.0</ele><time>2026-05-01T09:12:16.273Z</time></trkpt><trkpt lat="44.6784853" lon="7.7703599"><ele>292.0</ele><time>2026-05-01T09:12:17.273Z</time></trkpt><trkpt lat="44.6782719" lon="7.7704135"><ele>293.0</ele><time>2026-05-01T09:12:18.273Z</time></trkpt><trkpt lat="44.6780567" lon="7.7704769"><ele>294.0</ele><time>2026-05-01T09:12:19.273Z</time></trkpt><trkpt lat="44.6778311" lon="7.7705432"><ele>292.5</ele><time>2026-05-01T09:12:20.273Z</time></trkpt><trkpt lat="44.6775992" lon="7.7706116"><ele>291.0</ele><time>2026-05-01T09:12:21.273Z</time></trkpt><trkpt lat="44.6773695" lon="7.7706816"><ele>291.0</ele><time>2026-05-01T09:12:22.273Z</time></trkpt><trkpt lat="44.6771397" lon="7.7707558"><ele>291.0</ele><time>2026-05-01T09:12:23.273Z</time></trkpt><trkpt lat="44.6769128" lon="7.7708273"><ele>291.0</ele><time>2026-05-01T09:12:24.273Z</time></trkpt><trkpt lat="44.6766942" lon="7.770893"><ele>291.0</ele><time>2026-05-01T09:12:25.273Z</time></trkpt><trkpt lat="44.6764798" lon="7.7709512"><ele>291.0</ele><time>2026-05-01T09:12:26.273Z</time></trkpt><trkpt lat="44.676262" lon="7.7710115"><ele>292.0</ele><time>2026-05-01T09:12:27.274Z</time></trkpt><trkpt lat="44.6760448" lon="7.771066"><ele>293.0</ele><time>2026-05-01T09:12:28.273Z</time></trkpt><trkpt lat="44.6758223" lon="7.7711317"><ele>294.0</ele><time>2026-05-01T09:12:29.273Z</time></trkpt><trkpt lat="44.6756051" lon="7.7711938"><ele>294.0</ele><time>2026-05-01T09:12:30.273Z</time></trkpt><trkpt lat="44.6754037" lon="7.7712524"><ele>294.0</ele><time>2026-05-01T09:12:31.273Z</time></trkpt><trkpt lat="44.6752074" lon="7.771309"><ele>294.0</ele><time>2026-05-01T09:12:32.273Z</time></trkpt><trkpt lat="44.6750097" lon="7.7713628"><ele>294.0</ele><time>2026-05-01T09:12:33.273Z</time></trkpt><trkpt lat="44.6748099" lon="7.7714232"><ele>294.0</ele><time>2026-05-01T09:12:34.274Z</time></trkpt><trkpt lat="44.6746048" lon="7.7714799"><ele>294.0</ele><time>2026-05-01T09:12:35.273Z</time></trkpt><trkpt lat="44.6743982" lon="7.7715445"><ele>294.0</ele><time>2026-05-01T09:12:36.273Z</time></trkpt><trkpt lat="44.6741902" lon="7.7716117"><ele>294.0</ele><time>2026-05-01T09:12:37.273Z</time></trkpt><trkpt lat="44.6739878" lon="7.7716783"><ele>294.0</ele><time>2026-05-01T09:12:38.273Z</time></trkpt><trkpt lat="44.6737837" lon="7.771735"><ele>293.6666666666667</ele><time>2026-05-01T09:12:39.273Z</time></trkpt><trkpt lat="44.6735895" lon="7.7717906"><ele>293.33333333333337</ele><time>2026-05-01T09:12:40.273Z</time></trkpt><trkpt lat="44.673404" lon="7.7718426"><ele>293.0</ele><time>2026-05-01T09:12:41.273Z</time></trkpt><trkpt lat="44.6732232" lon="7.7718953"><ele>293.0</ele><time>2026-05-01T09:12:42.273Z</time></trkpt><trkpt lat="44.6730542" lon="7.7719425"><ele>293.0</ele><time>2026-05-01T09:12:43.273Z</time></trkpt><trkpt lat="44.6728985" lon="7.7719846"><ele>293.0</ele><time>2026-05-01T09:12:44.273Z</time></trkpt><trkpt lat="44.6727459" lon="7.7720302"><ele>293.33333333333337</ele><time>2026-05-01T09:12:45.273Z</time></trkpt><trkpt lat="44.67259" lon="7.7720739"><ele>293.6666666666667</ele><time>2026-05-01T09:12:46.273Z</time></trkpt><trkpt lat="44.6724303" lon="7.7721244"><ele>294.0</ele><time>2026-05-01T09:12:47.273Z</time></trkpt><trkpt lat="44.6722601" lon="7.7721689"><ele>294.0</ele><time>2026-05-01T09:12:48.274Z</time></trkpt><trkpt lat="44.6720979" lon="7.7722183"><ele>294.0</ele><time>2026-05-01T09:12:49.273Z</time></trkpt><trkpt lat="44.6719321" lon="7.7722612"><ele>294.0</ele><time>2026-05-01T09:12:50.273Z</time></trkpt><trkpt lat="44.6717774" lon="7.7723028"><ele>294.0</ele><time>2026-05-01T09:12:51.273Z</time></trkpt><trkpt lat="44.6716185" lon="7.7723486"><ele>294.0</ele><time>2026-05-01T09:12:52.273Z</time></trkpt><trkpt lat="44.6714627" lon="7.772398"><ele>294.0</ele><time>2026-05-01T09:12:53.274Z</time></trkpt><trkpt lat="44.6713047" lon="7.7724479"><ele>294.0</ele><time>2026-05-01T09:12:54.273Z</time></trkpt><trkpt lat="44.6711345" lon="7.7725072"><ele>294.0</ele><time>2026-05-01T09:12:55.273Z</time></trkpt><trkpt lat="44.670959" lon="7.7725682"><ele>294.0</ele><time>2026-05-01T09:12:56.273Z</time></trkpt><trkpt lat="44.6707636" lon="7.7726361"><ele>294.3333333333333</ele><time>2026-05-01T09:12:57.273Z</time></trkpt><trkpt lat="44.6705532" lon="7.7727003"><ele>294.66666666666663</ele><time>2026-05-01T09:12:58.273Z</time></trkpt><trkpt lat="44.6703265" lon="7.7727693"><ele>295.0</ele><time>2026-05-01T09:12:59.274Z</time></trkpt><trkpt lat="44.6700884" lon="7.7728298"><ele>294.0</ele><time>2026-05-01T09:13:00.273Z</time></trkpt><trkpt lat="44.6698432" lon="7.7728922"><ele>293.0</ele><time>2026-05-01T09:13:01.273Z</time></trkpt><trkpt lat="44.669594" lon="7.7729613"><ele>294.0</ele><time>2026-05-01T09:13:02.273Z</time></trkpt><trkpt lat="44.6693492" lon="7.7730323"><ele>295.0</ele><time>2026-05-01T09:13:03.273Z</time></trkpt><trkpt lat="44.6691002" lon="7.7731104"><ele>295.0</ele><time>2026-05-01T09:13:04.273Z</time></trkpt><trkpt lat="44.6688488" lon="7.7731874"><ele>295.0</ele><time>2026-05-01T09:13:05.273Z</time></trkpt><trkpt lat="44.6685985" lon="7.7732669"><ele>295.5</ele><time>2026-05-01T09:13:06.273Z</time></trkpt><trkpt lat="44.6683515" lon="7.7733398"><ele>296.0</ele><time>2026-05-01T09:13:07.273Z</time></trkpt><trkpt lat="44.6681093" lon="7.773412"><ele>296.0</ele><time>2026-05-01T09:13:08.273Z</time></trkpt><trkpt lat="44.6678746" lon="7.7734762"><ele>296.0</ele><time>2026-05-01T09:13:09.273Z</time></trkpt><trkpt lat="44.6676524" lon="7.7735406"><ele>295.5</ele><time>2026-05-01T09:13:10.273Z</time></trkpt><trkpt lat="44.6674297" lon="7.7736012"><ele>295.0</ele><time>2026-05-01T09:13:11.273Z</time></trkpt><trkpt lat="44.6672082" lon="7.7736696"><ele>295.0</ele><time>2026-05-01T09:13:12.273Z</time></trkpt><trkpt lat="44.6669807" lon="7.7737446"><ele>295.0</ele><time>2026-05-01T09:13:13.274Z</time></trkpt><trkpt lat="44.6667499" lon="7.7738199"><ele>295.66666666666663</ele><time>2026-05-01T09:13:14.274Z</time></trkpt><trkpt lat="44.6665258" lon="7.773885"><ele>296.3333333333333</ele><time>2026-05-01T09:13:15.273Z</time></trkpt><trkpt lat="44.66632" lon="7.7739466"><ele>297.0</ele><time>2026-05-01T09:13:16.274Z</time></trkpt><trkpt lat="44.6661104" lon="7.7740033"><ele>297.6666666666667</ele><time>2026-05-01T09:13:17.273Z</time></trkpt><trkpt lat="44.6659079" lon="7.7740571"><ele>298.33333333333337</ele><time>2026-05-01T09:13:18.273Z</time></trkpt><trkpt lat="44.665703" lon="7.7741198"><ele>299.0</ele><time>2026-05-01T09:13:19.273Z</time></trkpt><trkpt lat="44.6654894" lon="7.7741868"><ele>299.0</ele><time>2026-05-01T09:13:20.273Z</time></trkpt><trkpt lat="44.6652777" lon="7.7742464"><ele>299.0</ele><time>2026-05-01T09:13:21.274Z</time></trkpt><trkpt lat="44.6650718" lon="7.7743012"><ele>299.0</ele><time>2026-05-01T09:13:22.273Z</time></trkpt><trkpt lat="44.6648623" lon="7.774354"><ele>300.5</ele><time>2026-05-01T09:13:23.273Z</time></trkpt><trkpt lat="44.664643" lon="7.7744061"><ele>302.0</ele><time>2026-05-01T09:13:24.274Z</time></trkpt><trkpt lat="44.6644191" lon="7.7744624"><ele>302.0</ele><time>2026-05-01T09:13:25.273Z</time></trkpt><trkpt lat="44.6641923" lon="7.774529"><ele>302.0</ele><time>2026-05-01T09:13:26.273Z</time></trkpt><trkpt lat="44.6639587" lon="7.7745876"><ele>302.0</ele><time>2026-05-01T09:13:27.274Z</time></trkpt><trkpt lat="44.6637118" lon="7.7746536"><ele>302.0</ele><time>2026-05-01T09:13:28.273Z</time></trkpt><trkpt lat="44.6634658" lon="7.7747203"><ele>300.0</ele><time>2026-05-01T09:13:29.274Z</time></trkpt><trkpt lat="44.6632244" lon="7.7747863"><ele>298.0</ele><time>2026-05-01T09:13:30.273Z</time></trkpt><trkpt lat="44.6629804" lon="7.7748541"><ele>298.5</ele><time>2026-05-01T09:13:31.273Z</time></trkpt><trkpt lat="44.6627341" lon="7.7749252"><ele>299.0</ele><time>2026-05-01T09:13:32.273Z</time></trkpt><trkpt lat="44.6624885" lon="7.7750012"><ele>299.0</ele><time>2026-05-01T09:13:33.273Z</time></trkpt><trkpt lat="44.6622421" lon="7.7750801"><ele>299.0</ele><time>2026-05-01T09:13:34.273Z</time></trkpt><trkpt lat="44.6620039" lon="7.7751581"><ele>300.0</ele><time>2026-05-01T09:13:35.273Z</time></trkpt><trkpt lat="44.6617585" lon="7.7752392"><ele>301.0</ele><time>2026-05-01T09:13:36.273Z</time></trkpt><trkpt lat="44.6615077" lon="7.7753213"><ele>301.0</ele><time>2026-05-01T09:13:37.273Z</time></trkpt><trkpt lat="44.6612558" lon="7.7753988"><ele>301.0</ele><time>2026-05-01T09:13:38.273Z</time></trkpt><trkpt lat="44.661004" lon="7.7754677"><ele>300.0</ele><time>2026-05-01T09:13:39.273Z</time></trkpt><trkpt lat="44.6607595" lon="7.7755388"><ele>299.0</ele><time>2026-05-01T09:13:40.273Z</time></trkpt><trkpt lat="44.660513" lon="7.7756119"><ele>299.5</ele><time>2026-05-01T09:13:41.273Z</time></trkpt><trkpt lat="44.6602607" lon="7.775681"><ele>300.0</ele><time>2026-05-01T09:13:42.273Z</time></trkpt><trkpt lat="44.6600058" lon="7.7757524"><ele>300.0</ele><time>2026-05-01T09:13:43.273Z</time></trkpt><trkpt lat="44.6597532" lon="7.7758213"><ele>300.0</ele><time>2026-05-01T09:13:44.273Z</time></trkpt><trkpt lat="44.6594999" lon="7.7758939"><ele>300.5</ele><time>2026-05-01T09:13:45.273Z</time></trkpt><trkpt lat="44.6592495" lon="7.7759657"><ele>301.0</ele><time>2026-05-01T09:13:46.273Z</time></trkpt><trkpt lat="44.6589941" lon="7.7760429"><ele>302.0</ele><time>2026-05-01T09:13:47.274Z</time></trkpt><trkpt lat="44.6587466" lon="7.7761153"><ele>303.0</ele><time>2026-05-01T09:13:48.273Z</time></trkpt><trkpt lat="44.6585014" lon="7.7761899"><ele>303.0</ele><time>2026-05-01T09:13:49.274Z</time></trkpt><trkpt lat="44.658257" lon="7.7762604"><ele>303.0</ele><time>2026-05-01T09:13:50.273Z</time></trkpt><trkpt lat="44.6580178" lon="7.7763304"><ele>303.5</ele><time>2026-05-01T09:13:51.274Z</time></trkpt><trkpt lat="44.6577779" lon="7.7763962"><ele>304.0</ele><time>2026-05-01T09:13:52.273Z</time></trkpt><trkpt lat="44.6575336" lon="7.7764642"><ele>304.0</ele><time>2026-05-01T09:13:53.273Z</time></trkpt><trkpt lat="44.6572873" lon="7.7765381"><ele>304.0</ele><time>2026-05-01T09:13:54.273Z</time></trkpt><trkpt lat="44.6570422" lon="7.7766087"><ele>304.0</ele><time>2026-05-01T09:13:55.274Z</time></trkpt><trkpt lat="44.6567985" lon="7.776683"><ele>304.0</ele><time>2026-05-01T09:13:56.273Z</time></trkpt><trkpt lat="44.6565534" lon="7.7767566"><ele>304.0</ele><time>2026-05-01T09:13:57.273Z</time></trkpt><trkpt lat="44.6563157" lon="7.77682"><ele>304.0</ele><time>2026-05-01T09:13:58.273Z</time></trkpt><trkpt lat="44.6560841" lon="7.7768789"><ele>302.0</ele><time>2026-05-01T09:13:59.273Z</time></trkpt><trkpt lat="44.6558535" lon="7.7769426"><ele>300.0</ele><time>2026-05-01T09:14:00.273Z</time></trkpt><trkpt lat="44.6556231" lon="7.7770117"><ele>300.0</ele><time>2026-05-01T09:14:01.273Z</time></trkpt><trkpt lat="44.6553901" lon="7.7770788"><ele>300.0</ele><time>2026-05-01T09:14:02.273Z</time></trkpt><trkpt lat="44.655161" lon="7.7771497"><ele>301.0</ele><time>2026-05-01T09:14:03.273Z</time></trkpt><trkpt lat="44.6549375" lon="7.7772098"><ele>302.0</ele><time>2026-05-01T09:14:04.273Z</time></trkpt><trkpt lat="44.6547193" lon="7.7772724"><ele>302.0</ele><time>2026-05-01T09:14:05.273Z</time></trkpt><trkpt lat="44.6545018" lon="7.7773312"><ele>302.0</ele><time>2026-05-01T09:14:06.273Z</time></trkpt><trkpt lat="44.6542909" lon="7.7773936"><ele>302.0</ele><time>2026-05-01T09:14:07.273Z</time></trkpt><trkpt lat="44.6540779" lon="7.7774611"><ele>302.0</ele><time>2026-05-01T09:14:08.273Z</time></trkpt><trkpt lat="44.6538577" lon="7.7775278"><ele>302.0</ele><time>2026-05-01T09:14:09.273Z</time></trkpt><trkpt lat="44.6536346" lon="7.7775927"><ele>302.0</ele><time>2026-05-01T09:14:10.273Z</time></trkpt><trkpt lat="44.653412" lon="7.7776584"><ele>302.0</ele><time>2026-05-01T09:14:11.273Z</time></trkpt><trkpt lat="44.6531852" lon="7.7777195"><ele>302.0</ele><time>2026-05-01T09:14:12.273Z</time></trkpt><trkpt lat="44.6529475" lon="7.7777842"><ele>302.0</ele><time>2026-05-01T09:14:13.273Z</time></trkpt><trkpt lat="44.6527086" lon="7.7778499"><ele>302.5</ele><time>2026-05-01T09:14:14.273Z</time></trkpt><trkpt lat="44.6524671" lon="7.7779108"><ele>303.0</ele><time>2026-05-01T09:14:15.273Z</time></trkpt><trkpt lat="44.652222" lon="7.7779754"><ele>303.0</ele><time>2026-05-01T09:14:16.273Z</time></trkpt><trkpt lat="44.6519696" lon="7.7780418"><ele>303.0</ele><time>2026-05-01T09:14:17.273Z</time></trkpt><trkpt lat="44.6517233" lon="7.7781019"><ele>304.5</ele><time>2026-05-01T09:14:18.274Z</time></trkpt><trkpt lat="44.6514852" lon="7.7781577"><ele>306.0</ele><time>2026-05-01T09:14:19.273Z</time></trkpt><trkpt lat="44.6512357" lon="7.7782128"><ele>306.0</ele><time>2026-05-01T09:14:20.273Z</time></trkpt><trkpt lat="44.6509871" lon="7.7782724"><ele>306.0</ele><time>2026-05-01T09:14:21.273Z</time></trkpt><trkpt lat="44.6507414" lon="7.7783282"><ele>306.0</ele><time>2026-05-01T09:14:22.273Z</time></trkpt><trkpt lat="44.650496" lon="7.7783833"><ele>306.0</ele><time>2026-05-01T09:14:23.273Z</time></trkpt><trkpt lat="44.6502424" lon="7.7784329"><ele>305.5</ele><time>2026-05-01T09:14:24.274Z</time></trkpt><trkpt lat="44.6499902" lon="7.7784758"><ele>305.0</ele><time>2026-05-01T09:14:25.273Z</time></trkpt><trkpt lat="44.6497382" lon="7.7785223"><ele>305.0</ele><time>2026-05-01T09:14:26.273Z</time></trkpt><trkpt lat="44.6494868" lon="7.7785675"><ele>305.0</ele><time>2026-05-01T09:14:27.273Z</time></trkpt><trkpt lat="44.649235" lon="7.7786059"><ele>305.0</ele><time>2026-05-01T09:14:28.273Z</time></trkpt><trkpt lat="44.6489817" lon="7.7786457"><ele>305.0</ele><time>2026-05-01T09:14:29.273Z</time></trkpt><trkpt lat="44.6487283" lon="7.7786857"><ele>307.0</ele><time>2026-05-01T09:14:30.273Z</time></trkpt><trkpt lat="44.6484745" lon="7.7787233"><ele>309.0</ele><time>2026-05-01T09:14:31.273Z</time></trkpt><trkpt lat="44.6482213" lon="7.7787542"><ele>309.0</ele><time>2026-05-01T09:14:32.273Z</time></trkpt><trkpt lat="44.6479653" lon="7.7787875"><ele>309.0</ele><time>2026-05-01T09:14:33.273Z</time></trkpt><trkpt lat="44.6477074" lon="7.7788208"><ele>308.5</ele><time>2026-05-01T09:14:34.273Z</time></trkpt><trkpt lat="44.647449" lon="7.7788518"><ele>308.0</ele><time>2026-05-01T09:14:35.274Z</time></trkpt><trkpt lat="44.6471907" lon="7.7788833"><ele>308.0</ele><time>2026-05-01T09:14:36.274Z</time></trkpt><trkpt lat="44.6469349" lon="7.778908"><ele>308.0</ele><time>2026-05-01T09:14:37.273Z</time></trkpt><trkpt lat="44.6466767" lon="7.7789291"><ele>308.0</ele><time>2026-05-01T09:14:38.273Z</time></trkpt><trkpt lat="44.6464134" lon="7.7789476"><ele>308.0</ele><time>2026-05-01T09:14:39.273Z</time></trkpt><trkpt lat="44.6461451" lon="7.7789626"><ele>307.5</ele><time>2026-05-01T09:14:40.273Z</time></trkpt><trkpt lat="44.6458811" lon="7.7789762"><ele>307.0</ele><time>2026-05-01T09:14:41.273Z</time></trkpt><trkpt lat="44.6456177" lon="7.7789884"><ele>307.0</ele><time>2026-05-01T09:14:42.273Z</time></trkpt><trkpt lat="44.6453533" lon="7.7789946"><ele>307.0</ele><time>2026-05-01T09:14:43.273Z</time></trkpt><trkpt lat="44.6450887" lon="7.779004"><ele>307.0</ele><time>2026-05-01T09:14:44.273Z</time></trkpt><trkpt lat="44.6448268" lon="7.7790181"><ele>307.0</ele><time>2026-05-01T09:14:45.273Z</time></trkpt><trkpt lat="44.6445679" lon="7.7790259"><ele>306.5</ele><time>2026-05-01T09:14:46.273Z</time></trkpt><trkpt lat="44.6443083" lon="7.7790331"><ele>306.0</ele><time>2026-05-01T09:14:47.273Z</time></trkpt><trkpt lat="44.6440502" lon="7.7790287"><ele>306.0</ele><time>2026-05-01T09:14:48.273Z</time></trkpt><trkpt lat="44.6438054" lon="7.7790293"><ele>306.0</ele><time>2026-05-01T09:14:49.273Z</time></trkpt><trkpt lat="44.6435658" lon="7.7790243"><ele>306.0</ele><time>2026-05-01T09:14:50.273Z</time></trkpt><trkpt lat="44.6433338" lon="7.7790179"><ele>306.0</ele><time>2026-05-01T09:14:51.273Z</time></trkpt><trkpt lat="44.6431086" lon="7.7790089"><ele>306.0</ele><time>2026-05-01T09:14:52.273Z</time></trkpt><trkpt lat="44.6428831" lon="7.7789978"><ele>306.0</ele><time>2026-05-01T09:14:53.274Z</time></trkpt><trkpt lat="44.6426569" lon="7.7789861"><ele>306.0</ele><time>2026-05-01T09:14:54.274Z</time></trkpt><trkpt lat="44.6424315" lon="7.7789829"><ele>306.0</ele><time>2026-05-01T09:14:55.273Z</time></trkpt><trkpt lat="44.6422048" lon="7.7789712"><ele>306.0</ele><time>2026-05-01T09:14:56.273Z</time></trkpt><trkpt lat="44.6419763" lon="7.7789614"><ele>306.0</ele><time>2026-05-01T09:14:57.273Z</time></trkpt><trkpt lat="44.6417424" lon="7.7789407"><ele>307.5</ele><time>2026-05-01T09:14:58.273Z</time></trkpt><trkpt lat="44.6415102" lon="7.7789234"><ele>309.0</ele><time>2026-05-01T09:14:59.273Z</time></trkpt><trkpt lat="44.6412785" lon="7.7789066"><ele>308.5</ele><time>2026-05-01T09:15:00.273Z</time></trkpt><trkpt lat="44.6410427" lon="7.7788872"><ele>308.0</ele><time>2026-05-01T09:15:01.273Z</time></trkpt><trkpt lat="44.6408132" lon="7.7788602"><ele>308.0</ele><time>2026-05-01T09:15:02.273Z</time></trkpt><trkpt lat="44.6405875" lon="7.7788405"><ele>308.0</ele><time>2026-05-01T09:15:03.274Z</time></trkpt><trkpt lat="44.6403687" lon="7.7788164"><ele>308.0</ele><time>2026-05-01T09:15:04.273Z</time></trkpt><trkpt lat="44.6401587" lon="7.7787894"><ele>307.6666666666667</ele><time>2026-05-01T09:15:05.274Z</time></trkpt><trkpt lat="44.6399483" lon="7.7787656"><ele>307.3333333333333</ele><time>2026-05-01T09:15:06.273Z</time></trkpt><trkpt lat="44.6397457" lon="7.7787316"><ele>307.0</ele><time>2026-05-01T09:15:07.273Z</time></trkpt><trkpt lat="44.639547" lon="7.7786968"><ele>307.66666666666663</ele><time>2026-05-01T09:15:08.273Z</time></trkpt><trkpt lat="44.6393425" lon="7.7786589"><ele>308.3333333333333</ele><time>2026-05-01T09:15:09.273Z</time></trkpt><trkpt lat="44.6391543" lon="7.7786138"><ele>309.0</ele><time>2026-05-01T09:15:10.273Z</time></trkpt><trkpt lat="44.6389653" lon="7.7785718"><ele>309.0</ele><time>2026-05-01T09:15:11.273Z</time></trkpt><trkpt lat="44.6387753" lon="7.7785342"><ele>309.0</ele><time>2026-05-01T09:15:12.273Z</time></trkpt><trkpt lat="44.6385863" lon="7.7784952"><ele>309.0</ele><time>2026-05-01T09:15:13.273Z</time></trkpt><trkpt lat="44.6383948" lon="7.7784539"><ele>308.6666666666667</ele><time>2026-05-01T09:15:14.273Z</time></trkpt><trkpt lat="44.6382053" lon="7.7784108"><ele>308.33333333333337</ele><time>2026-05-01T09:15:15.273Z</time></trkpt><trkpt lat="44.6380036" lon="7.7783744"><ele>308.0</ele><time>2026-05-01T09:15:16.274Z</time></trkpt><trkpt lat="44.637813" lon="7.778336"><ele>308.6666666666667</ele><time>2026-05-01T09:15:17.273Z</time></trkpt><trkpt lat="44.637631" lon="7.7782978"><ele>309.3333333333333</ele><time>2026-05-01T09:15:18.273Z</time></trkpt><trkpt lat="44.6374562" lon="7.7782532"><ele>310.0</ele><time>2026-05-01T09:15:19.273Z</time></trkpt><trkpt lat="44.6372673" lon="7.7782167"><ele>310.0</ele><time>2026-05-01T09:15:20.273Z</time></trkpt><trkpt lat="44.6370761" lon="7.7781751"><ele>310.0</ele><time>2026-05-01T09:15:21.273Z</time></trkpt><trkpt lat="44.6368904" lon="7.7781391"><ele>310.0</ele><time>2026-05-01T09:15:22.273Z</time></trkpt><trkpt lat="44.6367049" lon="7.7780989"><ele>309.66666666666663</ele><time>2026-05-01T09:15:23.273Z</time></trkpt><trkpt lat="44.6365154" lon="7.7780589"><ele>309.3333333333333</ele><time>2026-05-01T09:15:24.273Z</time></trkpt><trkpt lat="44.6363256" lon="7.7780181"><ele>309.0</ele><time>2026-05-01T09:15:25.273Z</time></trkpt><trkpt lat="44.6361328" lon="7.7779794"><ele>309.6666666666667</ele><time>2026-05-01T09:15:26.273Z</time></trkpt><trkpt lat="44.6359422" lon="7.777934"><ele>310.33333333333337</ele><time>2026-05-01T09:15:27.273Z</time></trkpt><trkpt lat="44.6357534" lon="7.7778812"><ele>311.0</ele><time>2026-05-01T09:15:28.273Z</time></trkpt><trkpt lat="44.6355649" lon="7.7778321"><ele>311.0</ele><time>2026-05-01T09:15:29.273Z</time></trkpt><trkpt lat="44.6353766" lon="7.7777808"><ele>311.0</ele><time>2026-05-01T09:15:30.273Z</time></trkpt><trkpt lat="44.6351913" lon="7.777723"><ele>311.0</ele><time>2026-05-01T09:15:31.273Z</time></trkpt><trkpt lat="44.6350031" lon="7.7776702"><ele>310.6666666666667</ele><time>2026-05-01T09:15:32.274Z</time></trkpt><trkpt lat="44.6348103" lon="7.7776113"><ele>310.3333333333333</ele><time>2026-05-01T09:15:33.273Z</time></trkpt><trkpt lat="44.6346183" lon="7.777557"><ele>310.0</ele><time>2026-05-01T09:15:34.274Z</time></trkpt><trkpt lat="44.634425" lon="7.7774979"><ele>310.0</ele><time>2026-05-01T09:15:35.273Z</time></trkpt><trkpt lat="44.6342452" lon="7.7774361"><ele>310.0</ele><time>2026-05-01T09:15:36.273Z</time></trkpt><trkpt lat="44.6340709" lon="7.7773797"><ele>310.0</ele><time>2026-05-01T09:15:37.273Z</time></trkpt><trkpt lat="44.6339083" lon="7.7773241"><ele>310.0</ele><time>2026-05-01T09:15:38.274Z</time></trkpt><trkpt lat="44.633749" lon="7.7772701"><ele>310.0</ele><time>2026-05-01T09:15:39.273Z</time></trkpt><trkpt lat="44.6335852" lon="7.7772238"><ele>310.0</ele><time>2026-05-01T09:15:40.273Z</time></trkpt><trkpt lat="44.6334265" lon="7.7771745"><ele>310.3333333333333</ele><time>2026-05-01T09:15:41.273Z</time></trkpt><trkpt lat="44.6332651" lon="7.7771204"><ele>310.6666666666667</ele><time>2026-05-01T09:15:42.273Z</time></trkpt><trkpt lat="44.633102" lon="7.777062"><ele>311.0</ele><time>2026-05-01T09:15:43.273Z</time></trkpt><trkpt lat="44.6329368" lon="7.7770041"><ele>311.0</ele><time>2026-05-01T09:15:44.273Z</time></trkpt><trkpt lat="44.6327728" lon="7.7769409"><ele>311.0</ele><time>2026-05-01T09:15:45.273Z</time></trkpt><trkpt lat="44.6326045" lon="7.7768745"><ele>311.0</ele><time>2026-05-01T09:15:46.273Z</time></trkpt><trkpt lat="44.6324345" lon="7.7768078"><ele>311.0</ele><time>2026-05-01T09:15:47.273Z</time></trkpt><trkpt lat="44.6322695" lon="7.7767435"><ele>311.0</ele><time>2026-05-01T09:15:48.274Z</time></trkpt><trkpt lat="44.6320974" lon="7.7766772"><ele>311.0</ele><time>2026-05-01T09:15:49.273Z</time></trkpt><trkpt lat="44.6319209" lon="7.7766104"><ele>311.33333333333337</ele><time>2026-05-01T09:15:50.273Z</time></trkpt><trkpt lat="44.631742" lon="7.7765364"><ele>311.6666666666667</ele><time>2026-05-01T09:15:51.273Z</time></trkpt><trkpt lat="44.6315586" lon="7.7764619"><ele>312.0</ele><time>2026-05-01T09:15:52.273Z</time></trkpt><trkpt lat="44.6313674" lon="7.7763796"><ele>312.0</ele><time>2026-05-01T09:15:53.274Z</time></trkpt><trkpt lat="44.6311693" lon="7.7763017"><ele>312.0</ele><time>2026-05-01T09:15:54.273Z</time></trkpt><trkpt lat="44.6309748" lon="7.776219"><ele>312.0</ele><time>2026-05-01T09:15:55.274Z</time></trkpt><trkpt lat="44.630778" lon="7.7761342"><ele>312.0</ele><time>2026-05-01T09:15:56.274Z</time></trkpt><trkpt lat="44.6305784" lon="7.7760484"><ele>312.0</ele><time>2026-05-01T09:15:57.273Z</time></trkpt><trkpt lat="44.6303769" lon="7.775966"><ele>312.0</ele><time>2026-05-01T09:15:58.273Z</time></trkpt><trkpt lat="44.6301767" lon="7.7758735"><ele>312.0</ele><time>2026-05-01T09:15:59.273Z</time></trkpt><trkpt lat="44.6299761" lon="7.7757782"><ele>312.0</ele><time>2026-05-01T09:16:00.273Z</time></trkpt><trkpt lat="44.6297702" lon="7.775678"><ele>312.0</ele><time>2026-05-01T09:16:01.273Z</time></trkpt><trkpt lat="44.6295623" lon="7.7755751"><ele>312.0</ele><time>2026-05-01T09:16:02.273Z</time></trkpt><trkpt lat="44.629357" lon="7.7754803"><ele>312.0</ele><time>2026-05-01T09:16:03.273Z</time></trkpt><trkpt lat="44.6291506" lon="7.7753831"><ele>312.0</ele><time>2026-05-01T09:16:04.273Z</time></trkpt><trkpt lat="44.6289506" lon="7.7752806"><ele>311.6666666666667</ele><time>2026-05-01T09:16:05.273Z</time></trkpt><trkpt lat="44.6287542" lon="7.7751782"><ele>311.33333333333337</ele><time>2026-05-01T09:16:06.273Z</time></trkpt><trkpt lat="44.6285565" lon="7.7750725"><ele>311.0</ele><time>2026-05-01T09:16:07.273Z</time></trkpt><trkpt lat="44.6283552" lon="7.7749658"><ele>311.6666666666667</ele><time>2026-05-01T09:16:08.273Z</time></trkpt><trkpt lat="44.6281566" lon="7.7748578"><ele>312.3333333333333</ele><time>2026-05-01T09:16:09.273Z</time></trkpt><trkpt lat="44.62796" lon="7.7747581"><ele>313.0</ele><time>2026-05-01T09:16:10.273Z</time></trkpt><trkpt lat="44.6277695" lon="7.7746549"><ele>313.0</ele><time>2026-05-01T09:16:11.273Z</time></trkpt><trkpt lat="44.6275806" lon="7.7745443"><ele>313.0</ele><time>2026-05-01T09:16:12.273Z</time></trkpt><trkpt lat="44.6273833" lon="7.7744382"><ele>313.0</ele><time>2026-05-01T09:16:13.273Z</time></trkpt><trkpt lat="44.6271804" lon="7.7743243"><ele>313.3333333333333</ele><time>2026-05-01T09:16:14.273Z</time></trkpt><trkpt lat="44.6269759" lon="7.7742087"><ele>313.6666666666667</ele><time>2026-05-01T09:16:15.273Z</time></trkpt><trkpt lat="44.6267782" lon="7.7740938"><ele>314.0</ele><time>2026-05-01T09:16:16.273Z</time></trkpt><trkpt lat="44.6265774" lon="7.7739803"><ele>314.0</ele><time>2026-05-01T09:16:17.273Z</time></trkpt><trkpt lat="44.6263871" lon="7.7738572"><ele>314.0</ele><time>2026-05-01T09:16:18.273Z</time></trkpt><trkpt lat="44.6261969" lon="7.77373"><ele>314.0</ele><time>2026-05-01T09:16:19.273Z</time></trkpt><trkpt lat="44.6260025" lon="7.7736004"><ele>314.0</ele><time>2026-05-01T09:16:20.273Z</time></trkpt><trkpt lat="44.6258017" lon="7.7734759"><ele>314.0</ele><time>2026-05-01T09:16:21.274Z</time></trkpt><trkpt lat="44.6255974" lon="7.7733609"><ele>314.0</ele><time>2026-05-01T09:16:22.274Z</time></trkpt><trkpt lat="44.6253994" lon="7.7732401"><ele>314.6666666666667</ele><time>2026-05-01T09:16:23.273Z</time></trkpt><trkpt lat="44.6251998" lon="7.7731159"><ele>315.3333333333333</ele><time>2026-05-01T09:16:24.273Z</time></trkpt><trkpt lat="44.624996" lon="7.7729959"><ele>316.0</ele><time>2026-05-01T09:16:25.273Z</time></trkpt><trkpt lat="44.6248045" lon="7.7728726"><ele>316.0</ele><time>2026-05-01T09:16:26.273Z</time></trkpt><trkpt lat="44.6246111" lon="7.7727485"><ele>316.0</ele><time>2026-05-01T09:16:27.274Z</time></trkpt><trkpt lat="44.6244209" lon="7.7726169"><ele>316.0</ele><time>2026-05-01T09:16:28.274Z</time></trkpt><trkpt lat="44.6242269" lon="7.7725002"><ele>316.0</ele><time>2026-05-01T09:16:29.273Z</time></trkpt><trkpt lat="44.6240352" lon="7.772383"><ele>316.0</ele><time>2026-05-01T09:16:30.273Z</time></trkpt><trkpt lat="44.6238332" lon="7.7722574"><ele>316.0</ele><time>2026-05-01T09:16:31.274Z</time></trkpt><trkpt lat="44.6236311" lon="7.7721219"><ele>316.0</ele><time>2026-05-01T09:16:32.273Z</time></trkpt><trkpt lat="44.6234328" lon="7.7719863"><ele>316.0</ele><time>2026-05-01T09:16:33.273Z</time></trkpt><trkpt lat="44.6232342" lon="7.7718575"><ele>316.0</ele><time>2026-05-01T09:16:34.273Z</time></trkpt><trkpt lat="44.6230328" lon="7.7717272"><ele>315.66666666666663</ele><time>2026-05-01T09:16:35.273Z</time></trkpt><trkpt lat="44.6228311" lon="7.7715914"><ele>315.3333333333333</ele><time>2026-05-01T09:16:36.273Z</time></trkpt><trkpt lat="44.6226312" lon="7.7714612"><ele>315.0</ele><time>2026-05-01T09:16:37.273Z</time></trkpt><trkpt lat="44.62243" lon="7.7713284"><ele>315.0</ele><time>2026-05-01T09:16:38.274Z</time></trkpt><trkpt lat="44.6222352" lon="7.7711932"><ele>315.0</ele><time>2026-05-01T09:16:39.273Z</time></trkpt><trkpt lat="44.622039" lon="7.7710584"><ele>315.0</ele><time>2026-05-01T09:16:40.273Z</time></trkpt><trkpt lat="44.6218428" lon="7.7709321"><ele>315.0</ele><time>2026-05-01T09:16:41.273Z</time></trkpt><trkpt lat="44.6216422" lon="7.7708097"><ele>315.0</ele><time>2026-05-01T09:16:42.273Z</time></trkpt><trkpt lat="44.6214495" lon="7.7706812"><ele>315.0</ele><time>2026-05-01T09:16:43.273Z</time></trkpt><trkpt lat="44.6212551" lon="7.7705572"><ele>314.6666666666667</ele><time>2026-05-01T09:16:44.273Z</time></trkpt><trkpt lat="44.6210632" lon="7.7704325"><ele>314.33333333333337</ele><time>2026-05-01T09:16:45.274Z</time></trkpt><trkpt lat="44.620873" lon="7.7703119"><ele>314.0</ele><time>2026-05-01T09:16:46.273Z</time></trkpt><trkpt lat="44.6206876" lon="7.7701933"><ele>314.33333333333337</ele><time>2026-05-01T09:16:47.273Z</time></trkpt><trkpt lat="44.6205056" lon="7.7700723"><ele>314.6666666666667</ele><time>2026-05-01T09:16:48.273Z</time></trkpt><trkpt lat="44.6203256" lon="7.7699552"><ele>315.0</ele><time>2026-05-01T09:16:49.273Z</time></trkpt><trkpt lat="44.6201526" lon="7.7698365"><ele>315.3333333333333</ele><time>2026-05-01T09:16:50.273Z</time></trkpt><trkpt lat="44.6199873" lon="7.7697235"><ele>315.66666666666663</ele><time>2026-05-01T09:16:51.273Z</time></trkpt><trkpt lat="44.6198137" lon="7.7696116"><ele>316.0</ele><time>2026-05-01T09:16:52.273Z</time></trkpt><trkpt lat="44.619637" lon="7.7695037"><ele>316.0</ele><time>2026-05-01T09:16:53.273Z</time></trkpt><trkpt lat="44.6194568" lon="7.7693916"><ele>316.0</ele><time>2026-05-01T09:16:54.273Z</time></trkpt><trkpt lat="44.6192687" lon="7.7692759"><ele>316.0</ele><time>2026-05-01T09:16:55.274Z</time></trkpt><trkpt lat="44.6190726" lon="7.7691617"><ele>316.3333333333333</ele><time>2026-05-01T09:16:56.273Z</time></trkpt><trkpt lat="44.6188768" lon="7.7690343"><ele>316.6666666666667</ele><time>2026-05-01T09:16:57.273Z</time></trkpt><trkpt lat="44.6186872" lon="7.7688991"><ele>317.0</ele><time>2026-05-01T09:16:58.273Z</time></trkpt><trkpt lat="44.618495" lon="7.7687897"><ele>317.33333333333337</ele><time>2026-05-01T09:16:59.273Z</time></trkpt><trkpt lat="44.6183125" lon="7.7686704"><ele>317.6666666666667</ele><time>2026-05-01T09:17:00.273Z</time></trkpt><trkpt lat="44.6181357" lon="7.768551"><ele>318.0</ele><time>2026-05-01T09:17:01.273Z</time></trkpt><trkpt lat="44.6179627" lon="7.7684387"><ele>318.3333333333333</ele><time>2026-05-01T09:17:02.275Z</time></trkpt><trkpt lat="44.6177945" lon="7.7683253"><ele>318.66666666666663</ele><time>2026-05-01T09:17:03.274Z</time></trkpt><trkpt lat="44.6176262" lon="7.7682063"><ele>319.0</ele><time>2026-05-01T09:17:04.274Z</time></trkpt><trkpt lat="44.6174507" lon="7.7680933"><ele>319.0</ele><time>2026-05-01T09:17:05.275Z</time></trkpt><trkpt lat="44.6172724" lon="7.767977"><ele>319.0</ele><time>2026-05-01T09:17:06.275Z</time></trkpt><trkpt lat="44.617092" lon="7.7678543"><ele>319.0</ele><time>2026-05-01T09:17:07.274Z</time></trkpt><trkpt lat="44.6169098" lon="7.7677349"><ele>318.66666666666663</ele><time>2026-05-01T09:17:08.274Z</time></trkpt><trkpt lat="44.6167288" lon="7.7676126"><ele>318.3333333333333</ele><time>2026-05-01T09:17:09.274Z</time></trkpt><trkpt lat="44.6165359" lon="7.767495"><ele>318.0</ele><time>2026-05-01T09:17:10.274Z</time></trkpt><trkpt lat="44.616348" lon="7.7673767"><ele>318.0</ele><time>2026-05-01T09:17:11.274Z</time></trkpt><trkpt lat="44.6161583" lon="7.767254"><ele>318.0</ele><time>2026-05-01T09:17:12.275Z</time></trkpt><trkpt lat="44.6159696" lon="7.7671335"><ele>318.0</ele><time>2026-05-01T09:17:13.274Z</time></trkpt><trkpt lat="44.6157757" lon="7.7670065"><ele>318.0</ele><time>2026-05-01T09:17:14.274Z</time></trkpt><trkpt lat="44.6155837" lon="7.766884"><ele>318.0</ele><time>2026-05-01T09:17:15.274Z</time></trkpt><trkpt lat="44.6153903" lon="7.7667592"><ele>318.0</ele><time>2026-05-01T09:17:16.274Z</time></trkpt><trkpt lat="44.6151964" lon="7.7666325"><ele>318.6666666666667</ele><time>2026-05-01T09:17:17.274Z</time></trkpt><trkpt lat="44.6149999" lon="7.7665047"><ele>319.33333333333337</ele><time>2026-05-01T09:17:18.274Z</time></trkpt><trkpt lat="44.6147981" lon="7.766374"><ele>320.0</ele><time>2026-05-01T09:17:19.274Z</time></trkpt><trkpt lat="44.6145923" lon="7.7662453"><ele>320.0</ele><time>2026-05-01T09:17:20.274Z</time></trkpt><trkpt lat="44.6143913" lon="7.7661128"><ele>320.0</ele><time>2026-05-01T09:17:21.274Z</time></trkpt><trkpt lat="44.6141914" lon="7.7659825"><ele>320.0</ele><time>2026-05-01T09:17:22.274Z</time></trkpt><trkpt lat="44.613993" lon="7.7658488"><ele>320.0</ele><time>2026-05-01T09:17:23.274Z</time></trkpt><trkpt lat="44.6137964" lon="7.7657171"><ele>320.0</ele><time>2026-05-01T09:17:24.274Z</time></trkpt><trkpt lat="44.6136011" lon="7.7655881"><ele>320.0</ele><time>2026-05-01T09:17:25.274Z</time></trkpt><trkpt lat="44.6133974" lon="7.7654632"><ele>319.6666666666667</ele><time>2026-05-01T09:17:26.274Z</time></trkpt><trkpt lat="44.6131995" lon="7.7653285"><ele>319.3333333333333</ele><time>2026-05-01T09:17:27.274Z</time></trkpt><trkpt lat="44.6129955" lon="7.7652046"><ele>319.0</ele><time>2026-05-01T09:17:28.274Z</time></trkpt><trkpt lat="44.6127944" lon="7.7650683"><ele>320.0</ele><time>2026-05-01T09:17:29.274Z</time></trkpt><trkpt lat="44.6125914" lon="7.7649331"><ele>321.0</ele><time>2026-05-01T09:17:30.274Z</time></trkpt><trkpt lat="44.6123837" lon="7.7648012"><ele>321.0</ele><time>2026-05-01T09:17:31.274Z</time></trkpt><trkpt lat="44.6121692" lon="7.7646578"><ele>321.0</ele><time>2026-05-01T09:17:32.274Z</time></trkpt><trkpt lat="44.6119408" lon="7.7645206"><ele>321.0</ele><time>2026-05-01T09:17:33.274Z</time></trkpt><trkpt lat="44.611707" lon="7.7643804"><ele>321.0</ele><time>2026-05-01T09:17:34.274Z</time></trkpt><trkpt lat="44.6114684" lon="7.7642328"><ele>321.0</ele><time>2026-05-01T09:17:35.274Z</time></trkpt><trkpt lat="44.6112375" lon="7.7640809"><ele>321.0</ele><time>2026-05-01T09:17:36.274Z</time></trkpt><trkpt lat="44.6109946" lon="7.7639428"><ele>321.5</ele><time>2026-05-01T09:17:37.274Z</time></trkpt><trkpt lat="44.6107531" lon="7.763798"><ele>322.0</ele><time>2026-05-01T09:17:38.274Z</time></trkpt><trkpt lat="44.6105123" lon="7.7636608"><ele>322.0</ele><time>2026-05-01T09:17:39.274Z</time></trkpt><trkpt lat="44.6102748" lon="7.7635225"><ele>322.0</ele><time>2026-05-01T09:17:40.274Z</time></trkpt><trkpt lat="44.6100409" lon="7.7633868"><ele>322.0</ele><time>2026-05-01T09:17:41.274Z</time></trkpt><trkpt lat="44.6098016" lon="7.7632512"><ele>322.0</ele><time>2026-05-01T09:17:42.274Z</time></trkpt><trkpt lat="44.6095657" lon="7.7631216"><ele>322.0</ele><time>2026-05-01T09:17:43.274Z</time></trkpt><trkpt lat="44.6093229" lon="7.7629924"><ele>322.0</ele><time>2026-05-01T09:17:44.274Z</time></trkpt><trkpt lat="44.609075" lon="7.7628651"><ele>322.0</ele><time>2026-05-01T09:17:45.275Z</time></trkpt><trkpt lat="44.6088295" lon="7.762738"><ele>322.0</ele><time>2026-05-01T09:17:46.274Z</time></trkpt><trkpt lat="44.6085862" lon="7.7626184"><ele>322.0</ele><time>2026-05-01T09:17:47.275Z</time></trkpt><trkpt lat="44.6083434" lon="7.7625096"><ele>322.0</ele><time>2026-05-01T09:17:48.274Z</time></trkpt><trkpt lat="44.6081091" lon="7.7624015"><ele>322.0</ele><time>2026-05-01T09:17:49.274Z</time></trkpt><trkpt lat="44.6078698" lon="7.7623012"><ele>322.0</ele><time>2026-05-01T09:17:50.274Z</time></trkpt><trkpt lat="44.6076301" lon="7.7622054"><ele>323.5</ele><time>2026-05-01T09:17:51.274Z</time></trkpt><trkpt lat="44.6073962" lon="7.7620992"><ele>325.0</ele><time>2026-05-01T09:17:52.274Z</time></trkpt><trkpt lat="44.6071661" lon="7.762005"><ele>323.5</ele><time>2026-05-01T09:17:53.275Z</time></trkpt><trkpt lat="44.6069218" lon="7.7619279"><ele>322.0</ele><time>2026-05-01T09:17:54.274Z</time></trkpt><trkpt lat="44.6066837" lon="7.761853"><ele>322.0</ele><time>2026-05-01T09:17:55.274Z</time></trkpt><trkpt lat="44.6064528" lon="7.7617805"><ele>322.0</ele><time>2026-05-01T09:17:56.274Z</time></trkpt><trkpt lat="44.6062292" lon="7.7617067"><ele>322.0</ele><time>2026-05-01T09:17:57.275Z</time></trkpt><trkpt lat="44.6060062" lon="7.761632"><ele>322.0</ele><time>2026-05-01T09:17:58.274Z</time></trkpt><trkpt lat="44.6057802" lon="7.7615608"><ele>322.0</ele><time>2026-05-01T09:17:59.275Z</time></trkpt><trkpt lat="44.6055597" lon="7.7614991"><ele>322.0</ele><time>2026-05-01T09:18:00.274Z</time></trkpt><trkpt lat="44.6053417" lon="7.7614372"><ele>322.0</ele><time>2026-05-01T09:18:01.275Z</time></trkpt><trkpt lat="44.6051314" lon="7.7613841"><ele>322.0</ele><time>2026-05-01T09:18:02.274Z</time></trkpt><trkpt lat="44.604916" lon="7.7613295"><ele>322.0</ele><time>2026-05-01T09:18:03.274Z</time></trkpt><trkpt lat="44.6046927" lon="7.76127"><ele>322.0</ele><time>2026-05-01T09:18:04.275Z</time></trkpt><trkpt lat="44.6044528" lon="7.7612061"><ele>323.5</ele><time>2026-05-01T09:18:05.275Z</time></trkpt><trkpt lat="44.6041939" lon="7.7611384"><ele>325.0</ele><time>2026-05-01T09:18:06.274Z</time></trkpt><trkpt lat="44.6039381" lon="7.761075"><ele>325.0</ele><time>2026-05-01T09:18:07.275Z</time></trkpt><trkpt lat="44.6036931" lon="7.7610155"><ele>325.0</ele><time>2026-05-01T09:18:08.274Z</time></trkpt><trkpt lat="44.6034424" lon="7.7609622"><ele>324.5</ele><time>2026-05-01T09:18:09.274Z</time></trkpt><trkpt lat="44.6031981" lon="7.7609267"><ele>324.0</ele><time>2026-05-01T09:18:10.274Z</time></trkpt><trkpt lat="44.602941" lon="7.7608927"><ele>324.0</ele><time>2026-05-01T09:18:11.274Z</time></trkpt><trkpt lat="44.6026826" lon="7.7608578"><ele>324.0</ele><time>2026-05-01T09:18:12.275Z</time></trkpt><trkpt lat="44.6024178" lon="7.7608185"><ele>324.0</ele><time>2026-05-01T09:18:13.274Z</time></trkpt><trkpt lat="44.6021518" lon="7.7607785"><ele>324.0</ele><time>2026-05-01T09:18:14.275Z</time></trkpt><trkpt lat="44.6018846" lon="7.7607356"><ele>324.5</ele><time>2026-05-01T09:18:15.274Z</time></trkpt><trkpt lat="44.6016131" lon="7.7607031"><ele>325.0</ele><time>2026-05-01T09:18:16.274Z</time></trkpt><trkpt lat="44.6013328" lon="7.7606822"><ele>324.5</ele><time>2026-05-01T09:18:17.274Z</time></trkpt><trkpt lat="44.6010415" lon="7.7606725"><ele>324.0</ele><time>2026-05-01T09:18:18.274Z</time></trkpt><trkpt lat="44.6007364" lon="7.760676"><ele>324.0</ele><time>2026-05-01T09:18:19.274Z</time></trkpt><trkpt lat="44.6004379" lon="7.7606752"><ele>324.0</ele><time>2026-05-01T09:18:20.274Z</time></trkpt><trkpt lat="44.6001401" lon="7.7606694"><ele>325.0</ele><time>2026-05-01T09:18:21.274Z</time></trkpt><trkpt lat="44.5998423" lon="7.7606505"><ele>326.0</ele><time>2026-05-01T09:18:22.274Z</time></trkpt><trkpt lat="44.5995495" lon="7.7606337"><ele>327.5</ele><time>2026-05-01T09:18:23.274Z</time></trkpt><trkpt lat="44.5992534" lon="7.7606294"><ele>329.0</ele><time>2026-05-01T09:18:24.274Z</time></trkpt><trkpt lat="44.5989567" lon="7.7606296"><ele>329.5</ele><time>2026-05-01T09:18:25.274Z</time></trkpt><trkpt lat="44.5986627" lon="7.7606463"><ele>330.0</ele><time>2026-05-01T09:18:26.274Z</time></trkpt><trkpt lat="44.5983698" lon="7.7606725"><ele>330.0</ele><time>2026-05-01T09:18:27.274Z</time></trkpt><trkpt lat="44.5980842" lon="7.7606987"><ele>330.0</ele><time>2026-05-01T09:18:28.274Z</time></trkpt><trkpt lat="44.5978012" lon="7.760732"><ele>328.5</ele><time>2026-05-01T09:18:29.274Z</time></trkpt><trkpt lat="44.5975141" lon="7.7607667"><ele>327.0</ele><time>2026-05-01T09:18:30.275Z</time></trkpt><trkpt lat="44.5972302" lon="7.7608059"><ele>327.0</ele><time>2026-05-01T09:18:31.274Z</time></trkpt><trkpt lat="44.5969438" lon="7.7608427"><ele>327.0</ele><time>2026-05-01T09:18:32.274Z</time></trkpt><trkpt lat="44.5966556" lon="7.760885"><ele>327.0</ele><time>2026-05-01T09:18:33.275Z</time></trkpt><trkpt lat="44.5963672" lon="7.7609321"><ele>327.0</ele><time>2026-05-01T09:18:34.275Z</time></trkpt><trkpt lat="44.5960831" lon="7.760987"><ele>327.0</ele><time>2026-05-01T09:18:35.275Z</time></trkpt><trkpt lat="44.5958012" lon="7.7610447"><ele>327.0</ele><time>2026-05-01T09:18:36.275Z</time></trkpt><trkpt lat="44.5955168" lon="7.7611139"><ele>326.5</ele><time>2026-05-01T09:18:37.274Z</time></trkpt><trkpt lat="44.5952332" lon="7.7611807"><ele>326.0</ele><time>2026-05-01T09:18:38.274Z</time></trkpt><trkpt lat="44.5949472" lon="7.7612541"><ele>326.0</ele><time>2026-05-01T09:18:39.274Z</time></trkpt><trkpt lat="44.594665" lon="7.7613316"><ele>326.0</ele><time>2026-05-01T09:18:40.274Z</time></trkpt><trkpt lat="44.5943835" lon="7.7614125"><ele>327.5</ele><time>2026-05-01T09:18:41.274Z</time></trkpt><trkpt lat="44.5941062" lon="7.7614979"><ele>329.0</ele><time>2026-05-01T09:18:42.274Z</time></trkpt><trkpt lat="44.5938313" lon="7.7615812"><ele>328.5</ele><time>2026-05-01T09:18:43.274Z</time></trkpt><trkpt lat="44.5935551" lon="7.7616673"><ele>328.0</ele><time>2026-05-01T09:18:44.275Z</time></trkpt><trkpt lat="44.59328" lon="7.7617591"><ele>328.0</ele><time>2026-05-01T09:18:45.274Z</time></trkpt><trkpt lat="44.5930091" lon="7.7618551"><ele>328.0</ele><time>2026-05-01T09:18:46.274Z</time></trkpt><trkpt lat="44.5927395" lon="7.7619554"><ele>329.0</ele><time>2026-05-01T09:18:47.274Z</time></trkpt><trkpt lat="44.59247" lon="7.7620623"><ele>330.0</ele><time>2026-05-01T09:18:48.275Z</time></trkpt><trkpt lat="44.5922026" lon="7.7621677"><ele>329.0</ele><time>2026-05-01T09:18:49.274Z</time></trkpt><trkpt lat="44.5919367" lon="7.7622775"><ele>328.0</ele><time>2026-05-01T09:18:50.274Z</time></trkpt><trkpt lat="44.591672" lon="7.7623927"><ele>328.0</ele><time>2026-05-01T09:18:51.274Z</time></trkpt><trkpt lat="44.5914115" lon="7.7625171"><ele>328.0</ele><time>2026-05-01T09:18:52.274Z</time></trkpt><trkpt lat="44.5911456" lon="7.7626434"><ele>328.0</ele><time>2026-05-01T09:18:53.274Z</time></trkpt><trkpt lat="44.5908887" lon="7.7627744"><ele>328.0</ele><time>2026-05-01T09:18:54.274Z</time></trkpt><trkpt lat="44.5906278" lon="7.7629113"><ele>328.0</ele><time>2026-05-01T09:18:55.274Z</time></trkpt><trkpt lat="44.5903577" lon="7.7630467"><ele>328.0</ele><time>2026-05-01T09:18:56.274Z</time></trkpt><trkpt lat="44.5900962" lon="7.7631829"><ele>328.0</ele><time>2026-05-01T09:18:57.274Z</time></trkpt><trkpt lat="44.5898332" lon="7.7633194"><ele>328.0</ele><time>2026-05-01T09:18:58.274Z</time></trkpt><trkpt lat="44.5895731" lon="7.763464"><ele>328.5</ele><time>2026-05-01T09:18:59.274Z</time></trkpt><trkpt lat="44.5893145" lon="7.7636103"><ele>329.0</ele><time>2026-05-01T09:19:00.274Z</time></trkpt><trkpt lat="44.5890581" lon="7.7637634"><ele>329.0</ele><time>2026-05-01T09:19:01.274Z</time></trkpt><trkpt lat="44.5888034" lon="7.7639218"><ele>329.0</ele><time>2026-05-01T09:19:02.274Z</time></trkpt><trkpt lat="44.5885458" lon="7.7640772"><ele>329.0</ele><time>2026-05-01T09:19:03.274Z</time></trkpt><trkpt lat="44.5882969" lon="7.7642427"><ele>329.0</ele><time>2026-05-01T09:19:04.275Z</time></trkpt><trkpt lat="44.588053" lon="7.7644101"><ele>324.0</ele><time>2026-05-01T09:19:05.274Z</time></trkpt><trkpt lat="44.5878098" lon="7.7645754"><ele>319.0</ele><time>2026-05-01T09:19:06.274Z</time></trkpt><trkpt lat="44.5875637" lon="7.7647404"><ele>319.0</ele><time>2026-05-01T09:19:07.274Z</time></trkpt><trkpt lat="44.5873234" lon="7.7649019"><ele>319.0</ele><time>2026-05-01T09:19:08.274Z</time></trkpt><trkpt lat="44.5870818" lon="7.7650692"><ele>311.5</ele><time>2026-05-01T09:19:09.274Z</time></trkpt><trkpt lat="44.5868345" lon="7.7652333"><ele>304.0</ele><time>2026-05-01T09:19:10.274Z</time></trkpt><trkpt lat="44.5865891" lon="7.7653995"><ele>304.0</ele><time>2026-05-01T09:19:11.274Z</time></trkpt><trkpt lat="44.5863426" lon="7.7655647"><ele>304.0</ele><time>2026-05-01T09:19:12.274Z</time></trkpt><trkpt lat="44.5860997" lon="7.7657262"><ele>302.0</ele><time>2026-05-01T09:19:13.274Z</time></trkpt><trkpt lat="44.5858581" lon="7.7658916"><ele>300.0</ele><time>2026-05-01T09:19:14.274Z</time></trkpt><trkpt lat="44.5856149" lon="7.7660595"><ele>297.0</ele><time>2026-05-01T09:19:15.274Z</time></trkpt><trkpt lat="44.5853687" lon="7.7662279"><ele>294.0</ele><time>2026-05-01T09:19:16.275Z</time></trkpt><trkpt lat="44.5851262" lon="7.7664005"><ele>294.0</ele><time>2026-05-01T09:19:17.274Z</time></trkpt><trkpt lat="44.5848819" lon="7.7665665"><ele>294.0</ele><time>2026-05-01T09:19:18.274Z</time></trkpt><trkpt lat="44.5846316" lon="7.7667329"><ele>291.5</ele><time>2026-05-01T09:19:19.275Z</time></trkpt><trkpt lat="44.5843889" lon="7.7669063"><ele>289.0</ele><time>2026-05-01T09:19:20.274Z</time></trkpt><trkpt lat="44.5841501" lon="7.7670725"><ele>289.0</ele><time>2026-05-01T09:19:21.275Z</time></trkpt><trkpt lat="44.5839206" lon="7.7672332"><ele>289.0</ele><time>2026-05-01T09:19:22.274Z</time></trkpt><trkpt lat="44.5836909" lon="7.7673902"><ele>289.0</ele><time>2026-05-01T09:19:23.274Z</time></trkpt><trkpt lat="44.5834555" lon="7.7675511"><ele>289.0</ele><time>2026-05-01T09:19:24.274Z</time></trkpt><trkpt lat="44.5832223" lon="7.7677067"><ele>289.0</ele><time>2026-05-01T09:19:25.274Z</time></trkpt><trkpt lat="44.5829934" lon="7.7678714"><ele>289.0</ele><time>2026-05-01T09:19:26.274Z</time></trkpt><trkpt lat="44.5827608" lon="7.7680392"><ele>291.5</ele><time>2026-05-01T09:19:27.274Z</time></trkpt><trkpt lat="44.5825347" lon="7.7681989"><ele>294.0</ele><time>2026-05-01T09:19:28.274Z</time></trkpt><trkpt lat="44.5823054" lon="7.768363"><ele>294.0</ele><time>2026-05-01T09:19:29.274Z</time></trkpt><trkpt lat="44.582077" lon="7.7685236"><ele>294.0</ele><time>2026-05-01T09:19:30.275Z</time></trkpt><trkpt lat="44.5818472" lon="7.7686837"><ele>290.5</ele><time>2026-05-01T09:19:31.274Z</time></trkpt><trkpt lat="44.5816256" lon="7.7688436"><ele>287.0</ele><time>2026-05-01T09:19:32.274Z</time></trkpt><trkpt lat="44.5813969" lon="7.7690078"><ele>285.5</ele><time>2026-05-01T09:19:33.274Z</time></trkpt><trkpt lat="44.5811685" lon="7.7691726"><ele>284.0</ele><time>2026-05-01T09:19:34.274Z</time></trkpt><trkpt lat="44.5809404" lon="7.7693388"><ele>281.0</ele><time>2026-05-01T09:19:35.274Z</time></trkpt><trkpt lat="44.5807135" lon="7.7694944"><ele>278.0</ele><time>2026-05-01T09:19:36.274Z</time></trkpt><trkpt lat="44.5804897" lon="7.7696579"><ele>281.0</ele><time>2026-05-01T09:19:37.274Z</time></trkpt><trkpt lat="44.5802636" lon="7.7698142"><ele>284.0</ele><time>2026-05-01T09:19:38.275Z</time></trkpt><trkpt lat="44.5800382" lon="7.7699681"><ele>284.0</ele><time>2026-05-01T09:19:39.274Z</time></trkpt><trkpt lat="44.579821" lon="7.7701262"><ele>284.0</ele><time>2026-05-01T09:19:40.274Z</time></trkpt><trkpt lat="44.5795999" lon="7.7702878"><ele>279.0</ele><time>2026-05-01T09:19:41.274Z</time></trkpt><trkpt lat="44.5793755" lon="7.7704396"><ele>274.0</ele><time>2026-05-01T09:19:42.274Z</time></trkpt><trkpt lat="44.5791416" lon="7.7705948"><ele>274.0</ele><time>2026-05-01T09:19:43.274Z</time></trkpt><trkpt lat="44.5789152" lon="7.7707524"><ele>274.0</ele><time>2026-05-01T09:19:44.274Z</time></trkpt><trkpt lat="44.5786823" lon="7.7709054"><ele>271.5</ele><time>2026-05-01T09:19:45.274Z</time></trkpt><trkpt lat="44.5784532" lon="7.7710601"><ele>269.0</ele><time>2026-05-01T09:19:46.274Z</time></trkpt><trkpt lat="44.5782222" lon="7.7712178"><ele>269.0</ele><time>2026-05-01T09:19:47.274Z</time></trkpt><trkpt lat="44.577998" lon="7.7713799"><ele>269.0</ele><time>2026-05-01T09:19:48.275Z</time></trkpt><trkpt lat="44.5777746" lon="7.7715388"><ele>269.5</ele><time>2026-05-01T09:19:49.274Z</time></trkpt><trkpt lat="44.5775455" lon="7.7716889"><ele>270.0</ele><time>2026-05-01T09:19:50.274Z</time></trkpt><trkpt lat="44.5773197" lon="7.7718433"><ele>270.0</ele><time>2026-05-01T09:19:51.274Z</time></trkpt><trkpt lat="44.5770902" lon="7.7720053"><ele>270.0</ele><time>2026-05-01T09:19:52.274Z</time></trkpt><trkpt lat="44.5768622" lon="7.7721667"><ele>270.0</ele><time>2026-05-01T09:19:53.274Z</time></trkpt><trkpt lat="44.5766399" lon="7.7723168"><ele>270.0</ele><time>2026-05-01T09:19:54.275Z</time></trkpt><trkpt lat="44.5764125" lon="7.7724752"><ele>268.5</ele><time>2026-05-01T09:19:55.274Z</time></trkpt><trkpt lat="44.5761857" lon="7.7726293"><ele>267.0</ele><time>2026-05-01T09:19:56.274Z</time></trkpt><trkpt lat="44.5759572" lon="7.7727859"><ele>267.0</ele><time>2026-05-01T09:19:57.274Z</time></trkpt><trkpt lat="44.5757404" lon="7.772941"><ele>267.0</ele><time>2026-05-01T09:19:58.274Z</time></trkpt><trkpt lat="44.575524" lon="7.7730877"><ele>269.0</ele><time>2026-05-01T09:19:59.274Z</time></trkpt><trkpt lat="44.5753212" lon="7.7732293"><ele>271.0</ele><time>2026-05-01T09:20:00.275Z</time></trkpt><trkpt lat="44.5751233" lon="7.7733632"><ele>273.0</ele><time>2026-05-01T09:20:01.274Z</time></trkpt><trkpt lat="44.5749238" lon="7.773502"><ele>272.3333333333333</ele><time>2026-05-01T09:20:02.274Z</time></trkpt><trkpt lat="44.5747283" lon="7.7736403"><ele>271.66666666666663</ele><time>2026-05-01T09:20:03.274Z</time></trkpt><trkpt lat="44.5745333" lon="7.7737827"><ele>271.0</ele><time>2026-05-01T09:20:04.274Z</time></trkpt><trkpt lat="44.5743368" lon="7.7739121"><ele>273.3333333333333</ele><time>2026-05-01T09:20:05.274Z</time></trkpt><trkpt lat="44.5741443" lon="7.7740462"><ele>275.6666666666667</ele><time>2026-05-01T09:20:06.275Z</time></trkpt><trkpt lat="44.5739513" lon="7.7741795"><ele>278.0</ele><time>2026-05-01T09:20:07.274Z</time></trkpt><trkpt lat="44.5737539" lon="7.7743113"><ele>280.33333333333337</ele><time>2026-05-01T09:20:08.274Z</time></trkpt><trkpt lat="44.573557" lon="7.7744403"><ele>282.6666666666667</ele><time>2026-05-01T09:20:09.274Z</time></trkpt><trkpt lat="44.5733585" lon="7.7745733"><ele>285.0</ele><time>2026-05-01T09:20:10.274Z</time></trkpt><trkpt lat="44.5731479" lon="7.7747143"><ele>285.0</ele><time>2026-05-01T09:20:11.274Z</time></trkpt><trkpt lat="44.5729371" lon="7.7748634"><ele>285.0</ele><time>2026-05-01T09:20:12.274Z</time></trkpt><trkpt lat="44.5727254" lon="7.7750091"><ele>288.5</ele><time>2026-05-01T09:20:13.274Z</time></trkpt><trkpt lat="44.5725181" lon="7.7751583"><ele>292.0</ele><time>2026-05-01T09:20:14.274Z</time></trkpt><trkpt lat="44.5723084" lon="7.7753054"><ele>292.0</ele><time>2026-05-01T09:20:15.274Z</time></trkpt><trkpt lat="44.5721041" lon="7.775448"><ele>292.0</ele><time>2026-05-01T09:20:16.274Z</time></trkpt><trkpt lat="44.5718889" lon="7.775592"><ele>299.0</ele><time>2026-05-01T09:20:17.275Z</time></trkpt><trkpt lat="44.5716722" lon="7.775737"><ele>306.0</ele><time>2026-05-01T09:20:18.274Z</time></trkpt><trkpt lat="44.5714645" lon="7.7758826"><ele>307.5</ele><time>2026-05-01T09:20:19.274Z</time></trkpt><trkpt lat="44.5712566" lon="7.7760275"><ele>309.0</ele><time>2026-05-01T09:20:20.274Z</time></trkpt><trkpt lat="44.5710484" lon="7.7761752"><ele>317.0</ele><time>2026-05-01T09:20:21.274Z</time></trkpt><trkpt lat="44.5708402" lon="7.7763205"><ele>325.0</ele><time>2026-05-01T09:20:22.274Z</time></trkpt><trkpt lat="44.5706319" lon="7.7764604"><ele>325.0</ele><time>2026-05-01T09:20:23.274Z</time></trkpt><trkpt lat="44.5704238" lon="7.7766082"><ele>325.0</ele><time>2026-05-01T09:20:24.274Z</time></trkpt><trkpt lat="44.57022" lon="7.7767521"><ele>334.5</ele><time>2026-05-01T09:20:25.274Z</time></trkpt><trkpt lat="44.5700155" lon="7.776891"><ele>344.0</ele><time>2026-05-01T09:20:26.275Z</time></trkpt><trkpt lat="44.569815" lon="7.7770363"><ele>344.0</ele><time>2026-05-01T09:20:27.274Z</time></trkpt><trkpt lat="44.5696207" lon="7.7771771"><ele>344.0</ele><time>2026-05-01T09:20:28.274Z</time></trkpt><trkpt lat="44.5694244" lon="7.7773158"><ele>344.0</ele><time>2026-05-01T09:20:29.274Z</time></trkpt><trkpt lat="44.5692129" lon="7.7774566"><ele>347.0</ele><time>2026-05-01T09:20:30.274Z</time></trkpt><trkpt lat="44.5690023" lon="7.7775914"><ele>350.0</ele><time>2026-05-01T09:20:31.274Z</time></trkpt><trkpt lat="44.5687901" lon="7.7777272"><ele>357.0</ele><time>2026-05-01T09:20:32.274Z</time></trkpt><trkpt lat="44.5685767" lon="7.7778695"><ele>364.0</ele><time>2026-05-01T09:20:33.274Z</time></trkpt><trkpt lat="44.5683563" lon="7.7780235"><ele>364.0</ele><time>2026-05-01T09:20:34.274Z</time></trkpt><trkpt lat="44.5681401" lon="7.7781744"><ele>364.0</ele><time>2026-05-01T09:20:35.274Z</time></trkpt><trkpt lat="44.5679282" lon="7.7783237"><ele>363.5</ele><time>2026-05-01T09:20:36.274Z</time></trkpt><trkpt lat="44.5677197" lon="7.7784692"><ele>363.0</ele><time>2026-05-01T09:20:37.274Z</time></trkpt><trkpt lat="44.5675101" lon="7.7786184"><ele>363.0</ele><time>2026-05-01T09:20:38.274Z</time></trkpt><trkpt lat="44.5672976" lon="7.7787611"><ele>363.0</ele><time>2026-05-01T09:20:39.274Z</time></trkpt><trkpt lat="44.5670874" lon="7.7788934"><ele>364.6666666666667</ele><time>2026-05-01T09:20:40.274Z</time></trkpt><trkpt lat="44.5668895" lon="7.7790311"><ele>366.33333333333337</ele><time>2026-05-01T09:20:41.274Z</time></trkpt><trkpt lat="44.5666991" lon="7.7791589"><ele>368.0</ele><time>2026-05-01T09:20:42.274Z</time></trkpt><trkpt lat="44.5665095" lon="7.779291"><ele>369.0</ele><time>2026-05-01T09:20:43.275Z</time></trkpt><trkpt lat="44.5663168" lon="7.7794283"><ele>370.0</ele><time>2026-05-01T09:20:44.274Z</time></trkpt><trkpt lat="44.5661223" lon="7.7795593"><ele>371.0</ele><time>2026-05-01T09:20:45.274Z</time></trkpt><trkpt lat="44.5659328" lon="7.7796883"><ele>371.0</ele><time>2026-05-01T09:20:46.274Z</time></trkpt><trkpt lat="44.5657379" lon="7.7798233"><ele>371.0</ele><time>2026-05-01T09:20:47.275Z</time></trkpt><trkpt lat="44.5655386" lon="7.7799622"><ele>371.0</ele><time>2026-05-01T09:20:48.274Z</time></trkpt><trkpt lat="44.565342" lon="7.7800933"><ele>375.33333333333337</ele><time>2026-05-01T09:20:49.275Z</time></trkpt><trkpt lat="44.5651514" lon="7.7802222"><ele>379.6666666666667</ele><time>2026-05-01T09:20:50.274Z</time></trkpt><trkpt lat="44.5649606" lon="7.7803501"><ele>384.0</ele><time>2026-05-01T09:20:51.274Z</time></trkpt><trkpt lat="44.5647665" lon="7.7804768"><ele>384.0</ele><time>2026-05-01T09:20:52.274Z</time></trkpt><trkpt lat="44.5645862" lon="7.7806068"><ele>384.0</ele><time>2026-05-01T09:20:53.274Z</time></trkpt><trkpt lat="44.5644047" lon="7.780734"><ele>384.0</ele><time>2026-05-01T09:20:54.274Z</time></trkpt><trkpt lat="44.5642083" lon="7.7808604"><ele>385.0</ele><time>2026-05-01T09:20:55.274Z</time></trkpt><trkpt lat="44.5640162" lon="7.7809827"><ele>386.0</ele><time>2026-05-01T09:20:56.274Z</time></trkpt><trkpt lat="44.5638139" lon="7.7811039"><ele>387.0</ele><time>2026-05-01T09:20:57.274Z</time></trkpt><trkpt lat="44.5636055" lon="7.7812234"><ele>388.0</ele><time>2026-05-01T09:20:58.274Z</time></trkpt><trkpt lat="44.5633935" lon="7.7813513"><ele>389.0</ele><time>2026-05-01T09:20:59.274Z</time></trkpt><trkpt lat="44.5631758" lon="7.7814755"><ele>389.0</ele><time>2026-05-01T09:21:00.274Z</time></trkpt><trkpt lat="44.562953" lon="7.7816021"><ele>389.0</ele><time>2026-05-01T09:21:01.274Z</time></trkpt><trkpt lat="44.5627246" lon="7.7817268"><ele>389.5</ele><time>2026-05-01T09:21:02.274Z</time></trkpt><trkpt lat="44.5624988" lon="7.7818397"><ele>390.0</ele><time>2026-05-01T09:21:03.274Z</time></trkpt><trkpt lat="44.5622821" lon="7.7819515"><ele>390.5</ele><time>2026-05-01T09:21:04.274Z</time></trkpt><trkpt lat="44.5620597" lon="7.7820595"><ele>391.0</ele><time>2026-05-01T09:21:05.274Z</time></trkpt><trkpt lat="44.5618321" lon="7.7821614"><ele>391.0</ele><time>2026-05-01T09:21:06.275Z</time></trkpt><trkpt lat="44.5616048" lon="7.7822608"><ele>391.0</ele><time>2026-05-01T09:21:07.274Z</time></trkpt><trkpt lat="44.5613695" lon="7.7823608"><ele>391.0</ele><time>2026-05-01T09:21:08.275Z</time></trkpt><trkpt lat="44.5611311" lon="7.7824573"><ele>391.0</ele><time>2026-05-01T09:21:09.274Z</time></trkpt><trkpt lat="44.5608934" lon="7.7825504"><ele>391.0</ele><time>2026-05-01T09:21:10.274Z</time></trkpt><trkpt lat="44.5606523" lon="7.7826382"><ele>391.0</ele><time>2026-05-01T09:21:11.274Z</time></trkpt><trkpt lat="44.5604149" lon="7.7827264"><ele>392.0</ele><time>2026-05-01T09:21:12.274Z</time></trkpt><trkpt lat="44.5601778" lon="7.7828125"><ele>393.0</ele><time>2026-05-01T09:21:13.274Z</time></trkpt><trkpt lat="44.5599337" lon="7.7828981"><ele>393.0</ele><time>2026-05-01T09:21:14.274Z</time></trkpt><trkpt lat="44.5596914" lon="7.7829753"><ele>393.0</ele><time>2026-05-01T09:21:15.274Z</time></trkpt><trkpt lat="44.5594438" lon="7.7830508"><ele>394.0</ele><time>2026-05-01T09:21:16.274Z</time></trkpt><trkpt lat="44.5591967" lon="7.7831193"><ele>395.0</ele><time>2026-05-01T09:21:17.275Z</time></trkpt><trkpt lat="44.5589454" lon="7.7831854"><ele>395.5</ele><time>2026-05-01T09:21:18.274Z</time></trkpt><trkpt lat="44.5586936" lon="7.7832478"><ele>396.0</ele><time>2026-05-01T09:21:19.274Z</time></trkpt><trkpt lat="44.5584385" lon="7.7833017"><ele>396.0</ele><time>2026-05-01T09:21:20.274Z</time></trkpt><trkpt lat="44.5581849" lon="7.7833499"><ele>396.0</ele><time>2026-05-01T09:21:21.274Z</time></trkpt><trkpt lat="44.557936" lon="7.7833883"><ele>395.5</ele><time>2026-05-01T09:21:22.274Z</time></trkpt><trkpt lat="44.5576865" lon="7.7834298"><ele>395.0</ele><time>2026-05-01T09:21:23.274Z</time></trkpt><trkpt lat="44.5574367" lon="7.7834798"><ele>395.0</ele><time>2026-05-01T09:21:24.275Z</time></trkpt><trkpt lat="44.5571853" lon="7.7835284"><ele>395.0</ele><time>2026-05-01T09:21:25.274Z</time></trkpt><trkpt lat="44.5569421" lon="7.7835754"><ele>395.5</ele><time>2026-05-01T09:21:26.275Z</time></trkpt><trkpt lat="44.5566964" lon="7.7836244"><ele>396.0</ele><time>2026-05-01T09:21:27.274Z</time></trkpt><trkpt lat="44.556447" lon="7.7836743"><ele>396.0</ele><time>2026-05-01T09:21:28.274Z</time></trkpt><trkpt lat="44.5561971" lon="7.7837163"><ele>396.0</ele><time>2026-05-01T09:21:29.274Z</time></trkpt><trkpt lat="44.5559485" lon="7.7837636"><ele>396.0</ele><time>2026-05-01T09:21:30.274Z</time></trkpt><trkpt lat="44.555697" lon="7.7838157"><ele>396.0</ele><time>2026-05-01T09:21:31.274Z</time></trkpt><trkpt lat="44.5554495" lon="7.783866"><ele>396.5</ele><time>2026-05-01T09:21:32.274Z</time></trkpt><trkpt lat="44.5551999" lon="7.783916"><ele>397.0</ele><time>2026-05-01T09:21:33.274Z</time></trkpt><trkpt lat="44.5549515" lon="7.7839623"><ele>397.0</ele><time>2026-05-01T09:21:34.274Z</time></trkpt><trkpt lat="44.554702" lon="7.7840074"><ele>397.0</ele><time>2026-05-01T09:21:35.274Z</time></trkpt><trkpt lat="44.5544533" lon="7.7840538"><ele>396.0</ele><time>2026-05-01T09:21:36.274Z</time></trkpt><trkpt lat="44.554205" lon="7.784099"><ele>395.0</ele><time>2026-05-01T09:21:37.274Z</time></trkpt><trkpt lat="44.5539611" lon="7.7841469"><ele>395.0</ele><time>2026-05-01T09:21:38.274Z</time></trkpt><trkpt lat="44.5537198" lon="7.7841945"><ele>395.0</ele><time>2026-05-01T09:21:39.274Z</time></trkpt><trkpt lat="44.5534829" lon="7.7842454"><ele>394.0</ele><time>2026-05-01T09:21:40.275Z</time></trkpt><trkpt lat="44.5532448" lon="7.7842998"><ele>393.0</ele><time>2026-05-01T09:21:41.274Z</time></trkpt><trkpt lat="44.5530022" lon="7.7843519"><ele>393.0</ele><time>2026-05-01T09:21:42.274Z</time></trkpt><trkpt lat="44.5527616" lon="7.7844009"><ele>393.0</ele><time>2026-05-01T09:21:43.274Z</time></trkpt><trkpt lat="44.5525171" lon="7.7844508"><ele>393.0</ele><time>2026-05-01T09:21:44.274Z</time></trkpt><trkpt lat="44.5522778" lon="7.7845021"><ele>393.0</ele><time>2026-05-01T09:21:45.275Z</time></trkpt><trkpt lat="44.5520336" lon="7.784543"><ele>394.0</ele><time>2026-05-01T09:21:46.274Z</time></trkpt><trkpt lat="44.5517917" lon="7.7845887"><ele>395.0</ele><time>2026-05-01T09:21:47.274Z</time></trkpt><trkpt lat="44.5515485" lon="7.7846394"><ele>395.0</ele><time>2026-05-01T09:21:48.274Z</time></trkpt><trkpt lat="44.5513052" lon="7.7846891"><ele>395.0</ele><time>2026-05-01T09:21:49.274Z</time></trkpt><trkpt lat="44.5510588" lon="7.7847405"><ele>395.0</ele><time>2026-05-01T09:21:50.274Z</time></trkpt><trkpt lat="44.550812" lon="7.784795"><ele>395.0</ele><time>2026-05-01T09:21:51.274Z</time></trkpt><trkpt lat="44.5505596" lon="7.7848443"><ele>396.0</ele><time>2026-05-01T09:21:52.274Z</time></trkpt><trkpt lat="44.5503129" lon="7.7848905"><ele>397.0</ele><time>2026-05-01T09:21:53.274Z</time></trkpt><trkpt lat="44.550066" lon="7.7849386"><ele>397.0</ele><time>2026-05-01T09:21:54.274Z</time></trkpt><trkpt lat="44.5498122" lon="7.7849841"><ele>397.0</ele><time>2026-05-01T09:21:55.274Z</time></trkpt><trkpt lat="44.549556" lon="7.7850362"><ele>398.0</ele><time>2026-05-01T09:21:56.274Z</time></trkpt><trkpt lat="44.5493034" lon="7.7850851"><ele>399.0</ele><time>2026-05-01T09:21:57.274Z</time></trkpt><trkpt lat="44.5490456" lon="7.7851378"><ele>399.0</ele><time>2026-05-01T09:21:58.274Z</time></trkpt><trkpt lat="44.5487883" lon="7.7851925"><ele>399.0</ele><time>2026-05-01T09:21:59.274Z</time></trkpt><trkpt lat="44.548527" lon="7.7852448"><ele>399.0</ele><time>2026-05-01T09:22:00.274Z</time></trkpt><trkpt lat="44.5482636" lon="7.7852938"><ele>399.0</ele><time>2026-05-01T09:22:01.274Z</time></trkpt><trkpt lat="44.5479931" lon="7.7853381"><ele>399.5</ele><time>2026-05-01T09:22:02.274Z</time></trkpt><trkpt lat="44.5477313" lon="7.7853872"><ele>400.0</ele><time>2026-05-01T09:22:03.274Z</time></trkpt><trkpt lat="44.5474681" lon="7.7854343"><ele>400.0</ele><time>2026-05-01T09:22:04.274Z</time></trkpt><trkpt lat="44.5472045" lon="7.7854853"><ele>400.0</ele><time>2026-05-01T09:22:05.274Z</time></trkpt><trkpt lat="44.5469351" lon="7.7855355"><ele>400.5</ele><time>2026-05-01T09:22:06.275Z</time></trkpt><trkpt lat="44.5466678" lon="7.785594"><ele>401.0</ele><time>2026-05-01T09:22:07.275Z</time></trkpt><trkpt lat="44.5463983" lon="7.7856426"><ele>400.0</ele><time>2026-05-01T09:22:08.274Z</time></trkpt><trkpt lat="44.5461255" lon="7.7856909"><ele>399.0</ele><time>2026-05-01T09:22:09.274Z</time></trkpt><trkpt lat="44.5458522" lon="7.7857365"><ele>399.0</ele><time>2026-05-01T09:22:10.274Z</time></trkpt><trkpt lat="44.5455799" lon="7.7857886"><ele>399.0</ele><time>2026-05-01T09:22:11.275Z</time></trkpt><trkpt lat="44.545305" lon="7.7858461"><ele>398.5</ele><time>2026-05-01T09:22:12.274Z</time></trkpt><trkpt lat="44.5450314" lon="7.7859081"><ele>398.0</ele><time>2026-05-01T09:22:13.274Z</time></trkpt><trkpt lat="44.544758" lon="7.7859657"><ele>399.0</ele><time>2026-05-01T09:22:14.274Z</time></trkpt><trkpt lat="44.5444849" lon="7.7860224"><ele>400.0</ele><time>2026-05-01T09:22:15.274Z</time></trkpt><trkpt lat="44.544209" lon="7.7860832"><ele>400.0</ele><time>2026-05-01T09:22:16.274Z</time></trkpt><trkpt lat="44.5439356" lon="7.7861444"><ele>400.0</ele><time>2026-05-01T09:22:17.274Z</time></trkpt><trkpt lat="44.543668" lon="7.7862129"><ele>400.0</ele><time>2026-05-01T09:22:18.274Z</time></trkpt><trkpt lat="44.5433959" lon="7.7862781"><ele>400.0</ele><time>2026-05-01T09:22:19.274Z</time></trkpt><trkpt lat="44.5431313" lon="7.7863459"><ele>400.5</ele><time>2026-05-01T09:22:20.274Z</time></trkpt><trkpt lat="44.5428651" lon="7.7864225"><ele>401.0</ele><time>2026-05-01T09:22:21.274Z</time></trkpt><trkpt lat="44.542603" lon="7.7864932"><ele>401.0</ele><time>2026-05-01T09:22:22.274Z</time></trkpt><trkpt lat="44.5423385" lon="7.7865745"><ele>401.0</ele><time>2026-05-01T09:22:23.274Z</time></trkpt><trkpt lat="44.542078" lon="7.7866585"><ele>401.0</ele><time>2026-05-01T09:22:24.274Z</time></trkpt><trkpt lat="44.5418137" lon="7.7867448"><ele>401.0</ele><time>2026-05-01T09:22:25.274Z</time></trkpt><trkpt lat="44.5415544" lon="7.7868325"><ele>401.0</ele><time>2026-05-01T09:22:26.274Z</time></trkpt><trkpt lat="44.5412929" lon="7.7869277"><ele>401.0</ele><time>2026-05-01T09:22:27.274Z</time></trkpt><trkpt lat="44.5410282" lon="7.7870229"><ele>400.5</ele><time>2026-05-01T09:22:28.274Z</time></trkpt><trkpt lat="44.5407602" lon="7.7871219"><ele>400.0</ele><time>2026-05-01T09:22:29.275Z</time></trkpt><trkpt lat="44.540492" lon="7.7872284"><ele>401.0</ele><time>2026-05-01T09:22:30.275Z</time></trkpt><trkpt lat="44.540225" lon="7.7873295"><ele>402.0</ele><time>2026-05-01T09:22:31.274Z</time></trkpt><trkpt lat="44.5399538" lon="7.7874354"><ele>402.0</ele><time>2026-05-01T09:22:32.274Z</time></trkpt><trkpt lat="44.5396779" lon="7.7875434"><ele>402.0</ele><time>2026-05-01T09:22:33.274Z</time></trkpt><trkpt lat="44.5394039" lon="7.7876557"><ele>403.0</ele><time>2026-05-01T09:22:34.274Z</time></trkpt><trkpt lat="44.5391315" lon="7.7877733"><ele>404.0</ele><time>2026-05-01T09:22:35.274Z</time></trkpt><trkpt lat="44.5388582" lon="7.7878983"><ele>403.0</ele><time>2026-05-01T09:22:36.274Z</time></trkpt><trkpt lat="44.5385851" lon="7.7880272"><ele>402.0</ele><time>2026-05-01T09:22:37.274Z</time></trkpt><trkpt lat="44.538312" lon="7.7881541"><ele>402.0</ele><time>2026-05-01T09:22:38.274Z</time></trkpt><trkpt lat="44.5380433" lon="7.7882888"><ele>402.0</ele><time>2026-05-01T09:22:39.274Z</time></trkpt><trkpt lat="44.5377824" lon="7.7884235"><ele>401.5</ele><time>2026-05-01T09:22:40.274Z</time></trkpt><trkpt lat="44.5375232" lon="7.7885552"><ele>401.0</ele><time>2026-05-01T09:22:41.274Z</time></trkpt><trkpt lat="44.5372727" lon="7.788685"><ele>401.0</ele><time>2026-05-01T09:22:42.274Z</time></trkpt><trkpt lat="44.5370261" lon="7.7888143"><ele>401.0</ele><time>2026-05-01T09:22:43.274Z</time></trkpt><trkpt lat="44.5367799" lon="7.7889425"><ele>401.0</ele><time>2026-05-01T09:22:44.274Z</time></trkpt><trkpt lat="44.5365334" lon="7.7890761"><ele>401.0</ele><time>2026-05-01T09:22:45.274Z</time></trkpt><trkpt lat="44.5362852" lon="7.789211"><ele>401.5</ele><time>2026-05-01T09:22:46.274Z</time></trkpt><trkpt lat="44.5360351" lon="7.7893462"><ele>402.0</ele><time>2026-05-01T09:22:47.274Z</time></trkpt><trkpt lat="44.5357897" lon="7.7894877"><ele>402.0</ele><time>2026-05-01T09:22:48.275Z</time></trkpt><trkpt lat="44.5355419" lon="7.7896364"><ele>402.0</ele><time>2026-05-01T09:22:49.275Z</time></trkpt><trkpt lat="44.5352933" lon="7.7897793"><ele>401.5</ele><time>2026-05-01T09:22:50.274Z</time></trkpt><trkpt lat="44.5350452" lon="7.7899168"><ele>401.0</ele><time>2026-05-01T09:22:51.274Z</time></trkpt><trkpt lat="44.5348014" lon="7.7900548"><ele>400.5</ele><time>2026-05-01T09:22:52.274Z</time></trkpt><trkpt lat="44.5345566" lon="7.7901959"><ele>400.0</ele><time>2026-05-01T09:22:53.274Z</time></trkpt><trkpt lat="44.5343116" lon="7.7903375"><ele>401.0</ele><time>2026-05-01T09:22:54.274Z</time></trkpt><trkpt lat="44.5340632" lon="7.7904824"><ele>402.0</ele><time>2026-05-01T09:22:55.274Z</time></trkpt><trkpt lat="44.5338103" lon="7.7906303"><ele>403.5</ele><time>2026-05-01T09:22:56.274Z</time></trkpt><trkpt lat="44.5335507" lon="7.7907861"><ele>405.0</ele><time>2026-05-01T09:22:57.274Z</time></trkpt><trkpt lat="44.5332847" lon="7.7909344"><ele>404.5</ele><time>2026-05-01T09:22:58.275Z</time></trkpt><trkpt lat="44.5330237" lon="7.7910799"><ele>404.0</ele><time>2026-05-01T09:22:59.274Z</time></trkpt><trkpt lat="44.5327667" lon="7.7912291"><ele>403.5</ele><time>2026-05-01T09:23:00.274Z</time></trkpt><trkpt lat="44.5325099" lon="7.7913762"><ele>403.0</ele><time>2026-05-01T09:23:01.274Z</time></trkpt><trkpt lat="44.5322538" lon="7.7915211"><ele>403.0</ele><time>2026-05-01T09:23:02.274Z</time></trkpt><trkpt lat="44.5320094" lon="7.7916641"><ele>403.0</ele><time>2026-05-01T09:23:03.274Z</time></trkpt><trkpt lat="44.5317664" lon="7.7918057"><ele>402.0</ele><time>2026-05-01T09:23:04.274Z</time></trkpt><trkpt lat="44.5315201" lon="7.7919517"><ele>401.0</ele><time>2026-05-01T09:23:05.274Z</time></trkpt><trkpt lat="44.5312703" lon="7.7921041"><ele>394.0</ele><time>2026-05-01T09:23:06.274Z</time></trkpt><trkpt lat="44.5310189" lon="7.7922475"><ele>387.0</ele><time>2026-05-01T09:23:07.274Z</time></trkpt><trkpt lat="44.5307684" lon="7.7923924"><ele>387.0</ele><time>2026-05-01T09:23:08.274Z</time></trkpt><trkpt lat="44.5305169" lon="7.7925388"><ele>387.0</ele><time>2026-05-01T09:23:09.274Z</time></trkpt><trkpt lat="44.5302667" lon="7.7926869"><ele>376.0</ele><time>2026-05-01T09:23:10.274Z</time></trkpt><trkpt lat="44.5300222" lon="7.792831"><ele>365.0</ele><time>2026-05-01T09:23:11.274Z</time></trkpt><trkpt lat="44.5297813" lon="7.7929639"><ele>364.5</ele><time>2026-05-01T09:23:12.274Z</time></trkpt><trkpt lat="44.5295421" lon="7.7930966"><ele>364.0</ele><time>2026-05-01T09:23:13.274Z</time></trkpt><trkpt lat="44.529304" lon="7.7932211"><ele>364.0</ele><time>2026-05-01T09:23:14.275Z</time></trkpt><trkpt lat="44.5290684" lon="7.7933574"><ele>364.0</ele><time>2026-05-01T09:23:15.274Z</time></trkpt><trkpt lat="44.5288277" lon="7.7934982"><ele>362.5</ele><time>2026-05-01T09:23:16.274Z</time></trkpt><trkpt lat="44.5285855" lon="7.7936345"><ele>361.0</ele><time>2026-05-01T09:23:17.274Z</time></trkpt><trkpt lat="44.5283419" lon="7.7937742"><ele>361.0</ele><time>2026-05-01T09:23:18.274Z</time></trkpt><trkpt lat="44.5280983" lon="7.7939143"><ele>361.0</ele><time>2026-05-01T09:23:19.274Z</time></trkpt><trkpt lat="44.5278507" lon="7.7940599"><ele>361.5</ele><time>2026-05-01T09:23:20.274Z</time></trkpt><trkpt lat="44.5276067" lon="7.7942008"><ele>362.0</ele><time>2026-05-01T09:23:21.274Z</time></trkpt><trkpt lat="44.5273632" lon="7.7943409"><ele>362.0</ele><time>2026-05-01T09:23:22.274Z</time></trkpt><trkpt lat="44.5271243" lon="7.7944851"><ele>362.0</ele><time>2026-05-01T09:23:23.274Z</time></trkpt><trkpt lat="44.526889" lon="7.7946227"><ele>362.0</ele><time>2026-05-01T09:23:24.274Z</time></trkpt><trkpt lat="44.5266592" lon="7.7947491"><ele>362.0</ele><time>2026-05-01T09:23:25.274Z</time></trkpt><trkpt lat="44.5264275" lon="7.7948793"><ele>363.0</ele><time>2026-05-01T09:23:26.274Z</time></trkpt><trkpt lat="44.526196" lon="7.7950163"><ele>364.0</ele><time>2026-05-01T09:23:27.275Z</time></trkpt><trkpt lat="44.5259641" lon="7.7951446"><ele>362.5</ele><time>2026-05-01T09:23:28.274Z</time></trkpt><trkpt lat="44.525735" lon="7.7952745"><ele>361.0</ele><time>2026-05-01T09:23:29.274Z</time></trkpt><trkpt lat="44.525502" lon="7.7954089"><ele>363.0</ele><time>2026-05-01T09:23:30.274Z</time></trkpt><trkpt lat="44.525274" lon="7.7955497"><ele>365.0</ele><time>2026-05-01T09:23:31.274Z</time></trkpt><trkpt lat="44.5250397" lon="7.7956928"><ele>365.0</ele><time>2026-05-01T09:23:32.274Z</time></trkpt><trkpt lat="44.5248002" lon="7.7958308"><ele>365.0</ele><time>2026-05-01T09:23:33.274Z</time></trkpt><trkpt lat="44.5245557" lon="7.7959706"><ele>364.0</ele><time>2026-05-01T09:23:34.274Z</time></trkpt><trkpt lat="44.5243106" lon="7.7961107"><ele>363.0</ele><time>2026-05-01T09:23:35.274Z</time></trkpt><trkpt lat="44.5240628" lon="7.7962508"><ele>363.0</ele><time>2026-05-01T09:23:36.274Z</time></trkpt><trkpt lat="44.5238216" lon="7.7963935"><ele>363.0</ele><time>2026-05-01T09:23:37.274Z</time></trkpt><trkpt lat="44.5235814" lon="7.7965326"><ele>363.5</ele><time>2026-05-01T09:23:38.274Z</time></trkpt><trkpt lat="44.5233384" lon="7.7966711"><ele>364.0</ele><time>2026-05-01T09:23:39.274Z</time></trkpt><trkpt lat="44.5230934" lon="7.7968096"><ele>363.5</ele><time>2026-05-01T09:23:40.274Z</time></trkpt><trkpt lat="44.5228409" lon="7.7969553"><ele>363.0</ele><time>2026-05-01T09:23:41.274Z</time></trkpt><trkpt lat="44.5225842" lon="7.7971065"><ele>363.0</ele><time>2026-05-01T09:23:42.275Z</time></trkpt><trkpt lat="44.5223213" lon="7.7972542"><ele>363.0</ele><time>2026-05-01T09:23:43.274Z</time></trkpt><trkpt lat="44.5220531" lon="7.7974071"><ele>363.0</ele><time>2026-05-01T09:23:44.274Z</time></trkpt><trkpt lat="44.5217871" lon="7.7975579"><ele>363.0</ele><time>2026-05-01T09:23:45.274Z</time></trkpt><trkpt lat="44.5215263" lon="7.797708"><ele>362.5</ele><time>2026-05-01T09:23:46.275Z</time></trkpt><trkpt lat="44.5212651" lon="7.7978605"><ele>362.0</ele><time>2026-05-01T09:23:47.274Z</time></trkpt><trkpt lat="44.521008" lon="7.7980135"><ele>362.0</ele><time>2026-05-01T09:23:48.274Z</time></trkpt><trkpt lat="44.5207513" lon="7.7981626"><ele>362.0</ele><time>2026-05-01T09:23:49.274Z</time></trkpt><trkpt lat="44.5204916" lon="7.7983126"><ele>362.0</ele><time>2026-05-01T09:23:50.275Z</time></trkpt><trkpt lat="44.5202257" lon="7.7984726"><ele>362.0</ele><time>2026-05-01T09:23:51.274Z</time></trkpt><trkpt lat="44.5199531" lon="7.7986273"><ele>362.0</ele><time>2026-05-01T09:23:52.274Z</time></trkpt><trkpt lat="44.519685" lon="7.7987811"><ele>362.0</ele><time>2026-05-01T09:23:53.275Z</time></trkpt><trkpt lat="44.5194165" lon="7.798936"><ele>362.0</ele><time>2026-05-01T09:23:54.274Z</time></trkpt><trkpt lat="44.5191464" lon="7.799094"><ele>362.0</ele><time>2026-05-01T09:23:55.274Z</time></trkpt><trkpt lat="44.5188755" lon="7.7992492"><ele>363.0</ele><time>2026-05-01T09:23:56.274Z</time></trkpt><trkpt lat="44.5186056" lon="7.7994097"><ele>364.0</ele><time>2026-05-01T09:23:57.274Z</time></trkpt><trkpt lat="44.5183399" lon="7.7995641"><ele>364.0</ele><time>2026-05-01T09:23:58.274Z</time></trkpt><trkpt lat="44.5180689" lon="7.799722"><ele>364.0</ele><time>2026-05-01T09:23:59.274Z</time></trkpt><trkpt lat="44.5177912" lon="7.7998679"><ele>364.0</ele><time>2026-05-01T09:24:00.274Z</time></trkpt><trkpt lat="44.5175155" lon="7.8000286"><ele>364.0</ele><time>2026-05-01T09:24:01.274Z</time></trkpt><trkpt lat="44.5172406" lon="7.8001928"><ele>364.0</ele><time>2026-05-01T09:24:02.274Z</time></trkpt><trkpt lat="44.5169694" lon="7.8003496"><ele>364.0</ele><time>2026-05-01T09:24:03.274Z</time></trkpt><trkpt lat="44.5166918" lon="7.8005079"><ele>364.0</ele><time>2026-05-01T09:24:04.274Z</time></trkpt><trkpt lat="44.5164149" lon="7.800669"><ele>364.0</ele><time>2026-05-01T09:24:05.274Z</time></trkpt><trkpt lat="44.5161398" lon="7.8008306"><ele>363.0</ele><time>2026-05-01T09:24:06.274Z</time></trkpt><trkpt lat="44.5158604" lon="7.8009923"><ele>362.0</ele><time>2026-05-01T09:24:07.274Z</time></trkpt><trkpt lat="44.5155791" lon="7.8011568"><ele>362.0</ele><time>2026-05-01T09:24:08.274Z</time></trkpt><trkpt lat="44.5152971" lon="7.8013191"><ele>362.0</ele><time>2026-05-01T09:24:09.275Z</time></trkpt><trkpt lat="44.5150138" lon="7.8014768"><ele>362.0</ele><time>2026-05-01T09:24:10.274Z</time></trkpt><trkpt lat="44.5147382" lon="7.801629"><ele>362.0</ele><time>2026-05-01T09:24:11.274Z</time></trkpt><trkpt lat="44.5144622" lon="7.8017889"><ele>362.0</ele><time>2026-05-01T09:24:12.274Z</time></trkpt><trkpt lat="44.5141901" lon="7.8019389"><ele>362.0</ele><time>2026-05-01T09:24:13.274Z</time></trkpt><trkpt lat="44.5139183" lon="7.8020905"><ele>361.5</ele><time>2026-05-01T09:24:14.274Z</time></trkpt><trkpt lat="44.5136499" lon="7.8022445"><ele>361.0</ele><time>2026-05-01T09:24:15.274Z</time></trkpt><trkpt lat="44.5133801" lon="7.8024035"><ele>361.0</ele><time>2026-05-01T09:24:16.274Z</time></trkpt><trkpt lat="44.5131084" lon="7.8025593"><ele>361.0</ele><time>2026-05-01T09:24:17.274Z</time></trkpt><trkpt lat="44.5128366" lon="7.8027146"><ele>361.0</ele><time>2026-05-01T09:24:18.274Z</time></trkpt><trkpt lat="44.5125693" lon="7.8028709"><ele>361.0</ele><time>2026-05-01T09:24:19.274Z</time></trkpt><trkpt lat="44.512297" lon="7.8030261"><ele>361.0</ele><time>2026-05-01T09:24:20.274Z</time></trkpt><trkpt lat="44.512024" lon="7.803181"><ele>361.0</ele><time>2026-05-01T09:24:21.275Z</time></trkpt><trkpt lat="44.511755" lon="7.803336"><ele>361.0</ele><time>2026-05-01T09:24:22.274Z</time></trkpt><trkpt lat="44.5114866" lon="7.8034952"><ele>361.0</ele><time>2026-05-01T09:24:23.274Z</time></trkpt><trkpt lat="44.5112154" lon="7.8036523"><ele>361.5</ele><time>2026-05-01T09:24:24.274Z</time></trkpt><trkpt lat="44.5109463" lon="7.8038106"><ele>362.0</ele><time>2026-05-01T09:24:25.274Z</time></trkpt><trkpt lat="44.5106805" lon="7.803969"><ele>362.0</ele><time>2026-05-01T09:24:26.274Z</time></trkpt><trkpt lat="44.5104101" lon="7.804123"><ele>362.0</ele><time>2026-05-01T09:24:27.274Z</time></trkpt><trkpt lat="44.5101401" lon="7.8042737"><ele>362.0</ele><time>2026-05-01T09:24:28.274Z</time></trkpt><trkpt lat="44.5098686" lon="7.804428"><ele>362.0</ele><time>2026-05-01T09:24:29.274Z</time></trkpt><trkpt lat="44.5095997" lon="7.8045844"><ele>362.5</ele><time>2026-05-01T09:24:30.274Z</time></trkpt><trkpt lat="44.5093276" lon="7.8047406"><ele>363.0</ele><time>2026-05-01T09:24:31.274Z</time></trkpt><trkpt lat="44.5090588" lon="7.8048928"><ele>363.0</ele><time>2026-05-01T09:24:32.275Z</time></trkpt><trkpt lat="44.5087932" lon="7.8050488"><ele>363.0</ele><time>2026-05-01T09:24:33.275Z</time></trkpt><trkpt lat="44.5085339" lon="7.8052038"><ele>364.0</ele><time>2026-05-01T09:24:34.274Z</time></trkpt><trkpt lat="44.50827" lon="7.8053574"><ele>365.0</ele><time>2026-05-01T09:24:35.274Z</time></trkpt><trkpt lat="44.5080125" lon="7.8055048"><ele>365.5</ele><time>2026-05-01T09:24:36.274Z</time></trkpt><trkpt lat="44.5077502" lon="7.8056559"><ele>366.0</ele><time>2026-05-01T09:24:37.275Z</time></trkpt><trkpt lat="44.5074855" lon="7.8058103"><ele>366.0</ele><time>2026-05-01T09:24:38.274Z</time></trkpt><trkpt lat="44.5072175" lon="7.8059653"><ele>366.0</ele><time>2026-05-01T09:24:39.274Z</time></trkpt><trkpt lat="44.5069576" lon="7.8061176"><ele>370.5</ele><time>2026-05-01T09:24:40.274Z</time></trkpt><trkpt lat="44.5066932" lon="7.8062639"><ele>375.0</ele><time>2026-05-01T09:24:41.274Z</time></trkpt><trkpt lat="44.5064255" lon="7.806416"><ele>377.5</ele><time>2026-05-01T09:24:42.274Z</time></trkpt><trkpt lat="44.5061588" lon="7.8065705"><ele>380.0</ele><time>2026-05-01T09:24:43.274Z</time></trkpt><trkpt lat="44.5058935" lon="7.8067226"><ele>386.0</ele><time>2026-05-01T09:24:44.274Z</time></trkpt><trkpt lat="44.5056285" lon="7.8068772"><ele>392.0</ele><time>2026-05-01T09:24:45.274Z</time></trkpt><trkpt lat="44.5053653" lon="7.8070277"><ele>392.0</ele><time>2026-05-01T09:24:46.274Z</time></trkpt><trkpt lat="44.5051034" lon="7.8071749"><ele>392.0</ele><time>2026-05-01T09:24:47.275Z</time></trkpt><trkpt lat="44.504839" lon="7.8073286"><ele>392.5</ele><time>2026-05-01T09:24:48.274Z</time></trkpt><trkpt lat="44.5045753" lon="7.8074821"><ele>393.0</ele><time>2026-05-01T09:24:49.274Z</time></trkpt><trkpt lat="44.5043091" lon="7.8076355"><ele>398.5</ele><time>2026-05-01T09:24:50.274Z</time></trkpt><trkpt lat="44.5040436" lon="7.8077904"><ele>404.0</ele><time>2026-05-01T09:24:51.275Z</time></trkpt><trkpt lat="44.5037742" lon="7.8079412"><ele>404.0</ele><time>2026-05-01T09:24:52.274Z</time></trkpt><trkpt lat="44.5035084" lon="7.80809"><ele>404.0</ele><time>2026-05-01T09:24:53.274Z</time></trkpt><trkpt lat="44.5032405" lon="7.8082413"><ele>404.0</ele><time>2026-05-01T09:24:54.275Z</time></trkpt><trkpt lat="44.5029754" lon="7.8083982"><ele>404.0</ele><time>2026-05-01T09:24:55.274Z</time></trkpt><trkpt lat="44.5027164" lon="7.808552"><ele>407.5</ele><time>2026-05-01T09:24:56.274Z</time></trkpt><trkpt lat="44.5024553" lon="7.8086996"><ele>411.0</ele><time>2026-05-01T09:24:57.274Z</time></trkpt><trkpt lat="44.5021953" lon="7.8088463"><ele>411.5</ele><time>2026-05-01T09:24:58.275Z</time></trkpt><trkpt lat="44.501938" lon="7.8089933"><ele>412.0</ele><time>2026-05-01T09:24:59.274Z</time></trkpt><trkpt lat="44.5016785" lon="7.8091372"><ele>412.0</ele><time>2026-05-01T09:25:00.274Z</time></trkpt><trkpt lat="44.5014199" lon="7.8092821"><ele>412.0</ele><time>2026-05-01T09:25:01.274Z</time></trkpt><trkpt lat="44.5011629" lon="7.8094313"><ele>412.0</ele><time>2026-05-01T09:25:02.275Z</time></trkpt><trkpt lat="44.5009023" lon="7.8095821"><ele>412.0</ele><time>2026-05-01T09:25:03.274Z</time></trkpt><trkpt lat="44.5006377" lon="7.809731"><ele>412.0</ele><time>2026-05-01T09:25:04.274Z</time></trkpt><trkpt lat="44.500377" lon="7.8098794"><ele>412.0</ele><time>2026-05-01T09:25:05.274Z</time></trkpt><trkpt lat="44.5001199" lon="7.810029"><ele>412.0</ele><time>2026-05-01T09:25:06.274Z</time></trkpt><trkpt lat="44.4998675" lon="7.8101718"><ele>412.0</ele><time>2026-05-01T09:25:07.274Z</time></trkpt><trkpt lat="44.4996162" lon="7.810319"><ele>412.5</ele><time>2026-05-01T09:25:08.274Z</time></trkpt><trkpt lat="44.4993724" lon="7.8104583"><ele>413.0</ele><time>2026-05-01T09:25:09.274Z</time></trkpt><trkpt lat="44.4991271" lon="7.8106005"><ele>413.0</ele><time>2026-05-01T09:25:10.274Z</time></trkpt><trkpt lat="44.4988788" lon="7.8107452"><ele>413.0</ele><time>2026-05-01T09:25:11.275Z</time></trkpt><trkpt lat="44.4986259" lon="7.8108919"><ele>414.0</ele><time>2026-05-01T09:25:12.274Z</time></trkpt><trkpt lat="44.4983733" lon="7.8110389"><ele>415.0</ele><time>2026-05-01T09:25:13.274Z</time></trkpt><trkpt lat="44.4981167" lon="7.8111888"><ele>415.0</ele><time>2026-05-01T09:25:14.274Z</time></trkpt><trkpt lat="44.4978616" lon="7.8113402"><ele>415.0</ele><time>2026-05-01T09:25:15.274Z</time></trkpt><trkpt lat="44.4976008" lon="7.8115028"><ele>415.0</ele><time>2026-05-01T09:25:16.274Z</time></trkpt><trkpt lat="44.4973347" lon="7.8116703"><ele>415.0</ele><time>2026-05-01T09:25:17.274Z</time></trkpt><trkpt lat="44.4970657" lon="7.8118559"><ele>412.5</ele><time>2026-05-01T09:25:18.275Z</time></trkpt><trkpt lat="44.4967922" lon="7.8120499"><ele>410.0</ele><time>2026-05-01T09:25:19.274Z</time></trkpt><trkpt lat="44.4965217" lon="7.8122377"><ele>410.0</ele><time>2026-05-01T09:25:20.274Z</time></trkpt><trkpt lat="44.4962535" lon="7.8124212"><ele>410.0</ele><time>2026-05-01T09:25:21.274Z</time></trkpt><trkpt lat="44.4959791" lon="7.8126121"><ele>408.5</ele><time>2026-05-01T09:25:22.275Z</time></trkpt><trkpt lat="44.4957116" lon="7.812802"><ele>407.0</ele><time>2026-05-01T09:25:23.274Z</time></trkpt><trkpt lat="44.4954499" lon="7.8129815"><ele>407.5</ele><time>2026-05-01T09:25:24.274Z</time></trkpt><trkpt lat="44.495196" lon="7.8131456"><ele>408.0</ele><time>2026-05-01T09:25:25.274Z</time></trkpt><trkpt lat="44.4949479" lon="7.8133069"><ele>408.0</ele><time>2026-05-01T09:25:26.274Z</time></trkpt><trkpt lat="44.4946984" lon="7.8134658"><ele>408.0</ele><time>2026-05-01T09:25:27.274Z</time></trkpt><trkpt lat="44.4944504" lon="7.8136348"><ele>408.0</ele><time>2026-05-01T09:25:28.274Z</time></trkpt><trkpt lat="44.494207" lon="7.8137998"><ele>408.0</ele><time>2026-05-01T09:25:29.274Z</time></trkpt><trkpt lat="44.4939682" lon="7.8139701"><ele>408.0</ele><time>2026-05-01T09:25:30.274Z</time></trkpt><trkpt lat="44.4937326" lon="7.8141387"><ele>408.0</ele><time>2026-05-01T09:25:31.274Z</time></trkpt><trkpt lat="44.4934994" lon="7.8143065"><ele>408.0</ele><time>2026-05-01T09:25:32.274Z</time></trkpt><trkpt lat="44.4932658" lon="7.8144669"><ele>408.0</ele><time>2026-05-01T09:25:33.274Z</time></trkpt><trkpt lat="44.4930284" lon="7.8146352"><ele>408.0</ele><time>2026-05-01T09:25:34.274Z</time></trkpt><trkpt lat="44.4927903" lon="7.8147992"><ele>408.0</ele><time>2026-05-01T09:25:35.274Z</time></trkpt><trkpt lat="44.4925551" lon="7.8149667"><ele>408.0</ele><time>2026-05-01T09:25:36.274Z</time></trkpt><trkpt lat="44.4923201" lon="7.8151335"><ele>408.0</ele><time>2026-05-01T09:25:37.274Z</time></trkpt><trkpt lat="44.4920852" lon="7.8153043"><ele>409.5</ele><time>2026-05-01T09:25:38.274Z</time></trkpt><trkpt lat="44.4918515" lon="7.8154635"><ele>411.0</ele><time>2026-05-01T09:25:39.275Z</time></trkpt><trkpt lat="44.4916117" lon="7.8156174"><ele>411.0</ele><time>2026-05-01T09:25:40.274Z</time></trkpt><trkpt lat="44.4913892" lon="7.8157634"><ele>411.0</ele><time>2026-05-01T09:25:41.274Z</time></trkpt><trkpt lat="44.4911695" lon="7.8159136"><ele>410.5</ele><time>2026-05-01T09:25:42.275Z</time></trkpt><trkpt lat="44.4909478" lon="7.8160597"><ele>410.0</ele><time>2026-05-01T09:25:43.274Z</time></trkpt><trkpt lat="44.4907265" lon="7.8162005"><ele>410.0</ele><time>2026-05-01T09:25:44.274Z</time></trkpt><trkpt lat="44.4905112" lon="7.8163485"><ele>410.0</ele><time>2026-05-01T09:25:45.274Z</time></trkpt><trkpt lat="44.4902965" lon="7.8164976"><ele>409.0</ele><time>2026-05-01T09:25:46.274Z</time></trkpt><trkpt lat="44.4900745" lon="7.8166572"><ele>408.0</ele><time>2026-05-01T09:25:47.274Z</time></trkpt><trkpt lat="44.4898604" lon="7.8168013"><ele>408.5</ele><time>2026-05-01T09:25:48.274Z</time></trkpt><trkpt lat="44.4896309" lon="7.8169371"><ele>409.0</ele><time>2026-05-01T09:25:49.274Z</time></trkpt><trkpt lat="44.4893962" lon="7.8170592"><ele>410.5</ele><time>2026-05-01T09:25:50.274Z</time></trkpt><trkpt lat="44.4891635" lon="7.8171533"><ele>412.0</ele><time>2026-05-01T09:25:51.274Z</time></trkpt><trkpt lat="44.4889278" lon="7.8172142"><ele>412.0</ele><time>2026-05-01T09:25:52.274Z</time></trkpt><trkpt lat="44.4886852" lon="7.8172323"><ele>412.0</ele><time>2026-05-01T09:25:53.274Z</time></trkpt><trkpt lat="44.4884444" lon="7.8172075"><ele>412.0</ele><time>2026-05-01T09:25:54.274Z</time></trkpt><trkpt lat="44.4881998" lon="7.817155"><ele>412.0</ele><time>2026-05-01T09:25:55.274Z</time></trkpt><trkpt lat="44.4879828" lon="7.8170736"><ele>411.5</ele><time>2026-05-01T09:25:56.274Z</time></trkpt><trkpt lat="44.4877601" lon="7.8169716"><ele>411.0</ele><time>2026-05-01T09:25:57.274Z</time></trkpt><trkpt lat="44.4875525" lon="7.8168255"><ele>411.0</ele><time>2026-05-01T09:25:58.274Z</time></trkpt><trkpt lat="44.4873601" lon="7.8166526"><ele>411.0</ele><time>2026-05-01T09:25:59.274Z</time></trkpt><trkpt lat="44.4871802" lon="7.8164609"><ele>411.5</ele><time>2026-05-01T09:26:00.275Z</time></trkpt><trkpt lat="44.4870129" lon="7.8162454"><ele>412.0</ele><time>2026-05-01T09:26:01.274Z</time></trkpt><trkpt lat="44.4868534" lon="7.816011"><ele>411.5</ele><time>2026-05-01T09:26:02.274Z</time></trkpt><trkpt lat="44.4866957" lon="7.815758"><ele>411.0</ele><time>2026-05-01T09:26:03.274Z</time></trkpt><trkpt lat="44.486538" lon="7.8154904"><ele>411.0</ele><time>2026-05-01T09:26:04.274Z</time></trkpt><trkpt lat="44.4863824" lon="7.8152104"><ele>411.0</ele><time>2026-05-01T09:26:05.274Z</time></trkpt><trkpt lat="44.4862277" lon="7.8149198"><ele>411.0</ele><time>2026-05-01T09:26:06.274Z</time></trkpt><trkpt lat="44.486078" lon="7.8146083"><ele>411.0</ele><time>2026-05-01T09:26:07.274Z</time></trkpt><trkpt lat="44.4859316" lon="7.8142803"><ele>411.0</ele><time>2026-05-01T09:26:08.274Z</time></trkpt><trkpt lat="44.4857957" lon="7.813946"><ele>411.0</ele><time>2026-05-01T09:26:09.274Z</time></trkpt><trkpt lat="44.4856725" lon="7.8136057"><ele>410.5</ele><time>2026-05-01T09:26:10.274Z</time></trkpt><trkpt lat="44.4855619" lon="7.8132596"><ele>410.0</ele><time>2026-05-01T09:26:11.274Z</time></trkpt><trkpt lat="44.4854666" lon="7.8129079"><ele>411.0</ele><time>2026-05-01T09:26:12.275Z</time></trkpt><trkpt lat="44.4853813" lon="7.8125526"><ele>412.0</ele><time>2026-05-01T09:26:13.275Z</time></trkpt><trkpt lat="44.4853095" lon="7.8121877"><ele>411.5</ele><time>2026-05-01T09:26:14.274Z</time></trkpt><trkpt lat="44.4852448" lon="7.8118174"><ele>411.0</ele><time>2026-05-01T09:26:15.274Z</time></trkpt><trkpt lat="44.4851867" lon="7.8114405"><ele>411.0</ele><time>2026-05-01T09:26:16.274Z</time></trkpt><trkpt lat="44.4851334" lon="7.8110607"><ele>411.0</ele><time>2026-05-01T09:26:17.275Z</time></trkpt><trkpt lat="44.4850914" lon="7.8106835"><ele>411.0</ele><time>2026-05-01T09:26:18.274Z</time></trkpt><trkpt lat="44.4850583" lon="7.810307"><ele>411.0</ele><time>2026-05-01T09:26:19.275Z</time></trkpt><trkpt lat="44.4850271" lon="7.8099259"><ele>411.0</ele><time>2026-05-01T09:26:20.274Z</time></trkpt><trkpt lat="44.4850005" lon="7.8095512"><ele>411.0</ele><time>2026-05-01T09:26:21.274Z</time></trkpt><trkpt lat="44.484978" lon="7.809172"><ele>411.0</ele><time>2026-05-01T09:26:22.274Z</time></trkpt><trkpt lat="44.4849358" lon="7.8088007"><ele>411.0</ele><time>2026-05-01T09:26:23.274Z</time></trkpt><trkpt lat="44.4849017" lon="7.808422"><ele>411.5</ele><time>2026-05-01T09:26:24.274Z</time></trkpt><trkpt lat="44.4848521" lon="7.8080446"><ele>412.0</ele><time>2026-05-01T09:26:25.274Z</time></trkpt><trkpt lat="44.4847942" lon="7.8076647"><ele>412.5</ele><time>2026-05-01T09:26:26.274Z</time></trkpt><trkpt lat="44.4847374" lon="7.8072819"><ele>413.0</ele><time>2026-05-01T09:26:27.274Z</time></trkpt><trkpt lat="44.484673" lon="7.8069075"><ele>413.5</ele><time>2026-05-01T09:26:28.275Z</time></trkpt><trkpt lat="44.4846101" lon="7.8065314"><ele>414.0</ele><time>2026-05-01T09:26:29.275Z</time></trkpt><trkpt lat="44.4845462" lon="7.8061565"><ele>415.5</ele><time>2026-05-01T09:26:30.274Z</time></trkpt><trkpt lat="44.4844812" lon="7.8057755"><ele>417.0</ele><time>2026-05-01T09:26:31.274Z</time></trkpt><trkpt lat="44.4844141" lon="7.8053998"><ele>418.5</ele><time>2026-05-01T09:26:32.274Z</time></trkpt><trkpt lat="44.4843461" lon="7.805028"><ele>420.0</ele><time>2026-05-01T09:26:33.275Z</time></trkpt><trkpt lat="44.4842785" lon="7.8046613"><ele>419.5</ele><time>2026-05-01T09:26:34.274Z</time></trkpt><trkpt lat="44.4841998" lon="7.8042977"><ele>419.0</ele><time>2026-05-01T09:26:35.274Z</time></trkpt><trkpt lat="44.4841207" lon="7.8039304"><ele>419.0</ele><time>2026-05-01T09:26:36.274Z</time></trkpt><trkpt lat="44.484033" lon="7.8035626"><ele>419.0</ele><time>2026-05-01T09:26:37.274Z</time></trkpt><trkpt lat="44.4839385" lon="7.8032017"><ele>419.0</ele><time>2026-05-01T09:26:38.274Z</time></trkpt><trkpt lat="44.4838316" lon="7.8028489"><ele>419.0</ele><time>2026-05-01T09:26:39.274Z</time></trkpt><trkpt lat="44.4837228" lon="7.8024946"><ele>418.5</ele><time>2026-05-01T09:26:40.274Z</time></trkpt><trkpt lat="44.4836152" lon="7.8021445"><ele>418.0</ele><time>2026-05-01T09:26:41.275Z</time></trkpt><trkpt lat="44.4835063" lon="7.8017966"><ele>418.0</ele><time>2026-05-01T09:26:42.275Z</time></trkpt><trkpt lat="44.483393" lon="7.8014529"><ele>418.0</ele><time>2026-05-01T09:26:43.274Z</time></trkpt><trkpt lat="44.4832733" lon="7.8011113"><ele>417.5</ele><time>2026-05-01T09:26:44.274Z</time></trkpt><trkpt lat="44.4831499" lon="7.8007729"><ele>417.0</ele><time>2026-05-01T09:26:45.274Z</time></trkpt><trkpt lat="44.4830188" lon="7.8004363"><ele>417.0</ele><time>2026-05-01T09:26:46.274Z</time></trkpt><trkpt lat="44.4828824" lon="7.800107"><ele>417.0</ele><time>2026-05-01T09:26:47.274Z</time></trkpt><trkpt lat="44.4827422" lon="7.7997732"><ele>417.0</ele><time>2026-05-01T09:26:48.274Z</time></trkpt><trkpt lat="44.4826015" lon="7.799446"><ele>417.0</ele><time>2026-05-01T09:26:49.274Z</time></trkpt><trkpt lat="44.4824522" lon="7.799121"><ele>417.0</ele><time>2026-05-01T09:26:50.275Z</time></trkpt><trkpt lat="44.4822995" lon="7.798797"><ele>417.0</ele><time>2026-05-01T09:26:51.274Z</time></trkpt><trkpt lat="44.4821463" lon="7.7984764"><ele>417.5</ele><time>2026-05-01T09:26:52.275Z</time></trkpt><trkpt lat="44.4819854" lon="7.7981625"><ele>418.0</ele><time>2026-05-01T09:26:53.274Z</time></trkpt><trkpt lat="44.4818197" lon="7.7978503"><ele>418.5</ele><time>2026-05-01T09:26:54.274Z</time></trkpt><trkpt lat="44.481649" lon="7.79754"><ele>419.0</ele><time>2026-05-01T09:26:55.274Z</time></trkpt><trkpt lat="44.481477" lon="7.7972376"><ele>419.0</ele><time>2026-05-01T09:26:56.274Z</time></trkpt><trkpt lat="44.4813046" lon="7.7969351"><ele>419.0</ele><time>2026-05-01T09:26:57.274Z</time></trkpt><trkpt lat="44.4811209" lon="7.7966408"><ele>419.0</ele><time>2026-05-01T09:26:58.274Z</time></trkpt><trkpt lat="44.4809354" lon="7.7963464"><ele>419.0</ele><time>2026-05-01T09:26:59.275Z</time></trkpt><trkpt lat="44.4807482" lon="7.7960534"><ele>418.5</ele><time>2026-05-01T09:27:00.274Z</time></trkpt><trkpt lat="44.4805554" lon="7.7957667"><ele>418.0</ele><time>2026-05-01T09:27:01.274Z</time></trkpt><trkpt lat="44.4803612" lon="7.7954957"><ele>418.0</ele><time>2026-05-01T09:27:02.274Z</time></trkpt><trkpt lat="44.4801686" lon="7.7952235"><ele>418.0</ele><time>2026-05-01T09:27:03.274Z</time></trkpt><trkpt lat="44.4799708" lon="7.7949542"><ele>418.0</ele><time>2026-05-01T09:27:04.274Z</time></trkpt><trkpt lat="44.4797624" lon="7.7946923"><ele>418.0</ele><time>2026-05-01T09:27:05.274Z</time></trkpt><trkpt lat="44.4795508" lon="7.7944372"><ele>417.5</ele><time>2026-05-01T09:27:06.274Z</time></trkpt><trkpt lat="44.4793386" lon="7.79419"><ele>417.0</ele><time>2026-05-01T09:27:07.274Z</time></trkpt><trkpt lat="44.4791222" lon="7.7939496"><ele>417.0</ele><time>2026-05-01T09:27:08.274Z</time></trkpt><trkpt lat="44.4789034" lon="7.7937171"><ele>417.0</ele><time>2026-05-01T09:27:09.274Z</time></trkpt><trkpt lat="44.4786816" lon="7.793486"><ele>417.5</ele><time>2026-05-01T09:27:10.274Z</time></trkpt><trkpt lat="44.4784552" lon="7.7932581"><ele>418.0</ele><time>2026-05-01T09:27:11.274Z</time></trkpt><trkpt lat="44.4782266" lon="7.7930347"><ele>418.0</ele><time>2026-05-01T09:27:12.274Z</time></trkpt><trkpt lat="44.4779923" lon="7.7928125"><ele>418.0</ele><time>2026-05-01T09:27:13.274Z</time></trkpt><trkpt lat="44.4777595" lon="7.7925872"><ele>419.0</ele><time>2026-05-01T09:27:14.275Z</time></trkpt><trkpt lat="44.4775275" lon="7.7923606"><ele>420.0</ele><time>2026-05-01T09:27:15.274Z</time></trkpt><trkpt lat="44.4772871" lon="7.7921379"><ele>420.0</ele><time>2026-05-01T09:27:16.274Z</time></trkpt><trkpt lat="44.477048" lon="7.7919183"><ele>420.0</ele><time>2026-05-01T09:27:17.274Z</time></trkpt><trkpt lat="44.4768122" lon="7.7916913"><ele>419.5</ele><time>2026-05-01T09:27:18.274Z</time></trkpt><trkpt lat="44.4765644" lon="7.7914674"><ele>419.0</ele><time>2026-05-01T09:27:19.274Z</time></trkpt><trkpt lat="44.4763195" lon="7.7912431"><ele>419.0</ele><time>2026-05-01T09:27:20.274Z</time></trkpt><trkpt lat="44.4760856" lon="7.7910068"><ele>419.0</ele><time>2026-05-01T09:27:21.274Z</time></trkpt><trkpt lat="44.4758513" lon="7.7907777"><ele>419.0</ele><time>2026-05-01T09:27:22.274Z</time></trkpt><trkpt lat="44.4756122" lon="7.7905352"><ele>419.0</ele><time>2026-05-01T09:27:23.274Z</time></trkpt><trkpt lat="44.4753802" lon="7.7902943"><ele>420.0</ele><time>2026-05-01T09:27:24.274Z</time></trkpt><trkpt lat="44.4751471" lon="7.7900556"><ele>421.0</ele><time>2026-05-01T09:27:25.274Z</time></trkpt><trkpt lat="44.4749199" lon="7.7898164"><ele>421.0</ele><time>2026-05-01T09:27:26.274Z</time></trkpt><trkpt lat="44.4746937" lon="7.789573"><ele>421.0</ele><time>2026-05-01T09:27:27.274Z</time></trkpt><trkpt lat="44.4744731" lon="7.7893146"><ele>420.0</ele><time>2026-05-01T09:27:28.274Z</time></trkpt><trkpt lat="44.4742588" lon="7.7890438"><ele>419.0</ele><time>2026-05-01T09:27:29.275Z</time></trkpt><trkpt lat="44.474044" lon="7.7887667"><ele>419.0</ele><time>2026-05-01T09:27:30.274Z</time></trkpt><trkpt lat="44.4738279" lon="7.7884832"><ele>419.0</ele><time>2026-05-01T09:27:31.274Z</time></trkpt><trkpt lat="44.4736159" lon="7.7881931"><ele>419.0</ele><time>2026-05-01T09:27:32.274Z</time></trkpt><trkpt lat="44.4734087" lon="7.7879005"><ele>419.0</ele><time>2026-05-01T09:27:33.275Z</time></trkpt><trkpt lat="44.473208" lon="7.787602"><ele>419.0</ele><time>2026-05-01T09:27:34.274Z</time></trkpt><trkpt lat="44.4730085" lon="7.7873029"><ele>419.0</ele><time>2026-05-01T09:27:35.274Z</time></trkpt><trkpt lat="44.4728108" lon="7.7869942"><ele>419.0</ele><time>2026-05-01T09:27:36.274Z</time></trkpt><trkpt lat="44.4726146" lon="7.7866893"><ele>419.0</ele><time>2026-05-01T09:27:37.275Z</time></trkpt><trkpt lat="44.472425" lon="7.7863786"><ele>419.0</ele><time>2026-05-01T09:27:38.274Z</time></trkpt><trkpt lat="44.4722371" lon="7.7860594"><ele>419.0</ele><time>2026-05-01T09:27:39.274Z</time></trkpt><trkpt lat="44.4720522" lon="7.7857332"><ele>419.0</ele><time>2026-05-01T09:27:40.274Z</time></trkpt><trkpt lat="44.4718722" lon="7.7854074"><ele>419.0</ele><time>2026-05-01T09:27:41.274Z</time></trkpt><trkpt lat="44.4716942" lon="7.7850802"><ele>420.0</ele><time>2026-05-01T09:27:42.274Z</time></trkpt><trkpt lat="44.4715209" lon="7.7847485"><ele>421.0</ele><time>2026-05-01T09:27:43.274Z</time></trkpt><trkpt lat="44.4713597" lon="7.784411"><ele>418.5</ele><time>2026-05-01T09:27:44.274Z</time></trkpt><trkpt lat="44.4712016" lon="7.784071"><ele>416.0</ele><time>2026-05-01T09:27:45.274Z</time></trkpt><trkpt lat="44.4710441" lon="7.7837292"><ele>417.0</ele><time>2026-05-01T09:27:46.274Z</time></trkpt><trkpt lat="44.4708866" lon="7.7833883"><ele>418.0</ele><time>2026-05-01T09:27:47.274Z</time></trkpt><trkpt lat="44.4707347" lon="7.7830335"><ele>418.0</ele><time>2026-05-01T09:27:48.274Z</time></trkpt><trkpt lat="44.4705864" lon="7.7826805"><ele>418.0</ele><time>2026-05-01T09:27:49.275Z</time></trkpt><trkpt lat="44.4704458" lon="7.7823254"><ele>417.5</ele><time>2026-05-01T09:27:50.274Z</time></trkpt><trkpt lat="44.4703062" lon="7.7819596"><ele>417.0</ele><time>2026-05-01T09:27:51.274Z</time></trkpt><trkpt lat="44.4701723" lon="7.7815877"><ele>417.0</ele><time>2026-05-01T09:27:52.274Z</time></trkpt><trkpt lat="44.470038" lon="7.7812065"><ele>417.0</ele><time>2026-05-01T09:27:53.274Z</time></trkpt><trkpt lat="44.4699136" lon="7.7808267"><ele>416.5</ele><time>2026-05-01T09:27:54.274Z</time></trkpt><trkpt lat="44.4697893" lon="7.7804374"><ele>416.0</ele><time>2026-05-01T09:27:55.274Z</time></trkpt><trkpt lat="44.4696665" lon="7.7800454"><ele>414.5</ele><time>2026-05-01T09:27:56.274Z</time></trkpt><trkpt lat="44.4695474" lon="7.7796496"><ele>413.0</ele><time>2026-05-01T09:27:57.274Z</time></trkpt><trkpt lat="44.469434" lon="7.7792512"><ele>407.5</ele><time>2026-05-01T09:27:58.274Z</time></trkpt><trkpt lat="44.4693286" lon="7.7788556"><ele>402.0</ele><time>2026-05-01T09:27:59.274Z</time></trkpt><trkpt lat="44.4692335" lon="7.7784569"><ele>397.5</ele><time>2026-05-01T09:28:00.274Z</time></trkpt><trkpt lat="44.4691379" lon="7.7780612"><ele>393.0</ele><time>2026-05-01T09:28:01.275Z</time></trkpt><trkpt lat="44.4690456" lon="7.7776658"><ele>391.0</ele><time>2026-05-01T09:28:02.274Z</time></trkpt><trkpt lat="44.4689672" lon="7.7772648"><ele>389.0</ele><time>2026-05-01T09:28:03.275Z</time></trkpt><trkpt lat="44.4688898" lon="7.776859"><ele>388.5</ele><time>2026-05-01T09:28:04.274Z</time></trkpt><trkpt lat="44.4688152" lon="7.7764552"><ele>388.0</ele><time>2026-05-01T09:28:05.274Z</time></trkpt><trkpt lat="44.4687397" lon="7.7760573"><ele>389.0</ele><time>2026-05-01T09:28:06.274Z</time></trkpt><trkpt lat="44.4686739" lon="7.7756493"><ele>390.0</ele><time>2026-05-01T09:28:07.274Z</time></trkpt><trkpt lat="44.4686151" lon="7.7752404"><ele>389.0</ele><time>2026-05-01T09:28:08.275Z</time></trkpt><trkpt lat="44.4685561" lon="7.7748272"><ele>388.0</ele><time>2026-05-01T09:28:09.275Z</time></trkpt><trkpt lat="44.468497" lon="7.7744121"><ele>388.0</ele><time>2026-05-01T09:28:10.274Z</time></trkpt><trkpt lat="44.4684477" lon="7.774005"><ele>388.0</ele><time>2026-05-01T09:28:11.274Z</time></trkpt><trkpt lat="44.4684057" lon="7.773591"><ele>388.0</ele><time>2026-05-01T09:28:12.274Z</time></trkpt><trkpt lat="44.4683732" lon="7.7731746"><ele>388.0</ele><time>2026-05-01T09:28:13.274Z</time></trkpt><trkpt lat="44.4683451" lon="7.7727578"><ele>388.0</ele><time>2026-05-01T09:28:14.275Z</time></trkpt><trkpt lat="44.4683204" lon="7.7723414"><ele>388.0</ele><time>2026-05-01T09:28:15.274Z</time></trkpt><trkpt lat="44.4683019" lon="7.7719249"><ele>388.0</ele><time>2026-05-01T09:28:16.274Z</time></trkpt><trkpt lat="44.4682844" lon="7.7715085"><ele>388.0</ele><time>2026-05-01T09:28:17.274Z</time></trkpt><trkpt lat="44.4682698" lon="7.7710992"><ele>388.5</ele><time>2026-05-01T09:28:18.274Z</time></trkpt><trkpt lat="44.4682641" lon="7.7706865"><ele>389.0</ele><time>2026-05-01T09:28:19.274Z</time></trkpt><trkpt lat="44.4682584" lon="7.770276"><ele>388.5</ele><time>2026-05-01T09:28:20.274Z</time></trkpt><trkpt lat="44.4682604" lon="7.7698676"><ele>388.0</ele><time>2026-05-01T09:28:21.274Z</time></trkpt><trkpt lat="44.4682685" lon="7.7694627"><ele>388.0</ele><time>2026-05-01T09:28:22.274Z</time></trkpt><trkpt lat="44.4682832" lon="7.7690683"><ele>388.0</ele><time>2026-05-01T09:28:23.274Z</time></trkpt><trkpt lat="44.4682975" lon="7.7686755"><ele>388.0</ele><time>2026-05-01T09:28:24.274Z</time></trkpt><trkpt lat="44.4683188" lon="7.7682814"><ele>388.0</ele><time>2026-05-01T09:28:25.275Z</time></trkpt><trkpt lat="44.4683482" lon="7.7678821"><ele>388.5</ele><time>2026-05-01T09:28:26.274Z</time></trkpt><trkpt lat="44.4683803" lon="7.767482"><ele>389.0</ele><time>2026-05-01T09:28:27.274Z</time></trkpt><trkpt lat="44.4684128" lon="7.7670879"><ele>389.0</ele><time>2026-05-01T09:28:28.274Z</time></trkpt><trkpt lat="44.4684496" lon="7.7666916"><ele>389.0</ele><time>2026-05-01T09:28:29.274Z</time></trkpt><trkpt lat="44.4684891" lon="7.7662892"><ele>390.5</ele><time>2026-05-01T09:28:30.274Z</time></trkpt><trkpt lat="44.4685299" lon="7.7658943"><ele>392.0</ele><time>2026-05-01T09:28:31.274Z</time></trkpt><trkpt lat="44.468575" lon="7.7654964"><ele>393.0</ele><time>2026-05-01T09:28:32.275Z</time></trkpt><trkpt lat="44.4686257" lon="7.765095"><ele>394.0</ele><time>2026-05-01T09:28:33.274Z</time></trkpt><trkpt lat="44.4686758" lon="7.764693"><ele>393.0</ele><time>2026-05-01T09:28:34.274Z</time></trkpt><trkpt lat="44.468723" lon="7.7642854"><ele>392.0</ele><time>2026-05-01T09:28:35.274Z</time></trkpt><trkpt lat="44.4687755" lon="7.7638798"><ele>391.5</ele><time>2026-05-01T09:28:36.274Z</time></trkpt><trkpt lat="44.4688259" lon="7.7634718"><ele>391.0</ele><time>2026-05-01T09:28:37.274Z</time></trkpt><trkpt lat="44.4688745" lon="7.7630661"><ele>390.5</ele><time>2026-05-01T09:28:38.274Z</time></trkpt><trkpt lat="44.4689187" lon="7.7626596"><ele>390.0</ele><time>2026-05-01T09:28:39.274Z</time></trkpt><trkpt lat="44.4689684" lon="7.76225"><ele>390.5</ele><time>2026-05-01T09:28:40.274Z</time></trkpt><trkpt lat="44.4690113" lon="7.7618457"><ele>391.0</ele><time>2026-05-01T09:28:41.274Z</time></trkpt><trkpt lat="44.4690518" lon="7.7614455"><ele>391.0</ele><time>2026-05-01T09:28:42.274Z</time></trkpt><trkpt lat="44.4690896" lon="7.7610441"><ele>391.0</ele><time>2026-05-01T09:28:43.274Z</time></trkpt><trkpt lat="44.4691278" lon="7.7606457"><ele>390.5</ele><time>2026-05-01T09:28:44.274Z</time></trkpt><trkpt lat="44.4691605" lon="7.7602491"><ele>390.0</ele><time>2026-05-01T09:28:45.274Z</time></trkpt><trkpt lat="44.4691993" lon="7.7598455"><ele>390.0</ele><time>2026-05-01T09:28:46.274Z</time></trkpt><trkpt lat="44.4692377" lon="7.7594462"><ele>390.0</ele><time>2026-05-01T09:28:47.274Z</time></trkpt><trkpt lat="44.4692761" lon="7.7590463"><ele>390.0</ele><time>2026-05-01T09:28:48.274Z</time></trkpt><trkpt lat="44.4693122" lon="7.7586431"><ele>390.0</ele><time>2026-05-01T09:28:49.274Z</time></trkpt><trkpt lat="44.4693418" lon="7.758237"><ele>390.5</ele><time>2026-05-01T09:28:50.274Z</time></trkpt><trkpt lat="44.4693695" lon="7.7578331"><ele>391.0</ele><time>2026-05-01T09:28:51.274Z</time></trkpt><trkpt lat="44.4693964" lon="7.7574328"><ele>391.0</ele><time>2026-05-01T09:28:52.274Z</time></trkpt><trkpt lat="44.4694245" lon="7.7570327"><ele>391.0</ele><time>2026-05-01T09:28:53.274Z</time></trkpt><trkpt lat="44.4694514" lon="7.7566301"><ele>391.0</ele><time>2026-05-01T09:28:54.274Z</time></trkpt><trkpt lat="44.469478" lon="7.7562343"><ele>391.0</ele><time>2026-05-01T09:28:55.274Z</time></trkpt><trkpt lat="44.4695011" lon="7.7558406"><ele>391.5</ele><time>2026-05-01T09:28:56.275Z</time></trkpt><trkpt lat="44.4695266" lon="7.7554472"><ele>392.0</ele><time>2026-05-01T09:28:57.274Z</time></trkpt><trkpt lat="44.4695438" lon="7.7550465"><ele>392.5</ele><time>2026-05-01T09:28:58.274Z</time></trkpt><trkpt lat="44.4695598" lon="7.7546491"><ele>393.0</ele><time>2026-05-01T09:28:59.274Z</time></trkpt><trkpt lat="44.4695785" lon="7.754244"><ele>393.0</ele><time>2026-05-01T09:29:00.274Z</time></trkpt><trkpt lat="44.4696026" lon="7.753847"><ele>393.0</ele><time>2026-05-01T09:29:01.274Z</time></trkpt><trkpt lat="44.4696238" lon="7.7534432"><ele>392.0</ele><time>2026-05-01T09:29:02.274Z</time></trkpt><trkpt lat="44.4696441" lon="7.7530324"><ele>391.0</ele><time>2026-05-01T09:29:03.274Z</time></trkpt><trkpt lat="44.4696641" lon="7.7526251"><ele>391.0</ele><time>2026-05-01T09:29:04.274Z</time></trkpt><trkpt lat="44.4696799" lon="7.7522273"><ele>391.0</ele><time>2026-05-01T09:29:05.274Z</time></trkpt><trkpt lat="44.469695" lon="7.7518371"><ele>391.5</ele><time>2026-05-01T09:29:06.274Z</time></trkpt><trkpt lat="44.4697099" lon="7.7514508"><ele>392.0</ele><time>2026-05-01T09:29:07.274Z</time></trkpt><trkpt lat="44.4697305" lon="7.7510676"><ele>392.0</ele><time>2026-05-01T09:29:08.275Z</time></trkpt><trkpt lat="44.4697534" lon="7.7506875"><ele>392.0</ele><time>2026-05-01T09:29:09.274Z</time></trkpt><trkpt lat="44.4697753" lon="7.7503121"><ele>392.5</ele><time>2026-05-01T09:29:10.274Z</time></trkpt><trkpt lat="44.4697927" lon="7.7499332"><ele>393.0</ele><time>2026-05-01T09:29:11.274Z</time></trkpt><trkpt lat="44.4698095" lon="7.7495548"><ele>392.5</ele><time>2026-05-01T09:29:12.274Z</time></trkpt><trkpt lat="44.4698262" lon="7.7491779"><ele>392.0</ele><time>2026-05-01T09:29:13.274Z</time></trkpt><trkpt lat="44.4698359" lon="7.7487984"><ele>392.0</ele><time>2026-05-01T09:29:14.274Z</time></trkpt><trkpt lat="44.46985" lon="7.7484171"><ele>392.0</ele><time>2026-05-01T09:29:15.274Z</time></trkpt><trkpt lat="44.4698649" lon="7.7480355"><ele>391.5</ele><time>2026-05-01T09:29:16.274Z</time></trkpt><trkpt lat="44.469882" lon="7.7476523"><ele>391.0</ele><time>2026-05-01T09:29:17.274Z</time></trkpt><trkpt lat="44.469898" lon="7.7472726"><ele>391.0</ele><time>2026-05-01T09:29:18.274Z</time></trkpt><trkpt lat="44.4699188" lon="7.7468894"><ele>391.0</ele><time>2026-05-01T09:29:19.274Z</time></trkpt><trkpt lat="44.4699333" lon="7.7465002"><ele>391.5</ele><time>2026-05-01T09:29:20.275Z</time></trkpt><trkpt lat="44.4699524" lon="7.74611"><ele>392.0</ele><time>2026-05-01T09:29:21.274Z</time></trkpt><trkpt lat="44.4699752" lon="7.7457182"><ele>393.0</ele><time>2026-05-01T09:29:22.274Z</time></trkpt><trkpt lat="44.4699928" lon="7.7453203"><ele>394.0</ele><time>2026-05-01T09:29:23.274Z</time></trkpt><trkpt lat="44.4700068" lon="7.7449205"><ele>394.0</ele><time>2026-05-01T09:29:24.274Z</time></trkpt><trkpt lat="44.4700231" lon="7.7445175"><ele>394.0</ele><time>2026-05-01T09:29:25.274Z</time></trkpt><trkpt lat="44.4700411" lon="7.7441194"><ele>393.5</ele><time>2026-05-01T09:29:26.274Z</time></trkpt><trkpt lat="44.470058" lon="7.7437254"><ele>393.0</ele><time>2026-05-01T09:29:27.274Z</time></trkpt><trkpt lat="44.4700711" lon="7.7433277"><ele>393.0</ele><time>2026-05-01T09:29:28.275Z</time></trkpt><trkpt lat="44.47009" lon="7.7429253"><ele>393.0</ele><time>2026-05-01T09:29:29.274Z</time></trkpt><trkpt lat="44.4701106" lon="7.7425308"><ele>393.5</ele><time>2026-05-01T09:29:30.274Z</time></trkpt><trkpt lat="44.4701293" lon="7.7421463"><ele>394.0</ele><time>2026-05-01T09:29:31.274Z</time></trkpt><trkpt lat="44.4701434" lon="7.7417591"><ele>394.0</ele><time>2026-05-01T09:29:32.274Z</time></trkpt><trkpt lat="44.4701611" lon="7.7413771"><ele>394.0</ele><time>2026-05-01T09:29:33.275Z</time></trkpt><trkpt lat="44.4701751" lon="7.740983"><ele>394.0</ele><time>2026-05-01T09:29:34.274Z</time></trkpt><trkpt lat="44.4701941" lon="7.7405924"><ele>394.0</ele><time>2026-05-01T09:29:35.275Z</time></trkpt><trkpt lat="44.4702112" lon="7.7402091"><ele>394.5</ele><time>2026-05-01T09:29:36.274Z</time></trkpt><trkpt lat="44.4702293" lon="7.7398229"><ele>395.0</ele><time>2026-05-01T09:29:37.274Z</time></trkpt><trkpt lat="44.4702463" lon="7.7394321"><ele>395.0</ele><time>2026-05-01T09:29:38.275Z</time></trkpt><trkpt lat="44.4702629" lon="7.7390388"><ele>395.0</ele><time>2026-05-01T09:29:39.274Z</time></trkpt><trkpt lat="44.4702732" lon="7.7386508"><ele>395.0</ele><time>2026-05-01T09:29:40.274Z</time></trkpt><trkpt lat="44.4702861" lon="7.7382596"><ele>395.0</ele><time>2026-05-01T09:29:41.274Z</time></trkpt><trkpt lat="44.4702845" lon="7.7378635"><ele>395.0</ele><time>2026-05-01T09:29:42.274Z</time></trkpt><trkpt lat="44.4702877" lon="7.7374624"><ele>395.0</ele><time>2026-05-01T09:29:43.274Z</time></trkpt><trkpt lat="44.4702846" lon="7.7370649"><ele>395.5</ele><time>2026-05-01T09:29:44.274Z</time></trkpt><trkpt lat="44.4702764" lon="7.7366651"><ele>396.0</ele><time>2026-05-01T09:29:45.274Z</time></trkpt><trkpt lat="44.4702672" lon="7.7362623"><ele>396.5</ele><time>2026-05-01T09:29:46.274Z</time></trkpt><trkpt lat="44.4702481" lon="7.7358633"><ele>397.0</ele><time>2026-05-01T09:29:47.274Z</time></trkpt><trkpt lat="44.4702247" lon="7.7354692"><ele>397.0</ele><time>2026-05-01T09:29:48.274Z</time></trkpt><trkpt lat="44.4701986" lon="7.7350788"><ele>397.0</ele><time>2026-05-01T09:29:49.274Z</time></trkpt><trkpt lat="44.4701741" lon="7.7346864"><ele>396.5</ele><time>2026-05-01T09:29:50.274Z</time></trkpt><trkpt lat="44.4701449" lon="7.7342932"><ele>396.0</ele><time>2026-05-01T09:29:51.274Z</time></trkpt><trkpt lat="44.4701157" lon="7.7339"><ele>396.0</ele><time>2026-05-01T09:29:52.274Z</time></trkpt><trkpt lat="44.4700858" lon="7.7335095"><ele>396.0</ele><time>2026-05-01T09:29:53.274Z</time></trkpt><trkpt lat="44.4700494" lon="7.7331237"><ele>396.0</ele><time>2026-05-01T09:29:54.274Z</time></trkpt><trkpt lat="44.4700156" lon="7.7327282"><ele>396.0</ele><time>2026-05-01T09:29:55.274Z</time></trkpt><trkpt lat="44.4699793" lon="7.7323284"><ele>396.0</ele><time>2026-05-01T09:29:56.274Z</time></trkpt><trkpt lat="44.4699356" lon="7.7319294"><ele>396.0</ele><time>2026-05-01T09:29:57.274Z</time></trkpt><trkpt lat="44.469895" lon="7.7315223"><ele>396.0</ele><time>2026-05-01T09:29:58.274Z</time></trkpt><trkpt lat="44.4698563" lon="7.7311155"><ele>396.0</ele><time>2026-05-01T09:29:59.274Z</time></trkpt><trkpt lat="44.4698179" lon="7.7307085"><ele>396.5</ele><time>2026-05-01T09:30:00.274Z</time></trkpt><trkpt lat="44.4697781" lon="7.7303074"><ele>397.0</ele><time>2026-05-01T09:30:01.274Z</time></trkpt><trkpt lat="44.4697438" lon="7.7298976"><ele>397.0</ele><time>2026-05-01T09:30:02.274Z</time></trkpt><trkpt lat="44.4697062" lon="7.7294948"><ele>397.0</ele><time>2026-05-01T09:30:03.274Z</time></trkpt><trkpt lat="44.4696651" lon="7.7290929"><ele>397.5</ele><time>2026-05-01T09:30:04.275Z</time></trkpt><trkpt lat="44.4696306" lon="7.7286938"><ele>398.0</ele><time>2026-05-01T09:30:05.275Z</time></trkpt><trkpt lat="44.4695908" lon="7.7282882"><ele>398.0</ele><time>2026-05-01T09:30:06.274Z</time></trkpt><trkpt lat="44.469557" lon="7.7278875"><ele>398.0</ele><time>2026-05-01T09:30:07.274Z</time></trkpt><trkpt lat="44.4695222" lon="7.727486"><ele>398.0</ele><time>2026-05-01T09:30:08.274Z</time></trkpt><trkpt lat="44.469483" lon="7.7270769"><ele>398.0</ele><time>2026-05-01T09:30:09.274Z</time></trkpt><trkpt lat="44.4694459" lon="7.7266611"><ele>398.0</ele><time>2026-05-01T09:30:10.275Z</time></trkpt><trkpt lat="44.4694063" lon="7.7262454"><ele>398.0</ele><time>2026-05-01T09:30:11.274Z</time></trkpt><trkpt lat="44.46937" lon="7.7258296"><ele>398.0</ele><time>2026-05-01T09:30:12.274Z</time></trkpt><trkpt lat="44.4693338" lon="7.7254025"><ele>398.0</ele><time>2026-05-01T09:30:13.274Z</time></trkpt><trkpt lat="44.4692958" lon="7.7249677"><ele>398.0</ele><time>2026-05-01T09:30:14.274Z</time></trkpt><trkpt lat="44.4692517" lon="7.7245258"><ele>398.0</ele><time>2026-05-01T09:30:15.274Z</time></trkpt><trkpt lat="44.4692152" lon="7.7240835"><ele>398.5</ele><time>2026-05-01T09:30:16.274Z</time></trkpt><trkpt lat="44.4691795" lon="7.7236476"><ele>399.0</ele><time>2026-05-01T09:30:17.274Z</time></trkpt><trkpt lat="44.4691452" lon="7.7232082"><ele>399.0</ele><time>2026-05-01T09:30:18.274Z</time></trkpt><trkpt lat="44.4691253" lon="7.7227799"><ele>399.0</ele><time>2026-05-01T09:30:19.274Z</time></trkpt><trkpt lat="44.469109" lon="7.7223457"><ele>399.0</ele><time>2026-05-01T09:30:20.274Z</time></trkpt><trkpt lat="44.469103" lon="7.7219082"><ele>399.0</ele><time>2026-05-01T09:30:21.274Z</time></trkpt><trkpt lat="44.4691015" lon="7.7214773"><ele>400.0</ele><time>2026-05-01T09:30:22.274Z</time></trkpt><trkpt lat="44.4691064" lon="7.721051"><ele>401.0</ele><time>2026-05-01T09:30:23.274Z</time></trkpt><trkpt lat="44.4691178" lon="7.7206265"><ele>400.0</ele><time>2026-05-01T09:30:24.275Z</time></trkpt><trkpt lat="44.4691312" lon="7.7202106"><ele>399.0</ele><time>2026-05-01T09:30:25.274Z</time></trkpt><trkpt lat="44.4691587" lon="7.7197976"><ele>399.5</ele><time>2026-05-01T09:30:26.274Z</time></trkpt><trkpt lat="44.4691906" lon="7.7193906"><ele>400.0</ele><time>2026-05-01T09:30:27.274Z</time></trkpt><trkpt lat="44.4692272" lon="7.7189828"><ele>400.0</ele><time>2026-05-01T09:30:28.274Z</time></trkpt><trkpt lat="44.4692674" lon="7.7185766"><ele>400.0</ele><time>2026-05-01T09:30:29.274Z</time></trkpt><trkpt lat="44.4693111" lon="7.7181732"><ele>400.0</ele><time>2026-05-01T09:30:30.274Z</time></trkpt><trkpt lat="44.4693595" lon="7.7177729"><ele>400.0</ele><time>2026-05-01T09:30:31.274Z</time></trkpt><trkpt lat="44.4694092" lon="7.7173717"><ele>400.0</ele><time>2026-05-01T09:30:32.274Z</time></trkpt><trkpt lat="44.4694656" lon="7.7169687"><ele>400.0</ele><time>2026-05-01T09:30:33.274Z</time></trkpt><trkpt lat="44.4695208" lon="7.7165741"><ele>400.5</ele><time>2026-05-01T09:30:34.274Z</time></trkpt><trkpt lat="44.4695808" lon="7.7161838"><ele>401.0</ele><time>2026-05-01T09:30:35.274Z</time></trkpt><trkpt lat="44.4696471" lon="7.7157984"><ele>401.0</ele><time>2026-05-01T09:30:36.274Z</time></trkpt><trkpt lat="44.4697229" lon="7.7154094"><ele>401.0</ele><time>2026-05-01T09:30:37.274Z</time></trkpt><trkpt lat="44.4697987" lon="7.7150287"><ele>401.5</ele><time>2026-05-01T09:30:38.275Z</time></trkpt><trkpt lat="44.4698773" lon="7.7146507"><ele>402.0</ele><time>2026-05-01T09:30:39.274Z</time></trkpt><trkpt lat="44.4699593" lon="7.7142685"><ele>402.5</ele><time>2026-05-01T09:30:40.274Z</time></trkpt><trkpt lat="44.4700431" lon="7.7138913"><ele>403.0</ele><time>2026-05-01T09:30:41.275Z</time></trkpt><trkpt lat="44.4701294" lon="7.7135099"><ele>403.0</ele><time>2026-05-01T09:30:42.274Z</time></trkpt><trkpt lat="44.4702232" lon="7.7131264"><ele>403.0</ele><time>2026-05-01T09:30:43.274Z</time></trkpt><trkpt lat="44.4703174" lon="7.7127402"><ele>402.5</ele><time>2026-05-01T09:30:44.274Z</time></trkpt><trkpt lat="44.4704117" lon="7.7123565"><ele>402.0</ele><time>2026-05-01T09:30:45.275Z</time></trkpt><trkpt lat="44.4705122" lon="7.7119744"><ele>402.0</ele><time>2026-05-01T09:30:46.274Z</time></trkpt><trkpt lat="44.4706174" lon="7.7115955"><ele>402.0</ele><time>2026-05-01T09:30:47.274Z</time></trkpt><trkpt lat="44.4707239" lon="7.7112126"><ele>402.5</ele><time>2026-05-01T09:30:48.274Z</time></trkpt><trkpt lat="44.4708284" lon="7.7108354"><ele>403.0</ele><time>2026-05-01T09:30:49.274Z</time></trkpt><trkpt lat="44.4709376" lon="7.7104556"><ele>403.0</ele><time>2026-05-01T09:30:50.274Z</time></trkpt><trkpt lat="44.4710461" lon="7.710073"><ele>403.0</ele><time>2026-05-01T09:30:51.274Z</time></trkpt><trkpt lat="44.4711566" lon="7.709696"><ele>403.0</ele><time>2026-05-01T09:30:52.274Z</time></trkpt><trkpt lat="44.4712694" lon="7.7093166"><ele>403.0</ele><time>2026-05-01T09:30:53.274Z</time></trkpt><trkpt lat="44.471377" lon="7.7089397"><ele>403.5</ele><time>2026-05-01T09:30:54.274Z</time></trkpt><trkpt lat="44.4714943" lon="7.7085606"><ele>404.0</ele><time>2026-05-01T09:30:55.274Z</time></trkpt><trkpt lat="44.4716063" lon="7.7081851"><ele>404.0</ele><time>2026-05-01T09:30:56.274Z</time></trkpt><trkpt lat="44.4717244" lon="7.7078051"><ele>404.0</ele><time>2026-05-01T09:30:57.274Z</time></trkpt><trkpt lat="44.4718498" lon="7.7074276"><ele>404.0</ele><time>2026-05-01T09:30:58.275Z</time></trkpt><trkpt lat="44.4719735" lon="7.7070522"><ele>404.0</ele><time>2026-05-01T09:30:59.275Z</time></trkpt><trkpt lat="44.4720942" lon="7.7066711"><ele>403.0</ele><time>2026-05-01T09:31:00.274Z</time></trkpt><trkpt lat="44.4722129" lon="7.7062895"><ele>402.0</ele><time>2026-05-01T09:31:01.274Z</time></trkpt><trkpt lat="44.4723285" lon="7.7059064"><ele>402.0</ele><time>2026-05-01T09:31:02.275Z</time></trkpt><trkpt lat="44.472445" lon="7.705526"><ele>402.0</ele><time>2026-05-01T09:31:03.274Z</time></trkpt><trkpt lat="44.4725686" lon="7.7051445"><ele>402.5</ele><time>2026-05-01T09:31:04.274Z</time></trkpt><trkpt lat="44.4726878" lon="7.7047685"><ele>403.0</ele><time>2026-05-01T09:31:05.274Z</time></trkpt><trkpt lat="44.4728047" lon="7.7043937"><ele>403.5</ele><time>2026-05-01T09:31:06.274Z</time></trkpt><trkpt lat="44.4729228" lon="7.7040131"><ele>404.0</ele><time>2026-05-01T09:31:07.274Z</time></trkpt><trkpt lat="44.4730496" lon="7.7036345"><ele>403.5</ele><time>2026-05-01T09:31:08.274Z</time></trkpt><trkpt lat="44.4731678" lon="7.7032532"><ele>403.0</ele><time>2026-05-01T09:31:09.274Z</time></trkpt><trkpt lat="44.4732918" lon="7.7028729"><ele>402.5</ele><time>2026-05-01T09:31:10.274Z</time></trkpt><trkpt lat="44.4734188" lon="7.7025004"><ele>402.0</ele><time>2026-05-01T09:31:11.275Z</time></trkpt><trkpt lat="44.4735413" lon="7.7021258"><ele>403.0</ele><time>2026-05-01T09:31:12.274Z</time></trkpt><trkpt lat="44.4736579" lon="7.7017582"><ele>404.0</ele><time>2026-05-01T09:31:13.274Z</time></trkpt><trkpt lat="44.4737646" lon="7.7013904"><ele>404.5</ele><time>2026-05-01T09:31:14.274Z</time></trkpt><trkpt lat="44.4738695" lon="7.7010274"><ele>405.0</ele><time>2026-05-01T09:31:15.274Z</time></trkpt><trkpt lat="44.4739799" lon="7.7006677"><ele>405.0</ele><time>2026-05-01T09:31:16.274Z</time></trkpt><trkpt lat="44.4740898" lon="7.7003126"><ele>405.0</ele><time>2026-05-01T09:31:17.274Z</time></trkpt><trkpt lat="44.4741954" lon="7.6999608"><ele>404.5</ele><time>2026-05-01T09:31:18.274Z</time></trkpt><trkpt lat="44.4743047" lon="7.6996079"><ele>404.0</ele><time>2026-05-01T09:31:19.274Z</time></trkpt><trkpt lat="44.4744159" lon="7.6992577"><ele>404.0</ele><time>2026-05-01T09:31:20.275Z</time></trkpt><trkpt lat="44.4745261" lon="7.6989034"><ele>404.0</ele><time>2026-05-01T09:31:21.274Z</time></trkpt><trkpt lat="44.4746418" lon="7.698547"><ele>404.5</ele><time>2026-05-01T09:31:22.274Z</time></trkpt><trkpt lat="44.474757" lon="7.6981927"><ele>405.0</ele><time>2026-05-01T09:31:23.275Z</time></trkpt><trkpt lat="44.4748679" lon="7.6978375"><ele>405.0</ele><time>2026-05-01T09:31:24.274Z</time></trkpt><trkpt lat="44.4749859" lon="7.6974857"><ele>405.0</ele><time>2026-05-01T09:31:25.275Z</time></trkpt><trkpt lat="44.4751" lon="7.6971307"><ele>404.5</ele><time>2026-05-01T09:31:26.274Z</time></trkpt><trkpt lat="44.4752129" lon="7.6967692"><ele>404.0</ele><time>2026-05-01T09:31:27.274Z</time></trkpt><trkpt lat="44.4753319" lon="7.6963944"><ele>404.0</ele><time>2026-05-01T09:31:28.274Z</time></trkpt><trkpt lat="44.4754434" lon="7.6960178"><ele>404.0</ele><time>2026-05-01T09:31:29.274Z</time></trkpt><trkpt lat="44.475558" lon="7.6956392"><ele>404.0</ele><time>2026-05-01T09:31:30.275Z</time></trkpt><trkpt lat="44.4756716" lon="7.6952665"><ele>404.0</ele><time>2026-05-01T09:31:31.274Z</time></trkpt><trkpt lat="44.4757823" lon="7.6948942"><ele>404.0</ele><time>2026-05-01T09:31:32.274Z</time></trkpt><trkpt lat="44.4758953" lon="7.6945192"><ele>404.0</ele><time>2026-05-01T09:31:33.274Z</time></trkpt><trkpt lat="44.4760079" lon="7.694138"><ele>404.0</ele><time>2026-05-01T09:31:34.274Z</time></trkpt><trkpt lat="44.4761226" lon="7.6937521"><ele>404.0</ele><time>2026-05-01T09:31:35.274Z</time></trkpt><trkpt lat="44.4762311" lon="7.6933695"><ele>404.0</ele><time>2026-05-01T09:31:36.274Z</time></trkpt><trkpt lat="44.4763373" lon="7.6929845"><ele>404.0</ele><time>2026-05-01T09:31:37.274Z</time></trkpt><trkpt lat="44.4764383" lon="7.692595"><ele>404.0</ele><time>2026-05-01T09:31:38.274Z</time></trkpt><trkpt lat="44.4765363" lon="7.6922049"><ele>404.0</ele><time>2026-05-01T09:31:39.274Z</time></trkpt><trkpt lat="44.4766282" lon="7.6918159"><ele>404.0</ele><time>2026-05-01T09:31:40.274Z</time></trkpt><trkpt lat="44.4767108" lon="7.691424"><ele>404.0</ele><time>2026-05-01T09:31:41.274Z</time></trkpt><trkpt lat="44.4767904" lon="7.691022"><ele>404.0</ele><time>2026-05-01T09:31:42.275Z</time></trkpt><trkpt lat="44.4768668" lon="7.6906172"><ele>404.0</ele><time>2026-05-01T09:31:43.274Z</time></trkpt><trkpt lat="44.4769384" lon="7.6902175"><ele>404.5</ele><time>2026-05-01T09:31:44.274Z</time></trkpt><trkpt lat="44.4769957" lon="7.6898107"><ele>405.0</ele><time>2026-05-01T09:31:45.274Z</time></trkpt><trkpt lat="44.4770475" lon="7.6894051"><ele>405.0</ele><time>2026-05-01T09:31:46.274Z</time></trkpt><trkpt lat="44.4770877" lon="7.689"><ele>405.0</ele><time>2026-05-01T09:31:47.274Z</time></trkpt><trkpt lat="44.4771205" lon="7.6885992"><ele>405.0</ele><time>2026-05-01T09:31:48.275Z</time></trkpt><trkpt lat="44.4771502" lon="7.6881961"><ele>405.0</ele><time>2026-05-01T09:31:49.274Z</time></trkpt><trkpt lat="44.4771701" lon="7.6877942"><ele>405.0</ele><time>2026-05-01T09:31:50.274Z</time></trkpt><trkpt lat="44.477185" lon="7.6873957"><ele>405.0</ele><time>2026-05-01T09:31:51.274Z</time></trkpt><trkpt lat="44.47719" lon="7.6869963"><ele>405.0</ele><time>2026-05-01T09:31:52.274Z</time></trkpt><trkpt lat="44.4771914" lon="7.6865972"><ele>405.0</ele><time>2026-05-01T09:31:53.274Z</time></trkpt><trkpt lat="44.4771788" lon="7.6862046"><ele>405.0</ele><time>2026-05-01T09:31:54.274Z</time></trkpt><trkpt lat="44.4771621" lon="7.685816"><ele>405.0</ele><time>2026-05-01T09:31:55.274Z</time></trkpt><trkpt lat="44.4771369" lon="7.6854277"><ele>405.0</ele><time>2026-05-01T09:31:56.274Z</time></trkpt><trkpt lat="44.477104" lon="7.6850424"><ele>405.0</ele><time>2026-05-01T09:31:57.274Z</time></trkpt><trkpt lat="44.4770664" lon="7.6846505"><ele>405.5</ele><time>2026-05-01T09:31:58.274Z</time></trkpt><trkpt lat="44.4770139" lon="7.6842585"><ele>406.0</ele><time>2026-05-01T09:31:59.274Z</time></trkpt><trkpt lat="44.4769558" lon="7.6838658"><ele>407.0</ele><time>2026-05-01T09:32:00.274Z</time></trkpt><trkpt lat="44.4768883" lon="7.6834809"><ele>408.0</ele><time>2026-05-01T09:32:01.274Z</time></trkpt><trkpt lat="44.4768306" lon="7.6830966"><ele>408.0</ele><time>2026-05-01T09:32:02.274Z</time></trkpt><trkpt lat="44.4767675" lon="7.6826945"><ele>408.0</ele><time>2026-05-01T09:32:03.274Z</time></trkpt><trkpt lat="44.4767027" lon="7.6823099"><ele>407.5</ele><time>2026-05-01T09:32:04.274Z</time></trkpt><trkpt lat="44.4766392" lon="7.6819265"><ele>407.0</ele><time>2026-05-01T09:32:05.274Z</time></trkpt><trkpt lat="44.476579" lon="7.6815462"><ele>407.0</ele><time>2026-05-01T09:32:06.274Z</time></trkpt><trkpt lat="44.4764168" lon="7.6811547"><ele>407.0</ele><time>2026-05-01T09:32:07.274Z</time></trkpt><trkpt lat="44.4762969" lon="7.6807853"><ele>407.0</ele><time>2026-05-01T09:32:08.274Z</time></trkpt><trkpt lat="44.47617" lon="7.6804306"><ele>407.0</ele><time>2026-05-01T09:32:09.274Z</time></trkpt><trkpt lat="44.4760378" lon="7.6800754"><ele>404.0</ele><time>2026-05-01T09:32:10.274Z</time></trkpt><trkpt lat="44.4758948" lon="7.6797269"><ele>401.0</ele><time>2026-05-01T09:32:11.274Z</time></trkpt><trkpt lat="44.4757508" lon="7.6793805"><ele>391.0</ele><time>2026-05-01T09:32:12.274Z</time></trkpt><trkpt lat="44.4756024" lon="7.6790398"><ele>381.0</ele><time>2026-05-01T09:32:13.274Z</time></trkpt><trkpt lat="44.4754483" lon="7.6787004"><ele>382.5</ele><time>2026-05-01T09:32:14.274Z</time></trkpt><trkpt lat="44.4752871" lon="7.6783666"><ele>384.0</ele><time>2026-05-01T09:32:15.274Z</time></trkpt><trkpt lat="44.4751158" lon="7.678036"><ele>376.0</ele><time>2026-05-01T09:32:16.274Z</time></trkpt><trkpt lat="44.474938" lon="7.6777081"><ele>368.0</ele><time>2026-05-01T09:32:17.274Z</time></trkpt><trkpt lat="44.4747661" lon="7.6773861"><ele>368.0</ele><time>2026-05-01T09:32:18.274Z</time></trkpt><trkpt lat="44.474589" lon="7.6770769"><ele>368.0</ele><time>2026-05-01T09:32:19.274Z</time></trkpt><trkpt lat="44.4744033" lon="7.6767667"><ele>368.0</ele><time>2026-05-01T09:32:20.274Z</time></trkpt><trkpt lat="44.474212" lon="7.6764602"><ele>368.0</ele><time>2026-05-01T09:32:21.274Z</time></trkpt><trkpt lat="44.474022" lon="7.6761636"><ele>368.0</ele><time>2026-05-01T09:32:22.274Z</time></trkpt><trkpt lat="44.4738327" lon="7.6758592"><ele>368.0</ele><time>2026-05-01T09:32:23.274Z</time></trkpt><trkpt lat="44.4736351" lon="7.6755662"><ele>367.0</ele><time>2026-05-01T09:32:24.274Z</time></trkpt><trkpt lat="44.4734361" lon="7.6752677"><ele>366.0</ele><time>2026-05-01T09:32:25.274Z</time></trkpt><trkpt lat="44.473232" lon="7.6749706"><ele>366.0</ele><time>2026-05-01T09:32:26.274Z</time></trkpt><trkpt lat="44.4730205" lon="7.6746712"><ele>366.0</ele><time>2026-05-01T09:32:27.274Z</time></trkpt><trkpt lat="44.4728063" lon="7.6743769"><ele>366.5</ele><time>2026-05-01T09:32:28.274Z</time></trkpt><trkpt lat="44.4725869" lon="7.6740858"><ele>367.0</ele><time>2026-05-01T09:32:29.274Z</time></trkpt><trkpt lat="44.472371" lon="7.6737884"><ele>366.0</ele><time>2026-05-01T09:32:30.274Z</time></trkpt><trkpt lat="44.4721545" lon="7.6734917"><ele>365.0</ele><time>2026-05-01T09:32:31.274Z</time></trkpt><trkpt lat="44.4719486" lon="7.6731904"><ele>365.0</ele><time>2026-05-01T09:32:32.275Z</time></trkpt><trkpt lat="44.4717351" lon="7.6728931"><ele>365.0</ele><time>2026-05-01T09:32:33.274Z</time></trkpt><trkpt lat="44.4715191" lon="7.6725995"><ele>365.0</ele><time>2026-05-01T09:32:34.274Z</time></trkpt><trkpt lat="44.4713061" lon="7.6723052"><ele>365.0</ele><time>2026-05-01T09:32:35.274Z</time></trkpt><trkpt lat="44.4710907" lon="7.6720083"><ele>368.0</ele><time>2026-05-01T09:32:36.274Z</time></trkpt><trkpt lat="44.4708825" lon="7.6717086"><ele>371.0</ele><time>2026-05-01T09:32:37.274Z</time></trkpt><trkpt lat="44.47067" lon="7.6714073"><ele>371.5</ele><time>2026-05-01T09:32:38.274Z</time></trkpt><trkpt lat="44.4704482" lon="7.6711068"><ele>372.0</ele><time>2026-05-01T09:32:39.275Z</time></trkpt><trkpt lat="44.4702291" lon="7.6708051"><ele>372.0</ele><time>2026-05-01T09:32:40.275Z</time></trkpt><trkpt lat="44.4700148" lon="7.670499"><ele>372.0</ele><time>2026-05-01T09:32:41.274Z</time></trkpt><trkpt lat="44.4698018" lon="7.6702014"><ele>371.5</ele><time>2026-05-01T09:32:42.274Z</time></trkpt><trkpt lat="44.4695936" lon="7.6698985"><ele>371.0</ele><time>2026-05-01T09:32:43.274Z</time></trkpt><trkpt lat="44.4693799" lon="7.6695983"><ele>371.0</ele><time>2026-05-01T09:32:44.274Z</time></trkpt><trkpt lat="44.4691668" lon="7.6692986"><ele>371.0</ele><time>2026-05-01T09:32:45.274Z</time></trkpt><trkpt lat="44.4689592" lon="7.6689975"><ele>372.5</ele><time>2026-05-01T09:32:46.274Z</time></trkpt><trkpt lat="44.4687606" lon="7.6687015"><ele>374.0</ele><time>2026-05-01T09:32:47.274Z</time></trkpt><trkpt lat="44.4685565" lon="7.6684106"><ele>374.0</ele><time>2026-05-01T09:32:48.274Z</time></trkpt><trkpt lat="44.4683516" lon="7.6681247"><ele>374.0</ele><time>2026-05-01T09:32:49.274Z</time></trkpt><trkpt lat="44.4681421" lon="7.6678449"><ele>373.5</ele><time>2026-05-01T09:32:50.274Z</time></trkpt><trkpt lat="44.4679359" lon="7.6675658"><ele>373.0</ele><time>2026-05-01T09:32:51.274Z</time></trkpt><trkpt lat="44.4677233" lon="7.6672968"><ele>373.0</ele><time>2026-05-01T09:32:52.274Z</time></trkpt><trkpt lat="44.4675153" lon="7.6670335"><ele>373.0</ele><time>2026-05-01T09:32:53.274Z</time></trkpt><trkpt lat="44.4673075" lon="7.6667764"><ele>374.5</ele><time>2026-05-01T09:32:54.275Z</time></trkpt><trkpt lat="44.4670946" lon="7.6665205"><ele>376.0</ele><time>2026-05-01T09:32:55.274Z</time></trkpt><trkpt lat="44.4668765" lon="7.6662688"><ele>375.0</ele><time>2026-05-01T09:32:56.274Z</time></trkpt><trkpt lat="44.4666523" lon="7.6660155"><ele>374.0</ele><time>2026-05-01T09:32:57.274Z</time></trkpt><trkpt lat="44.4664267" lon="7.6657683"><ele>374.0</ele><time>2026-05-01T09:32:58.275Z</time></trkpt><trkpt lat="44.4661985" lon="7.6655227"><ele>374.0</ele><time>2026-05-01T09:32:59.274Z</time></trkpt><trkpt lat="44.4659666" lon="7.6652768"><ele>374.0</ele><time>2026-05-01T09:33:00.275Z</time></trkpt><trkpt lat="44.4657363" lon="7.6650288"><ele>374.0</ele><time>2026-05-01T09:33:01.274Z</time></trkpt><trkpt lat="44.4655003" lon="7.6647802"><ele>375.0</ele><time>2026-05-01T09:33:02.274Z</time></trkpt><trkpt lat="44.4652606" lon="7.6645315"><ele>376.0</ele><time>2026-05-01T09:33:03.275Z</time></trkpt><trkpt lat="44.4650171" lon="7.6642836"><ele>376.0</ele><time>2026-05-01T09:33:04.274Z</time></trkpt><trkpt lat="44.464777" lon="7.6640346"><ele>376.0</ele><time>2026-05-01T09:33:05.274Z</time></trkpt><trkpt lat="44.4645357" lon="7.663796"><ele>375.5</ele><time>2026-05-01T09:33:06.274Z</time></trkpt><trkpt lat="44.4642899" lon="7.6635576"><ele>375.0</ele><time>2026-05-01T09:33:07.274Z</time></trkpt><trkpt lat="44.4640507" lon="7.663314"><ele>375.0</ele><time>2026-05-01T09:33:08.275Z</time></trkpt><trkpt lat="44.4638172" lon="7.6630658"><ele>375.0</ele><time>2026-05-01T09:33:09.274Z</time></trkpt><trkpt lat="44.4635883" lon="7.6628191"><ele>376.0</ele><time>2026-05-01T09:33:10.274Z</time></trkpt><trkpt lat="44.4633486" lon="7.6625738"><ele>377.0</ele><time>2026-05-01T09:33:11.274Z</time></trkpt><trkpt lat="44.46311" lon="7.6623316"><ele>380.0</ele><time>2026-05-01T09:33:12.274Z</time></trkpt><trkpt lat="44.4628687" lon="7.6620912"><ele>383.0</ele><time>2026-05-01T09:33:13.274Z</time></trkpt><trkpt lat="44.4626271" lon="7.6618384"><ele>383.0</ele><time>2026-05-01T09:33:14.274Z</time></trkpt><trkpt lat="44.4623926" lon="7.6615853"><ele>383.0</ele><time>2026-05-01T09:33:15.275Z</time></trkpt><trkpt lat="44.4621592" lon="7.6613209"><ele>384.0</ele><time>2026-05-01T09:33:16.274Z</time></trkpt><trkpt lat="44.4619259" lon="7.6610503"><ele>385.0</ele><time>2026-05-01T09:33:17.274Z</time></trkpt><trkpt lat="44.4616959" lon="7.6607849"><ele>385.0</ele><time>2026-05-01T09:33:18.274Z</time></trkpt><trkpt lat="44.4614647" lon="7.6605074"><ele>385.0</ele><time>2026-05-01T09:33:19.274Z</time></trkpt><trkpt lat="44.4612334" lon="7.6602224"><ele>383.0</ele><time>2026-05-01T09:33:20.274Z</time></trkpt><trkpt lat="44.4610035" lon="7.6599334"><ele>381.0</ele><time>2026-05-01T09:33:21.274Z</time></trkpt><trkpt lat="44.4607791" lon="7.6596463"><ele>380.0</ele><time>2026-05-01T09:33:22.274Z</time></trkpt><trkpt lat="44.4605575" lon="7.6593516"><ele>379.0</ele><time>2026-05-01T09:33:23.274Z</time></trkpt><trkpt lat="44.4603353" lon="7.6590533"><ele>382.5</ele><time>2026-05-01T09:33:24.274Z</time></trkpt><trkpt lat="44.4601193" lon="7.6587594"><ele>386.0</ele><time>2026-05-01T09:33:25.274Z</time></trkpt><trkpt lat="44.4599151" lon="7.6584587"><ele>386.0</ele><time>2026-05-01T09:33:26.274Z</time></trkpt><trkpt lat="44.4597072" lon="7.6581571"><ele>386.0</ele><time>2026-05-01T09:33:27.274Z</time></trkpt><trkpt lat="44.4595042" lon="7.6578552"><ele>387.0</ele><time>2026-05-01T09:33:28.274Z</time></trkpt><trkpt lat="44.4593009" lon="7.6575492"><ele>388.0</ele><time>2026-05-01T09:33:29.274Z</time></trkpt><trkpt lat="44.4590964" lon="7.6572514"><ele>387.5</ele><time>2026-05-01T09:33:30.274Z</time></trkpt><trkpt lat="44.4588976" lon="7.6569454"><ele>387.0</ele><time>2026-05-01T09:33:31.274Z</time></trkpt><trkpt lat="44.4586965" lon="7.6566417"><ele>388.0</ele><time>2026-05-01T09:33:32.274Z</time></trkpt><trkpt lat="44.4584893" lon="7.6563413"><ele>389.0</ele><time>2026-05-01T09:33:33.275Z</time></trkpt><trkpt lat="44.4582819" lon="7.6560375"><ele>389.0</ele><time>2026-05-01T09:33:34.274Z</time></trkpt><trkpt lat="44.4580707" lon="7.6557367"><ele>389.0</ele><time>2026-05-01T09:33:35.274Z</time></trkpt><trkpt lat="44.4578647" lon="7.6554251"><ele>386.5</ele><time>2026-05-01T09:33:36.274Z</time></trkpt><trkpt lat="44.4576621" lon="7.6551217"><ele>384.0</ele><time>2026-05-01T09:33:37.275Z</time></trkpt><trkpt lat="44.4574602" lon="7.6548195"><ele>384.0</ele><time>2026-05-01T09:33:38.274Z</time></trkpt><trkpt lat="44.457257" lon="7.6545066"><ele>384.0</ele><time>2026-05-01T09:33:39.274Z</time></trkpt><trkpt lat="44.4570411" lon="7.6542003"><ele>385.0</ele><time>2026-05-01T09:33:40.274Z</time></trkpt><trkpt lat="44.4568295" lon="7.6538972"><ele>386.0</ele><time>2026-05-01T09:33:41.274Z</time></trkpt><trkpt lat="44.456615" lon="7.6535981"><ele>386.0</ele><time>2026-05-01T09:33:42.274Z</time></trkpt><trkpt lat="44.4564" lon="7.6532967"><ele>386.0</ele><time>2026-05-01T09:33:43.274Z</time></trkpt><trkpt lat="44.4561955" lon="7.6529845"><ele>387.0</ele><time>2026-05-01T09:33:44.274Z</time></trkpt><trkpt lat="44.4559882" lon="7.6526703"><ele>388.0</ele><time>2026-05-01T09:33:45.274Z</time></trkpt><trkpt lat="44.4557843" lon="7.6523499"><ele>388.0</ele><time>2026-05-01T09:33:46.274Z</time></trkpt><trkpt lat="44.4555816" lon="7.6520306"><ele>388.0</ele><time>2026-05-01T09:33:47.274Z</time></trkpt><trkpt lat="44.4553857" lon="7.6517196"><ele>388.0</ele><time>2026-05-01T09:33:48.274Z</time></trkpt><trkpt lat="44.4551894" lon="7.6514099"><ele>388.0</ele><time>2026-05-01T09:33:49.274Z</time></trkpt><trkpt lat="44.4549942" lon="7.6510985"><ele>387.0</ele><time>2026-05-01T09:33:50.274Z</time></trkpt><trkpt lat="44.4548112" lon="7.650778"><ele>386.0</ele><time>2026-05-01T09:33:51.274Z</time></trkpt><trkpt lat="44.4546259" lon="7.650456"><ele>387.5</ele><time>2026-05-01T09:33:52.274Z</time></trkpt><trkpt lat="44.454435" lon="7.6501396"><ele>389.0</ele><time>2026-05-01T09:33:53.274Z</time></trkpt><trkpt lat="44.4542433" lon="7.6498171"><ele>389.0</ele><time>2026-05-01T09:33:54.274Z</time></trkpt><trkpt lat="44.4540533" lon="7.6495041"><ele>389.0</ele><time>2026-05-01T09:33:55.274Z</time></trkpt><trkpt lat="44.4538672" lon="7.6491963"><ele>390.0</ele><time>2026-05-01T09:33:56.274Z</time></trkpt><trkpt lat="44.4536782" lon="7.6488901"><ele>391.0</ele><time>2026-05-01T09:33:57.274Z</time></trkpt><trkpt lat="44.4534927" lon="7.6485879"><ele>392.5</ele><time>2026-05-01T09:33:58.274Z</time></trkpt><trkpt lat="44.4533108" lon="7.6482838"><ele>394.0</ele><time>2026-05-01T09:33:59.274Z</time></trkpt><trkpt lat="44.453129" lon="7.6479762"><ele>393.5</ele><time>2026-05-01T09:34:00.274Z</time></trkpt><trkpt lat="44.4529493" lon="7.6476644"><ele>393.0</ele><time>2026-05-01T09:34:01.274Z</time></trkpt><trkpt lat="44.4527693" lon="7.6473485"><ele>393.0</ele><time>2026-05-01T09:34:02.274Z</time></trkpt><trkpt lat="44.4525882" lon="7.6470321"><ele>393.0</ele><time>2026-05-01T09:34:03.274Z</time></trkpt><trkpt lat="44.4524035" lon="7.6467122"><ele>393.0</ele><time>2026-05-01T09:34:04.275Z</time></trkpt><trkpt lat="44.4522185" lon="7.6463906"><ele>393.0</ele><time>2026-05-01T09:34:05.274Z</time></trkpt><trkpt lat="44.4520405" lon="7.6460675"><ele>393.0</ele><time>2026-05-01T09:34:06.274Z</time></trkpt><trkpt lat="44.4518564" lon="7.6457424"><ele>393.0</ele><time>2026-05-01T09:34:07.274Z</time></trkpt><trkpt lat="44.4516713" lon="7.6454127"><ele>394.0</ele><time>2026-05-01T09:34:08.274Z</time></trkpt><trkpt lat="44.4514832" lon="7.6450811"><ele>395.0</ele><time>2026-05-01T09:34:09.275Z</time></trkpt><trkpt lat="44.4512948" lon="7.6447548"><ele>394.0</ele><time>2026-05-01T09:34:10.275Z</time></trkpt><trkpt lat="44.4511087" lon="7.6444249"><ele>393.0</ele><time>2026-05-01T09:34:11.274Z</time></trkpt><trkpt lat="44.4509317" lon="7.6440974"><ele>393.0</ele><time>2026-05-01T09:34:12.274Z</time></trkpt><trkpt lat="44.4507563" lon="7.643775"><ele>393.0</ele><time>2026-05-01T09:34:13.274Z</time></trkpt><trkpt lat="44.4505776" lon="7.6434483"><ele>396.0</ele><time>2026-05-01T09:34:14.274Z</time></trkpt><trkpt lat="44.4503935" lon="7.6431284"><ele>399.0</ele><time>2026-05-01T09:34:15.274Z</time></trkpt><trkpt lat="44.4502151" lon="7.6427965"><ele>399.0</ele><time>2026-05-01T09:34:16.274Z</time></trkpt><trkpt lat="44.4500346" lon="7.6424699"><ele>399.0</ele><time>2026-05-01T09:34:17.274Z</time></trkpt><trkpt lat="44.4498573" lon="7.6421432"><ele>397.0</ele><time>2026-05-01T09:34:18.274Z</time></trkpt><trkpt lat="44.4496693" lon="7.6418067"><ele>395.0</ele><time>2026-05-01T09:34:19.274Z</time></trkpt><trkpt lat="44.4494909" lon="7.6414812"><ele>397.0</ele><time>2026-05-01T09:34:20.274Z</time></trkpt><trkpt lat="44.4493127" lon="7.6411566"><ele>399.0</ele><time>2026-05-01T09:34:21.275Z</time></trkpt><trkpt lat="44.4491305" lon="7.640842"><ele>399.0</ele><time>2026-05-01T09:34:22.274Z</time></trkpt><trkpt lat="44.4489491" lon="7.6405278"><ele>399.0</ele><time>2026-05-01T09:34:23.274Z</time></trkpt><trkpt lat="44.448779" lon="7.640212"><ele>403.0</ele><time>2026-05-01T09:34:24.274Z</time></trkpt><trkpt lat="44.4486079" lon="7.6398903"><ele>407.0</ele><time>2026-05-01T09:34:25.274Z</time></trkpt><trkpt lat="44.4484321" lon="7.6395756"><ele>404.5</ele><time>2026-05-01T09:34:26.275Z</time></trkpt><trkpt lat="44.4482576" lon="7.6392626"><ele>402.0</ele><time>2026-05-01T09:34:27.275Z</time></trkpt><trkpt lat="44.448084" lon="7.6389505"><ele>403.0</ele><time>2026-05-01T09:34:28.274Z</time></trkpt><trkpt lat="44.4479007" lon="7.6386385"><ele>404.0</ele><time>2026-05-01T09:34:29.274Z</time></trkpt><trkpt lat="44.4477151" lon="7.6383271"><ele>404.0</ele><time>2026-05-01T09:34:30.274Z</time></trkpt><trkpt lat="44.4475299" lon="7.6380209"><ele>404.0</ele><time>2026-05-01T09:34:31.274Z</time></trkpt><trkpt lat="44.4473285" lon="7.6377102"><ele>403.0</ele><time>2026-05-01T09:34:32.275Z</time></trkpt><trkpt lat="44.4471367" lon="7.6374016"><ele>402.0</ele><time>2026-05-01T09:34:33.274Z</time></trkpt><trkpt lat="44.4469443" lon="7.6371023"><ele>401.5</ele><time>2026-05-01T09:34:34.274Z</time></trkpt><trkpt lat="44.4467521" lon="7.6368049"><ele>401.0</ele><time>2026-05-01T09:34:35.274Z</time></trkpt><trkpt lat="44.4465506" lon="7.636511"><ele>401.0</ele><time>2026-05-01T09:34:36.274Z</time></trkpt><trkpt lat="44.4463555" lon="7.6362255"><ele>401.0</ele><time>2026-05-01T09:34:37.274Z</time></trkpt><trkpt lat="44.4461502" lon="7.6359426"><ele>404.5</ele><time>2026-05-01T09:34:38.274Z</time></trkpt><trkpt lat="44.4459404" lon="7.635663"><ele>408.0</ele><time>2026-05-01T09:34:39.274Z</time></trkpt><trkpt lat="44.4457447" lon="7.6353778"><ele>408.0</ele><time>2026-05-01T09:34:40.274Z</time></trkpt><trkpt lat="44.4455443" lon="7.6351017"><ele>408.0</ele><time>2026-05-01T09:34:41.274Z</time></trkpt><trkpt lat="44.4453382" lon="7.6348288"><ele>407.5</ele><time>2026-05-01T09:34:42.274Z</time></trkpt><trkpt lat="44.4451388" lon="7.63456"><ele>407.0</ele><time>2026-05-01T09:34:43.274Z</time></trkpt><trkpt lat="44.444929" lon="7.6342901"><ele>406.0</ele><time>2026-05-01T09:34:44.274Z</time></trkpt><trkpt lat="44.4447249" lon="7.6340177"><ele>405.0</ele><time>2026-05-01T09:34:45.274Z</time></trkpt><trkpt lat="44.4445222" lon="7.6337453"><ele>405.0</ele><time>2026-05-01T09:34:46.274Z</time></trkpt><trkpt lat="44.4443261" lon="7.6334766"><ele>405.0</ele><time>2026-05-01T09:34:47.274Z</time></trkpt><trkpt lat="44.4441308" lon="7.6332009"><ele>405.0</ele><time>2026-05-01T09:34:48.274Z</time></trkpt><trkpt lat="44.4439363" lon="7.6329224"><ele>405.0</ele><time>2026-05-01T09:34:49.274Z</time></trkpt><trkpt lat="44.4437447" lon="7.6326375"><ele>407.0</ele><time>2026-05-01T09:34:50.274Z</time></trkpt><trkpt lat="44.443552" lon="7.6323501"><ele>409.0</ele><time>2026-05-01T09:34:51.274Z</time></trkpt><trkpt lat="44.4433663" lon="7.6320526"><ele>409.5</ele><time>2026-05-01T09:34:52.274Z</time></trkpt><trkpt lat="44.4431898" lon="7.6317475"><ele>410.0</ele><time>2026-05-01T09:34:53.274Z</time></trkpt><trkpt lat="44.443011" lon="7.6314348"><ele>410.0</ele><time>2026-05-01T09:34:54.274Z</time></trkpt><trkpt lat="44.4428373" lon="7.6311209"><ele>410.0</ele><time>2026-05-01T09:34:55.274Z</time></trkpt><trkpt lat="44.4426676" lon="7.6308058"><ele>410.0</ele><time>2026-05-01T09:34:56.274Z</time></trkpt><trkpt lat="44.4425012" lon="7.6304931"><ele>410.0</ele><time>2026-05-01T09:34:57.274Z</time></trkpt><trkpt lat="44.4423312" lon="7.6301833"><ele>409.0</ele><time>2026-05-01T09:34:58.274Z</time></trkpt><trkpt lat="44.4421598" lon="7.6298734"><ele>408.0</ele><time>2026-05-01T09:34:59.274Z</time></trkpt><trkpt lat="44.4419866" lon="7.6295618"><ele>410.5</ele><time>2026-05-01T09:35:00.274Z</time></trkpt><trkpt lat="44.441812" lon="7.6292475"><ele>413.0</ele><time>2026-05-01T09:35:01.274Z</time></trkpt><trkpt lat="44.4416431" lon="7.628926"><ele>412.0</ele><time>2026-05-01T09:35:02.274Z</time></trkpt><trkpt lat="44.4414759" lon="7.6286053"><ele>411.0</ele><time>2026-05-01T09:35:03.274Z</time></trkpt><trkpt lat="44.4413084" lon="7.6282792"><ele>410.5</ele><time>2026-05-01T09:35:04.274Z</time></trkpt><trkpt lat="44.4411428" lon="7.6279536"><ele>410.0</ele><time>2026-05-01T09:35:05.274Z</time></trkpt><trkpt lat="44.4409699" lon="7.6276316"><ele>410.0</ele><time>2026-05-01T09:35:06.274Z</time></trkpt><trkpt lat="44.440798" lon="7.6273071"><ele>410.0</ele><time>2026-05-01T09:35:07.274Z</time></trkpt><trkpt lat="44.4406184" lon="7.6269852"><ele>416.0</ele><time>2026-05-01T09:35:08.274Z</time></trkpt><trkpt lat="44.4404384" lon="7.6266661"><ele>422.0</ele><time>2026-05-01T09:35:09.274Z</time></trkpt><trkpt lat="44.4402639" lon="7.6263419"><ele>419.5</ele><time>2026-05-01T09:35:10.274Z</time></trkpt><trkpt lat="44.4400923" lon="7.6260147"><ele>417.0</ele><time>2026-05-01T09:35:11.274Z</time></trkpt><trkpt lat="44.4399179" lon="7.6256868"><ele>417.0</ele><time>2026-05-01T09:35:12.274Z</time></trkpt><trkpt lat="44.4397431" lon="7.6253571"><ele>417.0</ele><time>2026-05-01T09:35:13.274Z</time></trkpt><trkpt lat="44.439571" lon="7.6250272"><ele>418.0</ele><time>2026-05-01T09:35:14.274Z</time></trkpt><trkpt lat="44.4393977" lon="7.624697"><ele>419.0</ele><time>2026-05-01T09:35:15.274Z</time></trkpt><trkpt lat="44.4392188" lon="7.6243699"><ele>419.0</ele><time>2026-05-01T09:35:16.274Z</time></trkpt><trkpt lat="44.439046" lon="7.6240459"><ele>419.0</ele><time>2026-05-01T09:35:17.274Z</time></trkpt><trkpt lat="44.4388685" lon="7.6237154"><ele>418.0</ele><time>2026-05-01T09:35:18.274Z</time></trkpt><trkpt lat="44.4386931" lon="7.6233881"><ele>417.0</ele><time>2026-05-01T09:35:19.274Z</time></trkpt><trkpt lat="44.438518" lon="7.6230628"><ele>415.5</ele><time>2026-05-01T09:35:20.275Z</time></trkpt><trkpt lat="44.438346" lon="7.6227352"><ele>414.0</ele><time>2026-05-01T09:35:21.274Z</time></trkpt><trkpt lat="44.4381745" lon="7.622413"><ele>414.0</ele><time>2026-05-01T09:35:22.275Z</time></trkpt><trkpt lat="44.4379988" lon="7.6220902"><ele>414.0</ele><time>2026-05-01T09:35:23.274Z</time></trkpt><trkpt lat="44.4378294" lon="7.6217658"><ele>415.0</ele><time>2026-05-01T09:35:24.274Z</time></trkpt><trkpt lat="44.4376581" lon="7.6214437"><ele>416.0</ele><time>2026-05-01T09:35:25.274Z</time></trkpt><trkpt lat="44.4374867" lon="7.621125"><ele>417.5</ele><time>2026-05-01T09:35:26.274Z</time></trkpt><trkpt lat="44.4373165" lon="7.6208081"><ele>419.0</ele><time>2026-05-01T09:35:27.274Z</time></trkpt><trkpt lat="44.4371479" lon="7.6204901"><ele>420.5</ele><time>2026-05-01T09:35:28.274Z</time></trkpt><trkpt lat="44.4369838" lon="7.620172"><ele>422.0</ele><time>2026-05-01T09:35:29.274Z</time></trkpt><trkpt lat="44.4368147" lon="7.6198535"><ele>422.0</ele><time>2026-05-01T09:35:30.275Z</time></trkpt><trkpt lat="44.4366448" lon="7.6195336"><ele>422.0</ele><time>2026-05-01T09:35:31.274Z</time></trkpt><trkpt lat="44.4364774" lon="7.6192162"><ele>423.0</ele><time>2026-05-01T09:35:32.274Z</time></trkpt><trkpt lat="44.4363082" lon="7.6189001"><ele>424.0</ele><time>2026-05-01T09:35:33.274Z</time></trkpt><trkpt lat="44.4361399" lon="7.6185909"><ele>425.5</ele><time>2026-05-01T09:35:34.274Z</time></trkpt><trkpt lat="44.4359752" lon="7.6182802"><ele>427.0</ele><time>2026-05-01T09:35:35.274Z</time></trkpt><trkpt lat="44.435806" lon="7.6179645"><ele>427.0</ele><time>2026-05-01T09:35:36.275Z</time></trkpt><trkpt lat="44.4356354" lon="7.6176545"><ele>427.0</ele><time>2026-05-01T09:35:37.274Z</time></trkpt><trkpt lat="44.4354712" lon="7.6173477"><ele>426.5</ele><time>2026-05-01T09:35:38.274Z</time></trkpt><trkpt lat="44.435308" lon="7.6170472"><ele>426.0</ele><time>2026-05-01T09:35:39.274Z</time></trkpt><trkpt lat="44.4351433" lon="7.6167374"><ele>426.0</ele><time>2026-05-01T09:35:40.274Z</time></trkpt><trkpt lat="44.4349798" lon="7.6164302"><ele>426.0</ele><time>2026-05-01T09:35:41.274Z</time></trkpt><trkpt lat="44.4348208" lon="7.6161223"><ele>426.5</ele><time>2026-05-01T09:35:42.274Z</time></trkpt><trkpt lat="44.4346596" lon="7.6158199"><ele>427.0</ele><time>2026-05-01T09:35:43.275Z</time></trkpt><trkpt lat="44.4345014" lon="7.6155261"><ele>427.0</ele><time>2026-05-01T09:35:44.275Z</time></trkpt><trkpt lat="44.434346" lon="7.6152315"><ele>427.0</ele><time>2026-05-01T09:35:45.274Z</time></trkpt><trkpt lat="44.434191" lon="7.6149409"><ele>427.0</ele><time>2026-05-01T09:35:46.275Z</time></trkpt><trkpt lat="44.4340346" lon="7.6146494"><ele>427.0</ele><time>2026-05-01T09:35:47.274Z</time></trkpt><trkpt lat="44.4338708" lon="7.6143518"><ele>425.5</ele><time>2026-05-01T09:35:48.274Z</time></trkpt><trkpt lat="44.4337115" lon="7.6140491"><ele>424.0</ele><time>2026-05-01T09:35:49.274Z</time></trkpt><trkpt lat="44.4335483" lon="7.6137452"><ele>423.5</ele><time>2026-05-01T09:35:50.274Z</time></trkpt><trkpt lat="44.4333892" lon="7.6134416"><ele>423.0</ele><time>2026-05-01T09:35:51.275Z</time></trkpt><trkpt lat="44.4332288" lon="7.613141"><ele>423.0</ele><time>2026-05-01T09:35:52.274Z</time></trkpt><trkpt lat="44.4330747" lon="7.6128459"><ele>423.0</ele><time>2026-05-01T09:35:53.275Z</time></trkpt><trkpt lat="44.4329275" lon="7.6125619"><ele>424.0</ele><time>2026-05-01T09:35:54.274Z</time></trkpt><trkpt lat="44.4327932" lon="7.6122918"><ele>425.0</ele><time>2026-05-01T09:35:55.274Z</time></trkpt><trkpt lat="44.4326666" lon="7.6120173"><ele>425.3333333333333</ele><time>2026-05-01T09:35:56.275Z</time></trkpt><trkpt lat="44.4325424" lon="7.6117684"><ele>425.66666666666663</ele><time>2026-05-01T09:35:57.274Z</time></trkpt><trkpt lat="44.4324333" lon="7.6115302"><ele>426.0</ele><time>2026-05-01T09:35:58.274Z</time></trkpt><trkpt lat="44.4323369" lon="7.6112912"><ele>426.0</ele><time>2026-05-01T09:35:59.274Z</time></trkpt><trkpt lat="44.4322518" lon="7.6110594"><ele>426.0</ele><time>2026-05-01T09:36:00.274Z</time></trkpt><trkpt lat="44.4321726" lon="7.6108344"><ele>426.0</ele><time>2026-05-01T09:36:01.275Z</time></trkpt><trkpt lat="44.4321022" lon="7.6106193"><ele>426.33333333333337</ele><time>2026-05-01T09:36:02.274Z</time></trkpt><trkpt lat="44.4320387" lon="7.6104125"><ele>426.6666666666667</ele><time>2026-05-01T09:36:03.275Z</time></trkpt><trkpt lat="44.4319713" lon="7.6102216"><ele>427.0</ele><time>2026-05-01T09:36:04.274Z</time></trkpt><trkpt lat="44.4319032" lon="7.6100388"><ele>427.0</ele><time>2026-05-01T09:36:05.274Z</time></trkpt><trkpt lat="44.4318408" lon="7.6098729"><ele>427.0</ele><time>2026-05-01T09:36:06.274Z</time></trkpt><trkpt lat="44.4317809" lon="7.6097256"><ele>427.0</ele><time>2026-05-01T09:36:07.275Z</time></trkpt><trkpt lat="44.4317303" lon="7.6095883"><ele>427.0</ele><time>2026-05-01T09:36:08.274Z</time></trkpt><trkpt lat="44.4316853" lon="7.6094635"><ele>427.1666666666667</ele><time>2026-05-01T09:36:09.274Z</time></trkpt><trkpt lat="44.4316438" lon="7.6093488"><ele>427.33333333333337</ele><time>2026-05-01T09:36:10.274Z</time></trkpt><trkpt lat="44.4316044" lon="7.6092529"><ele>427.5</ele><time>2026-05-01T09:36:11.274Z</time></trkpt><trkpt lat="44.4315693" lon="7.6091612"><ele>427.66666666666663</ele><time>2026-05-01T09:36:12.274Z</time></trkpt><trkpt lat="44.4315377" lon="7.6090847"><ele>427.8333333333333</ele><time>2026-05-01T09:36:13.274Z</time></trkpt><trkpt lat="44.4314892" lon="7.6089733"><ele>428.0</ele><time>2026-05-01T09:36:15.274Z</time></trkpt><trkpt lat="44.4314457" lon="7.6088933"><ele>427.99999999999994</ele><time>2026-05-01T09:36:18.274Z</time></trkpt><trkpt lat="44.4314689" lon="7.6089763"><ele>428.0</ele><time>2026-05-01T09:38:08.274Z</time></trkpt><trkpt lat="44.4315318" lon="7.6091156"><ele>428.0</ele><time>2026-05-01T09:38:21.274Z</time></trkpt><trkpt lat="44.4314722" lon="7.6090762"><ele>428.0</ele><time>2026-05-01T09:38:36.274Z</time></trkpt><trkpt lat="44.4314336" lon="7.6090026"><ele>427.99999999999994</ele><time>2026-05-01T09:38:40.274Z</time></trkpt><trkpt lat="44.4314009" lon="7.6089012"><ele>428.0</ele><time>2026-05-01T09:38:44.274Z</time></trkpt><trkpt lat="44.4313995" lon="7.6087814"><ele>428.0</ele><time>2026-05-01T09:40:06.274Z</time></trkpt><trkpt lat="44.431315" lon="7.6086588"><ele>428.0</ele><time>2026-05-01T09:40:08.274Z</time></trkpt><trkpt lat="44.4312294" lon="7.6085345"><ele>428.0</ele><time>2026-05-01T09:40:09.274Z</time></trkpt><trkpt lat="44.4311306" lon="7.6084004"><ele>428.0</ele><time>2026-05-01T09:40:10.275Z</time></trkpt><trkpt lat="44.4310321" lon="7.6082677"><ele>428.0</ele><time>2026-05-01T09:40:11.274Z</time></trkpt><trkpt lat="44.4309429" lon="7.6081396"><ele>428.0</ele><time>2026-05-01T09:40:12.274Z</time></trkpt><trkpt lat="44.4308623" lon="7.608013"><ele>428.0</ele><time>2026-05-01T09:40:13.274Z</time></trkpt><trkpt lat="44.4307873" lon="7.607896"><ele>428.0</ele><time>2026-05-01T09:40:14.274Z</time></trkpt><trkpt lat="44.4307131" lon="7.6077838"><ele>427.75</ele><time>2026-05-01T09:40:15.274Z</time></trkpt><trkpt lat="44.4306366" lon="7.6076752"><ele>427.5</ele><time>2026-05-01T09:40:16.274Z</time></trkpt><trkpt lat="44.4305582" lon="7.6075608"><ele>427.25</ele><time>2026-05-01T09:40:17.274Z</time></trkpt><trkpt lat="44.430475" lon="7.607435"><ele>427.0</ele><time>2026-05-01T09:40:18.274Z</time></trkpt><trkpt lat="44.4303926" lon="7.6072988"><ele>427.75</ele><time>2026-05-01T09:40:19.274Z</time></trkpt><trkpt lat="44.4303076" lon="7.6071503"><ele>428.5</ele><time>2026-05-01T09:40:20.274Z</time></trkpt><trkpt lat="44.4302245" lon="7.6069825"><ele>429.25</ele><time>2026-05-01T09:40:21.274Z</time></trkpt><trkpt lat="44.430143" lon="7.6068015"><ele>430.0</ele><time>2026-05-01T09:40:22.274Z</time></trkpt><trkpt lat="44.4300645" lon="7.6066087"><ele>430.0</ele><time>2026-05-01T09:40:23.274Z</time></trkpt><trkpt lat="44.4299845" lon="7.606411"><ele>430.0</ele><time>2026-05-01T09:40:24.275Z</time></trkpt><trkpt lat="44.4298957" lon="7.6062118"><ele>430.0</ele><time>2026-05-01T09:40:25.276Z</time></trkpt><trkpt lat="44.4298055" lon="7.6059997"><ele>430.33333333333337</ele><time>2026-05-01T09:40:26.275Z</time></trkpt><trkpt lat="44.4297135" lon="7.605784"><ele>430.66666666666663</ele><time>2026-05-01T09:40:27.275Z</time></trkpt><trkpt lat="44.4296172" lon="7.6055637"><ele>431.0</ele><time>2026-05-01T09:40:28.275Z</time></trkpt><trkpt lat="44.4295173" lon="7.6053312"><ele>430.3333333333333</ele><time>2026-05-01T09:40:29.275Z</time></trkpt><trkpt lat="44.4294227" lon="7.605088"><ele>429.66666666666663</ele><time>2026-05-01T09:40:30.275Z</time></trkpt><trkpt lat="44.4293217" lon="7.6048376"><ele>429.0</ele><time>2026-05-01T09:40:31.275Z</time></trkpt><trkpt lat="44.4292163" lon="7.6045811"><ele>428.66666666666663</ele><time>2026-05-01T09:40:32.275Z</time></trkpt><trkpt lat="44.4291128" lon="7.6043206"><ele>428.3333333333333</ele><time>2026-05-01T09:40:33.275Z</time></trkpt><trkpt lat="44.4290095" lon="7.6040534"><ele>428.0</ele><time>2026-05-01T09:40:34.275Z</time></trkpt><trkpt lat="44.4289074" lon="7.6037764"><ele>430.5</ele><time>2026-05-01T09:40:35.275Z</time></trkpt><trkpt lat="44.4287967" lon="7.6034953"><ele>433.0</ele><time>2026-05-01T09:40:36.275Z</time></trkpt><trkpt lat="44.4286764" lon="7.6032143"><ele>433.0</ele><time>2026-05-01T09:40:37.275Z</time></trkpt><trkpt lat="44.4285525" lon="7.602922"><ele>433.0</ele><time>2026-05-01T09:40:38.275Z</time></trkpt><trkpt lat="44.4284342" lon="7.6026222"><ele>432.5</ele><time>2026-05-01T09:40:39.275Z</time></trkpt><trkpt lat="44.428322" lon="7.6023173"><ele>432.0</ele><time>2026-05-01T09:40:40.275Z</time></trkpt><trkpt lat="44.4282149" lon="7.6020017"><ele>431.0</ele><time>2026-05-01T09:40:41.276Z</time></trkpt><trkpt lat="44.4281059" lon="7.6016914"><ele>430.0</ele><time>2026-05-01T09:40:42.275Z</time></trkpt><trkpt lat="44.4279975" lon="7.6013803"><ele>431.5</ele><time>2026-05-01T09:40:43.275Z</time></trkpt><trkpt lat="44.4278909" lon="7.601075"><ele>433.0</ele><time>2026-05-01T09:40:44.276Z</time></trkpt><trkpt lat="44.4277864" lon="7.6007687"><ele>433.0</ele><time>2026-05-01T09:40:45.275Z</time></trkpt><trkpt lat="44.4276887" lon="7.6004698"><ele>433.0</ele><time>2026-05-01T09:40:46.275Z</time></trkpt><trkpt lat="44.4275954" lon="7.6001727"><ele>433.5</ele><time>2026-05-01T09:40:47.275Z</time></trkpt><trkpt lat="44.427498" lon="7.5998765"><ele>434.0</ele><time>2026-05-01T09:40:48.275Z</time></trkpt><trkpt lat="44.4274026" lon="7.5995771"><ele>434.0</ele><time>2026-05-01T09:40:49.275Z</time></trkpt><trkpt lat="44.4273006" lon="7.5992771"><ele>434.0</ele><time>2026-05-01T09:40:50.275Z</time></trkpt><trkpt lat="44.4271995" lon="7.59898"><ele>434.5</ele><time>2026-05-01T09:40:51.275Z</time></trkpt><trkpt lat="44.4270999" lon="7.5986756"><ele>435.0</ele><time>2026-05-01T09:40:52.276Z</time></trkpt><trkpt lat="44.4270027" lon="7.5983775"><ele>435.0</ele><time>2026-05-01T09:40:53.275Z</time></trkpt><trkpt lat="44.4269109" lon="7.5980735"><ele>435.0</ele><time>2026-05-01T09:40:54.275Z</time></trkpt><trkpt lat="44.4268179" lon="7.5977733"><ele>434.0</ele><time>2026-05-01T09:40:55.276Z</time></trkpt><trkpt lat="44.426719" lon="7.5974748"><ele>433.0</ele><time>2026-05-01T09:40:56.276Z</time></trkpt><trkpt lat="44.4266291" lon="7.5971796"><ele>433.6666666666667</ele><time>2026-05-01T09:40:57.275Z</time></trkpt><trkpt lat="44.4265408" lon="7.5968895"><ele>434.33333333333337</ele><time>2026-05-01T09:40:58.275Z</time></trkpt><trkpt lat="44.4264526" lon="7.5966015"><ele>435.0</ele><time>2026-05-01T09:40:59.275Z</time></trkpt><trkpt lat="44.4263708" lon="7.5963151"><ele>436.0</ele><time>2026-05-01T09:41:00.275Z</time></trkpt><trkpt lat="44.4262934" lon="7.5960316"><ele>437.0</ele><time>2026-05-01T09:41:01.275Z</time></trkpt><trkpt lat="44.426213" lon="7.5957497"><ele>438.0</ele><time>2026-05-01T09:41:02.275Z</time></trkpt><trkpt lat="44.426136" lon="7.5954728"><ele>438.33333333333337</ele><time>2026-05-01T09:41:03.275Z</time></trkpt><trkpt lat="44.4260521" lon="7.5952061"><ele>438.6666666666667</ele><time>2026-05-01T09:41:04.276Z</time></trkpt><trkpt lat="44.4259657" lon="7.5949551"><ele>439.0</ele><time>2026-05-01T09:41:05.275Z</time></trkpt><trkpt lat="44.4258893" lon="7.5947046"><ele>440.0</ele><time>2026-05-01T09:41:06.275Z</time></trkpt><trkpt lat="44.4258148" lon="7.5944564"><ele>441.0</ele><time>2026-05-01T09:41:07.275Z</time></trkpt><trkpt lat="44.4257489" lon="7.5942081"><ele>442.0</ele><time>2026-05-01T09:41:08.275Z</time></trkpt><trkpt lat="44.425684" lon="7.5939676"><ele>442.0</ele><time>2026-05-01T09:41:09.276Z</time></trkpt><trkpt lat="44.4256282" lon="7.5937285"><ele>442.0</ele><time>2026-05-01T09:41:10.275Z</time></trkpt><trkpt lat="44.4255751" lon="7.5934816"><ele>442.0</ele><time>2026-05-01T09:41:11.275Z</time></trkpt><trkpt lat="44.4255274" lon="7.5932374"><ele>441.6666666666667</ele><time>2026-05-01T09:41:12.275Z</time></trkpt><trkpt lat="44.4255036" lon="7.5929918"><ele>441.33333333333337</ele><time>2026-05-01T09:41:13.275Z</time></trkpt><trkpt lat="44.4254882" lon="7.5927435"><ele>441.0</ele><time>2026-05-01T09:41:14.275Z</time></trkpt><trkpt lat="44.4254925" lon="7.5924934"><ele>441.0</ele><time>2026-05-01T09:41:15.275Z</time></trkpt><trkpt lat="44.4255007" lon="7.5922443"><ele>441.0</ele><time>2026-05-01T09:41:16.275Z</time></trkpt><trkpt lat="44.4255269" lon="7.5920004"><ele>441.0</ele><time>2026-05-01T09:41:17.276Z</time></trkpt><trkpt lat="44.4255572" lon="7.5917625"><ele>441.66666666666663</ele><time>2026-05-01T09:41:18.275Z</time></trkpt><trkpt lat="44.4255754" lon="7.5915351"><ele>442.3333333333333</ele><time>2026-05-01T09:41:19.276Z</time></trkpt><trkpt lat="44.425576" lon="7.5912997"><ele>443.0</ele><time>2026-05-01T09:41:20.276Z</time></trkpt><trkpt lat="44.4255569" lon="7.5910557"><ele>443.3333333333333</ele><time>2026-05-01T09:41:21.275Z</time></trkpt><trkpt lat="44.4255186" lon="7.5908069"><ele>443.66666666666663</ele><time>2026-05-01T09:41:22.275Z</time></trkpt><trkpt lat="44.4254692" lon="7.5905552"><ele>444.0</ele><time>2026-05-01T09:41:23.275Z</time></trkpt><trkpt lat="44.4253936" lon="7.5903022"><ele>443.33333333333337</ele><time>2026-05-01T09:41:24.275Z</time></trkpt><trkpt lat="44.4252999" lon="7.590064"><ele>442.6666666666667</ele><time>2026-05-01T09:41:25.276Z</time></trkpt><trkpt lat="44.4251826" lon="7.5898402"><ele>442.0</ele><time>2026-05-01T09:41:26.275Z</time></trkpt><trkpt lat="44.4250448" lon="7.5896428"><ele>442.0</ele><time>2026-05-01T09:41:27.275Z</time></trkpt><trkpt lat="44.4248943" lon="7.5894766"><ele>442.0</ele><time>2026-05-01T09:41:28.275Z</time></trkpt><trkpt lat="44.424736" lon="7.5893398"><ele>442.0</ele><time>2026-05-01T09:41:29.275Z</time></trkpt><trkpt lat="44.4245716" lon="7.5892364"><ele>442.6666666666667</ele><time>2026-05-01T09:41:30.275Z</time></trkpt><trkpt lat="44.4243895" lon="7.5891636"><ele>443.33333333333337</ele><time>2026-05-01T09:41:31.276Z</time></trkpt><trkpt lat="44.4242055" lon="7.589124"><ele>444.0</ele><time>2026-05-01T09:41:32.275Z</time></trkpt><trkpt lat="44.424016" lon="7.5890931"><ele>444.66666666666663</ele><time>2026-05-01T09:41:33.275Z</time></trkpt><trkpt lat="44.4238043" lon="7.5891257"><ele>445.3333333333333</ele><time>2026-05-01T09:41:34.275Z</time></trkpt><trkpt lat="44.4236104" lon="7.589207"><ele>446.0</ele><time>2026-05-01T09:41:35.275Z</time></trkpt><trkpt lat="44.4234252" lon="7.5893439"><ele>446.3333333333333</ele><time>2026-05-01T09:41:36.275Z</time></trkpt><trkpt lat="44.4232454" lon="7.5895183"><ele>446.66666666666663</ele><time>2026-05-01T09:41:37.275Z</time></trkpt><trkpt lat="44.4230753" lon="7.589709"><ele>447.0</ele><time>2026-05-01T09:41:38.276Z</time></trkpt><trkpt lat="44.4229026" lon="7.5898873"><ele>447.0</ele><time>2026-05-01T09:41:39.275Z</time></trkpt><trkpt lat="44.422728" lon="7.5900558"><ele>447.0</ele><time>2026-05-01T09:41:40.275Z</time></trkpt><trkpt lat="44.4225472" lon="7.5902305"><ele>447.0</ele><time>2026-05-01T09:41:41.275Z</time></trkpt><trkpt lat="44.4223652" lon="7.5904002"><ele>447.0</ele><time>2026-05-01T09:41:42.275Z</time></trkpt><trkpt lat="44.4221878" lon="7.5905686"><ele>447.0</ele><time>2026-05-01T09:41:43.275Z</time></trkpt><trkpt lat="44.4220083" lon="7.5907425"><ele>447.0</ele><time>2026-05-01T09:41:44.275Z</time></trkpt><trkpt lat="44.4218328" lon="7.5909073"><ele>448.0</ele><time>2026-05-01T09:41:45.275Z</time></trkpt><trkpt lat="44.4216551" lon="7.5910764"><ele>449.0</ele><time>2026-05-01T09:41:46.275Z</time></trkpt><trkpt lat="44.4214785" lon="7.5912417"><ele>450.0</ele><time>2026-05-01T09:41:47.275Z</time></trkpt><trkpt lat="44.4213019" lon="7.5914054"><ele>457.33333333333337</ele><time>2026-05-01T09:41:48.275Z</time></trkpt><trkpt lat="44.4211189" lon="7.5915723"><ele>464.6666666666667</ele><time>2026-05-01T09:41:49.275Z</time></trkpt><trkpt lat="44.4209317" lon="7.5917442"><ele>472.0</ele><time>2026-05-01T09:41:50.276Z</time></trkpt><trkpt lat="44.4207327" lon="7.5919309"><ele>473.0</ele><time>2026-05-01T09:41:51.275Z</time></trkpt><trkpt lat="44.4205256" lon="7.5921287"><ele>474.0</ele><time>2026-05-01T09:41:52.275Z</time></trkpt><trkpt lat="44.4203281" lon="7.5923209"><ele>474.0</ele><time>2026-05-01T09:41:53.276Z</time></trkpt><trkpt lat="44.4201283" lon="7.5925015"><ele>474.0</ele><time>2026-05-01T09:41:54.275Z</time></trkpt><trkpt lat="44.4199335" lon="7.5926835"><ele>473.0</ele><time>2026-05-01T09:41:55.276Z</time></trkpt><trkpt lat="44.4197408" lon="7.5928723"><ele>472.0</ele><time>2026-05-01T09:41:56.276Z</time></trkpt><trkpt lat="44.4195512" lon="7.5930757"><ele>475.5</ele><time>2026-05-01T09:41:57.275Z</time></trkpt><trkpt lat="44.4193819" lon="7.5932886"><ele>479.0</ele><time>2026-05-01T09:41:58.275Z</time></trkpt><trkpt lat="44.4192247" lon="7.5935263"><ele>480.0</ele><time>2026-05-01T09:41:59.275Z</time></trkpt><trkpt lat="44.4190796" lon="7.5937699"><ele>481.0</ele><time>2026-05-01T09:42:00.276Z</time></trkpt><trkpt lat="44.4189269" lon="7.5940148"><ele>480.0</ele><time>2026-05-01T09:42:01.276Z</time></trkpt><trkpt lat="44.4187746" lon="7.5942454"><ele>479.0</ele><time>2026-05-01T09:42:02.275Z</time></trkpt><trkpt lat="44.4186148" lon="7.5944678"><ele>480.0</ele><time>2026-05-01T09:42:03.276Z</time></trkpt><trkpt lat="44.4184511" lon="7.5946689"><ele>481.0</ele><time>2026-05-01T09:42:04.275Z</time></trkpt><trkpt lat="44.4182806" lon="7.5948455"><ele>482.0</ele><time>2026-05-01T09:42:05.275Z</time></trkpt><trkpt lat="44.4181004" lon="7.5950017"><ele>482.0</ele><time>2026-05-01T09:42:06.275Z</time></trkpt><trkpt lat="44.417914" lon="7.5951373"><ele>482.0</ele><time>2026-05-01T09:42:07.275Z</time></trkpt><trkpt lat="44.4177183" lon="7.5952543"><ele>482.0</ele><time>2026-05-01T09:42:08.275Z</time></trkpt><trkpt lat="44.4175211" lon="7.5953534"><ele>482.0</ele><time>2026-05-01T09:42:09.275Z</time></trkpt><trkpt lat="44.4173182" lon="7.5954406"><ele>482.0</ele><time>2026-05-01T09:42:10.275Z</time></trkpt><trkpt lat="44.4171262" lon="7.5955245"><ele>482.0</ele><time>2026-05-01T09:42:11.275Z</time></trkpt><trkpt lat="44.416942" lon="7.5956203"><ele>482.0</ele><time>2026-05-01T09:42:12.275Z</time></trkpt><trkpt lat="44.4167535" lon="7.595733"><ele>482.0</ele><time>2026-05-01T09:42:13.275Z</time></trkpt><trkpt lat="44.4165711" lon="7.5958568"><ele>482.0</ele><time>2026-05-01T09:42:14.275Z</time></trkpt><trkpt lat="44.4163993" lon="7.5959952"><ele>482.0</ele><time>2026-05-01T09:42:15.275Z</time></trkpt><trkpt lat="44.4162314" lon="7.5961373"><ele>482.0</ele><time>2026-05-01T09:42:16.275Z</time></trkpt><trkpt lat="44.4160805" lon="7.5962736"><ele>482.0</ele><time>2026-05-01T09:42:17.275Z</time></trkpt><trkpt lat="44.4159404" lon="7.5964104"><ele>482.25</ele><time>2026-05-01T09:42:18.275Z</time></trkpt><trkpt lat="44.4158165" lon="7.5965345"><ele>482.5</ele><time>2026-05-01T09:42:19.275Z</time></trkpt><trkpt lat="44.4156976" lon="7.5966402"><ele>482.75</ele><time>2026-05-01T09:42:20.275Z</time></trkpt><trkpt lat="44.4156042" lon="7.596727"><ele>483.0</ele><time>2026-05-01T09:42:21.275Z</time></trkpt><trkpt lat="44.4155251" lon="7.5967979"><ele>483.6666666666667</ele><time>2026-05-01T09:42:22.275Z</time></trkpt><trkpt lat="44.4154539" lon="7.5968538"><ele>484.33333333333337</ele><time>2026-05-01T09:42:23.275Z</time></trkpt><trkpt lat="44.4153928" lon="7.5968792"><ele>485.0</ele><time>2026-05-01T09:42:24.275Z</time></trkpt><trkpt lat="44.415326" lon="7.5968767"><ele>485.6666666666667</ele><time>2026-05-01T09:42:25.275Z</time></trkpt><trkpt lat="44.4152431" lon="7.5968657"><ele>486.33333333333337</ele><time>2026-05-01T09:42:26.275Z</time></trkpt><trkpt lat="44.4151471" lon="7.5968585"><ele>487.0</ele><time>2026-05-01T09:42:27.275Z</time></trkpt><trkpt lat="44.4150402" lon="7.5968495"><ele>487.0</ele><time>2026-05-01T09:42:28.275Z</time></trkpt><trkpt lat="44.4149273" lon="7.5968225"><ele>487.0</ele><time>2026-05-01T09:42:29.275Z</time></trkpt><trkpt lat="44.4148042" lon="7.5967695"><ele>487.0</ele><time>2026-05-01T09:42:30.275Z</time></trkpt><trkpt lat="44.4146727" lon="7.5966862"><ele>487.0</ele><time>2026-05-01T09:42:31.275Z</time></trkpt><trkpt lat="44.414531" lon="7.5965807"><ele>487.33333333333337</ele><time>2026-05-01T09:42:32.275Z</time></trkpt><trkpt lat="44.4143858" lon="7.596473"><ele>487.66666666666663</ele><time>2026-05-01T09:42:33.275Z</time></trkpt><trkpt lat="44.4142386" lon="7.5963607"><ele>488.0</ele><time>2026-05-01T09:42:34.275Z</time></trkpt><trkpt lat="44.4140822" lon="7.5962474"><ele>488.3333333333333</ele><time>2026-05-01T09:42:35.275Z</time></trkpt><trkpt lat="44.4139202" lon="7.5961276"><ele>488.66666666666663</ele><time>2026-05-01T09:42:36.276Z</time></trkpt><trkpt lat="44.4137485" lon="7.5959968"><ele>489.0</ele><time>2026-05-01T09:42:37.276Z</time></trkpt><trkpt lat="44.413567" lon="7.5958563"><ele>489.0</ele><time>2026-05-01T09:42:38.275Z</time></trkpt><trkpt lat="44.4133822" lon="7.5957145"><ele>489.0</ele><time>2026-05-01T09:42:39.275Z</time></trkpt><trkpt lat="44.4131995" lon="7.5955725"><ele>489.0</ele><time>2026-05-01T09:42:40.275Z</time></trkpt><trkpt lat="44.4130133" lon="7.5954306"><ele>489.66666666666663</ele><time>2026-05-01T09:42:41.275Z</time></trkpt><trkpt lat="44.4128209" lon="7.5952915"><ele>490.3333333333333</ele><time>2026-05-01T09:42:42.275Z</time></trkpt><trkpt lat="44.412633" lon="7.595151"><ele>491.0</ele><time>2026-05-01T09:42:43.275Z</time></trkpt><trkpt lat="44.4124462" lon="7.5950044"><ele>491.0</ele><time>2026-05-01T09:42:44.275Z</time></trkpt><trkpt lat="44.4122598" lon="7.5948584"><ele>491.0</ele><time>2026-05-01T09:42:45.275Z</time></trkpt><trkpt lat="44.4120697" lon="7.5947137"><ele>491.0</ele><time>2026-05-01T09:42:46.276Z</time></trkpt><trkpt lat="44.4118812" lon="7.5945702"><ele>491.3333333333333</ele><time>2026-05-01T09:42:47.275Z</time></trkpt><trkpt lat="44.4116928" lon="7.5944325"><ele>491.66666666666663</ele><time>2026-05-01T09:42:48.275Z</time></trkpt><trkpt lat="44.4115031" lon="7.59429"><ele>492.0</ele><time>2026-05-01T09:42:49.275Z</time></trkpt><trkpt lat="44.4113104" lon="7.5941455"><ele>492.0</ele><time>2026-05-01T09:42:50.275Z</time></trkpt><trkpt lat="44.4111199" lon="7.5940005"><ele>492.0</ele><time>2026-05-01T09:42:51.275Z</time></trkpt><trkpt lat="44.4109296" lon="7.5938512"><ele>492.0</ele><time>2026-05-01T09:42:52.275Z</time></trkpt><trkpt lat="44.4107325" lon="7.5936946"><ele>492.66666666666663</ele><time>2026-05-01T09:42:53.276Z</time></trkpt><trkpt lat="44.4105367" lon="7.5935347"><ele>493.3333333333333</ele><time>2026-05-01T09:42:54.275Z</time></trkpt><trkpt lat="44.410346" lon="7.593374"><ele>494.0</ele><time>2026-05-01T09:42:55.275Z</time></trkpt><trkpt lat="44.4101592" lon="7.593212"><ele>494.0</ele><time>2026-05-01T09:42:56.275Z</time></trkpt><trkpt lat="44.4099743" lon="7.5930439"><ele>494.0</ele><time>2026-05-01T09:42:57.275Z</time></trkpt><trkpt lat="44.4097924" lon="7.5928636"><ele>494.0</ele><time>2026-05-01T09:42:58.275Z</time></trkpt><trkpt lat="44.4096107" lon="7.5926796"><ele>494.5</ele><time>2026-05-01T09:42:59.275Z</time></trkpt><trkpt lat="44.4094249" lon="7.5924939"><ele>495.0</ele><time>2026-05-01T09:43:00.275Z</time></trkpt><trkpt lat="44.4092353" lon="7.5923085"><ele>495.0</ele><time>2026-05-01T09:43:01.275Z</time></trkpt><trkpt lat="44.4090451" lon="7.592119"><ele>495.0</ele><time>2026-05-01T09:43:02.275Z</time></trkpt><trkpt lat="44.4088492" lon="7.5919275"><ele>496.5</ele><time>2026-05-01T09:43:03.275Z</time></trkpt><trkpt lat="44.4086553" lon="7.591737"><ele>498.0</ele><time>2026-05-01T09:43:04.275Z</time></trkpt><trkpt lat="44.4084675" lon="7.5915441"><ele>498.0</ele><time>2026-05-01T09:43:05.275Z</time></trkpt><trkpt lat="44.408281" lon="7.5913596"><ele>498.0</ele><time>2026-05-01T09:43:06.275Z</time></trkpt><trkpt lat="44.4080973" lon="7.5911693"><ele>497.5</ele><time>2026-05-01T09:43:07.275Z</time></trkpt><trkpt lat="44.4079161" lon="7.5909831"><ele>497.0</ele><time>2026-05-01T09:43:08.275Z</time></trkpt><trkpt lat="44.40773" lon="7.5908029"><ele>497.0</ele><time>2026-05-01T09:43:09.275Z</time></trkpt><trkpt lat="44.4075421" lon="7.5906201"><ele>497.0</ele><time>2026-05-01T09:43:10.275Z</time></trkpt><trkpt lat="44.4073592" lon="7.5904311"><ele>497.0</ele><time>2026-05-01T09:43:11.275Z</time></trkpt><trkpt lat="44.4071682" lon="7.5902378"><ele>497.0</ele><time>2026-05-01T09:43:12.275Z</time></trkpt><trkpt lat="44.4069761" lon="7.5900425"><ele>497.0</ele><time>2026-05-01T09:43:13.275Z</time></trkpt><trkpt lat="44.4067829" lon="7.5898516"><ele>497.0</ele><time>2026-05-01T09:43:14.275Z</time></trkpt><trkpt lat="44.4065884" lon="7.5896602"><ele>498.0</ele><time>2026-05-01T09:43:15.275Z</time></trkpt><trkpt lat="44.4063968" lon="7.5894761"><ele>499.0</ele><time>2026-05-01T09:43:16.275Z</time></trkpt><trkpt lat="44.4061968" lon="7.5892969"><ele>499.5</ele><time>2026-05-01T09:43:17.275Z</time></trkpt><trkpt lat="44.4060048" lon="7.589115"><ele>500.0</ele><time>2026-05-01T09:43:18.275Z</time></trkpt><trkpt lat="44.4058112" lon="7.5889338"><ele>500.0</ele><time>2026-05-01T09:43:19.275Z</time></trkpt><trkpt lat="44.4056132" lon="7.5887558"><ele>500.0</ele><time>2026-05-01T09:43:20.275Z</time></trkpt><trkpt lat="44.4054151" lon="7.5885804"><ele>499.5</ele><time>2026-05-01T09:43:21.276Z</time></trkpt><trkpt lat="44.405228" lon="7.5883997"><ele>499.0</ele><time>2026-05-01T09:43:22.275Z</time></trkpt><trkpt lat="44.4050358" lon="7.5882197"><ele>499.0</ele><time>2026-05-01T09:43:23.275Z</time></trkpt><trkpt lat="44.4048424" lon="7.5880424"><ele>499.0</ele><time>2026-05-01T09:43:24.275Z</time></trkpt><trkpt lat="44.4046508" lon="7.5878648"><ele>499.5</ele><time>2026-05-01T09:43:25.275Z</time></trkpt><trkpt lat="44.4044547" lon="7.587685"><ele>500.0</ele><time>2026-05-01T09:43:26.275Z</time></trkpt><trkpt lat="44.4042553" lon="7.5875064"><ele>500.0</ele><time>2026-05-01T09:43:27.275Z</time></trkpt><trkpt lat="44.4040596" lon="7.5873238"><ele>500.0</ele><time>2026-05-01T09:43:28.275Z</time></trkpt><trkpt lat="44.403856" lon="7.5871475"><ele>500.0</ele><time>2026-05-01T09:43:29.276Z</time></trkpt><trkpt lat="44.4036563" lon="7.5869688"><ele>500.0</ele><time>2026-05-01T09:43:30.275Z</time></trkpt><trkpt lat="44.4034606" lon="7.5867834"><ele>500.0</ele><time>2026-05-01T09:43:31.275Z</time></trkpt><trkpt lat="44.40326" lon="7.5866069"><ele>500.0</ele><time>2026-05-01T09:43:32.275Z</time></trkpt><trkpt lat="44.4030615" lon="7.5864318"><ele>501.0</ele><time>2026-05-01T09:43:33.276Z</time></trkpt><trkpt lat="44.4028603" lon="7.5862624"><ele>502.0</ele><time>2026-05-01T09:43:34.275Z</time></trkpt><trkpt lat="44.4026571" lon="7.5860838"><ele>502.0</ele><time>2026-05-01T09:43:35.275Z</time></trkpt><trkpt lat="44.4024564" lon="7.5858996"><ele>502.0</ele><time>2026-05-01T09:43:36.275Z</time></trkpt><trkpt lat="44.402261" lon="7.5857156"><ele>503.5</ele><time>2026-05-01T09:43:37.275Z</time></trkpt><trkpt lat="44.4020604" lon="7.5855336"><ele>505.0</ele><time>2026-05-01T09:43:38.275Z</time></trkpt><trkpt lat="44.4018656" lon="7.5853555"><ele>505.5</ele><time>2026-05-01T09:43:39.275Z</time></trkpt><trkpt lat="44.4016706" lon="7.58518"><ele>506.0</ele><time>2026-05-01T09:43:40.275Z</time></trkpt><trkpt lat="44.401476" lon="7.585001"><ele>505.5</ele><time>2026-05-01T09:43:41.275Z</time></trkpt><trkpt lat="44.4012847" lon="7.5848279"><ele>505.0</ele><time>2026-05-01T09:43:42.276Z</time></trkpt><trkpt lat="44.4010922" lon="7.5846592"><ele>505.0</ele><time>2026-05-01T09:43:43.275Z</time></trkpt><trkpt lat="44.4009001" lon="7.5844903"><ele>505.0</ele><time>2026-05-01T09:43:44.275Z</time></trkpt><trkpt lat="44.4007144" lon="7.5843212"><ele>505.0</ele><time>2026-05-01T09:43:45.275Z</time></trkpt><trkpt lat="44.4005296" lon="7.5841517"><ele>505.6666666666667</ele><time>2026-05-01T09:43:46.275Z</time></trkpt><trkpt lat="44.4003432" lon="7.5839869"><ele>506.33333333333337</ele><time>2026-05-01T09:43:47.276Z</time></trkpt><trkpt lat="44.4001596" lon="7.5838222"><ele>507.0</ele><time>2026-05-01T09:43:48.275Z</time></trkpt><trkpt lat="44.3999805" lon="7.583653"><ele>507.0</ele><time>2026-05-01T09:43:49.275Z</time></trkpt><trkpt lat="44.3998016" lon="7.5834843"><ele>507.0</ele><time>2026-05-01T09:43:50.276Z</time></trkpt><trkpt lat="44.3996276" lon="7.5833219"><ele>507.0</ele><time>2026-05-01T09:43:51.275Z</time></trkpt><trkpt lat="44.3994562" lon="7.5831647"><ele>507.33333333333337</ele><time>2026-05-01T09:43:52.275Z</time></trkpt><trkpt lat="44.3992875" lon="7.5830069"><ele>507.6666666666667</ele><time>2026-05-01T09:43:53.275Z</time></trkpt><trkpt lat="44.3991254" lon="7.5828561"><ele>508.0</ele><time>2026-05-01T09:43:54.275Z</time></trkpt><trkpt lat="44.3989705" lon="7.5827114"><ele>508.33333333333337</ele><time>2026-05-01T09:43:55.275Z</time></trkpt><trkpt lat="44.3988252" lon="7.5825745"><ele>508.66666666666663</ele><time>2026-05-01T09:43:56.275Z</time></trkpt><trkpt lat="44.3986875" lon="7.5824535"><ele>509.0</ele><time>2026-05-01T09:43:57.275Z</time></trkpt><trkpt lat="44.3985664" lon="7.5823363"><ele>509.0</ele><time>2026-05-01T09:43:58.275Z</time></trkpt><trkpt lat="44.3984521" lon="7.5822323"><ele>509.0</ele><time>2026-05-01T09:43:59.275Z</time></trkpt><trkpt lat="44.3983443" lon="7.5821344"><ele>509.0</ele><time>2026-05-01T09:44:00.275Z</time></trkpt><trkpt lat="44.3982438" lon="7.5820401"><ele>509.0</ele><time>2026-05-01T09:44:01.276Z</time></trkpt><trkpt lat="44.3981491" lon="7.5819527"><ele>509.0</ele><time>2026-05-01T09:44:02.275Z</time></trkpt><trkpt lat="44.398061" lon="7.5818679"><ele>509.0</ele><time>2026-05-01T09:44:03.275Z</time></trkpt><trkpt lat="44.3979806" lon="7.5817959"><ele>509.0</ele><time>2026-05-01T09:44:04.275Z</time></trkpt><trkpt lat="44.397906" lon="7.5817212"><ele>509.0</ele><time>2026-05-01T09:44:05.275Z</time></trkpt><trkpt lat="44.3978487" lon="7.5816415"><ele>509.0</ele><time>2026-05-01T09:44:06.275Z</time></trkpt><trkpt lat="44.3978066" lon="7.5815519"><ele>509.16666666666663</ele><time>2026-05-01T09:44:07.275Z</time></trkpt><trkpt lat="44.3977771" lon="7.581445"><ele>509.3333333333333</ele><time>2026-05-01T09:44:08.276Z</time></trkpt><trkpt lat="44.3977486" lon="7.5813311"><ele>509.5</ele><time>2026-05-01T09:44:09.275Z</time></trkpt><trkpt lat="44.3977135" lon="7.581217"><ele>509.66666666666663</ele><time>2026-05-01T09:44:10.275Z</time></trkpt><trkpt lat="44.3976591" lon="7.5811198"><ele>509.8333333333333</ele><time>2026-05-01T09:44:11.276Z</time></trkpt><trkpt lat="44.3975752" lon="7.5810493"><ele>510.0</ele><time>2026-05-01T09:44:12.275Z</time></trkpt><trkpt lat="44.3974641" lon="7.5810314"><ele>510.0</ele><time>2026-05-01T09:44:13.276Z</time></trkpt><trkpt lat="44.3973458" lon="7.5810321"><ele>510.0</ele><time>2026-05-01T09:44:14.275Z</time></trkpt><trkpt lat="44.3972181" lon="7.5810238"><ele>510.0</ele><time>2026-05-01T09:44:15.275Z</time></trkpt><trkpt lat="44.3970885" lon="7.5809804"><ele>510.0</ele><time>2026-05-01T09:44:16.275Z</time></trkpt><trkpt lat="44.3969676" lon="7.5808875"><ele>510.5</ele><time>2026-05-01T09:44:17.275Z</time></trkpt><trkpt lat="44.3968512" lon="7.5807762"><ele>511.0</ele><time>2026-05-01T09:44:18.275Z</time></trkpt><trkpt lat="44.3967321" lon="7.5806581"><ele>511.5</ele><time>2026-05-01T09:44:19.275Z</time></trkpt><trkpt lat="44.3966058" lon="7.5805411"><ele>512.0</ele><time>2026-05-01T09:44:20.275Z</time></trkpt><trkpt lat="44.3964728" lon="7.5804181"><ele>512.3333333333333</ele><time>2026-05-01T09:44:21.276Z</time></trkpt><trkpt lat="44.3963371" lon="7.5802897"><ele>512.6666666666666</ele><time>2026-05-01T09:44:22.275Z</time></trkpt><trkpt lat="44.3961897" lon="7.5801618"><ele>513.0</ele><time>2026-05-01T09:44:23.275Z</time></trkpt><trkpt lat="44.3960437" lon="7.580014"><ele>513.3333333333334</ele><time>2026-05-01T09:44:24.275Z</time></trkpt><trkpt lat="44.3958945" lon="7.579871"><ele>513.6666666666667</ele><time>2026-05-01T09:44:25.275Z</time></trkpt><trkpt lat="44.3957409" lon="7.579729"><ele>514.0</ele><time>2026-05-01T09:44:26.275Z</time></trkpt><trkpt lat="44.3955808" lon="7.5795881"><ele>514.3333333333334</ele><time>2026-05-01T09:44:27.275Z</time></trkpt><trkpt lat="44.3954191" lon="7.5794492"><ele>514.6666666666666</ele><time>2026-05-01T09:44:28.275Z</time></trkpt><trkpt lat="44.3952615" lon="7.5792993"><ele>515.0</ele><time>2026-05-01T09:44:29.275Z</time></trkpt><trkpt lat="44.3951077" lon="7.579146"><ele>515.0</ele><time>2026-05-01T09:44:30.275Z</time></trkpt><trkpt lat="44.3949577" lon="7.5789909"><ele>515.0</ele><time>2026-05-01T09:44:31.275Z</time></trkpt><trkpt lat="44.3948167" lon="7.5788356"><ele>515.0</ele><time>2026-05-01T09:44:32.275Z</time></trkpt><trkpt lat="44.3946803" lon="7.5786727"><ele>515.6666666666666</ele><time>2026-05-01T09:44:33.275Z</time></trkpt><trkpt lat="44.3945428" lon="7.5785055"><ele>516.3333333333334</ele><time>2026-05-01T09:44:34.275Z</time></trkpt><trkpt lat="44.3943992" lon="7.5783352"><ele>517.0</ele><time>2026-05-01T09:44:35.275Z</time></trkpt><trkpt lat="44.3942553" lon="7.5781627"><ele>517.0</ele><time>2026-05-01T09:44:36.275Z</time></trkpt><trkpt lat="44.3941157" lon="7.5779919"><ele>517.0</ele><time>2026-05-01T09:44:37.275Z</time></trkpt><trkpt lat="44.3939668" lon="7.5778169"><ele>517.0</ele><time>2026-05-01T09:44:38.276Z</time></trkpt><trkpt lat="44.3938168" lon="7.5776374"><ele>516.3333333333334</ele><time>2026-05-01T09:44:39.275Z</time></trkpt><trkpt lat="44.3936723" lon="7.5774631"><ele>515.6666666666666</ele><time>2026-05-01T09:44:40.275Z</time></trkpt><trkpt lat="44.3935245" lon="7.5772903"><ele>515.0</ele><time>2026-05-01T09:44:41.275Z</time></trkpt><trkpt lat="44.3933754" lon="7.5771197"><ele>514.0</ele><time>2026-05-01T09:44:42.275Z</time></trkpt><trkpt lat="44.3932328" lon="7.5769522"><ele>513.0</ele><time>2026-05-01T09:44:43.275Z</time></trkpt><trkpt lat="44.3930948" lon="7.5767926"><ele>512.0</ele><time>2026-05-01T09:44:44.275Z</time></trkpt><trkpt lat="44.3929625" lon="7.5766396"><ele>514.0</ele><time>2026-05-01T09:44:45.275Z</time></trkpt><trkpt lat="44.3928402" lon="7.5764909"><ele>516.0</ele><time>2026-05-01T09:44:46.275Z</time></trkpt><trkpt lat="44.3927144" lon="7.5763464"><ele>518.0</ele><time>2026-05-01T09:44:47.275Z</time></trkpt><trkpt lat="44.3925837" lon="7.5762029"><ele>517.3333333333333</ele><time>2026-05-01T09:44:48.275Z</time></trkpt><trkpt lat="44.3924531" lon="7.5760556"><ele>516.6666666666666</ele><time>2026-05-01T09:44:49.275Z</time></trkpt><trkpt lat="44.3923244" lon="7.5759088"><ele>516.0</ele><time>2026-05-01T09:44:50.275Z</time></trkpt><trkpt lat="44.3921974" lon="7.5757727"><ele>517.3333333333334</ele><time>2026-05-01T09:44:51.275Z</time></trkpt><trkpt lat="44.3920667" lon="7.5756385"><ele>518.6666666666667</ele><time>2026-05-01T09:44:52.275Z</time></trkpt><trkpt lat="44.3919391" lon="7.5755162"><ele>520.0</ele><time>2026-05-01T09:44:53.275Z</time></trkpt><trkpt lat="44.3918145" lon="7.5753994"><ele>519.0</ele><time>2026-05-01T09:44:54.275Z</time></trkpt><trkpt lat="44.3916948" lon="7.5752935"><ele>518.0</ele><time>2026-05-01T09:44:55.275Z</time></trkpt><trkpt lat="44.3915869" lon="7.5751877"><ele>517.0</ele><time>2026-05-01T09:44:56.276Z</time></trkpt><trkpt lat="44.3914856" lon="7.5750838"><ele>516.0</ele><time>2026-05-01T09:44:57.275Z</time></trkpt><trkpt lat="44.3913879" lon="7.574986"><ele>516.1666666666666</ele><time>2026-05-01T09:44:58.275Z</time></trkpt><trkpt lat="44.3912974" lon="7.5748969"><ele>516.3333333333334</ele><time>2026-05-01T09:44:59.275Z</time></trkpt><trkpt lat="44.3912247" lon="7.5748202"><ele>516.5</ele><time>2026-05-01T09:45:00.275Z</time></trkpt><trkpt lat="44.3911692" lon="7.5747553"><ele>516.6666666666667</ele><time>2026-05-01T09:45:01.275Z</time></trkpt><trkpt lat="44.3911091" lon="7.5746665"><ele>516.8333333333334</ele><time>2026-05-01T09:45:03.276Z</time></trkpt><trkpt lat="44.3910707" lon="7.5745584"><ele>517.0</ele><time>2026-05-01T09:45:07.275Z</time></trkpt><trkpt lat="44.3910174" lon="7.5744325"><ele>517.0</ele><time>2026-05-01T09:45:09.275Z</time></trkpt><trkpt lat="44.3909871" lon="7.5743375"><ele>517.0</ele><time>2026-05-01T09:45:10.275Z</time></trkpt><trkpt lat="44.3909555" lon="7.5742285"><ele>517.0</ele><time>2026-05-01T09:45:11.276Z</time></trkpt><trkpt lat="44.3909207" lon="7.5741215"><ele>517.0</ele><time>2026-05-01T09:45:12.275Z</time></trkpt><trkpt lat="44.3908758" lon="7.574015"><ele>517.0</ele><time>2026-05-01T09:45:13.275Z</time></trkpt><trkpt lat="44.3908189" lon="7.5739268"><ele>517.0</ele><time>2026-05-01T09:45:14.275Z</time></trkpt><trkpt lat="44.3907431" lon="7.5738636"><ele>517.0</ele><time>2026-05-01T09:45:15.275Z</time></trkpt><trkpt lat="44.3906472" lon="7.5738147"><ele>517.0</ele><time>2026-05-01T09:45:16.275Z</time></trkpt><trkpt lat="44.3905473" lon="7.5737711"><ele>517.0</ele><time>2026-05-01T09:45:17.276Z</time></trkpt><trkpt lat="44.3904454" lon="7.573713"><ele>517.0</ele><time>2026-05-01T09:45:18.275Z</time></trkpt><trkpt lat="44.3903499" lon="7.5736266"><ele>517.0</ele><time>2026-05-01T09:45:19.275Z</time></trkpt><trkpt lat="44.390261" lon="7.5735102"><ele>516.5</ele><time>2026-05-01T09:45:20.275Z</time></trkpt><trkpt lat="44.390175" lon="7.5733703"><ele>516.0</ele><time>2026-05-01T09:45:21.275Z</time></trkpt><trkpt lat="44.390088" lon="7.5732063"><ele>515.5</ele><time>2026-05-01T09:45:22.276Z</time></trkpt><trkpt lat="44.3899969" lon="7.5730338"><ele>515.0</ele><time>2026-05-01T09:45:23.275Z</time></trkpt><trkpt lat="44.3899025" lon="7.572846"><ele>514.6666666666666</ele><time>2026-05-01T09:45:24.275Z</time></trkpt><trkpt lat="44.3898054" lon="7.5726548"><ele>514.3333333333334</ele><time>2026-05-01T09:45:25.275Z</time></trkpt><trkpt lat="44.3897053" lon="7.5724622"><ele>514.0</ele><time>2026-05-01T09:45:26.275Z</time></trkpt><trkpt lat="44.3896034" lon="7.5722777"><ele>514.0</ele><time>2026-05-01T09:45:27.275Z</time></trkpt><trkpt lat="44.389488" lon="7.5720915"><ele>514.0</ele><time>2026-05-01T09:45:28.275Z</time></trkpt><trkpt lat="44.3893759" lon="7.571918"><ele>514.0</ele><time>2026-05-01T09:45:29.275Z</time></trkpt><trkpt lat="44.3892581" lon="7.5717587"><ele>513.3333333333334</ele><time>2026-05-01T09:45:30.275Z</time></trkpt><trkpt lat="44.3891337" lon="7.5716063"><ele>512.6666666666666</ele><time>2026-05-01T09:45:31.275Z</time></trkpt><trkpt lat="44.3890075" lon="7.5714653"><ele>512.0</ele><time>2026-05-01T09:45:32.275Z</time></trkpt><trkpt lat="44.3888831" lon="7.5713354"><ele>512.25</ele><time>2026-05-01T09:45:33.276Z</time></trkpt><trkpt lat="44.3887644" lon="7.5712045"><ele>512.5</ele><time>2026-05-01T09:45:34.275Z</time></trkpt><trkpt lat="44.3886518" lon="7.5710719"><ele>512.75</ele><time>2026-05-01T09:45:35.275Z</time></trkpt><trkpt lat="44.3885364" lon="7.5709463"><ele>513.0</ele><time>2026-05-01T09:45:36.275Z</time></trkpt><trkpt lat="44.3884156" lon="7.5708169"><ele>513.3333333333334</ele><time>2026-05-01T09:45:37.276Z</time></trkpt><trkpt lat="44.3882878" lon="7.5706778"><ele>513.6666666666667</ele><time>2026-05-01T09:45:38.275Z</time></trkpt><trkpt lat="44.3881541" lon="7.570536"><ele>514.0</ele><time>2026-05-01T09:45:39.275Z</time></trkpt><trkpt lat="44.3880204" lon="7.5703981"><ele>514.0</ele><time>2026-05-01T09:45:40.275Z</time></trkpt><trkpt lat="44.3878973" lon="7.5702632"><ele>514.0</ele><time>2026-05-01T09:45:41.275Z</time></trkpt><trkpt lat="44.3877763" lon="7.5701319"><ele>514.0</ele><time>2026-05-01T09:45:42.275Z</time></trkpt><trkpt lat="44.3876635" lon="7.5700021"><ele>514.0</ele><time>2026-05-01T09:45:43.275Z</time></trkpt><trkpt lat="44.3875539" lon="7.5698829"><ele>514.0</ele><time>2026-05-01T09:45:44.275Z</time></trkpt><trkpt lat="44.3874507" lon="7.5697754"><ele>514.0</ele><time>2026-05-01T09:45:45.276Z</time></trkpt><trkpt lat="44.3873523" lon="7.5696694"><ele>514.0</ele><time>2026-05-01T09:45:46.275Z</time></trkpt><trkpt lat="44.387252" lon="7.5695678"><ele>514.5</ele><time>2026-05-01T09:45:47.275Z</time></trkpt><trkpt lat="44.3871577" lon="7.5694656"><ele>515.0</ele><time>2026-05-01T09:45:48.275Z</time></trkpt><trkpt lat="44.3870645" lon="7.5693634"><ele>515.5</ele><time>2026-05-01T09:45:49.275Z</time></trkpt><trkpt lat="44.3869701" lon="7.5692677"><ele>516.0</ele><time>2026-05-01T09:45:50.275Z</time></trkpt><trkpt lat="44.3868886" lon="7.5691776"><ele>516.0</ele><time>2026-05-01T09:45:51.275Z</time></trkpt><trkpt lat="44.3868248" lon="7.5691083"><ele>516.0</ele><time>2026-05-01T09:45:52.276Z</time></trkpt><trkpt lat="44.386775" lon="7.5690518"><ele>516.0</ele><time>2026-05-01T09:45:53.275Z</time></trkpt><trkpt lat="44.3866894" lon="7.5689995"><ele>516.0</ele><time>2026-05-01T09:45:55.275Z</time></trkpt><trkpt lat="44.3866389" lon="7.5690982"><ele>516.0</ele><time>2026-05-01T09:45:58.276Z</time></trkpt><trkpt lat="44.3866663" lon="7.5692269"><ele>516.0</ele><time>2026-05-01T09:46:00.275Z</time></trkpt><trkpt lat="44.3866919" lon="7.5693272"><ele>516.0</ele><time>2026-05-01T09:46:02.275Z</time></trkpt><trkpt lat="44.3867423" lon="7.5693953"><ele>516.0</ele><time>2026-05-01T09:46:04.275Z</time></trkpt><trkpt lat="44.3868043" lon="7.5694524"><ele>516.0</ele><time>2026-05-01T09:46:07.275Z</time></trkpt><trkpt lat="44.3868749" lon="7.5694813"><ele>516.0</ele><time>2026-05-01T09:50:47.275Z</time></trkpt><trkpt lat="44.3869665" lon="7.5695094"><ele>516.0</ele><time>2026-05-01T09:50:49.275Z</time></trkpt><trkpt lat="44.3870825" lon="7.5695272"><ele>516.0</ele><time>2026-05-01T09:50:51.275Z</time></trkpt><trkpt lat="44.3872142" lon="7.5696142"><ele>515.5</ele><time>2026-05-01T09:50:53.275Z</time></trkpt><trkpt lat="44.387299" lon="7.5696976"><ele>515.0</ele><time>2026-05-01T09:50:54.275Z</time></trkpt><trkpt lat="44.3873919" lon="7.5697969"><ele>514.5</ele><time>2026-05-01T09:50:55.275Z</time></trkpt><trkpt lat="44.3874909" lon="7.5698972"><ele>514.0</ele><time>2026-05-01T09:50:56.275Z</time></trkpt><trkpt lat="44.3876006" lon="7.5700028"><ele>514.0</ele><time>2026-05-01T09:50:57.275Z</time></trkpt><trkpt lat="44.3877104" lon="7.5701174"><ele>514.0</ele><time>2026-05-01T09:50:58.275Z</time></trkpt><trkpt lat="44.3878156" lon="7.5702303"><ele>514.0</ele><time>2026-05-01T09:50:59.275Z</time></trkpt><trkpt lat="44.3879229" lon="7.5703458"><ele>514.0</ele><time>2026-05-01T09:51:00.275Z</time></trkpt><trkpt lat="44.3880358" lon="7.5704642"><ele>514.0</ele><time>2026-05-01T09:51:01.275Z</time></trkpt><trkpt lat="44.3881452" lon="7.5705877"><ele>514.0</ele><time>2026-05-01T09:51:02.275Z</time></trkpt><trkpt lat="44.3882613" lon="7.570716"><ele>514.0</ele><time>2026-05-01T09:51:03.275Z</time></trkpt><trkpt lat="44.3883798" lon="7.5708491"><ele>514.0</ele><time>2026-05-01T09:51:04.275Z</time></trkpt><trkpt lat="44.3884987" lon="7.5709872"><ele>514.0</ele><time>2026-05-01T09:51:05.275Z</time></trkpt><trkpt lat="44.3886234" lon="7.5711305"><ele>514.0</ele><time>2026-05-01T09:51:06.275Z</time></trkpt><trkpt lat="44.3887556" lon="7.5712706"><ele>514.0</ele><time>2026-05-01T09:51:07.276Z</time></trkpt><trkpt lat="44.3888867" lon="7.5714148"><ele>513.3333333333334</ele><time>2026-05-01T09:51:08.275Z</time></trkpt><trkpt lat="44.3890157" lon="7.5715564"><ele>512.6666666666666</ele><time>2026-05-01T09:51:09.275Z</time></trkpt><trkpt lat="44.3891448" lon="7.5717101"><ele>512.0</ele><time>2026-05-01T09:51:10.275Z</time></trkpt><trkpt lat="44.3892671" lon="7.5718672"><ele>512.6666666666666</ele><time>2026-05-01T09:51:11.275Z</time></trkpt><trkpt lat="44.389384" lon="7.5720319"><ele>513.3333333333334</ele><time>2026-05-01T09:51:12.275Z</time></trkpt><trkpt lat="44.3894957" lon="7.5722084"><ele>514.0</ele><time>2026-05-01T09:51:13.275Z</time></trkpt><trkpt lat="44.3896029" lon="7.5723906"><ele>514.3333333333334</ele><time>2026-05-01T09:51:14.275Z</time></trkpt><trkpt lat="44.3897026" lon="7.5725688"><ele>514.6666666666666</ele><time>2026-05-01T09:51:15.275Z</time></trkpt><trkpt lat="44.3897946" lon="7.5727381"><ele>515.0</ele><time>2026-05-01T09:51:16.276Z</time></trkpt><trkpt lat="44.3898809" lon="7.5729092"><ele>515.0</ele><time>2026-05-01T09:51:17.275Z</time></trkpt><trkpt lat="44.3899595" lon="7.573077"><ele>515.0</ele><time>2026-05-01T09:51:18.275Z</time></trkpt><trkpt lat="44.3900327" lon="7.5732358"><ele>515.0</ele><time>2026-05-01T09:51:19.275Z</time></trkpt><trkpt lat="44.390098" lon="7.5733918"><ele>515.0</ele><time>2026-05-01T09:51:20.275Z</time></trkpt><trkpt lat="44.3901564" lon="7.5735421"><ele>516.0</ele><time>2026-05-01T09:51:21.275Z</time></trkpt><trkpt lat="44.3901984" lon="7.5736964"><ele>517.0</ele><time>2026-05-01T09:51:22.275Z</time></trkpt><trkpt lat="44.3902229" lon="7.5738599"><ele>518.0</ele><time>2026-05-01T09:51:23.275Z</time></trkpt><trkpt lat="44.3902294" lon="7.5740268"><ele>519.0</ele><time>2026-05-01T09:51:24.275Z</time></trkpt><trkpt lat="44.3902295" lon="7.5741908"><ele>519.0</ele><time>2026-05-01T09:51:25.275Z</time></trkpt><trkpt lat="44.3902345" lon="7.574352"><ele>519.0</ele><time>2026-05-01T09:51:26.275Z</time></trkpt><trkpt lat="44.3903011" lon="7.5746257"><ele>519.0</ele><time>2026-05-01T09:51:28.275Z</time></trkpt><trkpt lat="44.3903633" lon="7.574726"><ele>519.0</ele><time>2026-05-01T09:51:29.276Z</time></trkpt><trkpt lat="44.3904457" lon="7.5747896"><ele>519.0</ele><time>2026-05-01T09:51:30.275Z</time></trkpt><trkpt lat="44.3905518" lon="7.5748129"><ele>519.0</ele><time>2026-05-01T09:51:31.275Z</time></trkpt><trkpt lat="44.3906592" lon="7.5747912"><ele>519.0</ele><time>2026-05-01T09:51:32.275Z</time></trkpt><trkpt lat="44.3907571" lon="7.5747309"><ele>519.0</ele><time>2026-05-01T09:51:33.275Z</time></trkpt><trkpt lat="44.3908388" lon="7.5746323"><ele>519.0</ele><time>2026-05-01T09:51:34.275Z</time></trkpt><trkpt lat="44.3908947" lon="7.5744945"><ele>518.6</ele><time>2026-05-01T09:51:35.276Z</time></trkpt><trkpt lat="44.3909101" lon="7.5743365"><ele>518.2</ele><time>2026-05-01T09:51:36.276Z</time></trkpt><trkpt lat="44.3909017" lon="7.5741793"><ele>517.8000000000001</ele><time>2026-05-01T09:51:37.276Z</time></trkpt><trkpt lat="44.3908611" lon="7.5740391"><ele>517.4</ele><time>2026-05-01T09:51:38.275Z</time></trkpt><trkpt lat="44.3907884" lon="7.5739246"><ele>517.0</ele><time>2026-05-01T09:51:39.275Z</time></trkpt><trkpt lat="44.3906855" lon="7.573856"><ele>517.0</ele><time>2026-05-01T09:51:40.276Z</time></trkpt><trkpt lat="44.3905774" lon="7.5737976"><ele>517.0</ele><time>2026-05-01T09:51:41.275Z</time></trkpt><trkpt lat="44.390465" lon="7.5737245"><ele>517.0</ele><time>2026-05-01T09:51:42.275Z</time></trkpt><trkpt lat="44.3903548" lon="7.5736318"><ele>517.0</ele><time>2026-05-01T09:51:43.276Z</time></trkpt><trkpt lat="44.3902524" lon="7.5735106"><ele>516.5</ele><time>2026-05-01T09:51:44.275Z</time></trkpt><trkpt lat="44.390162" lon="7.5733595"><ele>516.0</ele><time>2026-05-01T09:51:45.275Z</time></trkpt><trkpt lat="44.3900778" lon="7.573188"><ele>515.5</ele><time>2026-05-01T09:51:46.275Z</time></trkpt><trkpt lat="44.3899962" lon="7.5730209"><ele>515.0</ele><time>2026-05-01T09:51:47.275Z</time></trkpt><trkpt lat="44.3899155" lon="7.5728585"><ele>514.75</ele><time>2026-05-01T09:51:48.275Z</time></trkpt><trkpt lat="44.3898343" lon="7.5726922"><ele>514.5</ele><time>2026-05-01T09:51:49.275Z</time></trkpt><trkpt lat="44.3897456" lon="7.5725324"><ele>514.25</ele><time>2026-05-01T09:51:50.275Z</time></trkpt><trkpt lat="44.3896555" lon="7.57237"><ele>514.0</ele><time>2026-05-01T09:51:51.275Z</time></trkpt><trkpt lat="44.3895635" lon="7.5722189"><ele>514.0</ele><time>2026-05-01T09:51:52.275Z</time></trkpt><trkpt lat="44.389467" lon="7.5720666"><ele>514.0</ele><time>2026-05-01T09:51:53.275Z</time></trkpt><trkpt lat="44.3893741" lon="7.5719256"><ele>514.0</ele><time>2026-05-01T09:51:54.275Z</time></trkpt><trkpt lat="44.3892776" lon="7.5717878"><ele>514.0</ele><time>2026-05-01T09:51:55.276Z</time></trkpt><trkpt lat="44.3891734" lon="7.5716518"><ele>514.0</ele><time>2026-05-01T09:51:56.275Z</time></trkpt><trkpt lat="44.3890594" lon="7.57152"><ele>514.0</ele><time>2026-05-01T09:51:57.275Z</time></trkpt><trkpt lat="44.3889484" lon="7.5713929"><ele>514.0</ele><time>2026-05-01T09:51:58.275Z</time></trkpt><trkpt lat="44.3888293" lon="7.5712655"><ele>514.0</ele><time>2026-05-01T09:51:59.275Z</time></trkpt><trkpt lat="44.3887117" lon="7.5711388"><ele>514.0</ele><time>2026-05-01T09:52:00.275Z</time></trkpt><trkpt lat="44.3885932" lon="7.5710182"><ele>514.0</ele><time>2026-05-01T09:52:01.275Z</time></trkpt><trkpt lat="44.3884809" lon="7.5708873"><ele>514.0</ele><time>2026-05-01T09:52:02.275Z</time></trkpt><trkpt lat="44.3883693" lon="7.5707581"><ele>514.0</ele><time>2026-05-01T09:52:03.276Z</time></trkpt><trkpt lat="44.3882562" lon="7.5706344"><ele>514.0</ele><time>2026-05-01T09:52:04.276Z</time></trkpt><trkpt lat="44.3881414" lon="7.5705081"><ele>514.0</ele><time>2026-05-01T09:52:05.275Z</time></trkpt><trkpt lat="44.3880208" lon="7.5703801"><ele>514.0</ele><time>2026-05-01T09:52:06.276Z</time></trkpt><trkpt lat="44.3879017" lon="7.5702535"><ele>514.0</ele><time>2026-05-01T09:52:07.275Z</time></trkpt><trkpt lat="44.3877846" lon="7.5701282"><ele>514.0</ele><time>2026-05-01T09:52:08.275Z</time></trkpt><trkpt lat="44.3876624" lon="7.569997"><ele>514.0</ele><time>2026-05-01T09:52:09.275Z</time></trkpt><trkpt lat="44.3875444" lon="7.5698671"><ele>514.0</ele><time>2026-05-01T09:52:10.275Z</time></trkpt><trkpt lat="44.3874261" lon="7.5697371"><ele>514.0</ele><time>2026-05-01T09:52:11.275Z</time></trkpt><trkpt lat="44.3873006" lon="7.569604"><ele>514.0</ele><time>2026-05-01T09:52:12.275Z</time></trkpt><trkpt lat="44.3871813" lon="7.569478"><ele>514.0</ele><time>2026-05-01T09:52:13.275Z</time></trkpt><trkpt lat="44.3870588" lon="7.5693516"><ele>514.6666666666667</ele><time>2026-05-01T09:52:14.276Z</time></trkpt><trkpt lat="44.386937" lon="7.569225"><ele>515.3333333333334</ele><time>2026-05-01T09:52:15.275Z</time></trkpt><trkpt lat="44.3868211" lon="7.5690957"><ele>516.0</ele><time>2026-05-01T09:52:16.275Z</time></trkpt><trkpt lat="44.3867003" lon="7.5689715"><ele>516.0</ele><time>2026-05-01T09:52:17.275Z</time></trkpt><trkpt lat="44.3865844" lon="7.5688437"><ele>516.0</ele><time>2026-05-01T09:52:18.275Z</time></trkpt><trkpt lat="44.3864707" lon="7.5687155"><ele>516.0</ele><time>2026-05-01T09:52:19.276Z</time></trkpt><trkpt lat="44.3863545" lon="7.5685844"><ele>516.0</ele><time>2026-05-01T09:52:20.275Z</time></trkpt><trkpt lat="44.3862362" lon="7.5684553"><ele>515.0</ele><time>2026-05-01T09:52:21.276Z</time></trkpt><trkpt lat="44.3861166" lon="7.5683221"><ele>514.0</ele><time>2026-05-01T09:52:22.275Z</time></trkpt><trkpt lat="44.3859939" lon="7.5681931"><ele>513.0</ele><time>2026-05-01T09:52:23.275Z</time></trkpt><trkpt lat="44.3858747" lon="7.5680651"><ele>513.0</ele><time>2026-05-01T09:52:24.276Z</time></trkpt><trkpt lat="44.3857578" lon="7.5679384"><ele>513.0</ele><time>2026-05-01T09:52:25.276Z</time></trkpt><trkpt lat="44.3856425" lon="7.5678146"><ele>513.0</ele><time>2026-05-01T09:52:26.275Z</time></trkpt><trkpt lat="44.3855306" lon="7.5676865"><ele>513.0</ele><time>2026-05-01T09:52:27.275Z</time></trkpt><trkpt lat="44.3854118" lon="7.567561"><ele>513.0</ele><time>2026-05-01T09:52:28.275Z</time></trkpt><trkpt lat="44.3852916" lon="7.567432"><ele>513.0</ele><time>2026-05-01T09:52:29.275Z</time></trkpt><trkpt lat="44.3851731" lon="7.5673037"><ele>513.0</ele><time>2026-05-01T09:52:30.275Z</time></trkpt><trkpt lat="44.385064" lon="7.5671819"><ele>513.0</ele><time>2026-05-01T09:52:31.275Z</time></trkpt><trkpt lat="44.3849624" lon="7.5670651"><ele>513.25</ele><time>2026-05-01T09:52:32.275Z</time></trkpt><trkpt lat="44.3848647" lon="7.5669518"><ele>513.5</ele><time>2026-05-01T09:52:33.275Z</time></trkpt><trkpt lat="44.3847747" lon="7.5668428"><ele>513.75</ele><time>2026-05-01T09:52:34.275Z</time></trkpt><trkpt lat="44.3846902" lon="7.566721"><ele>514.0</ele><time>2026-05-01T09:52:35.275Z</time></trkpt><trkpt lat="44.384621" lon="7.5665893"><ele>514.25</ele><time>2026-05-01T09:52:36.275Z</time></trkpt><trkpt lat="44.3845686" lon="7.5664444"><ele>514.5</ele><time>2026-05-01T09:52:37.275Z</time></trkpt><trkpt lat="44.3845179" lon="7.5662986"><ele>514.75</ele><time>2026-05-01T09:52:38.275Z</time></trkpt><trkpt lat="44.3844515" lon="7.5661623"><ele>515.0</ele><time>2026-05-01T09:52:39.275Z</time></trkpt><trkpt lat="44.3843592" lon="7.5660568"><ele>515.0</ele><time>2026-05-01T09:52:40.275Z</time></trkpt><trkpt lat="44.3842588" lon="7.5659748"><ele>515.0</ele><time>2026-05-01T09:52:41.275Z</time></trkpt><trkpt lat="44.3841469" lon="7.5659026"><ele>515.0</ele><time>2026-05-01T09:52:42.275Z</time></trkpt><trkpt lat="44.3840384" lon="7.5657998"><ele>515.0</ele><time>2026-05-01T09:52:43.275Z</time></trkpt><trkpt lat="44.3839458" lon="7.5656661"><ele>515.0</ele><time>2026-05-01T09:52:44.275Z</time></trkpt><trkpt lat="44.3838599" lon="7.5655142"><ele>515.0</ele><time>2026-05-01T09:52:45.275Z</time></trkpt><trkpt lat="44.3837905" lon="7.5653441"><ele>515.0</ele><time>2026-05-01T09:52:46.276Z</time></trkpt><trkpt lat="44.383742" lon="7.5651651"><ele>515.0</ele><time>2026-05-01T09:52:47.275Z</time></trkpt><trkpt lat="44.3836893" lon="7.5649811"><ele>515.25</ele><time>2026-05-01T09:52:48.276Z</time></trkpt><trkpt lat="44.3836399" lon="7.5647998"><ele>515.5</ele><time>2026-05-01T09:52:49.275Z</time></trkpt><trkpt lat="44.3835919" lon="7.5646199"><ele>515.75</ele><time>2026-05-01T09:52:50.275Z</time></trkpt><trkpt lat="44.3835458" lon="7.5644401"><ele>516.0</ele><time>2026-05-01T09:52:51.276Z</time></trkpt><trkpt lat="44.3835035" lon="7.5642588"><ele>515.5</ele><time>2026-05-01T09:52:52.275Z</time></trkpt><trkpt lat="44.3834702" lon="7.5640802"><ele>515.0</ele><time>2026-05-01T09:52:53.275Z</time></trkpt><trkpt lat="44.3834339" lon="7.5638901"><ele>514.5</ele><time>2026-05-01T09:52:54.276Z</time></trkpt><trkpt lat="44.3834029" lon="7.5636969"><ele>514.0</ele><time>2026-05-01T09:52:55.275Z</time></trkpt><trkpt lat="44.383362" lon="7.5635094"><ele>514.0</ele><time>2026-05-01T09:52:56.275Z</time></trkpt><trkpt lat="44.3833203" lon="7.5633163"><ele>514.0</ele><time>2026-05-01T09:52:57.275Z</time></trkpt><trkpt lat="44.3832798" lon="7.563125"><ele>514.0</ele><time>2026-05-01T09:52:58.275Z</time></trkpt><trkpt lat="44.38324" lon="7.562946"><ele>514.0</ele><time>2026-05-01T09:52:59.276Z</time></trkpt><trkpt lat="44.3832016" lon="7.5627753"><ele>514.75</ele><time>2026-05-01T09:53:00.275Z</time></trkpt><trkpt lat="44.383163" lon="7.5626089"><ele>515.5</ele><time>2026-05-01T09:53:01.275Z</time></trkpt><trkpt lat="44.3831291" lon="7.5624444"><ele>516.25</ele><time>2026-05-01T09:53:02.276Z</time></trkpt><trkpt lat="44.383099" lon="7.5622847"><ele>517.0</ele><time>2026-05-01T09:53:03.275Z</time></trkpt><trkpt lat="44.3830668" lon="7.5621358"><ele>517.0</ele><time>2026-05-01T09:53:04.276Z</time></trkpt><trkpt lat="44.3830381" lon="7.5619973"><ele>517.0</ele><time>2026-05-01T09:53:05.276Z</time></trkpt><trkpt lat="44.3830171" lon="7.5618688"><ele>517.0</ele><time>2026-05-01T09:53:06.276Z</time></trkpt><trkpt lat="44.3829929" lon="7.5617457"><ele>517.0</ele><time>2026-05-01T09:53:07.275Z</time></trkpt><trkpt lat="44.3829716" lon="7.5616304"><ele>517.0</ele><time>2026-05-01T09:53:08.275Z</time></trkpt><trkpt lat="44.3829504" lon="7.5615164"><ele>517.0</ele><time>2026-05-01T09:53:09.275Z</time></trkpt><trkpt lat="44.3829377" lon="7.5614047"><ele>517.0</ele><time>2026-05-01T09:53:10.275Z</time></trkpt><trkpt lat="44.3829453" lon="7.561293"><ele>517.0</ele><time>2026-05-01T09:53:11.275Z</time></trkpt><trkpt lat="44.3829628" lon="7.5611706"><ele>517.0</ele><time>2026-05-01T09:53:12.275Z</time></trkpt><trkpt lat="44.3829876" lon="7.561053"><ele>517.0</ele><time>2026-05-01T09:53:13.275Z</time></trkpt><trkpt lat="44.3830142" lon="7.5609344"><ele>517.0</ele><time>2026-05-01T09:53:14.276Z</time></trkpt><trkpt lat="44.3830327" lon="7.560828"><ele>516.8000000000001</ele><time>2026-05-01T09:53:15.275Z</time></trkpt><trkpt lat="44.3830332" lon="7.5607161"><ele>516.6</ele><time>2026-05-01T09:53:16.275Z</time></trkpt><trkpt lat="44.383015" lon="7.5605883"><ele>516.4000000000001</ele><time>2026-05-01T09:53:17.275Z</time></trkpt><trkpt lat="44.3829738" lon="7.5604747"><ele>516.2</ele><time>2026-05-01T09:53:18.275Z</time></trkpt><trkpt lat="44.3828989" lon="7.5603899"><ele>516.0</ele><time>2026-05-01T09:53:19.275Z</time></trkpt><trkpt lat="44.3827998" lon="7.5603444"><ele>515.8</ele><time>2026-05-01T09:53:20.275Z</time></trkpt><trkpt lat="44.3826904" lon="7.5603421"><ele>515.6</ele><time>2026-05-01T09:53:21.275Z</time></trkpt><trkpt lat="44.3825763" lon="7.5603477"><ele>515.4</ele><time>2026-05-01T09:53:22.275Z</time></trkpt><trkpt lat="44.3824663" lon="7.5603459"><ele>515.2</ele><time>2026-05-01T09:53:23.275Z</time></trkpt><trkpt lat="44.3823516" lon="7.5603251"><ele>515.0</ele><time>2026-05-01T09:53:24.275Z</time></trkpt><trkpt lat="44.3822302" lon="7.5602745"><ele>516.0</ele><time>2026-05-01T09:53:25.275Z</time></trkpt><trkpt lat="44.3821072" lon="7.5601951"><ele>517.0</ele><time>2026-05-01T09:53:26.275Z</time></trkpt><trkpt lat="44.3819915" lon="7.5600991"><ele>518.0</ele><time>2026-05-01T09:53:27.275Z</time></trkpt><trkpt lat="44.3818715" lon="7.5599918"><ele>519.0</ele><time>2026-05-01T09:53:28.275Z</time></trkpt><trkpt lat="44.381742" lon="7.5598779"><ele>519.0</ele><time>2026-05-01T09:53:29.276Z</time></trkpt><trkpt lat="44.3815993" lon="7.5597611"><ele>519.0</ele><time>2026-05-01T09:53:30.275Z</time></trkpt><trkpt lat="44.3814511" lon="7.5596451"><ele>519.0</ele><time>2026-05-01T09:53:31.275Z</time></trkpt><trkpt lat="44.3813033" lon="7.5595286"><ele>519.6666666666666</ele><time>2026-05-01T09:53:32.275Z</time></trkpt><trkpt lat="44.3811545" lon="7.559401"><ele>520.3333333333333</ele><time>2026-05-01T09:53:33.275Z</time></trkpt><trkpt lat="44.3809998" lon="7.5592708"><ele>521.0</ele><time>2026-05-01T09:53:34.275Z</time></trkpt><trkpt lat="44.3808476" lon="7.5591436"><ele>521.0</ele><time>2026-05-01T09:53:35.275Z</time></trkpt><trkpt lat="44.380689" lon="7.5590225"><ele>521.0</ele><time>2026-05-01T09:53:36.275Z</time></trkpt><trkpt lat="44.3805321" lon="7.5588968"><ele>521.0</ele><time>2026-05-01T09:53:37.275Z</time></trkpt><trkpt lat="44.3803751" lon="7.5587645"><ele>520.6666666666666</ele><time>2026-05-01T09:53:38.275Z</time></trkpt><trkpt lat="44.3802153" lon="7.558631"><ele>520.3333333333334</ele><time>2026-05-01T09:53:39.275Z</time></trkpt><trkpt lat="44.3800521" lon="7.5585001"><ele>520.0</ele><time>2026-05-01T09:53:40.275Z</time></trkpt><trkpt lat="44.3798868" lon="7.5583639"><ele>520.0</ele><time>2026-05-01T09:53:41.276Z</time></trkpt><trkpt lat="44.3797213" lon="7.5582284"><ele>520.0</ele><time>2026-05-01T09:53:42.276Z</time></trkpt><trkpt lat="44.3795545" lon="7.5580888"><ele>520.0</ele><time>2026-05-01T09:53:43.275Z</time></trkpt><trkpt lat="44.3793833" lon="7.5579444"><ele>520.6666666666667</ele><time>2026-05-01T09:53:44.275Z</time></trkpt><trkpt lat="44.379207" lon="7.5578019"><ele>521.3333333333334</ele><time>2026-05-01T09:53:45.275Z</time></trkpt><trkpt lat="44.3790347" lon="7.5576509"><ele>522.0</ele><time>2026-05-01T09:53:46.275Z</time></trkpt><trkpt lat="44.378854" lon="7.5575018"><ele>522.6666666666666</ele><time>2026-05-01T09:53:47.275Z</time></trkpt><trkpt lat="44.378675" lon="7.5573553"><ele>523.3333333333333</ele><time>2026-05-01T09:53:48.276Z</time></trkpt><trkpt lat="44.3784977" lon="7.5572099"><ele>524.0</ele><time>2026-05-01T09:53:49.275Z</time></trkpt><trkpt lat="44.3783181" lon="7.5570648"><ele>523.3333333333333</ele><time>2026-05-01T09:53:50.275Z</time></trkpt><trkpt lat="44.3781354" lon="7.55691"><ele>522.6666666666666</ele><time>2026-05-01T09:53:51.275Z</time></trkpt><trkpt lat="44.3779488" lon="7.5567668"><ele>522.0</ele><time>2026-05-01T09:53:52.275Z</time></trkpt><trkpt lat="44.3777647" lon="7.5566205"><ele>522.0</ele><time>2026-05-01T09:53:53.275Z</time></trkpt><trkpt lat="44.3775757" lon="7.5564645"><ele>522.0</ele><time>2026-05-01T09:53:54.275Z</time></trkpt><trkpt lat="44.3773856" lon="7.5563105"><ele>522.0</ele><time>2026-05-01T09:53:55.275Z</time></trkpt><trkpt lat="44.3771966" lon="7.556154"><ele>522.6666666666666</ele><time>2026-05-01T09:53:56.275Z</time></trkpt><trkpt lat="44.3770026" lon="7.5560058"><ele>523.3333333333333</ele><time>2026-05-01T09:53:57.275Z</time></trkpt><trkpt lat="44.3768066" lon="7.5558585"><ele>524.0</ele><time>2026-05-01T09:53:58.275Z</time></trkpt><trkpt lat="44.3766077" lon="7.5557134"><ele>524.0</ele><time>2026-05-01T09:53:59.275Z</time></trkpt><trkpt lat="44.3764017" lon="7.5555667"><ele>524.0</ele><time>2026-05-01T09:54:00.275Z</time></trkpt><trkpt lat="44.3761992" lon="7.5554237"><ele>524.5</ele><time>2026-05-01T09:54:01.275Z</time></trkpt><trkpt lat="44.3759931" lon="7.5552846"><ele>525.0</ele><time>2026-05-01T09:54:02.275Z</time></trkpt><trkpt lat="44.3757861" lon="7.5551524"><ele>525.0</ele><time>2026-05-01T09:54:03.275Z</time></trkpt><trkpt lat="44.3755722" lon="7.5550201"><ele>525.0</ele><time>2026-05-01T09:54:04.275Z</time></trkpt><trkpt lat="44.3753575" lon="7.5548908"><ele>525.5</ele><time>2026-05-01T09:54:05.275Z</time></trkpt><trkpt lat="44.3751441" lon="7.554768"><ele>526.0</ele><time>2026-05-01T09:54:06.275Z</time></trkpt><trkpt lat="44.3749365" lon="7.55465"><ele>526.0</ele><time>2026-05-01T09:54:07.275Z</time></trkpt><trkpt lat="44.3747342" lon="7.5545398"><ele>526.0</ele><time>2026-05-01T09:54:08.275Z</time></trkpt><trkpt lat="44.3745328" lon="7.5544393"><ele>526.0</ele><time>2026-05-01T09:54:09.275Z</time></trkpt><trkpt lat="44.3743303" lon="7.554341"><ele>526.6666666666667</ele><time>2026-05-01T09:54:10.275Z</time></trkpt><trkpt lat="44.3741329" lon="7.554245"><ele>527.3333333333334</ele><time>2026-05-01T09:54:11.275Z</time></trkpt><trkpt lat="44.3739414" lon="7.5541596"><ele>528.0</ele><time>2026-05-01T09:54:12.275Z</time></trkpt><trkpt lat="44.3737579" lon="7.5540786"><ele>528.6666666666666</ele><time>2026-05-01T09:54:13.275Z</time></trkpt><trkpt lat="44.3735868" lon="7.5540045"><ele>529.3333333333333</ele><time>2026-05-01T09:54:14.275Z</time></trkpt><trkpt lat="44.3734159" lon="7.5539321"><ele>530.0</ele><time>2026-05-01T09:54:15.275Z</time></trkpt><trkpt lat="44.3732427" lon="7.5538602"><ele>530.0</ele><time>2026-05-01T09:54:16.275Z</time></trkpt><trkpt lat="44.3730622" lon="7.5537898"><ele>530.0</ele><time>2026-05-01T09:54:17.275Z</time></trkpt><trkpt lat="44.3728819" lon="7.553719"><ele>530.0</ele><time>2026-05-01T09:54:18.275Z</time></trkpt><trkpt lat="44.3727064" lon="7.553649"><ele>530.0</ele><time>2026-05-01T09:54:19.275Z</time></trkpt><trkpt lat="44.3725328" lon="7.5535797"><ele>530.0</ele><time>2026-05-01T09:54:20.275Z</time></trkpt><trkpt lat="44.3723621" lon="7.5535232"><ele>530.0</ele><time>2026-05-01T09:54:21.275Z</time></trkpt><trkpt lat="44.3721834" lon="7.5534757"><ele>530.0</ele><time>2026-05-01T09:54:22.275Z</time></trkpt><trkpt lat="44.3720006" lon="7.5534218"><ele>530.0</ele><time>2026-05-01T09:54:23.275Z</time></trkpt><trkpt lat="44.3718156" lon="7.553364"><ele>530.0</ele><time>2026-05-01T09:54:24.276Z</time></trkpt><trkpt lat="44.3716256" lon="7.5533013"><ele>530.0</ele><time>2026-05-01T09:54:25.275Z</time></trkpt><trkpt lat="44.3714332" lon="7.5532319"><ele>530.0</ele><time>2026-05-01T09:54:26.276Z</time></trkpt><trkpt lat="44.3712323" lon="7.5531627"><ele>530.0</ele><time>2026-05-01T09:54:27.276Z</time></trkpt><trkpt lat="44.3710332" lon="7.5530969"><ele>531.6666666666666</ele><time>2026-05-01T09:54:28.275Z</time></trkpt><trkpt lat="44.3708363" lon="7.5530304"><ele>533.3333333333334</ele><time>2026-05-01T09:54:29.275Z</time></trkpt><trkpt lat="44.3706393" lon="7.5529665"><ele>535.0</ele><time>2026-05-01T09:54:30.276Z</time></trkpt><trkpt lat="44.3704339" lon="7.5528974"><ele>534.0</ele><time>2026-05-01T09:54:31.275Z</time></trkpt><trkpt lat="44.3702166" lon="7.5528342"><ele>533.0</ele><time>2026-05-01T09:54:32.275Z</time></trkpt><trkpt lat="44.3699916" lon="7.5527727"><ele>533.0</ele><time>2026-05-01T09:54:33.275Z</time></trkpt><trkpt lat="44.3697641" lon="7.5526968"><ele>533.0</ele><time>2026-05-01T09:54:34.275Z</time></trkpt><trkpt lat="44.369535" lon="7.5526157"><ele>535.5</ele><time>2026-05-01T09:54:35.276Z</time></trkpt><trkpt lat="44.3692986" lon="7.552533"><ele>538.0</ele><time>2026-05-01T09:54:36.275Z</time></trkpt><trkpt lat="44.3690529" lon="7.5524509"><ele>538.5</ele><time>2026-05-01T09:54:37.276Z</time></trkpt><trkpt lat="44.3688088" lon="7.5523747"><ele>539.0</ele><time>2026-05-01T09:54:38.275Z</time></trkpt><trkpt lat="44.3685626" lon="7.5522995"><ele>539.0</ele><time>2026-05-01T09:54:39.275Z</time></trkpt><trkpt lat="44.3683187" lon="7.5522315"><ele>539.0</ele><time>2026-05-01T09:54:40.275Z</time></trkpt><trkpt lat="44.3680823" lon="7.5521598"><ele>539.5</ele><time>2026-05-01T09:54:41.276Z</time></trkpt><trkpt lat="44.3678472" lon="7.5520976"><ele>540.0</ele><time>2026-05-01T09:54:42.276Z</time></trkpt><trkpt lat="44.3675919" lon="7.5520555"><ele>540.0</ele><time>2026-05-01T09:54:43.275Z</time></trkpt><trkpt lat="44.3673485" lon="7.5519849"><ele>540.0</ele><time>2026-05-01T09:54:44.275Z</time></trkpt><trkpt lat="44.367117" lon="7.5518895"><ele>540.0</ele><time>2026-05-01T09:54:45.276Z</time></trkpt><trkpt lat="44.3668815" lon="7.5517719"><ele>540.0</ele><time>2026-05-01T09:54:46.275Z</time></trkpt><trkpt lat="44.3666537" lon="7.5516769"><ele>540.0</ele><time>2026-05-01T09:54:47.276Z</time></trkpt><trkpt lat="44.3664257" lon="7.5515975"><ele>540.0</ele><time>2026-05-01T09:54:48.276Z</time></trkpt><trkpt lat="44.3662027" lon="7.5515198"><ele>542.0</ele><time>2026-05-01T09:54:49.275Z</time></trkpt><trkpt lat="44.3659697" lon="7.55145"><ele>544.0</ele><time>2026-05-01T09:54:50.275Z</time></trkpt><trkpt lat="44.3657349" lon="7.5513721"><ele>543.5</ele><time>2026-05-01T09:54:51.276Z</time></trkpt><trkpt lat="44.3654983" lon="7.5512909"><ele>543.0</ele><time>2026-05-01T09:54:52.275Z</time></trkpt><trkpt lat="44.3652585" lon="7.5512134"><ele>543.0</ele><time>2026-05-01T09:54:53.275Z</time></trkpt><trkpt lat="44.3650138" lon="7.551135"><ele>543.0</ele><time>2026-05-01T09:54:54.275Z</time></trkpt><trkpt lat="44.3647701" lon="7.5510622"><ele>544.5</ele><time>2026-05-01T09:54:55.275Z</time></trkpt><trkpt lat="44.3645266" lon="7.550982"><ele>546.0</ele><time>2026-05-01T09:54:56.276Z</time></trkpt><trkpt lat="44.364282" lon="7.5509033"><ele>546.0</ele><time>2026-05-01T09:54:57.275Z</time></trkpt><trkpt lat="44.36404" lon="7.550825"><ele>546.0</ele><time>2026-05-01T09:54:58.275Z</time></trkpt><trkpt lat="44.3637996" lon="7.5507481"><ele>545.5</ele><time>2026-05-01T09:54:59.276Z</time></trkpt><trkpt lat="44.3635595" lon="7.5506709"><ele>545.0</ele><time>2026-05-01T09:55:00.275Z</time></trkpt><trkpt lat="44.3633182" lon="7.5505956"><ele>545.0</ele><time>2026-05-01T09:55:01.275Z</time></trkpt><trkpt lat="44.3630824" lon="7.550515"><ele>545.0</ele><time>2026-05-01T09:55:02.275Z</time></trkpt><trkpt lat="44.3628447" lon="7.5504369"><ele>546.5</ele><time>2026-05-01T09:55:03.276Z</time></trkpt><trkpt lat="44.3626065" lon="7.550353"><ele>548.0</ele><time>2026-05-01T09:55:04.275Z</time></trkpt><trkpt lat="44.362367" lon="7.5502808"><ele>548.0</ele><time>2026-05-01T09:55:05.275Z</time></trkpt><trkpt lat="44.3621255" lon="7.5502085"><ele>548.0</ele><time>2026-05-01T09:55:06.276Z</time></trkpt><trkpt lat="44.3618895" lon="7.5501284"><ele>548.0</ele><time>2026-05-01T09:55:07.275Z</time></trkpt><trkpt lat="44.3616518" lon="7.5500485"><ele>548.0</ele><time>2026-05-01T09:55:08.275Z</time></trkpt><trkpt lat="44.3614164" lon="7.5499717"><ele>548.0</ele><time>2026-05-01T09:55:09.275Z</time></trkpt><trkpt lat="44.3611841" lon="7.5498988"><ele>548.0</ele><time>2026-05-01T09:55:10.275Z</time></trkpt><trkpt lat="44.3609526" lon="7.5498261"><ele>548.0</ele><time>2026-05-01T09:55:11.275Z</time></trkpt><trkpt lat="44.3607197" lon="7.5497458"><ele>548.0</ele><time>2026-05-01T09:55:12.275Z</time></trkpt><trkpt lat="44.3604852" lon="7.5496673"><ele>549.5</ele><time>2026-05-01T09:55:13.275Z</time></trkpt><trkpt lat="44.3602475" lon="7.5495903"><ele>551.0</ele><time>2026-05-01T09:55:14.276Z</time></trkpt><trkpt lat="44.3600107" lon="7.5495122"><ele>551.0</ele><time>2026-05-01T09:55:15.275Z</time></trkpt><trkpt lat="44.3597797" lon="7.5494368"><ele>551.0</ele><time>2026-05-01T09:55:16.275Z</time></trkpt><trkpt lat="44.3595514" lon="7.5493618"><ele>551.5</ele><time>2026-05-01T09:55:17.276Z</time></trkpt><trkpt lat="44.3593204" lon="7.5492882"><ele>552.0</ele><time>2026-05-01T09:55:18.275Z</time></trkpt><trkpt lat="44.359093" lon="7.5492121"><ele>553.5</ele><time>2026-05-01T09:55:19.275Z</time></trkpt><trkpt lat="44.3588663" lon="7.5491369"><ele>555.0</ele><time>2026-05-01T09:55:20.275Z</time></trkpt><trkpt lat="44.3586411" lon="7.5490633"><ele>555.0</ele><time>2026-05-01T09:55:21.275Z</time></trkpt><trkpt lat="44.3584191" lon="7.54899"><ele>555.0</ele><time>2026-05-01T09:55:22.275Z</time></trkpt><trkpt lat="44.3581918" lon="7.5489167"><ele>558.5</ele><time>2026-05-01T09:55:23.275Z</time></trkpt><trkpt lat="44.357962" lon="7.5488419"><ele>562.0</ele><time>2026-05-01T09:55:24.275Z</time></trkpt><trkpt lat="44.357736" lon="7.5487663"><ele>559.5</ele><time>2026-05-01T09:55:25.275Z</time></trkpt><trkpt lat="44.3575127" lon="7.5486919"><ele>557.0</ele><time>2026-05-01T09:55:26.276Z</time></trkpt><trkpt lat="44.3572877" lon="7.5486164"><ele>560.5</ele><time>2026-05-01T09:55:27.275Z</time></trkpt><trkpt lat="44.3570618" lon="7.5485434"><ele>564.0</ele><time>2026-05-01T09:55:28.275Z</time></trkpt><trkpt lat="44.3568294" lon="7.5484611"><ele>564.0</ele><time>2026-05-01T09:55:29.275Z</time></trkpt><trkpt lat="44.3566027" lon="7.5483853"><ele>564.0</ele><time>2026-05-01T09:55:30.275Z</time></trkpt><trkpt lat="44.3563778" lon="7.5483126"><ele>563.5</ele><time>2026-05-01T09:55:31.275Z</time></trkpt><trkpt lat="44.35615" lon="7.5482407"><ele>563.0</ele><time>2026-05-01T09:55:32.275Z</time></trkpt><trkpt lat="44.355922" lon="7.548164"><ele>563.0</ele><time>2026-05-01T09:55:33.275Z</time></trkpt><trkpt lat="44.355692" lon="7.5480915"><ele>563.0</ele><time>2026-05-01T09:55:34.275Z</time></trkpt><trkpt lat="44.3554614" lon="7.5480204"><ele>564.0</ele><time>2026-05-01T09:55:35.275Z</time></trkpt><trkpt lat="44.3552358" lon="7.5479488"><ele>565.0</ele><time>2026-05-01T09:55:36.275Z</time></trkpt><trkpt lat="44.3550119" lon="7.5478692"><ele>565.5</ele><time>2026-05-01T09:55:37.275Z</time></trkpt><trkpt lat="44.3547842" lon="7.5477949"><ele>566.0</ele><time>2026-05-01T09:55:38.276Z</time></trkpt><trkpt lat="44.3545504" lon="7.5477206"><ele>566.5</ele><time>2026-05-01T09:55:39.275Z</time></trkpt><trkpt lat="44.3543168" lon="7.5476408"><ele>567.0</ele><time>2026-05-01T09:55:40.275Z</time></trkpt><trkpt lat="44.3540747" lon="7.547565"><ele>566.5</ele><time>2026-05-01T09:55:41.275Z</time></trkpt><trkpt lat="44.3538285" lon="7.5474898"><ele>566.0</ele><time>2026-05-01T09:55:42.275Z</time></trkpt><trkpt lat="44.3535889" lon="7.5474105"><ele>566.0</ele><time>2026-05-01T09:55:43.275Z</time></trkpt><trkpt lat="44.3533502" lon="7.5473386"><ele>566.0</ele><time>2026-05-01T09:55:44.276Z</time></trkpt><trkpt lat="44.3531106" lon="7.5472655"><ele>566.5</ele><time>2026-05-01T09:55:45.275Z</time></trkpt><trkpt lat="44.3528749" lon="7.5471936"><ele>567.0</ele><time>2026-05-01T09:55:46.275Z</time></trkpt><trkpt lat="44.35264" lon="7.5471164"><ele>568.0</ele><time>2026-05-01T09:55:47.275Z</time></trkpt><trkpt lat="44.352412" lon="7.5470373"><ele>569.0</ele><time>2026-05-01T09:55:48.276Z</time></trkpt><trkpt lat="44.3521805" lon="7.5469653"><ele>569.5</ele><time>2026-05-01T09:55:49.275Z</time></trkpt><trkpt lat="44.3519481" lon="7.5468909"><ele>570.0</ele><time>2026-05-01T09:55:50.275Z</time></trkpt><trkpt lat="44.3517088" lon="7.5468201"><ele>570.0</ele><time>2026-05-01T09:55:51.275Z</time></trkpt><trkpt lat="44.3514773" lon="7.5467551"><ele>570.0</ele><time>2026-05-01T09:55:52.275Z</time></trkpt><trkpt lat="44.3512426" lon="7.5466938"><ele>571.0</ele><time>2026-05-01T09:55:53.275Z</time></trkpt><trkpt lat="44.3510048" lon="7.5466293"><ele>572.0</ele><time>2026-05-01T09:55:54.275Z</time></trkpt><trkpt lat="44.3507666" lon="7.5465715"><ele>571.0</ele><time>2026-05-01T09:55:55.276Z</time></trkpt><trkpt lat="44.350528" lon="7.5465183"><ele>570.0</ele><time>2026-05-01T09:55:56.275Z</time></trkpt><trkpt lat="44.3502827" lon="7.5464623"><ele>570.0</ele><time>2026-05-01T09:55:57.275Z</time></trkpt><trkpt lat="44.3500433" lon="7.5464042"><ele>570.0</ele><time>2026-05-01T09:55:58.275Z</time></trkpt><trkpt lat="44.3498019" lon="7.546361"><ele>570.5</ele><time>2026-05-01T09:55:59.276Z</time></trkpt><trkpt lat="44.349566" lon="7.5463185"><ele>571.0</ele><time>2026-05-01T09:56:00.275Z</time></trkpt><trkpt lat="44.3493308" lon="7.5462754"><ele>571.0</ele><time>2026-05-01T09:56:01.275Z</time></trkpt><trkpt lat="44.3490885" lon="7.5462306"><ele>571.0</ele><time>2026-05-01T09:56:02.275Z</time></trkpt><trkpt lat="44.3488469" lon="7.5461969"><ele>571.0</ele><time>2026-05-01T09:56:03.275Z</time></trkpt><trkpt lat="44.348608" lon="7.5461672"><ele>571.0</ele><time>2026-05-01T09:56:04.275Z</time></trkpt><trkpt lat="44.348367" lon="7.5461303"><ele>571.0</ele><time>2026-05-01T09:56:05.275Z</time></trkpt><trkpt lat="44.3481225" lon="7.5460974"><ele>571.0</ele><time>2026-05-01T09:56:06.275Z</time></trkpt><trkpt lat="44.347876" lon="7.5460585"><ele>571.0</ele><time>2026-05-01T09:56:07.275Z</time></trkpt><trkpt lat="44.3476325" lon="7.5460299"><ele>571.0</ele><time>2026-05-01T09:56:08.275Z</time></trkpt><trkpt lat="44.3473911" lon="7.5460016"><ele>571.0</ele><time>2026-05-01T09:56:09.275Z</time></trkpt><trkpt lat="44.3471637" lon="7.5459747"><ele>571.0</ele><time>2026-05-01T09:56:10.275Z</time></trkpt><trkpt lat="44.3469345" lon="7.5459508"><ele>571.0</ele><time>2026-05-01T09:56:11.275Z</time></trkpt><trkpt lat="44.3467033" lon="7.5459162"><ele>571.0</ele><time>2026-05-01T09:56:12.276Z</time></trkpt><trkpt lat="44.3464746" lon="7.5458813"><ele>571.5</ele><time>2026-05-01T09:56:13.275Z</time></trkpt><trkpt lat="44.3462449" lon="7.5458519"><ele>572.0</ele><time>2026-05-01T09:56:14.275Z</time></trkpt><trkpt lat="44.3460164" lon="7.5458234"><ele>572.0</ele><time>2026-05-01T09:56:15.275Z</time></trkpt><trkpt lat="44.3457878" lon="7.5457922"><ele>572.0</ele><time>2026-05-01T09:56:16.275Z</time></trkpt><trkpt lat="44.3455566" lon="7.5457606"><ele>572.5</ele><time>2026-05-01T09:56:17.275Z</time></trkpt><trkpt lat="44.345322" lon="7.5457276"><ele>573.0</ele><time>2026-05-01T09:56:18.275Z</time></trkpt><trkpt lat="44.3450869" lon="7.5456942"><ele>573.0</ele><time>2026-05-01T09:56:19.275Z</time></trkpt><trkpt lat="44.3448519" lon="7.5456594"><ele>573.0</ele><time>2026-05-01T09:56:20.275Z</time></trkpt><trkpt lat="44.3446166" lon="7.5456245"><ele>573.5</ele><time>2026-05-01T09:56:21.275Z</time></trkpt><trkpt lat="44.3443817" lon="7.5455909"><ele>574.0</ele><time>2026-05-01T09:56:22.275Z</time></trkpt><trkpt lat="44.3441516" lon="7.545559"><ele>574.0</ele><time>2026-05-01T09:56:23.275Z</time></trkpt><trkpt lat="44.3439249" lon="7.5455288"><ele>574.0</ele><time>2026-05-01T09:56:24.275Z</time></trkpt><trkpt lat="44.3437044" lon="7.5455044"><ele>574.0</ele><time>2026-05-01T09:56:25.275Z</time></trkpt><trkpt lat="44.3434933" lon="7.5454782"><ele>574.0</ele><time>2026-05-01T09:56:26.275Z</time></trkpt><trkpt lat="44.3432823" lon="7.5454503"><ele>574.0</ele><time>2026-05-01T09:56:27.276Z</time></trkpt><trkpt lat="44.3430699" lon="7.5454221"><ele>574.0</ele><time>2026-05-01T09:56:28.275Z</time></trkpt><trkpt lat="44.342857" lon="7.5453868"><ele>574.6666666666667</ele><time>2026-05-01T09:56:29.275Z</time></trkpt><trkpt lat="44.3426468" lon="7.5453545"><ele>575.3333333333334</ele><time>2026-05-01T09:56:30.276Z</time></trkpt><trkpt lat="44.3424428" lon="7.5453299"><ele>576.0</ele><time>2026-05-01T09:56:31.275Z</time></trkpt><trkpt lat="44.3422476" lon="7.5453037"><ele>576.0</ele><time>2026-05-01T09:56:32.275Z</time></trkpt><trkpt lat="44.3420594" lon="7.54528"><ele>576.0</ele><time>2026-05-01T09:56:33.275Z</time></trkpt><trkpt lat="44.3418772" lon="7.5452511"><ele>576.0</ele><time>2026-05-01T09:56:34.275Z</time></trkpt><trkpt lat="44.3417052" lon="7.5452187"><ele>576.0</ele><time>2026-05-01T09:56:35.275Z</time></trkpt><trkpt lat="44.3415344" lon="7.5451975"><ele>576.0</ele><time>2026-05-01T09:56:36.275Z</time></trkpt><trkpt lat="44.3413649" lon="7.5451816"><ele>576.0</ele><time>2026-05-01T09:56:37.275Z</time></trkpt><trkpt lat="44.3411936" lon="7.5451594"><ele>576.6666666666666</ele><time>2026-05-01T09:56:38.275Z</time></trkpt><trkpt lat="44.3410221" lon="7.5451341"><ele>577.3333333333333</ele><time>2026-05-01T09:56:39.275Z</time></trkpt><trkpt lat="44.3408565" lon="7.5451106"><ele>578.0</ele><time>2026-05-01T09:56:40.275Z</time></trkpt><trkpt lat="44.3406949" lon="7.5450887"><ele>578.0</ele><time>2026-05-01T09:56:41.275Z</time></trkpt><trkpt lat="44.3405407" lon="7.5450594"><ele>578.0</ele><time>2026-05-01T09:56:42.275Z</time></trkpt><trkpt lat="44.3403829" lon="7.5450317"><ele>578.0</ele><time>2026-05-01T09:56:43.275Z</time></trkpt><trkpt lat="44.3402243" lon="7.5449943"><ele>578.0</ele><time>2026-05-01T09:56:44.275Z</time></trkpt><trkpt lat="44.3400631" lon="7.5449431"><ele>578.0</ele><time>2026-05-01T09:56:45.275Z</time></trkpt><trkpt lat="44.3399046" lon="7.5448797"><ele>578.0</ele><time>2026-05-01T09:56:46.275Z</time></trkpt><trkpt lat="44.3397507" lon="7.5448088"><ele>578.6666666666666</ele><time>2026-05-01T09:56:47.275Z</time></trkpt><trkpt lat="44.3395952" lon="7.5447342"><ele>579.3333333333334</ele><time>2026-05-01T09:56:48.275Z</time></trkpt><trkpt lat="44.3394554" lon="7.5446606"><ele>580.0</ele><time>2026-05-01T09:56:49.275Z</time></trkpt><trkpt lat="44.3393195" lon="7.54459"><ele>580.25</ele><time>2026-05-01T09:56:50.275Z</time></trkpt><trkpt lat="44.3391999" lon="7.5445195"><ele>580.5</ele><time>2026-05-01T09:56:51.275Z</time></trkpt><trkpt lat="44.3390855" lon="7.5444524"><ele>580.75</ele><time>2026-05-01T09:56:52.275Z</time></trkpt><trkpt lat="44.3389728" lon="7.5443896"><ele>581.0</ele><time>2026-05-01T09:56:53.276Z</time></trkpt><trkpt lat="44.338863" lon="7.5443225"><ele>581.4</ele><time>2026-05-01T09:56:54.275Z</time></trkpt><trkpt lat="44.3387595" lon="7.5442604"><ele>581.8</ele><time>2026-05-01T09:56:55.275Z</time></trkpt><trkpt lat="44.3386626" lon="7.5442005"><ele>582.1999999999999</ele><time>2026-05-01T09:56:56.275Z</time></trkpt><trkpt lat="44.338574" lon="7.5441418"><ele>582.6</ele><time>2026-05-01T09:56:57.275Z</time></trkpt><trkpt lat="44.3384848" lon="7.5440879"><ele>583.0</ele><time>2026-05-01T09:56:58.276Z</time></trkpt><trkpt lat="44.3384013" lon="7.5440317"><ele>583.0</ele><time>2026-05-01T09:56:59.275Z</time></trkpt><trkpt lat="44.3383241" lon="7.5439709"><ele>583.0</ele><time>2026-05-01T09:57:00.276Z</time></trkpt><trkpt lat="44.3382567" lon="7.5439103"><ele>583.0</ele><time>2026-05-01T09:57:01.276Z</time></trkpt><trkpt lat="44.3382046" lon="7.5438603"><ele>583.0</ele><time>2026-05-01T09:57:02.276Z</time></trkpt><trkpt lat="44.3381315" lon="7.5437606"><ele>583.0</ele><time>2026-05-01T09:57:04.276Z</time></trkpt><trkpt lat="44.3380396" lon="7.5436226"><ele>582.6</ele><time>2026-05-01T09:57:06.275Z</time></trkpt><trkpt lat="44.3379793" lon="7.5435558"><ele>582.1999999999999</ele><time>2026-05-01T09:57:07.275Z</time></trkpt><trkpt lat="44.3379035" lon="7.5434919"><ele>581.8</ele><time>2026-05-01T09:57:08.275Z</time></trkpt><trkpt lat="44.3378241" lon="7.5434246"><ele>581.4</ele><time>2026-05-01T09:57:09.275Z</time></trkpt><trkpt lat="44.3377469" lon="7.5433388"><ele>581.0</ele><time>2026-05-01T09:57:10.275Z</time></trkpt><trkpt lat="44.3376792" lon="7.5432351"><ele>581.0</ele><time>2026-05-01T09:57:11.275Z</time></trkpt><trkpt lat="44.3376157" lon="7.5431074"><ele>581.0</ele><time>2026-05-01T09:57:12.275Z</time></trkpt><trkpt lat="44.3375483" lon="7.5429685"><ele>581.0</ele><time>2026-05-01T09:57:13.275Z</time></trkpt><trkpt lat="44.3374757" lon="7.5428238"><ele>581.0</ele><time>2026-05-01T09:57:14.275Z</time></trkpt><trkpt lat="44.3373977" lon="7.5426678"><ele>580.75</ele><time>2026-05-01T09:57:15.275Z</time></trkpt><trkpt lat="44.3373203" lon="7.5425045"><ele>580.5</ele><time>2026-05-01T09:57:16.275Z</time></trkpt><trkpt lat="44.33724" lon="7.5423313"><ele>580.25</ele><time>2026-05-01T09:57:17.275Z</time></trkpt><trkpt lat="44.3371641" lon="7.5421569"><ele>580.0</ele><time>2026-05-01T09:57:18.275Z</time></trkpt><trkpt lat="44.3370866" lon="7.5419804"><ele>580.6666666666667</ele><time>2026-05-01T09:57:19.275Z</time></trkpt><trkpt lat="44.3370106" lon="7.5418006"><ele>581.3333333333334</ele><time>2026-05-01T09:57:20.275Z</time></trkpt><trkpt lat="44.3369467" lon="7.5416112"><ele>582.0</ele><time>2026-05-01T09:57:21.276Z</time></trkpt><trkpt lat="44.3368826" lon="7.541414"><ele>582.0</ele><time>2026-05-01T09:57:22.275Z</time></trkpt><trkpt lat="44.3368222" lon="7.5412081"><ele>582.0</ele><time>2026-05-01T09:57:23.275Z</time></trkpt><trkpt lat="44.3367686" lon="7.5410025"><ele>582.0</ele><time>2026-05-01T09:57:24.275Z</time></trkpt><trkpt lat="44.3367119" lon="7.5408044"><ele>582.0</ele><time>2026-05-01T09:57:25.275Z</time></trkpt><trkpt lat="44.3366663" lon="7.5406113"><ele>582.0</ele><time>2026-05-01T09:57:26.275Z</time></trkpt><trkpt lat="44.3366245" lon="7.5404186"><ele>582.0</ele><time>2026-05-01T09:57:27.275Z</time></trkpt><trkpt lat="44.3365892" lon="7.5402179"><ele>582.0</ele><time>2026-05-01T09:57:28.275Z</time></trkpt><trkpt lat="44.3365608" lon="7.5400182"><ele>582.0</ele><time>2026-05-01T09:57:29.275Z</time></trkpt><trkpt lat="44.3365346" lon="7.5398136"><ele>582.0</ele><time>2026-05-01T09:57:30.276Z</time></trkpt><trkpt lat="44.3365117" lon="7.5396086"><ele>582.0</ele><time>2026-05-01T09:57:31.275Z</time></trkpt><trkpt lat="44.3364948" lon="7.5394021"><ele>582.0</ele><time>2026-05-01T09:57:32.276Z</time></trkpt><trkpt lat="44.3364826" lon="7.5391934"><ele>582.3333333333334</ele><time>2026-05-01T09:57:33.275Z</time></trkpt><trkpt lat="44.3364797" lon="7.5389757"><ele>582.6666666666667</ele><time>2026-05-01T09:57:34.275Z</time></trkpt><trkpt lat="44.336473" lon="7.5387549"><ele>583.0</ele><time>2026-05-01T09:57:35.275Z</time></trkpt><trkpt lat="44.3364738" lon="7.5385319"><ele>583.0</ele><time>2026-05-01T09:57:36.276Z</time></trkpt><trkpt lat="44.3364786" lon="7.5383042"><ele>583.0</ele><time>2026-05-01T09:57:37.275Z</time></trkpt><trkpt lat="44.3364816" lon="7.5380743"><ele>583.0</ele><time>2026-05-01T09:57:38.275Z</time></trkpt><trkpt lat="44.3364952" lon="7.5378483"><ele>583.0</ele><time>2026-05-01T09:57:39.275Z</time></trkpt><trkpt lat="44.3365058" lon="7.5376212"><ele>583.0</ele><time>2026-05-01T09:57:40.275Z</time></trkpt><trkpt lat="44.3365088" lon="7.5373881"><ele>583.0</ele><time>2026-05-01T09:57:41.275Z</time></trkpt><trkpt lat="44.3365192" lon="7.5371649"><ele>583.3333333333334</ele><time>2026-05-01T09:57:42.275Z</time></trkpt><trkpt lat="44.3365227" lon="7.5369401"><ele>583.6666666666666</ele><time>2026-05-01T09:57:43.275Z</time></trkpt><trkpt lat="44.3365344" lon="7.5367053"><ele>584.0</ele><time>2026-05-01T09:57:44.275Z</time></trkpt><trkpt lat="44.3365517" lon="7.5364644"><ele>584.0</ele><time>2026-05-01T09:57:45.275Z</time></trkpt><trkpt lat="44.3365601" lon="7.5362212"><ele>584.0</ele><time>2026-05-01T09:57:46.275Z</time></trkpt><trkpt lat="44.3365698" lon="7.5359847"><ele>584.0</ele><time>2026-05-01T09:57:47.275Z</time></trkpt><trkpt lat="44.3365699" lon="7.5357524"><ele>584.3333333333333</ele><time>2026-05-01T09:57:48.275Z</time></trkpt><trkpt lat="44.3365766" lon="7.5355184"><ele>584.6666666666666</ele><time>2026-05-01T09:57:49.275Z</time></trkpt><trkpt lat="44.3365888" lon="7.5352854"><ele>585.0</ele><time>2026-05-01T09:57:50.275Z</time></trkpt><trkpt lat="44.3365977" lon="7.5350562"><ele>585.6666666666666</ele><time>2026-05-01T09:57:51.275Z</time></trkpt><trkpt lat="44.3366108" lon="7.5348355"><ele>586.3333333333333</ele><time>2026-05-01T09:57:52.275Z</time></trkpt><trkpt lat="44.3366199" lon="7.5346147"><ele>587.0</ele><time>2026-05-01T09:57:53.275Z</time></trkpt><trkpt lat="44.3366311" lon="7.5343934"><ele>587.6666666666666</ele><time>2026-05-01T09:57:54.275Z</time></trkpt><trkpt lat="44.3366423" lon="7.5341703"><ele>588.3333333333334</ele><time>2026-05-01T09:57:55.276Z</time></trkpt><trkpt lat="44.3366501" lon="7.5339476"><ele>589.0</ele><time>2026-05-01T09:57:56.275Z</time></trkpt><trkpt lat="44.3366556" lon="7.5337242"><ele>589.0</ele><time>2026-05-01T09:57:57.275Z</time></trkpt><trkpt lat="44.3366634" lon="7.5335083"><ele>589.0</ele><time>2026-05-01T09:57:58.275Z</time></trkpt><trkpt lat="44.3366726" lon="7.5332958"><ele>589.0</ele><time>2026-05-01T09:57:59.275Z</time></trkpt><trkpt lat="44.3366754" lon="7.5330923"><ele>589.0</ele><time>2026-05-01T09:58:00.275Z</time></trkpt><trkpt lat="44.3366829" lon="7.532894"><ele>589.0</ele><time>2026-05-01T09:58:01.275Z</time></trkpt><trkpt lat="44.3366975" lon="7.5326871"><ele>589.0</ele><time>2026-05-01T09:58:02.275Z</time></trkpt><trkpt lat="44.3367107" lon="7.5324815"><ele>589.0</ele><time>2026-05-01T09:58:03.275Z</time></trkpt><trkpt lat="44.3367197" lon="7.5322914"><ele>589.0</ele><time>2026-05-01T09:58:04.275Z</time></trkpt><trkpt lat="44.3367298" lon="7.5321221"><ele>589.0</ele><time>2026-05-01T09:58:05.275Z</time></trkpt><trkpt lat="44.3367376" lon="7.5319995"><ele>589.0</ele><time>2026-05-01T09:58:06.275Z</time></trkpt><trkpt lat="44.3367403" lon="7.5319049"><ele>589.0</ele><time>2026-05-01T09:58:07.275Z</time></trkpt><trkpt lat="44.3367411" lon="7.5317407"><ele>589.0</ele><time>2026-05-01T09:58:09.276Z</time></trkpt><trkpt lat="44.3367398" lon="7.5315708"><ele>589.4</ele><time>2026-05-01T09:58:11.275Z</time></trkpt><trkpt lat="44.3367419" lon="7.5314738"><ele>589.8</ele><time>2026-05-01T09:58:12.275Z</time></trkpt><trkpt lat="44.336742" lon="7.5313579"><ele>590.2</ele><time>2026-05-01T09:58:13.275Z</time></trkpt><trkpt lat="44.3367417" lon="7.5312268"><ele>590.6</ele><time>2026-05-01T09:58:14.275Z</time></trkpt><trkpt lat="44.3367462" lon="7.5310837"><ele>591.0</ele><time>2026-05-01T09:58:15.275Z</time></trkpt><trkpt lat="44.3367508" lon="7.5309329"><ele>591.0</ele><time>2026-05-01T09:58:16.275Z</time></trkpt><trkpt lat="44.3367383" lon="7.5307744"><ele>591.0</ele><time>2026-05-01T09:58:17.275Z</time></trkpt><trkpt lat="44.3367247" lon="7.5306117"><ele>591.0</ele><time>2026-05-01T09:58:18.275Z</time></trkpt><trkpt lat="44.3367092" lon="7.5304312"><ele>591.0</ele><time>2026-05-01T09:58:19.275Z</time></trkpt><trkpt lat="44.3366994" lon="7.530255"><ele>591.5</ele><time>2026-05-01T09:58:20.275Z</time></trkpt><trkpt lat="44.3366831" lon="7.5300805"><ele>592.0</ele><time>2026-05-01T09:58:21.275Z</time></trkpt><trkpt lat="44.3366591" lon="7.5298999"><ele>592.5</ele><time>2026-05-01T09:58:22.275Z</time></trkpt><trkpt lat="44.3366364" lon="7.5297249"><ele>593.0</ele><time>2026-05-01T09:58:23.275Z</time></trkpt><trkpt lat="44.3366173" lon="7.5295524"><ele>593.25</ele><time>2026-05-01T09:58:24.275Z</time></trkpt><trkpt lat="44.3365925" lon="7.5293811"><ele>593.5</ele><time>2026-05-01T09:58:25.275Z</time></trkpt><trkpt lat="44.3365603" lon="7.5292073"><ele>593.75</ele><time>2026-05-01T09:58:26.275Z</time></trkpt><trkpt lat="44.3365263" lon="7.5290402"><ele>594.0</ele><time>2026-05-01T09:58:27.275Z</time></trkpt><trkpt lat="44.3364854" lon="7.5288706"><ele>593.75</ele><time>2026-05-01T09:58:28.275Z</time></trkpt><trkpt lat="44.3364449" lon="7.5287033"><ele>593.5</ele><time>2026-05-01T09:58:29.275Z</time></trkpt><trkpt lat="44.3363972" lon="7.5285425"><ele>593.25</ele><time>2026-05-01T09:58:30.275Z</time></trkpt><trkpt lat="44.3363484" lon="7.5283903"><ele>593.0</ele><time>2026-05-01T09:58:31.275Z</time></trkpt><trkpt lat="44.3362995" lon="7.5282364"><ele>593.5</ele><time>2026-05-01T09:58:32.275Z</time></trkpt><trkpt lat="44.336248" lon="7.5280878"><ele>594.0</ele><time>2026-05-01T09:58:33.276Z</time></trkpt><trkpt lat="44.3361963" lon="7.5279443"><ele>594.5</ele><time>2026-05-01T09:58:34.275Z</time></trkpt><trkpt lat="44.3361432" lon="7.5278075"><ele>595.0</ele><time>2026-05-01T09:58:35.275Z</time></trkpt><trkpt lat="44.3360928" lon="7.5276762"><ele>595.0</ele><time>2026-05-01T09:58:36.275Z</time></trkpt><trkpt lat="44.3360446" lon="7.5275484"><ele>595.0</ele><time>2026-05-01T09:58:37.275Z</time></trkpt><trkpt lat="44.3359936" lon="7.5274283"><ele>595.0</ele><time>2026-05-01T09:58:38.276Z</time></trkpt><trkpt lat="44.3359449" lon="7.5273099"><ele>595.0</ele><time>2026-05-01T09:58:39.275Z</time></trkpt><trkpt lat="44.3359012" lon="7.5271947"><ele>595.0</ele><time>2026-05-01T09:58:40.275Z</time></trkpt><trkpt lat="44.3358564" lon="7.5270811"><ele>595.0</ele><time>2026-05-01T09:58:41.275Z</time></trkpt><trkpt lat="44.3358068" lon="7.5269603"><ele>595.0</ele><time>2026-05-01T09:58:42.276Z</time></trkpt><trkpt lat="44.3357564" lon="7.5268385"><ele>595.0</ele><time>2026-05-01T09:58:43.275Z</time></trkpt><trkpt lat="44.3357109" lon="7.5267133"><ele>595.0</ele><time>2026-05-01T09:58:44.276Z</time></trkpt><trkpt lat="44.3356544" lon="7.526585"><ele>595.0</ele><time>2026-05-01T09:58:45.276Z</time></trkpt><trkpt lat="44.3355913" lon="7.5264549"><ele>595.0</ele><time>2026-05-01T09:58:46.276Z</time></trkpt><trkpt lat="44.3355244" lon="7.5263155"><ele>595.0</ele><time>2026-05-01T09:58:47.276Z</time></trkpt><trkpt lat="44.3354647" lon="7.5261612"><ele>595.0</ele><time>2026-05-01T09:58:48.275Z</time></trkpt><trkpt lat="44.3353976" lon="7.5260073"><ele>595.0</ele><time>2026-05-01T09:58:49.275Z</time></trkpt><trkpt lat="44.3353405" lon="7.5258341"><ele>595.0</ele><time>2026-05-01T09:58:50.275Z</time></trkpt><trkpt lat="44.3352762" lon="7.5256718"><ele>595.0</ele><time>2026-05-01T09:58:51.275Z</time></trkpt><trkpt lat="44.335204" lon="7.5255038"><ele>595.0</ele><time>2026-05-01T09:58:52.275Z</time></trkpt><trkpt lat="44.3351406" lon="7.5253323"><ele>595.0</ele><time>2026-05-01T09:58:53.275Z</time></trkpt><trkpt lat="44.3350719" lon="7.5251673"><ele>595.25</ele><time>2026-05-01T09:58:54.275Z</time></trkpt><trkpt lat="44.3350092" lon="7.5249996"><ele>595.5</ele><time>2026-05-01T09:58:55.276Z</time></trkpt><trkpt lat="44.3349478" lon="7.5248302"><ele>595.75</ele><time>2026-05-01T09:58:56.275Z</time></trkpt><trkpt lat="44.3348902" lon="7.5246635"><ele>596.0</ele><time>2026-05-01T09:58:57.275Z</time></trkpt><trkpt lat="44.3348319" lon="7.524502"><ele>596.25</ele><time>2026-05-01T09:58:58.275Z</time></trkpt><trkpt lat="44.3347695" lon="7.5243464"><ele>596.5</ele><time>2026-05-01T09:58:59.275Z</time></trkpt><trkpt lat="44.334705" lon="7.5241965"><ele>596.75</ele><time>2026-05-01T09:59:00.275Z</time></trkpt><trkpt lat="44.3346448" lon="7.5240524"><ele>597.0</ele><time>2026-05-01T09:59:01.275Z</time></trkpt><trkpt lat="44.3345849" lon="7.5239095"><ele>597.0</ele><time>2026-05-01T09:59:02.276Z</time></trkpt><trkpt lat="44.3345236" lon="7.523758"><ele>597.0</ele><time>2026-05-01T09:59:03.275Z</time></trkpt><trkpt lat="44.3344621" lon="7.5236106"><ele>597.0</ele><time>2026-05-01T09:59:04.276Z</time></trkpt><trkpt lat="44.3344046" lon="7.5234624"><ele>597.0</ele><time>2026-05-01T09:59:05.275Z</time></trkpt><trkpt lat="44.3343391" lon="7.5233148"><ele>597.0</ele><time>2026-05-01T09:59:06.275Z</time></trkpt><trkpt lat="44.3342782" lon="7.5231629"><ele>597.0</ele><time>2026-05-01T09:59:07.275Z</time></trkpt><trkpt lat="44.3342084" lon="7.5230034"><ele>597.0</ele><time>2026-05-01T09:59:08.275Z</time></trkpt><trkpt lat="44.3341392" lon="7.5228482"><ele>597.0</ele><time>2026-05-01T09:59:09.275Z</time></trkpt><trkpt lat="44.3340661" lon="7.5226847"><ele>596.75</ele><time>2026-05-01T09:59:10.275Z</time></trkpt><trkpt lat="44.334001" lon="7.522537"><ele>596.5</ele><time>2026-05-01T09:59:11.275Z</time></trkpt><trkpt lat="44.3339349" lon="7.5223966"><ele>596.25</ele><time>2026-05-01T09:59:12.275Z</time></trkpt><trkpt lat="44.3338686" lon="7.5222517"><ele>596.0</ele><time>2026-05-01T09:59:13.275Z</time></trkpt><trkpt lat="44.3338075" lon="7.5221023"><ele>596.75</ele><time>2026-05-01T09:59:14.275Z</time></trkpt><trkpt lat="44.3337418" lon="7.521951"><ele>597.5</ele><time>2026-05-01T09:59:15.275Z</time></trkpt><trkpt lat="44.3336792" lon="7.5217987"><ele>598.25</ele><time>2026-05-01T09:59:16.275Z</time></trkpt><trkpt lat="44.3336161" lon="7.5216458"><ele>599.0</ele><time>2026-05-01T09:59:17.276Z</time></trkpt><trkpt lat="44.3335516" lon="7.521495"><ele>599.0</ele><time>2026-05-01T09:59:18.275Z</time></trkpt><trkpt lat="44.3334909" lon="7.5213378"><ele>599.0</ele><time>2026-05-01T09:59:19.275Z</time></trkpt><trkpt lat="44.3334278" lon="7.5211821"><ele>599.0</ele><time>2026-05-01T09:59:20.276Z</time></trkpt><trkpt lat="44.3333587" lon="7.5210304"><ele>599.0</ele><time>2026-05-01T09:59:21.275Z</time></trkpt><trkpt lat="44.333289" lon="7.5208776"><ele>599.25</ele><time>2026-05-01T09:59:22.275Z</time></trkpt><trkpt lat="44.3332205" lon="7.5207272"><ele>599.5</ele><time>2026-05-01T09:59:23.275Z</time></trkpt><trkpt lat="44.3331463" lon="7.5205824"><ele>599.75</ele><time>2026-05-01T09:59:24.275Z</time></trkpt><trkpt lat="44.3330838" lon="7.5204307"><ele>600.0</ele><time>2026-05-01T09:59:25.275Z</time></trkpt><trkpt lat="44.3330227" lon="7.5202773"><ele>600.0</ele><time>2026-05-01T09:59:26.275Z</time></trkpt><trkpt lat="44.3329567" lon="7.5201247"><ele>600.0</ele><time>2026-05-01T09:59:27.275Z</time></trkpt><trkpt lat="44.3329039" lon="7.5199738"><ele>600.0</ele><time>2026-05-01T09:59:28.276Z</time></trkpt><trkpt lat="44.3328351" lon="7.5198037"><ele>600.0</ele><time>2026-05-01T09:59:29.275Z</time></trkpt><trkpt lat="44.3327623" lon="7.5196385"><ele>599.5</ele><time>2026-05-01T09:59:30.275Z</time></trkpt><trkpt lat="44.3326907" lon="7.5194786"><ele>599.0</ele><time>2026-05-01T09:59:31.275Z</time></trkpt><trkpt lat="44.3326132" lon="7.5193197"><ele>598.5</ele><time>2026-05-01T09:59:32.276Z</time></trkpt><trkpt lat="44.3325418" lon="7.5191601"><ele>598.0</ele><time>2026-05-01T09:59:33.276Z</time></trkpt><trkpt lat="44.3324748" lon="7.519003"><ele>598.0</ele><time>2026-05-01T09:59:34.276Z</time></trkpt><trkpt lat="44.3324202" lon="7.5188464"><ele>598.0</ele><time>2026-05-01T09:59:35.275Z</time></trkpt><trkpt lat="44.3323621" lon="7.5186927"><ele>598.0</ele><time>2026-05-01T09:59:36.276Z</time></trkpt><trkpt lat="44.332301" lon="7.5185514"><ele>598.0</ele><time>2026-05-01T09:59:37.275Z</time></trkpt><trkpt lat="44.3322445" lon="7.5184138"><ele>598.1999999999999</ele><time>2026-05-01T09:59:38.276Z</time></trkpt><trkpt lat="44.332184" lon="7.518281"><ele>598.4</ele><time>2026-05-01T09:59:39.276Z</time></trkpt><trkpt lat="44.3321315" lon="7.5181558"><ele>598.5999999999999</ele><time>2026-05-01T09:59:40.275Z</time></trkpt><trkpt lat="44.3320783" lon="7.5180254"><ele>598.8</ele><time>2026-05-01T09:59:41.275Z</time></trkpt><trkpt lat="44.3320261" lon="7.5178915"><ele>599.0</ele><time>2026-05-01T09:59:42.276Z</time></trkpt><trkpt lat="44.331973" lon="7.517752"><ele>599.2</ele><time>2026-05-01T09:59:43.275Z</time></trkpt><trkpt lat="44.3319217" lon="7.5176111"><ele>599.4</ele><time>2026-05-01T09:59:44.275Z</time></trkpt><trkpt lat="44.331873" lon="7.5174783"><ele>599.6</ele><time>2026-05-01T09:59:45.275Z</time></trkpt><trkpt lat="44.3318309" lon="7.5173543"><ele>599.8</ele><time>2026-05-01T09:59:46.275Z</time></trkpt><trkpt lat="44.3317842" lon="7.517235"><ele>600.0</ele><time>2026-05-01T09:59:47.275Z</time></trkpt><trkpt lat="44.3317422" lon="7.5171111"><ele>599.8</ele><time>2026-05-01T09:59:48.275Z</time></trkpt><trkpt lat="44.3317047" lon="7.5169934"><ele>599.6</ele><time>2026-05-01T09:59:49.275Z</time></trkpt><trkpt lat="44.3316636" lon="7.5168779"><ele>599.4</ele><time>2026-05-01T09:59:50.275Z</time></trkpt><trkpt lat="44.3316302" lon="7.5167587"><ele>599.2</ele><time>2026-05-01T09:59:51.275Z</time></trkpt><trkpt lat="44.3316065" lon="7.5166288"><ele>599.0</ele><time>2026-05-01T09:59:52.275Z</time></trkpt><trkpt lat="44.33158" lon="7.5165043"><ele>599.0</ele><time>2026-05-01T09:59:53.275Z</time></trkpt><trkpt lat="44.3315253" lon="7.5163861"><ele>599.0</ele><time>2026-05-01T09:59:54.275Z</time></trkpt><trkpt lat="44.3314563" lon="7.5162673"><ele>599.0</ele><time>2026-05-01T09:59:55.275Z</time></trkpt><trkpt lat="44.3313808" lon="7.5161398"><ele>599.0</ele><time>2026-05-01T09:59:56.275Z</time></trkpt><trkpt lat="44.331316" lon="7.5159935"><ele>599.0</ele><time>2026-05-01T09:59:57.276Z</time></trkpt><trkpt lat="44.331256" lon="7.51583"><ele>599.0</ele><time>2026-05-01T09:59:58.275Z</time></trkpt><trkpt lat="44.3312012" lon="7.5156497"><ele>599.0</ele><time>2026-05-01T09:59:59.276Z</time></trkpt><trkpt lat="44.3311373" lon="7.5154655"><ele>599.0</ele><time>2026-05-01T10:00:00.275Z</time></trkpt><trkpt lat="44.3310767" lon="7.5152679"><ele>599.0</ele><time>2026-05-01T10:00:01.275Z</time></trkpt><trkpt lat="44.3310197" lon="7.5150524"><ele>599.0</ele><time>2026-05-01T10:00:02.275Z</time></trkpt><trkpt lat="44.3309795" lon="7.5148346"><ele>599.0</ele><time>2026-05-01T10:00:03.275Z</time></trkpt><trkpt lat="44.3309433" lon="7.5146079"><ele>599.0</ele><time>2026-05-01T10:00:04.275Z</time></trkpt><trkpt lat="44.3309115" lon="7.5143655"><ele>599.0</ele><time>2026-05-01T10:00:05.275Z</time></trkpt><trkpt lat="44.3308824" lon="7.5141205"><ele>599.0</ele><time>2026-05-01T10:00:06.275Z</time></trkpt><trkpt lat="44.3308647" lon="7.5138614"><ele>598.6666666666666</ele><time>2026-05-01T10:00:07.276Z</time></trkpt><trkpt lat="44.330854" lon="7.5136007"><ele>598.3333333333334</ele><time>2026-05-01T10:00:08.275Z</time></trkpt><trkpt lat="44.330858" lon="7.51334"><ele>598.0</ele><time>2026-05-01T10:00:09.275Z</time></trkpt><trkpt lat="44.3308748" lon="7.513078"><ele>598.0</ele><time>2026-05-01T10:00:10.276Z</time></trkpt><trkpt lat="44.3309" lon="7.5128137"><ele>598.0</ele><time>2026-05-01T10:00:11.275Z</time></trkpt><trkpt lat="44.3309336" lon="7.5125592"><ele>598.0</ele><time>2026-05-01T10:00:12.275Z</time></trkpt><trkpt lat="44.3309714" lon="7.5123029"><ele>598.0</ele><time>2026-05-01T10:00:13.275Z</time></trkpt><trkpt lat="44.3310323" lon="7.5120431"><ele>598.0</ele><time>2026-05-01T10:00:14.275Z</time></trkpt><trkpt lat="44.3310983" lon="7.5117832"><ele>598.0</ele><time>2026-05-01T10:00:15.276Z</time></trkpt><trkpt lat="44.3311664" lon="7.511531"><ele>598.0</ele><time>2026-05-01T10:00:16.275Z</time></trkpt><trkpt lat="44.3312477" lon="7.5112908"><ele>598.0</ele><time>2026-05-01T10:00:17.275Z</time></trkpt><trkpt lat="44.3313364" lon="7.5110588"><ele>598.0</ele><time>2026-05-01T10:00:18.275Z</time></trkpt><trkpt lat="44.3314312" lon="7.5108308"><ele>598.0</ele><time>2026-05-01T10:00:19.275Z</time></trkpt><trkpt lat="44.3315307" lon="7.5106032"><ele>598.0</ele><time>2026-05-01T10:00:20.275Z</time></trkpt><trkpt lat="44.3316277" lon="7.5103779"><ele>598.0</ele><time>2026-05-01T10:00:21.275Z</time></trkpt><trkpt lat="44.3317277" lon="7.5101533"><ele>598.0</ele><time>2026-05-01T10:00:22.275Z</time></trkpt><trkpt lat="44.3318263" lon="7.5099355"><ele>598.0</ele><time>2026-05-01T10:00:23.275Z</time></trkpt><trkpt lat="44.3319227" lon="7.5097155"><ele>598.0</ele><time>2026-05-01T10:00:24.275Z</time></trkpt><trkpt lat="44.3320122" lon="7.5094903"><ele>598.3333333333334</ele><time>2026-05-01T10:00:25.275Z</time></trkpt><trkpt lat="44.3320964" lon="7.5092683"><ele>598.6666666666666</ele><time>2026-05-01T10:00:26.275Z</time></trkpt><trkpt lat="44.3321911" lon="7.5090495"><ele>599.0</ele><time>2026-05-01T10:00:27.275Z</time></trkpt><trkpt lat="44.3322912" lon="7.5088302"><ele>598.3333333333333</ele><time>2026-05-01T10:00:28.275Z</time></trkpt><trkpt lat="44.3323906" lon="7.5086063"><ele>597.6666666666666</ele><time>2026-05-01T10:00:29.275Z</time></trkpt><trkpt lat="44.3324816" lon="7.5083726"><ele>597.0</ele><time>2026-05-01T10:00:30.275Z</time></trkpt><trkpt lat="44.332577" lon="7.5081427"><ele>596.6666666666666</ele><time>2026-05-01T10:00:31.275Z</time></trkpt><trkpt lat="44.332668" lon="7.5079054"><ele>596.3333333333333</ele><time>2026-05-01T10:00:32.275Z</time></trkpt><trkpt lat="44.3327629" lon="7.5076718"><ele>596.0</ele><time>2026-05-01T10:00:33.275Z</time></trkpt><trkpt lat="44.3328595" lon="7.5074363"><ele>596.0</ele><time>2026-05-01T10:00:34.276Z</time></trkpt><trkpt lat="44.3329619" lon="7.5071967"><ele>596.0</ele><time>2026-05-01T10:00:35.276Z</time></trkpt><trkpt lat="44.3330606" lon="7.5069533"><ele>596.0</ele><time>2026-05-01T10:00:36.275Z</time></trkpt><trkpt lat="44.3331569" lon="7.506711"><ele>597.6666666666666</ele><time>2026-05-01T10:00:37.275Z</time></trkpt><trkpt lat="44.3332582" lon="7.5064752"><ele>599.3333333333334</ele><time>2026-05-01T10:00:38.275Z</time></trkpt><trkpt lat="44.333366" lon="7.5062319"><ele>601.0</ele><time>2026-05-01T10:00:39.275Z</time></trkpt><trkpt lat="44.3334715" lon="7.5059856"><ele>602.0</ele><time>2026-05-01T10:00:40.275Z</time></trkpt><trkpt lat="44.3335761" lon="7.5057372"><ele>603.0</ele><time>2026-05-01T10:00:41.276Z</time></trkpt><trkpt lat="44.3336708" lon="7.5055024"><ele>604.0</ele><time>2026-05-01T10:00:42.275Z</time></trkpt><trkpt lat="44.3337695" lon="7.5052755"><ele>604.6666666666667</ele><time>2026-05-01T10:00:43.275Z</time></trkpt><trkpt lat="44.3338649" lon="7.5050507"><ele>605.3333333333334</ele><time>2026-05-01T10:00:44.275Z</time></trkpt><trkpt lat="44.3339571" lon="7.504826"><ele>606.0</ele><time>2026-05-01T10:00:45.275Z</time></trkpt><trkpt lat="44.3340488" lon="7.5045981"><ele>607.3333333333334</ele><time>2026-05-01T10:00:46.275Z</time></trkpt><trkpt lat="44.3341352" lon="7.5043725"><ele>608.6666666666667</ele><time>2026-05-01T10:00:47.276Z</time></trkpt><trkpt lat="44.334207" lon="7.5041631"><ele>610.0</ele><time>2026-05-01T10:00:48.275Z</time></trkpt><trkpt lat="44.3342656" lon="7.5039554"><ele>610.0</ele><time>2026-05-01T10:00:49.275Z</time></trkpt><trkpt lat="44.3343113" lon="7.50375"><ele>610.0</ele><time>2026-05-01T10:00:50.275Z</time></trkpt><trkpt lat="44.3343455" lon="7.5035477"><ele>610.0</ele><time>2026-05-01T10:00:51.275Z</time></trkpt><trkpt lat="44.3343644" lon="7.5033587"><ele>610.0</ele><time>2026-05-01T10:00:52.276Z</time></trkpt><trkpt lat="44.3343819" lon="7.503179"><ele>610.2</ele><time>2026-05-01T10:00:53.275Z</time></trkpt><trkpt lat="44.3343985" lon="7.5030107"><ele>610.4</ele><time>2026-05-01T10:00:54.276Z</time></trkpt><trkpt lat="44.3344213" lon="7.502858"><ele>610.6</ele><time>2026-05-01T10:00:55.275Z</time></trkpt><trkpt lat="44.3344545" lon="7.5027239"><ele>610.8</ele><time>2026-05-01T10:00:56.275Z</time></trkpt><trkpt lat="44.3344839" lon="7.5026219"><ele>611.0</ele><time>2026-05-01T10:00:57.275Z</time></trkpt><trkpt lat="44.3345148" lon="7.5025203"><ele>611.3333333333333</ele><time>2026-05-01T10:00:59.275Z</time></trkpt><trkpt lat="44.3345478" lon="7.5024258"><ele>611.6666666666666</ele><time>2026-05-01T10:01:01.275Z</time></trkpt><trkpt lat="44.3345749" lon="7.5022741"><ele>612.0</ele><time>2026-05-01T10:01:03.275Z</time></trkpt><trkpt lat="44.334562" lon="7.5021833"><ele>612.3333333333334</ele><time>2026-05-01T10:01:04.275Z</time></trkpt><trkpt lat="44.3345253" lon="7.5021043"><ele>612.6666666666667</ele><time>2026-05-01T10:01:05.275Z</time></trkpt><trkpt lat="44.3344669" lon="7.5020281"><ele>613.0</ele><time>2026-05-01T10:01:06.275Z</time></trkpt><trkpt lat="44.3344046" lon="7.5019504"><ele>613.6</ele><time>2026-05-01T10:01:07.275Z</time></trkpt><trkpt lat="44.3343503" lon="7.5018613"><ele>614.1999999999999</ele><time>2026-05-01T10:01:08.275Z</time></trkpt><trkpt lat="44.3342998" lon="7.5017463"><ele>614.8</ele><time>2026-05-01T10:01:09.276Z</time></trkpt><trkpt lat="44.3342512" lon="7.5016112"><ele>615.4</ele><time>2026-05-01T10:01:10.275Z</time></trkpt><trkpt lat="44.3341926" lon="7.5014786"><ele>616.0</ele><time>2026-05-01T10:01:11.275Z</time></trkpt><trkpt lat="44.3341305" lon="7.5013465"><ele>615.75</ele><time>2026-05-01T10:01:12.275Z</time></trkpt><trkpt lat="44.3340671" lon="7.5012072"><ele>615.5</ele><time>2026-05-01T10:01:13.275Z</time></trkpt><trkpt lat="44.334005" lon="7.5010627"><ele>615.25</ele><time>2026-05-01T10:01:14.275Z</time></trkpt><trkpt lat="44.3339402" lon="7.5009185"><ele>615.0</ele><time>2026-05-01T10:01:15.275Z</time></trkpt><trkpt lat="44.3338735" lon="7.5007768"><ele>615.0</ele><time>2026-05-01T10:01:16.275Z</time></trkpt><trkpt lat="44.333812" lon="7.5006335"><ele>615.0</ele><time>2026-05-01T10:01:17.275Z</time></trkpt><trkpt lat="44.3337443" lon="7.5004809"><ele>615.0</ele><time>2026-05-01T10:01:18.275Z</time></trkpt><trkpt lat="44.333672" lon="7.5003312"><ele>615.0</ele><time>2026-05-01T10:01:19.275Z</time></trkpt><trkpt lat="44.3336062" lon="7.5001864"><ele>616.0</ele><time>2026-05-01T10:01:20.276Z</time></trkpt><trkpt lat="44.3335435" lon="7.5000423"><ele>617.0</ele><time>2026-05-01T10:01:21.275Z</time></trkpt><trkpt lat="44.3334797" lon="7.4999002"><ele>618.0</ele><time>2026-05-01T10:01:22.275Z</time></trkpt><trkpt lat="44.333418" lon="7.4997555"><ele>619.0</ele><time>2026-05-01T10:01:23.275Z</time></trkpt><trkpt lat="44.333356" lon="7.4996163"><ele>619.6</ele><time>2026-05-01T10:01:24.275Z</time></trkpt><trkpt lat="44.3332968" lon="7.4994828"><ele>620.2</ele><time>2026-05-01T10:01:25.275Z</time></trkpt><trkpt lat="44.3332444" lon="7.4993591"><ele>620.8000000000001</ele><time>2026-05-01T10:01:26.276Z</time></trkpt><trkpt lat="44.3331945" lon="7.4992421"><ele>621.4</ele><time>2026-05-01T10:01:27.275Z</time></trkpt><trkpt lat="44.3331467" lon="7.499131"><ele>622.0</ele><time>2026-05-01T10:01:28.276Z</time></trkpt><trkpt lat="44.3330971" lon="7.4990236"><ele>621.4</ele><time>2026-05-01T10:01:29.275Z</time></trkpt><trkpt lat="44.3330453" lon="7.4989136"><ele>620.8000000000001</ele><time>2026-05-01T10:01:30.275Z</time></trkpt><trkpt lat="44.3329877" lon="7.4987959"><ele>620.2</ele><time>2026-05-01T10:01:31.276Z</time></trkpt><trkpt lat="44.3329307" lon="7.4986767"><ele>619.6</ele><time>2026-05-01T10:01:32.275Z</time></trkpt><trkpt lat="44.3328811" lon="7.4985626"><ele>619.0</ele><time>2026-05-01T10:01:33.276Z</time></trkpt><trkpt lat="44.3328346" lon="7.4984541"><ele>619.0</ele><time>2026-05-01T10:01:34.275Z</time></trkpt><trkpt lat="44.3327912" lon="7.498351"><ele>619.0</ele><time>2026-05-01T10:01:35.275Z</time></trkpt><trkpt lat="44.3327474" lon="7.4982515"><ele>619.0</ele><time>2026-05-01T10:01:36.275Z</time></trkpt><trkpt lat="44.3327024" lon="7.4981427"><ele>619.0</ele><time>2026-05-01T10:01:37.275Z</time></trkpt><trkpt lat="44.332656" lon="7.4980308"><ele>619.0</ele><time>2026-05-01T10:01:38.275Z</time></trkpt><trkpt lat="44.3326062" lon="7.4979146"><ele>619.0</ele><time>2026-05-01T10:01:39.276Z</time></trkpt><trkpt lat="44.3325588" lon="7.4977941"><ele>620.0</ele><time>2026-05-01T10:01:40.275Z</time></trkpt><trkpt lat="44.3325142" lon="7.4976688"><ele>621.0</ele><time>2026-05-01T10:01:41.275Z</time></trkpt><trkpt lat="44.3324723" lon="7.4975429"><ele>622.0</ele><time>2026-05-01T10:01:42.275Z</time></trkpt><trkpt lat="44.3324383" lon="7.4974117"><ele>623.0</ele><time>2026-05-01T10:01:43.275Z</time></trkpt><trkpt lat="44.3324149" lon="7.497288"><ele>624.0</ele><time>2026-05-01T10:01:44.275Z</time></trkpt><trkpt lat="44.3324084" lon="7.4971713"><ele>624.5</ele><time>2026-05-01T10:01:45.275Z</time></trkpt><trkpt lat="44.3324114" lon="7.4970622"><ele>625.0</ele><time>2026-05-01T10:01:46.275Z</time></trkpt><trkpt lat="44.3324294" lon="7.496959"><ele>625.5</ele><time>2026-05-01T10:01:47.275Z</time></trkpt><trkpt lat="44.3324582" lon="7.4968626"><ele>626.0</ele><time>2026-05-01T10:01:48.275Z</time></trkpt><trkpt lat="44.3324908" lon="7.4967658"><ele>626.5</ele><time>2026-05-01T10:01:49.275Z</time></trkpt><trkpt lat="44.3325015" lon="7.4966546"><ele>627.0</ele><time>2026-05-01T10:01:50.275Z</time></trkpt><trkpt lat="44.3324901" lon="7.496535"><ele>627.0</ele><time>2026-05-01T10:01:51.276Z</time></trkpt><trkpt lat="44.332448" lon="7.4964263"><ele>627.0</ele><time>2026-05-01T10:01:52.275Z</time></trkpt><trkpt lat="44.3323934" lon="7.4963312"><ele>627.0</ele><time>2026-05-01T10:01:53.276Z</time></trkpt><trkpt lat="44.3323362" lon="7.4962405"><ele>627.0</ele><time>2026-05-01T10:01:54.275Z</time></trkpt><trkpt lat="44.3322872" lon="7.4961412"><ele>627.0</ele><time>2026-05-01T10:01:55.275Z</time></trkpt><trkpt lat="44.3322401" lon="7.4960297"><ele>627.0</ele><time>2026-05-01T10:01:56.275Z</time></trkpt><trkpt lat="44.3321894" lon="7.4959124"><ele>626.6</ele><time>2026-05-01T10:01:57.275Z</time></trkpt><trkpt lat="44.3321499" lon="7.4957769"><ele>626.2</ele><time>2026-05-01T10:01:58.275Z</time></trkpt><trkpt lat="44.3321145" lon="7.4956393"><ele>625.8</ele><time>2026-05-01T10:01:59.275Z</time></trkpt><trkpt lat="44.3320778" lon="7.4954896"><ele>625.4</ele><time>2026-05-01T10:02:00.275Z</time></trkpt><trkpt lat="44.3320411" lon="7.4953395"><ele>625.0</ele><time>2026-05-01T10:02:01.276Z</time></trkpt><trkpt lat="44.3320092" lon="7.4951806"><ele>625.0</ele><time>2026-05-01T10:02:02.276Z</time></trkpt><trkpt lat="44.3319836" lon="7.4950186"><ele>625.0</ele><time>2026-05-01T10:02:03.276Z</time></trkpt><trkpt lat="44.3319549" lon="7.4948536"><ele>625.0</ele><time>2026-05-01T10:02:04.275Z</time></trkpt><trkpt lat="44.3319327" lon="7.4946853"><ele>625.0</ele><time>2026-05-01T10:02:05.275Z</time></trkpt><trkpt lat="44.3319141" lon="7.4945111"><ele>625.5</ele><time>2026-05-01T10:02:06.275Z</time></trkpt><trkpt lat="44.3318918" lon="7.4943354"><ele>626.0</ele><time>2026-05-01T10:02:07.276Z</time></trkpt><trkpt lat="44.3318745" lon="7.4941553"><ele>626.5</ele><time>2026-05-01T10:02:08.276Z</time></trkpt><trkpt lat="44.331859" lon="7.4939687"><ele>627.0</ele><time>2026-05-01T10:02:09.275Z</time></trkpt><trkpt lat="44.3318457" lon="7.493789"><ele>627.5</ele><time>2026-05-01T10:02:10.275Z</time></trkpt><trkpt lat="44.3318324" lon="7.493608"><ele>628.0</ele><time>2026-05-01T10:02:11.275Z</time></trkpt><trkpt lat="44.3318206" lon="7.4934361"><ele>628.5</ele><time>2026-05-01T10:02:12.275Z</time></trkpt><trkpt lat="44.3318047" lon="7.4932606"><ele>629.0</ele><time>2026-05-01T10:02:13.275Z</time></trkpt><trkpt lat="44.3317839" lon="7.4930881"><ele>629.5</ele><time>2026-05-01T10:02:14.276Z</time></trkpt><trkpt lat="44.3317651" lon="7.4929071"><ele>630.0</ele><time>2026-05-01T10:02:15.276Z</time></trkpt><trkpt lat="44.3317481" lon="7.4927226"><ele>630.5</ele><time>2026-05-01T10:02:16.276Z</time></trkpt><trkpt lat="44.331736" lon="7.4925465"><ele>631.0</ele><time>2026-05-01T10:02:17.276Z</time></trkpt><trkpt lat="44.3317304" lon="7.4923781"><ele>631.0</ele><time>2026-05-01T10:02:18.275Z</time></trkpt><trkpt lat="44.3317277" lon="7.492221"><ele>631.0</ele><time>2026-05-01T10:02:19.275Z</time></trkpt><trkpt lat="44.33172" lon="7.492074"><ele>631.0</ele><time>2026-05-01T10:02:20.275Z</time></trkpt><trkpt lat="44.3317119" lon="7.4919444"><ele>631.0</ele><time>2026-05-01T10:02:21.275Z</time></trkpt><trkpt lat="44.3317065" lon="7.4918203"><ele>631.0</ele><time>2026-05-01T10:02:22.275Z</time></trkpt><trkpt lat="44.3317003" lon="7.4916997"><ele>631.2</ele><time>2026-05-01T10:02:23.275Z</time></trkpt><trkpt lat="44.3316953" lon="7.4915721"><ele>631.4000000000001</ele><time>2026-05-01T10:02:24.275Z</time></trkpt><trkpt lat="44.3316929" lon="7.4914406"><ele>631.6</ele><time>2026-05-01T10:02:25.275Z</time></trkpt><trkpt lat="44.3316969" lon="7.4913072"><ele>631.8000000000001</ele><time>2026-05-01T10:02:26.275Z</time></trkpt><trkpt lat="44.3316955" lon="7.4911798"><ele>632.0</ele><time>2026-05-01T10:02:27.275Z</time></trkpt><trkpt lat="44.3316915" lon="7.4910529"><ele>632.2</ele><time>2026-05-01T10:02:28.275Z</time></trkpt><trkpt lat="44.3316853" lon="7.4909288"><ele>632.4000000000001</ele><time>2026-05-01T10:02:29.275Z</time></trkpt><trkpt lat="44.3316815" lon="7.4907925"><ele>632.5999999999999</ele><time>2026-05-01T10:02:30.276Z</time></trkpt><trkpt lat="44.3316705" lon="7.4906632"><ele>632.8</ele><time>2026-05-01T10:02:31.275Z</time></trkpt><trkpt lat="44.3316592" lon="7.4905426"><ele>633.0</ele><time>2026-05-01T10:02:32.275Z</time></trkpt><trkpt lat="44.3316592" lon="7.4904248"><ele>633.3333333333334</ele><time>2026-05-01T10:02:33.275Z</time></trkpt><trkpt lat="44.3316613" lon="7.4903154"><ele>633.6666666666666</ele><time>2026-05-01T10:02:34.275Z</time></trkpt><trkpt lat="44.3316568" lon="7.4902082"><ele>634.0</ele><time>2026-05-01T10:02:35.275Z</time></trkpt><trkpt lat="44.3316484" lon="7.4901095"><ele>634.3333333333333</ele><time>2026-05-01T10:02:36.275Z</time></trkpt><trkpt lat="44.3316253" lon="7.4899543"><ele>634.6666666666666</ele><time>2026-05-01T10:02:38.275Z</time></trkpt><trkpt lat="44.3316171" lon="7.4898349"><ele>635.0</ele><time>2026-05-01T10:02:40.275Z</time></trkpt><trkpt lat="44.3316565" lon="7.4896868"><ele>635.1666666666666</ele><time>2026-05-01T10:02:42.275Z</time></trkpt><trkpt lat="44.3316834" lon="7.4895842"><ele>635.3333333333333</ele><time>2026-05-01T10:02:43.275Z</time></trkpt><trkpt lat="44.3317051" lon="7.4894726"><ele>635.5</ele><time>2026-05-01T10:02:44.275Z</time></trkpt><trkpt lat="44.3317234" lon="7.4893681"><ele>635.6666666666666</ele><time>2026-05-01T10:02:45.275Z</time></trkpt><trkpt lat="44.3317456" lon="7.48927"><ele>635.8333333333334</ele><time>2026-05-01T10:02:46.274Z</time></trkpt><trkpt lat="44.331782" lon="7.4891281"><ele>636.0</ele><time>2026-05-01T10:02:48.275Z</time></trkpt><trkpt lat="44.331863" lon="7.4890453"><ele>636.0</ele><time>2026-05-01T10:02:50.275Z</time></trkpt><trkpt lat="44.3319681" lon="7.4890004"><ele>636.0</ele><time>2026-05-01T10:02:52.275Z</time></trkpt><trkpt lat="44.3320146" lon="7.4889086"><ele>636.0</ele><time>2026-05-01T10:02:54.276Z</time></trkpt><trkpt lat="44.3319918" lon="7.4887871"><ele>636.0</ele><time>2026-05-01T10:02:56.275Z</time></trkpt><trkpt lat="44.3319051" lon="7.4887598"><ele>636.0</ele><time>2026-05-01T10:02:58.275Z</time></trkpt><trkpt lat="44.3318223" lon="7.4888385"><ele>636.0</ele><time>2026-05-01T10:03:00.275Z</time></trkpt><trkpt lat="44.3317416" lon="7.4889161"><ele>636.0</ele><time>2026-05-01T10:03:02.275Z</time></trkpt><trkpt lat="44.3316346" lon="7.4889091"><ele>636.0</ele><time>2026-05-01T10:03:04.275Z</time></trkpt><trkpt lat="44.3315708" lon="7.4888825"><ele>636.0</ele><time>2026-05-01T10:03:05.275Z</time></trkpt><trkpt lat="44.3315014" lon="7.4888616"><ele>636.0</ele><time>2026-05-01T10:03:06.275Z</time></trkpt><trkpt lat="44.3314327" lon="7.4888449"><ele>636.0</ele><time>2026-05-01T10:03:07.275Z</time></trkpt><trkpt lat="44.3313644" lon="7.4888288"><ele>636.4</ele><time>2026-05-01T10:03:08.275Z</time></trkpt><trkpt lat="44.3312416" lon="7.4888048"><ele>636.8</ele><time>2026-05-01T10:03:10.275Z</time></trkpt><trkpt lat="44.3311367" lon="7.4887749"><ele>637.1999999999999</ele><time>2026-05-01T10:03:12.275Z</time></trkpt><trkpt lat="44.3310574" lon="7.4887634"><ele>637.6</ele><time>2026-05-01T10:03:14.275Z</time></trkpt><trkpt lat="44.3309882" lon="7.4887595"><ele>638.0</ele><time>2026-05-01T10:03:18.275Z</time></trkpt><trkpt lat="44.3309214" lon="7.4887325"><ele>639.0</ele><time>2026-05-01T10:03:22.275Z</time></trkpt></trkseg><trkseg><trkpt lat="44.3309329" lon="7.4886515"><ele>639.0</ele><time>2026-05-01T10:35:25.273Z</time></trkpt><trkpt lat="44.330959" lon="7.4885298"><ele>639.0</ele><time>2026-05-01T10:37:27.274Z</time></trkpt><trkpt lat="44.330955" lon="7.4884365"><ele>639.0</ele><time>2026-05-01T10:37:29.273Z</time></trkpt><trkpt lat="44.3309769" lon="7.4883078"><ele>639.0</ele><time>2026-05-01T10:37:31.273Z</time></trkpt><trkpt lat="44.3309858" lon="7.4881894"><ele>639.0</ele><time>2026-05-01T10:37:33.274Z</time></trkpt><trkpt lat="44.3309795" lon="7.4880783"><ele>639.0</ele><time>2026-05-01T10:37:35.273Z</time></trkpt><trkpt lat="44.3309497" lon="7.4879607"><ele>639.4</ele><time>2026-05-01T10:37:37.273Z</time></trkpt><trkpt lat="44.3308877" lon="7.4878257"><ele>639.8</ele><time>2026-05-01T10:37:39.273Z</time></trkpt><trkpt lat="44.3308102" lon="7.4877161"><ele>640.1999999999999</ele><time>2026-05-01T10:37:41.273Z</time></trkpt><trkpt lat="44.3307423" lon="7.4876224"><ele>640.5999999999999</ele><time>2026-05-01T10:37:43.273Z</time></trkpt><trkpt lat="44.3306722" lon="7.4874983"><ele>641.0</ele><time>2026-05-01T10:37:45.273Z</time></trkpt><trkpt lat="44.3306146" lon="7.4874401"><ele>641.0</ele><time>2026-05-01T10:37:46.273Z</time></trkpt><trkpt lat="44.330563" lon="7.4873845"><ele>641.0</ele><time>2026-05-01T10:37:47.273Z</time></trkpt><trkpt lat="44.3305123" lon="7.4873296"><ele>641.0</ele><time>2026-05-01T10:37:48.273Z</time></trkpt><trkpt lat="44.3304107" lon="7.4872259"><ele>641.0</ele><time>2026-05-01T10:37:50.273Z</time></trkpt><trkpt lat="44.3303232" lon="7.4871343"><ele>641.0</ele><time>2026-05-01T10:37:52.274Z</time></trkpt><trkpt lat="44.3302349" lon="7.4870638"><ele>640.8333333333333</ele><time>2026-05-01T10:37:54.273Z</time></trkpt><trkpt lat="44.3301355" lon="7.4870029"><ele>640.6666666666666</ele><time>2026-05-01T10:37:56.273Z</time></trkpt><trkpt lat="44.3300558" lon="7.4869746"><ele>640.5</ele><time>2026-05-01T10:37:58.273Z</time></trkpt><trkpt lat="44.3299995" lon="7.4869195"><ele>640.3333333333334</ele><time>2026-05-01T10:38:04.273Z</time></trkpt><trkpt lat="44.3299627" lon="7.486829"><ele>640.1666666666667</ele><time>2026-05-01T10:38:07.273Z</time></trkpt><trkpt lat="44.3298728" lon="7.4868295"><ele>640.0</ele><time>2026-05-01T10:38:09.273Z</time></trkpt><trkpt lat="44.3297913" lon="7.4868217"><ele>640.0</ele><time>2026-05-01T10:38:11.273Z</time></trkpt><trkpt lat="44.329715" lon="7.4867821"><ele>640.0</ele><time>2026-05-01T10:38:13.273Z</time></trkpt><trkpt lat="44.3296349" lon="7.48666"><ele>640.0</ele><time>2026-05-01T10:38:15.273Z</time></trkpt><trkpt lat="44.3295879" lon="7.4865955"><ele>640.0</ele><time>2026-05-01T10:38:16.273Z</time></trkpt><trkpt lat="44.3295223" lon="7.4865385"><ele>640.0</ele><time>2026-05-01T10:38:17.273Z</time></trkpt><trkpt lat="44.329462" lon="7.4865087"><ele>640.0</ele><time>2026-05-01T10:38:18.273Z</time></trkpt><trkpt lat="44.3293719" lon="7.4864615"><ele>640.0</ele><time>2026-05-01T10:38:20.273Z</time></trkpt><trkpt lat="44.3293015" lon="7.4863952"><ele>640.0</ele><time>2026-05-01T10:38:24.273Z</time></trkpt><trkpt lat="44.329289" lon="7.4862821"><ele>640.0</ele><time>2026-05-01T10:38:26.274Z</time></trkpt><trkpt lat="44.3292498" lon="7.4861354"><ele>640.0</ele><time>2026-05-01T10:38:28.273Z</time></trkpt><trkpt lat="44.3292152" lon="7.4860563"><ele>640.0</ele><time>2026-05-01T10:38:29.273Z</time></trkpt><trkpt lat="44.329163" lon="7.4859793"><ele>640.0</ele><time>2026-05-01T10:38:30.273Z</time></trkpt><trkpt lat="44.3291061" lon="7.4859022"><ele>640.0</ele><time>2026-05-01T10:38:31.273Z</time></trkpt><trkpt lat="44.329055" lon="7.485836"><ele>640.0</ele><time>2026-05-01T10:38:32.273Z</time></trkpt><trkpt lat="44.3290014" lon="7.485774"><ele>640.0</ele><time>2026-05-01T10:38:33.273Z</time></trkpt><trkpt lat="44.3289319" lon="7.485706"><ele>640.0</ele><time>2026-05-01T10:38:34.273Z</time></trkpt><trkpt lat="44.3288703" lon="7.4856336"><ele>640.0</ele><time>2026-05-01T10:38:35.273Z</time></trkpt><trkpt lat="44.3288173" lon="7.4855701"><ele>640.0</ele><time>2026-05-01T10:38:36.273Z</time></trkpt><trkpt lat="44.3287363" lon="7.4854986"><ele>640.2</ele><time>2026-05-01T10:38:38.273Z</time></trkpt><trkpt lat="44.3286713" lon="7.4854653"><ele>640.4</ele><time>2026-05-01T10:38:44.273Z</time></trkpt><trkpt lat="44.3286083" lon="7.4855378"><ele>640.5999999999999</ele><time>2026-05-01T10:38:46.273Z</time></trkpt><trkpt lat="44.3285239" lon="7.4856492"><ele>640.8</ele><time>2026-05-01T10:38:48.273Z</time></trkpt><trkpt lat="44.328425" lon="7.4857491"><ele>641.0</ele><time>2026-05-01T10:38:50.273Z</time></trkpt><trkpt lat="44.3283738" lon="7.4858083"><ele>641.0</ele><time>2026-05-01T10:38:51.273Z</time></trkpt><trkpt lat="44.3283278" lon="7.4858865"><ele>641.0</ele><time>2026-05-01T10:38:52.274Z</time></trkpt><trkpt lat="44.3282809" lon="7.4859875"><ele>641.0</ele><time>2026-05-01T10:38:53.273Z</time></trkpt><trkpt lat="44.3282342" lon="7.4860776"><ele>641.0</ele><time>2026-05-01T10:38:54.273Z</time></trkpt><trkpt lat="44.3282046" lon="7.4861746"><ele>641.0</ele><time>2026-05-01T10:38:55.273Z</time></trkpt><trkpt lat="44.3281731" lon="7.4862705"><ele>641.0</ele><time>2026-05-01T10:38:56.273Z</time></trkpt><trkpt lat="44.3281378" lon="7.4863565"><ele>640.8333333333333</ele><time>2026-05-01T10:38:57.273Z</time></trkpt><trkpt lat="44.328109" lon="7.4864355"><ele>640.6666666666666</ele><time>2026-05-01T10:38:58.273Z</time></trkpt><trkpt lat="44.3280561" lon="7.4865595"><ele>640.5</ele><time>2026-05-01T10:39:00.273Z</time></trkpt><trkpt lat="44.3279981" lon="7.4866415"><ele>640.3333333333334</ele><time>2026-05-01T10:39:02.274Z</time></trkpt><trkpt lat="44.3279338" lon="7.4866963"><ele>640.1666666666667</ele><time>2026-05-01T10:39:06.273Z</time></trkpt><trkpt lat="44.327855" lon="7.4867054"><ele>640.0</ele><time>2026-05-01T10:39:08.273Z</time></trkpt><trkpt lat="44.3277417" lon="7.4867563"><ele>640.0</ele><time>2026-05-01T10:39:10.273Z</time></trkpt><trkpt lat="44.3276624" lon="7.4867814"><ele>640.0</ele><time>2026-05-01T10:39:11.273Z</time></trkpt><trkpt lat="44.3275881" lon="7.4868014"><ele>640.0</ele><time>2026-05-01T10:39:12.273Z</time></trkpt><trkpt lat="44.3275174" lon="7.4868074"><ele>640.0</ele><time>2026-05-01T10:39:13.273Z</time></trkpt><trkpt lat="44.3274515" lon="7.4868018"><ele>640.0</ele><time>2026-05-01T10:39:14.273Z</time></trkpt><trkpt lat="44.3273256" lon="7.4867648"><ele>640.0</ele><time>2026-05-01T10:39:16.273Z</time></trkpt><trkpt lat="44.3272694" lon="7.4867248"><ele>638.5</ele><time>2026-05-01T10:39:17.273Z</time></trkpt><trkpt lat="44.3272107" lon="7.4866747"><ele>637.0</ele><time>2026-05-01T10:39:18.274Z</time></trkpt><trkpt lat="44.3271451" lon="7.4866294"><ele>635.5</ele><time>2026-05-01T10:39:19.273Z</time></trkpt><trkpt lat="44.3270857" lon="7.4865875"><ele>634.0</ele><time>2026-05-01T10:39:20.273Z</time></trkpt><trkpt lat="44.3269852" lon="7.4865238"><ele>632.5</ele><time>2026-05-01T10:39:22.273Z</time></trkpt><trkpt lat="44.3269057" lon="7.4864734"><ele>631.0</ele><time>2026-05-01T10:39:24.273Z</time></trkpt><trkpt lat="44.3268111" lon="7.4863419"><ele>632.4</ele><time>2026-05-01T10:39:26.273Z</time></trkpt><trkpt lat="44.3267619" lon="7.4862462"><ele>633.8</ele><time>2026-05-01T10:39:27.274Z</time></trkpt><trkpt lat="44.3267063" lon="7.4861372"><ele>635.1999999999999</ele><time>2026-05-01T10:39:28.273Z</time></trkpt><trkpt lat="44.3266474" lon="7.4860245"><ele>636.6</ele><time>2026-05-01T10:39:29.273Z</time></trkpt><trkpt lat="44.3265875" lon="7.4859148"><ele>638.0</ele><time>2026-05-01T10:39:30.273Z</time></trkpt><trkpt lat="44.3265408" lon="7.4858021"><ele>638.0</ele><time>2026-05-01T10:39:31.273Z</time></trkpt><trkpt lat="44.3264971" lon="7.485678"><ele>638.0</ele><time>2026-05-01T10:39:32.273Z</time></trkpt><trkpt lat="44.3264493" lon="7.4855535"><ele>638.0</ele><time>2026-05-01T10:39:33.273Z</time></trkpt><trkpt lat="44.326395" lon="7.4854437"><ele>638.0</ele><time>2026-05-01T10:39:34.273Z</time></trkpt><trkpt lat="44.326331" lon="7.485326"><ele>638.0</ele><time>2026-05-01T10:39:35.274Z</time></trkpt><trkpt lat="44.3262746" lon="7.4852014"><ele>636.75</ele><time>2026-05-01T10:39:36.273Z</time></trkpt><trkpt lat="44.3262048" lon="7.4850656"><ele>635.5</ele><time>2026-05-01T10:39:37.273Z</time></trkpt><trkpt lat="44.3261368" lon="7.4849196"><ele>634.25</ele><time>2026-05-01T10:39:38.273Z</time></trkpt><trkpt lat="44.3260747" lon="7.484779"><ele>633.0</ele><time>2026-05-01T10:39:39.273Z</time></trkpt><trkpt lat="44.3260114" lon="7.4846476"><ele>633.6</ele><time>2026-05-01T10:39:40.273Z</time></trkpt><trkpt lat="44.3259411" lon="7.4845254"><ele>634.1999999999999</ele><time>2026-05-01T10:39:41.273Z</time></trkpt><trkpt lat="44.3258785" lon="7.4844012"><ele>634.8</ele><time>2026-05-01T10:39:42.273Z</time></trkpt><trkpt lat="44.3258184" lon="7.4842754"><ele>635.4</ele><time>2026-05-01T10:39:43.273Z</time></trkpt><trkpt lat="44.3257573" lon="7.4841544"><ele>636.0</ele><time>2026-05-01T10:39:44.273Z</time></trkpt><trkpt lat="44.3257023" lon="7.4840285"><ele>636.0</ele><time>2026-05-01T10:39:45.273Z</time></trkpt><trkpt lat="44.3256472" lon="7.483899"><ele>636.0</ele><time>2026-05-01T10:39:46.273Z</time></trkpt><trkpt lat="44.3255898" lon="7.4837776"><ele>636.0</ele><time>2026-05-01T10:39:47.273Z</time></trkpt><trkpt lat="44.325532" lon="7.4836595"><ele>636.0</ele><time>2026-05-01T10:39:48.274Z</time></trkpt><trkpt lat="44.3254842" lon="7.4835495"><ele>636.0</ele><time>2026-05-01T10:39:49.273Z</time></trkpt><trkpt lat="44.3254349" lon="7.4834522"><ele>636.1666666666666</ele><time>2026-05-01T10:39:50.273Z</time></trkpt><trkpt lat="44.3253898" lon="7.483349"><ele>636.3333333333334</ele><time>2026-05-01T10:39:51.273Z</time></trkpt><trkpt lat="44.3253432" lon="7.4832487"><ele>636.5</ele><time>2026-05-01T10:39:52.273Z</time></trkpt><trkpt lat="44.3252991" lon="7.4831517"><ele>636.6666666666667</ele><time>2026-05-01T10:39:53.273Z</time></trkpt><trkpt lat="44.3252504" lon="7.4830592"><ele>636.8333333333334</ele><time>2026-05-01T10:39:54.273Z</time></trkpt><trkpt lat="44.3252066" lon="7.4829739"><ele>637.0</ele><time>2026-05-01T10:39:55.273Z</time></trkpt><trkpt lat="44.325169" lon="7.4828897"><ele>637.0</ele><time>2026-05-01T10:39:56.274Z</time></trkpt><trkpt lat="44.3251255" lon="7.4828077"><ele>637.0</ele><time>2026-05-01T10:39:57.273Z</time></trkpt><trkpt lat="44.3250825" lon="7.4827216"><ele>637.0</ele><time>2026-05-01T10:39:58.273Z</time></trkpt><trkpt lat="44.3250415" lon="7.4826316"><ele>637.0</ele><time>2026-05-01T10:39:59.273Z</time></trkpt><trkpt lat="44.3249924" lon="7.4825355"><ele>637.0</ele><time>2026-05-01T10:40:00.273Z</time></trkpt><trkpt lat="44.3249461" lon="7.4824283"><ele>637.0</ele><time>2026-05-01T10:40:01.273Z</time></trkpt><trkpt lat="44.3248994" lon="7.4823104"><ele>637.0</ele><time>2026-05-01T10:40:02.273Z</time></trkpt><trkpt lat="44.3248465" lon="7.4821863"><ele>637.0</ele><time>2026-05-01T10:40:03.273Z</time></trkpt><trkpt lat="44.3247875" lon="7.482069"><ele>637.0</ele><time>2026-05-01T10:40:04.273Z</time></trkpt><trkpt lat="44.324733" lon="7.4819455"><ele>637.0</ele><time>2026-05-01T10:40:05.273Z</time></trkpt><trkpt lat="44.3246843" lon="7.4818304"><ele>637.0</ele><time>2026-05-01T10:40:06.273Z</time></trkpt><trkpt lat="44.3246285" lon="7.4817222"><ele>637.4</ele><time>2026-05-01T10:40:07.273Z</time></trkpt><trkpt lat="44.3245731" lon="7.4816085"><ele>637.8000000000001</ele><time>2026-05-01T10:40:08.273Z</time></trkpt><trkpt lat="44.3245167" lon="7.4814993"><ele>638.2</ele><time>2026-05-01T10:40:09.273Z</time></trkpt><trkpt lat="44.3244556" lon="7.4813896"><ele>638.6</ele><time>2026-05-01T10:40:10.273Z</time></trkpt><trkpt lat="44.3243979" lon="7.4812715"><ele>639.0</ele><time>2026-05-01T10:40:11.273Z</time></trkpt><trkpt lat="44.3243411" lon="7.4811676"><ele>639.0</ele><time>2026-05-01T10:40:12.273Z</time></trkpt><trkpt lat="44.3242955" lon="7.4810763"><ele>639.0</ele><time>2026-05-01T10:40:13.273Z</time></trkpt><trkpt lat="44.3242589" lon="7.4809936"><ele>639.0</ele><time>2026-05-01T10:40:14.274Z</time></trkpt><trkpt lat="44.3242092" lon="7.4808578"><ele>639.0</ele><time>2026-05-01T10:40:16.273Z</time></trkpt><trkpt lat="44.3241502" lon="7.48072"><ele>639.0</ele><time>2026-05-01T10:40:18.273Z</time></trkpt><trkpt lat="44.324056" lon="7.4806263"><ele>639.0</ele><time>2026-05-01T10:40:20.273Z</time></trkpt><trkpt lat="44.3239364" lon="7.4806129"><ele>639.0</ele><time>2026-05-01T10:40:22.273Z</time></trkpt><trkpt lat="44.3238602" lon="7.4806119"><ele>639.0</ele><time>2026-05-01T10:40:23.273Z</time></trkpt><trkpt lat="44.3237886" lon="7.4806028"><ele>639.0</ele><time>2026-05-01T10:40:24.273Z</time></trkpt><trkpt lat="44.3237121" lon="7.4805751"><ele>639.0</ele><time>2026-05-01T10:40:25.273Z</time></trkpt><trkpt lat="44.3236262" lon="7.4805363"><ele>639.0</ele><time>2026-05-01T10:40:26.273Z</time></trkpt><trkpt lat="44.3235358" lon="7.4804957"><ele>638.0</ele><time>2026-05-01T10:40:27.273Z</time></trkpt><trkpt lat="44.3234424" lon="7.4804585"><ele>637.0</ele><time>2026-05-01T10:40:28.273Z</time></trkpt><trkpt lat="44.3233447" lon="7.480425"><ele>636.0</ele><time>2026-05-01T10:40:29.273Z</time></trkpt><trkpt lat="44.3232385" lon="7.480398"><ele>635.0</ele><time>2026-05-01T10:40:30.273Z</time></trkpt><trkpt lat="44.3231381" lon="7.4803789"><ele>634.0</ele><time>2026-05-01T10:40:31.273Z</time></trkpt><trkpt lat="44.3230335" lon="7.4803768"><ele>634.0</ele><time>2026-05-01T10:40:32.273Z</time></trkpt><trkpt lat="44.3229227" lon="7.4803855"><ele>634.0</ele><time>2026-05-01T10:40:33.273Z</time></trkpt><trkpt lat="44.3228104" lon="7.4803971"><ele>634.0</ele><time>2026-05-01T10:40:34.273Z</time></trkpt><trkpt lat="44.322694" lon="7.480411"><ele>634.0</ele><time>2026-05-01T10:40:35.273Z</time></trkpt><trkpt lat="44.3225744" lon="7.4804338"><ele>633.6</ele><time>2026-05-01T10:40:36.273Z</time></trkpt><trkpt lat="44.3224583" lon="7.480466"><ele>633.2</ele><time>2026-05-01T10:40:37.274Z</time></trkpt><trkpt lat="44.3223543" lon="7.4804965"><ele>632.8000000000001</ele><time>2026-05-01T10:40:38.273Z</time></trkpt><trkpt lat="44.3222592" lon="7.4805279"><ele>632.4</ele><time>2026-05-01T10:40:39.273Z</time></trkpt><trkpt lat="44.3221701" lon="7.4805534"><ele>632.0</ele><time>2026-05-01T10:40:40.273Z</time></trkpt><trkpt lat="44.322085" lon="7.4805819"><ele>631.8000000000001</ele><time>2026-05-01T10:40:41.273Z</time></trkpt><trkpt lat="44.3219909" lon="7.4806087"><ele>631.6</ele><time>2026-05-01T10:40:42.274Z</time></trkpt><trkpt lat="44.3218881" lon="7.4806353"><ele>631.4000000000001</ele><time>2026-05-01T10:40:43.273Z</time></trkpt><trkpt lat="44.3217813" lon="7.4806642"><ele>631.2</ele><time>2026-05-01T10:40:44.273Z</time></trkpt><trkpt lat="44.3216735" lon="7.4806859"><ele>631.0</ele><time>2026-05-01T10:40:45.273Z</time></trkpt><trkpt lat="44.3215633" lon="7.4807151"><ele>631.0</ele><time>2026-05-01T10:40:46.273Z</time></trkpt><trkpt lat="44.3214512" lon="7.4807448"><ele>631.0</ele><time>2026-05-01T10:40:47.273Z</time></trkpt><trkpt lat="44.3213304" lon="7.4807636"><ele>631.0</ele><time>2026-05-01T10:40:48.273Z</time></trkpt><trkpt lat="44.3211972" lon="7.4807906"><ele>631.0</ele><time>2026-05-01T10:40:49.273Z</time></trkpt><trkpt lat="44.321064" lon="7.4808237"><ele>631.0</ele><time>2026-05-01T10:40:50.273Z</time></trkpt><trkpt lat="44.3209256" lon="7.4808544"><ele>631.0</ele><time>2026-05-01T10:40:51.273Z</time></trkpt><trkpt lat="44.3207835" lon="7.4808946"><ele>631.0</ele><time>2026-05-01T10:40:52.273Z</time></trkpt><trkpt lat="44.32064" lon="7.4809362"><ele>631.0</ele><time>2026-05-01T10:40:53.273Z</time></trkpt><trkpt lat="44.3204992" lon="7.4809751"><ele>632.6666666666667</ele><time>2026-05-01T10:40:54.273Z</time></trkpt><trkpt lat="44.3203532" lon="7.481015"><ele>634.3333333333334</ele><time>2026-05-01T10:40:55.273Z</time></trkpt><trkpt lat="44.3201976" lon="7.4810524"><ele>636.0</ele><time>2026-05-01T10:40:56.273Z</time></trkpt><trkpt lat="44.3200438" lon="7.4810905"><ele>636.0</ele><time>2026-05-01T10:40:57.274Z</time></trkpt><trkpt lat="44.3198892" lon="7.4811274"><ele>636.0</ele><time>2026-05-01T10:40:58.274Z</time></trkpt><trkpt lat="44.3197326" lon="7.4811676"><ele>636.0</ele><time>2026-05-01T10:40:59.273Z</time></trkpt><trkpt lat="44.319579" lon="7.4812089"><ele>636.0</ele><time>2026-05-01T10:41:00.273Z</time></trkpt><trkpt lat="44.3194376" lon="7.4812433"><ele>636.0</ele><time>2026-05-01T10:41:01.273Z</time></trkpt><trkpt lat="44.3192977" lon="7.4812846"><ele>636.0</ele><time>2026-05-01T10:41:02.273Z</time></trkpt><trkpt lat="44.3191506" lon="7.4813233"><ele>636.0</ele><time>2026-05-01T10:41:03.273Z</time></trkpt><trkpt lat="44.3190099" lon="7.4813588"><ele>637.0</ele><time>2026-05-01T10:41:04.273Z</time></trkpt><trkpt lat="44.3188718" lon="7.4813882"><ele>638.0</ele><time>2026-05-01T10:41:05.274Z</time></trkpt><trkpt lat="44.3187381" lon="7.481425"><ele>639.0</ele><time>2026-05-01T10:41:06.273Z</time></trkpt><trkpt lat="44.3186128" lon="7.481453"><ele>640.0</ele><time>2026-05-01T10:41:07.273Z</time></trkpt><trkpt lat="44.3184891" lon="7.4814893"><ele>640.0</ele><time>2026-05-01T10:41:08.273Z</time></trkpt><trkpt lat="44.3183696" lon="7.4815185"><ele>640.0</ele><time>2026-05-01T10:41:09.273Z</time></trkpt><trkpt lat="44.3182512" lon="7.4815394"><ele>640.0</ele><time>2026-05-01T10:41:10.273Z</time></trkpt><trkpt lat="44.318132" lon="7.4815623"><ele>640.0</ele><time>2026-05-01T10:41:11.273Z</time></trkpt><trkpt lat="44.3180147" lon="7.4815837"><ele>640.8</ele><time>2026-05-01T10:41:12.274Z</time></trkpt><trkpt lat="44.3179069" lon="7.4816104"><ele>641.6</ele><time>2026-05-01T10:41:13.273Z</time></trkpt><trkpt lat="44.3178085" lon="7.481631"><ele>642.4000000000001</ele><time>2026-05-01T10:41:14.273Z</time></trkpt><trkpt lat="44.317703" lon="7.4816582"><ele>643.2</ele><time>2026-05-01T10:41:15.274Z</time></trkpt><trkpt lat="44.3176174" lon="7.4816685"><ele>644.0</ele><time>2026-05-01T10:41:16.273Z</time></trkpt><trkpt lat="44.3175362" lon="7.4816578"><ele>644.0</ele><time>2026-05-01T10:41:17.273Z</time></trkpt><trkpt lat="44.3174664" lon="7.4816316"><ele>644.0</ele><time>2026-05-01T10:41:18.273Z</time></trkpt><trkpt lat="44.3173994" lon="7.4815651"><ele>644.0</ele><time>2026-05-01T10:41:19.273Z</time></trkpt><trkpt lat="44.31733" lon="7.4814663"><ele>644.0</ele><time>2026-05-01T10:41:20.273Z</time></trkpt><trkpt lat="44.3172687" lon="7.4813529"><ele>644.0</ele><time>2026-05-01T10:41:21.274Z</time></trkpt><trkpt lat="44.3172197" lon="7.4812227"><ele>645.25</ele><time>2026-05-01T10:41:22.273Z</time></trkpt><trkpt lat="44.3171725" lon="7.4810807"><ele>646.5</ele><time>2026-05-01T10:41:23.273Z</time></trkpt><trkpt lat="44.3171158" lon="7.4809269"><ele>647.75</ele><time>2026-05-01T10:41:24.273Z</time></trkpt><trkpt lat="44.3170571" lon="7.4807662"><ele>649.0</ele><time>2026-05-01T10:41:25.273Z</time></trkpt><trkpt lat="44.3169996" lon="7.4805961"><ele>648.75</ele><time>2026-05-01T10:41:26.273Z</time></trkpt><trkpt lat="44.3169352" lon="7.4804177"><ele>648.5</ele><time>2026-05-01T10:41:27.274Z</time></trkpt><trkpt lat="44.3168654" lon="7.4802357"><ele>648.25</ele><time>2026-05-01T10:41:28.273Z</time></trkpt><trkpt lat="44.3167936" lon="7.4800474"><ele>648.0</ele><time>2026-05-01T10:41:29.273Z</time></trkpt><trkpt lat="44.3167279" lon="7.4798574"><ele>648.0</ele><time>2026-05-01T10:41:30.273Z</time></trkpt><trkpt lat="44.3166661" lon="7.4796772"><ele>648.0</ele><time>2026-05-01T10:41:31.273Z</time></trkpt><trkpt lat="44.3166078" lon="7.4795007"><ele>648.0</ele><time>2026-05-01T10:41:32.273Z</time></trkpt><trkpt lat="44.3165544" lon="7.4793428"><ele>648.0</ele><time>2026-05-01T10:41:33.273Z</time></trkpt><trkpt lat="44.3165103" lon="7.479201"><ele>647.5999999999999</ele><time>2026-05-01T10:41:34.273Z</time></trkpt><trkpt lat="44.316489" lon="7.4790732"><ele>647.1999999999999</ele><time>2026-05-01T10:41:35.273Z</time></trkpt><trkpt lat="44.3164902" lon="7.4789524"><ele>646.8</ele><time>2026-05-01T10:41:36.273Z</time></trkpt><trkpt lat="44.316535" lon="7.4788348"><ele>646.4</ele><time>2026-05-01T10:41:37.273Z</time></trkpt><trkpt lat="44.3166139" lon="7.4787177"><ele>646.0</ele><time>2026-05-01T10:41:38.273Z</time></trkpt><trkpt lat="44.3167021" lon="7.4785928"><ele>645.75</ele><time>2026-05-01T10:41:39.274Z</time></trkpt><trkpt lat="44.3167914" lon="7.4784581"><ele>645.5</ele><time>2026-05-01T10:41:40.273Z</time></trkpt><trkpt lat="44.3168876" lon="7.4783164"><ele>645.25</ele><time>2026-05-01T10:41:41.273Z</time></trkpt><trkpt lat="44.3169918" lon="7.4781696"><ele>645.0</ele><time>2026-05-01T10:41:42.273Z</time></trkpt><trkpt lat="44.3170982" lon="7.4780295"><ele>644.25</ele><time>2026-05-01T10:41:43.274Z</time></trkpt><trkpt lat="44.3172096" lon="7.477903"><ele>643.5</ele><time>2026-05-01T10:41:44.274Z</time></trkpt><trkpt lat="44.3173273" lon="7.4777983"><ele>642.75</ele><time>2026-05-01T10:41:45.273Z</time></trkpt><trkpt lat="44.3174519" lon="7.4777219"><ele>642.0</ele><time>2026-05-01T10:41:46.273Z</time></trkpt><trkpt lat="44.3175773" lon="7.4776732"><ele>641.25</ele><time>2026-05-01T10:41:47.273Z</time></trkpt><trkpt lat="44.3177185" lon="7.4776454"><ele>640.5</ele><time>2026-05-01T10:41:48.273Z</time></trkpt><trkpt lat="44.3178517" lon="7.4776547"><ele>639.75</ele><time>2026-05-01T10:41:49.273Z</time></trkpt><trkpt lat="44.3179987" lon="7.4777051"><ele>639.0</ele><time>2026-05-01T10:41:50.273Z</time></trkpt><trkpt lat="44.3181496" lon="7.4777924"><ele>638.75</ele><time>2026-05-01T10:41:51.273Z</time></trkpt><trkpt lat="44.3182758" lon="7.4779013"><ele>638.5</ele><time>2026-05-01T10:41:52.273Z</time></trkpt><trkpt lat="44.3183867" lon="7.4780445"><ele>638.25</ele><time>2026-05-01T10:41:53.273Z</time></trkpt><trkpt lat="44.3184681" lon="7.4782135"><ele>638.0</ele><time>2026-05-01T10:41:54.273Z</time></trkpt><trkpt lat="44.3185255" lon="7.478408"><ele>637.6666666666666</ele><time>2026-05-01T10:41:55.273Z</time></trkpt><trkpt lat="44.318566" lon="7.4786238"><ele>637.3333333333334</ele><time>2026-05-01T10:41:56.274Z</time></trkpt><trkpt lat="44.318589" lon="7.4788508"><ele>637.0</ele><time>2026-05-01T10:41:57.273Z</time></trkpt><trkpt lat="44.3186126" lon="7.4790876"><ele>636.6666666666667</ele><time>2026-05-01T10:41:58.273Z</time></trkpt><trkpt lat="44.3186399" lon="7.4793333"><ele>636.3333333333334</ele><time>2026-05-01T10:41:59.273Z</time></trkpt><trkpt lat="44.3186608" lon="7.4795937"><ele>636.0</ele><time>2026-05-01T10:42:00.273Z</time></trkpt><trkpt lat="44.318684" lon="7.4798671"><ele>636.0</ele><time>2026-05-01T10:42:01.273Z</time></trkpt><trkpt lat="44.3187117" lon="7.4801518"><ele>636.0</ele><time>2026-05-01T10:42:02.274Z</time></trkpt><trkpt lat="44.3187421" lon="7.4804453"><ele>636.0</ele><time>2026-05-01T10:42:03.273Z</time></trkpt><trkpt lat="44.3187731" lon="7.4807444"><ele>636.6666666666666</ele><time>2026-05-01T10:42:04.273Z</time></trkpt><trkpt lat="44.3188019" lon="7.4810492"><ele>637.3333333333333</ele><time>2026-05-01T10:42:05.273Z</time></trkpt><trkpt lat="44.318829" lon="7.4813541"><ele>638.0</ele><time>2026-05-01T10:42:06.273Z</time></trkpt><trkpt lat="44.3188543" lon="7.4816617"><ele>638.6666666666666</ele><time>2026-05-01T10:42:07.273Z</time></trkpt><trkpt lat="44.3188622" lon="7.4819768"><ele>639.3333333333334</ele><time>2026-05-01T10:42:08.273Z</time></trkpt><trkpt lat="44.3189019" lon="7.4822577"><ele>640.0</ele><time>2026-05-01T10:42:09.273Z</time></trkpt><trkpt lat="44.3189266" lon="7.4825499"><ele>639.0</ele><time>2026-05-01T10:42:10.273Z</time></trkpt><trkpt lat="44.3189561" lon="7.4828415"><ele>638.0</ele><time>2026-05-01T10:42:11.273Z</time></trkpt><trkpt lat="44.3189879" lon="7.483138"><ele>637.0</ele><time>2026-05-01T10:42:12.273Z</time></trkpt><trkpt lat="44.3190001" lon="7.4834402"><ele>637.0</ele><time>2026-05-01T10:42:13.273Z</time></trkpt><trkpt lat="44.3190068" lon="7.4837333"><ele>637.0</ele><time>2026-05-01T10:42:14.273Z</time></trkpt><trkpt lat="44.3189985" lon="7.4840294"><ele>637.0</ele><time>2026-05-01T10:42:15.273Z</time></trkpt><trkpt lat="44.3189744" lon="7.4843159"><ele>637.6666666666667</ele><time>2026-05-01T10:42:16.273Z</time></trkpt><trkpt lat="44.318925" lon="7.4845993"><ele>638.3333333333334</ele><time>2026-05-01T10:42:17.273Z</time></trkpt><trkpt lat="44.3188561" lon="7.4848745"><ele>639.0</ele><time>2026-05-01T10:42:18.273Z</time></trkpt><trkpt lat="44.3187621" lon="7.4851392"><ele>639.0</ele><time>2026-05-01T10:42:19.273Z</time></trkpt><trkpt lat="44.3186608" lon="7.4853747"><ele>639.0</ele><time>2026-05-01T10:42:20.273Z</time></trkpt><trkpt lat="44.3185552" lon="7.4855855"><ele>639.0</ele><time>2026-05-01T10:42:21.273Z</time></trkpt><trkpt lat="44.3184488" lon="7.4857751"><ele>639.3333333333334</ele><time>2026-05-01T10:42:22.273Z</time></trkpt><trkpt lat="44.3183351" lon="7.4859567"><ele>639.6666666666667</ele><time>2026-05-01T10:42:23.273Z</time></trkpt><trkpt lat="44.3182086" lon="7.4861336"><ele>640.0</ele><time>2026-05-01T10:42:24.273Z</time></trkpt><trkpt lat="44.3180699" lon="7.4862949"><ele>640.6666666666667</ele><time>2026-05-01T10:42:25.274Z</time></trkpt><trkpt lat="44.3179215" lon="7.4864413"><ele>641.3333333333334</ele><time>2026-05-01T10:42:26.273Z</time></trkpt><trkpt lat="44.3177708" lon="7.4865765"><ele>642.0</ele><time>2026-05-01T10:42:27.273Z</time></trkpt><trkpt lat="44.3176056" lon="7.4866951"><ele>642.0</ele><time>2026-05-01T10:42:28.273Z</time></trkpt><trkpt lat="44.3174489" lon="7.4867937"><ele>642.0</ele><time>2026-05-01T10:42:29.273Z</time></trkpt><trkpt lat="44.3172981" lon="7.4868737"><ele>642.0</ele><time>2026-05-01T10:42:30.273Z</time></trkpt><trkpt lat="44.3171591" lon="7.4869403"><ele>641.6</ele><time>2026-05-01T10:42:31.273Z</time></trkpt><trkpt lat="44.3170396" lon="7.4869954"><ele>641.2</ele><time>2026-05-01T10:42:32.273Z</time></trkpt><trkpt lat="44.316934" lon="7.4870399"><ele>640.8</ele><time>2026-05-01T10:42:33.273Z</time></trkpt><trkpt lat="44.3168371" lon="7.4870714"><ele>640.4</ele><time>2026-05-01T10:42:34.273Z</time></trkpt><trkpt lat="44.3167302" lon="7.4870745"><ele>640.0</ele><time>2026-05-01T10:42:35.273Z</time></trkpt><trkpt lat="44.3166225" lon="7.4870516"><ele>640.0</ele><time>2026-05-01T10:42:36.273Z</time></trkpt><trkpt lat="44.3165037" lon="7.4870275"><ele>640.0</ele><time>2026-05-01T10:42:37.273Z</time></trkpt><trkpt lat="44.3163909" lon="7.4870217"><ele>640.0</ele><time>2026-05-01T10:42:38.273Z</time></trkpt><trkpt lat="44.3162828" lon="7.4870602"><ele>640.0</ele><time>2026-05-01T10:42:39.273Z</time></trkpt><trkpt lat="44.3161875" lon="7.487146"><ele>638.75</ele><time>2026-05-01T10:42:40.274Z</time></trkpt><trkpt lat="44.316109" lon="7.4872684"><ele>637.5</ele><time>2026-05-01T10:42:41.273Z</time></trkpt><trkpt lat="44.3160273" lon="7.4873927"><ele>636.25</ele><time>2026-05-01T10:42:42.273Z</time></trkpt><trkpt lat="44.3159317" lon="7.4875015"><ele>635.0</ele><time>2026-05-01T10:42:43.274Z</time></trkpt><trkpt lat="44.3158239" lon="7.4875942"><ele>635.0</ele><time>2026-05-01T10:42:44.273Z</time></trkpt><trkpt lat="44.3156988" lon="7.4876705"><ele>635.0</ele><time>2026-05-01T10:42:45.274Z</time></trkpt><trkpt lat="44.3155597" lon="7.4877476"><ele>635.0</ele><time>2026-05-01T10:42:46.273Z</time></trkpt><trkpt lat="44.3154053" lon="7.4878298"><ele>634.3333333333333</ele><time>2026-05-01T10:42:47.273Z</time></trkpt><trkpt lat="44.3152492" lon="7.4879179"><ele>633.6666666666666</ele><time>2026-05-01T10:42:48.273Z</time></trkpt><trkpt lat="44.3150863" lon="7.488015"><ele>633.0</ele><time>2026-05-01T10:42:49.273Z</time></trkpt><trkpt lat="44.3149287" lon="7.4881286"><ele>633.3333333333334</ele><time>2026-05-01T10:42:50.273Z</time></trkpt><trkpt lat="44.3147747" lon="7.4882471"><ele>633.6666666666667</ele><time>2026-05-01T10:42:51.273Z</time></trkpt><trkpt lat="44.3146172" lon="7.4883958"><ele>634.0</ele><time>2026-05-01T10:42:52.273Z</time></trkpt><trkpt lat="44.3144563" lon="7.4885438"><ele>634.0</ele><time>2026-05-01T10:42:53.274Z</time></trkpt><trkpt lat="44.3142981" lon="7.4887061"><ele>634.0</ele><time>2026-05-01T10:42:54.274Z</time></trkpt><trkpt lat="44.3141485" lon="7.4888842"><ele>634.0</ele><time>2026-05-01T10:42:55.273Z</time></trkpt><trkpt lat="44.3140006" lon="7.4890859"><ele>634.0</ele><time>2026-05-01T10:42:56.274Z</time></trkpt><trkpt lat="44.3138642" lon="7.4892956"><ele>634.0</ele><time>2026-05-01T10:42:57.273Z</time></trkpt><trkpt lat="44.3137277" lon="7.4895231"><ele>634.0</ele><time>2026-05-01T10:42:58.273Z</time></trkpt><trkpt lat="44.3135964" lon="7.4897575"><ele>634.3333333333334</ele><time>2026-05-01T10:42:59.273Z</time></trkpt><trkpt lat="44.3134685" lon="7.4900045"><ele>634.6666666666666</ele><time>2026-05-01T10:43:00.273Z</time></trkpt><trkpt lat="44.3133498" lon="7.4902645"><ele>635.0</ele><time>2026-05-01T10:43:01.274Z</time></trkpt><trkpt lat="44.3132404" lon="7.4905335"><ele>635.0</ele><time>2026-05-01T10:43:02.273Z</time></trkpt><trkpt lat="44.3131294" lon="7.4908072"><ele>635.0</ele><time>2026-05-01T10:43:03.274Z</time></trkpt><trkpt lat="44.3130125" lon="7.4910916"><ele>634.5</ele><time>2026-05-01T10:43:04.273Z</time></trkpt><trkpt lat="44.312898" lon="7.4913689"><ele>634.0</ele><time>2026-05-01T10:43:05.273Z</time></trkpt><trkpt lat="44.3127818" lon="7.4916455"><ele>634.0</ele><time>2026-05-01T10:43:06.273Z</time></trkpt><trkpt lat="44.3126682" lon="7.4919204"><ele>634.0</ele><time>2026-05-01T10:43:07.274Z</time></trkpt><trkpt lat="44.312552" lon="7.4921954"><ele>635.5</ele><time>2026-05-01T10:43:08.273Z</time></trkpt><trkpt lat="44.3124355" lon="7.4924673"><ele>637.0</ele><time>2026-05-01T10:43:09.273Z</time></trkpt><trkpt lat="44.3123162" lon="7.4927388"><ele>637.5</ele><time>2026-05-01T10:43:10.273Z</time></trkpt><trkpt lat="44.3122006" lon="7.4930074"><ele>638.0</ele><time>2026-05-01T10:43:11.273Z</time></trkpt><trkpt lat="44.3120869" lon="7.4932814"><ele>638.0</ele><time>2026-05-01T10:43:12.273Z</time></trkpt><trkpt lat="44.3119692" lon="7.4935522"><ele>638.0</ele><time>2026-05-01T10:43:13.273Z</time></trkpt><trkpt lat="44.3118532" lon="7.4938148"><ele>638.0</ele><time>2026-05-01T10:43:14.273Z</time></trkpt><trkpt lat="44.311741" lon="7.4940806"><ele>638.0</ele><time>2026-05-01T10:43:15.273Z</time></trkpt><trkpt lat="44.3116265" lon="7.4943457"><ele>638.0</ele><time>2026-05-01T10:43:16.273Z</time></trkpt><trkpt lat="44.3115161" lon="7.4946087"><ele>638.0</ele><time>2026-05-01T10:43:17.273Z</time></trkpt><trkpt lat="44.311401" lon="7.4948706"><ele>638.0</ele><time>2026-05-01T10:43:18.273Z</time></trkpt><trkpt lat="44.3112919" lon="7.4951331"><ele>638.0</ele><time>2026-05-01T10:43:19.273Z</time></trkpt><trkpt lat="44.3111839" lon="7.4953925"><ele>638.0</ele><time>2026-05-01T10:43:20.273Z</time></trkpt><trkpt lat="44.3110785" lon="7.495655"><ele>639.0</ele><time>2026-05-01T10:43:21.273Z</time></trkpt><trkpt lat="44.3109634" lon="7.4959103"><ele>640.0</ele><time>2026-05-01T10:43:22.274Z</time></trkpt><trkpt lat="44.310852" lon="7.4961595"><ele>641.0</ele><time>2026-05-01T10:43:23.273Z</time></trkpt><trkpt lat="44.3107453" lon="7.496412"><ele>641.6666666666666</ele><time>2026-05-01T10:43:24.273Z</time></trkpt><trkpt lat="44.3106344" lon="7.496661"><ele>642.3333333333334</ele><time>2026-05-01T10:43:25.273Z</time></trkpt><trkpt lat="44.3105347" lon="7.4969153"><ele>643.0</ele><time>2026-05-01T10:43:26.273Z</time></trkpt><trkpt lat="44.3104336" lon="7.4971766"><ele>643.3333333333334</ele><time>2026-05-01T10:43:27.273Z</time></trkpt><trkpt lat="44.3103391" lon="7.497441"><ele>643.6666666666666</ele><time>2026-05-01T10:43:28.273Z</time></trkpt><trkpt lat="44.3102466" lon="7.4977081"><ele>644.0</ele><time>2026-05-01T10:43:29.274Z</time></trkpt><trkpt lat="44.3101601" lon="7.4979741"><ele>644.0</ele><time>2026-05-01T10:43:30.273Z</time></trkpt><trkpt lat="44.3100753" lon="7.4982454"><ele>644.0</ele><time>2026-05-01T10:43:31.273Z</time></trkpt><trkpt lat="44.3100007" lon="7.498523"><ele>644.0</ele><time>2026-05-01T10:43:32.273Z</time></trkpt><trkpt lat="44.3099282" lon="7.4987989"><ele>644.0</ele><time>2026-05-01T10:43:33.273Z</time></trkpt><trkpt lat="44.3098612" lon="7.4990846"><ele>644.0</ele><time>2026-05-01T10:43:34.273Z</time></trkpt><trkpt lat="44.3097998" lon="7.4993702"><ele>644.0</ele><time>2026-05-01T10:43:35.273Z</time></trkpt><trkpt lat="44.3097387" lon="7.4996612"><ele>644.0</ele><time>2026-05-01T10:43:36.273Z</time></trkpt><trkpt lat="44.3096798" lon="7.499952"><ele>644.0</ele><time>2026-05-01T10:43:37.273Z</time></trkpt><trkpt lat="44.309631" lon="7.5002453"><ele>644.0</ele><time>2026-05-01T10:43:38.274Z</time></trkpt><trkpt lat="44.3095789" lon="7.5005402"><ele>644.6666666666666</ele><time>2026-05-01T10:43:39.274Z</time></trkpt><trkpt lat="44.3095339" lon="7.5008374"><ele>645.3333333333334</ele><time>2026-05-01T10:43:40.273Z</time></trkpt><trkpt lat="44.3094889" lon="7.5011371"><ele>646.0</ele><time>2026-05-01T10:43:41.273Z</time></trkpt><trkpt lat="44.3094329" lon="7.501441"><ele>646.6666666666667</ele><time>2026-05-01T10:43:42.273Z</time></trkpt><trkpt lat="44.3093709" lon="7.5017428"><ele>647.3333333333334</ele><time>2026-05-01T10:43:43.273Z</time></trkpt><trkpt lat="44.3093" lon="7.5020365"><ele>648.0</ele><time>2026-05-01T10:43:44.273Z</time></trkpt><trkpt lat="44.3092237" lon="7.5023367"><ele>648.5</ele><time>2026-05-01T10:43:45.273Z</time></trkpt><trkpt lat="44.3091443" lon="7.5026296"><ele>649.0</ele><time>2026-05-01T10:43:46.273Z</time></trkpt><trkpt lat="44.3090603" lon="7.5029312"><ele>649.5</ele><time>2026-05-01T10:43:47.274Z</time></trkpt><trkpt lat="44.3089735" lon="7.5032212"><ele>650.0</ele><time>2026-05-01T10:43:48.273Z</time></trkpt><trkpt lat="44.308875" lon="7.5035136"><ele>650.0</ele><time>2026-05-01T10:43:49.273Z</time></trkpt><trkpt lat="44.3087755" lon="7.5038005"><ele>650.0</ele><time>2026-05-01T10:43:50.273Z</time></trkpt><trkpt lat="44.3086683" lon="7.5040804"><ele>650.0</ele><time>2026-05-01T10:43:51.273Z</time></trkpt><trkpt lat="44.3085678" lon="7.5043476"><ele>650.0</ele><time>2026-05-01T10:43:52.274Z</time></trkpt><trkpt lat="44.3084604" lon="7.5046034"><ele>650.0</ele><time>2026-05-01T10:43:53.273Z</time></trkpt><trkpt lat="44.3083532" lon="7.5048507"><ele>650.0</ele><time>2026-05-01T10:43:54.273Z</time></trkpt><trkpt lat="44.308233" lon="7.5050978"><ele>650.0</ele><time>2026-05-01T10:43:55.273Z</time></trkpt><trkpt lat="44.3081096" lon="7.5053413"><ele>650.0</ele><time>2026-05-01T10:43:56.273Z</time></trkpt><trkpt lat="44.3079839" lon="7.5055836"><ele>650.6666666666666</ele><time>2026-05-01T10:43:57.273Z</time></trkpt><trkpt lat="44.3078558" lon="7.5058134"><ele>651.3333333333334</ele><time>2026-05-01T10:43:58.273Z</time></trkpt><trkpt lat="44.3077212" lon="7.5060362"><ele>652.0</ele><time>2026-05-01T10:43:59.273Z</time></trkpt><trkpt lat="44.3075886" lon="7.5062519"><ele>653.3333333333334</ele><time>2026-05-01T10:44:00.274Z</time></trkpt><trkpt lat="44.307449" lon="7.5064715"><ele>654.6666666666666</ele><time>2026-05-01T10:44:01.273Z</time></trkpt><trkpt lat="44.3073043" lon="7.5066952"><ele>656.0</ele><time>2026-05-01T10:44:02.273Z</time></trkpt><trkpt lat="44.3071619" lon="7.5069121"><ele>657.0</ele><time>2026-05-01T10:44:03.273Z</time></trkpt><trkpt lat="44.3070181" lon="7.5071242"><ele>658.0</ele><time>2026-05-01T10:44:04.274Z</time></trkpt><trkpt lat="44.3068672" lon="7.5073384"><ele>659.0</ele><time>2026-05-01T10:44:05.273Z</time></trkpt><trkpt lat="44.3067147" lon="7.5075566"><ele>659.0</ele><time>2026-05-01T10:44:06.273Z</time></trkpt><trkpt lat="44.3065629" lon="7.5077707"><ele>659.0</ele><time>2026-05-01T10:44:07.273Z</time></trkpt><trkpt lat="44.3064169" lon="7.5079855"><ele>659.0</ele><time>2026-05-01T10:44:08.273Z</time></trkpt><trkpt lat="44.3062684" lon="7.5081957"><ele>658.6666666666666</ele><time>2026-05-01T10:44:09.273Z</time></trkpt><trkpt lat="44.3061206" lon="7.5084008"><ele>658.3333333333334</ele><time>2026-05-01T10:44:10.273Z</time></trkpt><trkpt lat="44.3059742" lon="7.5086147"><ele>658.0</ele><time>2026-05-01T10:44:11.273Z</time></trkpt><trkpt lat="44.3058318" lon="7.5088239"><ele>658.3333333333334</ele><time>2026-05-01T10:44:12.273Z</time></trkpt><trkpt lat="44.3056805" lon="7.5090278"><ele>658.6666666666666</ele><time>2026-05-01T10:44:13.273Z</time></trkpt><trkpt lat="44.3055295" lon="7.5092339"><ele>659.0</ele><time>2026-05-01T10:44:14.273Z</time></trkpt><trkpt lat="44.3053789" lon="7.5094468"><ele>660.0</ele><time>2026-05-01T10:44:15.273Z</time></trkpt><trkpt lat="44.3052242" lon="7.509662"><ele>661.0</ele><time>2026-05-01T10:44:16.273Z</time></trkpt><trkpt lat="44.3050675" lon="7.5098776"><ele>662.0</ele><time>2026-05-01T10:44:17.273Z</time></trkpt><trkpt lat="44.3049135" lon="7.5101013"><ele>662.0</ele><time>2026-05-01T10:44:18.273Z</time></trkpt><trkpt lat="44.3047616" lon="7.5103342"><ele>662.0</ele><time>2026-05-01T10:44:19.274Z</time></trkpt><trkpt lat="44.3046221" lon="7.5105627"><ele>662.0</ele><time>2026-05-01T10:44:20.274Z</time></trkpt><trkpt lat="44.3044867" lon="7.5108019"><ele>662.0</ele><time>2026-05-01T10:44:21.273Z</time></trkpt><trkpt lat="44.3043557" lon="7.5110466"><ele>662.0</ele><time>2026-05-01T10:44:22.273Z</time></trkpt><trkpt lat="44.3042292" lon="7.511294"><ele>662.0</ele><time>2026-05-01T10:44:23.273Z</time></trkpt><trkpt lat="44.3041026" lon="7.5115449"><ele>662.0</ele><time>2026-05-01T10:44:24.273Z</time></trkpt><trkpt lat="44.3039795" lon="7.5117936"><ele>662.0</ele><time>2026-05-01T10:44:25.273Z</time></trkpt><trkpt lat="44.3038583" lon="7.5120423"><ele>662.0</ele><time>2026-05-01T10:44:26.273Z</time></trkpt><trkpt lat="44.3037415" lon="7.5122894"><ele>662.3333333333333</ele><time>2026-05-01T10:44:27.273Z</time></trkpt><trkpt lat="44.3036234" lon="7.5125432"><ele>662.6666666666666</ele><time>2026-05-01T10:44:28.273Z</time></trkpt><trkpt lat="44.3034978" lon="7.5128044"><ele>663.0</ele><time>2026-05-01T10:44:29.273Z</time></trkpt><trkpt lat="44.3033706" lon="7.5130601"><ele>666.5</ele><time>2026-05-01T10:44:30.273Z</time></trkpt><trkpt lat="44.3032365" lon="7.5133132"><ele>670.0</ele><time>2026-05-01T10:44:31.274Z</time></trkpt><trkpt lat="44.3030972" lon="7.5135653"><ele>668.5</ele><time>2026-05-01T10:44:32.273Z</time></trkpt><trkpt lat="44.3029506" lon="7.5138077"><ele>667.0</ele><time>2026-05-01T10:44:33.273Z</time></trkpt><trkpt lat="44.302786" lon="7.5140385"><ele>667.0</ele><time>2026-05-01T10:44:34.273Z</time></trkpt><trkpt lat="44.3026135" lon="7.5142624"><ele>667.0</ele><time>2026-05-01T10:44:35.273Z</time></trkpt><trkpt lat="44.3024457" lon="7.5144749"><ele>669.5</ele><time>2026-05-01T10:44:36.273Z</time></trkpt><trkpt lat="44.3022696" lon="7.5146755"><ele>672.0</ele><time>2026-05-01T10:44:37.273Z</time></trkpt><trkpt lat="44.3020868" lon="7.5148755"><ele>672.0</ele><time>2026-05-01T10:44:38.274Z</time></trkpt><trkpt lat="44.301903" lon="7.5150557"><ele>672.0</ele><time>2026-05-01T10:44:39.273Z</time></trkpt><trkpt lat="44.3017138" lon="7.5152198"><ele>672.0</ele><time>2026-05-01T10:44:40.273Z</time></trkpt><trkpt lat="44.3015182" lon="7.5153731"><ele>674.0</ele><time>2026-05-01T10:44:41.274Z</time></trkpt><trkpt lat="44.3013235" lon="7.5155294"><ele>676.0</ele><time>2026-05-01T10:44:42.273Z</time></trkpt><trkpt lat="44.3011225" lon="7.5156691"><ele>678.0</ele><time>2026-05-01T10:44:43.273Z</time></trkpt><trkpt lat="44.30092" lon="7.5158049"><ele>678.0</ele><time>2026-05-01T10:44:44.273Z</time></trkpt><trkpt lat="44.3007134" lon="7.5159187"><ele>678.0</ele><time>2026-05-01T10:44:45.274Z</time></trkpt><trkpt lat="44.3005022" lon="7.5160263"><ele>678.0</ele><time>2026-05-01T10:44:46.273Z</time></trkpt><trkpt lat="44.3002816" lon="7.516125"><ele>678.0</ele><time>2026-05-01T10:44:47.273Z</time></trkpt><trkpt lat="44.3000636" lon="7.5162106"><ele>678.0</ele><time>2026-05-01T10:44:48.273Z</time></trkpt><trkpt lat="44.2998396" lon="7.5162875"><ele>676.6666666666666</ele><time>2026-05-01T10:44:49.273Z</time></trkpt><trkpt lat="44.2996215" lon="7.5163555"><ele>675.3333333333333</ele><time>2026-05-01T10:44:50.273Z</time></trkpt><trkpt lat="44.2994016" lon="7.5164109"><ele>674.0</ele><time>2026-05-01T10:44:51.273Z</time></trkpt><trkpt lat="44.2991755" lon="7.5164451"><ele>674.0</ele><time>2026-05-01T10:44:52.273Z</time></trkpt><trkpt lat="44.2989445" lon="7.5164671"><ele>674.0</ele><time>2026-05-01T10:44:53.273Z</time></trkpt><trkpt lat="44.2987101" lon="7.5164758"><ele>674.0</ele><time>2026-05-01T10:44:54.273Z</time></trkpt><trkpt lat="44.2984896" lon="7.5164699"><ele>674.0</ele><time>2026-05-01T10:44:55.273Z</time></trkpt><trkpt lat="44.298268" lon="7.5164559"><ele>674.0</ele><time>2026-05-01T10:44:56.273Z</time></trkpt><trkpt lat="44.2980476" lon="7.5164273"><ele>674.3333333333333</ele><time>2026-05-01T10:44:57.273Z</time></trkpt><trkpt lat="44.2978204" lon="7.516393"><ele>674.6666666666666</ele><time>2026-05-01T10:44:58.273Z</time></trkpt><trkpt lat="44.2976023" lon="7.5163465"><ele>675.0</ele><time>2026-05-01T10:44:59.273Z</time></trkpt><trkpt lat="44.2973831" lon="7.5162912"><ele>674.5</ele><time>2026-05-01T10:45:00.273Z</time></trkpt><trkpt lat="44.2971602" lon="7.5162325"><ele>674.0</ele><time>2026-05-01T10:45:01.273Z</time></trkpt><trkpt lat="44.2969393" lon="7.5161828"><ele>674.0</ele><time>2026-05-01T10:45:02.273Z</time></trkpt><trkpt lat="44.2967093" lon="7.5161598"><ele>674.0</ele><time>2026-05-01T10:45:03.273Z</time></trkpt><trkpt lat="44.2964797" lon="7.5161498"><ele>674.5</ele><time>2026-05-01T10:45:04.273Z</time></trkpt><trkpt lat="44.2962484" lon="7.5161514"><ele>675.0</ele><time>2026-05-01T10:45:05.273Z</time></trkpt><trkpt lat="44.2960141" lon="7.516168"><ele>675.0</ele><time>2026-05-01T10:45:06.273Z</time></trkpt><trkpt lat="44.2957845" lon="7.5162036"><ele>675.0</ele><time>2026-05-01T10:45:07.273Z</time></trkpt><trkpt lat="44.2955595" lon="7.5162461"><ele>676.0</ele><time>2026-05-01T10:45:08.273Z</time></trkpt><trkpt lat="44.2953351" lon="7.5163072"><ele>677.0</ele><time>2026-05-01T10:45:09.273Z</time></trkpt><trkpt lat="44.2951131" lon="7.5163817"><ele>677.0</ele><time>2026-05-01T10:45:10.273Z</time></trkpt><trkpt lat="44.2948989" lon="7.5164634"><ele>677.0</ele><time>2026-05-01T10:45:11.273Z</time></trkpt><trkpt lat="44.2946815" lon="7.5165609"><ele>678.0</ele><time>2026-05-01T10:45:12.273Z</time></trkpt><trkpt lat="44.2944719" lon="7.5166636"><ele>679.0</ele><time>2026-05-01T10:45:13.273Z</time></trkpt><trkpt lat="44.2942555" lon="7.5167811"><ele>679.0</ele><time>2026-05-01T10:45:14.273Z</time></trkpt><trkpt lat="44.2940418" lon="7.516903"><ele>679.0</ele><time>2026-05-01T10:45:15.274Z</time></trkpt><trkpt lat="44.2938235" lon="7.5170238"><ele>679.6666666666667</ele><time>2026-05-01T10:45:16.273Z</time></trkpt><trkpt lat="44.2936159" lon="7.5171401"><ele>680.3333333333334</ele><time>2026-05-01T10:45:17.273Z</time></trkpt><trkpt lat="44.2934088" lon="7.5172643"><ele>681.0</ele><time>2026-05-01T10:45:18.274Z</time></trkpt><trkpt lat="44.2931994" lon="7.5173873"><ele>680.0</ele><time>2026-05-01T10:45:19.273Z</time></trkpt><trkpt lat="44.2929897" lon="7.5175104"><ele>679.0</ele><time>2026-05-01T10:45:20.274Z</time></trkpt><trkpt lat="44.2927802" lon="7.5176292"><ele>679.0</ele><time>2026-05-01T10:45:21.273Z</time></trkpt><trkpt lat="44.2925583" lon="7.5177434"><ele>679.0</ele><time>2026-05-01T10:45:22.273Z</time></trkpt><trkpt lat="44.2923405" lon="7.5178541"><ele>681.0</ele><time>2026-05-01T10:45:23.273Z</time></trkpt><trkpt lat="44.292115" lon="7.5179634"><ele>683.0</ele><time>2026-05-01T10:45:24.274Z</time></trkpt><trkpt lat="44.2918898" lon="7.5180706"><ele>683.0</ele><time>2026-05-01T10:45:25.273Z</time></trkpt><trkpt lat="44.2916675" lon="7.5181807"><ele>683.0</ele><time>2026-05-01T10:45:26.273Z</time></trkpt><trkpt lat="44.2914455" lon="7.51828"><ele>684.0</ele><time>2026-05-01T10:45:27.273Z</time></trkpt><trkpt lat="44.2912324" lon="7.5183714"><ele>685.0</ele><time>2026-05-01T10:45:28.273Z</time></trkpt><trkpt lat="44.291015" lon="7.5184579"><ele>686.0</ele><time>2026-05-01T10:45:29.273Z</time></trkpt><trkpt lat="44.2907966" lon="7.5185381"><ele>687.0</ele><time>2026-05-01T10:45:30.274Z</time></trkpt><trkpt lat="44.2905737" lon="7.5186174"><ele>688.0</ele><time>2026-05-01T10:45:31.273Z</time></trkpt><trkpt lat="44.2903559" lon="7.5186908"><ele>691.0</ele><time>2026-05-01T10:45:32.273Z</time></trkpt><trkpt lat="44.2901346" lon="7.5187683"><ele>694.0</ele><time>2026-05-01T10:45:33.274Z</time></trkpt><trkpt lat="44.2899087" lon="7.5188387"><ele>694.0</ele><time>2026-05-01T10:45:34.273Z</time></trkpt><trkpt lat="44.2896835" lon="7.5189017"><ele>694.0</ele><time>2026-05-01T10:45:35.274Z</time></trkpt><trkpt lat="44.2894528" lon="7.5189628"><ele>694.0</ele><time>2026-05-01T10:45:36.273Z</time></trkpt><trkpt lat="44.289224" lon="7.5190206"><ele>694.0</ele><time>2026-05-01T10:45:37.273Z</time></trkpt><trkpt lat="44.2889998" lon="7.5190775"><ele>691.0</ele><time>2026-05-01T10:45:38.273Z</time></trkpt><trkpt lat="44.2887764" lon="7.5191356"><ele>688.0</ele><time>2026-05-01T10:45:39.273Z</time></trkpt><trkpt lat="44.2885461" lon="7.5191896"><ele>688.0</ele><time>2026-05-01T10:45:40.273Z</time></trkpt><trkpt lat="44.2883173" lon="7.5192445"><ele>688.0</ele><time>2026-05-01T10:45:41.273Z</time></trkpt><trkpt lat="44.2880831" lon="7.5192838"><ele>688.5</ele><time>2026-05-01T10:45:42.273Z</time></trkpt><trkpt lat="44.2878535" lon="7.5193241"><ele>689.0</ele><time>2026-05-01T10:45:43.273Z</time></trkpt><trkpt lat="44.2876276" lon="7.5193512"><ele>689.0</ele><time>2026-05-01T10:45:44.273Z</time></trkpt><trkpt lat="44.2873951" lon="7.5193664"><ele>689.0</ele><time>2026-05-01T10:45:45.273Z</time></trkpt><trkpt lat="44.2871646" lon="7.5193805"><ele>689.0</ele><time>2026-05-01T10:45:46.274Z</time></trkpt><trkpt lat="44.2869302" lon="7.5193782"><ele>689.0</ele><time>2026-05-01T10:45:47.273Z</time></trkpt><trkpt lat="44.2866996" lon="7.5193657"><ele>689.0</ele><time>2026-05-01T10:45:48.273Z</time></trkpt><trkpt lat="44.2864683" lon="7.5193479"><ele>689.0</ele><time>2026-05-01T10:45:49.273Z</time></trkpt><trkpt lat="44.2862331" lon="7.5193279"><ele>691.5</ele><time>2026-05-01T10:45:50.273Z</time></trkpt><trkpt lat="44.2860051" lon="7.5192944"><ele>694.0</ele><time>2026-05-01T10:45:51.273Z</time></trkpt><trkpt lat="44.2857857" lon="7.5192481"><ele>696.0</ele><time>2026-05-01T10:45:52.274Z</time></trkpt><trkpt lat="44.2855676" lon="7.5192022"><ele>698.0</ele><time>2026-05-01T10:45:53.273Z</time></trkpt><trkpt lat="44.2853463" lon="7.5191476"><ele>700.0</ele><time>2026-05-01T10:45:54.273Z</time></trkpt><trkpt lat="44.2851222" lon="7.5190844"><ele>700.0</ele><time>2026-05-01T10:45:55.273Z</time></trkpt><trkpt lat="44.2848989" lon="7.5190216"><ele>700.0</ele><time>2026-05-01T10:45:56.273Z</time></trkpt><trkpt lat="44.2846931" lon="7.5189469"><ele>700.0</ele><time>2026-05-01T10:45:57.273Z</time></trkpt><trkpt lat="44.2844874" lon="7.5188649"><ele>699.0</ele><time>2026-05-01T10:45:58.273Z</time></trkpt><trkpt lat="44.284286" lon="7.518779"><ele>698.0</ele><time>2026-05-01T10:45:59.273Z</time></trkpt><trkpt lat="44.2840787" lon="7.518693"><ele>697.0</ele><time>2026-05-01T10:46:00.273Z</time></trkpt><trkpt lat="44.2838775" lon="7.5185957"><ele>697.0</ele><time>2026-05-01T10:46:01.273Z</time></trkpt><trkpt lat="44.2836833" lon="7.518482"><ele>697.0</ele><time>2026-05-01T10:46:02.274Z</time></trkpt><trkpt lat="44.2834873" lon="7.5183636"><ele>697.0</ele><time>2026-05-01T10:46:03.274Z</time></trkpt><trkpt lat="44.2832957" lon="7.5182434"><ele>697.0</ele><time>2026-05-01T10:46:04.273Z</time></trkpt><trkpt lat="44.2831097" lon="7.5181196"><ele>697.0</ele><time>2026-05-01T10:46:05.273Z</time></trkpt><trkpt lat="44.2829173" lon="7.5179854"><ele>697.0</ele><time>2026-05-01T10:46:06.273Z</time></trkpt><trkpt lat="44.2827209" lon="7.5178587"><ele>697.6666666666667</ele><time>2026-05-01T10:46:07.273Z</time></trkpt><trkpt lat="44.282515" lon="7.5177516"><ele>698.3333333333334</ele><time>2026-05-01T10:46:08.273Z</time></trkpt><trkpt lat="44.2823007" lon="7.5176636"><ele>699.0</ele><time>2026-05-01T10:46:09.273Z</time></trkpt><trkpt lat="44.2820869" lon="7.517589"><ele>699.0</ele><time>2026-05-01T10:46:10.273Z</time></trkpt><trkpt lat="44.2818702" lon="7.5175241"><ele>699.0</ele><time>2026-05-01T10:46:11.273Z</time></trkpt><trkpt lat="44.2816446" lon="7.5174813"><ele>699.0</ele><time>2026-05-01T10:46:12.273Z</time></trkpt><trkpt lat="44.2814191" lon="7.5174475"><ele>699.3333333333334</ele><time>2026-05-01T10:46:13.273Z</time></trkpt><trkpt lat="44.2811978" lon="7.5174279"><ele>699.6666666666667</ele><time>2026-05-01T10:46:14.273Z</time></trkpt><trkpt lat="44.280972" lon="7.5174294"><ele>700.0</ele><time>2026-05-01T10:46:15.273Z</time></trkpt><trkpt lat="44.2807483" lon="7.5174434"><ele>700.6666666666667</ele><time>2026-05-01T10:46:16.273Z</time></trkpt><trkpt lat="44.2805281" lon="7.5174734"><ele>701.3333333333334</ele><time>2026-05-01T10:46:17.273Z</time></trkpt><trkpt lat="44.2803069" lon="7.5175001"><ele>702.0</ele><time>2026-05-01T10:46:18.273Z</time></trkpt><trkpt lat="44.2800838" lon="7.5175225"><ele>702.0</ele><time>2026-05-01T10:46:19.273Z</time></trkpt><trkpt lat="44.2798561" lon="7.5175434"><ele>702.0</ele><time>2026-05-01T10:46:20.273Z</time></trkpt><trkpt lat="44.2796334" lon="7.5175659"><ele>702.3333333333334</ele><time>2026-05-01T10:46:21.273Z</time></trkpt><trkpt lat="44.2794129" lon="7.5175919"><ele>702.6666666666667</ele><time>2026-05-01T10:46:22.273Z</time></trkpt><trkpt lat="44.2791872" lon="7.5176171"><ele>703.0</ele><time>2026-05-01T10:46:23.273Z</time></trkpt><trkpt lat="44.2789621" lon="7.5176407"><ele>704.6666666666667</ele><time>2026-05-01T10:46:24.273Z</time></trkpt><trkpt lat="44.2787385" lon="7.517664"><ele>706.3333333333334</ele><time>2026-05-01T10:46:25.273Z</time></trkpt><trkpt lat="44.278518" lon="7.5176902"><ele>708.0</ele><time>2026-05-01T10:46:26.273Z</time></trkpt><trkpt lat="44.2782953" lon="7.5177196"><ele>708.6666666666666</ele><time>2026-05-01T10:46:27.273Z</time></trkpt><trkpt lat="44.2780735" lon="7.5177489"><ele>709.3333333333333</ele><time>2026-05-01T10:46:28.273Z</time></trkpt><trkpt lat="44.2778548" lon="7.5177867"><ele>710.0</ele><time>2026-05-01T10:46:29.273Z</time></trkpt><trkpt lat="44.277625" lon="7.5178314"><ele>710.0</ele><time>2026-05-01T10:46:30.273Z</time></trkpt><trkpt lat="44.2774018" lon="7.5178843"><ele>710.0</ele><time>2026-05-01T10:46:31.273Z</time></trkpt><trkpt lat="44.277172" lon="7.5179573"><ele>710.5</ele><time>2026-05-01T10:46:32.273Z</time></trkpt><trkpt lat="44.2769463" lon="7.5180343"><ele>711.0</ele><time>2026-05-01T10:46:33.274Z</time></trkpt><trkpt lat="44.276722" lon="7.5181169"><ele>711.0</ele><time>2026-05-01T10:46:34.273Z</time></trkpt><trkpt lat="44.2765162" lon="7.518195"><ele>711.0</ele><time>2026-05-01T10:46:35.273Z</time></trkpt><trkpt lat="44.2763122" lon="7.5182793"><ele>711.0</ele><time>2026-05-01T10:46:36.273Z</time></trkpt><trkpt lat="44.276106" lon="7.5183684"><ele>711.5</ele><time>2026-05-01T10:46:37.273Z</time></trkpt><trkpt lat="44.2758878" lon="7.5184613"><ele>712.0</ele><time>2026-05-01T10:46:38.273Z</time></trkpt><trkpt lat="44.2756657" lon="7.5185615"><ele>713.0</ele><time>2026-05-01T10:46:39.273Z</time></trkpt><trkpt lat="44.2754283" lon="7.5186665"><ele>714.0</ele><time>2026-05-01T10:46:40.273Z</time></trkpt><trkpt lat="44.2751789" lon="7.5187665"><ele>714.0</ele><time>2026-05-01T10:46:41.273Z</time></trkpt><trkpt lat="44.2749367" lon="7.5188601"><ele>714.0</ele><time>2026-05-01T10:46:42.273Z</time></trkpt><trkpt lat="44.2747085" lon="7.5189386"><ele>714.3333333333334</ele><time>2026-05-01T10:46:43.273Z</time></trkpt><trkpt lat="44.2744905" lon="7.5190012"><ele>714.6666666666667</ele><time>2026-05-01T10:46:44.273Z</time></trkpt><trkpt lat="44.2742715" lon="7.519054"><ele>715.0</ele><time>2026-05-01T10:46:45.273Z</time></trkpt><trkpt lat="44.2740456" lon="7.5190949"><ele>716.5</ele><time>2026-05-01T10:46:46.274Z</time></trkpt><trkpt lat="44.2738079" lon="7.5191212"><ele>718.0</ele><time>2026-05-01T10:46:47.273Z</time></trkpt><trkpt lat="44.2735549" lon="7.5191445"><ele>718.0</ele><time>2026-05-01T10:46:48.273Z</time></trkpt><trkpt lat="44.2733002" lon="7.5191422"><ele>718.0</ele><time>2026-05-01T10:46:49.273Z</time></trkpt><trkpt lat="44.2730432" lon="7.5191319"><ele>716.0</ele><time>2026-05-01T10:46:50.273Z</time></trkpt><trkpt lat="44.2727803" lon="7.5191167"><ele>714.0</ele><time>2026-05-01T10:46:51.273Z</time></trkpt><trkpt lat="44.2725061" lon="7.519103"><ele>716.5</ele><time>2026-05-01T10:46:52.273Z</time></trkpt><trkpt lat="44.2722204" lon="7.5190815"><ele>719.0</ele><time>2026-05-01T10:46:53.273Z</time></trkpt><trkpt lat="44.2719355" lon="7.5190612"><ele>719.0</ele><time>2026-05-01T10:46:54.273Z</time></trkpt><trkpt lat="44.2716469" lon="7.5190496"><ele>719.0</ele><time>2026-05-01T10:46:55.273Z</time></trkpt><trkpt lat="44.271357" lon="7.5190294"><ele>720.5</ele><time>2026-05-01T10:46:56.273Z</time></trkpt><trkpt lat="44.2710701" lon="7.5190123"><ele>722.0</ele><time>2026-05-01T10:46:57.273Z</time></trkpt><trkpt lat="44.2707897" lon="7.5189804"><ele>723.0</ele><time>2026-05-01T10:46:58.273Z</time></trkpt><trkpt lat="44.2705129" lon="7.5189533"><ele>724.0</ele><time>2026-05-01T10:46:59.273Z</time></trkpt><trkpt lat="44.2702408" lon="7.5189319"><ele>724.0</ele><time>2026-05-01T10:47:00.273Z</time></trkpt><trkpt lat="44.2699622" lon="7.5189198"><ele>724.0</ele><time>2026-05-01T10:47:01.273Z</time></trkpt><trkpt lat="44.2696839" lon="7.518908"><ele>725.0</ele><time>2026-05-01T10:47:02.274Z</time></trkpt><trkpt lat="44.2694103" lon="7.5188935"><ele>726.0</ele><time>2026-05-01T10:47:03.273Z</time></trkpt><trkpt lat="44.2691383" lon="7.5188786"><ele>726.0</ele><time>2026-05-01T10:47:04.273Z</time></trkpt><trkpt lat="44.2688711" lon="7.5188693"><ele>726.0</ele><time>2026-05-01T10:47:05.273Z</time></trkpt><trkpt lat="44.2686071" lon="7.5188552"><ele>726.0</ele><time>2026-05-01T10:47:06.273Z</time></trkpt><trkpt lat="44.2683445" lon="7.5188376"><ele>726.0</ele><time>2026-05-01T10:47:07.274Z</time></trkpt><trkpt lat="44.2680904" lon="7.5188155"><ele>727.0</ele><time>2026-05-01T10:47:08.273Z</time></trkpt><trkpt lat="44.2678319" lon="7.5187883"><ele>728.0</ele><time>2026-05-01T10:47:09.274Z</time></trkpt><trkpt lat="44.2675769" lon="7.5187591"><ele>733.5</ele><time>2026-05-01T10:47:10.273Z</time></trkpt><trkpt lat="44.2673205" lon="7.5187143"><ele>739.0</ele><time>2026-05-01T10:47:11.273Z</time></trkpt><trkpt lat="44.2670681" lon="7.5186669"><ele>739.0</ele><time>2026-05-01T10:47:12.274Z</time></trkpt><trkpt lat="44.2668281" lon="7.5186098"><ele>739.0</ele><time>2026-05-01T10:47:13.273Z</time></trkpt><trkpt lat="44.2665832" lon="7.5185452"><ele>738.0</ele><time>2026-05-01T10:47:14.273Z</time></trkpt><trkpt lat="44.2663454" lon="7.5184874"><ele>737.0</ele><time>2026-05-01T10:47:15.273Z</time></trkpt><trkpt lat="44.2661091" lon="7.5184207"><ele>737.0</ele><time>2026-05-01T10:47:16.273Z</time></trkpt><trkpt lat="44.265882" lon="7.5183605"><ele>737.0</ele><time>2026-05-01T10:47:17.273Z</time></trkpt><trkpt lat="44.2656574" lon="7.5183076"><ele>736.6666666666666</ele><time>2026-05-01T10:47:18.273Z</time></trkpt><trkpt lat="44.2654496" lon="7.5182571"><ele>736.3333333333334</ele><time>2026-05-01T10:47:19.273Z</time></trkpt><trkpt lat="44.2652476" lon="7.5182075"><ele>736.0</ele><time>2026-05-01T10:47:20.273Z</time></trkpt><trkpt lat="44.2650561" lon="7.5181635"><ele>736.0</ele><time>2026-05-01T10:47:21.273Z</time></trkpt><trkpt lat="44.2648785" lon="7.5181232"><ele>736.0</ele><time>2026-05-01T10:47:22.274Z</time></trkpt><trkpt lat="44.264709" lon="7.5180814"><ele>736.0</ele><time>2026-05-01T10:47:23.274Z</time></trkpt><trkpt lat="44.2645552" lon="7.5180368"><ele>736.4</ele><time>2026-05-01T10:47:24.273Z</time></trkpt><trkpt lat="44.2644198" lon="7.5179998"><ele>736.8</ele><time>2026-05-01T10:47:25.273Z</time></trkpt><trkpt lat="44.2643017" lon="7.5179645"><ele>737.1999999999999</ele><time>2026-05-01T10:47:26.273Z</time></trkpt><trkpt lat="44.2641997" lon="7.5179418"><ele>737.5999999999999</ele><time>2026-05-01T10:47:27.273Z</time></trkpt><trkpt lat="44.2641195" lon="7.517947"><ele>738.0</ele><time>2026-05-01T10:47:28.273Z</time></trkpt><trkpt lat="44.2640411" lon="7.5179773"><ele>738.0</ele><time>2026-05-01T10:47:29.274Z</time></trkpt><trkpt lat="44.263969" lon="7.518053"><ele>738.0</ele><time>2026-05-01T10:47:30.273Z</time></trkpt><trkpt lat="44.2638978" lon="7.5181931"><ele>738.0</ele><time>2026-05-01T10:47:31.273Z</time></trkpt><trkpt lat="44.2638429" lon="7.5183703"><ele>738.0</ele><time>2026-05-01T10:47:32.273Z</time></trkpt><trkpt lat="44.263798" lon="7.5185474"><ele>738.0</ele><time>2026-05-01T10:47:33.273Z</time></trkpt><trkpt lat="44.2637467" lon="7.5187059"><ele>738.0</ele><time>2026-05-01T10:47:34.273Z</time></trkpt><trkpt lat="44.2636712" lon="7.5188271"><ele>738.0</ele><time>2026-05-01T10:47:35.273Z</time></trkpt><trkpt lat="44.2635673" lon="7.5189141"><ele>738.0</ele><time>2026-05-01T10:47:36.273Z</time></trkpt><trkpt lat="44.2634325" lon="7.5189515"><ele>741.6666666666666</ele><time>2026-05-01T10:47:37.273Z</time></trkpt><trkpt lat="44.2632809" lon="7.5189341"><ele>745.3333333333333</ele><time>2026-05-01T10:47:38.273Z</time></trkpt><trkpt lat="44.2631114" lon="7.5188813"><ele>749.0</ele><time>2026-05-01T10:47:39.273Z</time></trkpt><trkpt lat="44.2629324" lon="7.5188216"><ele>746.6666666666666</ele><time>2026-05-01T10:47:40.273Z</time></trkpt><trkpt lat="44.2627625" lon="7.5187569"><ele>744.3333333333334</ele><time>2026-05-01T10:47:41.273Z</time></trkpt><trkpt lat="44.2625974" lon="7.5186988"><ele>742.0</ele><time>2026-05-01T10:47:42.274Z</time></trkpt><trkpt lat="44.2624345" lon="7.5186475"><ele>742.0</ele><time>2026-05-01T10:47:43.273Z</time></trkpt><trkpt lat="44.2622819" lon="7.5185979"><ele>742.0</ele><time>2026-05-01T10:47:44.273Z</time></trkpt><trkpt lat="44.2621314" lon="7.518567"><ele>742.0</ele><time>2026-05-01T10:47:45.273Z</time></trkpt><trkpt lat="44.2619759" lon="7.5185643"><ele>741.6666666666667</ele><time>2026-05-01T10:47:46.273Z</time></trkpt><trkpt lat="44.2618312" lon="7.518603"><ele>741.3333333333334</ele><time>2026-05-01T10:47:47.273Z</time></trkpt><trkpt lat="44.2616826" lon="7.5186854"><ele>741.0</ele><time>2026-05-01T10:47:48.273Z</time></trkpt><trkpt lat="44.2615455" lon="7.5188044"><ele>743.0</ele><time>2026-05-01T10:47:49.273Z</time></trkpt><trkpt lat="44.2614212" lon="7.5189444"><ele>745.0</ele><time>2026-05-01T10:47:50.273Z</time></trkpt><trkpt lat="44.2612978" lon="7.5190979"><ele>747.0</ele><time>2026-05-01T10:47:51.273Z</time></trkpt><trkpt lat="44.2611791" lon="7.5192368"><ele>747.0</ele><time>2026-05-01T10:47:52.273Z</time></trkpt><trkpt lat="44.2610587" lon="7.5193701"><ele>747.0</ele><time>2026-05-01T10:47:53.273Z</time></trkpt><trkpt lat="44.2609564" lon="7.5195282"><ele>747.0</ele><time>2026-05-01T10:47:54.273Z</time></trkpt><trkpt lat="44.2608765" lon="7.5197298"><ele>750.3333333333334</ele><time>2026-05-01T10:47:55.273Z</time></trkpt><trkpt lat="44.2608209" lon="7.519952"><ele>753.6666666666667</ele><time>2026-05-01T10:47:56.273Z</time></trkpt><trkpt lat="44.2607743" lon="7.5201841"><ele>757.0</ele><time>2026-05-01T10:47:57.273Z</time></trkpt><trkpt lat="44.2607364" lon="7.5204251"><ele>759.6666666666667</ele><time>2026-05-01T10:47:58.273Z</time></trkpt><trkpt lat="44.2606925" lon="7.5206699"><ele>762.3333333333334</ele><time>2026-05-01T10:47:59.273Z</time></trkpt><trkpt lat="44.2606453" lon="7.5209108"><ele>765.0</ele><time>2026-05-01T10:48:00.273Z</time></trkpt><trkpt lat="44.2605957" lon="7.5211601"><ele>757.6666666666666</ele><time>2026-05-01T10:48:01.274Z</time></trkpt><trkpt lat="44.2605478" lon="7.5214106"><ele>750.3333333333333</ele><time>2026-05-01T10:48:02.273Z</time></trkpt><trkpt lat="44.2604814" lon="7.5216657"><ele>743.0</ele><time>2026-05-01T10:48:03.273Z</time></trkpt><trkpt lat="44.2603861" lon="7.521918"><ele>746.3333333333333</ele><time>2026-05-01T10:48:04.273Z</time></trkpt><trkpt lat="44.2602712" lon="7.5221584"><ele>749.6666666666666</ele><time>2026-05-01T10:48:05.273Z</time></trkpt><trkpt lat="44.260144" lon="7.5223965"><ele>753.0</ele><time>2026-05-01T10:48:06.274Z</time></trkpt><trkpt lat="44.2600101" lon="7.5226365"><ele>753.0</ele><time>2026-05-01T10:48:07.273Z</time></trkpt><trkpt lat="44.2598818" lon="7.5228788"><ele>753.0</ele><time>2026-05-01T10:48:08.273Z</time></trkpt><trkpt lat="44.2597531" lon="7.5231185"><ele>753.0</ele><time>2026-05-01T10:48:09.273Z</time></trkpt><trkpt lat="44.2596162" lon="7.5233459"><ele>753.0</ele><time>2026-05-01T10:48:10.273Z</time></trkpt><trkpt lat="44.2594741" lon="7.5235387"><ele>753.0</ele><time>2026-05-01T10:48:11.273Z</time></trkpt><trkpt lat="44.2593289" lon="7.5237106"><ele>753.0</ele><time>2026-05-01T10:48:12.273Z</time></trkpt><trkpt lat="44.2591685" lon="7.5238472"><ele>754.6666666666666</ele><time>2026-05-01T10:48:13.273Z</time></trkpt><trkpt lat="44.2589912" lon="7.5239607"><ele>756.3333333333333</ele><time>2026-05-01T10:48:14.273Z</time></trkpt><trkpt lat="44.2588229" lon="7.5240676"><ele>758.0</ele><time>2026-05-01T10:48:15.273Z</time></trkpt><trkpt lat="44.2586494" lon="7.5241598"><ele>758.0</ele><time>2026-05-01T10:48:16.273Z</time></trkpt><trkpt lat="44.2584795" lon="7.5242568"><ele>758.0</ele><time>2026-05-01T10:48:17.273Z</time></trkpt><trkpt lat="44.2583102" lon="7.524361"><ele>758.0</ele><time>2026-05-01T10:48:18.273Z</time></trkpt><trkpt lat="44.2581522" lon="7.5244874"><ele>758.3333333333333</ele><time>2026-05-01T10:48:19.273Z</time></trkpt><trkpt lat="44.257986" lon="7.5246265"><ele>758.6666666666666</ele><time>2026-05-01T10:48:20.273Z</time></trkpt><trkpt lat="44.2578238" lon="7.5247828"><ele>759.0</ele><time>2026-05-01T10:48:21.273Z</time></trkpt><trkpt lat="44.2576566" lon="7.5249504"><ele>759.0</ele><time>2026-05-01T10:48:22.273Z</time></trkpt><trkpt lat="44.2574885" lon="7.5251157"><ele>759.0</ele><time>2026-05-01T10:48:23.273Z</time></trkpt><trkpt lat="44.2573125" lon="7.5252761"><ele>759.0</ele><time>2026-05-01T10:48:24.273Z</time></trkpt><trkpt lat="44.2571287" lon="7.5254023"><ele>760.6666666666666</ele><time>2026-05-01T10:48:25.273Z</time></trkpt><trkpt lat="44.2569425" lon="7.5255047"><ele>762.3333333333333</ele><time>2026-05-01T10:48:26.273Z</time></trkpt><trkpt lat="44.2567497" lon="7.525593"><ele>764.0</ele><time>2026-05-01T10:48:27.273Z</time></trkpt><trkpt lat="44.2565444" lon="7.5256837"><ele>761.0</ele><time>2026-05-01T10:48:28.273Z</time></trkpt><trkpt lat="44.2563358" lon="7.5257776"><ele>758.0</ele><time>2026-05-01T10:48:29.273Z</time></trkpt><trkpt lat="44.256143" lon="7.5258682"><ele>755.0</ele><time>2026-05-01T10:48:30.273Z</time></trkpt><trkpt lat="44.2559551" lon="7.5259535"><ele>755.0</ele><time>2026-05-01T10:48:31.273Z</time></trkpt><trkpt lat="44.2557862" lon="7.5260324"><ele>755.0</ele><time>2026-05-01T10:48:32.274Z</time></trkpt><trkpt lat="44.2556265" lon="7.5261057"><ele>755.0</ele><time>2026-05-01T10:48:33.273Z</time></trkpt><trkpt lat="44.2554765" lon="7.5261734"><ele>757.0</ele><time>2026-05-01T10:48:34.273Z</time></trkpt><trkpt lat="44.2553423" lon="7.5262751"><ele>759.0</ele><time>2026-05-01T10:48:35.273Z</time></trkpt><trkpt lat="44.2552365" lon="7.5264428"><ele>761.0</ele><time>2026-05-01T10:48:36.273Z</time></trkpt><trkpt lat="44.2551534" lon="7.5266592"><ele>761.0</ele><time>2026-05-01T10:48:37.273Z</time></trkpt><trkpt lat="44.25511" lon="7.526912"><ele>761.0</ele><time>2026-05-01T10:48:38.273Z</time></trkpt><trkpt lat="44.2550773" lon="7.5271702"><ele>761.0</ele><time>2026-05-01T10:48:39.273Z</time></trkpt><trkpt lat="44.2550346" lon="7.5274325"><ele>762.3333333333333</ele><time>2026-05-01T10:48:40.273Z</time></trkpt><trkpt lat="44.2549732" lon="7.5276779"><ele>763.6666666666666</ele><time>2026-05-01T10:48:41.273Z</time></trkpt><trkpt lat="44.2549009" lon="7.5279045"><ele>765.0</ele><time>2026-05-01T10:48:42.273Z</time></trkpt><trkpt lat="44.254809" lon="7.5280959"><ele>763.6666666666666</ele><time>2026-05-01T10:48:43.273Z</time></trkpt><trkpt lat="44.2546803" lon="7.5282721"><ele>762.3333333333333</ele><time>2026-05-01T10:48:44.274Z</time></trkpt><trkpt lat="44.2545197" lon="7.5284155"><ele>761.0</ele><time>2026-05-01T10:48:45.273Z</time></trkpt><trkpt lat="44.2543377" lon="7.5285266"><ele>761.0</ele><time>2026-05-01T10:48:46.273Z</time></trkpt><trkpt lat="44.2541512" lon="7.5286286"><ele>761.0</ele><time>2026-05-01T10:48:47.273Z</time></trkpt><trkpt lat="44.2539742" lon="7.5287354"><ele>761.0</ele><time>2026-05-01T10:48:48.273Z</time></trkpt><trkpt lat="44.2537919" lon="7.5288463"><ele>763.3333333333333</ele><time>2026-05-01T10:48:49.273Z</time></trkpt><trkpt lat="44.2536087" lon="7.5289621"><ele>765.6666666666666</ele><time>2026-05-01T10:48:50.273Z</time></trkpt><trkpt lat="44.25343" lon="7.5290741"><ele>768.0</ele><time>2026-05-01T10:48:51.273Z</time></trkpt><trkpt lat="44.2532475" lon="7.5292123"><ele>766.0</ele><time>2026-05-01T10:48:52.274Z</time></trkpt><trkpt lat="44.2530636" lon="7.5293747"><ele>764.0</ele><time>2026-05-01T10:48:53.273Z</time></trkpt><trkpt lat="44.2528885" lon="7.5295454"><ele>762.0</ele><time>2026-05-01T10:48:54.274Z</time></trkpt><trkpt lat="44.2527125" lon="7.5297245"><ele>763.3333333333334</ele><time>2026-05-01T10:48:55.273Z</time></trkpt><trkpt lat="44.2525364" lon="7.5298699"><ele>764.6666666666667</ele><time>2026-05-01T10:48:56.273Z</time></trkpt><trkpt lat="44.2523367" lon="7.5299745"><ele>766.0</ele><time>2026-05-01T10:48:57.273Z</time></trkpt><trkpt lat="44.2521267" lon="7.5300569"><ele>766.0</ele><time>2026-05-01T10:48:58.273Z</time></trkpt><trkpt lat="44.2519052" lon="7.5301149"><ele>766.0</ele><time>2026-05-01T10:48:59.273Z</time></trkpt><trkpt lat="44.251676" lon="7.5301872"><ele>766.0</ele><time>2026-05-01T10:49:00.273Z</time></trkpt><trkpt lat="44.2514791" lon="7.5302739"><ele>766.0</ele><time>2026-05-01T10:49:01.273Z</time></trkpt><trkpt lat="44.2512946" lon="7.530414"><ele>766.0</ele><time>2026-05-01T10:49:02.273Z</time></trkpt><trkpt lat="44.2511227" lon="7.5305937"><ele>769.5</ele><time>2026-05-01T10:49:03.274Z</time></trkpt><trkpt lat="44.2509534" lon="7.5308044"><ele>773.0</ele><time>2026-05-01T10:49:04.273Z</time></trkpt><trkpt lat="44.2507808" lon="7.5310095"><ele>774.0</ele><time>2026-05-01T10:49:05.273Z</time></trkpt><trkpt lat="44.2506023" lon="7.5312071"><ele>775.0</ele><time>2026-05-01T10:49:06.273Z</time></trkpt><trkpt lat="44.2504344" lon="7.5313948"><ele>776.0</ele><time>2026-05-01T10:49:07.273Z</time></trkpt><trkpt lat="44.2502592" lon="7.5315584"><ele>776.0</ele><time>2026-05-01T10:49:08.273Z</time></trkpt><trkpt lat="44.2500738" lon="7.5316838"><ele>776.0</ele><time>2026-05-01T10:49:09.273Z</time></trkpt><trkpt lat="44.2499073" lon="7.5317649"><ele>776.0</ele><time>2026-05-01T10:49:10.273Z</time></trkpt><trkpt lat="44.2497438" lon="7.5318172"><ele>774.6666666666667</ele><time>2026-05-01T10:49:11.273Z</time></trkpt><trkpt lat="44.2495782" lon="7.5318533"><ele>773.3333333333333</ele><time>2026-05-01T10:49:12.273Z</time></trkpt><trkpt lat="44.2494224" lon="7.5318829"><ele>772.0</ele><time>2026-05-01T10:49:13.273Z</time></trkpt><trkpt lat="44.249283" lon="7.5319118"><ele>772.0</ele><time>2026-05-01T10:49:14.273Z</time></trkpt><trkpt lat="44.2491445" lon="7.5319438"><ele>772.0</ele><time>2026-05-01T10:49:15.273Z</time></trkpt><trkpt lat="44.2490018" lon="7.531988"><ele>772.0</ele><time>2026-05-01T10:49:16.273Z</time></trkpt><trkpt lat="44.2488633" lon="7.532042"><ele>772.0</ele><time>2026-05-01T10:49:17.273Z</time></trkpt><trkpt lat="44.2487254" lon="7.5320901"><ele>774.25</ele><time>2026-05-01T10:49:18.273Z</time></trkpt><trkpt lat="44.2485888" lon="7.5321384"><ele>776.5</ele><time>2026-05-01T10:49:19.273Z</time></trkpt><trkpt lat="44.2484594" lon="7.5321737"><ele>778.75</ele><time>2026-05-01T10:49:20.273Z</time></trkpt><trkpt lat="44.2483277" lon="7.5321859"><ele>781.0</ele><time>2026-05-01T10:49:21.273Z</time></trkpt><trkpt lat="44.2481987" lon="7.5321697"><ele>781.25</ele><time>2026-05-01T10:49:22.273Z</time></trkpt><trkpt lat="44.2480565" lon="7.5321317"><ele>781.5</ele><time>2026-05-01T10:49:23.273Z</time></trkpt><trkpt lat="44.2479186" lon="7.5320781"><ele>781.75</ele><time>2026-05-01T10:49:24.273Z</time></trkpt><trkpt lat="44.2477801" lon="7.5320244"><ele>782.0</ele><time>2026-05-01T10:49:25.273Z</time></trkpt><trkpt lat="44.2476393" lon="7.5319638"><ele>780.75</ele><time>2026-05-01T10:49:26.273Z</time></trkpt><trkpt lat="44.2475003" lon="7.5319107"><ele>779.5</ele><time>2026-05-01T10:49:27.273Z</time></trkpt><trkpt lat="44.2473611" lon="7.5318765"><ele>778.25</ele><time>2026-05-01T10:49:28.273Z</time></trkpt><trkpt lat="44.2472339" lon="7.5318438"><ele>777.0</ele><time>2026-05-01T10:49:29.273Z</time></trkpt><trkpt lat="44.2470999" lon="7.5318545"><ele>777.0</ele><time>2026-05-01T10:49:30.274Z</time></trkpt><trkpt lat="44.2469679" lon="7.53188"><ele>777.0</ele><time>2026-05-01T10:49:31.273Z</time></trkpt><trkpt lat="44.2468195" lon="7.5319352"><ele>777.0</ele><time>2026-05-01T10:49:32.274Z</time></trkpt><trkpt lat="44.2466797" lon="7.5320014"><ele>777.0</ele><time>2026-05-01T10:49:33.273Z</time></trkpt><trkpt lat="44.2465466" lon="7.532066"><ele>778.5</ele><time>2026-05-01T10:49:34.274Z</time></trkpt><trkpt lat="44.246412" lon="7.5321303"><ele>780.0</ele><time>2026-05-01T10:49:35.274Z</time></trkpt><trkpt lat="44.2462754" lon="7.5321848"><ele>781.5</ele><time>2026-05-01T10:49:36.273Z</time></trkpt><trkpt lat="44.2461455" lon="7.5322371"><ele>783.0</ele><time>2026-05-01T10:49:37.273Z</time></trkpt><trkpt lat="44.2460113" lon="7.5322875"><ele>783.0</ele><time>2026-05-01T10:49:38.273Z</time></trkpt><trkpt lat="44.2458752" lon="7.5323408"><ele>783.0</ele><time>2026-05-01T10:49:39.273Z</time></trkpt><trkpt lat="44.2457386" lon="7.5323955"><ele>783.0</ele><time>2026-05-01T10:49:40.273Z</time></trkpt><trkpt lat="44.2456062" lon="7.5324491"><ele>783.0</ele><time>2026-05-01T10:49:41.273Z</time></trkpt><trkpt lat="44.2454715" lon="7.5324991"><ele>782.5</ele><time>2026-05-01T10:49:42.273Z</time></trkpt><trkpt lat="44.2453365" lon="7.532552"><ele>782.0</ele><time>2026-05-01T10:49:43.273Z</time></trkpt><trkpt lat="44.2452003" lon="7.5326079"><ele>781.5</ele><time>2026-05-01T10:49:44.273Z</time></trkpt><trkpt lat="44.2450653" lon="7.5326616"><ele>781.0</ele><time>2026-05-01T10:49:45.274Z</time></trkpt><trkpt lat="44.244933" lon="7.5327114"><ele>781.75</ele><time>2026-05-01T10:49:46.273Z</time></trkpt><trkpt lat="44.2447941" lon="7.5327636"><ele>782.5</ele><time>2026-05-01T10:49:47.273Z</time></trkpt><trkpt lat="44.2446572" lon="7.5328201"><ele>783.25</ele><time>2026-05-01T10:49:48.273Z</time></trkpt><trkpt lat="44.2445205" lon="7.5328781"><ele>784.0</ele><time>2026-05-01T10:49:49.273Z</time></trkpt><trkpt lat="44.2443823" lon="7.5329323"><ele>784.5</ele><time>2026-05-01T10:49:50.273Z</time></trkpt><trkpt lat="44.2442439" lon="7.5329872"><ele>785.0</ele><time>2026-05-01T10:49:51.273Z</time></trkpt><trkpt lat="44.244107" lon="7.5330442"><ele>785.5</ele><time>2026-05-01T10:49:52.273Z</time></trkpt><trkpt lat="44.2439735" lon="7.5331144"><ele>786.0</ele><time>2026-05-01T10:49:53.273Z</time></trkpt><trkpt lat="44.243849" lon="7.5331995"><ele>786.0</ele><time>2026-05-01T10:49:54.274Z</time></trkpt><trkpt lat="44.2437354" lon="7.5332927"><ele>786.0</ele><time>2026-05-01T10:49:55.273Z</time></trkpt><trkpt lat="44.2436259" lon="7.5334056"><ele>786.0</ele><time>2026-05-01T10:49:56.274Z</time></trkpt><trkpt lat="44.2435313" lon="7.5335334"><ele>786.0</ele><time>2026-05-01T10:49:57.273Z</time></trkpt><trkpt lat="44.2434484" lon="7.5336644"><ele>787.25</ele><time>2026-05-01T10:49:58.273Z</time></trkpt><trkpt lat="44.2433587" lon="7.533805"><ele>788.5</ele><time>2026-05-01T10:49:59.273Z</time></trkpt><trkpt lat="44.2432771" lon="7.5339468"><ele>789.75</ele><time>2026-05-01T10:50:00.273Z</time></trkpt><trkpt lat="44.2432008" lon="7.5340874"><ele>791.0</ele><time>2026-05-01T10:50:01.274Z</time></trkpt><trkpt lat="44.2431377" lon="7.5342323"><ele>791.1999999999999</ele><time>2026-05-01T10:50:02.273Z</time></trkpt><trkpt lat="44.2430808" lon="7.5343774"><ele>791.4</ele><time>2026-05-01T10:50:03.273Z</time></trkpt><trkpt lat="44.2430247" lon="7.5345139"><ele>791.6</ele><time>2026-05-01T10:50:04.273Z</time></trkpt><trkpt lat="44.2429815" lon="7.5346481"><ele>791.8</ele><time>2026-05-01T10:50:05.273Z</time></trkpt><trkpt lat="44.2429294" lon="7.5347754"><ele>792.0</ele><time>2026-05-01T10:50:06.273Z</time></trkpt><trkpt lat="44.242872" lon="7.5349015"><ele>793.0</ele><time>2026-05-01T10:50:07.274Z</time></trkpt><trkpt lat="44.2428163" lon="7.5350352"><ele>794.0</ele><time>2026-05-01T10:50:08.273Z</time></trkpt><trkpt lat="44.2427573" lon="7.5351757"><ele>795.0</ele><time>2026-05-01T10:50:09.273Z</time></trkpt><trkpt lat="44.2426913" lon="7.5353118"><ele>796.0</ele><time>2026-05-01T10:50:10.273Z</time></trkpt><trkpt lat="44.2426297" lon="7.5354412"><ele>797.0</ele><time>2026-05-01T10:50:11.274Z</time></trkpt><trkpt lat="44.242562" lon="7.535569"><ele>798.0</ele><time>2026-05-01T10:50:12.274Z</time></trkpt><trkpt lat="44.2424848" lon="7.5356896"><ele>799.0</ele><time>2026-05-01T10:50:13.273Z</time></trkpt><trkpt lat="44.2424021" lon="7.5358135"><ele>800.0</ele><time>2026-05-01T10:50:14.273Z</time></trkpt><trkpt lat="44.2423154" lon="7.5359385"><ele>800.5</ele><time>2026-05-01T10:50:15.273Z</time></trkpt><trkpt lat="44.2422227" lon="7.536065"><ele>801.0</ele><time>2026-05-01T10:50:16.273Z</time></trkpt><trkpt lat="44.2421323" lon="7.5361916"><ele>801.5</ele><time>2026-05-01T10:50:17.273Z</time></trkpt><trkpt lat="44.2420434" lon="7.5363213"><ele>802.0</ele><time>2026-05-01T10:50:18.273Z</time></trkpt><trkpt lat="44.2419534" lon="7.5364515"><ele>802.0</ele><time>2026-05-01T10:50:19.273Z</time></trkpt><trkpt lat="44.2418632" lon="7.5365861"><ele>802.0</ele><time>2026-05-01T10:50:20.273Z</time></trkpt><trkpt lat="44.2417749" lon="7.5367185"><ele>802.0</ele><time>2026-05-01T10:50:21.274Z</time></trkpt><trkpt lat="44.2416823" lon="7.5368469"><ele>802.0</ele><time>2026-05-01T10:50:22.273Z</time></trkpt><trkpt lat="44.2415903" lon="7.536974"><ele>802.0</ele><time>2026-05-01T10:50:23.273Z</time></trkpt><trkpt lat="44.2415003" lon="7.5371129"><ele>802.0</ele><time>2026-05-01T10:50:24.273Z</time></trkpt><trkpt lat="44.2414165" lon="7.5372535"><ele>802.0</ele><time>2026-05-01T10:50:25.273Z</time></trkpt><trkpt lat="44.2413264" lon="7.5374001"><ele>802.0</ele><time>2026-05-01T10:50:26.273Z</time></trkpt><trkpt lat="44.2412434" lon="7.5375397"><ele>802.0</ele><time>2026-05-01T10:50:27.273Z</time></trkpt><trkpt lat="44.2411614" lon="7.5376779"><ele>802.0</ele><time>2026-05-01T10:50:28.273Z</time></trkpt><trkpt lat="44.2410781" lon="7.5378233"><ele>802.0</ele><time>2026-05-01T10:50:29.273Z</time></trkpt><trkpt lat="44.2409934" lon="7.5379726"><ele>802.0</ele><time>2026-05-01T10:50:30.273Z</time></trkpt><trkpt lat="44.2409073" lon="7.5381244"><ele>802.0</ele><time>2026-05-01T10:50:31.273Z</time></trkpt><trkpt lat="44.2408235" lon="7.5382746"><ele>802.0</ele><time>2026-05-01T10:50:32.273Z</time></trkpt><trkpt lat="44.2407373" lon="7.5384205"><ele>802.0</ele><time>2026-05-01T10:50:33.273Z</time></trkpt><trkpt lat="44.2406508" lon="7.5385625"><ele>802.0</ele><time>2026-05-01T10:50:34.274Z</time></trkpt><trkpt lat="44.2405622" lon="7.5387143"><ele>802.6666666666666</ele><time>2026-05-01T10:50:35.273Z</time></trkpt><trkpt lat="44.2404667" lon="7.538867"><ele>803.3333333333333</ele><time>2026-05-01T10:50:36.274Z</time></trkpt><trkpt lat="44.2403592" lon="7.5390266"><ele>804.0</ele><time>2026-05-01T10:50:37.273Z</time></trkpt><trkpt lat="44.2402427" lon="7.5391896"><ele>804.0</ele><time>2026-05-01T10:50:38.273Z</time></trkpt><trkpt lat="44.2401081" lon="7.5393587"><ele>804.0</ele><time>2026-05-01T10:50:39.273Z</time></trkpt><trkpt lat="44.2399451" lon="7.53953"><ele>804.0</ele><time>2026-05-01T10:50:40.273Z</time></trkpt><trkpt lat="44.2397606" lon="7.5397069"><ele>805.5</ele><time>2026-05-01T10:50:41.273Z</time></trkpt><trkpt lat="44.239578" lon="7.539885"><ele>807.0</ele><time>2026-05-01T10:50:42.273Z</time></trkpt><trkpt lat="44.2393866" lon="7.540073"><ele>807.0</ele><time>2026-05-01T10:50:43.273Z</time></trkpt><trkpt lat="44.2391896" lon="7.5402949"><ele>807.0</ele><time>2026-05-01T10:50:44.274Z</time></trkpt><trkpt lat="44.239007" lon="7.5405341"><ele>808.5</ele><time>2026-05-01T10:50:45.273Z</time></trkpt><trkpt lat="44.23884" lon="7.5407817"><ele>810.0</ele><time>2026-05-01T10:50:46.274Z</time></trkpt><trkpt lat="44.2386767" lon="7.5410287"><ele>816.5</ele><time>2026-05-01T10:50:47.273Z</time></trkpt><trkpt lat="44.2385089" lon="7.5412815"><ele>823.0</ele><time>2026-05-01T10:50:48.273Z</time></trkpt><trkpt lat="44.2383327" lon="7.5415226"><ele>823.0</ele><time>2026-05-01T10:50:49.274Z</time></trkpt><trkpt lat="44.2381571" lon="7.5417776"><ele>823.0</ele><time>2026-05-01T10:50:50.273Z</time></trkpt><trkpt lat="44.237992" lon="7.542047"><ele>819.5</ele><time>2026-05-01T10:50:51.273Z</time></trkpt><trkpt lat="44.237843" lon="7.5423193"><ele>816.0</ele><time>2026-05-01T10:50:52.274Z</time></trkpt><trkpt lat="44.2377046" lon="7.5425787"><ele>816.0</ele><time>2026-05-01T10:50:53.273Z</time></trkpt><trkpt lat="44.2375802" lon="7.5428491"><ele>816.0</ele><time>2026-05-01T10:50:54.273Z</time></trkpt><trkpt lat="44.2374681" lon="7.5431432"><ele>819.5</ele><time>2026-05-01T10:50:55.273Z</time></trkpt><trkpt lat="44.2373454" lon="7.5434278"><ele>823.0</ele><time>2026-05-01T10:50:56.273Z</time></trkpt><trkpt lat="44.2372209" lon="7.5437105"><ele>821.0</ele><time>2026-05-01T10:50:57.273Z</time></trkpt><trkpt lat="44.2370911" lon="7.5439681"><ele>819.0</ele><time>2026-05-01T10:50:58.273Z</time></trkpt><trkpt lat="44.2369548" lon="7.544198"><ele>817.0</ele><time>2026-05-01T10:50:59.273Z</time></trkpt><trkpt lat="44.2368108" lon="7.544405"><ele>817.6666666666666</ele><time>2026-05-01T10:51:00.273Z</time></trkpt><trkpt lat="44.2366597" lon="7.544598"><ele>818.3333333333333</ele><time>2026-05-01T10:51:01.274Z</time></trkpt><trkpt lat="44.236505" lon="7.5447879"><ele>819.0</ele><time>2026-05-01T10:51:02.273Z</time></trkpt><trkpt lat="44.2363574" lon="7.5449775"><ele>819.0</ele><time>2026-05-01T10:51:03.273Z</time></trkpt><trkpt lat="44.2362167" lon="7.5451639"><ele>819.0</ele><time>2026-05-01T10:51:04.273Z</time></trkpt><trkpt lat="44.2360816" lon="7.5453532"><ele>819.0</ele><time>2026-05-01T10:51:05.273Z</time></trkpt><trkpt lat="44.2359512" lon="7.545537"><ele>820.6666666666667</ele><time>2026-05-01T10:51:06.274Z</time></trkpt><trkpt lat="44.2358235" lon="7.5457088"><ele>822.3333333333334</ele><time>2026-05-01T10:51:07.273Z</time></trkpt><trkpt lat="44.2356942" lon="7.5458813"><ele>824.0</ele><time>2026-05-01T10:51:08.273Z</time></trkpt><trkpt lat="44.2355687" lon="7.5460515"><ele>824.6666666666667</ele><time>2026-05-01T10:51:09.273Z</time></trkpt><trkpt lat="44.2354459" lon="7.5462326"><ele>825.3333333333333</ele><time>2026-05-01T10:51:10.273Z</time></trkpt><trkpt lat="44.2353226" lon="7.5464043"><ele>826.0</ele><time>2026-05-01T10:51:11.273Z</time></trkpt><trkpt lat="44.2352017" lon="7.5465687"><ele>826.0</ele><time>2026-05-01T10:51:12.273Z</time></trkpt><trkpt lat="44.2350775" lon="7.5467275"><ele>826.0</ele><time>2026-05-01T10:51:13.274Z</time></trkpt><trkpt lat="44.234946" lon="7.5468608"><ele>826.0</ele><time>2026-05-01T10:51:14.273Z</time></trkpt><trkpt lat="44.2348086" lon="7.546992"><ele>827.3333333333333</ele><time>2026-05-01T10:51:15.273Z</time></trkpt><trkpt lat="44.2346665" lon="7.5470999"><ele>828.6666666666667</ele><time>2026-05-01T10:51:16.274Z</time></trkpt><trkpt lat="44.2345334" lon="7.547192"><ele>830.0</ele><time>2026-05-01T10:51:17.273Z</time></trkpt><trkpt lat="44.2344081" lon="7.5472781"><ele>830.0</ele><time>2026-05-01T10:51:18.273Z</time></trkpt><trkpt lat="44.2342804" lon="7.5473612"><ele>830.0</ele><time>2026-05-01T10:51:19.273Z</time></trkpt><trkpt lat="44.2341524" lon="7.5474519"><ele>830.0</ele><time>2026-05-01T10:51:20.273Z</time></trkpt><trkpt lat="44.234022" lon="7.5475518"><ele>830.0</ele><time>2026-05-01T10:51:21.273Z</time></trkpt><trkpt lat="44.2339069" lon="7.5476675"><ele>831.0</ele><time>2026-05-01T10:51:22.273Z</time></trkpt><trkpt lat="44.2337821" lon="7.5478087"><ele>832.0</ele><time>2026-05-01T10:51:23.273Z</time></trkpt><trkpt lat="44.2336754" lon="7.5479723"><ele>833.0</ele><time>2026-05-01T10:51:24.274Z</time></trkpt><trkpt lat="44.2335913" lon="7.5481614"><ele>834.0</ele><time>2026-05-01T10:51:25.273Z</time></trkpt><trkpt lat="44.2335344" lon="7.5483607"><ele>835.0</ele><time>2026-05-01T10:51:26.273Z</time></trkpt><trkpt lat="44.2335086" lon="7.548577"><ele>836.0</ele><time>2026-05-01T10:51:27.273Z</time></trkpt><trkpt lat="44.2335096" lon="7.5488026"><ele>836.6666666666667</ele><time>2026-05-01T10:51:28.273Z</time></trkpt><trkpt lat="44.2335246" lon="7.5490207"><ele>837.3333333333333</ele><time>2026-05-01T10:51:29.273Z</time></trkpt><trkpt lat="44.2335397" lon="7.549246"><ele>838.0</ele><time>2026-05-01T10:51:30.274Z</time></trkpt><trkpt lat="44.233527" lon="7.5494631"><ele>840.3333333333333</ele><time>2026-05-01T10:51:31.273Z</time></trkpt><trkpt lat="44.2334854" lon="7.5496827"><ele>842.6666666666667</ele><time>2026-05-01T10:51:32.274Z</time></trkpt><trkpt lat="44.2334309" lon="7.5498939"><ele>845.0</ele><time>2026-05-01T10:51:33.274Z</time></trkpt><trkpt lat="44.2333566" lon="7.5501014"><ele>845.0</ele><time>2026-05-01T10:51:34.273Z</time></trkpt><trkpt lat="44.2332717" lon="7.5503027"><ele>845.0</ele><time>2026-05-01T10:51:35.273Z</time></trkpt><trkpt lat="44.2331842" lon="7.550495"><ele>845.0</ele><time>2026-05-01T10:51:36.273Z</time></trkpt><trkpt lat="44.233099" lon="7.5506862"><ele>843.6666666666667</ele><time>2026-05-01T10:51:37.273Z</time></trkpt><trkpt lat="44.2330152" lon="7.5508728"><ele>842.3333333333333</ele><time>2026-05-01T10:51:38.273Z</time></trkpt><trkpt lat="44.2329315" lon="7.5510518"><ele>841.0</ele><time>2026-05-01T10:51:39.273Z</time></trkpt><trkpt lat="44.2328379" lon="7.5512271"><ele>844.6666666666666</ele><time>2026-05-01T10:51:40.274Z</time></trkpt><trkpt lat="44.2327369" lon="7.5513964"><ele>848.3333333333333</ele><time>2026-05-01T10:51:41.273Z</time></trkpt><trkpt lat="44.2326263" lon="7.5515487"><ele>852.0</ele><time>2026-05-01T10:51:42.273Z</time></trkpt><trkpt lat="44.2325153" lon="7.551694"><ele>852.0</ele><time>2026-05-01T10:51:43.273Z</time></trkpt><trkpt lat="44.2324037" lon="7.5518346"><ele>852.0</ele><time>2026-05-01T10:51:44.273Z</time></trkpt><trkpt lat="44.2322964" lon="7.5519809"><ele>852.0</ele><time>2026-05-01T10:51:45.273Z</time></trkpt><trkpt lat="44.2321899" lon="7.5521335"><ele>850.25</ele><time>2026-05-01T10:51:46.273Z</time></trkpt><trkpt lat="44.2320822" lon="7.5522856"><ele>848.5</ele><time>2026-05-01T10:51:47.274Z</time></trkpt><trkpt lat="44.2319872" lon="7.5524381"><ele>846.75</ele><time>2026-05-01T10:51:48.274Z</time></trkpt><trkpt lat="44.2318971" lon="7.5526055"><ele>845.0</ele><time>2026-05-01T10:51:49.273Z</time></trkpt><trkpt lat="44.231814" lon="7.5527915"><ele>848.0</ele><time>2026-05-01T10:51:50.273Z</time></trkpt><trkpt lat="44.2317436" lon="7.5529944"><ele>851.0</ele><time>2026-05-01T10:51:51.274Z</time></trkpt><trkpt lat="44.2317001" lon="7.5532205"><ele>854.0</ele><time>2026-05-01T10:51:52.273Z</time></trkpt><trkpt lat="44.2316614" lon="7.5534547"><ele>854.0</ele><time>2026-05-01T10:51:53.273Z</time></trkpt><trkpt lat="44.2316283" lon="7.5536834"><ele>854.0</ele><time>2026-05-01T10:51:54.273Z</time></trkpt><trkpt lat="44.2315817" lon="7.5539118"><ele>854.0</ele><time>2026-05-01T10:51:55.273Z</time></trkpt><trkpt lat="44.2315333" lon="7.554143"><ele>853.6666666666667</ele><time>2026-05-01T10:51:56.273Z</time></trkpt><trkpt lat="44.2314662" lon="7.5543602"><ele>853.3333333333333</ele><time>2026-05-01T10:51:57.273Z</time></trkpt><trkpt lat="44.2313838" lon="7.554566"><ele>853.0</ele><time>2026-05-01T10:51:58.273Z</time></trkpt><trkpt lat="44.2312952" lon="7.5547658"><ele>853.0</ele><time>2026-05-01T10:51:59.274Z</time></trkpt><trkpt lat="44.2311938" lon="7.5549556"><ele>853.0</ele><time>2026-05-01T10:52:00.273Z</time></trkpt><trkpt lat="44.2310957" lon="7.555128"><ele>853.0</ele><time>2026-05-01T10:52:01.273Z</time></trkpt><trkpt lat="44.2309707" lon="7.5552902"><ele>855.3333333333333</ele><time>2026-05-01T10:52:02.273Z</time></trkpt><trkpt lat="44.2308266" lon="7.5554386"><ele>857.6666666666667</ele><time>2026-05-01T10:52:03.273Z</time></trkpt><trkpt lat="44.2306831" lon="7.5555704"><ele>860.0</ele><time>2026-05-01T10:52:04.273Z</time></trkpt><trkpt lat="44.230529" lon="7.5556936"><ele>860.0</ele><time>2026-05-01T10:52:05.274Z</time></trkpt><trkpt lat="44.2303655" lon="7.5557982"><ele>860.0</ele><time>2026-05-01T10:52:06.273Z</time></trkpt><trkpt lat="44.2301919" lon="7.5558937"><ele>860.0</ele><time>2026-05-01T10:52:07.274Z</time></trkpt><trkpt lat="44.2300132" lon="7.5559802"><ele>860.0</ele><time>2026-05-01T10:52:08.273Z</time></trkpt><trkpt lat="44.2298467" lon="7.556065"><ele>860.0</ele><time>2026-05-01T10:52:09.273Z</time></trkpt><trkpt lat="44.2296991" lon="7.5561314"><ele>860.0</ele><time>2026-05-01T10:52:10.273Z</time></trkpt><trkpt lat="44.2295546" lon="7.5562199"><ele>862.0</ele><time>2026-05-01T10:52:11.274Z</time></trkpt><trkpt lat="44.2294117" lon="7.5563079"><ele>864.0</ele><time>2026-05-01T10:52:12.273Z</time></trkpt><trkpt lat="44.2292661" lon="7.5564205"><ele>866.0</ele><time>2026-05-01T10:52:13.273Z</time></trkpt><trkpt lat="44.2291074" lon="7.5565643"><ele>866.3333333333334</ele><time>2026-05-01T10:52:14.273Z</time></trkpt><trkpt lat="44.2289693" lon="7.5567104"><ele>866.6666666666667</ele><time>2026-05-01T10:52:15.273Z</time></trkpt><trkpt lat="44.2288494" lon="7.5568763"><ele>867.0</ele><time>2026-05-01T10:52:16.273Z</time></trkpt><trkpt lat="44.2287458" lon="7.5570372"><ele>867.0</ele><time>2026-05-01T10:52:17.273Z</time></trkpt><trkpt lat="44.2286398" lon="7.5572117"><ele>867.0</ele><time>2026-05-01T10:52:18.273Z</time></trkpt><trkpt lat="44.2285405" lon="7.5573877"><ele>867.0</ele><time>2026-05-01T10:52:19.273Z</time></trkpt><trkpt lat="44.2284536" lon="7.5575635"><ele>867.0</ele><time>2026-05-01T10:52:20.273Z</time></trkpt><trkpt lat="44.2283781" lon="7.5577455"><ele>867.0</ele><time>2026-05-01T10:52:21.273Z</time></trkpt><trkpt lat="44.2283285" lon="7.5579467"><ele>867.0</ele><time>2026-05-01T10:52:22.273Z</time></trkpt><trkpt lat="44.2282889" lon="7.5581595"><ele>869.3333333333333</ele><time>2026-05-01T10:52:23.273Z</time></trkpt><trkpt lat="44.2282578" lon="7.5583754"><ele>871.6666666666666</ele><time>2026-05-01T10:52:24.273Z</time></trkpt><trkpt lat="44.2282397" lon="7.5585862"><ele>874.0</ele><time>2026-05-01T10:52:25.273Z</time></trkpt><trkpt lat="44.2282486" lon="7.5588172"><ele>874.6666666666666</ele><time>2026-05-01T10:52:26.273Z</time></trkpt><trkpt lat="44.2282844" lon="7.559061"><ele>875.3333333333333</ele><time>2026-05-01T10:52:27.273Z</time></trkpt><trkpt lat="44.2283274" lon="7.5593231"><ele>876.0</ele><time>2026-05-01T10:52:28.274Z</time></trkpt><trkpt lat="44.2283778" lon="7.559605"><ele>876.0</ele><time>2026-05-01T10:52:29.273Z</time></trkpt><trkpt lat="44.2284325" lon="7.5598997"><ele>876.0</ele><time>2026-05-01T10:52:30.273Z</time></trkpt><trkpt lat="44.2284939" lon="7.5602182"><ele>875.0</ele><time>2026-05-01T10:52:31.273Z</time></trkpt><trkpt lat="44.2285612" lon="7.5605316"><ele>874.0</ele><time>2026-05-01T10:52:32.273Z</time></trkpt><trkpt lat="44.2286279" lon="7.5608213"><ele>874.0</ele><time>2026-05-01T10:52:33.273Z</time></trkpt><trkpt lat="44.228662" lon="7.5610992"><ele>874.0</ele><time>2026-05-01T10:52:34.273Z</time></trkpt><trkpt lat="44.2286948" lon="7.5613632"><ele>874.0</ele><time>2026-05-01T10:52:35.273Z</time></trkpt><trkpt lat="44.2286923" lon="7.5616087"><ele>874.0</ele><time>2026-05-01T10:52:36.273Z</time></trkpt><trkpt lat="44.2286632" lon="7.561829"><ele>874.0</ele><time>2026-05-01T10:52:37.274Z</time></trkpt><trkpt lat="44.2286064" lon="7.5620215"><ele>874.0</ele><time>2026-05-01T10:52:38.273Z</time></trkpt><trkpt lat="44.2285147" lon="7.5621681"><ele>874.0</ele><time>2026-05-01T10:52:39.273Z</time></trkpt><trkpt lat="44.228408" lon="7.5622923"><ele>875.0</ele><time>2026-05-01T10:52:40.273Z</time></trkpt><trkpt lat="44.2282902" lon="7.5624"><ele>876.0</ele><time>2026-05-01T10:52:41.273Z</time></trkpt><trkpt lat="44.2281556" lon="7.5624886"><ele>877.0</ele><time>2026-05-01T10:52:42.274Z</time></trkpt><trkpt lat="44.2280105" lon="7.5625514"><ele>878.0</ele><time>2026-05-01T10:52:43.273Z</time></trkpt><trkpt lat="44.227861" lon="7.5625755"><ele>880.0</ele><time>2026-05-01T10:52:44.273Z</time></trkpt><trkpt lat="44.2277081" lon="7.5625817"><ele>882.0</ele><time>2026-05-01T10:52:45.273Z</time></trkpt><trkpt lat="44.2275485" lon="7.5625656"><ele>884.0</ele><time>2026-05-01T10:52:46.273Z</time></trkpt><trkpt lat="44.2273927" lon="7.5625407"><ele>885.0</ele><time>2026-05-01T10:52:47.274Z</time></trkpt><trkpt lat="44.2272364" lon="7.5625182"><ele>886.0</ele><time>2026-05-01T10:52:48.273Z</time></trkpt><trkpt lat="44.2270844" lon="7.5624965"><ele>887.0</ele><time>2026-05-01T10:52:49.273Z</time></trkpt><trkpt lat="44.2269345" lon="7.5624775"><ele>887.0</ele><time>2026-05-01T10:52:50.273Z</time></trkpt><trkpt lat="44.2267861" lon="7.5624619"><ele>887.0</ele><time>2026-05-01T10:52:51.273Z</time></trkpt><trkpt lat="44.2266321" lon="7.5624744"><ele>887.0</ele><time>2026-05-01T10:52:52.273Z</time></trkpt><trkpt lat="44.2264742" lon="7.5625169"><ele>886.3333333333334</ele><time>2026-05-01T10:52:53.273Z</time></trkpt><trkpt lat="44.2263187" lon="7.562581"><ele>885.6666666666667</ele><time>2026-05-01T10:52:54.274Z</time></trkpt><trkpt lat="44.2261638" lon="7.5626626"><ele>885.0</ele><time>2026-05-01T10:52:55.273Z</time></trkpt><trkpt lat="44.2260116" lon="7.5627625"><ele>887.0</ele><time>2026-05-01T10:52:56.273Z</time></trkpt><trkpt lat="44.2258473" lon="7.5628877"><ele>889.0</ele><time>2026-05-01T10:52:57.274Z</time></trkpt><trkpt lat="44.2256874" lon="7.5630459"><ele>891.0</ele><time>2026-05-01T10:52:58.273Z</time></trkpt><trkpt lat="44.2255248" lon="7.5632405"><ele>891.0</ele><time>2026-05-01T10:52:59.273Z</time></trkpt><trkpt lat="44.2253582" lon="7.5634564"><ele>891.0</ele><time>2026-05-01T10:53:00.273Z</time></trkpt><trkpt lat="44.2252056" lon="7.5636729"><ele>891.0</ele><time>2026-05-01T10:53:01.273Z</time></trkpt><trkpt lat="44.2250527" lon="7.5638528"><ele>892.6666666666667</ele><time>2026-05-01T10:53:02.273Z</time></trkpt><trkpt lat="44.2248962" lon="7.5639894"><ele>894.3333333333334</ele><time>2026-05-01T10:53:03.273Z</time></trkpt><trkpt lat="44.2247297" lon="7.5640973"><ele>896.0</ele><time>2026-05-01T10:53:04.273Z</time></trkpt><trkpt lat="44.2245511" lon="7.5641745"><ele>896.0</ele><time>2026-05-01T10:53:05.273Z</time></trkpt><trkpt lat="44.2243698" lon="7.5642329"><ele>896.0</ele><time>2026-05-01T10:53:06.273Z</time></trkpt><trkpt lat="44.2241956" lon="7.5642918"><ele>896.0</ele><time>2026-05-01T10:53:07.273Z</time></trkpt><trkpt lat="44.2240311" lon="7.5643613"><ele>896.3333333333334</ele><time>2026-05-01T10:53:08.273Z</time></trkpt><trkpt lat="44.2238698" lon="7.5644315"><ele>896.6666666666667</ele><time>2026-05-01T10:53:09.273Z</time></trkpt><trkpt lat="44.2237118" lon="7.5645089"><ele>897.0</ele><time>2026-05-01T10:53:10.273Z</time></trkpt><trkpt lat="44.2235555" lon="7.5646007"><ele>899.6666666666667</ele><time>2026-05-01T10:53:11.273Z</time></trkpt><trkpt lat="44.2234186" lon="7.5647251"><ele>902.3333333333334</ele><time>2026-05-01T10:53:12.273Z</time></trkpt><trkpt lat="44.2232887" lon="7.5648767"><ele>905.0</ele><time>2026-05-01T10:53:13.273Z</time></trkpt><trkpt lat="44.2231688" lon="7.5650315"><ele>903.0</ele><time>2026-05-01T10:53:14.273Z</time></trkpt><trkpt lat="44.2230568" lon="7.5652257"><ele>901.0</ele><time>2026-05-01T10:53:15.273Z</time></trkpt><trkpt lat="44.2229635" lon="7.5654806"><ele>899.0</ele><time>2026-05-01T10:53:16.273Z</time></trkpt><trkpt lat="44.2228604" lon="7.5657619"><ele>899.0</ele><time>2026-05-01T10:53:17.273Z</time></trkpt><trkpt lat="44.2227442" lon="7.5660343"><ele>899.0</ele><time>2026-05-01T10:53:18.273Z</time></trkpt><trkpt lat="44.2226366" lon="7.5663006"><ele>899.0</ele><time>2026-05-01T10:53:19.274Z</time></trkpt><trkpt lat="44.2225221" lon="7.5665475"><ele>900.6666666666667</ele><time>2026-05-01T10:53:20.273Z</time></trkpt><trkpt lat="44.2223992" lon="7.5667747"><ele>902.3333333333333</ele><time>2026-05-01T10:53:21.273Z</time></trkpt><trkpt lat="44.2222726" lon="7.5669873"><ele>904.0</ele><time>2026-05-01T10:53:22.273Z</time></trkpt><trkpt lat="44.2221448" lon="7.5671879"><ele>905.0</ele><time>2026-05-01T10:53:23.273Z</time></trkpt><trkpt lat="44.2220026" lon="7.5673782"><ele>906.0</ele><time>2026-05-01T10:53:24.273Z</time></trkpt><trkpt lat="44.2218562" lon="7.5675597"><ele>907.0</ele><time>2026-05-01T10:53:25.273Z</time></trkpt><trkpt lat="44.2217027" lon="7.5677301"><ele>909.6666666666666</ele><time>2026-05-01T10:53:26.274Z</time></trkpt><trkpt lat="44.2215313" lon="7.5678923"><ele>912.3333333333333</ele><time>2026-05-01T10:53:27.273Z</time></trkpt><trkpt lat="44.2213618" lon="7.5680446"><ele>915.0</ele><time>2026-05-01T10:53:28.273Z</time></trkpt><trkpt lat="44.2211816" lon="7.5681803"><ele>915.0</ele><time>2026-05-01T10:53:29.273Z</time></trkpt><trkpt lat="44.2209952" lon="7.5683149"><ele>915.0</ele><time>2026-05-01T10:53:30.273Z</time></trkpt><trkpt lat="44.2207936" lon="7.5684245"><ele>915.0</ele><time>2026-05-01T10:53:31.273Z</time></trkpt><trkpt lat="44.2205892" lon="7.5685377"><ele>914.5</ele><time>2026-05-01T10:53:32.273Z</time></trkpt><trkpt lat="44.2203758" lon="7.5686485"><ele>914.0</ele><time>2026-05-01T10:53:33.273Z</time></trkpt><trkpt lat="44.2201498" lon="7.5687599"><ele>917.5</ele><time>2026-05-01T10:53:34.274Z</time></trkpt><trkpt lat="44.2199156" lon="7.5688647"><ele>921.0</ele><time>2026-05-01T10:53:35.273Z</time></trkpt><trkpt lat="44.2196889" lon="7.5689713"><ele>921.0</ele><time>2026-05-01T10:53:36.273Z</time></trkpt><trkpt lat="44.2194605" lon="7.5690781"><ele>921.0</ele><time>2026-05-01T10:53:37.273Z</time></trkpt><trkpt lat="44.2192332" lon="7.569192"><ele>921.0</ele><time>2026-05-01T10:53:38.273Z</time></trkpt><trkpt lat="44.2190002" lon="7.5693085"><ele>921.0</ele><time>2026-05-01T10:53:39.273Z</time></trkpt><trkpt lat="44.2187686" lon="7.5694194"><ele>921.5</ele><time>2026-05-01T10:53:40.273Z</time></trkpt><trkpt lat="44.218529" lon="7.5695208"><ele>922.0</ele><time>2026-05-01T10:53:41.273Z</time></trkpt><trkpt lat="44.2183035" lon="7.5696242"><ele>923.5</ele><time>2026-05-01T10:53:42.273Z</time></trkpt><trkpt lat="44.2180843" lon="7.5697396"><ele>925.0</ele><time>2026-05-01T10:53:43.273Z</time></trkpt><trkpt lat="44.2178678" lon="7.5698511"><ele>925.0</ele><time>2026-05-01T10:53:44.273Z</time></trkpt><trkpt lat="44.2176449" lon="7.5699687"><ele>925.0</ele><time>2026-05-01T10:53:45.273Z</time></trkpt><trkpt lat="44.2174229" lon="7.5700965"><ele>924.5</ele><time>2026-05-01T10:53:46.274Z</time></trkpt><trkpt lat="44.2172038" lon="7.5702343"><ele>924.0</ele><time>2026-05-01T10:53:47.274Z</time></trkpt><trkpt lat="44.2169798" lon="7.5703819"><ele>931.0</ele><time>2026-05-01T10:53:48.273Z</time></trkpt><trkpt lat="44.2167555" lon="7.5705374"><ele>938.0</ele><time>2026-05-01T10:53:49.273Z</time></trkpt><trkpt lat="44.2165378" lon="7.5707005"><ele>934.0</ele><time>2026-05-01T10:53:50.273Z</time></trkpt><trkpt lat="44.2163199" lon="7.570859"><ele>930.0</ele><time>2026-05-01T10:53:51.273Z</time></trkpt><trkpt lat="44.2161059" lon="7.5710131"><ele>930.0</ele><time>2026-05-01T10:53:52.273Z</time></trkpt><trkpt lat="44.2158909" lon="7.5711737"><ele>930.0</ele><time>2026-05-01T10:53:53.273Z</time></trkpt><trkpt lat="44.2156831" lon="7.5713383"><ele>934.5</ele><time>2026-05-01T10:53:54.273Z</time></trkpt><trkpt lat="44.2154663" lon="7.5714839"><ele>939.0</ele><time>2026-05-01T10:53:55.274Z</time></trkpt><trkpt lat="44.2152277" lon="7.5715998"><ele>939.0</ele><time>2026-05-01T10:53:56.274Z</time></trkpt><trkpt lat="44.2149947" lon="7.5716693"><ele>939.0</ele><time>2026-05-01T10:53:57.273Z</time></trkpt><trkpt lat="44.2147642" lon="7.5717085"><ele>938.5</ele><time>2026-05-01T10:53:58.273Z</time></trkpt><trkpt lat="44.2145349" lon="7.5717352"><ele>938.0</ele><time>2026-05-01T10:53:59.274Z</time></trkpt><trkpt lat="44.2142923" lon="7.5717801"><ele>938.0</ele><time>2026-05-01T10:54:00.273Z</time></trkpt><trkpt lat="44.2140534" lon="7.571853"><ele>938.0</ele><time>2026-05-01T10:54:01.273Z</time></trkpt><trkpt lat="44.2138307" lon="7.571951"><ele>945.0</ele><time>2026-05-01T10:54:02.273Z</time></trkpt><trkpt lat="44.2136144" lon="7.5720787"><ele>952.0</ele><time>2026-05-01T10:54:03.273Z</time></trkpt><trkpt lat="44.2133989" lon="7.5722264"><ele>952.0</ele><time>2026-05-01T10:54:04.274Z</time></trkpt><trkpt lat="44.21319" lon="7.5723598"><ele>952.0</ele><time>2026-05-01T10:54:05.273Z</time></trkpt><trkpt lat="44.2129604" lon="7.572466"><ele>954.0</ele><time>2026-05-01T10:54:06.273Z</time></trkpt><trkpt lat="44.2127558" lon="7.5725441"><ele>956.0</ele><time>2026-05-01T10:54:07.273Z</time></trkpt><trkpt lat="44.2125574" lon="7.5725639"><ele>958.0</ele><time>2026-05-01T10:54:08.273Z</time></trkpt><trkpt lat="44.21237" lon="7.5725162"><ele>959.6666666666666</ele><time>2026-05-01T10:54:09.273Z</time></trkpt><trkpt lat="44.2121793" lon="7.5724068"><ele>961.3333333333333</ele><time>2026-05-01T10:54:10.273Z</time></trkpt><trkpt lat="44.2119981" lon="7.5722655"><ele>963.0</ele><time>2026-05-01T10:54:11.273Z</time></trkpt><trkpt lat="44.2118145" lon="7.5721337"><ele>963.0</ele><time>2026-05-01T10:54:12.274Z</time></trkpt><trkpt lat="44.2116244" lon="7.5720312"><ele>963.0</ele><time>2026-05-01T10:54:13.273Z</time></trkpt><trkpt lat="44.211437" lon="7.5719623"><ele>963.0</ele><time>2026-05-01T10:54:14.273Z</time></trkpt><trkpt lat="44.2112333" lon="7.5719493"><ele>962.3333333333333</ele><time>2026-05-01T10:54:15.273Z</time></trkpt><trkpt lat="44.2110144" lon="7.5719737"><ele>961.6666666666666</ele><time>2026-05-01T10:54:16.273Z</time></trkpt><trkpt lat="44.2107947" lon="7.5720246"><ele>961.0</ele><time>2026-05-01T10:54:17.273Z</time></trkpt><trkpt lat="44.2105748" lon="7.5720914"><ele>961.0</ele><time>2026-05-01T10:54:18.273Z</time></trkpt><trkpt lat="44.2103637" lon="7.5721525"><ele>961.0</ele><time>2026-05-01T10:54:19.273Z</time></trkpt><trkpt lat="44.2101599" lon="7.5722212"><ele>961.0</ele><time>2026-05-01T10:54:20.273Z</time></trkpt><trkpt lat="44.2099605" lon="7.5723042"><ele>959.0</ele><time>2026-05-01T10:54:21.273Z</time></trkpt><trkpt lat="44.2097651" lon="7.5724174"><ele>957.0</ele><time>2026-05-01T10:54:22.273Z</time></trkpt><trkpt lat="44.2095838" lon="7.572577"><ele>955.0</ele><time>2026-05-01T10:54:23.273Z</time></trkpt><trkpt lat="44.2094254" lon="7.5727914"><ele>957.0</ele><time>2026-05-01T10:54:24.273Z</time></trkpt><trkpt lat="44.2092677" lon="7.5730196"><ele>959.0</ele><time>2026-05-01T10:54:25.273Z</time></trkpt><trkpt lat="44.2091117" lon="7.5732314"><ele>961.0</ele><time>2026-05-01T10:54:26.273Z</time></trkpt><trkpt lat="44.2089644" lon="7.5734429"><ele>961.0</ele><time>2026-05-01T10:54:27.273Z</time></trkpt><trkpt lat="44.2088151" lon="7.5736434"><ele>961.0</ele><time>2026-05-01T10:54:28.273Z</time></trkpt><trkpt lat="44.208657" lon="7.5738346"><ele>961.0</ele><time>2026-05-01T10:54:29.273Z</time></trkpt><trkpt lat="44.2084994" lon="7.5740029"><ele>963.6666666666666</ele><time>2026-05-01T10:54:30.273Z</time></trkpt><trkpt lat="44.208336" lon="7.5741314"><ele>966.3333333333333</ele><time>2026-05-01T10:54:31.273Z</time></trkpt><trkpt lat="44.2081671" lon="7.5742281"><ele>969.0</ele><time>2026-05-01T10:54:32.273Z</time></trkpt><trkpt lat="44.2079789" lon="7.5742553"><ele>969.0</ele><time>2026-05-01T10:54:33.273Z</time></trkpt><trkpt lat="44.2077778" lon="7.5742529"><ele>969.0</ele><time>2026-05-01T10:54:34.273Z</time></trkpt><trkpt lat="44.2075747" lon="7.5742548"><ele>969.0</ele><time>2026-05-01T10:54:35.273Z</time></trkpt><trkpt lat="44.2073664" lon="7.5742388"><ele>967.6666666666667</ele><time>2026-05-01T10:54:36.273Z</time></trkpt><trkpt lat="44.2071649" lon="7.57423"><ele>966.3333333333334</ele><time>2026-05-01T10:54:37.273Z</time></trkpt><trkpt lat="44.2069667" lon="7.5742491"><ele>965.0</ele><time>2026-05-01T10:54:38.273Z</time></trkpt><trkpt lat="44.2067701" lon="7.5742846"><ele>965.0</ele><time>2026-05-01T10:54:39.274Z</time></trkpt><trkpt lat="44.206586" lon="7.5743203"><ele>965.0</ele><time>2026-05-01T10:54:40.273Z</time></trkpt><trkpt lat="44.2064157" lon="7.574383"><ele>965.0</ele><time>2026-05-01T10:54:41.273Z</time></trkpt><trkpt lat="44.2062556" lon="7.5744492"><ele>966.75</ele><time>2026-05-01T10:54:42.274Z</time></trkpt><trkpt lat="44.2061047" lon="7.5745149"><ele>968.5</ele><time>2026-05-01T10:54:43.274Z</time></trkpt><trkpt lat="44.2059747" lon="7.574588"><ele>970.25</ele><time>2026-05-01T10:54:44.274Z</time></trkpt><trkpt lat="44.2058485" lon="7.5746633"><ele>972.0</ele><time>2026-05-01T10:54:45.274Z</time></trkpt><trkpt lat="44.2057304" lon="7.5747444"><ele>973.5</ele><time>2026-05-01T10:54:46.275Z</time></trkpt><trkpt lat="44.2056172" lon="7.5748198"><ele>975.0</ele><time>2026-05-01T10:54:47.274Z</time></trkpt><trkpt lat="44.2055065" lon="7.5748767"><ele>976.5</ele><time>2026-05-01T10:54:48.274Z</time></trkpt><trkpt lat="44.2053936" lon="7.5749315"><ele>978.0</ele><time>2026-05-01T10:54:49.274Z</time></trkpt><trkpt lat="44.2052741" lon="7.5749674"><ele>978.0</ele><time>2026-05-01T10:54:50.275Z</time></trkpt><trkpt lat="44.2051546" lon="7.5749701"><ele>978.0</ele><time>2026-05-01T10:54:51.274Z</time></trkpt><trkpt lat="44.2050282" lon="7.5749287"><ele>978.0</ele><time>2026-05-01T10:54:52.274Z</time></trkpt><trkpt lat="44.2049031" lon="7.5748629"><ele>978.0</ele><time>2026-05-01T10:54:53.274Z</time></trkpt><trkpt lat="44.2047883" lon="7.5747759"><ele>978.75</ele><time>2026-05-01T10:54:54.274Z</time></trkpt><trkpt lat="44.2046678" lon="7.5746864"><ele>979.5</ele><time>2026-05-01T10:54:55.275Z</time></trkpt><trkpt lat="44.2045451" lon="7.5745882"><ele>980.25</ele><time>2026-05-01T10:54:56.274Z</time></trkpt><trkpt lat="44.2044262" lon="7.5744927"><ele>981.0</ele><time>2026-05-01T10:54:57.274Z</time></trkpt><trkpt lat="44.2043078" lon="7.5743957"><ele>981.25</ele><time>2026-05-01T10:54:58.274Z</time></trkpt><trkpt lat="44.2041879" lon="7.5743002"><ele>981.5</ele><time>2026-05-01T10:54:59.274Z</time></trkpt><trkpt lat="44.204071" lon="7.5742067"><ele>981.75</ele><time>2026-05-01T10:55:00.274Z</time></trkpt><trkpt lat="44.2039454" lon="7.5741136"><ele>982.0</ele><time>2026-05-01T10:55:01.274Z</time></trkpt><trkpt lat="44.2038174" lon="7.574023"><ele>982.0</ele><time>2026-05-01T10:55:02.275Z</time></trkpt><trkpt lat="44.203692" lon="7.5739372"><ele>982.0</ele><time>2026-05-01T10:55:03.274Z</time></trkpt><trkpt lat="44.2035608" lon="7.5738752"><ele>982.0</ele><time>2026-05-01T10:55:04.274Z</time></trkpt><trkpt lat="44.2034274" lon="7.5738364"><ele>982.0</ele><time>2026-05-01T10:55:05.274Z</time></trkpt><trkpt lat="44.2032866" lon="7.5738354"><ele>985.25</ele><time>2026-05-01T10:55:06.274Z</time></trkpt><trkpt lat="44.2031475" lon="7.5738671"><ele>988.5</ele><time>2026-05-01T10:55:07.274Z</time></trkpt><trkpt lat="44.2030196" lon="7.5739216"><ele>991.75</ele><time>2026-05-01T10:55:08.274Z</time></trkpt><trkpt lat="44.202899" lon="7.5739902"><ele>995.0</ele><time>2026-05-01T10:55:09.274Z</time></trkpt><trkpt lat="44.2027805" lon="7.5740615"><ele>995.0</ele><time>2026-05-01T10:55:10.274Z</time></trkpt><trkpt lat="44.2026611" lon="7.5741281"><ele>995.0</ele><time>2026-05-01T10:55:11.274Z</time></trkpt><trkpt lat="44.2025334" lon="7.5741943"><ele>995.0</ele><time>2026-05-01T10:55:12.274Z</time></trkpt><trkpt lat="44.2023993" lon="7.5742633"><ele>995.0</ele><time>2026-05-01T10:55:13.274Z</time></trkpt><trkpt lat="44.2022639" lon="7.5743216"><ele>998.25</ele><time>2026-05-01T10:55:14.274Z</time></trkpt><trkpt lat="44.2021271" lon="7.5743798"><ele>1001.5</ele><time>2026-05-01T10:55:15.274Z</time></trkpt><trkpt lat="44.2019877" lon="7.574421"><ele>1004.75</ele><time>2026-05-01T10:55:16.274Z</time></trkpt><trkpt lat="44.2018351" lon="7.5744524"><ele>1008.0</ele><time>2026-05-01T10:55:17.274Z</time></trkpt><trkpt lat="44.2016815" lon="7.5744703"><ele>1008.0</ele><time>2026-05-01T10:55:18.274Z</time></trkpt><trkpt lat="44.2015291" lon="7.5744985"><ele>1008.0</ele><time>2026-05-01T10:55:19.274Z</time></trkpt><trkpt lat="44.2013768" lon="7.5745227"><ele>1008.0</ele><time>2026-05-01T10:55:20.274Z</time></trkpt><trkpt lat="44.2012311" lon="7.5745404"><ele>1005.0</ele><time>2026-05-01T10:55:21.274Z</time></trkpt><trkpt lat="44.2010785" lon="7.5745463"><ele>1002.0</ele><time>2026-05-01T10:55:22.274Z</time></trkpt><trkpt lat="44.2009279" lon="7.5745524"><ele>999.0</ele><time>2026-05-01T10:55:23.274Z</time></trkpt><trkpt lat="44.2007736" lon="7.5745685"><ele>1000.75</ele><time>2026-05-01T10:55:24.274Z</time></trkpt><trkpt lat="44.200636" lon="7.5745864"><ele>1002.5</ele><time>2026-05-01T10:55:25.274Z</time></trkpt><trkpt lat="44.2004943" lon="7.5746196"><ele>1004.25</ele><time>2026-05-01T10:55:26.274Z</time></trkpt><trkpt lat="44.2003555" lon="7.5746787"><ele>1006.0</ele><time>2026-05-01T10:55:27.274Z</time></trkpt><trkpt lat="44.2002145" lon="7.5747309"><ele>1006.0</ele><time>2026-05-01T10:55:28.274Z</time></trkpt><trkpt lat="44.2000742" lon="7.5748081"><ele>1006.0</ele><time>2026-05-01T10:55:29.274Z</time></trkpt><trkpt lat="44.1999417" lon="7.574903"><ele>1006.0</ele><time>2026-05-01T10:55:30.274Z</time></trkpt><trkpt lat="44.199816" lon="7.5749896"><ele>1006.0</ele><time>2026-05-01T10:55:31.275Z</time></trkpt><trkpt lat="44.1996889" lon="7.5750739"><ele>1008.0</ele><time>2026-05-01T10:55:32.274Z</time></trkpt><trkpt lat="44.1995555" lon="7.5751355"><ele>1010.0</ele><time>2026-05-01T10:55:33.274Z</time></trkpt><trkpt lat="44.1994159" lon="7.5751824"><ele>1012.0</ele><time>2026-05-01T10:55:34.274Z</time></trkpt><trkpt lat="44.1992795" lon="7.5752068"><ele>1014.0</ele><time>2026-05-01T10:55:35.274Z</time></trkpt><trkpt lat="44.1991325" lon="7.57521"><ele>1014.75</ele><time>2026-05-01T10:55:36.274Z</time></trkpt><trkpt lat="44.1989914" lon="7.5751999"><ele>1015.5</ele><time>2026-05-01T10:55:37.275Z</time></trkpt><trkpt lat="44.1988547" lon="7.5751764"><ele>1016.25</ele><time>2026-05-01T10:55:38.274Z</time></trkpt><trkpt lat="44.1987244" lon="7.5751544"><ele>1017.0</ele><time>2026-05-01T10:55:39.274Z</time></trkpt><trkpt lat="44.1985943" lon="7.5751313"><ele>1017.0</ele><time>2026-05-01T10:55:40.274Z</time></trkpt><trkpt lat="44.1984705" lon="7.5751109"><ele>1017.0</ele><time>2026-05-01T10:55:41.274Z</time></trkpt><trkpt lat="44.1983472" lon="7.575088"><ele>1017.0</ele><time>2026-05-01T10:55:42.274Z</time></trkpt><trkpt lat="44.1982153" lon="7.5750736"><ele>1017.0</ele><time>2026-05-01T10:55:43.274Z</time></trkpt><trkpt lat="44.198071" lon="7.5750634"><ele>1018.0</ele><time>2026-05-01T10:55:44.274Z</time></trkpt><trkpt lat="44.197917" lon="7.5750382"><ele>1019.0</ele><time>2026-05-01T10:55:45.275Z</time></trkpt><trkpt lat="44.1977595" lon="7.575018"><ele>1020.0</ele><time>2026-05-01T10:55:46.274Z</time></trkpt><trkpt lat="44.1975967" lon="7.5750027"><ele>1020.0</ele><time>2026-05-01T10:55:47.274Z</time></trkpt><trkpt lat="44.1974341" lon="7.5749805"><ele>1020.0</ele><time>2026-05-01T10:55:48.274Z</time></trkpt><trkpt lat="44.1972733" lon="7.5749677"><ele>1020.0</ele><time>2026-05-01T10:55:49.274Z</time></trkpt><trkpt lat="44.1971128" lon="7.5749392"><ele>1021.3333333333333</ele><time>2026-05-01T10:55:50.274Z</time></trkpt><trkpt lat="44.1969529" lon="7.5749115"><ele>1022.6666666666666</ele><time>2026-05-01T10:55:51.274Z</time></trkpt><trkpt lat="44.1968001" lon="7.5748875"><ele>1024.0</ele><time>2026-05-01T10:55:52.274Z</time></trkpt><trkpt lat="44.196639" lon="7.5748655"><ele>1024.0</ele><time>2026-05-01T10:55:53.274Z</time></trkpt><trkpt lat="44.1964804" lon="7.5748362"><ele>1024.0</ele><time>2026-05-01T10:55:54.274Z</time></trkpt><trkpt lat="44.1963285" lon="7.5748176"><ele>1024.0</ele><time>2026-05-01T10:55:55.274Z</time></trkpt><trkpt lat="44.1961802" lon="7.5747994"><ele>1024.0</ele><time>2026-05-01T10:55:56.274Z</time></trkpt><trkpt lat="44.1960308" lon="7.5747862"><ele>1024.0</ele><time>2026-05-01T10:55:57.274Z</time></trkpt><trkpt lat="44.1958897" lon="7.5747655"><ele>1024.0</ele><time>2026-05-01T10:55:58.274Z</time></trkpt><trkpt lat="44.1957556" lon="7.5747351"><ele>1024.0</ele><time>2026-05-01T10:55:59.274Z</time></trkpt><trkpt lat="44.1956214" lon="7.5747041"><ele>1024.5</ele><time>2026-05-01T10:56:00.275Z</time></trkpt><trkpt lat="44.195494" lon="7.5746651"><ele>1025.0</ele><time>2026-05-01T10:56:01.274Z</time></trkpt><trkpt lat="44.1953753" lon="7.5746193"><ele>1025.5</ele><time>2026-05-01T10:56:02.274Z</time></trkpt><trkpt lat="44.1952692" lon="7.5745259"><ele>1026.0</ele><time>2026-05-01T10:56:03.275Z</time></trkpt><trkpt lat="44.1951818" lon="7.574381"><ele>1026.0</ele><time>2026-05-01T10:56:04.274Z</time></trkpt><trkpt lat="44.1950997" lon="7.5742007"><ele>1026.0</ele><time>2026-05-01T10:56:05.274Z</time></trkpt><trkpt lat="44.1950225" lon="7.5740027"><ele>1026.0</ele><time>2026-05-01T10:56:06.274Z</time></trkpt><trkpt lat="44.1949407" lon="7.5738177"><ele>1027.75</ele><time>2026-05-01T10:56:07.274Z</time></trkpt><trkpt lat="44.1948585" lon="7.5736489"><ele>1029.5</ele><time>2026-05-01T10:56:08.274Z</time></trkpt><trkpt lat="44.1947793" lon="7.5734769"><ele>1031.25</ele><time>2026-05-01T10:56:09.274Z</time></trkpt><trkpt lat="44.1946993" lon="7.573292"><ele>1033.0</ele><time>2026-05-01T10:56:10.274Z</time></trkpt><trkpt lat="44.194607" lon="7.5731087"><ele>1033.0</ele><time>2026-05-01T10:56:11.274Z</time></trkpt><trkpt lat="44.1945142" lon="7.5729323"><ele>1033.0</ele><time>2026-05-01T10:56:12.274Z</time></trkpt><trkpt lat="44.1944156" lon="7.5727567"><ele>1033.0</ele><time>2026-05-01T10:56:13.274Z</time></trkpt><trkpt lat="44.1942986" lon="7.5726029"><ele>1033.6666666666665</ele><time>2026-05-01T10:56:14.274Z</time></trkpt><trkpt lat="44.1941723" lon="7.5724624"><ele>1034.3333333333333</ele><time>2026-05-01T10:56:15.274Z</time></trkpt><trkpt lat="44.1940372" lon="7.5723274"><ele>1035.0</ele><time>2026-05-01T10:56:16.274Z</time></trkpt><trkpt lat="44.1939092" lon="7.5722039"><ele>1035.0</ele><time>2026-05-01T10:56:17.275Z</time></trkpt><trkpt lat="44.1937801" lon="7.5720797"><ele>1035.0</ele><time>2026-05-01T10:56:18.274Z</time></trkpt><trkpt lat="44.193659" lon="7.5719685"><ele>1035.0</ele><time>2026-05-01T10:56:19.274Z</time></trkpt><trkpt lat="44.193547" lon="7.5718503"><ele>1035.0</ele><time>2026-05-01T10:56:20.274Z</time></trkpt><trkpt lat="44.193433" lon="7.5717311"><ele>1035.75</ele><time>2026-05-01T10:56:21.274Z</time></trkpt><trkpt lat="44.1933277" lon="7.5716142"><ele>1036.5</ele><time>2026-05-01T10:56:22.274Z</time></trkpt><trkpt lat="44.1932066" lon="7.5714986"><ele>1037.25</ele><time>2026-05-01T10:56:23.274Z</time></trkpt><trkpt lat="44.1930862" lon="7.5713819"><ele>1038.0</ele><time>2026-05-01T10:56:24.274Z</time></trkpt><trkpt lat="44.1929744" lon="7.5712651"><ele>1038.5</ele><time>2026-05-01T10:56:25.274Z</time></trkpt><trkpt lat="44.1928626" lon="7.5711531"><ele>1039.0</ele><time>2026-05-01T10:56:26.274Z</time></trkpt><trkpt lat="44.1927564" lon="7.5710364"><ele>1039.5</ele><time>2026-05-01T10:56:27.275Z</time></trkpt><trkpt lat="44.1926496" lon="7.5709243"><ele>1040.0</ele><time>2026-05-01T10:56:28.274Z</time></trkpt><trkpt lat="44.1925407" lon="7.5708098"><ele>1040.0</ele><time>2026-05-01T10:56:29.274Z</time></trkpt><trkpt lat="44.1924339" lon="7.570707"><ele>1040.0</ele><time>2026-05-01T10:56:30.274Z</time></trkpt><trkpt lat="44.1923441" lon="7.5706153"><ele>1040.0</ele><time>2026-05-01T10:56:31.274Z</time></trkpt><trkpt lat="44.1922472" lon="7.5705185"><ele>1040.0</ele><time>2026-05-01T10:56:32.274Z</time></trkpt><trkpt lat="44.1921488" lon="7.5704127"><ele>1041.75</ele><time>2026-05-01T10:56:33.274Z</time></trkpt><trkpt lat="44.1920473" lon="7.5703009"><ele>1043.5</ele><time>2026-05-01T10:56:34.274Z</time></trkpt><trkpt lat="44.1919394" lon="7.5701948"><ele>1045.25</ele><time>2026-05-01T10:56:35.274Z</time></trkpt><trkpt lat="44.1918323" lon="7.5700894"><ele>1047.0</ele><time>2026-05-01T10:56:36.274Z</time></trkpt><trkpt lat="44.1917334" lon="7.5699772"><ele>1047.0</ele><time>2026-05-01T10:56:37.274Z</time></trkpt><trkpt lat="44.1916348" lon="7.5698712"><ele>1047.0</ele><time>2026-05-01T10:56:38.274Z</time></trkpt><trkpt lat="44.1915442" lon="7.569753"><ele>1047.0</ele><time>2026-05-01T10:56:39.275Z</time></trkpt><trkpt lat="44.1914609" lon="7.5696309"><ele>1047.0</ele><time>2026-05-01T10:56:40.275Z</time></trkpt><trkpt lat="44.1913746" lon="7.5695188"><ele>1048.25</ele><time>2026-05-01T10:56:41.274Z</time></trkpt><trkpt lat="44.1912817" lon="7.5693926"><ele>1049.5</ele><time>2026-05-01T10:56:42.274Z</time></trkpt><trkpt lat="44.1911822" lon="7.5692729"><ele>1050.75</ele><time>2026-05-01T10:56:43.274Z</time></trkpt><trkpt lat="44.1910805" lon="7.5691726"><ele>1052.0</ele><time>2026-05-01T10:56:44.274Z</time></trkpt><trkpt lat="44.1909776" lon="7.5690815"><ele>1052.0</ele><time>2026-05-01T10:56:45.274Z</time></trkpt><trkpt lat="44.1908778" lon="7.5689957"><ele>1052.0</ele><time>2026-05-01T10:56:46.274Z</time></trkpt><trkpt lat="44.1907836" lon="7.5689202"><ele>1052.0</ele><time>2026-05-01T10:56:47.274Z</time></trkpt><trkpt lat="44.1906798" lon="7.5688475"><ele>1052.0</ele><time>2026-05-01T10:56:48.274Z</time></trkpt><trkpt lat="44.1905759" lon="7.5687768"><ele>1053.75</ele><time>2026-05-01T10:56:49.274Z</time></trkpt><trkpt lat="44.1904764" lon="7.5687073"><ele>1055.5</ele><time>2026-05-01T10:56:50.274Z</time></trkpt><trkpt lat="44.1903754" lon="7.5686268"><ele>1057.25</ele><time>2026-05-01T10:56:51.274Z</time></trkpt><trkpt lat="44.1902672" lon="7.5685408"><ele>1059.0</ele><time>2026-05-01T10:56:52.274Z</time></trkpt><trkpt lat="44.1901555" lon="7.5684558"><ele>1059.25</ele><time>2026-05-01T10:56:53.274Z</time></trkpt><trkpt lat="44.1900467" lon="7.5683722"><ele>1059.5</ele><time>2026-05-01T10:56:54.274Z</time></trkpt><trkpt lat="44.189937" lon="7.5682898"><ele>1059.75</ele><time>2026-05-01T10:56:55.275Z</time></trkpt><trkpt lat="44.189827" lon="7.568206"><ele>1060.0</ele><time>2026-05-01T10:56:56.274Z</time></trkpt><trkpt lat="44.1897281" lon="7.5681028"><ele>1060.75</ele><time>2026-05-01T10:56:57.274Z</time></trkpt><trkpt lat="44.1896357" lon="7.5679811"><ele>1061.5</ele><time>2026-05-01T10:56:58.274Z</time></trkpt><trkpt lat="44.1895552" lon="7.5678475"><ele>1062.25</ele><time>2026-05-01T10:56:59.274Z</time></trkpt><trkpt lat="44.1895006" lon="7.5676938"><ele>1063.0</ele><time>2026-05-01T10:57:00.274Z</time></trkpt><trkpt lat="44.1894506" lon="7.5675331"><ele>1063.0</ele><time>2026-05-01T10:57:01.274Z</time></trkpt><trkpt lat="44.1893926" lon="7.5673663"><ele>1063.0</ele><time>2026-05-01T10:57:02.274Z</time></trkpt><trkpt lat="44.1893428" lon="7.5671975"><ele>1063.0</ele><time>2026-05-01T10:57:03.274Z</time></trkpt><trkpt lat="44.189294" lon="7.5670197"><ele>1063.0</ele><time>2026-05-01T10:57:04.274Z</time></trkpt><trkpt lat="44.1892383" lon="7.5668381"><ele>1062.75</ele><time>2026-05-01T10:57:05.274Z</time></trkpt><trkpt lat="44.1891659" lon="7.5666606"><ele>1062.5</ele><time>2026-05-01T10:57:06.274Z</time></trkpt><trkpt lat="44.1890869" lon="7.5665005"><ele>1062.25</ele><time>2026-05-01T10:57:07.274Z</time></trkpt><trkpt lat="44.1890006" lon="7.5663552"><ele>1062.0</ele><time>2026-05-01T10:57:08.274Z</time></trkpt><trkpt lat="44.188907" lon="7.5662258"><ele>1063.75</ele><time>2026-05-01T10:57:09.274Z</time></trkpt><trkpt lat="44.1888095" lon="7.5661098"><ele>1065.5</ele><time>2026-05-01T10:57:10.275Z</time></trkpt><trkpt lat="44.1887189" lon="7.5659995"><ele>1067.25</ele><time>2026-05-01T10:57:11.274Z</time></trkpt><trkpt lat="44.1886415" lon="7.5658912"><ele>1069.0</ele><time>2026-05-01T10:57:12.274Z</time></trkpt><trkpt lat="44.188566" lon="7.5657936"><ele>1069.0</ele><time>2026-05-01T10:57:13.274Z</time></trkpt><trkpt lat="44.1884932" lon="7.5656964"><ele>1069.0</ele><time>2026-05-01T10:57:14.274Z</time></trkpt><trkpt lat="44.1884287" lon="7.5656047"><ele>1069.0</ele><time>2026-05-01T10:57:15.275Z</time></trkpt><trkpt lat="44.1883704" lon="7.5655256"><ele>1069.0</ele><time>2026-05-01T10:57:16.275Z</time></trkpt><trkpt lat="44.1883067" lon="7.5654498"><ele>1069.0</ele><time>2026-05-01T10:57:17.274Z</time></trkpt><trkpt lat="44.1882448" lon="7.5653686"><ele>1069.0</ele><time>2026-05-01T10:57:18.274Z</time></trkpt><trkpt lat="44.1881799" lon="7.5652763"><ele>1070.6000000000001</ele><time>2026-05-01T10:57:19.274Z</time></trkpt><trkpt lat="44.1881161" lon="7.5651795"><ele>1072.2</ele><time>2026-05-01T10:57:20.274Z</time></trkpt><trkpt lat="44.1880408" lon="7.5650749"><ele>1073.8000000000002</ele><time>2026-05-01T10:57:21.274Z</time></trkpt><trkpt lat="44.1879577" lon="7.5649575"><ele>1075.4</ele><time>2026-05-01T10:57:22.275Z</time></trkpt><trkpt lat="44.1878724" lon="7.5648322"><ele>1077.0</ele><time>2026-05-01T10:57:23.274Z</time></trkpt><trkpt lat="44.1877852" lon="7.5647033"><ele>1077.0</ele><time>2026-05-01T10:57:24.274Z</time></trkpt><trkpt lat="44.1877026" lon="7.5645832"><ele>1077.0</ele><time>2026-05-01T10:57:25.274Z</time></trkpt><trkpt lat="44.1876256" lon="7.5644663"><ele>1077.0</ele><time>2026-05-01T10:57:26.274Z</time></trkpt><trkpt lat="44.1875432" lon="7.5643452"><ele>1077.0</ele><time>2026-05-01T10:57:27.274Z</time></trkpt><trkpt lat="44.1874646" lon="7.5642158"><ele>1078.25</ele><time>2026-05-01T10:57:28.274Z</time></trkpt><trkpt lat="44.187385" lon="7.5640932"><ele>1079.5</ele><time>2026-05-01T10:57:29.274Z</time></trkpt><trkpt lat="44.1873039" lon="7.5639704"><ele>1080.75</ele><time>2026-05-01T10:57:30.274Z</time></trkpt><trkpt lat="44.1872265" lon="7.5638393"><ele>1082.0</ele><time>2026-05-01T10:57:31.274Z</time></trkpt><trkpt lat="44.1871485" lon="7.5637088"><ele>1084.5</ele><time>2026-05-01T10:57:32.274Z</time></trkpt><trkpt lat="44.1870751" lon="7.5635735"><ele>1087.0</ele><time>2026-05-01T10:57:33.275Z</time></trkpt><trkpt lat="44.187008" lon="7.563431"><ele>1089.5</ele><time>2026-05-01T10:57:34.274Z</time></trkpt><trkpt lat="44.186943" lon="7.5632997"><ele>1092.0</ele><time>2026-05-01T10:57:35.274Z</time></trkpt><trkpt lat="44.1868776" lon="7.5631716"><ele>1092.0</ele><time>2026-05-01T10:57:36.274Z</time></trkpt><trkpt lat="44.1868231" lon="7.5630393"><ele>1092.0</ele><time>2026-05-01T10:57:37.274Z</time></trkpt><trkpt lat="44.1867803" lon="7.5628978"><ele>1092.0</ele><time>2026-05-01T10:57:38.274Z</time></trkpt><trkpt lat="44.1867398" lon="7.5627523"><ele>1092.0</ele><time>2026-05-01T10:57:39.274Z</time></trkpt><trkpt lat="44.1866963" lon="7.5626048"><ele>1092.0</ele><time>2026-05-01T10:57:40.274Z</time></trkpt><trkpt lat="44.186636" lon="7.562476"><ele>1092.4</ele><time>2026-05-01T10:57:41.274Z</time></trkpt><trkpt lat="44.1865573" lon="7.5624001"><ele>1092.8000000000002</ele><time>2026-05-01T10:57:42.274Z</time></trkpt><trkpt lat="44.1864529" lon="7.5623609"><ele>1093.2</ele><time>2026-05-01T10:57:43.274Z</time></trkpt><trkpt lat="44.1863401" lon="7.5623362"><ele>1093.6000000000001</ele><time>2026-05-01T10:57:44.275Z</time></trkpt><trkpt lat="44.1862202" lon="7.5623174"><ele>1094.0</ele><time>2026-05-01T10:57:45.274Z</time></trkpt><trkpt lat="44.1861008" lon="7.5622918"><ele>1095.2</ele><time>2026-05-01T10:57:46.274Z</time></trkpt><trkpt lat="44.1859865" lon="7.562276"><ele>1096.4</ele><time>2026-05-01T10:57:47.274Z</time></trkpt><trkpt lat="44.1858812" lon="7.5622724"><ele>1097.6</ele><time>2026-05-01T10:57:48.274Z</time></trkpt><trkpt lat="44.1857721" lon="7.5622828"><ele>1098.8</ele><time>2026-05-01T10:57:49.274Z</time></trkpt><trkpt lat="44.1856688" lon="7.5623141"><ele>1100.0</ele><time>2026-05-01T10:57:50.275Z</time></trkpt><trkpt lat="44.1855676" lon="7.562355"><ele>1102.4</ele><time>2026-05-01T10:57:51.274Z</time></trkpt><trkpt lat="44.1854814" lon="7.5624186"><ele>1104.8</ele><time>2026-05-01T10:57:52.274Z</time></trkpt><trkpt lat="44.1853939" lon="7.5624896"><ele>1107.2</ele><time>2026-05-01T10:57:53.274Z</time></trkpt><trkpt lat="44.1853084" lon="7.5625606"><ele>1109.6</ele><time>2026-05-01T10:57:54.274Z</time></trkpt><trkpt lat="44.1852237" lon="7.5626359"><ele>1112.0</ele><time>2026-05-01T10:57:55.274Z</time></trkpt><trkpt lat="44.1851733" lon="7.5627395"><ele>1112.0</ele><time>2026-05-01T10:57:56.275Z</time></trkpt><trkpt lat="44.1851502" lon="7.5628562"><ele>1112.0</ele><time>2026-05-01T10:57:57.274Z</time></trkpt><trkpt lat="44.1851661" lon="7.5629819"><ele>1112.0</ele><time>2026-05-01T10:57:58.274Z</time></trkpt><trkpt lat="44.1852155" lon="7.5630897"><ele>1112.0</ele><time>2026-05-01T10:57:59.274Z</time></trkpt><trkpt lat="44.1852863" lon="7.563158"><ele>1112.0</ele><time>2026-05-01T10:58:00.274Z</time></trkpt><trkpt lat="44.1853687" lon="7.5632024"><ele>1112.0</ele><time>2026-05-01T10:58:01.274Z</time></trkpt><trkpt lat="44.1854642" lon="7.5632267"><ele>1111.1666666666667</ele><time>2026-05-01T10:58:02.274Z</time></trkpt><trkpt lat="44.1855564" lon="7.5632402"><ele>1110.3333333333335</ele><time>2026-05-01T10:58:03.274Z</time></trkpt><trkpt lat="44.1856516" lon="7.5632409"><ele>1109.5</ele><time>2026-05-01T10:58:04.275Z</time></trkpt><trkpt lat="44.1857404" lon="7.5632372"><ele>1108.6666666666667</ele><time>2026-05-01T10:58:05.274Z</time></trkpt><trkpt lat="44.1858167" lon="7.5632474"><ele>1107.8333333333333</ele><time>2026-05-01T10:58:06.274Z</time></trkpt><trkpt lat="44.1858855" lon="7.5632833"><ele>1107.0</ele><time>2026-05-01T10:58:07.274Z</time></trkpt><trkpt lat="44.1859398" lon="7.5633447"><ele>1107.0</ele><time>2026-05-01T10:58:08.274Z</time></trkpt><trkpt lat="44.1859395" lon="7.5635154"><ele>1107.0</ele><time>2026-05-01T10:58:10.274Z</time></trkpt><trkpt lat="44.1858857" lon="7.563583"><ele>1107.0</ele><time>2026-05-01T10:58:11.274Z</time></trkpt><trkpt lat="44.1858112" lon="7.5636091"><ele>1107.0</ele><time>2026-05-01T10:58:12.274Z</time></trkpt><trkpt lat="44.1857252" lon="7.563598"><ele>1107.0</ele><time>2026-05-01T10:58:13.274Z</time></trkpt><trkpt lat="44.1856234" lon="7.5635528"><ele>1110.5</ele><time>2026-05-01T10:58:14.274Z</time></trkpt><trkpt lat="44.1855144" lon="7.5634968"><ele>1114.0</ele><time>2026-05-01T10:58:15.274Z</time></trkpt><trkpt lat="44.1854059" lon="7.5634448"><ele>1117.5</ele><time>2026-05-01T10:58:16.274Z</time></trkpt><trkpt lat="44.1852968" lon="7.5634036"><ele>1121.0</ele><time>2026-05-01T10:58:17.274Z</time></trkpt><trkpt lat="44.1851923" lon="7.5633721"><ele>1121.0</ele><time>2026-05-01T10:58:18.274Z</time></trkpt><trkpt lat="44.1850872" lon="7.563332"><ele>1121.0</ele><time>2026-05-01T10:58:19.274Z</time></trkpt><trkpt lat="44.1849817" lon="7.5632858"><ele>1121.0</ele><time>2026-05-01T10:58:20.275Z</time></trkpt><trkpt lat="44.1848689" lon="7.5632407"><ele>1121.0</ele><time>2026-05-01T10:58:21.274Z</time></trkpt><trkpt lat="44.1847519" lon="7.5631921"><ele>1125.5</ele><time>2026-05-01T10:58:22.274Z</time></trkpt><trkpt lat="44.1846363" lon="7.5631309"><ele>1130.0</ele><time>2026-05-01T10:58:23.274Z</time></trkpt><trkpt lat="44.1845231" lon="7.5630638"><ele>1134.5</ele><time>2026-05-01T10:58:24.274Z</time></trkpt><trkpt lat="44.18441" lon="7.5629893"><ele>1139.0</ele><time>2026-05-01T10:58:25.274Z</time></trkpt><trkpt lat="44.1842936" lon="7.562908"><ele>1140.25</ele><time>2026-05-01T10:58:26.274Z</time></trkpt><trkpt lat="44.1841796" lon="7.5628289"><ele>1141.5</ele><time>2026-05-01T10:58:27.274Z</time></trkpt><trkpt lat="44.1840711" lon="7.5627462"><ele>1142.75</ele><time>2026-05-01T10:58:28.274Z</time></trkpt><trkpt lat="44.1839632" lon="7.5626481"><ele>1144.0</ele><time>2026-05-01T10:58:29.274Z</time></trkpt><trkpt lat="44.1838773" lon="7.5625199"><ele>1144.0</ele><time>2026-05-01T10:58:30.274Z</time></trkpt><trkpt lat="44.1838087" lon="7.562371"><ele>1144.0</ele><time>2026-05-01T10:58:31.274Z</time></trkpt><trkpt lat="44.1837692" lon="7.5622157"><ele>1144.0</ele><time>2026-05-01T10:58:32.274Z</time></trkpt><trkpt lat="44.1837402" lon="7.5620541"><ele>1144.0</ele><time>2026-05-01T10:58:33.274Z</time></trkpt><trkpt lat="44.1837137" lon="7.5618974"><ele>1143.25</ele><time>2026-05-01T10:58:34.274Z</time></trkpt><trkpt lat="44.1836911" lon="7.561736"><ele>1142.5</ele><time>2026-05-01T10:58:35.275Z</time></trkpt><trkpt lat="44.183686" lon="7.5615774"><ele>1141.75</ele><time>2026-05-01T10:58:36.274Z</time></trkpt><trkpt lat="44.183702" lon="7.5614234"><ele>1141.0</ele><time>2026-05-01T10:58:37.274Z</time></trkpt><trkpt lat="44.1837328" lon="7.5612715"><ele>1141.0</ele><time>2026-05-01T10:58:38.275Z</time></trkpt><trkpt lat="44.1837653" lon="7.5611271"><ele>1141.0</ele><time>2026-05-01T10:58:39.274Z</time></trkpt><trkpt lat="44.1837943" lon="7.560979"><ele>1141.0</ele><time>2026-05-01T10:58:40.274Z</time></trkpt><trkpt lat="44.1838167" lon="7.5608329"><ele>1141.0</ele><time>2026-05-01T10:58:41.274Z</time></trkpt><trkpt lat="44.1838195" lon="7.5606959"><ele>1141.0</ele><time>2026-05-01T10:58:42.275Z</time></trkpt><trkpt lat="44.1838092" lon="7.5605686"><ele>1141.0</ele><time>2026-05-01T10:58:43.274Z</time></trkpt><trkpt lat="44.1837801" lon="7.5604518"><ele>1141.0</ele><time>2026-05-01T10:58:44.274Z</time></trkpt><trkpt lat="44.1837239" lon="7.560368"><ele>1141.0</ele><time>2026-05-01T10:58:45.274Z</time></trkpt><trkpt lat="44.1836501" lon="7.5603191"><ele>1141.0</ele><time>2026-05-01T10:58:46.274Z</time></trkpt><trkpt lat="44.1835618" lon="7.5603178"><ele>1141.0</ele><time>2026-05-01T10:58:47.274Z</time></trkpt><trkpt lat="44.1834753" lon="7.5603708"><ele>1141.0</ele><time>2026-05-01T10:58:48.274Z</time></trkpt><trkpt lat="44.183394" lon="7.5604746"><ele>1141.0</ele><time>2026-05-01T10:58:49.275Z</time></trkpt><trkpt lat="44.1833456" lon="7.5606225"><ele>1141.0</ele><time>2026-05-01T10:58:50.274Z</time></trkpt><trkpt lat="44.1833287" lon="7.5608136"><ele>1141.0</ele><time>2026-05-01T10:58:51.274Z</time></trkpt><trkpt lat="44.1833458" lon="7.5610547"><ele>1141.0</ele><time>2026-05-01T10:58:52.274Z</time></trkpt><trkpt lat="44.1833952" lon="7.5613317"><ele>1141.0</ele><time>2026-05-01T10:58:53.274Z</time></trkpt><trkpt lat="44.1834401" lon="7.5615869"><ele>1141.0</ele><time>2026-05-01T10:58:54.274Z</time></trkpt><trkpt lat="44.1834725" lon="7.561805"><ele>1141.0</ele><time>2026-05-01T10:58:55.274Z</time></trkpt><trkpt lat="44.1834833" lon="7.561984"><ele>1141.6</ele><time>2026-05-01T10:58:56.274Z</time></trkpt><trkpt lat="44.1834685" lon="7.5621286"><ele>1142.1999999999998</ele><time>2026-05-01T10:58:57.274Z</time></trkpt><trkpt lat="44.1834196" lon="7.562232"><ele>1142.8000000000002</ele><time>2026-05-01T10:58:58.274Z</time></trkpt><trkpt lat="44.183342" lon="7.5622881"><ele>1143.4</ele><time>2026-05-01T10:58:59.274Z</time></trkpt><trkpt lat="44.1832516" lon="7.5623016"><ele>1144.0</ele><time>2026-05-01T10:59:00.274Z</time></trkpt><trkpt lat="44.1831526" lon="7.562255"><ele>1148.5</ele><time>2026-05-01T10:59:01.274Z</time></trkpt><trkpt lat="44.183064" lon="7.5621615"><ele>1153.0</ele><time>2026-05-01T10:59:02.274Z</time></trkpt><trkpt lat="44.1830157" lon="7.5620246"><ele>1157.5</ele><time>2026-05-01T10:59:03.274Z</time></trkpt><trkpt lat="44.1830378" lon="7.5618408"><ele>1162.0</ele><time>2026-05-01T10:59:04.275Z</time></trkpt><trkpt lat="44.1830832" lon="7.5616466"><ele>1162.0</ele><time>2026-05-01T10:59:05.274Z</time></trkpt><trkpt lat="44.1831325" lon="7.5614615"><ele>1162.0</ele><time>2026-05-01T10:59:06.274Z</time></trkpt><trkpt lat="44.1831688" lon="7.5612948"><ele>1162.0</ele><time>2026-05-01T10:59:07.274Z</time></trkpt><trkpt lat="44.1831778" lon="7.5611605"><ele>1162.0</ele><time>2026-05-01T10:59:08.274Z</time></trkpt><trkpt lat="44.1831564" lon="7.56104"><ele>1161.5</ele><time>2026-05-01T10:59:09.274Z</time></trkpt><trkpt lat="44.1831057" lon="7.5609416"><ele>1161.0</ele><time>2026-05-01T10:59:10.274Z</time></trkpt><trkpt lat="44.1830312" lon="7.5608755"><ele>1160.5</ele><time>2026-05-01T10:59:11.274Z</time></trkpt><trkpt lat="44.1829474" lon="7.5608585"><ele>1160.0</ele><time>2026-05-01T10:59:12.274Z</time></trkpt><trkpt lat="44.182858" lon="7.5608805"><ele>1159.5</ele><time>2026-05-01T10:59:13.274Z</time></trkpt><trkpt lat="44.1827778" lon="7.5609439"><ele>1159.0</ele><time>2026-05-01T10:59:14.274Z</time></trkpt><trkpt lat="44.1827135" lon="7.5610691"><ele>1159.75</ele><time>2026-05-01T10:59:15.274Z</time></trkpt><trkpt lat="44.1826771" lon="7.561236"><ele>1160.5</ele><time>2026-05-01T10:59:16.274Z</time></trkpt><trkpt lat="44.182693" lon="7.5614164"><ele>1161.25</ele><time>2026-05-01T10:59:17.274Z</time></trkpt><trkpt lat="44.1827488" lon="7.5616149"><ele>1162.0</ele><time>2026-05-01T10:59:18.274Z</time></trkpt><trkpt lat="44.1828157" lon="7.5618108"><ele>1162.0</ele><time>2026-05-01T10:59:19.274Z</time></trkpt><trkpt lat="44.1828639" lon="7.5619864"><ele>1162.0</ele><time>2026-05-01T10:59:20.274Z</time></trkpt><trkpt lat="44.182903" lon="7.5621398"><ele>1162.0</ele><time>2026-05-01T10:59:21.274Z</time></trkpt><trkpt lat="44.1829406" lon="7.5622707"><ele>1162.0</ele><time>2026-05-01T10:59:22.274Z</time></trkpt><trkpt lat="44.1829733" lon="7.5623967"><ele>1162.0</ele><time>2026-05-01T10:59:23.274Z</time></trkpt><trkpt lat="44.1829944" lon="7.5625216"><ele>1162.0</ele><time>2026-05-01T10:59:24.274Z</time></trkpt><trkpt lat="44.182984" lon="7.5626485"><ele>1162.0</ele><time>2026-05-01T10:59:25.274Z</time></trkpt><trkpt lat="44.1829343" lon="7.5627515"><ele>1162.0</ele><time>2026-05-01T10:59:26.274Z</time></trkpt><trkpt lat="44.1828546" lon="7.5628294"><ele>1162.0</ele><time>2026-05-01T10:59:27.274Z</time></trkpt><trkpt lat="44.1827677" lon="7.5628591"><ele>1162.0</ele><time>2026-05-01T10:59:28.274Z</time></trkpt><trkpt lat="44.1826772" lon="7.5628433"><ele>1162.0</ele><time>2026-05-01T10:59:29.275Z</time></trkpt><trkpt lat="44.1825887" lon="7.5627734"><ele>1162.0</ele><time>2026-05-01T10:59:30.274Z</time></trkpt><trkpt lat="44.1825221" lon="7.5626534"><ele>1162.0</ele><time>2026-05-01T10:59:31.274Z</time></trkpt><trkpt lat="44.1824893" lon="7.5624791"><ele>1162.0</ele><time>2026-05-01T10:59:32.274Z</time></trkpt><trkpt lat="44.1824892" lon="7.5622474"><ele>1162.0</ele><time>2026-05-01T10:59:33.274Z</time></trkpt><trkpt lat="44.1824864" lon="7.5619901"><ele>1162.0</ele><time>2026-05-01T10:59:34.274Z</time></trkpt><trkpt lat="44.1824615" lon="7.5617111"><ele>1162.0</ele><time>2026-05-01T10:59:35.274Z</time></trkpt><trkpt lat="44.1824134" lon="7.5614171"><ele>1161.0</ele><time>2026-05-01T10:59:36.274Z</time></trkpt><trkpt lat="44.1823502" lon="7.5611374"><ele>1160.0</ele><time>2026-05-01T10:59:37.274Z</time></trkpt><trkpt lat="44.18228" lon="7.5608846"><ele>1159.0</ele><time>2026-05-01T10:59:38.274Z</time></trkpt><trkpt lat="44.1822187" lon="7.5606525"><ele>1164.75</ele><time>2026-05-01T10:59:39.275Z</time></trkpt><trkpt lat="44.1821717" lon="7.5604354"><ele>1170.5</ele><time>2026-05-01T10:59:40.274Z</time></trkpt><trkpt lat="44.1821622" lon="7.5602415"><ele>1176.25</ele><time>2026-05-01T10:59:41.274Z</time></trkpt><trkpt lat="44.1821708" lon="7.5600824"><ele>1182.0</ele><time>2026-05-01T10:59:42.274Z</time></trkpt><trkpt lat="44.1821788" lon="7.5599467"><ele>1182.0</ele><time>2026-05-01T10:59:43.274Z</time></trkpt><trkpt lat="44.1821591" lon="7.5598401"><ele>1182.0</ele><time>2026-05-01T10:59:44.274Z</time></trkpt><trkpt lat="44.1821233" lon="7.5597611"><ele>1182.0</ele><time>2026-05-01T10:59:45.274Z</time></trkpt><trkpt lat="44.1820627" lon="7.559723"><ele>1182.0</ele><time>2026-05-01T10:59:46.274Z</time></trkpt><trkpt lat="44.1819607" lon="7.5598483"><ele>1182.0</ele><time>2026-05-01T10:59:48.275Z</time></trkpt><trkpt lat="44.1819326" lon="7.5600127"><ele>1182.0</ele><time>2026-05-01T10:59:49.274Z</time></trkpt><trkpt lat="44.1819184" lon="7.5602229"><ele>1182.0</ele><time>2026-05-01T10:59:50.275Z</time></trkpt><trkpt lat="44.181913" lon="7.5604533"><ele>1182.0</ele><time>2026-05-01T10:59:51.274Z</time></trkpt><trkpt lat="44.1819011" lon="7.5606688"><ele>1183.3333333333333</ele><time>2026-05-01T10:59:52.274Z</time></trkpt><trkpt lat="44.1818853" lon="7.560877"><ele>1184.6666666666665</ele><time>2026-05-01T10:59:53.274Z</time></trkpt><trkpt lat="44.1818811" lon="7.5610922"><ele>1186.0</ele><time>2026-05-01T10:59:54.274Z</time></trkpt><trkpt lat="44.1818854" lon="7.5613158"><ele>1188.0</ele><time>2026-05-01T10:59:55.275Z</time></trkpt><trkpt lat="44.1818948" lon="7.5615437"><ele>1190.0</ele><time>2026-05-01T10:59:56.274Z</time></trkpt><trkpt lat="44.1819014" lon="7.5617787"><ele>1192.0</ele><time>2026-05-01T10:59:57.274Z</time></trkpt><trkpt lat="44.1819136" lon="7.5620135"><ele>1193.75</ele><time>2026-05-01T10:59:58.274Z</time></trkpt><trkpt lat="44.1819264" lon="7.5622307"><ele>1195.5</ele><time>2026-05-01T10:59:59.274Z</time></trkpt><trkpt lat="44.1819268" lon="7.5624303"><ele>1197.25</ele><time>2026-05-01T11:00:00.274Z</time></trkpt><trkpt lat="44.1819445" lon="7.5626275"><ele>1199.0</ele><time>2026-05-01T11:00:01.274Z</time></trkpt><trkpt lat="44.181958" lon="7.5628207"><ele>1199.0</ele><time>2026-05-01T11:00:02.274Z</time></trkpt><trkpt lat="44.1819623" lon="7.5630165"><ele>1199.0</ele><time>2026-05-01T11:00:03.274Z</time></trkpt><trkpt lat="44.1819534" lon="7.563214"><ele>1199.0</ele><time>2026-05-01T11:00:04.274Z</time></trkpt><trkpt lat="44.1819409" lon="7.5633981"><ele>1199.0</ele><time>2026-05-01T11:00:05.274Z</time></trkpt><trkpt lat="44.1819091" lon="7.5635849"><ele>1197.0</ele><time>2026-05-01T11:00:06.274Z</time></trkpt><trkpt lat="44.1818604" lon="7.5637651"><ele>1195.0</ele><time>2026-05-01T11:00:07.274Z</time></trkpt><trkpt lat="44.1817745" lon="7.5639135"><ele>1193.0</ele><time>2026-05-01T11:00:08.274Z</time></trkpt><trkpt lat="44.1816759" lon="7.5640601"><ele>1191.0</ele><time>2026-05-01T11:00:09.274Z</time></trkpt><trkpt lat="44.1815643" lon="7.5642088"><ele>1194.0</ele><time>2026-05-01T11:00:10.274Z</time></trkpt><trkpt lat="44.1814459" lon="7.5643643"><ele>1197.0</ele><time>2026-05-01T11:00:11.274Z</time></trkpt><trkpt lat="44.1813168" lon="7.564512"><ele>1200.0</ele><time>2026-05-01T11:00:12.274Z</time></trkpt><trkpt lat="44.181177" lon="7.5646462"><ele>1200.0</ele><time>2026-05-01T11:00:13.274Z</time></trkpt><trkpt lat="44.1810477" lon="7.5647691"><ele>1200.0</ele><time>2026-05-01T11:00:14.274Z</time></trkpt><trkpt lat="44.1809323" lon="7.5649001"><ele>1200.0</ele><time>2026-05-01T11:00:15.274Z</time></trkpt><trkpt lat="44.180832" lon="7.5650618"><ele>1200.0</ele><time>2026-05-01T11:00:16.274Z</time></trkpt><trkpt lat="44.1807474" lon="7.5652371"><ele>1200.0</ele><time>2026-05-01T11:00:17.274Z</time></trkpt><trkpt lat="44.1806629" lon="7.5653954"><ele>1200.0</ele><time>2026-05-01T11:00:18.274Z</time></trkpt><trkpt lat="44.180562" lon="7.5655416"><ele>1200.0</ele><time>2026-05-01T11:00:19.274Z</time></trkpt><trkpt lat="44.1804506" lon="7.5656836"><ele>1201.5</ele><time>2026-05-01T11:00:20.274Z</time></trkpt><trkpt lat="44.1803353" lon="7.5658333"><ele>1203.0</ele><time>2026-05-01T11:00:21.274Z</time></trkpt><trkpt lat="44.1802357" lon="7.5659791"><ele>1204.5</ele><time>2026-05-01T11:00:22.274Z</time></trkpt><trkpt lat="44.180135" lon="7.5661017"><ele>1206.0</ele><time>2026-05-01T11:00:23.274Z</time></trkpt><trkpt lat="44.180029" lon="7.5662208"><ele>1206.0</ele><time>2026-05-01T11:00:24.274Z</time></trkpt><trkpt lat="44.1799096" lon="7.56633"><ele>1206.0</ele><time>2026-05-01T11:00:25.274Z</time></trkpt><trkpt lat="44.1797881" lon="7.5664394"><ele>1206.0</ele><time>2026-05-01T11:00:26.275Z</time></trkpt><trkpt lat="44.1796639" lon="7.5665569"><ele>1206.0</ele><time>2026-05-01T11:00:27.274Z</time></trkpt><trkpt lat="44.1795468" lon="7.5666511"><ele>1208.2</ele><time>2026-05-01T11:00:28.274Z</time></trkpt><trkpt lat="44.179437" lon="7.5667435"><ele>1210.3999999999999</ele><time>2026-05-01T11:00:29.274Z</time></trkpt><trkpt lat="44.1793388" lon="7.5668256"><ele>1212.6</ele><time>2026-05-01T11:00:30.274Z</time></trkpt><trkpt lat="44.1792459" lon="7.5669044"><ele>1214.8</ele><time>2026-05-01T11:00:31.274Z</time></trkpt><trkpt lat="44.1791621" lon="7.5669632"><ele>1217.0</ele><time>2026-05-01T11:00:32.274Z</time></trkpt><trkpt lat="44.179087" lon="7.5669907"><ele>1217.0</ele><time>2026-05-01T11:00:33.274Z</time></trkpt><trkpt lat="44.1790094" lon="7.5669329"><ele>1217.0</ele><time>2026-05-01T11:00:35.274Z</time></trkpt><trkpt lat="44.1790327" lon="7.5668508"><ele>1217.0</ele><time>2026-05-01T11:00:36.274Z</time></trkpt><trkpt lat="44.1790941" lon="7.566713"><ele>1217.0</ele><time>2026-05-01T11:00:37.274Z</time></trkpt><trkpt lat="44.1791664" lon="7.5665842"><ele>1217.0</ele><time>2026-05-01T11:00:38.274Z</time></trkpt><trkpt lat="44.1792332" lon="7.5664416"><ele>1217.0</ele><time>2026-05-01T11:00:39.274Z</time></trkpt><trkpt lat="44.1792991" lon="7.566289"><ele>1217.0</ele><time>2026-05-01T11:00:40.275Z</time></trkpt><trkpt lat="44.1793669" lon="7.5661387"><ele>1217.0</ele><time>2026-05-01T11:00:41.274Z</time></trkpt><trkpt lat="44.179442" lon="7.5659983"><ele>1217.0</ele><time>2026-05-01T11:00:42.274Z</time></trkpt><trkpt lat="44.1795236" lon="7.565858"><ele>1221.5</ele><time>2026-05-01T11:00:43.274Z</time></trkpt><trkpt lat="44.1795983" lon="7.5657199"><ele>1226.0</ele><time>2026-05-01T11:00:44.274Z</time></trkpt><trkpt lat="44.1796674" lon="7.5655658"><ele>1230.5</ele><time>2026-05-01T11:00:45.274Z</time></trkpt><trkpt lat="44.1797203" lon="7.5653906"><ele>1235.0</ele><time>2026-05-01T11:00:46.274Z</time></trkpt><trkpt lat="44.1797632" lon="7.5652128"><ele>1231.25</ele><time>2026-05-01T11:00:47.274Z</time></trkpt><trkpt lat="44.1798088" lon="7.5650449"><ele>1227.5</ele><time>2026-05-01T11:00:48.274Z</time></trkpt><trkpt lat="44.1798493" lon="7.5648769"><ele>1223.75</ele><time>2026-05-01T11:00:49.274Z</time></trkpt><trkpt lat="44.1798911" lon="7.5647128"><ele>1220.0</ele><time>2026-05-01T11:00:50.274Z</time></trkpt><trkpt lat="44.1799298" lon="7.5645487"><ele>1222.25</ele><time>2026-05-01T11:00:51.274Z</time></trkpt><trkpt lat="44.1799695" lon="7.5643801"><ele>1224.5</ele><time>2026-05-01T11:00:52.275Z</time></trkpt><trkpt lat="44.1800003" lon="7.5642129"><ele>1226.75</ele><time>2026-05-01T11:00:53.274Z</time></trkpt><trkpt lat="44.180024" lon="7.5640497"><ele>1229.0</ele><time>2026-05-01T11:00:54.274Z</time></trkpt><trkpt lat="44.1800482" lon="7.5638919"><ele>1229.0</ele><time>2026-05-01T11:00:55.274Z</time></trkpt><trkpt lat="44.1800786" lon="7.5637461"><ele>1229.0</ele><time>2026-05-01T11:00:56.274Z</time></trkpt><trkpt lat="44.18012" lon="7.563621"><ele>1229.0</ele><time>2026-05-01T11:00:57.275Z</time></trkpt><trkpt lat="44.1801789" lon="7.5635078"><ele>1229.0</ele><time>2026-05-01T11:00:58.274Z</time></trkpt><trkpt lat="44.1802484" lon="7.563413"><ele>1229.0</ele><time>2026-05-01T11:00:59.275Z</time></trkpt><trkpt lat="44.180336" lon="7.5633362"><ele>1229.4</ele><time>2026-05-01T11:01:00.274Z</time></trkpt><trkpt lat="44.1804314" lon="7.5632791"><ele>1229.8000000000002</ele><time>2026-05-01T11:01:01.274Z</time></trkpt><trkpt lat="44.1805313" lon="7.563242"><ele>1230.1999999999998</ele><time>2026-05-01T11:01:02.274Z</time></trkpt><trkpt lat="44.1806182" lon="7.563231"><ele>1230.6</ele><time>2026-05-01T11:01:03.274Z</time></trkpt><trkpt lat="44.1806944" lon="7.5632333"><ele>1231.0</ele><time>2026-05-01T11:01:04.274Z</time></trkpt><trkpt lat="44.1807942" lon="7.5632523"><ele>1231.0</ele><time>2026-05-01T11:01:06.274Z</time></trkpt><trkpt lat="44.1808569" lon="7.5631962"><ele>1231.0</ele><time>2026-05-01T11:01:08.274Z</time></trkpt><trkpt lat="44.180843" lon="7.563081"><ele>1231.0</ele><time>2026-05-01T11:01:10.274Z</time></trkpt><trkpt lat="44.1807638" lon="7.5630204"><ele>1231.0</ele><time>2026-05-01T11:01:12.275Z</time></trkpt><trkpt lat="44.1806258" lon="7.5630316"><ele>1231.0</ele><time>2026-05-01T11:01:14.274Z</time></trkpt><trkpt lat="44.1805455" lon="7.5630439"><ele>1233.0</ele><time>2026-05-01T11:01:15.274Z</time></trkpt><trkpt lat="44.1804638" lon="7.5630633"><ele>1235.0</ele><time>2026-05-01T11:01:16.274Z</time></trkpt><trkpt lat="44.1803807" lon="7.5630898"><ele>1237.0</ele><time>2026-05-01T11:01:17.274Z</time></trkpt><trkpt lat="44.1803007" lon="7.5631218"><ele>1239.0</ele><time>2026-05-01T11:01:18.274Z</time></trkpt><trkpt lat="44.1802233" lon="7.56317"><ele>1241.0</ele><time>2026-05-01T11:01:19.275Z</time></trkpt><trkpt lat="44.1801424" lon="7.5632299"><ele>1243.0</ele><time>2026-05-01T11:01:20.274Z</time></trkpt><trkpt lat="44.1800604" lon="7.5633014"><ele>1243.0</ele><time>2026-05-01T11:01:21.274Z</time></trkpt><trkpt lat="44.1799781" lon="7.563379"><ele>1243.0</ele><time>2026-05-01T11:01:22.275Z</time></trkpt><trkpt lat="44.179898" lon="7.5634687"><ele>1243.0</ele><time>2026-05-01T11:01:23.274Z</time></trkpt><trkpt lat="44.1798135" lon="7.5635945"><ele>1243.0</ele><time>2026-05-01T11:01:24.274Z</time></trkpt><trkpt lat="44.1797214" lon="7.5637596"><ele>1251.3333333333333</ele><time>2026-05-01T11:01:25.274Z</time></trkpt><trkpt lat="44.1796244" lon="7.563974"><ele>1259.6666666666667</ele><time>2026-05-01T11:01:26.274Z</time></trkpt><trkpt lat="44.179525" lon="7.5642134"><ele>1268.0</ele><time>2026-05-01T11:01:27.274Z</time></trkpt><trkpt lat="44.1794256" lon="7.5644492"><ele>1263.3333333333335</ele><time>2026-05-01T11:01:28.274Z</time></trkpt><trkpt lat="44.1793353" lon="7.5646682"><ele>1258.6666666666667</ele><time>2026-05-01T11:01:29.274Z</time></trkpt><trkpt lat="44.1792494" lon="7.5648708"><ele>1254.0</ele><time>2026-05-01T11:01:30.274Z</time></trkpt><trkpt lat="44.1791726" lon="7.5650551"><ele>1254.0</ele><time>2026-05-01T11:01:31.274Z</time></trkpt><trkpt lat="44.1791033" lon="7.5652269"><ele>1254.0</ele><time>2026-05-01T11:01:32.274Z</time></trkpt><trkpt lat="44.1790316" lon="7.5653807"><ele>1254.0</ele><time>2026-05-01T11:01:33.274Z</time></trkpt><trkpt lat="44.1789534" lon="7.5655136"><ele>1254.0</ele><time>2026-05-01T11:01:34.274Z</time></trkpt><trkpt lat="44.1788586" lon="7.5656252"><ele>1257.5</ele><time>2026-05-01T11:01:35.274Z</time></trkpt><trkpt lat="44.1787516" lon="7.5657282"><ele>1261.0</ele><time>2026-05-01T11:01:36.274Z</time></trkpt><trkpt lat="44.1786349" lon="7.565812"><ele>1264.5</ele><time>2026-05-01T11:01:37.274Z</time></trkpt><trkpt lat="44.1785148" lon="7.565895"><ele>1268.0</ele><time>2026-05-01T11:01:38.274Z</time></trkpt><trkpt lat="44.1783884" lon="7.5659963"><ele>1268.0</ele><time>2026-05-01T11:01:39.275Z</time></trkpt><trkpt lat="44.1782484" lon="7.5661129"><ele>1268.0</ele><time>2026-05-01T11:01:40.274Z</time></trkpt><trkpt lat="44.1781089" lon="7.566233"><ele>1268.0</ele><time>2026-05-01T11:01:41.274Z</time></trkpt><trkpt lat="44.1779588" lon="7.5663687"><ele>1270.3333333333335</ele><time>2026-05-01T11:01:42.274Z</time></trkpt><trkpt lat="44.1778018" lon="7.5665223"><ele>1272.6666666666667</ele><time>2026-05-01T11:01:43.274Z</time></trkpt><trkpt lat="44.1776484" lon="7.5666839"><ele>1275.0</ele><time>2026-05-01T11:01:44.275Z</time></trkpt><trkpt lat="44.1775029" lon="7.5668472"><ele>1272.0</ele><time>2026-05-01T11:01:45.274Z</time></trkpt><trkpt lat="44.1773426" lon="7.5670045"><ele>1269.0</ele><time>2026-05-01T11:01:46.274Z</time></trkpt><trkpt lat="44.1771636" lon="7.5671516"><ele>1266.0</ele><time>2026-05-01T11:01:47.274Z</time></trkpt><trkpt lat="44.1769996" lon="7.5672797"><ele>1266.0</ele><time>2026-05-01T11:01:48.274Z</time></trkpt><trkpt lat="44.1768521" lon="7.5673715"><ele>1266.0</ele><time>2026-05-01T11:01:49.274Z</time></trkpt><trkpt lat="44.1767074" lon="7.5674405"><ele>1266.0</ele><time>2026-05-01T11:01:50.274Z</time></trkpt><trkpt lat="44.1765609" lon="7.5674515"><ele>1267.3333333333333</ele><time>2026-05-01T11:01:51.274Z</time></trkpt><trkpt lat="44.1764118" lon="7.5673894"><ele>1268.6666666666665</ele><time>2026-05-01T11:01:52.274Z</time></trkpt><trkpt lat="44.176271" lon="7.5672779"><ele>1270.0</ele><time>2026-05-01T11:01:53.274Z</time></trkpt><trkpt lat="44.1761147" lon="7.5671906"><ele>1270.0</ele><time>2026-05-01T11:01:54.274Z</time></trkpt><trkpt lat="44.1759465" lon="7.5671401"><ele>1270.0</ele><time>2026-05-01T11:01:55.274Z</time></trkpt><trkpt lat="44.1757847" lon="7.567162"><ele>1270.0</ele><time>2026-05-01T11:01:56.275Z</time></trkpt><trkpt lat="44.1756312" lon="7.5672296"><ele>1274.8</ele><time>2026-05-01T11:01:57.274Z</time></trkpt><trkpt lat="44.1755056" lon="7.5673225"><ele>1279.6</ele><time>2026-05-01T11:01:58.275Z</time></trkpt><trkpt lat="44.1754106" lon="7.5674145"><ele>1284.4</ele><time>2026-05-01T11:01:59.274Z</time></trkpt><trkpt lat="44.1753366" lon="7.5675098"><ele>1289.2</ele><time>2026-05-01T11:02:00.274Z</time></trkpt><trkpt lat="44.1752835" lon="7.5676108"><ele>1294.0</ele><time>2026-05-01T11:02:01.274Z</time></trkpt><trkpt lat="44.1752595" lon="7.5677183"><ele>1294.0</ele><time>2026-05-01T11:02:02.275Z</time></trkpt><trkpt lat="44.1752341" lon="7.5678269"><ele>1294.0</ele><time>2026-05-01T11:02:03.274Z</time></trkpt><trkpt lat="44.1752086" lon="7.5679361"><ele>1294.0</ele><time>2026-05-01T11:02:04.274Z</time></trkpt><trkpt lat="44.1751823" lon="7.5680537"><ele>1294.0</ele><time>2026-05-01T11:02:05.274Z</time></trkpt><trkpt lat="44.1751679" lon="7.5681747"><ele>1294.0</ele><time>2026-05-01T11:02:06.274Z</time></trkpt><trkpt lat="44.1751534" lon="7.5682935"><ele>1294.0</ele><time>2026-05-01T11:02:07.275Z</time></trkpt><trkpt lat="44.1751372" lon="7.5684091"><ele>1293.1666666666665</ele><time>2026-05-01T11:02:08.274Z</time></trkpt><trkpt lat="44.1751155" lon="7.5685139"><ele>1292.3333333333333</ele><time>2026-05-01T11:02:09.274Z</time></trkpt><trkpt lat="44.1750938" lon="7.5686128"><ele>1291.5</ele><time>2026-05-01T11:02:10.274Z</time></trkpt><trkpt lat="44.1750666" lon="7.5687013"><ele>1290.6666666666667</ele><time>2026-05-01T11:02:11.274Z</time></trkpt><trkpt lat="44.1750314" lon="7.5687938"><ele>1289.8333333333335</ele><time>2026-05-01T11:02:12.275Z</time></trkpt><trkpt lat="44.1749806" lon="7.5688874"><ele>1289.0</ele><time>2026-05-01T11:02:13.274Z</time></trkpt><trkpt lat="44.1749192" lon="7.5689729"><ele>1288.4</ele><time>2026-05-01T11:02:14.274Z</time></trkpt><trkpt lat="44.174843" lon="7.5690471"><ele>1287.8000000000002</ele><time>2026-05-01T11:02:15.275Z</time></trkpt><trkpt lat="44.1747604" lon="7.5690994"><ele>1287.1999999999998</ele><time>2026-05-01T11:02:16.274Z</time></trkpt><trkpt lat="44.1746726" lon="7.5691313"><ele>1286.6</ele><time>2026-05-01T11:02:17.274Z</time></trkpt><trkpt lat="44.1745851" lon="7.5691508"><ele>1286.0</ele><time>2026-05-01T11:02:18.275Z</time></trkpt><trkpt lat="44.1744917" lon="7.5691516"><ele>1286.0</ele><time>2026-05-01T11:02:19.274Z</time></trkpt><trkpt lat="44.1743926" lon="7.5691558"><ele>1286.0</ele><time>2026-05-01T11:02:20.274Z</time></trkpt><trkpt lat="44.1742901" lon="7.5691562"><ele>1286.0</ele><time>2026-05-01T11:02:21.274Z</time></trkpt><trkpt lat="44.1741881" lon="7.5691531"><ele>1286.0</ele><time>2026-05-01T11:02:22.275Z</time></trkpt><trkpt lat="44.1740908" lon="7.5691519"><ele>1286.0</ele><time>2026-05-01T11:02:23.274Z</time></trkpt><trkpt lat="44.1739984" lon="7.5691419"><ele>1285.6</ele><time>2026-05-01T11:02:24.274Z</time></trkpt><trkpt lat="44.1739043" lon="7.5691232"><ele>1285.1999999999998</ele><time>2026-05-01T11:02:25.274Z</time></trkpt><trkpt lat="44.1738091" lon="7.569085"><ele>1284.8000000000002</ele><time>2026-05-01T11:02:26.274Z</time></trkpt><trkpt lat="44.1737109" lon="7.5690179"><ele>1284.4</ele><time>2026-05-01T11:02:27.275Z</time></trkpt><trkpt lat="44.1736047" lon="7.5689375"><ele>1284.0</ele><time>2026-05-01T11:02:28.275Z</time></trkpt><trkpt lat="44.173502" lon="7.5688534"><ele>1284.0</ele><time>2026-05-01T11:02:29.274Z</time></trkpt><trkpt lat="44.1734066" lon="7.5687681"><ele>1284.0</ele><time>2026-05-01T11:02:30.274Z</time></trkpt><trkpt lat="44.1733166" lon="7.5687006"><ele>1284.0</ele><time>2026-05-01T11:02:31.275Z</time></trkpt><trkpt lat="44.173231" lon="7.5686399"><ele>1284.0</ele><time>2026-05-01T11:02:32.275Z</time></trkpt><trkpt lat="44.1731586" lon="7.5685988"><ele>1284.0</ele><time>2026-05-01T11:02:33.274Z</time></trkpt><trkpt lat="44.1730954" lon="7.5685653"><ele>1287.1666666666667</ele><time>2026-05-01T11:02:34.274Z</time></trkpt><trkpt lat="44.1729807" lon="7.5685057"><ele>1290.3333333333333</ele><time>2026-05-01T11:02:36.274Z</time></trkpt><trkpt lat="44.1729156" lon="7.5685013"><ele>1293.5</ele><time>2026-05-01T11:02:37.274Z</time></trkpt><trkpt lat="44.1728415" lon="7.568523"><ele>1296.6666666666665</ele><time>2026-05-01T11:02:38.274Z</time></trkpt><trkpt lat="44.1727666" lon="7.5685627"><ele>1299.8333333333333</ele><time>2026-05-01T11:02:39.275Z</time></trkpt><trkpt lat="44.1726932" lon="7.5686159"><ele>1303.0</ele><time>2026-05-01T11:02:40.274Z</time></trkpt><trkpt lat="44.1726249" lon="7.5687069"><ele>1303.0</ele><time>2026-05-01T11:02:41.274Z</time></trkpt><trkpt lat="44.172565" lon="7.5688403"><ele>1303.0</ele><time>2026-05-01T11:02:42.274Z</time></trkpt><trkpt lat="44.1725349" lon="7.5690237"><ele>1303.0</ele><time>2026-05-01T11:02:43.274Z</time></trkpt><trkpt lat="44.1725071" lon="7.5691923"><ele>1303.0</ele><time>2026-05-01T11:02:44.274Z</time></trkpt><trkpt lat="44.1724671" lon="7.56934"><ele>1303.0</ele><time>2026-05-01T11:02:45.275Z</time></trkpt><trkpt lat="44.1724005" lon="7.5694541"><ele>1303.0</ele><time>2026-05-01T11:02:46.274Z</time></trkpt><trkpt lat="44.1723035" lon="7.5695577"><ele>1303.0</ele><time>2026-05-01T11:02:47.274Z</time></trkpt><trkpt lat="44.1721791" lon="7.5696449"><ele>1303.0</ele><time>2026-05-01T11:02:48.274Z</time></trkpt><trkpt lat="44.1720357" lon="7.5697266"><ele>1305.6666666666665</ele><time>2026-05-01T11:02:49.274Z</time></trkpt><trkpt lat="44.1718864" lon="7.5698025"><ele>1308.3333333333333</ele><time>2026-05-01T11:02:50.274Z</time></trkpt><trkpt lat="44.1717469" lon="7.5698744"><ele>1311.0</ele><time>2026-05-01T11:02:51.274Z</time></trkpt><trkpt lat="44.1716117" lon="7.5699481"><ele>1316.5</ele><time>2026-05-01T11:02:52.275Z</time></trkpt><trkpt lat="44.1714941" lon="7.5700249"><ele>1322.0</ele><time>2026-05-01T11:02:53.274Z</time></trkpt><trkpt lat="44.1713753" lon="7.5701058"><ele>1327.5</ele><time>2026-05-01T11:02:54.274Z</time></trkpt><trkpt lat="44.1712555" lon="7.5701907"><ele>1333.0</ele><time>2026-05-01T11:02:55.274Z</time></trkpt><trkpt lat="44.171135" lon="7.5702755"><ele>1333.0</ele><time>2026-05-01T11:02:56.274Z</time></trkpt><trkpt lat="44.1710114" lon="7.5703514"><ele>1333.0</ele><time>2026-05-01T11:02:57.274Z</time></trkpt><trkpt lat="44.1708847" lon="7.5704015"><ele>1333.0</ele><time>2026-05-01T11:02:58.274Z</time></trkpt><trkpt lat="44.1707702" lon="7.5704416"><ele>1333.0</ele><time>2026-05-01T11:02:59.274Z</time></trkpt><trkpt lat="44.170667" lon="7.5704725"><ele>1328.6000000000001</ele><time>2026-05-01T11:03:00.274Z</time></trkpt><trkpt lat="44.170566" lon="7.5704978"><ele>1324.2</ele><time>2026-05-01T11:03:01.274Z</time></trkpt><trkpt lat="44.1704632" lon="7.5705195"><ele>1319.8</ele><time>2026-05-01T11:03:02.274Z</time></trkpt><trkpt lat="44.1703619" lon="7.5705429"><ele>1315.4</ele><time>2026-05-01T11:03:03.274Z</time></trkpt><trkpt lat="44.1702603" lon="7.570563"><ele>1311.0</ele><time>2026-05-01T11:03:04.274Z</time></trkpt><trkpt lat="44.1701708" lon="7.5705856"><ele>1311.0</ele><time>2026-05-01T11:03:05.274Z</time></trkpt><trkpt lat="44.1700856" lon="7.5705974"><ele>1311.0</ele><time>2026-05-01T11:03:06.274Z</time></trkpt><trkpt lat="44.1700075" lon="7.5706122"><ele>1311.0</ele><time>2026-05-01T11:03:07.274Z</time></trkpt><trkpt lat="44.1699344" lon="7.5706331"><ele>1311.0</ele><time>2026-05-01T11:03:08.275Z</time></trkpt><trkpt lat="44.1698588" lon="7.5706477"><ele>1311.0</ele><time>2026-05-01T11:03:09.274Z</time></trkpt><trkpt lat="44.1697779" lon="7.5706712"><ele>1311.0</ele><time>2026-05-01T11:03:10.274Z</time></trkpt><trkpt lat="44.169699" lon="7.5706974"><ele>1312.8333333333333</ele><time>2026-05-01T11:03:11.274Z</time></trkpt><trkpt lat="44.1696208" lon="7.5707301"><ele>1314.6666666666667</ele><time>2026-05-01T11:03:12.274Z</time></trkpt><trkpt lat="44.169548" lon="7.5707595"><ele>1316.5</ele><time>2026-05-01T11:03:13.274Z</time></trkpt><trkpt lat="44.1694662" lon="7.5707954"><ele>1318.3333333333335</ele><time>2026-05-01T11:03:14.274Z</time></trkpt><trkpt lat="44.1693874" lon="7.5708257"><ele>1320.1666666666667</ele><time>2026-05-01T11:03:15.274Z</time></trkpt><trkpt lat="44.1693146" lon="7.570856"><ele>1322.0</ele><time>2026-05-01T11:03:16.274Z</time></trkpt><trkpt lat="44.16924" lon="7.5708819"><ele>1322.0</ele><time>2026-05-01T11:03:17.274Z</time></trkpt><trkpt lat="44.1691722" lon="7.5709181"><ele>1322.0</ele><time>2026-05-01T11:03:18.274Z</time></trkpt><trkpt lat="44.1690953" lon="7.5709521"><ele>1322.0</ele><time>2026-05-01T11:03:19.275Z</time></trkpt><trkpt lat="44.169014" lon="7.5709826"><ele>1322.0</ele><time>2026-05-01T11:03:20.274Z</time></trkpt><trkpt lat="44.1689289" lon="7.5710116"><ele>1322.0</ele><time>2026-05-01T11:03:21.274Z</time></trkpt><trkpt lat="44.1688343" lon="7.5710369"><ele>1322.0</ele><time>2026-05-01T11:03:22.274Z</time></trkpt><trkpt lat="44.1687371" lon="7.5710537"><ele>1325.25</ele><time>2026-05-01T11:03:23.274Z</time></trkpt><trkpt lat="44.1686326" lon="7.5710669"><ele>1328.5</ele><time>2026-05-01T11:03:24.274Z</time></trkpt><trkpt lat="44.1685229" lon="7.5710781"><ele>1331.75</ele><time>2026-05-01T11:03:25.275Z</time></trkpt><trkpt lat="44.1684078" lon="7.5710879"><ele>1335.0</ele><time>2026-05-01T11:03:26.274Z</time></trkpt><trkpt lat="44.1682865" lon="7.5710859"><ele>1340.0</ele><time>2026-05-01T11:03:27.274Z</time></trkpt><trkpt lat="44.1681625" lon="7.5710917"><ele>1345.0</ele><time>2026-05-01T11:03:28.274Z</time></trkpt><trkpt lat="44.1680389" lon="7.571087"><ele>1350.0</ele><time>2026-05-01T11:03:29.274Z</time></trkpt><trkpt lat="44.167911" lon="7.5710856"><ele>1355.0</ele><time>2026-05-01T11:03:30.274Z</time></trkpt><trkpt lat="44.1677838" lon="7.5710904"><ele>1355.0</ele><time>2026-05-01T11:03:31.275Z</time></trkpt><trkpt lat="44.1676509" lon="7.5711046"><ele>1355.0</ele><time>2026-05-01T11:03:32.274Z</time></trkpt><trkpt lat="44.1675216" lon="7.571117"><ele>1355.0</ele><time>2026-05-01T11:03:33.274Z</time></trkpt><trkpt lat="44.1673855" lon="7.5711218"><ele>1355.0</ele><time>2026-05-01T11:03:34.274Z</time></trkpt><trkpt lat="44.1672501" lon="7.5711236"><ele>1368.5</ele><time>2026-05-01T11:03:35.274Z</time></trkpt><trkpt lat="44.167115" lon="7.5711239"><ele>1382.0</ele><time>2026-05-01T11:03:36.274Z</time></trkpt><trkpt lat="44.1665684" lon="7.5711361"><ele>1224.0</ele><time>2026-05-01T11:03:41.405Z</time></trkpt><trkpt lat="44.136255" lon="7.56724"><ele>1224.0</ele><time>2026-05-01T11:09:01.274Z</time></trkpt><trkpt lat="44.13615" lon="7.567205"><ele>1224.0</ele><time>2026-05-01T11:09:02.274Z</time></trkpt><trkpt lat="44.13596" lon="7.5671533"><ele>1224.0</ele><time>2026-05-01T11:09:04.274Z</time></trkpt><trkpt lat="44.1358667" lon="7.5671367"><ele>1224.0</ele><time>2026-05-01T11:09:05.274Z</time></trkpt><trkpt lat="44.135775" lon="7.56713"><ele>1226.8</ele><time>2026-05-01T11:09:06.274Z</time></trkpt><trkpt lat="44.1356833" lon="7.5671467"><ele>1229.6000000000001</ele><time>2026-05-01T11:09:07.274Z</time></trkpt><trkpt lat="44.13559" lon="7.5671817"><ele>1232.4</ele><time>2026-05-01T11:09:08.274Z</time></trkpt><trkpt lat="44.135505" lon="7.5672383"><ele>1235.2</ele><time>2026-05-01T11:09:09.274Z</time></trkpt><trkpt lat="44.1354283" lon="7.567325"><ele>1238.0</ele><time>2026-05-01T11:09:10.275Z</time></trkpt><trkpt lat="44.1353583" lon="7.567415"><ele>1238.0</ele><time>2026-05-01T11:09:11.274Z</time></trkpt><trkpt lat="44.1352933" lon="7.5674917"><ele>1238.0</ele><time>2026-05-01T11:09:12.274Z</time></trkpt><trkpt lat="44.1352217" lon="7.5675717"><ele>1238.0</ele><time>2026-05-01T11:09:13.274Z</time></trkpt><trkpt lat="44.1351333" lon="7.5676567"><ele>1238.0</ele><time>2026-05-01T11:09:14.274Z</time></trkpt><trkpt lat="44.1350367" lon="7.5677183"><ele>1238.0</ele><time>2026-05-01T11:09:15.275Z</time></trkpt><trkpt lat="44.1349283" lon="7.5677633"><ele>1234.8</ele><time>2026-05-01T11:09:16.274Z</time></trkpt><trkpt lat="44.1348217" lon="7.567795"><ele>1231.6</ele><time>2026-05-01T11:09:17.274Z</time></trkpt><trkpt lat="44.13471" lon="7.5678033"><ele>1228.4</ele><time>2026-05-01T11:09:18.274Z</time></trkpt><trkpt lat="44.1345967" lon="7.56779"><ele>1225.2</ele><time>2026-05-01T11:09:19.274Z</time></trkpt><trkpt lat="44.134485" lon="7.567765"><ele>1222.0</ele><time>2026-05-01T11:09:20.274Z</time></trkpt><trkpt lat="44.1343683" lon="7.567735"><ele>1222.0</ele><time>2026-05-01T11:09:21.274Z</time></trkpt><trkpt lat="44.1342417" lon="7.56767"><ele>1222.0</ele><time>2026-05-01T11:09:22.274Z</time></trkpt><trkpt lat="44.1341233" lon="7.5675717"><ele>1222.0</ele><time>2026-05-01T11:09:23.274Z</time></trkpt><trkpt lat="44.1337933" lon="7.5674067"><ele>1209.0</ele><time>2026-05-01T11:09:25.274Z</time></trkpt><trkpt lat="44.1336133" lon="7.5673017"><ele>1196.0</ele><time>2026-05-01T11:09:26.275Z</time></trkpt><trkpt lat="44.133435" lon="7.5671933"><ele>1183.0</ele><time>2026-05-01T11:09:27.274Z</time></trkpt><trkpt lat="44.1332583" lon="7.56708"><ele>1192.0</ele><time>2026-05-01T11:09:28.274Z</time></trkpt><trkpt lat="44.1330867" lon="7.5669767"><ele>1201.0</ele><time>2026-05-01T11:09:29.274Z</time></trkpt><trkpt lat="44.1329183" lon="7.5668817"><ele>1210.0</ele><time>2026-05-01T11:09:30.274Z</time></trkpt><trkpt lat="44.1327483" lon="7.5667917"><ele>1210.0</ele><time>2026-05-01T11:09:31.274Z</time></trkpt><trkpt lat="44.1325883" lon="7.56672"><ele>1210.0</ele><time>2026-05-01T11:09:32.274Z</time></trkpt><trkpt lat="44.1324217" lon="7.5666567"><ele>1210.0</ele><time>2026-05-01T11:09:33.274Z</time></trkpt><trkpt lat="44.13226" lon="7.56661"><ele>1204.25</ele><time>2026-05-01T11:09:34.274Z</time></trkpt><trkpt lat="44.1321067" lon="7.5665817"><ele>1198.5</ele><time>2026-05-01T11:09:35.274Z</time></trkpt><trkpt lat="44.1319833" lon="7.5665383"><ele>1192.75</ele><time>2026-05-01T11:09:36.275Z</time></trkpt><trkpt lat="44.1318683" lon="7.5664933"><ele>1187.0</ele><time>2026-05-01T11:09:37.274Z</time></trkpt><trkpt lat="44.131755" lon="7.5664283"><ele>1187.0</ele><time>2026-05-01T11:09:38.274Z</time></trkpt><trkpt lat="44.1316517" lon="7.5663333"><ele>1187.0</ele><time>2026-05-01T11:09:39.274Z</time></trkpt><trkpt lat="44.1315817" lon="7.5662083"><ele>1187.0</ele><time>2026-05-01T11:09:40.274Z</time></trkpt><trkpt lat="44.1315283" lon="7.5660783"><ele>1187.0</ele><time>2026-05-01T11:09:41.274Z</time></trkpt><trkpt lat="44.1315017" lon="7.565935"><ele>1184.0</ele><time>2026-05-01T11:09:42.274Z</time></trkpt><trkpt lat="44.1315017" lon="7.5657817"><ele>1181.0</ele><time>2026-05-01T11:09:43.274Z</time></trkpt><trkpt lat="44.1315033" lon="7.5656383"><ele>1178.0</ele><time>2026-05-01T11:09:44.275Z</time></trkpt><trkpt lat="44.1315017" lon="7.5653617"><ele>1175.0</ele><time>2026-05-01T11:09:46.274Z</time></trkpt><trkpt lat="44.1314633" lon="7.565245"><ele>1175.0</ele><time>2026-05-01T11:09:47.274Z</time></trkpt><trkpt lat="44.13141" lon="7.5651383"><ele>1175.0</ele><time>2026-05-01T11:09:48.274Z</time></trkpt><trkpt lat="44.131325" lon="7.5650417"><ele>1175.0</ele><time>2026-05-01T11:09:49.275Z</time></trkpt><trkpt lat="44.1312333" lon="7.5649617"><ele>1175.0</ele><time>2026-05-01T11:09:50.274Z</time></trkpt><trkpt lat="44.1311383" lon="7.56493"><ele>1175.0</ele><time>2026-05-01T11:09:51.274Z</time></trkpt><trkpt lat="44.1310317" lon="7.5649067"><ele>1175.0</ele><time>2026-05-01T11:09:52.274Z</time></trkpt><trkpt lat="44.1309183" lon="7.5648933"><ele>1175.0</ele><time>2026-05-01T11:09:53.274Z</time></trkpt><trkpt lat="44.1307983" lon="7.564885"><ele>1175.0</ele><time>2026-05-01T11:09:54.274Z</time></trkpt><trkpt lat="44.1306883" lon="7.564875"><ele>1175.0</ele><time>2026-05-01T11:09:55.274Z</time></trkpt><trkpt lat="44.1305883" lon="7.5648583"><ele>1175.0</ele><time>2026-05-01T11:09:56.274Z</time></trkpt><trkpt lat="44.1304933" lon="7.5648283"><ele>1173.0</ele><time>2026-05-01T11:09:57.274Z</time></trkpt><trkpt lat="44.1303933" lon="7.5647683"><ele>1171.0</ele><time>2026-05-01T11:09:58.274Z</time></trkpt><trkpt lat="44.1303133" lon="7.5646733"><ele>1169.0</ele><time>2026-05-01T11:09:59.274Z</time></trkpt><trkpt lat="44.1302517" lon="7.5645283"><ele>1167.0</ele><time>2026-05-01T11:10:00.274Z</time></trkpt><trkpt lat="44.1301883" lon="7.564375"><ele>1167.0</ele><time>2026-05-01T11:10:01.274Z</time></trkpt><trkpt lat="44.130135" lon="7.564195"><ele>1167.0</ele><time>2026-05-01T11:10:02.274Z</time></trkpt><trkpt lat="44.130075" lon="7.5640183"><ele>1167.0</ele><time>2026-05-01T11:10:03.274Z</time></trkpt><trkpt lat="44.1300083" lon="7.56385"><ele>1167.0</ele><time>2026-05-01T11:10:04.275Z</time></trkpt><trkpt lat="44.12993" lon="7.5636817"><ele>1158.0</ele><time>2026-05-01T11:10:05.274Z</time></trkpt><trkpt lat="44.129725" lon="7.56338"><ele>1149.0</ele><time>2026-05-01T11:10:07.274Z</time></trkpt><trkpt lat="44.129595" lon="7.56327"><ele>1149.0</ele><time>2026-05-01T11:10:08.274Z</time></trkpt><trkpt lat="44.1294683" lon="7.5631683"><ele>1149.0</ele><time>2026-05-01T11:10:09.274Z</time></trkpt><trkpt lat="44.129345" lon="7.563075"><ele>1149.0</ele><time>2026-05-01T11:10:10.274Z</time></trkpt><trkpt lat="44.1292167" lon="7.562985"><ele>1149.0</ele><time>2026-05-01T11:10:11.274Z</time></trkpt><trkpt lat="44.1290917" lon="7.5629033"><ele>1153.0</ele><time>2026-05-01T11:10:12.274Z</time></trkpt><trkpt lat="44.1289683" lon="7.5628117"><ele>1157.0</ele><time>2026-05-01T11:10:13.274Z</time></trkpt><trkpt lat="44.12884" lon="7.5627367"><ele>1161.0</ele><time>2026-05-01T11:10:14.274Z</time></trkpt><trkpt lat="44.128705" lon="7.56269"><ele>1165.0</ele><time>2026-05-01T11:10:15.274Z</time></trkpt><trkpt lat="44.1285617" lon="7.5626667"><ele>1165.0</ele><time>2026-05-01T11:10:16.275Z</time></trkpt><trkpt lat="44.1284233" lon="7.5626767"><ele>1165.0</ele><time>2026-05-01T11:10:17.275Z</time></trkpt><trkpt lat="44.1282817" lon="7.5627"><ele>1165.0</ele><time>2026-05-01T11:10:18.275Z</time></trkpt><trkpt lat="44.1281483" lon="7.5627317"><ele>1165.0</ele><time>2026-05-01T11:10:19.274Z</time></trkpt><trkpt lat="44.128025" lon="7.5627317"><ele>1165.0</ele><time>2026-05-01T11:10:20.274Z</time></trkpt><trkpt lat="44.1279" lon="7.56272"><ele>1165.0</ele><time>2026-05-01T11:10:21.274Z</time></trkpt><trkpt lat="44.1277817" lon="7.5627017"><ele>1165.0</ele><time>2026-05-01T11:10:22.274Z</time></trkpt><trkpt lat="44.12766" lon="7.56267"><ele>1165.0</ele><time>2026-05-01T11:10:23.274Z</time></trkpt><trkpt lat="44.12755" lon="7.5626383"><ele>1165.0</ele><time>2026-05-01T11:10:24.274Z</time></trkpt><trkpt lat="44.127445" lon="7.5626"><ele>1165.0</ele><time>2026-05-01T11:10:25.274Z</time></trkpt><trkpt lat="44.1273367" lon="7.5625633"><ele>1165.0</ele><time>2026-05-01T11:10:26.274Z</time></trkpt><trkpt lat="44.1271417" lon="7.5625467"><ele>1165.0</ele><time>2026-05-01T11:10:28.274Z</time></trkpt><trkpt lat="44.1270617" lon="7.5625683"><ele>1164.5</ele><time>2026-05-01T11:10:29.274Z</time></trkpt><trkpt lat="44.1269783" lon="7.562625"><ele>1164.0</ele><time>2026-05-01T11:10:30.274Z</time></trkpt><trkpt lat="44.1269117" lon="7.5627083"><ele>1163.5</ele><time>2026-05-01T11:10:31.274Z</time></trkpt><trkpt lat="44.126895" lon="7.5628033"><ele>1163.0</ele><time>2026-05-01T11:10:32.274Z</time></trkpt><trkpt lat="44.1269183" lon="7.5629133"><ele>1162.5</ele><time>2026-05-01T11:10:33.275Z</time></trkpt><trkpt lat="44.1269667" lon="7.5630033"><ele>1162.0</ele><time>2026-05-01T11:10:34.274Z</time></trkpt><trkpt lat="44.127045" lon="7.56307"><ele>1159.5</ele><time>2026-05-01T11:10:35.274Z</time></trkpt><trkpt lat="44.1271483" lon="7.5631067"><ele>1157.0</ele><time>2026-05-01T11:10:36.274Z</time></trkpt><trkpt lat="44.1272883" lon="7.5631083"><ele>1154.5</ele><time>2026-05-01T11:10:37.274Z</time></trkpt><trkpt lat="44.1274567" lon="7.5630933"><ele>1152.0</ele><time>2026-05-01T11:10:38.274Z</time></trkpt><trkpt lat="44.12767" lon="7.5630717"><ele>1152.0</ele><time>2026-05-01T11:10:39.274Z</time></trkpt><trkpt lat="44.1278583" lon="7.5630683"><ele>1152.0</ele><time>2026-05-01T11:10:40.274Z</time></trkpt><trkpt lat="44.1280367" lon="7.5630717"><ele>1152.0</ele><time>2026-05-01T11:10:41.274Z</time></trkpt><trkpt lat="44.1282117" lon="7.5630783"><ele>1146.6666666666667</ele><time>2026-05-01T11:10:42.274Z</time></trkpt><trkpt lat="44.1283817" lon="7.5630883"><ele>1141.3333333333335</ele><time>2026-05-01T11:10:43.274Z</time></trkpt><trkpt lat="44.128535" lon="7.5631083"><ele>1136.0</ele><time>2026-05-01T11:10:44.274Z</time></trkpt><trkpt lat="44.128665" lon="7.5631483"><ele>1136.0</ele><time>2026-05-01T11:10:45.274Z</time></trkpt><trkpt lat="44.12878" lon="7.5631933"><ele>1136.0</ele><time>2026-05-01T11:10:46.274Z</time></trkpt><trkpt lat="44.12887" lon="7.5632667"><ele>1136.0</ele><time>2026-05-01T11:10:47.274Z</time></trkpt><trkpt lat="44.1289133" lon="7.563485"><ele>1136.0</ele><time>2026-05-01T11:10:49.274Z</time></trkpt><trkpt lat="44.1288617" lon="7.5635767"><ele>1136.0</ele><time>2026-05-01T11:10:50.274Z</time></trkpt><trkpt lat="44.12879" lon="7.563625"><ele>1136.0</ele><time>2026-05-01T11:10:51.274Z</time></trkpt><trkpt lat="44.1286917" lon="7.5636233"><ele>1136.0</ele><time>2026-05-01T11:10:52.274Z</time></trkpt><trkpt lat="44.12857" lon="7.56357"><ele>1136.0</ele><time>2026-05-01T11:10:53.274Z</time></trkpt><trkpt lat="44.1284317" lon="7.563485"><ele>1136.0</ele><time>2026-05-01T11:10:54.274Z</time></trkpt><trkpt lat="44.1283167" lon="7.5633967"><ele>1136.0</ele><time>2026-05-01T11:10:55.274Z</time></trkpt><trkpt lat="44.128205" lon="7.5633417"><ele>1136.0</ele><time>2026-05-01T11:10:56.274Z</time></trkpt><trkpt lat="44.128095" lon="7.5633267"><ele>1136.0</ele><time>2026-05-01T11:10:57.274Z</time></trkpt><trkpt lat="44.128" lon="7.5633483"><ele>1138.6666666666667</ele><time>2026-05-01T11:10:58.275Z</time></trkpt><trkpt lat="44.1279167" lon="7.563395"><ele>1141.3333333333335</ele><time>2026-05-01T11:10:59.274Z</time></trkpt><trkpt lat="44.12786" lon="7.56347"><ele>1144.0</ele><time>2026-05-01T11:11:00.274Z</time></trkpt><trkpt lat="44.1278367" lon="7.5635583"><ele>1146.6666666666667</ele><time>2026-05-01T11:11:01.274Z</time></trkpt><trkpt lat="44.1278333" lon="7.5636633"><ele>1149.3333333333333</ele><time>2026-05-01T11:11:02.275Z</time></trkpt><trkpt lat="44.1278617" lon="7.56376"><ele>1152.0</ele><time>2026-05-01T11:11:03.274Z</time></trkpt><trkpt lat="44.1279233" lon="7.563835"><ele>1149.75</ele><time>2026-05-01T11:11:04.274Z</time></trkpt><trkpt lat="44.128015" lon="7.56389"><ele>1147.5</ele><time>2026-05-01T11:11:05.274Z</time></trkpt><trkpt lat="44.128125" lon="7.56393"><ele>1145.25</ele><time>2026-05-01T11:11:06.274Z</time></trkpt><trkpt lat="44.1282483" lon="7.5639567"><ele>1143.0</ele><time>2026-05-01T11:11:07.274Z</time></trkpt><trkpt lat="44.128385" lon="7.5639617"><ele>1143.0</ele><time>2026-05-01T11:11:08.275Z</time></trkpt><trkpt lat="44.12866" lon="7.5639883"><ele>1143.0</ele><time>2026-05-01T11:11:10.275Z</time></trkpt><trkpt lat="44.1287917" lon="7.5640083"><ele>1143.0</ele><time>2026-05-01T11:11:11.274Z</time></trkpt><trkpt lat="44.1289233" lon="7.564035"><ele>1139.5</ele><time>2026-05-01T11:11:12.274Z</time></trkpt><trkpt lat="44.12906" lon="7.564095"><ele>1136.0</ele><time>2026-05-01T11:11:13.274Z</time></trkpt><trkpt lat="44.1291717" lon="7.5641883"><ele>1132.5</ele><time>2026-05-01T11:11:14.274Z</time></trkpt><trkpt lat="44.129265" lon="7.5643133"><ele>1129.0</ele><time>2026-05-01T11:11:15.274Z</time></trkpt><trkpt lat="44.1293367" lon="7.5644567"><ele>1126.0</ele><time>2026-05-01T11:11:16.274Z</time></trkpt><trkpt lat="44.1293933" lon="7.5646217"><ele>1123.0</ele><time>2026-05-01T11:11:17.274Z</time></trkpt><trkpt lat="44.1294367" lon="7.56479"><ele>1120.0</ele><time>2026-05-01T11:11:18.274Z</time></trkpt><trkpt lat="44.1294717" lon="7.5649583"><ele>1117.0</ele><time>2026-05-01T11:11:19.274Z</time></trkpt><trkpt lat="44.1295017" lon="7.5651183"><ele>1117.0</ele><time>2026-05-01T11:11:20.274Z</time></trkpt><trkpt lat="44.129545" lon="7.565275"><ele>1117.0</ele><time>2026-05-01T11:11:21.274Z</time></trkpt><trkpt lat="44.1296083" lon="7.5654133"><ele>1117.0</ele><time>2026-05-01T11:11:22.274Z</time></trkpt><trkpt lat="44.1296883" lon="7.565525"><ele>1117.0</ele><time>2026-05-01T11:11:23.274Z</time></trkpt><trkpt lat="44.12978" lon="7.56562"><ele>1117.0</ele><time>2026-05-01T11:11:24.274Z</time></trkpt><trkpt lat="44.1298717" lon="7.5656967"><ele>1117.0</ele><time>2026-05-01T11:11:25.274Z</time></trkpt><trkpt lat="44.12997" lon="7.5657567"><ele>1117.0</ele><time>2026-05-01T11:11:26.274Z</time></trkpt><trkpt lat="44.13007" lon="7.56583"><ele>1117.0</ele><time>2026-05-01T11:11:27.274Z</time></trkpt><trkpt lat="44.13016" lon="7.565915"><ele>1117.0</ele><time>2026-05-01T11:11:28.274Z</time></trkpt><trkpt lat="44.1302383" lon="7.56601"><ele>1115.8</ele><time>2026-05-01T11:11:29.274Z</time></trkpt><trkpt lat="44.1303233" lon="7.5662317"><ele>1114.6</ele><time>2026-05-01T11:11:31.274Z</time></trkpt><trkpt lat="44.1303267" lon="7.5663567"><ele>1113.3999999999999</ele><time>2026-05-01T11:11:32.274Z</time></trkpt><trkpt lat="44.130305" lon="7.5664517"><ele>1112.2</ele><time>2026-05-01T11:11:33.274Z</time></trkpt><trkpt lat="44.1302817" lon="7.566535"><ele>1111.0</ele><time>2026-05-01T11:11:34.274Z</time></trkpt><trkpt lat="44.1302183" lon="7.56658"><ele>1111.0</ele><time>2026-05-01T11:11:35.274Z</time></trkpt><trkpt lat="44.1301317" lon="7.566575"><ele>1111.0</ele><time>2026-05-01T11:11:36.274Z</time></trkpt><trkpt lat="44.1300433" lon="7.5665267"><ele>1111.0</ele><time>2026-05-01T11:11:37.274Z</time></trkpt><trkpt lat="44.1299617" lon="7.5664517"><ele>1111.0</ele><time>2026-05-01T11:11:38.274Z</time></trkpt><trkpt lat="44.1298883" lon="7.56637"><ele>1111.0</ele><time>2026-05-01T11:11:39.274Z</time></trkpt><trkpt lat="44.1298183" lon="7.566275"><ele>1108.25</ele><time>2026-05-01T11:11:40.274Z</time></trkpt><trkpt lat="44.12975" lon="7.5661567"><ele>1105.5</ele><time>2026-05-01T11:11:41.274Z</time></trkpt><trkpt lat="44.129685" lon="7.5660233"><ele>1102.75</ele><time>2026-05-01T11:11:42.274Z</time></trkpt><trkpt lat="44.1296183" lon="7.56588"><ele>1100.0</ele><time>2026-05-01T11:11:43.274Z</time></trkpt><trkpt lat="44.1295483" lon="7.5657483"><ele>1100.0</ele><time>2026-05-01T11:11:44.274Z</time></trkpt><trkpt lat="44.1294617" lon="7.5656383"><ele>1100.0</ele><time>2026-05-01T11:11:45.274Z</time></trkpt><trkpt lat="44.1293717" lon="7.5655467"><ele>1100.0</ele><time>2026-05-01T11:11:46.274Z</time></trkpt><trkpt lat="44.1292667" lon="7.565505"><ele>1100.0</ele><time>2026-05-01T11:11:47.275Z</time></trkpt><trkpt lat="44.12916" lon="7.5655"><ele>1100.0</ele><time>2026-05-01T11:11:48.274Z</time></trkpt><trkpt lat="44.129055" lon="7.5655483"><ele>1113.3333333333335</ele><time>2026-05-01T11:11:49.274Z</time></trkpt><trkpt lat="44.12896" lon="7.5656283"><ele>1126.6666666666667</ele><time>2026-05-01T11:11:50.274Z</time></trkpt><trkpt lat="44.128805" lon="7.5658617"><ele>1140.0</ele><time>2026-05-01T11:11:52.274Z</time></trkpt><trkpt lat="44.12877" lon="7.5660317"><ele>1131.25</ele><time>2026-05-01T11:11:53.274Z</time></trkpt><trkpt lat="44.1287467" lon="7.5662183"><ele>1122.5</ele><time>2026-05-01T11:11:54.274Z</time></trkpt><trkpt lat="44.12872" lon="7.5663983"><ele>1113.75</ele><time>2026-05-01T11:11:55.274Z</time></trkpt><trkpt lat="44.1286817" lon="7.56658"><ele>1105.0</ele><time>2026-05-01T11:11:56.274Z</time></trkpt><trkpt lat="44.1286133" lon="7.5667283"><ele>1105.0</ele><time>2026-05-01T11:11:57.274Z</time></trkpt><trkpt lat="44.1285517" lon="7.5668667"><ele>1105.0</ele><time>2026-05-01T11:11:58.274Z</time></trkpt><trkpt lat="44.1284733" lon="7.56699"><ele>1105.0</ele><time>2026-05-01T11:11:59.275Z</time></trkpt><trkpt lat="44.1283683" lon="7.5671217"><ele>1105.0</ele><time>2026-05-01T11:12:00.274Z</time></trkpt><trkpt lat="44.1282783" lon="7.567225"><ele>1100.4</ele><time>2026-05-01T11:12:01.274Z</time></trkpt><trkpt lat="44.1282" lon="7.567305"><ele>1095.8</ele><time>2026-05-01T11:12:02.274Z</time></trkpt><trkpt lat="44.1281033" lon="7.567365"><ele>1091.2</ele><time>2026-05-01T11:12:03.274Z</time></trkpt><trkpt lat="44.1279983" lon="7.5673967"><ele>1086.6</ele><time>2026-05-01T11:12:04.274Z</time></trkpt><trkpt lat="44.1278633" lon="7.56738"><ele>1082.0</ele><time>2026-05-01T11:12:05.274Z</time></trkpt><trkpt lat="44.12771" lon="7.5673083"><ele>1082.0</ele><time>2026-05-01T11:12:06.274Z</time></trkpt><trkpt lat="44.1275417" lon="7.567225"><ele>1082.0</ele><time>2026-05-01T11:12:07.275Z</time></trkpt><trkpt lat="44.1273367" lon="7.567185"><ele>1082.0</ele><time>2026-05-01T11:12:08.274Z</time></trkpt><trkpt lat="44.1271233" lon="7.5671567"><ele>1080.3333333333335</ele><time>2026-05-01T11:12:09.274Z</time></trkpt><trkpt lat="44.1269217" lon="7.5671283"><ele>1078.6666666666667</ele><time>2026-05-01T11:12:10.274Z</time></trkpt><trkpt lat="44.1267333" lon="7.5671317"><ele>1077.0</ele><time>2026-05-01T11:12:11.274Z</time></trkpt><trkpt lat="44.1263783" lon="7.5672967"><ele>1077.0</ele><time>2026-05-01T11:12:13.274Z</time></trkpt><trkpt lat="44.1262217" lon="7.5674167"><ele>1077.0</ele><time>2026-05-01T11:12:14.274Z</time></trkpt><trkpt lat="44.1260733" lon="7.567515"><ele>1077.0</ele><time>2026-05-01T11:12:15.274Z</time></trkpt><trkpt lat="44.1259267" lon="7.5675683"><ele>1077.0</ele><time>2026-05-01T11:12:16.274Z</time></trkpt><trkpt lat="44.12575" lon="7.567585"><ele>1077.0</ele><time>2026-05-01T11:12:17.274Z</time></trkpt><trkpt lat="44.1255633" lon="7.5675817"><ele>1077.0</ele><time>2026-05-01T11:12:18.274Z</time></trkpt><trkpt lat="44.1253667" lon="7.567545"><ele>1073.3333333333333</ele><time>2026-05-01T11:12:19.274Z</time></trkpt><trkpt lat="44.1251683" lon="7.567485"><ele>1069.6666666666665</ele><time>2026-05-01T11:12:20.274Z</time></trkpt><trkpt lat="44.1249867" lon="7.5673967"><ele>1066.0</ele><time>2026-05-01T11:12:21.274Z</time></trkpt><trkpt lat="44.1248" lon="7.56732"><ele>1062.3333333333333</ele><time>2026-05-01T11:12:22.274Z</time></trkpt><trkpt lat="44.124625" lon="7.56724"><ele>1058.6666666666667</ele><time>2026-05-01T11:12:23.274Z</time></trkpt><trkpt lat="44.1244483" lon="7.56715"><ele>1055.0</ele><time>2026-05-01T11:12:24.274Z</time></trkpt><trkpt lat="44.1242683" lon="7.5670783"><ele>1055.0</ele><time>2026-05-01T11:12:25.274Z</time></trkpt><trkpt lat="44.1240917" lon="7.567005"><ele>1055.0</ele><time>2026-05-01T11:12:26.274Z</time></trkpt><trkpt lat="44.12391" lon="7.56695"><ele>1055.0</ele><time>2026-05-01T11:12:27.274Z</time></trkpt><trkpt lat="44.1237283" lon="7.5669433"><ele>1057.3333333333335</ele><time>2026-05-01T11:12:28.274Z</time></trkpt><trkpt lat="44.123555" lon="7.56694"><ele>1059.6666666666667</ele><time>2026-05-01T11:12:29.274Z</time></trkpt><trkpt lat="44.1233833" lon="7.5669483"><ele>1062.0</ele><time>2026-05-01T11:12:30.274Z</time></trkpt><trkpt lat="44.1232117" lon="7.566975"><ele>1062.0</ele><time>2026-05-01T11:12:31.274Z</time></trkpt><trkpt lat="44.12304" lon="7.56702"><ele>1062.0</ele><time>2026-05-01T11:12:32.274Z</time></trkpt><trkpt lat="44.12268" lon="7.5671033"><ele>1053.6666666666667</ele><time>2026-05-01T11:12:34.274Z</time></trkpt><trkpt lat="44.122515" lon="7.5671383"><ele>1045.3333333333335</ele><time>2026-05-01T11:12:35.274Z</time></trkpt><trkpt lat="44.12235" lon="7.56719"><ele>1037.0</ele><time>2026-05-01T11:12:36.274Z</time></trkpt><trkpt lat="44.12219" lon="7.567245"><ele>1034.0</ele><time>2026-05-01T11:12:37.274Z</time></trkpt><trkpt lat="44.122045" lon="7.5673183"><ele>1031.0</ele><time>2026-05-01T11:12:38.274Z</time></trkpt><trkpt lat="44.12188" lon="7.56741"><ele>1028.0</ele><time>2026-05-01T11:12:39.274Z</time></trkpt><trkpt lat="44.1217383" lon="7.5674917"><ele>1028.0</ele><time>2026-05-01T11:12:40.275Z</time></trkpt><trkpt lat="44.121585" lon="7.5675583"><ele>1028.0</ele><time>2026-05-01T11:12:41.274Z</time></trkpt><trkpt lat="44.1214217" lon="7.5675717"><ele>1028.0</ele><time>2026-05-01T11:12:42.274Z</time></trkpt><trkpt lat="44.12128" lon="7.5675433"><ele>1023.75</ele><time>2026-05-01T11:12:43.274Z</time></trkpt><trkpt lat="44.12115" lon="7.5674667"><ele>1019.5</ele><time>2026-05-01T11:12:44.274Z</time></trkpt><trkpt lat="44.12104" lon="7.567365"><ele>1015.25</ele><time>2026-05-01T11:12:45.274Z</time></trkpt><trkpt lat="44.120935" lon="7.5672583"><ele>1011.0</ele><time>2026-05-01T11:12:46.274Z</time></trkpt><trkpt lat="44.1208167" lon="7.567155"><ele>1012.25</ele><time>2026-05-01T11:12:47.274Z</time></trkpt><trkpt lat="44.1207067" lon="7.5670583"><ele>1013.5</ele><time>2026-05-01T11:12:48.274Z</time></trkpt><trkpt lat="44.1205733" lon="7.5670017"><ele>1014.75</ele><time>2026-05-01T11:12:49.274Z</time></trkpt><trkpt lat="44.12045" lon="7.5669433"><ele>1016.0</ele><time>2026-05-01T11:12:50.274Z</time></trkpt><trkpt lat="44.120325" lon="7.5668883"><ele>1016.0</ele><time>2026-05-01T11:12:51.274Z</time></trkpt><trkpt lat="44.1201933" lon="7.5668417"><ele>1016.0</ele><time>2026-05-01T11:12:52.275Z</time></trkpt><trkpt lat="44.12006" lon="7.5667983"><ele>1016.0</ele><time>2026-05-01T11:12:53.274Z</time></trkpt><trkpt lat="44.1198033" lon="7.566685"><ele>1012.75</ele><time>2026-05-01T11:12:55.274Z</time></trkpt><trkpt lat="44.1196817" lon="7.5666333"><ele>1009.5</ele><time>2026-05-01T11:12:56.274Z</time></trkpt><trkpt lat="44.11956" lon="7.5665783"><ele>1006.25</ele><time>2026-05-01T11:12:57.274Z</time></trkpt><trkpt lat="44.1194367" lon="7.566535"><ele>1003.0</ele><time>2026-05-01T11:12:58.274Z</time></trkpt><trkpt lat="44.1193133" lon="7.566505"><ele>1003.0</ele><time>2026-05-01T11:12:59.274Z</time></trkpt><trkpt lat="44.1192017" lon="7.5664883"><ele>1003.0</ele><time>2026-05-01T11:13:00.274Z</time></trkpt><trkpt lat="44.1190917" lon="7.5664967"><ele>1003.0</ele><time>2026-05-01T11:13:01.274Z</time></trkpt><trkpt lat="44.1189733" lon="7.5664983"><ele>1003.0</ele><time>2026-05-01T11:13:02.274Z</time></trkpt><trkpt lat="44.11885" lon="7.5665167"><ele>1001.25</ele><time>2026-05-01T11:13:03.274Z</time></trkpt><trkpt lat="44.11872" lon="7.566535"><ele>999.5</ele><time>2026-05-01T11:13:04.274Z</time></trkpt><trkpt lat="44.118595" lon="7.5665567"><ele>997.75</ele><time>2026-05-01T11:13:05.274Z</time></trkpt><trkpt lat="44.1184783" lon="7.5665733"><ele>996.0</ele><time>2026-05-01T11:13:06.274Z</time></trkpt><trkpt lat="44.1183667" lon="7.5665883"><ele>996.0</ele><time>2026-05-01T11:13:07.274Z</time></trkpt><trkpt lat="44.1182783" lon="7.5665883"><ele>995.9999999999999</ele><time>2026-05-01T11:13:08.274Z</time></trkpt><trkpt lat="44.118165" lon="7.5665717"><ele>995.9999999999999</ele><time>2026-05-01T11:13:10.274Z</time></trkpt><trkpt lat="44.1180517" lon="7.5665317"><ele>996.0</ele><time>2026-05-01T11:13:12.275Z</time></trkpt><trkpt lat="44.1179783" lon="7.5664967"><ele>996.0</ele><time>2026-05-01T11:13:13.274Z</time></trkpt><trkpt lat="44.1178933" lon="7.5664467"><ele>994.5</ele><time>2026-05-01T11:13:14.274Z</time></trkpt><trkpt lat="44.1177017" lon="7.5663483"><ele>993.0</ele><time>2026-05-01T11:13:16.274Z</time></trkpt><trkpt lat="44.1176" lon="7.5663133"><ele>991.5</ele><time>2026-05-01T11:13:17.274Z</time></trkpt><trkpt lat="44.11749" lon="7.5662767"><ele>990.0</ele><time>2026-05-01T11:13:18.274Z</time></trkpt><trkpt lat="44.1173867" lon="7.566245"><ele>990.4</ele><time>2026-05-01T11:13:19.274Z</time></trkpt><trkpt lat="44.1172833" lon="7.5662133"><ele>990.8</ele><time>2026-05-01T11:13:20.274Z</time></trkpt><trkpt lat="44.117185" lon="7.56619"><ele>991.2</ele><time>2026-05-01T11:13:21.274Z</time></trkpt><trkpt lat="44.1170917" lon="7.5661567"><ele>991.6</ele><time>2026-05-01T11:13:22.274Z</time></trkpt><trkpt lat="44.117" lon="7.5661167"><ele>992.0</ele><time>2026-05-01T11:13:23.275Z</time></trkpt><trkpt lat="44.11691" lon="7.566075"><ele>992.0</ele><time>2026-05-01T11:13:24.274Z</time></trkpt><trkpt lat="44.1168133" lon="7.56602"><ele>992.0</ele><time>2026-05-01T11:13:25.274Z</time></trkpt><trkpt lat="44.1167117" lon="7.5659667"><ele>992.0</ele><time>2026-05-01T11:13:26.274Z</time></trkpt><trkpt lat="44.1166017" lon="7.5659283"><ele>992.0</ele><time>2026-05-01T11:13:27.274Z</time></trkpt><trkpt lat="44.1165117" lon="7.5658783"><ele>992.0</ele><time>2026-05-01T11:13:28.274Z</time></trkpt><trkpt lat="44.1164183" lon="7.565825"><ele>989.8</ele><time>2026-05-01T11:13:29.274Z</time></trkpt><trkpt lat="44.11633" lon="7.5657717"><ele>987.6</ele><time>2026-05-01T11:13:30.274Z</time></trkpt><trkpt lat="44.1162433" lon="7.56572"><ele>985.3999999999999</ele><time>2026-05-01T11:13:31.274Z</time></trkpt><trkpt lat="44.11616" lon="7.5656667"><ele>983.1999999999999</ele><time>2026-05-01T11:13:32.274Z</time></trkpt><trkpt lat="44.1160767" lon="7.5656167"><ele>981.0</ele><time>2026-05-01T11:13:33.275Z</time></trkpt><trkpt lat="44.1159967" lon="7.5655667"><ele>981.0</ele><time>2026-05-01T11:13:34.274Z</time></trkpt><trkpt lat="44.1159267" lon="7.5655067"><ele>980.9999999999999</ele><time>2026-05-01T11:13:35.274Z</time></trkpt><trkpt lat="44.1157933" lon="7.5653733"><ele>980.9999999999999</ele><time>2026-05-01T11:13:37.274Z</time></trkpt><trkpt lat="44.11573" lon="7.5653017"><ele>981.0</ele><time>2026-05-01T11:13:38.274Z</time></trkpt><trkpt lat="44.1156667" lon="7.565225"><ele>981.0</ele><time>2026-05-01T11:13:39.274Z</time></trkpt><trkpt lat="44.1156067" lon="7.5651467"><ele>980.3333333333334</ele><time>2026-05-01T11:13:40.274Z</time></trkpt><trkpt lat="44.1155417" lon="7.5650633"><ele>979.6666666666667</ele><time>2026-05-01T11:13:41.274Z</time></trkpt><trkpt lat="44.1154817" lon="7.5649783"><ele>979.0</ele><time>2026-05-01T11:13:42.274Z</time></trkpt><trkpt lat="44.115425" lon="7.5649"><ele>978.3333333333334</ele><time>2026-05-01T11:13:43.274Z</time></trkpt><trkpt lat="44.11538" lon="7.5648367"><ele>977.6666666666667</ele><time>2026-05-01T11:13:44.274Z</time></trkpt><trkpt lat="44.1152967" lon="7.564725"><ele>977.0</ele><time>2026-05-01T11:13:46.275Z</time></trkpt><trkpt lat="44.1152483" lon="7.564665"><ele>977.0000000000001</ele><time>2026-05-01T11:13:47.274Z</time></trkpt><trkpt lat="44.115195" lon="7.5646083"><ele>977.0</ele><time>2026-05-01T11:13:48.274Z</time></trkpt><trkpt lat="44.1151333" lon="7.5645683"><ele>977.0000000000001</ele><time>2026-05-01T11:13:49.274Z</time></trkpt><trkpt lat="44.115065" lon="7.5645467"><ele>977.0000000000001</ele><time>2026-05-01T11:13:50.274Z</time></trkpt><trkpt lat="44.11499" lon="7.5645467"><ele>977.0</ele><time>2026-05-01T11:13:51.274Z</time></trkpt><trkpt lat="44.1149167" lon="7.5645583"><ele>977.0000000000001</ele><time>2026-05-01T11:13:52.274Z</time></trkpt><trkpt lat="44.1148467" lon="7.5645867"><ele>977.0000000000001</ele><time>2026-05-01T11:13:53.274Z</time></trkpt><trkpt lat="44.1147767" lon="7.5646267"><ele>976.1666666666667</ele><time>2026-05-01T11:13:54.274Z</time></trkpt><trkpt lat="44.1147183" lon="7.5646783"><ele>975.3333333333334</ele><time>2026-05-01T11:13:55.274Z</time></trkpt><trkpt lat="44.1146667" lon="7.5647483"><ele>974.5</ele><time>2026-05-01T11:13:56.274Z</time></trkpt><trkpt lat="44.1145683" lon="7.5648817"><ele>973.6666666666667</ele><time>2026-05-01T11:13:58.274Z</time></trkpt><trkpt lat="44.1145133" lon="7.564955"><ele>972.8333333333334</ele><time>2026-05-01T11:13:59.274Z</time></trkpt><trkpt lat="44.1144583" lon="7.5650617"><ele>972.0</ele><time>2026-05-01T11:14:00.274Z</time></trkpt><trkpt lat="44.1144133" lon="7.5651817"><ele>972.0</ele><time>2026-05-01T11:14:01.274Z</time></trkpt><trkpt lat="44.114365" lon="7.56529"><ele>972.0</ele><time>2026-05-01T11:14:02.274Z</time></trkpt><trkpt lat="44.1143133" lon="7.56538"><ele>972.0</ele><time>2026-05-01T11:14:03.274Z</time></trkpt><trkpt lat="44.1142283" lon="7.5654317"><ele>972.0</ele><time>2026-05-01T11:14:04.274Z</time></trkpt><trkpt lat="44.11413" lon="7.565475"><ele>972.0</ele><time>2026-05-01T11:14:05.274Z</time></trkpt><trkpt lat="44.114025" lon="7.5654883"><ele>970.4000000000001</ele><time>2026-05-01T11:14:06.275Z</time></trkpt><trkpt lat="44.1139283" lon="7.565475"><ele>968.8000000000001</ele><time>2026-05-01T11:14:07.274Z</time></trkpt><trkpt lat="44.113835" lon="7.5654567"><ele>967.2</ele><time>2026-05-01T11:14:08.275Z</time></trkpt><trkpt lat="44.113745" lon="7.56542"><ele>965.6</ele><time>2026-05-01T11:14:09.274Z</time></trkpt><trkpt lat="44.11365" lon="7.565365"><ele>964.0</ele><time>2026-05-01T11:14:10.274Z</time></trkpt><trkpt lat="44.1135483" lon="7.565315"><ele>964.0</ele><time>2026-05-01T11:14:11.274Z</time></trkpt><trkpt lat="44.11344" lon="7.5652733"><ele>964.0000000000001</ele><time>2026-05-01T11:14:12.274Z</time></trkpt><trkpt lat="44.11334" lon="7.5652367"><ele>964.0000000000001</ele><time>2026-05-01T11:14:13.274Z</time></trkpt><trkpt lat="44.113235" lon="7.5652217"><ele>964.0</ele><time>2026-05-01T11:14:14.274Z</time></trkpt><trkpt lat="44.1131267" lon="7.5652383"><ele>964.0</ele><time>2026-05-01T11:14:15.274Z</time></trkpt><trkpt lat="44.11302" lon="7.565275"><ele>962.0</ele><time>2026-05-01T11:14:16.274Z</time></trkpt><trkpt lat="44.11292" lon="7.56534"><ele>960.0</ele><time>2026-05-01T11:14:17.274Z</time></trkpt><trkpt lat="44.112735" lon="7.5654667"><ele>958.0</ele><time>2026-05-01T11:14:19.274Z</time></trkpt><trkpt lat="44.1126467" lon="7.5655317"><ele>956.0</ele><time>2026-05-01T11:14:20.274Z</time></trkpt><trkpt lat="44.1125583" lon="7.5656033"><ele>956.0</ele><time>2026-05-01T11:14:21.274Z</time></trkpt><trkpt lat="44.1124683" lon="7.5656733"><ele>955.9999999999999</ele><time>2026-05-01T11:14:22.274Z</time></trkpt><trkpt lat="44.11238" lon="7.5657317"><ele>955.9999999999999</ele><time>2026-05-01T11:14:23.275Z</time></trkpt><trkpt lat="44.1122917" lon="7.56578"><ele>956.0</ele><time>2026-05-01T11:14:24.274Z</time></trkpt><trkpt lat="44.1122033" lon="7.5658117"><ele>956.0</ele><time>2026-05-01T11:14:25.275Z</time></trkpt><trkpt lat="44.112115" lon="7.5658267"><ele>955.0000000000001</ele><time>2026-05-01T11:14:26.274Z</time></trkpt><trkpt lat="44.11203" lon="7.5658267"><ele>954.0</ele><time>2026-05-01T11:14:27.274Z</time></trkpt><trkpt lat="44.11195" lon="7.56583"><ele>953.0</ele><time>2026-05-01T11:14:28.274Z</time></trkpt><trkpt lat="44.111875" lon="7.56583"><ele>952.0</ele><time>2026-05-01T11:14:29.275Z</time></trkpt><trkpt lat="44.1118" lon="7.565845"><ele>951.0000000000001</ele><time>2026-05-01T11:14:30.274Z</time></trkpt><trkpt lat="44.1117233" lon="7.565855"><ele>950.0</ele><time>2026-05-01T11:14:31.274Z</time></trkpt><trkpt lat="44.111645" lon="7.5658767"><ele>948.5000000000001</ele><time>2026-05-01T11:14:32.274Z</time></trkpt><trkpt lat="44.1115633" lon="7.5659017"><ele>947.0</ele><time>2026-05-01T11:14:33.274Z</time></trkpt><trkpt lat="44.1114833" lon="7.565925"><ele>945.5</ele><time>2026-05-01T11:14:34.274Z</time></trkpt><trkpt lat="44.1114" lon="7.5659467"><ele>944.0</ele><time>2026-05-01T11:14:35.274Z</time></trkpt><trkpt lat="44.111315" lon="7.5659783"><ele>942.5000000000001</ele><time>2026-05-01T11:14:36.274Z</time></trkpt><trkpt lat="44.1112367" lon="7.5660083"><ele>941.0</ele><time>2026-05-01T11:14:37.274Z</time></trkpt><trkpt lat="44.1111567" lon="7.5660433"><ele>941.0</ele><time>2026-05-01T11:14:38.275Z</time></trkpt><trkpt lat="44.1109733" lon="7.56611"><ele>941.0</ele><time>2026-05-01T11:14:40.274Z</time></trkpt><trkpt lat="44.1108733" lon="7.5661333"><ele>941.0</ele><time>2026-05-01T11:14:41.275Z</time></trkpt><trkpt lat="44.1107783" lon="7.5661833"><ele>941.0</ele><time>2026-05-01T11:14:42.274Z</time></trkpt><trkpt lat="44.1106833" lon="7.56625"><ele>940.5999999999999</ele><time>2026-05-01T11:14:43.274Z</time></trkpt><trkpt lat="44.1105933" lon="7.5663217"><ele>940.1999999999999</ele><time>2026-05-01T11:14:44.274Z</time></trkpt><trkpt lat="44.1105117" lon="7.5663867"><ele>939.8000000000001</ele><time>2026-05-01T11:14:45.274Z</time></trkpt><trkpt lat="44.1104217" lon="7.56646"><ele>939.4000000000001</ele><time>2026-05-01T11:14:46.274Z</time></trkpt><trkpt lat="44.1103333" lon="7.5665583"><ele>939.0</ele><time>2026-05-01T11:14:47.274Z</time></trkpt><trkpt lat="44.11026" lon="7.5666717"><ele>939.0</ele><time>2026-05-01T11:14:48.274Z</time></trkpt><trkpt lat="44.1101917" lon="7.5668067"><ele>939.0</ele><time>2026-05-01T11:14:49.274Z</time></trkpt><trkpt lat="44.11014" lon="7.56696"><ele>939.0</ele><time>2026-05-01T11:14:50.274Z</time></trkpt><trkpt lat="44.1101" lon="7.567125"><ele>939.0</ele><time>2026-05-01T11:14:51.274Z</time></trkpt><trkpt lat="44.1100917" lon="7.567305"><ele>938.75</ele><time>2026-05-01T11:14:52.274Z</time></trkpt><trkpt lat="44.1100833" lon="7.5674767"><ele>938.5</ele><time>2026-05-01T11:14:53.274Z</time></trkpt><trkpt lat="44.1100767" lon="7.5676467"><ele>938.25</ele><time>2026-05-01T11:14:54.274Z</time></trkpt><trkpt lat="44.1100583" lon="7.567815"><ele>938.0</ele><time>2026-05-01T11:14:55.275Z</time></trkpt><trkpt lat="44.11004" lon="7.567975"><ele>938.0</ele><time>2026-05-01T11:14:56.274Z</time></trkpt><trkpt lat="44.1100233" lon="7.5681383"><ele>938.0</ele><time>2026-05-01T11:14:57.274Z</time></trkpt><trkpt lat="44.1100017" lon="7.5683033"><ele>938.0</ele><time>2026-05-01T11:14:58.275Z</time></trkpt><trkpt lat="44.1099883" lon="7.5684617"><ele>938.0</ele><time>2026-05-01T11:14:59.274Z</time></trkpt><trkpt lat="44.1099383" lon="7.568785"><ele>937.5</ele><time>2026-05-01T11:15:01.274Z</time></trkpt><trkpt lat="44.109895" lon="7.5689333"><ele>937.0</ele><time>2026-05-01T11:15:02.274Z</time></trkpt><trkpt lat="44.1098317" lon="7.5690667"><ele>936.5</ele><time>2026-05-01T11:15:03.274Z</time></trkpt><trkpt lat="44.1097533" lon="7.56919"><ele>936.0</ele><time>2026-05-01T11:15:04.274Z</time></trkpt><trkpt lat="44.109665" lon="7.5693033"><ele>936.0</ele><time>2026-05-01T11:15:05.274Z</time></trkpt><trkpt lat="44.1095667" lon="7.5694017"><ele>936.0</ele><time>2026-05-01T11:15:06.274Z</time></trkpt><trkpt lat="44.1094583" lon="7.5694733"><ele>936.0</ele><time>2026-05-01T11:15:07.274Z</time></trkpt><trkpt lat="44.1093467" lon="7.5695333"><ele>936.0</ele><time>2026-05-01T11:15:08.274Z</time></trkpt><trkpt lat="44.1092317" lon="7.5695917"><ele>934.25</ele><time>2026-05-01T11:15:09.274Z</time></trkpt><trkpt lat="44.10911" lon="7.569635"><ele>932.5</ele><time>2026-05-01T11:15:10.275Z</time></trkpt><trkpt lat="44.1089833" lon="7.56967"><ele>930.75</ele><time>2026-05-01T11:15:11.275Z</time></trkpt><trkpt lat="44.1088767" lon="7.5697067"><ele>929.0</ele><time>2026-05-01T11:15:12.274Z</time></trkpt><trkpt lat="44.1087717" lon="7.5697417"><ele>929.0</ele><time>2026-05-01T11:15:13.274Z</time></trkpt><trkpt lat="44.108675" lon="7.5697667"><ele>929.0000000000001</ele><time>2026-05-01T11:15:14.274Z</time></trkpt><trkpt lat="44.1085783" lon="7.5697933"><ele>929.0000000000001</ele><time>2026-05-01T11:15:15.274Z</time></trkpt><trkpt lat="44.1084817" lon="7.5698217"><ele>929.0</ele><time>2026-05-01T11:15:16.274Z</time></trkpt><trkpt lat="44.10839" lon="7.5698667"><ele>929.0</ele><time>2026-05-01T11:15:17.274Z</time></trkpt><trkpt lat="44.1082933" lon="7.56993"><ele>929.75</ele><time>2026-05-01T11:15:18.274Z</time></trkpt><trkpt lat="44.1082233" lon="7.5700317"><ele>930.5</ele><time>2026-05-01T11:15:19.274Z</time></trkpt><trkpt lat="44.108165" lon="7.5701567"><ele>931.25</ele><time>2026-05-01T11:15:20.274Z</time></trkpt><trkpt lat="44.1080683" lon="7.5704267"><ele>932.0</ele><time>2026-05-01T11:15:22.274Z</time></trkpt><trkpt lat="44.1080267" lon="7.5705767"><ele>932.0</ele><time>2026-05-01T11:15:23.274Z</time></trkpt><trkpt lat="44.10799" lon="7.57074"><ele>932.0</ele><time>2026-05-01T11:15:24.274Z</time></trkpt><trkpt lat="44.1079517" lon="7.5708983"><ele>932.0</ele><time>2026-05-01T11:15:25.274Z</time></trkpt><trkpt lat="44.107905" lon="7.5710483"><ele>932.0</ele><time>2026-05-01T11:15:26.275Z</time></trkpt><trkpt lat="44.107845" lon="7.5711933"><ele>930.0</ele><time>2026-05-01T11:15:27.274Z</time></trkpt><trkpt lat="44.1077733" lon="7.57133"><ele>928.0</ele><time>2026-05-01T11:15:28.274Z</time></trkpt><trkpt lat="44.1076967" lon="7.57146"><ele>926.0</ele><time>2026-05-01T11:15:29.274Z</time></trkpt><trkpt lat="44.107615" lon="7.5715833"><ele>924.0</ele><time>2026-05-01T11:15:30.274Z</time></trkpt><trkpt lat="44.1075133" lon="7.5717017"><ele>922.75</ele><time>2026-05-01T11:15:31.274Z</time></trkpt><trkpt lat="44.10741" lon="7.5718183"><ele>921.5</ele><time>2026-05-01T11:15:32.274Z</time></trkpt><trkpt lat="44.1072983" lon="7.571915"><ele>920.25</ele><time>2026-05-01T11:15:33.274Z</time></trkpt><trkpt lat="44.1071867" lon="7.5720117"><ele>919.0</ele><time>2026-05-01T11:15:34.274Z</time></trkpt><trkpt lat="44.1070933" lon="7.5721133"><ele>919.0</ele><time>2026-05-01T11:15:35.274Z</time></trkpt><trkpt lat="44.10699" lon="7.5722083"><ele>919.0</ele><time>2026-05-01T11:15:36.274Z</time></trkpt><trkpt lat="44.10688" lon="7.5722867"><ele>919.0</ele><time>2026-05-01T11:15:37.274Z</time></trkpt><trkpt lat="44.1067583" lon="7.5723617"><ele>919.0</ele><time>2026-05-01T11:15:38.274Z</time></trkpt><trkpt lat="44.10664" lon="7.5724417"><ele>919.6666666666666</ele><time>2026-05-01T11:15:39.274Z</time></trkpt><trkpt lat="44.10651" lon="7.57253"><ele>920.3333333333333</ele><time>2026-05-01T11:15:40.275Z</time></trkpt><trkpt lat="44.1063983" lon="7.5726417"><ele>921.0</ele><time>2026-05-01T11:15:41.274Z</time></trkpt><trkpt lat="44.106175" lon="7.5728367"><ele>922.0</ele><time>2026-05-01T11:15:43.274Z</time></trkpt><trkpt lat="44.10606" lon="7.5729233"><ele>923.0</ele><time>2026-05-01T11:15:44.274Z</time></trkpt><trkpt lat="44.1059433" lon="7.573"><ele>924.0</ele><time>2026-05-01T11:15:45.274Z</time></trkpt><trkpt lat="44.105825" lon="7.5730783"><ele>925.0</ele><time>2026-05-01T11:15:46.274Z</time></trkpt><trkpt lat="44.1056983" lon="7.57315"><ele>920.75</ele><time>2026-05-01T11:15:47.274Z</time></trkpt><trkpt lat="44.10557" lon="7.57324"><ele>916.5</ele><time>2026-05-01T11:15:48.274Z</time></trkpt><trkpt lat="44.1054417" lon="7.573315"><ele>912.25</ele><time>2026-05-01T11:15:49.274Z</time></trkpt><trkpt lat="44.105305" lon="7.5733683"><ele>908.0</ele><time>2026-05-01T11:15:50.274Z</time></trkpt><trkpt lat="44.1051667" lon="7.5734267"><ele>908.0</ele><time>2026-05-01T11:15:51.274Z</time></trkpt><trkpt lat="44.10503" lon="7.5735"><ele>908.0</ele><time>2026-05-01T11:15:52.274Z</time></trkpt><trkpt lat="44.1049117" lon="7.573575"><ele>908.0</ele><time>2026-05-01T11:15:53.274Z</time></trkpt><trkpt lat="44.1047933" lon="7.5736533"><ele>908.0</ele><time>2026-05-01T11:15:54.274Z</time></trkpt><trkpt lat="44.1046667" lon="7.573735"><ele>907.75</ele><time>2026-05-01T11:15:55.274Z</time></trkpt><trkpt lat="44.1045417" lon="7.5738233"><ele>907.5</ele><time>2026-05-01T11:15:56.274Z</time></trkpt><trkpt lat="44.1044533" lon="7.5739567"><ele>907.25</ele><time>2026-05-01T11:15:57.275Z</time></trkpt><trkpt lat="44.1043267" lon="7.5740517"><ele>907.0</ele><time>2026-05-01T11:15:58.274Z</time></trkpt><trkpt lat="44.1041983" lon="7.5741617"><ele>907.0</ele><time>2026-05-01T11:15:59.274Z</time></trkpt><trkpt lat="44.1040767" lon="7.57426"><ele>907.0</ele><time>2026-05-01T11:16:00.274Z</time></trkpt><trkpt lat="44.1039717" lon="7.5743733"><ele>907.0</ele><time>2026-05-01T11:16:01.274Z</time></trkpt><trkpt lat="44.10387" lon="7.5744817"><ele>907.0</ele><time>2026-05-01T11:16:02.274Z</time></trkpt><trkpt lat="44.1036517" lon="7.5746633"><ele>907.0</ele><time>2026-05-01T11:16:04.274Z</time></trkpt><trkpt lat="44.103535" lon="7.5747433"><ele>907.0</ele><time>2026-05-01T11:16:05.274Z</time></trkpt><trkpt lat="44.1034217" lon="7.5748233"><ele>907.0</ele><time>2026-05-01T11:16:06.274Z</time></trkpt><trkpt lat="44.10331" lon="7.574915"><ele>907.0</ele><time>2026-05-01T11:16:07.274Z</time></trkpt><trkpt lat="44.103205" lon="7.5750317"><ele>907.0</ele><time>2026-05-01T11:16:08.274Z</time></trkpt><trkpt lat="44.1031067" lon="7.5751617"><ele>907.0</ele><time>2026-05-01T11:16:09.274Z</time></trkpt><trkpt lat="44.1030133" lon="7.5753017"><ele>907.0</ele><time>2026-05-01T11:16:10.274Z</time></trkpt><trkpt lat="44.1029283" lon="7.5754483"><ele>907.0</ele><time>2026-05-01T11:16:11.274Z</time></trkpt><trkpt lat="44.10286" lon="7.5756117"><ele>907.0</ele><time>2026-05-01T11:16:12.274Z</time></trkpt><trkpt lat="44.102815" lon="7.5757917"><ele>907.0</ele><time>2026-05-01T11:16:13.274Z</time></trkpt><trkpt lat="44.1028217" lon="7.5760033"><ele>907.0</ele><time>2026-05-01T11:16:14.274Z</time></trkpt><trkpt lat="44.102845" lon="7.5762"><ele>907.0</ele><time>2026-05-01T11:16:15.275Z</time></trkpt><trkpt lat="44.1028567" lon="7.576415"><ele>906.25</ele><time>2026-05-01T11:16:16.274Z</time></trkpt><trkpt lat="44.10287" lon="7.576625"><ele>905.5</ele><time>2026-05-01T11:16:17.274Z</time></trkpt><trkpt lat="44.1028833" lon="7.57683"><ele>904.75</ele><time>2026-05-01T11:16:18.274Z</time></trkpt><trkpt lat="44.10289" lon="7.5770317"><ele>904.0</ele><time>2026-05-01T11:16:19.274Z</time></trkpt><trkpt lat="44.1028833" lon="7.577235"><ele>904.0</ele><time>2026-05-01T11:16:20.274Z</time></trkpt><trkpt lat="44.102875" lon="7.57742"><ele>904.0</ele><time>2026-05-01T11:16:21.274Z</time></trkpt><trkpt lat="44.102845" lon="7.5776183"><ele>904.0</ele><time>2026-05-01T11:16:22.274Z</time></trkpt><trkpt lat="44.1028167" lon="7.5778267"><ele>904.0</ele><time>2026-05-01T11:16:23.275Z</time></trkpt><trkpt lat="44.1027767" lon="7.5782317"><ele>902.6666666666666</ele><time>2026-05-01T11:16:25.274Z</time></trkpt><trkpt lat="44.102785" lon="7.5784533"><ele>901.3333333333333</ele><time>2026-05-01T11:16:26.275Z</time></trkpt><trkpt lat="44.1028117" lon="7.5786567"><ele>900.0</ele><time>2026-05-01T11:16:27.274Z</time></trkpt><trkpt lat="44.102845" lon="7.5788683"><ele>899.0</ele><time>2026-05-01T11:16:28.274Z</time></trkpt><trkpt lat="44.102895" lon="7.579065"><ele>898.0</ele><time>2026-05-01T11:16:29.274Z</time></trkpt><trkpt lat="44.1029517" lon="7.5792583"><ele>897.0</ele><time>2026-05-01T11:16:30.274Z</time></trkpt><trkpt lat="44.10299" lon="7.579455"><ele>896.0</ele><time>2026-05-01T11:16:31.274Z</time></trkpt><trkpt lat="44.1030267" lon="7.57967"><ele>894.3333333333334</ele><time>2026-05-01T11:16:32.275Z</time></trkpt><trkpt lat="44.1030433" lon="7.579885"><ele>892.6666666666667</ele><time>2026-05-01T11:16:33.274Z</time></trkpt><trkpt lat="44.1030217" lon="7.5800917"><ele>891.0</ele><time>2026-05-01T11:16:34.274Z</time></trkpt><trkpt lat="44.102985" lon="7.5803017"><ele>889.6666666666667</ele><time>2026-05-01T11:16:35.274Z</time></trkpt><trkpt lat="44.10294" lon="7.580505"><ele>888.3333333333334</ele><time>2026-05-01T11:16:36.274Z</time></trkpt><trkpt lat="44.102905" lon="7.5807183"><ele>887.0</ele><time>2026-05-01T11:16:37.274Z</time></trkpt><trkpt lat="44.10287" lon="7.580935"><ele>887.0</ele><time>2026-05-01T11:16:38.274Z</time></trkpt><trkpt lat="44.10284" lon="7.5811317"><ele>887.0</ele><time>2026-05-01T11:16:39.274Z</time></trkpt><trkpt lat="44.1028217" lon="7.581355"><ele>887.0</ele><time>2026-05-01T11:16:40.275Z</time></trkpt><trkpt lat="44.1027967" lon="7.5815617"><ele>887.0</ele><time>2026-05-01T11:16:41.275Z</time></trkpt><trkpt lat="44.1027367" lon="7.5817583"><ele>887.0</ele><time>2026-05-01T11:16:42.274Z</time></trkpt><trkpt lat="44.10267" lon="7.581925"><ele>887.0</ele><time>2026-05-01T11:16:43.274Z</time></trkpt><trkpt lat="44.1025883" lon="7.582065"><ele>887.0</ele><time>2026-05-01T11:16:44.274Z</time></trkpt><trkpt lat="44.10242" lon="7.5822767"><ele>887.2</ele><time>2026-05-01T11:16:46.275Z</time></trkpt><trkpt lat="44.1023533" lon="7.5823817"><ele>887.4000000000001</ele><time>2026-05-01T11:16:47.274Z</time></trkpt><trkpt lat="44.1023" lon="7.5825083"><ele>887.5999999999999</ele><time>2026-05-01T11:16:48.274Z</time></trkpt><trkpt lat="44.102265" lon="7.5826483"><ele>887.8</ele><time>2026-05-01T11:16:49.274Z</time></trkpt><trkpt lat="44.1022567" lon="7.5828017"><ele>888.0</ele><time>2026-05-01T11:16:50.274Z</time></trkpt><trkpt lat="44.10225" lon="7.582945"><ele>888.0</ele><time>2026-05-01T11:16:51.274Z</time></trkpt><trkpt lat="44.1022383" lon="7.5830983"><ele>888.0</ele><time>2026-05-01T11:16:52.274Z</time></trkpt><trkpt lat="44.1022167" lon="7.5832517"><ele>888.0</ele><time>2026-05-01T11:16:53.274Z</time></trkpt><trkpt lat="44.102165" lon="7.58341"><ele>888.0</ele><time>2026-05-01T11:16:54.274Z</time></trkpt><trkpt lat="44.1020983" lon="7.583555"><ele>887.0</ele><time>2026-05-01T11:16:55.274Z</time></trkpt><trkpt lat="44.10202" lon="7.5836967"><ele>886.0</ele><time>2026-05-01T11:16:56.274Z</time></trkpt><trkpt lat="44.1019417" lon="7.5838383"><ele>885.0</ele><time>2026-05-01T11:16:57.274Z</time></trkpt><trkpt lat="44.101865" lon="7.5839833"><ele>884.0</ele><time>2026-05-01T11:16:58.274Z</time></trkpt><trkpt lat="44.101795" lon="7.5841283"><ele>884.0</ele><time>2026-05-01T11:16:59.274Z</time></trkpt><trkpt lat="44.10173" lon="7.5842667"><ele>884.0</ele><time>2026-05-01T11:17:00.274Z</time></trkpt><trkpt lat="44.1016633" lon="7.5844033"><ele>884.0</ele><time>2026-05-01T11:17:01.274Z</time></trkpt><trkpt lat="44.10162" lon="7.5845417"><ele>884.0</ele><time>2026-05-01T11:17:02.274Z</time></trkpt><trkpt lat="44.1015917" lon="7.5846833"><ele>881.75</ele><time>2026-05-01T11:17:03.274Z</time></trkpt><trkpt lat="44.1016" lon="7.58481"><ele>879.5</ele><time>2026-05-01T11:17:04.274Z</time></trkpt><trkpt lat="44.1016267" lon="7.5849267"><ele>877.25</ele><time>2026-05-01T11:17:05.274Z</time></trkpt><trkpt lat="44.1017117" lon="7.5851583"><ele>875.0</ele><time>2026-05-01T11:17:07.274Z</time></trkpt><trkpt lat="44.1017433" lon="7.5852933"><ele>874.0</ele><time>2026-05-01T11:17:08.274Z</time></trkpt><trkpt lat="44.1017433" lon="7.5854333"><ele>873.0</ele><time>2026-05-01T11:17:09.275Z</time></trkpt><trkpt lat="44.101725" lon="7.5855667"><ele>872.0</ele><time>2026-05-01T11:17:10.274Z</time></trkpt><trkpt lat="44.1016917" lon="7.5856967"><ele>871.0</ele><time>2026-05-01T11:17:11.275Z</time></trkpt><trkpt lat="44.101645" lon="7.5858083"><ele>870.0</ele><time>2026-05-01T11:17:12.274Z</time></trkpt><trkpt lat="44.1015783" lon="7.5858867"><ele>870.0</ele><time>2026-05-01T11:17:13.274Z</time></trkpt><trkpt lat="44.1014967" lon="7.5859417"><ele>870.0</ele><time>2026-05-01T11:17:14.274Z</time></trkpt><trkpt lat="44.1013917" lon="7.5859633"><ele>870.0</ele><time>2026-05-01T11:17:15.275Z</time></trkpt><trkpt lat="44.1012833" lon="7.5859733"><ele>870.0</ele><time>2026-05-01T11:17:16.274Z</time></trkpt><trkpt lat="44.1011717" lon="7.5859567"><ele>870.0</ele><time>2026-05-01T11:17:17.274Z</time></trkpt><trkpt lat="44.1010633" lon="7.5859267"><ele>870.0</ele><time>2026-05-01T11:17:18.274Z</time></trkpt><trkpt lat="44.1009567" lon="7.585905"><ele>870.0</ele><time>2026-05-01T11:17:19.274Z</time></trkpt><trkpt lat="44.10084" lon="7.5858917"><ele>870.0</ele><time>2026-05-01T11:17:20.274Z</time></trkpt><trkpt lat="44.1007383" lon="7.5859283"><ele>870.0</ele><time>2026-05-01T11:17:21.274Z</time></trkpt><trkpt lat="44.100655" lon="7.5860033"><ele>870.0</ele><time>2026-05-01T11:17:22.274Z</time></trkpt><trkpt lat="44.1005883" lon="7.5861233"><ele>874.75</ele><time>2026-05-01T11:17:23.274Z</time></trkpt><trkpt lat="44.1005317" lon="7.5862717"><ele>879.5</ele><time>2026-05-01T11:17:24.274Z</time></trkpt><trkpt lat="44.1004783" lon="7.586435"><ele>884.25</ele><time>2026-05-01T11:17:25.274Z</time></trkpt><trkpt lat="44.1004317" lon="7.5866133"><ele>889.0</ele><time>2026-05-01T11:17:26.274Z</time></trkpt><trkpt lat="44.1003383" lon="7.5869983"><ele>883.75</ele><time>2026-05-01T11:17:28.274Z</time></trkpt><trkpt lat="44.100305" lon="7.5871883"><ele>878.5</ele><time>2026-05-01T11:17:29.274Z</time></trkpt><trkpt lat="44.1002867" lon="7.5873867"><ele>873.25</ele><time>2026-05-01T11:17:30.274Z</time></trkpt><trkpt lat="44.1002783" lon="7.5875867"><ele>868.0</ele><time>2026-05-01T11:17:31.274Z</time></trkpt><trkpt lat="44.1002717" lon="7.58779"><ele>866.0</ele><time>2026-05-01T11:17:32.275Z</time></trkpt><trkpt lat="44.1002583" lon="7.58797"><ele>864.0</ele><time>2026-05-01T11:17:33.274Z</time></trkpt><trkpt lat="44.1002367" lon="7.5881483"><ele>862.0</ele><time>2026-05-01T11:17:34.274Z</time></trkpt><trkpt lat="44.1001867" lon="7.5883283"><ele>860.0</ele><time>2026-05-01T11:17:35.274Z</time></trkpt><trkpt lat="44.1001167" lon="7.5884883"><ele>860.0</ele><time>2026-05-01T11:17:36.275Z</time></trkpt><trkpt lat="44.10002" lon="7.5886167"><ele>860.0</ele><time>2026-05-01T11:17:37.274Z</time></trkpt><trkpt lat="44.09993" lon="7.58873"><ele>860.0</ele><time>2026-05-01T11:17:38.274Z</time></trkpt><trkpt lat="44.09983" lon="7.58881"><ele>860.0</ele><time>2026-05-01T11:17:39.274Z</time></trkpt><trkpt lat="44.099725" lon="7.588845"><ele>861.0</ele><time>2026-05-01T11:17:40.275Z</time></trkpt><trkpt lat="44.0996283" lon="7.5888533"><ele>862.0</ele><time>2026-05-01T11:17:41.274Z</time></trkpt><trkpt lat="44.09953" lon="7.588825"><ele>863.0</ele><time>2026-05-01T11:17:42.274Z</time></trkpt><trkpt lat="44.0994333" lon="7.588785"><ele>864.0</ele><time>2026-05-01T11:17:43.275Z</time></trkpt><trkpt lat="44.0993367" lon="7.5887367"><ele>865.0</ele><time>2026-05-01T11:17:44.275Z</time></trkpt><trkpt lat="44.0992383" lon="7.5886883"><ele>862.6666666666666</ele><time>2026-05-01T11:17:45.274Z</time></trkpt><trkpt lat="44.0991267" lon="7.58865"><ele>860.3333333333333</ele><time>2026-05-01T11:17:46.274Z</time></trkpt><trkpt lat="44.0990017" lon="7.5886083"><ele>858.0</ele><time>2026-05-01T11:17:47.275Z</time></trkpt><trkpt lat="44.0987467" lon="7.5885717"><ele>858.0</ele><time>2026-05-01T11:17:49.275Z</time></trkpt><trkpt lat="44.0986183" lon="7.58857"><ele>858.0</ele><time>2026-05-01T11:17:50.274Z</time></trkpt><trkpt lat="44.0984917" lon="7.5885683"><ele>858.0</ele><time>2026-05-01T11:17:51.274Z</time></trkpt><trkpt lat="44.0983617" lon="7.5885633"><ele>858.0</ele><time>2026-05-01T11:17:52.274Z</time></trkpt><trkpt lat="44.0982333" lon="7.5885567"><ele>858.0</ele><time>2026-05-01T11:17:53.275Z</time></trkpt><trkpt lat="44.0981" lon="7.58856"><ele>858.0</ele><time>2026-05-01T11:17:54.274Z</time></trkpt><trkpt lat="44.0979767" lon="7.5885767"><ele>858.0</ele><time>2026-05-01T11:17:55.274Z</time></trkpt><trkpt lat="44.0978517" lon="7.5885867"><ele>858.0</ele><time>2026-05-01T11:17:56.274Z</time></trkpt><trkpt lat="44.097725" lon="7.5885967"><ele>858.0</ele><time>2026-05-01T11:17:57.275Z</time></trkpt><trkpt lat="44.0975983" lon="7.5885983"><ele>858.0</ele><time>2026-05-01T11:17:58.274Z</time></trkpt><trkpt lat="44.0974683" lon="7.5886"><ele>858.0</ele><time>2026-05-01T11:17:59.274Z</time></trkpt><trkpt lat="44.09734" lon="7.5885983"><ele>858.0</ele><time>2026-05-01T11:18:00.274Z</time></trkpt><trkpt lat="44.097215" lon="7.5886133"><ele>860.5</ele><time>2026-05-01T11:18:01.275Z</time></trkpt><trkpt lat="44.0971" lon="7.5886333"><ele>863.0</ele><time>2026-05-01T11:18:02.274Z</time></trkpt><trkpt lat="44.09698" lon="7.5886617"><ele>865.5</ele><time>2026-05-01T11:18:03.274Z</time></trkpt><trkpt lat="44.0968667" lon="7.588695"><ele>868.0</ele><time>2026-05-01T11:18:04.274Z</time></trkpt><trkpt lat="44.0967483" lon="7.5887467"><ele>863.5</ele><time>2026-05-01T11:18:05.274Z</time></trkpt><trkpt lat="44.0966317" lon="7.5888083"><ele>859.0</ele><time>2026-05-01T11:18:06.274Z</time></trkpt><trkpt lat="44.096505" lon="7.588875"><ele>854.5</ele><time>2026-05-01T11:18:07.274Z</time></trkpt><trkpt lat="44.096385" lon="7.5889433"><ele>850.0</ele><time>2026-05-01T11:18:08.274Z</time></trkpt><trkpt lat="44.09612" lon="7.58908"><ele>850.0</ele><time>2026-05-01T11:18:10.274Z</time></trkpt><trkpt lat="44.096" lon="7.5891417"><ele>850.0</ele><time>2026-05-01T11:18:11.274Z</time></trkpt><trkpt lat="44.0958867" lon="7.5892017"><ele>850.0</ele><time>2026-05-01T11:18:12.274Z</time></trkpt><trkpt lat="44.095775" lon="7.5892617"><ele>850.0</ele><time>2026-05-01T11:18:13.274Z</time></trkpt><trkpt lat="44.0956617" lon="7.5893183"><ele>852.75</ele><time>2026-05-01T11:18:14.274Z</time></trkpt><trkpt lat="44.0955467" lon="7.5893783"><ele>855.5</ele><time>2026-05-01T11:18:15.274Z</time></trkpt><trkpt lat="44.0954267" lon="7.5894367"><ele>858.25</ele><time>2026-05-01T11:18:16.274Z</time></trkpt><trkpt lat="44.095305" lon="7.5894933"><ele>861.0</ele><time>2026-05-01T11:18:17.274Z</time></trkpt><trkpt lat="44.0951867" lon="7.5895467"><ele>857.0</ele><time>2026-05-01T11:18:18.274Z</time></trkpt><trkpt lat="44.09507" lon="7.5896"><ele>853.0</ele><time>2026-05-01T11:18:19.275Z</time></trkpt><trkpt lat="44.0949583" lon="7.5896483"><ele>849.0</ele><time>2026-05-01T11:18:20.274Z</time></trkpt><trkpt lat="44.0948433" lon="7.5896933"><ele>845.0</ele><time>2026-05-01T11:18:21.275Z</time></trkpt><trkpt lat="44.0947383" lon="7.5897283"><ele>845.0</ele><time>2026-05-01T11:18:22.274Z</time></trkpt><trkpt lat="44.094635" lon="7.589755"><ele>845.0</ele><time>2026-05-01T11:18:23.274Z</time></trkpt><trkpt lat="44.0945233" lon="7.5897917"><ele>845.0</ele><time>2026-05-01T11:18:24.274Z</time></trkpt><trkpt lat="44.09439" lon="7.5898467"><ele>845.0</ele><time>2026-05-01T11:18:25.274Z</time></trkpt><trkpt lat="44.0942567" lon="7.5899117"><ele>845.0</ele><time>2026-05-01T11:18:26.274Z</time></trkpt><trkpt lat="44.0941267" lon="7.58998"><ele>845.0</ele><time>2026-05-01T11:18:27.275Z</time></trkpt><trkpt lat="44.094" lon="7.5900633"><ele>845.0</ele><time>2026-05-01T11:18:28.274Z</time></trkpt><trkpt lat="44.0938867" lon="7.59015"><ele>845.0</ele><time>2026-05-01T11:18:29.274Z</time></trkpt><trkpt lat="44.0936667" lon="7.5903133"><ele>845.0</ele><time>2026-05-01T11:18:31.274Z</time></trkpt><trkpt lat="44.09357" lon="7.5903533"><ele>845.0</ele><time>2026-05-01T11:18:32.274Z</time></trkpt><trkpt lat="44.0934567" lon="7.590415"><ele>845.0</ele><time>2026-05-01T11:18:33.274Z</time></trkpt><trkpt lat="44.0933417" lon="7.590475"><ele>845.0</ele><time>2026-05-01T11:18:34.274Z</time></trkpt><trkpt lat="44.0932233" lon="7.590535"><ele>845.0</ele><time>2026-05-01T11:18:35.274Z</time></trkpt><trkpt lat="44.0930983" lon="7.590595"><ele>845.0</ele><time>2026-05-01T11:18:36.274Z</time></trkpt><trkpt lat="44.09298" lon="7.590665"><ele>845.0</ele><time>2026-05-01T11:18:37.274Z</time></trkpt><trkpt lat="44.0928683" lon="7.5907433"><ele>845.0</ele><time>2026-05-01T11:18:38.274Z</time></trkpt><trkpt lat="44.092765" lon="7.5908467"><ele>845.0</ele><time>2026-05-01T11:18:39.274Z</time></trkpt><trkpt lat="44.0926683" lon="7.590975"><ele>845.0</ele><time>2026-05-01T11:18:40.274Z</time></trkpt><trkpt lat="44.09257" lon="7.5911"><ele>845.0</ele><time>2026-05-01T11:18:41.275Z</time></trkpt><trkpt lat="44.0924617" lon="7.5912033"><ele>845.0</ele><time>2026-05-01T11:18:42.274Z</time></trkpt><trkpt lat="44.092355" lon="7.5913017"><ele>843.0</ele><time>2026-05-01T11:18:43.274Z</time></trkpt><trkpt lat="44.0922467" lon="7.5913833"><ele>841.0</ele><time>2026-05-01T11:18:44.274Z</time></trkpt><trkpt lat="44.09214" lon="7.5914467"><ele>839.0</ele><time>2026-05-01T11:18:45.274Z</time></trkpt><trkpt lat="44.09204" lon="7.591505"><ele>837.0</ele><time>2026-05-01T11:18:46.274Z</time></trkpt><trkpt lat="44.091945" lon="7.5915717"><ele>837.0</ele><time>2026-05-01T11:18:47.274Z</time></trkpt><trkpt lat="44.09186" lon="7.5916483"><ele>837.0</ele><time>2026-05-01T11:18:48.274Z</time></trkpt><trkpt lat="44.09179" lon="7.5917217"><ele>837.0</ele><time>2026-05-01T11:18:49.274Z</time></trkpt><trkpt lat="44.091725" lon="7.5917933"><ele>837.0</ele><time>2026-05-01T11:18:50.274Z</time></trkpt><trkpt lat="44.0915717" lon="7.59194"><ele>838.2</ele><time>2026-05-01T11:18:53.274Z</time></trkpt><trkpt lat="44.0915" lon="7.5919933"><ele>839.4000000000001</ele><time>2026-05-01T11:18:55.274Z</time></trkpt><trkpt lat="44.0914383" lon="7.592065"><ele>840.5999999999999</ele><time>2026-05-01T11:18:57.274Z</time></trkpt><trkpt lat="44.0913567" lon="7.5921517"><ele>841.8</ele><time>2026-05-01T11:18:59.275Z</time></trkpt><trkpt lat="44.0912467" lon="7.5922417"><ele>843.0</ele><time>2026-05-01T11:19:01.274Z</time></trkpt><trkpt lat="44.091135" lon="7.5923067"><ele>840.8</ele><time>2026-05-01T11:19:03.275Z</time></trkpt><trkpt lat="44.0910433" lon="7.5923633"><ele>838.5999999999999</ele><time>2026-05-01T11:19:05.275Z</time></trkpt><trkpt lat="44.0909617" lon="7.592435"><ele>836.4000000000001</ele><time>2026-05-01T11:19:07.275Z</time></trkpt><trkpt lat="44.0908717" lon="7.5924817"><ele>834.2</ele><time>2026-05-01T11:19:09.274Z</time></trkpt><trkpt lat="44.0907533" lon="7.5925283"><ele>832.0</ele><time>2026-05-01T11:19:11.274Z</time></trkpt><trkpt lat="44.0906183" lon="7.5925817"><ele>832.0</ele><time>2026-05-01T11:19:13.274Z</time></trkpt><trkpt lat="44.090555" lon="7.5926167"><ele>832.0</ele><time>2026-05-01T11:19:14.274Z</time></trkpt><trkpt lat="44.0904917" lon="7.5926483"><ele>832.0</ele><time>2026-05-01T11:19:15.274Z</time></trkpt><trkpt lat="44.0903783" lon="7.592685"><ele>832.0</ele><time>2026-05-01T11:19:17.274Z</time></trkpt><trkpt lat="44.0902667" lon="7.5927367"><ele>832.0</ele><time>2026-05-01T11:19:19.274Z</time></trkpt><trkpt lat="44.090165" lon="7.5927717"><ele>832.0</ele><time>2026-05-01T11:19:21.274Z</time></trkpt><trkpt lat="44.090105" lon="7.5927983"><ele>832.0</ele><time>2026-05-01T11:19:23.274Z</time></trkpt><trkpt lat="44.0900367" lon="7.59282"><ele>832.0</ele><time>2026-05-01T11:19:25.275Z</time></trkpt><trkpt lat="44.0899633" lon="7.5928483"><ele>832.0</ele><time>2026-05-01T11:19:27.275Z</time></trkpt><trkpt lat="44.08989" lon="7.5928767"><ele>832.0</ele><time>2026-05-01T11:19:29.274Z</time></trkpt><trkpt lat="44.089815" lon="7.5928917"><ele>832.0</ele><time>2026-05-01T11:19:31.275Z</time></trkpt><trkpt lat="44.0897317" lon="7.5929117"><ele>832.0</ele><time>2026-05-01T11:19:33.275Z</time></trkpt><trkpt lat="44.0895717" lon="7.5929833"><ele>830.4000000000001</ele><time>2026-05-01T11:19:37.274Z</time></trkpt><trkpt lat="44.0894867" lon="7.5930317"><ele>828.8000000000001</ele><time>2026-05-01T11:19:39.274Z</time></trkpt><trkpt lat="44.0893917" lon="7.5930683"><ele>827.2</ele><time>2026-05-01T11:19:41.275Z</time></trkpt><trkpt lat="44.0892917" lon="7.5931067"><ele>825.6</ele><time>2026-05-01T11:19:43.274Z</time></trkpt><trkpt lat="44.0891883" lon="7.5931617"><ele>824.0</ele><time>2026-05-01T11:19:45.274Z</time></trkpt><trkpt lat="44.0891283" lon="7.59319"><ele>824.0000000000001</ele><time>2026-05-01T11:19:46.274Z</time></trkpt><trkpt lat="44.0890667" lon="7.5932117"><ele>824.0</ele><time>2026-05-01T11:19:47.274Z</time></trkpt><trkpt lat="44.08894" lon="7.5932483"><ele>824.0</ele><time>2026-05-01T11:19:49.274Z</time></trkpt><trkpt lat="44.0888667" lon="7.59327"><ele>824.0</ele><time>2026-05-01T11:19:50.275Z</time></trkpt><trkpt lat="44.088795" lon="7.59329"><ele>824.0000000000001</ele><time>2026-05-01T11:19:51.274Z</time></trkpt><trkpt lat="44.0887233" lon="7.5933117"><ele>824.0</ele><time>2026-05-01T11:19:52.274Z</time></trkpt><trkpt lat="44.088655" lon="7.59333"><ele>824.0</ele><time>2026-05-01T11:19:53.274Z</time></trkpt><trkpt lat="44.0885483" lon="7.5933733"><ele>824.0</ele><time>2026-05-01T11:19:55.274Z</time></trkpt><trkpt lat="44.08836" lon="7.59346"><ele>824.0</ele><time>2026-05-01T11:19:59.274Z</time></trkpt><trkpt lat="44.0882683" lon="7.59349"><ele>824.0</ele><time>2026-05-01T11:20:01.274Z</time></trkpt><trkpt lat="44.0881817" lon="7.5935233"><ele>824.1666666666667</ele><time>2026-05-01T11:20:03.274Z</time></trkpt><trkpt lat="44.08812" lon="7.593555"><ele>824.3333333333334</ele><time>2026-05-01T11:20:05.274Z</time></trkpt><trkpt lat="44.08804" lon="7.5935717"><ele>824.5</ele><time>2026-05-01T11:20:07.275Z</time></trkpt><trkpt lat="44.0879583" lon="7.59359"><ele>824.6666666666667</ele><time>2026-05-01T11:20:09.275Z</time></trkpt><trkpt lat="44.0878783" lon="7.5936217"><ele>824.8333333333334</ele><time>2026-05-01T11:20:11.274Z</time></trkpt><trkpt lat="44.087805" lon="7.5936383"><ele>825.0</ele><time>2026-05-01T11:20:13.274Z</time></trkpt><trkpt lat="44.087715" lon="7.5936367"><ele>825.0</ele><time>2026-05-01T11:20:15.274Z</time></trkpt><trkpt lat="44.08762" lon="7.5936233"><ele>825.0</ele><time>2026-05-01T11:20:17.274Z</time></trkpt><trkpt lat="44.0874783" lon="7.59368"><ele>825.0</ele><time>2026-05-01T11:20:21.274Z</time></trkpt><trkpt lat="44.0873717" lon="7.5937217"><ele>825.0</ele><time>2026-05-01T11:20:23.274Z</time></trkpt><trkpt lat="44.0873067" lon="7.59373"><ele>825.0</ele><time>2026-05-01T11:20:24.274Z</time></trkpt><trkpt lat="44.0872283" lon="7.5937333"><ele>825.0</ele><time>2026-05-01T11:20:25.274Z</time></trkpt><trkpt lat="44.087145" lon="7.59372"><ele>825.0</ele><time>2026-05-01T11:20:26.274Z</time></trkpt><trkpt lat="44.087045" lon="7.5936917"><ele>825.0</ele><time>2026-05-01T11:20:27.274Z</time></trkpt><trkpt lat="44.0869433" lon="7.5936683"><ele>825.0</ele><time>2026-05-01T11:20:28.274Z</time></trkpt><trkpt lat="44.0868483" lon="7.59364"><ele>825.0</ele><time>2026-05-01T11:20:29.274Z</time></trkpt><trkpt lat="44.0867583" lon="7.5936017"><ele>825.0</ele><time>2026-05-01T11:20:30.274Z</time></trkpt><trkpt lat="44.0866717" lon="7.5935767"><ele>825.0</ele><time>2026-05-01T11:20:31.274Z</time></trkpt><trkpt lat="44.0865833" lon="7.5935717"><ele>825.0</ele><time>2026-05-01T11:20:32.274Z</time></trkpt><trkpt lat="44.0864967" lon="7.593575"><ele>825.0</ele><time>2026-05-01T11:20:33.274Z</time></trkpt><trkpt lat="44.0864117" lon="7.5936017"><ele>825.0</ele><time>2026-05-01T11:20:34.275Z</time></trkpt><trkpt lat="44.0863217" lon="7.593645"><ele>825.0</ele><time>2026-05-01T11:20:35.274Z</time></trkpt><trkpt lat="44.0862333" lon="7.59369"><ele>819.0</ele><time>2026-05-01T11:20:36.274Z</time></trkpt><trkpt lat="44.0861417" lon="7.5937433"><ele>813.0</ele><time>2026-05-01T11:20:37.274Z</time></trkpt><trkpt lat="44.0860367" lon="7.5937783"><ele>807.0</ele><time>2026-05-01T11:20:38.274Z</time></trkpt><trkpt lat="44.085835" lon="7.5938133"><ele>801.0</ele><time>2026-05-01T11:20:40.274Z</time></trkpt><trkpt lat="44.0857317" lon="7.59383"><ele>801.0</ele><time>2026-05-01T11:20:41.274Z</time></trkpt><trkpt lat="44.085635" lon="7.5938417"><ele>801.0</ele><time>2026-05-01T11:20:42.274Z</time></trkpt><trkpt lat="44.085525" lon="7.5938483"><ele>801.0</ele><time>2026-05-01T11:20:43.274Z</time></trkpt><trkpt lat="44.0854083" lon="7.59384"><ele>801.0</ele><time>2026-05-01T11:20:44.274Z</time></trkpt><trkpt lat="44.0853" lon="7.59382"><ele>801.0</ele><time>2026-05-01T11:20:45.274Z</time></trkpt><trkpt lat="44.0851917" lon="7.593795"><ele>801.0</ele><time>2026-05-01T11:20:46.275Z</time></trkpt><trkpt lat="44.085085" lon="7.5937483"><ele>801.0</ele><time>2026-05-01T11:20:47.275Z</time></trkpt><trkpt lat="44.0849783" lon="7.5937117"><ele>801.0</ele><time>2026-05-01T11:20:48.274Z</time></trkpt><trkpt lat="44.0848817" lon="7.5936683"><ele>801.0</ele><time>2026-05-01T11:20:49.274Z</time></trkpt><trkpt lat="44.084785" lon="7.5936317"><ele>801.0</ele><time>2026-05-01T11:20:50.274Z</time></trkpt><trkpt lat="44.0846883" lon="7.5935867"><ele>801.8</ele><time>2026-05-01T11:20:51.274Z</time></trkpt><trkpt lat="44.0846133" lon="7.59353"><ele>802.5999999999999</ele><time>2026-05-01T11:20:52.274Z</time></trkpt><trkpt lat="44.0845183" lon="7.5935033"><ele>803.4</ele><time>2026-05-01T11:20:53.274Z</time></trkpt><trkpt lat="44.084415" lon="7.59349"><ele>804.2</ele><time>2026-05-01T11:20:54.274Z</time></trkpt><trkpt lat="44.0843017" lon="7.5934783"><ele>805.0</ele><time>2026-05-01T11:20:55.275Z</time></trkpt><trkpt lat="44.0841917" lon="7.5934767"><ele>804.75</ele><time>2026-05-01T11:20:56.274Z</time></trkpt><trkpt lat="44.084085" lon="7.5934933"><ele>804.5</ele><time>2026-05-01T11:20:57.274Z</time></trkpt><trkpt lat="44.083975" lon="7.5935167"><ele>804.25</ele><time>2026-05-01T11:20:58.274Z</time></trkpt><trkpt lat="44.08388" lon="7.5935433"><ele>804.0</ele><time>2026-05-01T11:20:59.274Z</time></trkpt><trkpt lat="44.0836867" lon="7.59358"><ele>804.0</ele><time>2026-05-01T11:21:01.274Z</time></trkpt><trkpt lat="44.0835933" lon="7.5936133"><ele>804.0</ele><time>2026-05-01T11:21:02.274Z</time></trkpt><trkpt lat="44.0835267" lon="7.5936917"><ele>804.0</ele><time>2026-05-01T11:21:03.274Z</time></trkpt><trkpt lat="44.083485" lon="7.593785"><ele>804.0</ele><time>2026-05-01T11:21:04.274Z</time></trkpt><trkpt lat="44.0834683" lon="7.5938883"><ele>804.0</ele><time>2026-05-01T11:21:05.274Z</time></trkpt><trkpt lat="44.083475" lon="7.5940167"><ele>804.0</ele><time>2026-05-01T11:21:06.274Z</time></trkpt><trkpt lat="44.0834917" lon="7.59415"><ele>802.4000000000001</ele><time>2026-05-01T11:21:07.274Z</time></trkpt><trkpt lat="44.0835083" lon="7.594275"><ele>800.8</ele><time>2026-05-01T11:21:08.274Z</time></trkpt><trkpt lat="44.0834933" lon="7.5943883"><ele>799.2</ele><time>2026-05-01T11:21:09.274Z</time></trkpt><trkpt lat="44.0834567" lon="7.5944933"><ele>797.5999999999999</ele><time>2026-05-01T11:21:10.274Z</time></trkpt><trkpt lat="44.0833817" lon="7.5945883"><ele>796.0</ele><time>2026-05-01T11:21:11.274Z</time></trkpt><trkpt lat="44.0833083" lon="7.59469"><ele>794.5999999999999</ele><time>2026-05-01T11:21:12.274Z</time></trkpt><trkpt lat="44.08322" lon="7.5947783"><ele>793.2</ele><time>2026-05-01T11:21:13.274Z</time></trkpt><trkpt lat="44.0831367" lon="7.5948633"><ele>791.8</ele><time>2026-05-01T11:21:14.274Z</time></trkpt><trkpt lat="44.0830583" lon="7.5949233"><ele>790.4000000000001</ele><time>2026-05-01T11:21:15.275Z</time></trkpt><trkpt lat="44.0829933" lon="7.594975"><ele>789.0</ele><time>2026-05-01T11:21:16.275Z</time></trkpt><trkpt lat="44.082905" lon="7.5950633"><ele>789.0</ele><time>2026-05-01T11:21:18.274Z</time></trkpt><trkpt lat="44.08284" lon="7.5951567"><ele>789.0</ele><time>2026-05-01T11:21:20.274Z</time></trkpt><trkpt lat="44.0826683" lon="7.59537"><ele>789.0</ele><time>2026-05-01T11:21:23.275Z</time></trkpt><trkpt lat="44.0825867" lon="7.5954633"><ele>789.0</ele><time>2026-05-01T11:21:24.274Z</time></trkpt><trkpt lat="44.08249" lon="7.595565"><ele>789.3333333333333</ele><time>2026-05-01T11:21:25.274Z</time></trkpt><trkpt lat="44.0823717" lon="7.59569"><ele>789.6666666666666</ele><time>2026-05-01T11:21:26.274Z</time></trkpt><trkpt lat="44.082245" lon="7.595825"><ele>790.0</ele><time>2026-05-01T11:21:27.274Z</time></trkpt><trkpt lat="44.0821067" lon="7.5959633"><ele>790.0</ele><time>2026-05-01T11:21:28.274Z</time></trkpt><trkpt lat="44.0819633" lon="7.5961067"><ele>790.0</ele><time>2026-05-01T11:21:29.274Z</time></trkpt><trkpt lat="44.08182" lon="7.5962517"><ele>790.0</ele><time>2026-05-01T11:21:30.274Z</time></trkpt><trkpt lat="44.0816783" lon="7.5964033"><ele>790.0</ele><time>2026-05-01T11:21:31.274Z</time></trkpt><trkpt lat="44.0815333" lon="7.59655"><ele>790.0</ele><time>2026-05-01T11:21:32.275Z</time></trkpt><trkpt lat="44.08139" lon="7.5967017"><ele>790.0</ele><time>2026-05-01T11:21:33.274Z</time></trkpt><trkpt lat="44.0812467" lon="7.59684"><ele>790.0</ele><time>2026-05-01T11:21:34.274Z</time></trkpt><trkpt lat="44.0811067" lon="7.596975"><ele>790.0</ele><time>2026-05-01T11:21:35.274Z</time></trkpt><trkpt lat="44.080965" lon="7.5971067"><ele>790.0</ele><time>2026-05-01T11:21:36.274Z</time></trkpt><trkpt lat="44.0808183" lon="7.5972367"><ele>789.3333333333333</ele><time>2026-05-01T11:21:37.274Z</time></trkpt><trkpt lat="44.08068" lon="7.5973767"><ele>788.6666666666667</ele><time>2026-05-01T11:21:38.274Z</time></trkpt><trkpt lat="44.080535" lon="7.5975067"><ele>788.0</ele><time>2026-05-01T11:21:39.274Z</time></trkpt><trkpt lat="44.08039" lon="7.5976383"><ele>788.0</ele><time>2026-05-01T11:21:40.274Z</time></trkpt><trkpt lat="44.0802617" lon="7.5977583"><ele>788.0</ele><time>2026-05-01T11:21:41.274Z</time></trkpt><trkpt lat="44.08001" lon="7.598005"><ele>786.25</ele><time>2026-05-01T11:21:43.274Z</time></trkpt><trkpt lat="44.0798883" lon="7.59812"><ele>784.5</ele><time>2026-05-01T11:21:44.274Z</time></trkpt><trkpt lat="44.0797617" lon="7.59823"><ele>782.75</ele><time>2026-05-01T11:21:45.274Z</time></trkpt><trkpt lat="44.079635" lon="7.598345"><ele>781.0</ele><time>2026-05-01T11:21:46.274Z</time></trkpt><trkpt lat="44.0795117" lon="7.5984533"><ele>781.0</ele><time>2026-05-01T11:21:47.274Z</time></trkpt><trkpt lat="44.079395" lon="7.5985617"><ele>781.0</ele><time>2026-05-01T11:21:48.274Z</time></trkpt><trkpt lat="44.0792667" lon="7.59865"><ele>781.0</ele><time>2026-05-01T11:21:49.274Z</time></trkpt><trkpt lat="44.0791333" lon="7.5987233"><ele>781.0</ele><time>2026-05-01T11:21:50.275Z</time></trkpt><trkpt lat="44.079" lon="7.5987783"><ele>782.5</ele><time>2026-05-01T11:21:51.274Z</time></trkpt><trkpt lat="44.0788517" lon="7.59881"><ele>784.0</ele><time>2026-05-01T11:21:52.274Z</time></trkpt><trkpt lat="44.0787233" lon="7.59881"><ele>785.5</ele><time>2026-05-01T11:21:53.274Z</time></trkpt><trkpt lat="44.0786033" lon="7.5987883"><ele>787.0</ele><time>2026-05-01T11:21:54.275Z</time></trkpt><trkpt lat="44.0784783" lon="7.5987667"><ele>787.0</ele><time>2026-05-01T11:21:55.274Z</time></trkpt><trkpt lat="44.0783483" lon="7.5987367"><ele>787.0</ele><time>2026-05-01T11:21:56.274Z</time></trkpt><trkpt lat="44.07823" lon="7.5987233"><ele>787.0</ele><time>2026-05-01T11:21:57.274Z</time></trkpt><trkpt lat="44.07811" lon="7.5987167"><ele>787.0</ele><time>2026-05-01T11:21:58.274Z</time></trkpt><trkpt lat="44.0779967" lon="7.5987033"><ele>786.25</ele><time>2026-05-01T11:21:59.274Z</time></trkpt><trkpt lat="44.0778833" lon="7.5986917"><ele>785.5</ele><time>2026-05-01T11:22:00.275Z</time></trkpt><trkpt lat="44.0777667" lon="7.59869"><ele>784.75</ele><time>2026-05-01T11:22:01.275Z</time></trkpt><trkpt lat="44.0776383" lon="7.5987017"><ele>784.0</ele><time>2026-05-01T11:22:02.275Z</time></trkpt><trkpt lat="44.07738" lon="7.598765"><ele>783.0</ele><time>2026-05-01T11:22:04.274Z</time></trkpt><trkpt lat="44.0772417" lon="7.5988133"><ele>782.0</ele><time>2026-05-01T11:22:05.274Z</time></trkpt><trkpt lat="44.0771017" lon="7.598865"><ele>781.0</ele><time>2026-05-01T11:22:06.274Z</time></trkpt><trkpt lat="44.076965" lon="7.5989267"><ele>780.0</ele><time>2026-05-01T11:22:07.274Z</time></trkpt><trkpt lat="44.0768367" lon="7.598985"><ele>780.0</ele><time>2026-05-01T11:22:08.274Z</time></trkpt><trkpt lat="44.0767117" lon="7.59905"><ele>780.0</ele><time>2026-05-01T11:22:09.275Z</time></trkpt><trkpt lat="44.0765867" lon="7.5991017"><ele>780.0</ele><time>2026-05-01T11:22:10.275Z</time></trkpt><trkpt lat="44.0764583" lon="7.5991383"><ele>780.0</ele><time>2026-05-01T11:22:11.274Z</time></trkpt><trkpt lat="44.07633" lon="7.59916"><ele>780.0</ele><time>2026-05-01T11:22:12.274Z</time></trkpt><trkpt lat="44.0762067" lon="7.5991617"><ele>780.0</ele><time>2026-05-01T11:22:13.274Z</time></trkpt><trkpt lat="44.0760817" lon="7.5991517"><ele>780.0</ele><time>2026-05-01T11:22:14.274Z</time></trkpt><trkpt lat="44.0759533" lon="7.5991267"><ele>780.0</ele><time>2026-05-01T11:22:15.274Z</time></trkpt><trkpt lat="44.0758217" lon="7.59909"><ele>780.25</ele><time>2026-05-01T11:22:16.274Z</time></trkpt><trkpt lat="44.07569" lon="7.5990583"><ele>780.5</ele><time>2026-05-01T11:22:17.274Z</time></trkpt><trkpt lat="44.07557" lon="7.599035"><ele>780.75</ele><time>2026-05-01T11:22:18.274Z</time></trkpt><trkpt lat="44.0754433" lon="7.599005"><ele>781.0</ele><time>2026-05-01T11:22:19.274Z</time></trkpt><trkpt lat="44.0753233" lon="7.5989683"><ele>781.0</ele><time>2026-05-01T11:22:20.274Z</time></trkpt><trkpt lat="44.075215" lon="7.5989267"><ele>781.0</ele><time>2026-05-01T11:22:21.274Z</time></trkpt><trkpt lat="44.0751067" lon="7.598895"><ele>781.0</ele><time>2026-05-01T11:22:22.274Z</time></trkpt><trkpt lat="44.0749983" lon="7.5988667"><ele>781.0</ele><time>2026-05-01T11:22:23.274Z</time></trkpt><trkpt lat="44.0747617" lon="7.5988217"><ele>781.0</ele><time>2026-05-01T11:22:25.274Z</time></trkpt><trkpt lat="44.0746333" lon="7.598795"><ele>781.0</ele><time>2026-05-01T11:22:26.274Z</time></trkpt><trkpt lat="44.0745067" lon="7.5987667"><ele>781.0</ele><time>2026-05-01T11:22:27.274Z</time></trkpt><trkpt lat="44.0743833" lon="7.5987367"><ele>781.0</ele><time>2026-05-01T11:22:28.274Z</time></trkpt><trkpt lat="44.0742583" lon="7.5987033"><ele>781.0</ele><time>2026-05-01T11:22:29.274Z</time></trkpt><trkpt lat="44.0741317" lon="7.5986767"><ele>781.0</ele><time>2026-05-01T11:22:30.274Z</time></trkpt><trkpt lat="44.074015" lon="7.5986267"><ele>781.0</ele><time>2026-05-01T11:22:31.275Z</time></trkpt><trkpt lat="44.0739067" lon="7.598555"><ele>781.0</ele><time>2026-05-01T11:22:32.274Z</time></trkpt><trkpt lat="44.073815" lon="7.5984533"><ele>779.0</ele><time>2026-05-01T11:22:33.275Z</time></trkpt><trkpt lat="44.0737317" lon="7.5983533"><ele>777.0</ele><time>2026-05-01T11:22:34.274Z</time></trkpt><trkpt lat="44.073645" lon="7.5982533"><ele>775.0</ele><time>2026-05-01T11:22:35.274Z</time></trkpt><trkpt lat="44.073555" lon="7.598145"><ele>773.0</ele><time>2026-05-01T11:22:36.274Z</time></trkpt><trkpt lat="44.0734567" lon="7.5980317"><ele>773.0</ele><time>2026-05-01T11:22:37.274Z</time></trkpt><trkpt lat="44.0733567" lon="7.5979017"><ele>773.0</ele><time>2026-05-01T11:22:38.274Z</time></trkpt><trkpt lat="44.0732683" lon="7.597745"><ele>773.0</ele><time>2026-05-01T11:22:39.274Z</time></trkpt><trkpt lat="44.0731867" lon="7.5975733"><ele>773.0</ele><time>2026-05-01T11:22:40.274Z</time></trkpt><trkpt lat="44.0731267" lon="7.5973817"><ele>775.0</ele><time>2026-05-01T11:22:41.274Z</time></trkpt><trkpt lat="44.0730783" lon="7.59719"><ele>777.0</ele><time>2026-05-01T11:22:42.274Z</time></trkpt><trkpt lat="44.0730433" lon="7.5969917"><ele>779.0</ele><time>2026-05-01T11:22:43.275Z</time></trkpt><trkpt lat="44.0730067" lon="7.5967967"><ele>781.0</ele><time>2026-05-01T11:22:44.274Z</time></trkpt><trkpt lat="44.07291" lon="7.59642"><ele>781.0</ele><time>2026-05-01T11:22:46.274Z</time></trkpt><trkpt lat="44.07283" lon="7.5962533"><ele>781.0</ele><time>2026-05-01T11:22:47.274Z</time></trkpt><trkpt lat="44.072725" lon="7.5960683"><ele>781.0</ele><time>2026-05-01T11:22:48.274Z</time></trkpt><trkpt lat="44.0725933" lon="7.5958783"><ele>780.6666666666666</ele><time>2026-05-01T11:22:49.274Z</time></trkpt><trkpt lat="44.0724417" lon="7.595665"><ele>780.3333333333333</ele><time>2026-05-01T11:22:50.274Z</time></trkpt><trkpt lat="44.0722917" lon="7.5954583"><ele>780.0</ele><time>2026-05-01T11:22:51.274Z</time></trkpt><trkpt lat="44.0721533" lon="7.5952617"><ele>780.0</ele><time>2026-05-01T11:22:52.274Z</time></trkpt><trkpt lat="44.0720133" lon="7.5950783"><ele>780.0</ele><time>2026-05-01T11:22:53.275Z</time></trkpt><trkpt lat="44.0718683" lon="7.594925"><ele>780.0</ele><time>2026-05-01T11:22:54.274Z</time></trkpt><trkpt lat="44.071715" lon="7.5947817"><ele>777.6666666666667</ele><time>2026-05-01T11:22:55.274Z</time></trkpt><trkpt lat="44.0715667" lon="7.5946617"><ele>775.3333333333334</ele><time>2026-05-01T11:22:56.275Z</time></trkpt><trkpt lat="44.0714433" lon="7.594545"><ele>773.0</ele><time>2026-05-01T11:22:57.274Z</time></trkpt><trkpt lat="44.0713217" lon="7.5944517"><ele>773.0</ele><time>2026-05-01T11:22:58.274Z</time></trkpt><trkpt lat="44.0712167" lon="7.5943483"><ele>773.0</ele><time>2026-05-01T11:22:59.274Z</time></trkpt><trkpt lat="44.0711133" lon="7.59425"><ele>773.0</ele><time>2026-05-01T11:23:00.274Z</time></trkpt><trkpt lat="44.0710233" lon="7.5941483"><ele>773.0</ele><time>2026-05-01T11:23:01.274Z</time></trkpt><trkpt lat="44.0709433" lon="7.594025"><ele>773.0</ele><time>2026-05-01T11:23:02.274Z</time></trkpt><trkpt lat="44.0708883" lon="7.59388"><ele>773.0</ele><time>2026-05-01T11:23:03.275Z</time></trkpt><trkpt lat="44.0708483" lon="7.5937317"><ele>773.0</ele><time>2026-05-01T11:23:04.274Z</time></trkpt><trkpt lat="44.0708283" lon="7.5935517"><ele>773.0</ele><time>2026-05-01T11:23:05.274Z</time></trkpt><trkpt lat="44.070785" lon="7.5931217"><ele>773.0</ele><time>2026-05-01T11:23:07.274Z</time></trkpt><trkpt lat="44.0707767" lon="7.5928783"><ele>773.0</ele><time>2026-05-01T11:23:08.274Z</time></trkpt><trkpt lat="44.0707617" lon="7.5926367"><ele>773.0</ele><time>2026-05-01T11:23:09.274Z</time></trkpt><trkpt lat="44.0707433" lon="7.5923933"><ele>774.6666666666667</ele><time>2026-05-01T11:23:10.274Z</time></trkpt><trkpt lat="44.07072" lon="7.5921567"><ele>776.3333333333333</ele><time>2026-05-01T11:23:11.274Z</time></trkpt><trkpt lat="44.0706983" lon="7.5919267"><ele>778.0</ele><time>2026-05-01T11:23:12.274Z</time></trkpt><trkpt lat="44.070675" lon="7.5917"><ele>778.0</ele><time>2026-05-01T11:23:13.274Z</time></trkpt><trkpt lat="44.0706467" lon="7.591475"><ele>778.0</ele><time>2026-05-01T11:23:14.274Z</time></trkpt><trkpt lat="44.0706233" lon="7.591255"><ele>778.0</ele><time>2026-05-01T11:23:15.274Z</time></trkpt><trkpt lat="44.0706033" lon="7.59103"><ele>776.3333333333333</ele><time>2026-05-01T11:23:16.274Z</time></trkpt><trkpt lat="44.07058" lon="7.590815"><ele>774.6666666666667</ele><time>2026-05-01T11:23:17.274Z</time></trkpt><trkpt lat="44.0705717" lon="7.5906133"><ele>773.0</ele><time>2026-05-01T11:23:18.274Z</time></trkpt><trkpt lat="44.0705817" lon="7.5903967"><ele>769.0</ele><time>2026-05-01T11:23:19.274Z</time></trkpt><trkpt lat="44.070605" lon="7.5901783"><ele>765.0</ele><time>2026-05-01T11:23:20.274Z</time></trkpt><trkpt lat="44.0706433" lon="7.5899567"><ele>761.0</ele><time>2026-05-01T11:23:21.274Z</time></trkpt><trkpt lat="44.0706767" lon="7.58975"><ele>761.0</ele><time>2026-05-01T11:23:22.274Z</time></trkpt><trkpt lat="44.0706983" lon="7.5895617"><ele>761.0</ele><time>2026-05-01T11:23:23.274Z</time></trkpt><trkpt lat="44.0707117" lon="7.589365"><ele>761.0</ele><time>2026-05-01T11:23:24.274Z</time></trkpt><trkpt lat="44.070695" lon="7.58918"><ele>761.0</ele><time>2026-05-01T11:23:25.274Z</time></trkpt><trkpt lat="44.0706583" lon="7.5890033"><ele>758.3333333333333</ele><time>2026-05-01T11:23:26.274Z</time></trkpt><trkpt lat="44.0704683" lon="7.5887267"><ele>755.6666666666666</ele><time>2026-05-01T11:23:28.274Z</time></trkpt><trkpt lat="44.0703333" lon="7.5886667"><ele>753.0</ele><time>2026-05-01T11:23:29.274Z</time></trkpt><trkpt lat="44.0701783" lon="7.588645"><ele>761.0</ele><time>2026-05-01T11:23:30.274Z</time></trkpt><trkpt lat="44.0700133" lon="7.5886467"><ele>769.0</ele><time>2026-05-01T11:23:31.274Z</time></trkpt><trkpt lat="44.0698517" lon="7.5886583"><ele>777.0</ele><time>2026-05-01T11:23:32.274Z</time></trkpt><trkpt lat="44.06969" lon="7.58866"><ele>779.0</ele><time>2026-05-01T11:23:33.274Z</time></trkpt><trkpt lat="44.0695383" lon="7.5886533"><ele>781.0</ele><time>2026-05-01T11:23:34.274Z</time></trkpt><trkpt lat="44.0693933" lon="7.588655"><ele>783.0</ele><time>2026-05-01T11:23:35.274Z</time></trkpt><trkpt lat="44.0692367" lon="7.5887167"><ele>782.6666666666667</ele><time>2026-05-01T11:23:36.274Z</time></trkpt><trkpt lat="44.0690967" lon="7.5888383"><ele>782.3333333333334</ele><time>2026-05-01T11:23:37.274Z</time></trkpt><trkpt lat="44.0689617" lon="7.588975"><ele>782.0</ele><time>2026-05-01T11:23:38.274Z</time></trkpt><trkpt lat="44.0688333" lon="7.5891217"><ele>782.0</ele><time>2026-05-01T11:23:39.274Z</time></trkpt><trkpt lat="44.068715" lon="7.5892533"><ele>782.0</ele><time>2026-05-01T11:23:40.275Z</time></trkpt><trkpt lat="44.0685933" lon="7.5893883"><ele>782.0</ele><time>2026-05-01T11:23:41.274Z</time></trkpt><trkpt lat="44.06847" lon="7.5895217"><ele>775.5</ele><time>2026-05-01T11:23:42.274Z</time></trkpt><trkpt lat="44.06834" lon="7.5896517"><ele>769.0</ele><time>2026-05-01T11:23:43.274Z</time></trkpt><trkpt lat="44.0682117" lon="7.5897617"><ele>762.5</ele><time>2026-05-01T11:23:44.274Z</time></trkpt><trkpt lat="44.0680867" lon="7.5898417"><ele>756.0</ele><time>2026-05-01T11:23:45.274Z</time></trkpt><trkpt lat="44.0679267" lon="7.589885"><ele>755.6666666666666</ele><time>2026-05-01T11:23:46.274Z</time></trkpt><trkpt lat="44.0677817" lon="7.589915"><ele>755.3333333333333</ele><time>2026-05-01T11:23:47.274Z</time></trkpt><trkpt lat="44.0675" lon="7.5899283"><ele>755.0</ele><time>2026-05-01T11:23:49.274Z</time></trkpt><trkpt lat="44.0673583" lon="7.5898733"><ele>753.6666666666666</ele><time>2026-05-01T11:23:50.274Z</time></trkpt><trkpt lat="44.06721" lon="7.5897883"><ele>752.3333333333334</ele><time>2026-05-01T11:23:51.274Z</time></trkpt><trkpt lat="44.0670467" lon="7.5897183"><ele>751.0</ele><time>2026-05-01T11:23:52.274Z</time></trkpt><trkpt lat="44.066875" lon="7.5896533"><ele>751.0</ele><time>2026-05-01T11:23:53.274Z</time></trkpt><trkpt lat="44.0666933" lon="7.5895817"><ele>751.0</ele><time>2026-05-01T11:23:54.274Z</time></trkpt><trkpt lat="44.06651" lon="7.58949"><ele>751.0</ele><time>2026-05-01T11:23:55.274Z</time></trkpt><trkpt lat="44.0663267" lon="7.58941"><ele>753.6666666666667</ele><time>2026-05-01T11:23:56.275Z</time></trkpt><trkpt lat="44.0661383" lon="7.5893283"><ele>756.3333333333334</ele><time>2026-05-01T11:23:57.274Z</time></trkpt><trkpt lat="44.0659617" lon="7.58926"><ele>759.0</ele><time>2026-05-01T11:23:58.275Z</time></trkpt><trkpt lat="44.065785" lon="7.5892067"><ele>756.3333333333334</ele><time>2026-05-01T11:23:59.274Z</time></trkpt><trkpt lat="44.0656067" lon="7.589175"><ele>753.6666666666667</ele><time>2026-05-01T11:24:00.274Z</time></trkpt><trkpt lat="44.0654283" lon="7.5891683"><ele>751.0</ele><time>2026-05-01T11:24:01.274Z</time></trkpt><trkpt lat="44.0652533" lon="7.5891717"><ele>751.0</ele><time>2026-05-01T11:24:02.274Z</time></trkpt><trkpt lat="44.0650817" lon="7.58916"><ele>751.0</ele><time>2026-05-01T11:24:03.274Z</time></trkpt><trkpt lat="44.0649183" lon="7.589175"><ele>751.0</ele><time>2026-05-01T11:24:04.274Z</time></trkpt><trkpt lat="44.0647833" lon="7.5891433"><ele>748.3333333333334</ele><time>2026-05-01T11:24:05.274Z</time></trkpt><trkpt lat="44.064625" lon="7.58919"><ele>745.6666666666666</ele><time>2026-05-01T11:24:06.274Z</time></trkpt><trkpt lat="44.064475" lon="7.5892133"><ele>743.0</ele><time>2026-05-01T11:24:07.274Z</time></trkpt><trkpt lat="44.064335" lon="7.5892083"><ele>739.3333333333333</ele><time>2026-05-01T11:24:08.274Z</time></trkpt><trkpt lat="44.06407" lon="7.5891467"><ele>735.6666666666666</ele><time>2026-05-01T11:24:10.274Z</time></trkpt><trkpt lat="44.06392" lon="7.5891033"><ele>732.0</ele><time>2026-05-01T11:24:11.274Z</time></trkpt><trkpt lat="44.0637717" lon="7.5890483"><ele>732.0</ele><time>2026-05-01T11:24:12.274Z</time></trkpt><trkpt lat="44.0636317" lon="7.588975"><ele>732.0</ele><time>2026-05-01T11:24:13.274Z</time></trkpt><trkpt lat="44.06348" lon="7.5888883"><ele>732.0</ele><time>2026-05-01T11:24:14.274Z</time></trkpt><trkpt lat="44.0633383" lon="7.58879"><ele>732.25</ele><time>2026-05-01T11:24:15.274Z</time></trkpt><trkpt lat="44.0631983" lon="7.588695"><ele>732.5</ele><time>2026-05-01T11:24:16.275Z</time></trkpt><trkpt lat="44.0630683" lon="7.588625"><ele>732.75</ele><time>2026-05-01T11:24:17.274Z</time></trkpt><trkpt lat="44.0629417" lon="7.5885733"><ele>733.0</ele><time>2026-05-01T11:24:18.274Z</time></trkpt><trkpt lat="44.0628117" lon="7.58852"><ele>732.0</ele><time>2026-05-01T11:24:19.274Z</time></trkpt><trkpt lat="44.0626917" lon="7.5884783"><ele>731.0</ele><time>2026-05-01T11:24:20.274Z</time></trkpt><trkpt lat="44.0625517" lon="7.5884583"><ele>730.0</ele><time>2026-05-01T11:24:21.274Z</time></trkpt><trkpt lat="44.0624167" lon="7.5884383"><ele>729.0</ele><time>2026-05-01T11:24:22.274Z</time></trkpt><trkpt lat="44.0622933" lon="7.588415"><ele>729.0</ele><time>2026-05-01T11:24:23.275Z</time></trkpt><trkpt lat="44.0621633" lon="7.58839"><ele>729.0</ele><time>2026-05-01T11:24:24.274Z</time></trkpt><trkpt lat="44.062035" lon="7.5883783"><ele>729.0</ele><time>2026-05-01T11:24:25.274Z</time></trkpt><trkpt lat="44.061915" lon="7.5883783"><ele>729.0</ele><time>2026-05-01T11:24:26.274Z</time></trkpt><trkpt lat="44.0617933" lon="7.5884067"><ele>729.0</ele><time>2026-05-01T11:24:27.274Z</time></trkpt><trkpt lat="44.061675" lon="7.5884167"><ele>729.0</ele><time>2026-05-01T11:24:28.274Z</time></trkpt><trkpt lat="44.0615633" lon="7.5884067"><ele>729.0</ele><time>2026-05-01T11:24:29.274Z</time></trkpt><trkpt lat="44.0613767" lon="7.5882883"><ele>729.0</ele><time>2026-05-01T11:24:31.274Z</time></trkpt><trkpt lat="44.0612833" lon="7.5882083"><ele>725.25</ele><time>2026-05-01T11:24:32.274Z</time></trkpt><trkpt lat="44.06119" lon="7.58812"><ele>721.5</ele><time>2026-05-01T11:24:33.274Z</time></trkpt><trkpt lat="44.0610833" lon="7.5880483"><ele>717.75</ele><time>2026-05-01T11:24:34.274Z</time></trkpt><trkpt lat="44.0609717" lon="7.5879767"><ele>714.0</ele><time>2026-05-01T11:24:35.274Z</time></trkpt><trkpt lat="44.0608433" lon="7.5879417"><ele>711.8000000000001</ele><time>2026-05-01T11:24:36.274Z</time></trkpt><trkpt lat="44.06072" lon="7.5879317"><ele>709.6</ele><time>2026-05-01T11:24:37.274Z</time></trkpt><trkpt lat="44.0606117" lon="7.5879233"><ele>707.4</ele><time>2026-05-01T11:24:38.274Z</time></trkpt><trkpt lat="44.0605117" lon="7.5879267"><ele>705.2</ele><time>2026-05-01T11:24:39.274Z</time></trkpt><trkpt lat="44.06042" lon="7.5879233"><ele>703.0</ele><time>2026-05-01T11:24:40.274Z</time></trkpt><trkpt lat="44.0603333" lon="7.5879283"><ele>703.0</ele><time>2026-05-01T11:24:41.275Z</time></trkpt><trkpt lat="44.0602333" lon="7.5879267"><ele>703.0</ele><time>2026-05-01T11:24:42.274Z</time></trkpt><trkpt lat="44.0601317" lon="7.58792"><ele>703.0</ele><time>2026-05-01T11:24:43.274Z</time></trkpt><trkpt lat="44.060025" lon="7.5879033"><ele>703.0</ele><time>2026-05-01T11:24:44.274Z</time></trkpt><trkpt lat="44.0599133" lon="7.58788"><ele>703.0</ele><time>2026-05-01T11:24:45.274Z</time></trkpt><trkpt lat="44.0598217" lon="7.5878617"><ele>702.8</ele><time>2026-05-01T11:24:46.274Z</time></trkpt><trkpt lat="44.059735" lon="7.58783"><ele>702.5999999999999</ele><time>2026-05-01T11:24:47.274Z</time></trkpt><trkpt lat="44.0596483" lon="7.5877833"><ele>702.4000000000001</ele><time>2026-05-01T11:24:48.274Z</time></trkpt><trkpt lat="44.0595583" lon="7.5877217"><ele>702.2</ele><time>2026-05-01T11:24:49.274Z</time></trkpt><trkpt lat="44.059465" lon="7.587655"><ele>702.0</ele><time>2026-05-01T11:24:50.274Z</time></trkpt><trkpt lat="44.0592933" lon="7.5874917"><ele>702.0</ele><time>2026-05-01T11:24:52.274Z</time></trkpt><trkpt lat="44.059215" lon="7.58739"><ele>702.0</ele><time>2026-05-01T11:24:53.274Z</time></trkpt><trkpt lat="44.05915" lon="7.5872733"><ele>702.0</ele><time>2026-05-01T11:24:54.275Z</time></trkpt><trkpt lat="44.05908" lon="7.5871533"><ele>702.0</ele><time>2026-05-01T11:24:55.274Z</time></trkpt><trkpt lat="44.0590167" lon="7.58704"><ele>702.0</ele><time>2026-05-01T11:24:56.274Z</time></trkpt><trkpt lat="44.05895" lon="7.5869367"><ele>701.1666666666666</ele><time>2026-05-01T11:24:57.275Z</time></trkpt><trkpt lat="44.05888" lon="7.586835"><ele>700.3333333333334</ele><time>2026-05-01T11:24:58.274Z</time></trkpt><trkpt lat="44.058825" lon="7.586735"><ele>699.5</ele><time>2026-05-01T11:24:59.275Z</time></trkpt><trkpt lat="44.0587633" lon="7.586645"><ele>698.6666666666667</ele><time>2026-05-01T11:25:00.274Z</time></trkpt><trkpt lat="44.058705" lon="7.58656"><ele>697.8333333333334</ele><time>2026-05-01T11:25:01.274Z</time></trkpt><trkpt lat="44.058645" lon="7.58648"><ele>697.0</ele><time>2026-05-01T11:25:02.274Z</time></trkpt><trkpt lat="44.058575" lon="7.58639"><ele>697.0</ele><time>2026-05-01T11:25:03.275Z</time></trkpt><trkpt lat="44.0585" lon="7.5863183"><ele>697.0</ele><time>2026-05-01T11:25:04.275Z</time></trkpt><trkpt lat="44.0584183" lon="7.5862633"><ele>697.0</ele><time>2026-05-01T11:25:05.274Z</time></trkpt><trkpt lat="44.0583333" lon="7.586225"><ele>697.0</ele><time>2026-05-01T11:25:06.274Z</time></trkpt><trkpt lat="44.0582467" lon="7.5861883"><ele>697.0</ele><time>2026-05-01T11:25:07.274Z</time></trkpt><trkpt lat="44.0581483" lon="7.58617"><ele>697.4000000000001</ele><time>2026-05-01T11:25:08.274Z</time></trkpt><trkpt lat="44.0580533" lon="7.58617"><ele>697.8000000000001</ele><time>2026-05-01T11:25:09.274Z</time></trkpt><trkpt lat="44.0579583" lon="7.5861717"><ele>698.2</ele><time>2026-05-01T11:25:10.275Z</time></trkpt><trkpt lat="44.0578683" lon="7.5861767"><ele>698.6</ele><time>2026-05-01T11:25:11.274Z</time></trkpt><trkpt lat="44.0577" lon="7.5861683"><ele>699.0</ele><time>2026-05-01T11:25:13.275Z</time></trkpt><trkpt lat="44.0576183" lon="7.5861533"><ele>699.0</ele><time>2026-05-01T11:25:14.274Z</time></trkpt><trkpt lat="44.05754" lon="7.5861317"><ele>699.0</ele><time>2026-05-01T11:25:15.274Z</time></trkpt><trkpt lat="44.0574617" lon="7.5861133"><ele>699.0</ele><time>2026-05-01T11:25:16.274Z</time></trkpt><trkpt lat="44.0573833" lon="7.5861017"><ele>699.0</ele><time>2026-05-01T11:25:17.274Z</time></trkpt><trkpt lat="44.057305" lon="7.5860917"><ele>699.0</ele><time>2026-05-01T11:25:18.274Z</time></trkpt><trkpt lat="44.05722" lon="7.5860967"><ele>699.0</ele><time>2026-05-01T11:25:19.275Z</time></trkpt><trkpt lat="44.05714" lon="7.586115"><ele>698.8333333333334</ele><time>2026-05-01T11:25:20.274Z</time></trkpt><trkpt lat="44.0570633" lon="7.5861617"><ele>698.6666666666666</ele><time>2026-05-01T11:25:21.274Z</time></trkpt><trkpt lat="44.0569933" lon="7.5862117"><ele>698.5</ele><time>2026-05-01T11:25:22.274Z</time></trkpt><trkpt lat="44.056925" lon="7.5862683"><ele>698.3333333333333</ele><time>2026-05-01T11:25:23.274Z</time></trkpt><trkpt lat="44.0568567" lon="7.5863233"><ele>698.1666666666666</ele><time>2026-05-01T11:25:24.274Z</time></trkpt><trkpt lat="44.05678" lon="7.586385"><ele>698.0</ele><time>2026-05-01T11:25:25.274Z</time></trkpt><trkpt lat="44.0567033" lon="7.5864483"><ele>699.0</ele><time>2026-05-01T11:25:26.274Z</time></trkpt><trkpt lat="44.0566167" lon="7.586525"><ele>700.0</ele><time>2026-05-01T11:25:27.274Z</time></trkpt><trkpt lat="44.0565033" lon="7.5866233"><ele>701.0</ele><time>2026-05-01T11:25:28.274Z</time></trkpt><trkpt lat="44.0563967" lon="7.586725"><ele>702.0</ele><time>2026-05-01T11:25:29.274Z</time></trkpt><trkpt lat="44.0563167" lon="7.586815"><ele>702.0</ele><time>2026-05-01T11:25:30.274Z</time></trkpt><trkpt lat="44.0562917" lon="7.586935"><ele>702.0</ele><time>2026-05-01T11:25:31.274Z</time></trkpt><trkpt lat="44.0562567" lon="7.5870767"><ele>702.0</ele><time>2026-05-01T11:25:32.274Z</time></trkpt><trkpt lat="44.0561833" lon="7.5872817"><ele>702.0</ele><time>2026-05-01T11:25:34.275Z</time></trkpt><trkpt lat="44.0561367" lon="7.5873683"><ele>702.0</ele><time>2026-05-01T11:25:35.274Z</time></trkpt><trkpt lat="44.0561067" lon="7.5874583"><ele>700.6666666666666</ele><time>2026-05-01T11:25:36.275Z</time></trkpt><trkpt lat="44.05605" lon="7.5876067"><ele>699.3333333333334</ele><time>2026-05-01T11:25:38.274Z</time></trkpt><trkpt lat="44.0560217" lon="7.5876933"><ele>698.0</ele><time>2026-05-01T11:25:39.275Z</time></trkpt><trkpt lat="44.05599" lon="7.5877817"><ele>696.6666666666667</ele><time>2026-05-01T11:25:40.274Z</time></trkpt><trkpt lat="44.0559517" lon="7.58789"><ele>695.3333333333334</ele><time>2026-05-01T11:25:41.275Z</time></trkpt><trkpt lat="44.0559033" lon="7.587995"><ele>694.0</ele><time>2026-05-01T11:25:42.274Z</time></trkpt><trkpt lat="44.0558483" lon="7.5881"><ele>693.0</ele><time>2026-05-01T11:25:43.274Z</time></trkpt><trkpt lat="44.0557983" lon="7.5881917"><ele>692.0</ele><time>2026-05-01T11:25:44.274Z</time></trkpt><trkpt lat="44.0557333" lon="7.588275"><ele>691.0</ele><time>2026-05-01T11:25:45.274Z</time></trkpt><trkpt lat="44.0556867" lon="7.58836"><ele>690.0</ele><time>2026-05-01T11:25:46.274Z</time></trkpt><trkpt lat="44.055625" lon="7.5884283"><ele>689.0</ele><time>2026-05-01T11:25:47.274Z</time></trkpt><trkpt lat="44.0555617" lon="7.5884967"><ele>688.0</ele><time>2026-05-01T11:25:48.274Z</time></trkpt><trkpt lat="44.0554867" lon="7.58856"><ele>688.0</ele><time>2026-05-01T11:25:49.274Z</time></trkpt><trkpt lat="44.0554017" lon="7.58861"><ele>688.0</ele><time>2026-05-01T11:25:50.274Z</time></trkpt><trkpt lat="44.0553283" lon="7.58865"><ele>688.0</ele><time>2026-05-01T11:25:51.274Z</time></trkpt><trkpt lat="44.0552367" lon="7.5886833"><ele>688.0</ele><time>2026-05-01T11:25:52.274Z</time></trkpt><trkpt lat="44.0551583" lon="7.5887183"><ele>688.0</ele><time>2026-05-01T11:25:53.274Z</time></trkpt><trkpt lat="44.05501" lon="7.5887417"><ele>685.6666666666667</ele><time>2026-05-01T11:25:55.275Z</time></trkpt><trkpt lat="44.0549333" lon="7.5887533"><ele>683.3333333333334</ele><time>2026-05-01T11:25:56.275Z</time></trkpt><trkpt lat="44.0548567" lon="7.588775"><ele>681.0</ele><time>2026-05-01T11:25:57.274Z</time></trkpt><trkpt lat="44.05477" lon="7.5887817"><ele>678.6666666666666</ele><time>2026-05-01T11:25:58.274Z</time></trkpt><trkpt lat="44.0546767" lon="7.5887933"><ele>676.3333333333333</ele><time>2026-05-01T11:25:59.275Z</time></trkpt><trkpt lat="44.0545867" lon="7.5888067"><ele>674.0</ele><time>2026-05-01T11:26:00.274Z</time></trkpt><trkpt lat="44.0544933" lon="7.58881"><ele>674.0</ele><time>2026-05-01T11:26:01.274Z</time></trkpt><trkpt lat="44.0543983" lon="7.5888167"><ele>674.0</ele><time>2026-05-01T11:26:02.274Z</time></trkpt><trkpt lat="44.0543067" lon="7.58883"><ele>674.0</ele><time>2026-05-01T11:26:03.274Z</time></trkpt><trkpt lat="44.0542267" lon="7.58883"><ele>674.0</ele><time>2026-05-01T11:26:04.274Z</time></trkpt><trkpt lat="44.0541433" lon="7.5888333"><ele>674.0</ele><time>2026-05-01T11:26:05.274Z</time></trkpt><trkpt lat="44.0540683" lon="7.5888383"><ele>674.0</ele><time>2026-05-01T11:26:06.274Z</time></trkpt><trkpt lat="44.053995" lon="7.5888467"><ele>673.8571428571429</ele><time>2026-05-01T11:26:07.274Z</time></trkpt><trkpt lat="44.0539167" lon="7.5888483"><ele>673.7142857142858</ele><time>2026-05-01T11:26:08.274Z</time></trkpt><trkpt lat="44.0538467" lon="7.588855"><ele>673.5714285714287</ele><time>2026-05-01T11:26:09.274Z</time></trkpt><trkpt lat="44.0537817" lon="7.5888667"><ele>673.4285714285714</ele><time>2026-05-01T11:26:10.274Z</time></trkpt><trkpt lat="44.05371" lon="7.5888717"><ele>673.2857142857142</ele><time>2026-05-01T11:26:11.274Z</time></trkpt><trkpt lat="44.0536317" lon="7.5888733"><ele>673.1428571428572</ele><time>2026-05-01T11:26:12.274Z</time></trkpt><trkpt lat="44.0535517" lon="7.58888"><ele>673.0</ele><time>2026-05-01T11:26:13.274Z</time></trkpt><trkpt lat="44.05347" lon="7.5888917"><ele>673.0</ele><time>2026-05-01T11:26:14.275Z</time></trkpt><trkpt lat="44.0533" lon="7.5889183"><ele>673.0</ele><time>2026-05-01T11:26:16.274Z</time></trkpt><trkpt lat="44.053215" lon="7.588945"><ele>673.0</ele><time>2026-05-01T11:26:17.275Z</time></trkpt><trkpt lat="44.053125" lon="7.5889717"><ele>673.0</ele><time>2026-05-01T11:26:18.274Z</time></trkpt><trkpt lat="44.0530367" lon="7.5889983"><ele>673.0</ele><time>2026-05-01T11:26:19.274Z</time></trkpt><trkpt lat="44.05295" lon="7.5890067"><ele>672.2</ele><time>2026-05-01T11:26:20.274Z</time></trkpt><trkpt lat="44.0528633" lon="7.58899"><ele>671.4</ele><time>2026-05-01T11:26:21.274Z</time></trkpt><trkpt lat="44.052765" lon="7.5889783"><ele>670.6</ele><time>2026-05-01T11:26:22.275Z</time></trkpt><trkpt lat="44.0526633" lon="7.588965"><ele>669.8000000000001</ele><time>2026-05-01T11:26:23.274Z</time></trkpt><trkpt lat="44.0525567" lon="7.588955"><ele>669.0</ele><time>2026-05-01T11:26:24.274Z</time></trkpt><trkpt lat="44.0524467" lon="7.588945"><ele>667.8000000000001</ele><time>2026-05-01T11:26:25.275Z</time></trkpt><trkpt lat="44.052355" lon="7.588965"><ele>666.6</ele><time>2026-05-01T11:26:26.274Z</time></trkpt><trkpt lat="44.05225" lon="7.5889467"><ele>665.4</ele><time>2026-05-01T11:26:27.274Z</time></trkpt><trkpt lat="44.05215" lon="7.5889383"><ele>664.2</ele><time>2026-05-01T11:26:28.274Z</time></trkpt><trkpt lat="44.05206" lon="7.58891"><ele>663.0</ele><time>2026-05-01T11:26:29.274Z</time></trkpt><trkpt lat="44.0519633" lon="7.5888833"><ele>663.0</ele><time>2026-05-01T11:26:30.274Z</time></trkpt><trkpt lat="44.0518667" lon="7.5888483"><ele>663.0</ele><time>2026-05-01T11:26:31.274Z</time></trkpt><trkpt lat="44.051775" lon="7.5888167"><ele>663.0</ele><time>2026-05-01T11:26:32.274Z</time></trkpt><trkpt lat="44.0516783" lon="7.58879"><ele>663.0</ele><time>2026-05-01T11:26:33.274Z</time></trkpt><trkpt lat="44.0515783" lon="7.5887533"><ele>663.0</ele><time>2026-05-01T11:26:34.274Z</time></trkpt><trkpt lat="44.0514867" lon="7.58871"><ele>662.0</ele><time>2026-05-01T11:26:35.274Z</time></trkpt><trkpt lat="44.0513217" lon="7.5886567"><ele>661.0</ele><time>2026-05-01T11:26:37.274Z</time></trkpt><trkpt lat="44.0512483" lon="7.5886317"><ele>660.0</ele><time>2026-05-01T11:26:38.274Z</time></trkpt><trkpt lat="44.0511767" lon="7.5886033"><ele>659.0</ele><time>2026-05-01T11:26:39.274Z</time></trkpt><trkpt lat="44.0511067" lon="7.5885717"><ele>658.0</ele><time>2026-05-01T11:26:40.275Z</time></trkpt><trkpt lat="44.05103" lon="7.5885417"><ele>658.0</ele><time>2026-05-01T11:26:41.274Z</time></trkpt><trkpt lat="44.0509483" lon="7.588515"><ele>658.0</ele><time>2026-05-01T11:26:42.274Z</time></trkpt><trkpt lat="44.0508683" lon="7.588475"><ele>658.0</ele><time>2026-05-01T11:26:43.274Z</time></trkpt><trkpt lat="44.050785" lon="7.58843"><ele>658.0</ele><time>2026-05-01T11:26:44.274Z</time></trkpt><trkpt lat="44.0507083" lon="7.5883733"><ele>658.0</ele><time>2026-05-01T11:26:45.274Z</time></trkpt><trkpt lat="44.050635" lon="7.5883"><ele>658.0</ele><time>2026-05-01T11:26:46.274Z</time></trkpt><trkpt lat="44.05056" lon="7.58822"><ele>657.0</ele><time>2026-05-01T11:26:47.274Z</time></trkpt><trkpt lat="44.05048" lon="7.58814"><ele>656.0</ele><time>2026-05-01T11:26:48.274Z</time></trkpt><trkpt lat="44.0504083" lon="7.5880467"><ele>655.0</ele><time>2026-05-01T11:26:49.274Z</time></trkpt><trkpt lat="44.0503333" lon="7.5879533"><ele>654.0</ele><time>2026-05-01T11:26:50.274Z</time></trkpt><trkpt lat="44.05026" lon="7.5878733"><ele>653.0</ele><time>2026-05-01T11:26:51.274Z</time></trkpt><trkpt lat="44.0501883" lon="7.58781"><ele>654.5999999999999</ele><time>2026-05-01T11:26:52.274Z</time></trkpt><trkpt lat="44.0501083" lon="7.587745"><ele>656.1999999999999</ele><time>2026-05-01T11:26:53.274Z</time></trkpt><trkpt lat="44.0500217" lon="7.5877017"><ele>657.8</ele><time>2026-05-01T11:26:54.275Z</time></trkpt><trkpt lat="44.049925" lon="7.587675"><ele>659.4</ele><time>2026-05-01T11:26:55.274Z</time></trkpt><trkpt lat="44.0498283" lon="7.5876483"><ele>661.0</ele><time>2026-05-01T11:26:56.274Z</time></trkpt><trkpt lat="44.0496367" lon="7.5876267"><ele>661.0</ele><time>2026-05-01T11:26:58.274Z</time></trkpt><trkpt lat="44.0495567" lon="7.5876167"><ele>661.0</ele><time>2026-05-01T11:26:59.274Z</time></trkpt><trkpt lat="44.049485" lon="7.5876133"><ele>661.0</ele><time>2026-05-01T11:27:00.275Z</time></trkpt><trkpt lat="44.049375" lon="7.5876083"><ele>661.0</ele><time>2026-05-01T11:27:02.274Z</time></trkpt><trkpt lat="44.0492667" lon="7.5875717"><ele>661.0</ele><time>2026-05-01T11:27:04.274Z</time></trkpt><trkpt lat="44.0491933" lon="7.587545"><ele>661.0</ele><time>2026-05-01T11:27:05.274Z</time></trkpt><trkpt lat="44.0491117" lon="7.5875083"><ele>658.5999999999999</ele><time>2026-05-01T11:27:06.274Z</time></trkpt><trkpt lat="44.04904" lon="7.58746"><ele>656.2</ele><time>2026-05-01T11:27:07.274Z</time></trkpt><trkpt lat="44.0489633" lon="7.5874083"><ele>653.8</ele><time>2026-05-01T11:27:08.274Z</time></trkpt><trkpt lat="44.04888" lon="7.5873483"><ele>651.4000000000001</ele><time>2026-05-01T11:27:09.274Z</time></trkpt><trkpt lat="44.0487617" lon="7.58728"><ele>649.0</ele><time>2026-05-01T11:27:10.274Z</time></trkpt><trkpt lat="44.04862" lon="7.5872317"><ele>649.0</ele><time>2026-05-01T11:27:11.274Z</time></trkpt><trkpt lat="44.0484783" lon="7.5871633"><ele>649.0</ele><time>2026-05-01T11:27:12.275Z</time></trkpt><trkpt lat="44.0483517" lon="7.587065"><ele>649.0</ele><time>2026-05-01T11:27:13.274Z</time></trkpt><trkpt lat="44.0482267" lon="7.5869967"><ele>649.0</ele><time>2026-05-01T11:27:14.274Z</time></trkpt><trkpt lat="44.048105" lon="7.5869117"><ele>649.6666666666667</ele><time>2026-05-01T11:27:15.274Z</time></trkpt><trkpt lat="44.048" lon="7.58683"><ele>650.3333333333334</ele><time>2026-05-01T11:27:16.275Z</time></trkpt><trkpt lat="44.0479083" lon="7.5867467"><ele>651.0</ele><time>2026-05-01T11:27:17.275Z</time></trkpt><trkpt lat="44.0477033" lon="7.5865683"><ele>651.0</ele><time>2026-05-01T11:27:19.274Z</time></trkpt><trkpt lat="44.0475967" lon="7.5864783"><ele>651.0</ele><time>2026-05-01T11:27:20.274Z</time></trkpt><trkpt lat="44.0474783" lon="7.5864033"><ele>651.0</ele><time>2026-05-01T11:27:21.274Z</time></trkpt><trkpt lat="44.0473433" lon="7.5863717"><ele>651.0</ele><time>2026-05-01T11:27:22.274Z</time></trkpt><trkpt lat="44.0471883" lon="7.5863767"><ele>651.3333333333334</ele><time>2026-05-01T11:27:23.274Z</time></trkpt><trkpt lat="44.0470417" lon="7.5863767"><ele>651.6666666666667</ele><time>2026-05-01T11:27:24.274Z</time></trkpt><trkpt lat="44.046895" lon="7.58637"><ele>652.0</ele><time>2026-05-01T11:27:25.274Z</time></trkpt><trkpt lat="44.0467367" lon="7.586365"><ele>650.0</ele><time>2026-05-01T11:27:26.274Z</time></trkpt><trkpt lat="44.046575" lon="7.5863533"><ele>648.0</ele><time>2026-05-01T11:27:27.275Z</time></trkpt><trkpt lat="44.0464167" lon="7.5863133"><ele>646.0</ele><time>2026-05-01T11:27:28.275Z</time></trkpt><trkpt lat="44.046255" lon="7.586295"><ele>646.0</ele><time>2026-05-01T11:27:29.274Z</time></trkpt><trkpt lat="44.0460983" lon="7.5862817"><ele>646.0</ele><time>2026-05-01T11:27:30.275Z</time></trkpt><trkpt lat="44.04594" lon="7.5862717"><ele>646.0</ele><time>2026-05-01T11:27:31.274Z</time></trkpt><trkpt lat="44.0457817" lon="7.5862633"><ele>644.0</ele><time>2026-05-01T11:27:32.274Z</time></trkpt><trkpt lat="44.0456133" lon="7.5862667"><ele>642.0</ele><time>2026-05-01T11:27:33.274Z</time></trkpt><trkpt lat="44.0454367" lon="7.5862667"><ele>640.0</ele><time>2026-05-01T11:27:34.274Z</time></trkpt><trkpt lat="44.0452583" lon="7.5862717"><ele>640.0</ele><time>2026-05-01T11:27:35.274Z</time></trkpt><trkpt lat="44.0450767" lon="7.5862633"><ele>640.0</ele><time>2026-05-01T11:27:36.274Z</time></trkpt><trkpt lat="44.0448933" lon="7.5862467"><ele>640.0</ele><time>2026-05-01T11:27:37.274Z</time></trkpt><trkpt lat="44.0447067" lon="7.5862267"><ele>642.5</ele><time>2026-05-01T11:27:38.274Z</time></trkpt><trkpt lat="44.0443517" lon="7.5861783"><ele>645.0</ele><time>2026-05-01T11:27:40.274Z</time></trkpt><trkpt lat="44.0441817" lon="7.5861783"><ele>642.6666666666666</ele><time>2026-05-01T11:27:41.274Z</time></trkpt><trkpt lat="44.0440267" lon="7.5861517"><ele>640.3333333333333</ele><time>2026-05-01T11:27:42.275Z</time></trkpt><trkpt lat="44.0438617" lon="7.586135"><ele>638.0</ele><time>2026-05-01T11:27:43.274Z</time></trkpt><trkpt lat="44.0437033" lon="7.586095"><ele>638.0</ele><time>2026-05-01T11:27:44.274Z</time></trkpt><trkpt lat="44.043545" lon="7.5859983"><ele>638.0</ele><time>2026-05-01T11:27:45.274Z</time></trkpt><trkpt lat="44.043395" lon="7.5858783"><ele>638.0</ele><time>2026-05-01T11:27:46.274Z</time></trkpt><trkpt lat="44.0432517" lon="7.5857267"><ele>638.3333333333333</ele><time>2026-05-01T11:27:47.274Z</time></trkpt><trkpt lat="44.0431133" lon="7.5855633"><ele>638.6666666666666</ele><time>2026-05-01T11:27:48.274Z</time></trkpt><trkpt lat="44.0429717" lon="7.5853983"><ele>639.0</ele><time>2026-05-01T11:27:49.274Z</time></trkpt><trkpt lat="44.0428417" lon="7.5852367"><ele>635.3333333333334</ele><time>2026-05-01T11:27:50.274Z</time></trkpt><trkpt lat="44.0427217" lon="7.585075"><ele>631.6666666666667</ele><time>2026-05-01T11:27:51.274Z</time></trkpt><trkpt lat="44.0426017" lon="7.5849117"><ele>628.0</ele><time>2026-05-01T11:27:52.274Z</time></trkpt><trkpt lat="44.0424833" lon="7.5847617"><ele>628.0</ele><time>2026-05-01T11:27:53.274Z</time></trkpt><trkpt lat="44.0423417" lon="7.5846467"><ele>628.0</ele><time>2026-05-01T11:27:54.274Z</time></trkpt><trkpt lat="44.042195" lon="7.58456"><ele>628.0</ele><time>2026-05-01T11:27:55.274Z</time></trkpt><trkpt lat="44.0420417" lon="7.5844833"><ele>631.3333333333334</ele><time>2026-05-01T11:27:56.274Z</time></trkpt><trkpt lat="44.0418917" lon="7.5844083"><ele>634.6666666666666</ele><time>2026-05-01T11:27:57.274Z</time></trkpt><trkpt lat="44.0417417" lon="7.58432"><ele>638.0</ele><time>2026-05-01T11:27:58.274Z</time></trkpt><trkpt lat="44.0415867" lon="7.584235"><ele>638.0</ele><time>2026-05-01T11:27:59.274Z</time></trkpt><trkpt lat="44.04128" lon="7.5840733"><ele>638.0</ele><time>2026-05-01T11:28:01.274Z</time></trkpt><trkpt lat="44.0411333" lon="7.5840033"><ele>638.0</ele><time>2026-05-01T11:28:02.275Z</time></trkpt><trkpt lat="44.0409917" lon="7.58393"><ele>638.0</ele><time>2026-05-01T11:28:03.275Z</time></trkpt><trkpt lat="44.0408483" lon="7.58386"><ele>638.0</ele><time>2026-05-01T11:28:04.274Z</time></trkpt><trkpt lat="44.0406833" lon="7.5837933"><ele>642.3333333333333</ele><time>2026-05-01T11:28:05.274Z</time></trkpt><trkpt lat="44.0404883" lon="7.5837033"><ele>646.6666666666666</ele><time>2026-05-01T11:28:06.274Z</time></trkpt><trkpt lat="44.040335" lon="7.5835567"><ele>651.0</ele><time>2026-05-01T11:28:07.275Z</time></trkpt><trkpt lat="44.0402133" lon="7.5833617"><ele>642.3333333333334</ele><time>2026-05-01T11:28:08.274Z</time></trkpt><trkpt lat="44.0401033" lon="7.5831767"><ele>633.6666666666667</ele><time>2026-05-01T11:28:09.274Z</time></trkpt><trkpt lat="44.04" lon="7.5830017"><ele>625.0</ele><time>2026-05-01T11:28:10.274Z</time></trkpt><trkpt lat="44.03989" lon="7.58284"><ele>625.0</ele><time>2026-05-01T11:28:11.274Z</time></trkpt><trkpt lat="44.0397567" lon="7.5827067"><ele>625.0</ele><time>2026-05-01T11:28:12.275Z</time></trkpt><trkpt lat="44.0396067" lon="7.5826017"><ele>625.0</ele><time>2026-05-01T11:28:13.274Z</time></trkpt><trkpt lat="44.0394583" lon="7.5825117"><ele>625.0</ele><time>2026-05-01T11:28:14.274Z</time></trkpt><trkpt lat="44.0393217" lon="7.5824367"><ele>625.0</ele><time>2026-05-01T11:28:15.274Z</time></trkpt><trkpt lat="44.0391833" lon="7.582385"><ele>625.0</ele><time>2026-05-01T11:28:16.274Z</time></trkpt><trkpt lat="44.0390433" lon="7.582335"><ele>625.0</ele><time>2026-05-01T11:28:17.274Z</time></trkpt><trkpt lat="44.0389" lon="7.58227"><ele>625.0</ele><time>2026-05-01T11:28:18.274Z</time></trkpt><trkpt lat="44.03875" lon="7.5822167"><ele>625.0</ele><time>2026-05-01T11:28:19.274Z</time></trkpt><trkpt lat="44.0385933" lon="7.5821983"><ele>625.0</ele><time>2026-05-01T11:28:20.274Z</time></trkpt><trkpt lat="44.038265" lon="7.5822083"><ele>625.0</ele><time>2026-05-01T11:28:22.274Z</time></trkpt><trkpt lat="44.038105" lon="7.5822"><ele>625.0</ele><time>2026-05-01T11:28:23.274Z</time></trkpt><trkpt lat="44.0379467" lon="7.582145"><ele>625.0</ele><time>2026-05-01T11:28:24.274Z</time></trkpt><trkpt lat="44.0377883" lon="7.5820617"><ele>616.3333333333334</ele><time>2026-05-01T11:28:25.275Z</time></trkpt><trkpt lat="44.0376383" lon="7.5819667"><ele>607.6666666666666</ele><time>2026-05-01T11:28:26.274Z</time></trkpt><trkpt lat="44.037495" lon="7.5818617"><ele>599.0</ele><time>2026-05-01T11:28:27.274Z</time></trkpt><trkpt lat="44.03736" lon="7.581755"><ele>599.0</ele><time>2026-05-01T11:28:28.274Z</time></trkpt><trkpt lat="44.0372367" lon="7.5816417"><ele>599.0</ele><time>2026-05-01T11:28:29.274Z</time></trkpt><trkpt lat="44.03713" lon="7.5814867"><ele>599.0</ele><time>2026-05-01T11:28:30.274Z</time></trkpt><trkpt lat="44.0370483" lon="7.5813067"><ele>597.25</ele><time>2026-05-01T11:28:31.274Z</time></trkpt><trkpt lat="44.03698" lon="7.5811283"><ele>595.5</ele><time>2026-05-01T11:28:32.274Z</time></trkpt><trkpt lat="44.0369183" lon="7.5809483"><ele>593.75</ele><time>2026-05-01T11:28:33.274Z</time></trkpt><trkpt lat="44.0368717" lon="7.5807683"><ele>592.0</ele><time>2026-05-01T11:28:34.274Z</time></trkpt><trkpt lat="44.0368283" lon="7.58059"><ele>592.0</ele><time>2026-05-01T11:28:35.274Z</time></trkpt><trkpt lat="44.0367817" lon="7.5804267"><ele>592.0</ele><time>2026-05-01T11:28:36.274Z</time></trkpt><trkpt lat="44.0367167" lon="7.58028"><ele>592.0</ele><time>2026-05-01T11:28:37.274Z</time></trkpt><trkpt lat="44.036635" lon="7.5801583"><ele>592.0</ele><time>2026-05-01T11:28:38.274Z</time></trkpt><trkpt lat="44.0365317" lon="7.5800683"><ele>592.0</ele><time>2026-05-01T11:28:39.275Z</time></trkpt><trkpt lat="44.0363967" lon="7.5800233"><ele>592.0</ele><time>2026-05-01T11:28:40.274Z</time></trkpt><trkpt lat="44.0362217" lon="7.5800167"><ele>592.0</ele><time>2026-05-01T11:28:41.275Z</time></trkpt><trkpt lat="44.0359133" lon="7.5800017"><ele>592.0</ele><time>2026-05-01T11:28:43.274Z</time></trkpt><trkpt lat="44.0357767" lon="7.5800117"><ele>592.0</ele><time>2026-05-01T11:28:44.274Z</time></trkpt><trkpt lat="44.03564" lon="7.5800483"><ele>592.0</ele><time>2026-05-01T11:28:45.274Z</time></trkpt><trkpt lat="44.0355033" lon="7.5800883"><ele>592.0</ele><time>2026-05-01T11:28:46.274Z</time></trkpt><trkpt lat="44.0353617" lon="7.58013"><ele>600.75</ele><time>2026-05-01T11:28:47.274Z</time></trkpt><trkpt lat="44.0352217" lon="7.580175"><ele>609.5</ele><time>2026-05-01T11:28:48.274Z</time></trkpt><trkpt lat="44.03508" lon="7.5802067"><ele>618.25</ele><time>2026-05-01T11:28:49.274Z</time></trkpt><trkpt lat="44.034935" lon="7.5802367"><ele>627.0</ele><time>2026-05-01T11:28:50.274Z</time></trkpt><trkpt lat="44.0347933" lon="7.58027"><ele>627.0</ele><time>2026-05-01T11:28:51.274Z</time></trkpt><trkpt lat="44.0346433" lon="7.58025"><ele>627.0</ele><time>2026-05-01T11:28:52.274Z</time></trkpt><trkpt lat="44.0344733" lon="7.5802117"><ele>627.0</ele><time>2026-05-01T11:28:53.274Z</time></trkpt><trkpt lat="44.034305" lon="7.5801533"><ele>627.0</ele><time>2026-05-01T11:28:54.274Z</time></trkpt><trkpt lat="44.0341517" lon="7.58008"><ele>627.0</ele><time>2026-05-01T11:28:55.274Z</time></trkpt><trkpt lat="44.0340083" lon="7.5800167"><ele>627.0</ele><time>2026-05-01T11:28:56.274Z</time></trkpt><trkpt lat="44.033865" lon="7.57998"><ele>615.75</ele><time>2026-05-01T11:28:57.275Z</time></trkpt><trkpt lat="44.0337217" lon="7.5799433"><ele>604.5</ele><time>2026-05-01T11:28:58.274Z</time></trkpt><trkpt lat="44.0335917" lon="7.5799033"><ele>593.25</ele><time>2026-05-01T11:28:59.274Z</time></trkpt><trkpt lat="44.0334633" lon="7.5798733"><ele>582.0</ele><time>2026-05-01T11:29:00.274Z</time></trkpt><trkpt lat="44.0333367" lon="7.579885"><ele>595.6666666666666</ele><time>2026-05-01T11:29:01.275Z</time></trkpt><trkpt lat="44.0332067" lon="7.5799233"><ele>609.3333333333333</ele><time>2026-05-01T11:29:02.275Z</time></trkpt><trkpt lat="44.0329467" lon="7.5800633"><ele>623.0</ele><time>2026-05-01T11:29:04.274Z</time></trkpt><trkpt lat="44.03281" lon="7.5801917"><ele>623.0</ele><time>2026-05-01T11:29:05.274Z</time></trkpt><trkpt lat="44.0326917" lon="7.5803267"><ele>623.0</ele><time>2026-05-01T11:29:06.274Z</time></trkpt><trkpt lat="44.0326067" lon="7.580495"><ele>623.0</ele><time>2026-05-01T11:29:07.274Z</time></trkpt><trkpt lat="44.0325417" lon="7.5806817"><ele>626.5</ele><time>2026-05-01T11:29:08.275Z</time></trkpt><trkpt lat="44.0324933" lon="7.5808633"><ele>630.0</ele><time>2026-05-01T11:29:09.274Z</time></trkpt><trkpt lat="44.0324683" lon="7.5810583"><ele>633.5</ele><time>2026-05-01T11:29:10.274Z</time></trkpt><trkpt lat="44.032455" lon="7.5812667"><ele>637.0</ele><time>2026-05-01T11:29:11.275Z</time></trkpt><trkpt lat="44.0324183" lon="7.5814667"><ele>626.5</ele><time>2026-05-01T11:29:12.274Z</time></trkpt><trkpt lat="44.0323683" lon="7.58165"><ele>616.0</ele><time>2026-05-01T11:29:13.274Z</time></trkpt><trkpt lat="44.0323117" lon="7.58182"><ele>605.5</ele><time>2026-05-01T11:29:14.274Z</time></trkpt><trkpt lat="44.0322483" lon="7.5819817"><ele>595.0</ele><time>2026-05-01T11:29:15.275Z</time></trkpt><trkpt lat="44.0321617" lon="7.5821083"><ele>594.25</ele><time>2026-05-01T11:29:16.274Z</time></trkpt><trkpt lat="44.0320483" lon="7.5822117"><ele>593.5</ele><time>2026-05-01T11:29:17.274Z</time></trkpt><trkpt lat="44.0319333" lon="7.58229"><ele>592.75</ele><time>2026-05-01T11:29:18.275Z</time></trkpt><trkpt lat="44.031815" lon="7.58233"><ele>592.0</ele><time>2026-05-01T11:29:19.274Z</time></trkpt><trkpt lat="44.0316867" lon="7.58231"><ele>590.6666666666667</ele><time>2026-05-01T11:29:20.274Z</time></trkpt><trkpt lat="44.031535" lon="7.58229"><ele>589.3333333333334</ele><time>2026-05-01T11:29:21.274Z</time></trkpt><trkpt lat="44.0313333" lon="7.58223"><ele>588.0</ele><time>2026-05-01T11:29:22.274Z</time></trkpt><trkpt lat="44.03111" lon="7.5821567"><ele>590.5</ele><time>2026-05-01T11:29:23.274Z</time></trkpt><trkpt lat="44.0307517" lon="7.58197"><ele>593.0</ele><time>2026-05-01T11:29:25.274Z</time></trkpt><trkpt lat="44.0306233" lon="7.58187"><ele>593.0</ele><time>2026-05-01T11:29:26.274Z</time></trkpt><trkpt lat="44.0305033" lon="7.58173"><ele>593.0</ele><time>2026-05-01T11:29:27.274Z</time></trkpt><trkpt lat="44.0304417" lon="7.5814917"><ele>593.0</ele><time>2026-05-01T11:29:28.274Z</time></trkpt><trkpt lat="44.030345" lon="7.5812867"><ele>592.0</ele><time>2026-05-01T11:29:29.274Z</time></trkpt><trkpt lat="44.0302533" lon="7.58109"><ele>591.0</ele><time>2026-05-01T11:29:30.274Z</time></trkpt><trkpt lat="44.0301633" lon="7.5808917"><ele>590.0</ele><time>2026-05-01T11:29:31.274Z</time></trkpt><trkpt lat="44.0300817" lon="7.58073"><ele>590.0</ele><time>2026-05-01T11:29:32.275Z</time></trkpt><trkpt lat="44.0300217" lon="7.5805683"><ele>590.0</ele><time>2026-05-01T11:29:33.275Z</time></trkpt><trkpt lat="44.0299683" lon="7.5804333"><ele>590.0</ele><time>2026-05-01T11:29:34.276Z</time></trkpt><trkpt lat="44.02994" lon="7.5802833"><ele>590.0</ele><time>2026-05-01T11:29:35.275Z</time></trkpt><trkpt lat="44.029955" lon="7.5801067"><ele>588.5</ele><time>2026-05-01T11:29:36.276Z</time></trkpt><trkpt lat="44.0299933" lon="7.579915"><ele>587.0</ele><time>2026-05-01T11:29:37.275Z</time></trkpt><trkpt lat="44.0300517" lon="7.579725"><ele>585.5</ele><time>2026-05-01T11:29:38.275Z</time></trkpt><trkpt lat="44.03011" lon="7.5795333"><ele>584.0</ele><time>2026-05-01T11:29:39.275Z</time></trkpt><trkpt lat="44.030165" lon="7.5793433"><ele>582.0</ele><time>2026-05-01T11:29:40.275Z</time></trkpt><trkpt lat="44.030225" lon="7.579155"><ele>580.0</ele><time>2026-05-01T11:29:41.275Z</time></trkpt><trkpt lat="44.0303117" lon="7.57897"><ele>578.0</ele><time>2026-05-01T11:29:42.275Z</time></trkpt><trkpt lat="44.0303783" lon="7.5787883"><ele>577.3333333333333</ele><time>2026-05-01T11:29:43.275Z</time></trkpt><trkpt lat="44.0304267" lon="7.5786133"><ele>576.6666666666666</ele><time>2026-05-01T11:29:44.276Z</time></trkpt><trkpt lat="44.0304433" lon="7.57825"><ele>576.0</ele><time>2026-05-01T11:29:46.275Z</time></trkpt><trkpt lat="44.0304133" lon="7.5780633"><ele>576.0</ele><time>2026-05-01T11:29:47.275Z</time></trkpt><trkpt lat="44.0303733" lon="7.57788"><ele>576.0</ele><time>2026-05-01T11:29:48.275Z</time></trkpt><trkpt lat="44.0303333" lon="7.57771"><ele>576.0</ele><time>2026-05-01T11:29:49.275Z</time></trkpt><trkpt lat="44.030295" lon="7.5775417"><ele>576.0</ele><time>2026-05-01T11:29:50.276Z</time></trkpt><trkpt lat="44.0302633" lon="7.577385"><ele>571.0</ele><time>2026-05-01T11:29:51.275Z</time></trkpt><trkpt lat="44.0302217" lon="7.5772233"><ele>566.0</ele><time>2026-05-01T11:29:52.275Z</time></trkpt><trkpt lat="44.0301833" lon="7.5770783"><ele>561.0</ele><time>2026-05-01T11:29:53.275Z</time></trkpt><trkpt lat="44.0301117" lon="7.5769467"><ele>556.0</ele><time>2026-05-01T11:29:54.276Z</time></trkpt><trkpt lat="44.0300117" lon="7.5768333"><ele>560.5</ele><time>2026-05-01T11:29:55.275Z</time></trkpt><trkpt lat="44.029895" lon="7.576735"><ele>565.0</ele><time>2026-05-01T11:29:56.275Z</time></trkpt><trkpt lat="44.0297683" lon="7.5766933"><ele>569.5</ele><time>2026-05-01T11:29:57.275Z</time></trkpt><trkpt lat="44.0296567" lon="7.57668"><ele>574.0</ele><time>2026-05-01T11:29:58.275Z</time></trkpt><trkpt lat="44.0295317" lon="7.5767083"><ele>574.0</ele><time>2026-05-01T11:29:59.275Z</time></trkpt><trkpt lat="44.029405" lon="7.5767617"><ele>574.0</ele><time>2026-05-01T11:30:00.275Z</time></trkpt><trkpt lat="44.0292767" lon="7.576835"><ele>574.0</ele><time>2026-05-01T11:30:01.275Z</time></trkpt><trkpt lat="44.029155" lon="7.57691"><ele>574.0</ele><time>2026-05-01T11:30:02.275Z</time></trkpt><trkpt lat="44.0290267" lon="7.576985"><ele>563.0</ele><time>2026-05-01T11:30:03.276Z</time></trkpt><trkpt lat="44.0289" lon="7.5770567"><ele>552.0</ele><time>2026-05-01T11:30:04.275Z</time></trkpt><trkpt lat="44.028785" lon="7.5771067"><ele>541.0</ele><time>2026-05-01T11:30:05.275Z</time></trkpt><trkpt lat="44.02858" lon="7.5771067"><ele>541.0</ele><time>2026-05-01T11:30:07.275Z</time></trkpt><trkpt lat="44.0284817" lon="7.57705"><ele>541.0</ele><time>2026-05-01T11:30:08.275Z</time></trkpt><trkpt lat="44.0283733" lon="7.5769683"><ele>541.0</ele><time>2026-05-01T11:30:09.275Z</time></trkpt><trkpt lat="44.0282817" lon="7.5768367"><ele>541.0</ele><time>2026-05-01T11:30:10.275Z</time></trkpt><trkpt lat="44.0281883" lon="7.5766933"><ele>546.3333333333334</ele><time>2026-05-01T11:30:11.275Z</time></trkpt><trkpt lat="44.0280917" lon="7.5765183"><ele>551.6666666666666</ele><time>2026-05-01T11:30:12.275Z</time></trkpt><trkpt lat="44.027995" lon="7.5763483"><ele>557.0</ele><time>2026-05-01T11:30:13.276Z</time></trkpt><trkpt lat="44.027895" lon="7.57621"><ele>552.75</ele><time>2026-05-01T11:30:14.275Z</time></trkpt><trkpt lat="44.0277883" lon="7.5760583"><ele>548.5</ele><time>2026-05-01T11:30:15.275Z</time></trkpt><trkpt lat="44.02769" lon="7.5759133"><ele>544.25</ele><time>2026-05-01T11:30:16.276Z</time></trkpt><trkpt lat="44.0275983" lon="7.5757583"><ele>540.0</ele><time>2026-05-01T11:30:17.275Z</time></trkpt><trkpt lat="44.0275167" lon="7.5755717"><ele>536.3333333333334</ele><time>2026-05-01T11:30:18.275Z</time></trkpt><trkpt lat="44.02741" lon="7.5754017"><ele>532.6666666666667</ele><time>2026-05-01T11:30:19.275Z</time></trkpt><trkpt lat="44.0272967" lon="7.575235"><ele>529.0</ele><time>2026-05-01T11:30:20.275Z</time></trkpt><trkpt lat="44.0271917" lon="7.5750667"><ele>529.0</ele><time>2026-05-01T11:30:21.275Z</time></trkpt><trkpt lat="44.02708" lon="7.574915"><ele>529.0</ele><time>2026-05-01T11:30:22.275Z</time></trkpt><trkpt lat="44.0269467" lon="7.5747767"><ele>529.0</ele><time>2026-05-01T11:30:23.275Z</time></trkpt><trkpt lat="44.0268233" lon="7.5746333"><ele>527.3333333333334</ele><time>2026-05-01T11:30:24.275Z</time></trkpt><trkpt lat="44.0266883" lon="7.57451"><ele>525.6666666666666</ele><time>2026-05-01T11:30:25.275Z</time></trkpt><trkpt lat="44.0265383" lon="7.5744033"><ele>524.0</ele><time>2026-05-01T11:30:26.275Z</time></trkpt><trkpt lat="44.0262233" lon="7.5741683"><ele>524.0</ele><time>2026-05-01T11:30:28.275Z</time></trkpt><trkpt lat="44.0260733" lon="7.5740567"><ele>524.0</ele><time>2026-05-01T11:30:29.275Z</time></trkpt><trkpt lat="44.025915" lon="7.5739567"><ele>524.0</ele><time>2026-05-01T11:30:30.275Z</time></trkpt><trkpt lat="44.0257583" lon="7.5738533"><ele>525.0</ele><time>2026-05-01T11:30:31.275Z</time></trkpt><trkpt lat="44.0255983" lon="7.573745"><ele>526.0</ele><time>2026-05-01T11:30:32.275Z</time></trkpt><trkpt lat="44.0254517" lon="7.5736333"><ele>527.0</ele><time>2026-05-01T11:30:33.275Z</time></trkpt><trkpt lat="44.025305" lon="7.5735133"><ele>527.0</ele><time>2026-05-01T11:30:34.276Z</time></trkpt><trkpt lat="44.0251617" lon="7.5733833"><ele>527.0</ele><time>2026-05-01T11:30:35.275Z</time></trkpt><trkpt lat="44.02503" lon="7.5732433"><ele>527.0</ele><time>2026-05-01T11:30:36.276Z</time></trkpt><trkpt lat="44.0249033" lon="7.57311"><ele>532.0</ele><time>2026-05-01T11:30:37.275Z</time></trkpt><trkpt lat="44.0247867" lon="7.5729667"><ele>537.0</ele><time>2026-05-01T11:30:38.276Z</time></trkpt><trkpt lat="44.0246883" lon="7.5728133"><ele>542.0</ele><time>2026-05-01T11:30:39.275Z</time></trkpt><trkpt lat="44.0246067" lon="7.5726467"><ele>547.0</ele><time>2026-05-01T11:30:40.275Z</time></trkpt><trkpt lat="44.024545" lon="7.5724567"><ele>547.0</ele><time>2026-05-01T11:30:41.275Z</time></trkpt><trkpt lat="44.0245117" lon="7.5722417"><ele>547.0</ele><time>2026-05-01T11:30:42.276Z</time></trkpt><trkpt lat="44.024485" lon="7.5720217"><ele>547.0</ele><time>2026-05-01T11:30:43.276Z</time></trkpt><trkpt lat="44.0244467" lon="7.57181"><ele>540.3333333333334</ele><time>2026-05-01T11:30:44.275Z</time></trkpt><trkpt lat="44.0244" lon="7.5716"><ele>533.6666666666666</ele><time>2026-05-01T11:30:45.275Z</time></trkpt><trkpt lat="44.024345" lon="7.5713883"><ele>527.0</ele><time>2026-05-01T11:30:46.275Z</time></trkpt><trkpt lat="44.0242833" lon="7.5711817"><ele>518.5</ele><time>2026-05-01T11:30:47.275Z</time></trkpt><trkpt lat="44.024115" lon="7.5708217"><ele>510.0</ele><time>2026-05-01T11:30:49.275Z</time></trkpt><trkpt lat="44.0240017" lon="7.5706767"><ele>510.0</ele><time>2026-05-01T11:30:50.275Z</time></trkpt><trkpt lat="44.0238833" lon="7.5705683"><ele>510.0</ele><time>2026-05-01T11:30:51.276Z</time></trkpt><trkpt lat="44.02375" lon="7.57049"><ele>510.0</ele><time>2026-05-01T11:30:52.275Z</time></trkpt><trkpt lat="44.0236033" lon="7.5704383"><ele>510.0</ele><time>2026-05-01T11:30:53.276Z</time></trkpt><trkpt lat="44.0234533" lon="7.5704017"><ele>511.0</ele><time>2026-05-01T11:30:54.276Z</time></trkpt><trkpt lat="44.0232967" lon="7.5703683"><ele>512.0</ele><time>2026-05-01T11:30:55.275Z</time></trkpt><trkpt lat="44.0231383" lon="7.570325"><ele>513.0</ele><time>2026-05-01T11:30:56.276Z</time></trkpt><trkpt lat="44.022985" lon="7.570265"><ele>513.0</ele><time>2026-05-01T11:30:57.275Z</time></trkpt><trkpt lat="44.02283" lon="7.5702017"><ele>513.0</ele><time>2026-05-01T11:30:58.275Z</time></trkpt><trkpt lat="44.0226817" lon="7.5701433"><ele>513.0</ele><time>2026-05-01T11:30:59.275Z</time></trkpt><trkpt lat="44.022545" lon="7.5700717"><ele>512.25</ele><time>2026-05-01T11:31:00.275Z</time></trkpt><trkpt lat="44.0224233" lon="7.56996"><ele>511.5</ele><time>2026-05-01T11:31:01.275Z</time></trkpt><trkpt lat="44.0223017" lon="7.56984"><ele>510.75</ele><time>2026-05-01T11:31:02.276Z</time></trkpt><trkpt lat="44.0221883" lon="7.5696983"><ele>510.0</ele><time>2026-05-01T11:31:03.275Z</time></trkpt><trkpt lat="44.02206" lon="7.5695667"><ele>510.33333333333337</ele><time>2026-05-01T11:31:04.275Z</time></trkpt><trkpt lat="44.021925" lon="7.5694417"><ele>510.6666666666667</ele><time>2026-05-01T11:31:05.275Z</time></trkpt><trkpt lat="44.0217883" lon="7.5693217"><ele>511.0</ele><time>2026-05-01T11:31:06.275Z</time></trkpt><trkpt lat="44.0216533" lon="7.5692117"><ele>508.0</ele><time>2026-05-01T11:31:07.275Z</time></trkpt><trkpt lat="44.0215167" lon="7.5691067"><ele>505.0</ele><time>2026-05-01T11:31:08.276Z</time></trkpt><trkpt lat="44.02126" lon="7.5689067"><ele>505.0</ele><time>2026-05-01T11:31:10.275Z</time></trkpt><trkpt lat="44.02116" lon="7.568785"><ele>505.0</ele><time>2026-05-01T11:31:11.275Z</time></trkpt><trkpt lat="44.0210683" lon="7.5686467"><ele>505.0</ele><time>2026-05-01T11:31:12.276Z</time></trkpt><trkpt lat="44.020995" lon="7.5684983"><ele>505.0</ele><time>2026-05-01T11:31:13.275Z</time></trkpt><trkpt lat="44.0209383" lon="7.5683467"><ele>504.25</ele><time>2026-05-01T11:31:14.275Z</time></trkpt><trkpt lat="44.0209083" lon="7.5681683"><ele>503.5</ele><time>2026-05-01T11:31:15.275Z</time></trkpt><trkpt lat="44.0209017" lon="7.5679833"><ele>502.75</ele><time>2026-05-01T11:31:16.275Z</time></trkpt><trkpt lat="44.0209233" lon="7.5677733"><ele>502.0</ele><time>2026-05-01T11:31:17.275Z</time></trkpt><trkpt lat="44.0209817" lon="7.5675617"><ele>500.6666666666667</ele><time>2026-05-01T11:31:18.275Z</time></trkpt><trkpt lat="44.02103" lon="7.5673583"><ele>499.33333333333337</ele><time>2026-05-01T11:31:19.276Z</time></trkpt><trkpt lat="44.02107" lon="7.5671333"><ele>498.0</ele><time>2026-05-01T11:31:20.275Z</time></trkpt><trkpt lat="44.0210933" lon="7.56691"><ele>495.33333333333337</ele><time>2026-05-01T11:31:21.275Z</time></trkpt><trkpt lat="44.0211033" lon="7.5666983"><ele>492.6666666666667</ele><time>2026-05-01T11:31:22.275Z</time></trkpt><trkpt lat="44.0211033" lon="7.5664817"><ele>490.0</ele><time>2026-05-01T11:31:23.275Z</time></trkpt><trkpt lat="44.0210983" lon="7.5662633"><ele>490.25</ele><time>2026-05-01T11:31:24.275Z</time></trkpt><trkpt lat="44.0210783" lon="7.56606"><ele>490.5</ele><time>2026-05-01T11:31:25.275Z</time></trkpt><trkpt lat="44.0210383" lon="7.5658583"><ele>490.75</ele><time>2026-05-01T11:31:26.275Z</time></trkpt><trkpt lat="44.0209917" lon="7.56567"><ele>491.0</ele><time>2026-05-01T11:31:27.275Z</time></trkpt><trkpt lat="44.020935" lon="7.565505"><ele>489.66666666666663</ele><time>2026-05-01T11:31:28.275Z</time></trkpt><trkpt lat="44.020845" lon="7.5653517"><ele>488.33333333333337</ele><time>2026-05-01T11:31:29.275Z</time></trkpt><trkpt lat="44.0206633" lon="7.5650833"><ele>487.0</ele><time>2026-05-01T11:31:31.276Z</time></trkpt><trkpt lat="44.02055" lon="7.5649733"><ele>487.0</ele><time>2026-05-01T11:31:32.275Z</time></trkpt><trkpt lat="44.0204283" lon="7.56488"><ele>487.0</ele><time>2026-05-01T11:31:33.275Z</time></trkpt><trkpt lat="44.0202967" lon="7.564815"><ele>487.0</ele><time>2026-05-01T11:31:34.275Z</time></trkpt><trkpt lat="44.0201617" lon="7.564765"><ele>487.0</ele><time>2026-05-01T11:31:35.275Z</time></trkpt><trkpt lat="44.0200183" lon="7.564735"><ele>486.0</ele><time>2026-05-01T11:31:36.275Z</time></trkpt><trkpt lat="44.0198683" lon="7.5647067"><ele>485.0</ele><time>2026-05-01T11:31:37.275Z</time></trkpt><trkpt lat="44.0197133" lon="7.56471"><ele>484.0</ele><time>2026-05-01T11:31:38.275Z</time></trkpt><trkpt lat="44.01956" lon="7.5647083"><ele>484.0</ele><time>2026-05-01T11:31:39.275Z</time></trkpt><trkpt lat="44.01941" lon="7.5646833"><ele>484.0</ele><time>2026-05-01T11:31:40.276Z</time></trkpt><trkpt lat="44.0192583" lon="7.5646533"><ele>484.0</ele><time>2026-05-01T11:31:41.275Z</time></trkpt><trkpt lat="44.0191" lon="7.5646183"><ele>482.33333333333337</ele><time>2026-05-01T11:31:42.275Z</time></trkpt><trkpt lat="44.0189383" lon="7.5645883"><ele>480.66666666666663</ele><time>2026-05-01T11:31:43.275Z</time></trkpt><trkpt lat="44.0187817" lon="7.5645583"><ele>479.0</ele><time>2026-05-01T11:31:44.276Z</time></trkpt><trkpt lat="44.018615" lon="7.5645017"><ele>482.66666666666663</ele><time>2026-05-01T11:31:45.275Z</time></trkpt><trkpt lat="44.01846" lon="7.5644467"><ele>486.33333333333337</ele><time>2026-05-01T11:31:46.276Z</time></trkpt><trkpt lat="44.01829" lon="7.564395"><ele>490.0</ele><time>2026-05-01T11:31:47.275Z</time></trkpt><trkpt lat="44.01812" lon="7.5643433"><ele>490.0</ele><time>2026-05-01T11:31:48.275Z</time></trkpt><trkpt lat="44.01795" lon="7.5642833"><ele>490.0</ele><time>2026-05-01T11:31:49.275Z</time></trkpt><trkpt lat="44.0177767" lon="7.56421"><ele>490.0</ele><time>2026-05-01T11:31:50.275Z</time></trkpt><trkpt lat="44.017435" lon="7.5640533"><ele>487.33333333333337</ele><time>2026-05-01T11:31:52.275Z</time></trkpt><trkpt lat="44.0172667" lon="7.5639867"><ele>484.66666666666663</ele><time>2026-05-01T11:31:53.275Z</time></trkpt><trkpt lat="44.017095" lon="7.5639367"><ele>482.0</ele><time>2026-05-01T11:31:54.275Z</time></trkpt><trkpt lat="44.0169233" lon="7.5638683"><ele>482.0</ele><time>2026-05-01T11:31:55.275Z</time></trkpt><trkpt lat="44.0167567" lon="7.56381"><ele>482.0</ele><time>2026-05-01T11:31:56.275Z</time></trkpt><trkpt lat="44.0165917" lon="7.56374"><ele>482.0</ele><time>2026-05-01T11:31:57.275Z</time></trkpt><trkpt lat="44.0164267" lon="7.5636483"><ele>478.0</ele><time>2026-05-01T11:31:58.275Z</time></trkpt><trkpt lat="44.0162617" lon="7.5635383"><ele>474.0</ele><time>2026-05-01T11:31:59.275Z</time></trkpt><trkpt lat="44.0161217" lon="7.56338"><ele>470.0</ele><time>2026-05-01T11:32:00.276Z</time></trkpt><trkpt lat="44.0159783" lon="7.5632133"><ele>470.0</ele><time>2026-05-01T11:32:01.275Z</time></trkpt><trkpt lat="44.0158233" lon="7.563065"><ele>470.0</ele><time>2026-05-01T11:32:02.275Z</time></trkpt><trkpt lat="44.01566" lon="7.5629183"><ele>470.0</ele><time>2026-05-01T11:32:03.275Z</time></trkpt><trkpt lat="44.0155" lon="7.5627633"><ele>469.66666666666663</ele><time>2026-05-01T11:32:04.275Z</time></trkpt><trkpt lat="44.0153367" lon="7.5626067"><ele>469.33333333333337</ele><time>2026-05-01T11:32:05.275Z</time></trkpt><trkpt lat="44.015175" lon="7.5624517"><ele>469.0</ele><time>2026-05-01T11:32:06.275Z</time></trkpt><trkpt lat="44.0150067" lon="7.5623"><ele>472.33333333333337</ele><time>2026-05-01T11:32:07.275Z</time></trkpt><trkpt lat="44.0148483" lon="7.5621417"><ele>475.66666666666663</ele><time>2026-05-01T11:32:08.276Z</time></trkpt><trkpt lat="44.014685" lon="7.5619833"><ele>479.0</ele><time>2026-05-01T11:32:09.276Z</time></trkpt><trkpt lat="44.0145283" lon="7.5618267"><ele>481.5</ele><time>2026-05-01T11:32:10.275Z</time></trkpt><trkpt lat="44.0143767" lon="7.5616817"><ele>484.0</ele><time>2026-05-01T11:32:11.275Z</time></trkpt><trkpt lat="44.014085" lon="7.561385"><ele>484.0</ele><time>2026-05-01T11:32:13.275Z</time></trkpt><trkpt lat="44.013955" lon="7.5612567"><ele>484.0</ele><time>2026-05-01T11:32:14.275Z</time></trkpt><trkpt lat="44.0138517" lon="7.561105"><ele>484.0</ele><time>2026-05-01T11:32:15.276Z</time></trkpt><trkpt lat="44.0137683" lon="7.5609317"><ele>477.0</ele><time>2026-05-01T11:32:16.275Z</time></trkpt><trkpt lat="44.0136883" lon="7.56074"><ele>470.0</ele><time>2026-05-01T11:32:17.275Z</time></trkpt><trkpt lat="44.0136067" lon="7.56053"><ele>463.0</ele><time>2026-05-01T11:32:18.275Z</time></trkpt><trkpt lat="44.01351" lon="7.56035"><ele>462.6666666666667</ele><time>2026-05-01T11:32:19.275Z</time></trkpt><trkpt lat="44.0134133" lon="7.5601583"><ele>462.33333333333337</ele><time>2026-05-01T11:32:20.275Z</time></trkpt><trkpt lat="44.0133317" lon="7.5599517"><ele>462.0</ele><time>2026-05-01T11:32:21.275Z</time></trkpt><trkpt lat="44.01324" lon="7.559745"><ele>465.0</ele><time>2026-05-01T11:32:22.275Z</time></trkpt><trkpt lat="44.0131433" lon="7.559555"><ele>468.0</ele><time>2026-05-01T11:32:23.275Z</time></trkpt><trkpt lat="44.0130433" lon="7.55939"><ele>471.0</ele><time>2026-05-01T11:32:24.275Z</time></trkpt><trkpt lat="44.0129317" lon="7.5592333"><ele>465.0</ele><time>2026-05-01T11:32:25.275Z</time></trkpt><trkpt lat="44.0128033" lon="7.55909"><ele>459.0</ele><time>2026-05-01T11:32:26.275Z</time></trkpt><trkpt lat="44.0126667" lon="7.5589633"><ele>453.0</ele><time>2026-05-01T11:32:27.275Z</time></trkpt><trkpt lat="44.0125217" lon="7.55885"><ele>451.33333333333337</ele><time>2026-05-01T11:32:28.275Z</time></trkpt><trkpt lat="44.0123667" lon="7.5587233"><ele>449.6666666666667</ele><time>2026-05-01T11:32:29.275Z</time></trkpt><trkpt lat="44.0122183" lon="7.5586233"><ele>448.0</ele><time>2026-05-01T11:32:30.275Z</time></trkpt><trkpt lat="44.0120733" lon="7.558545"><ele>448.0</ele><time>2026-05-01T11:32:31.276Z</time></trkpt><trkpt lat="44.0119333" lon="7.5584567"><ele>448.0</ele><time>2026-05-01T11:32:32.275Z</time></trkpt><trkpt lat="44.0116683" lon="7.5582717"><ele>449.5</ele><time>2026-05-01T11:32:34.275Z</time></trkpt><trkpt lat="44.0115383" lon="7.5581967"><ele>451.0</ele><time>2026-05-01T11:32:35.275Z</time></trkpt><trkpt lat="44.011405" lon="7.55813"><ele>452.5</ele><time>2026-05-01T11:32:36.275Z</time></trkpt><trkpt lat="44.01127" lon="7.55807"><ele>454.0</ele><time>2026-05-01T11:32:37.275Z</time></trkpt><trkpt lat="44.0111333" lon="7.5580233"><ele>454.0</ele><time>2026-05-01T11:32:38.275Z</time></trkpt><trkpt lat="44.0109883" lon="7.557985"><ele>454.0</ele><time>2026-05-01T11:32:39.275Z</time></trkpt><trkpt lat="44.0108517" lon="7.5579283"><ele>454.0</ele><time>2026-05-01T11:32:40.276Z</time></trkpt><trkpt lat="44.010715" lon="7.5578717"><ele>454.0</ele><time>2026-05-01T11:32:41.276Z</time></trkpt><trkpt lat="44.0105817" lon="7.5578117"><ele>452.25</ele><time>2026-05-01T11:32:42.276Z</time></trkpt><trkpt lat="44.010465" lon="7.5577383"><ele>450.5</ele><time>2026-05-01T11:32:43.275Z</time></trkpt><trkpt lat="44.010365" lon="7.5576433"><ele>448.75</ele><time>2026-05-01T11:32:44.276Z</time></trkpt><trkpt lat="44.0102633" lon="7.5575483"><ele>447.0</ele><time>2026-05-01T11:32:45.275Z</time></trkpt><trkpt lat="44.01019" lon="7.5574133"><ele>447.0</ele><time>2026-05-01T11:32:46.275Z</time></trkpt><trkpt lat="44.0101283" lon="7.5572483"><ele>447.0</ele><time>2026-05-01T11:32:47.275Z</time></trkpt><trkpt lat="44.0100633" lon="7.5570783"><ele>447.0</ele><time>2026-05-01T11:32:48.275Z</time></trkpt><trkpt lat="44.010005" lon="7.5569133"><ele>447.0</ele><time>2026-05-01T11:32:49.275Z</time></trkpt><trkpt lat="44.009945" lon="7.556745"><ele>446.25</ele><time>2026-05-01T11:32:50.275Z</time></trkpt><trkpt lat="44.0098667" lon="7.5566117"><ele>445.5</ele><time>2026-05-01T11:32:51.275Z</time></trkpt><trkpt lat="44.0097883" lon="7.556455"><ele>444.75</ele><time>2026-05-01T11:32:52.275Z</time></trkpt><trkpt lat="44.0097133" lon="7.5563083"><ele>444.0</ele><time>2026-05-01T11:32:53.275Z</time></trkpt><trkpt lat="44.00953" lon="7.556055"><ele>442.0</ele><time>2026-05-01T11:32:55.275Z</time></trkpt><trkpt lat="44.009425" lon="7.5559583"><ele>440.0</ele><time>2026-05-01T11:32:56.275Z</time></trkpt><trkpt lat="44.0093033" lon="7.5558583"><ele>438.0</ele><time>2026-05-01T11:32:57.275Z</time></trkpt><trkpt lat="44.0091767" lon="7.5557867"><ele>436.0</ele><time>2026-05-01T11:32:58.275Z</time></trkpt><trkpt lat="44.0090467" lon="7.5557233"><ele>436.0</ele><time>2026-05-01T11:32:59.275Z</time></trkpt><trkpt lat="44.008915" lon="7.5556683"><ele>436.0</ele><time>2026-05-01T11:33:00.275Z</time></trkpt><trkpt lat="44.0087867" lon="7.555585"><ele>436.0</ele><time>2026-05-01T11:33:01.276Z</time></trkpt><trkpt lat="44.008655" lon="7.5555"><ele>436.0</ele><time>2026-05-01T11:33:02.276Z</time></trkpt><trkpt lat="44.0085283" lon="7.5554117"><ele>437.0</ele><time>2026-05-01T11:33:03.275Z</time></trkpt><trkpt lat="44.0084033" lon="7.5553267"><ele>438.0</ele><time>2026-05-01T11:33:04.275Z</time></trkpt><trkpt lat="44.0082817" lon="7.5552417"><ele>439.0</ele><time>2026-05-01T11:33:05.275Z</time></trkpt><trkpt lat="44.0081533" lon="7.5551583"><ele>440.0</ele><time>2026-05-01T11:33:06.275Z</time></trkpt><trkpt lat="44.0080233" lon="7.5550767"><ele>440.0</ele><time>2026-05-01T11:33:07.275Z</time></trkpt><trkpt lat="44.0078967" lon="7.555015"><ele>440.0</ele><time>2026-05-01T11:33:08.275Z</time></trkpt><trkpt lat="44.00776" lon="7.5549617"><ele>440.0</ele><time>2026-05-01T11:33:09.275Z</time></trkpt><trkpt lat="44.0076233" lon="7.5549233"><ele>440.0</ele><time>2026-05-01T11:33:10.275Z</time></trkpt><trkpt lat="44.0074917" lon="7.5548833"><ele>439.75</ele><time>2026-05-01T11:33:11.275Z</time></trkpt><trkpt lat="44.0073633" lon="7.5548467"><ele>439.5</ele><time>2026-05-01T11:33:12.275Z</time></trkpt><trkpt lat="44.0072383" lon="7.5548233"><ele>439.25</ele><time>2026-05-01T11:33:13.275Z</time></trkpt><trkpt lat="44.007115" lon="7.5548033"><ele>439.0</ele><time>2026-05-01T11:33:14.275Z</time></trkpt><trkpt lat="44.0068833" lon="7.5547683"><ele>439.00000000000006</ele><time>2026-05-01T11:33:16.275Z</time></trkpt><trkpt lat="44.0067783" lon="7.5547667"><ele>439.0</ele><time>2026-05-01T11:33:17.276Z</time></trkpt><trkpt lat="44.0066833" lon="7.5547933"><ele>439.0</ele><time>2026-05-01T11:33:18.275Z</time></trkpt><trkpt lat="44.0066033" lon="7.55483"><ele>439.0</ele><time>2026-05-01T11:33:19.275Z</time></trkpt><trkpt lat="44.0065283" lon="7.55488"><ele>439.00000000000006</ele><time>2026-05-01T11:33:20.275Z</time></trkpt><trkpt lat="44.0064633" lon="7.5549367"><ele>439.0</ele><time>2026-05-01T11:33:21.275Z</time></trkpt><trkpt lat="44.006395" lon="7.55497"><ele>437.83333333333337</ele><time>2026-05-01T11:33:22.275Z</time></trkpt><trkpt lat="44.0063183" lon="7.5549933"><ele>436.6666666666667</ele><time>2026-05-01T11:33:23.275Z</time></trkpt><trkpt lat="44.0062283" lon="7.5549867"><ele>435.5</ele><time>2026-05-01T11:33:24.275Z</time></trkpt><trkpt lat="44.0061383" lon="7.5549667"><ele>434.33333333333337</ele><time>2026-05-01T11:33:25.275Z</time></trkpt><trkpt lat="44.0060433" lon="7.5549317"><ele>433.1666666666667</ele><time>2026-05-01T11:33:26.275Z</time></trkpt><trkpt lat="44.0059533" lon="7.5549117"><ele>432.0</ele><time>2026-05-01T11:33:27.275Z</time></trkpt><trkpt lat="44.0058633" lon="7.5548783"><ele>430.8333333333333</ele><time>2026-05-01T11:33:28.275Z</time></trkpt><trkpt lat="44.005775" lon="7.554845"><ele>429.66666666666663</ele><time>2026-05-01T11:33:29.275Z</time></trkpt><trkpt lat="44.00569" lon="7.5548033"><ele>428.5</ele><time>2026-05-01T11:33:30.275Z</time></trkpt><trkpt lat="44.0056167" lon="7.5547733"><ele>427.3333333333333</ele><time>2026-05-01T11:33:31.275Z</time></trkpt><trkpt lat="44.0055467" lon="7.5547467"><ele>426.16666666666663</ele><time>2026-05-01T11:33:32.275Z</time></trkpt><trkpt lat="44.00548" lon="7.5547183"><ele>425.0</ele><time>2026-05-01T11:33:33.275Z</time></trkpt><trkpt lat="44.00541" lon="7.5547"><ele>425.0</ele><time>2026-05-01T11:33:34.275Z</time></trkpt><trkpt lat="44.00534" lon="7.55468"><ele>425.0</ele><time>2026-05-01T11:33:35.275Z</time></trkpt><trkpt lat="44.0051783" lon="7.55464"><ele>425.0</ele><time>2026-05-01T11:33:37.275Z</time></trkpt><trkpt lat="44.0050967" lon="7.5546283"><ele>425.0</ele><time>2026-05-01T11:33:38.275Z</time></trkpt><trkpt lat="44.0050133" lon="7.5546133"><ele>425.0</ele><time>2026-05-01T11:33:39.275Z</time></trkpt><trkpt lat="44.0049333" lon="7.5545867"><ele>424.8333333333333</ele><time>2026-05-01T11:33:40.275Z</time></trkpt><trkpt lat="44.0048533" lon="7.55456"><ele>424.66666666666663</ele><time>2026-05-01T11:33:41.275Z</time></trkpt><trkpt lat="44.0047783" lon="7.554535"><ele>424.5</ele><time>2026-05-01T11:33:42.275Z</time></trkpt><trkpt lat="44.0047" lon="7.5545067"><ele>424.33333333333337</ele><time>2026-05-01T11:33:43.275Z</time></trkpt><trkpt lat="44.0046167" lon="7.5544817"><ele>424.1666666666667</ele><time>2026-05-01T11:33:44.275Z</time></trkpt><trkpt lat="44.0045383" lon="7.55443"><ele>424.0</ele><time>2026-05-01T11:33:45.275Z</time></trkpt><trkpt lat="44.0044567" lon="7.55441"><ele>424.33333333333337</ele><time>2026-05-01T11:33:46.275Z</time></trkpt><trkpt lat="44.0043817" lon="7.554395"><ele>424.6666666666667</ele><time>2026-05-01T11:33:47.275Z</time></trkpt><trkpt lat="44.0043117" lon="7.55438"><ele>425.0</ele><time>2026-05-01T11:33:48.275Z</time></trkpt><trkpt lat="44.00424" lon="7.5543667"><ele>425.33333333333337</ele><time>2026-05-01T11:33:49.275Z</time></trkpt><trkpt lat="44.00417" lon="7.554355"><ele>425.6666666666667</ele><time>2026-05-01T11:33:50.275Z</time></trkpt><trkpt lat="44.0040533" lon="7.5543233"><ele>426.0</ele><time>2026-05-01T11:33:52.275Z</time></trkpt><trkpt lat="44.00396" lon="7.5542783"><ele>426.0</ele><time>2026-05-01T11:33:54.275Z</time></trkpt><trkpt lat="44.0038617" lon="7.55424"><ele>426.0</ele><time>2026-05-01T11:33:56.276Z</time></trkpt><trkpt lat="44.0036567" lon="7.5541633"><ele>426.0</ele><time>2026-05-01T11:34:00.275Z</time></trkpt><trkpt lat="44.0035417" lon="7.5541183"><ele>426.0</ele><time>2026-05-01T11:34:02.275Z</time></trkpt><trkpt lat="44.0034767" lon="7.5540983"><ele>426.0</ele><time>2026-05-01T11:34:03.275Z</time></trkpt><trkpt lat="44.0034033" lon="7.5540683"><ele>426.0</ele><time>2026-05-01T11:34:04.275Z</time></trkpt><trkpt lat="44.0033267" lon="7.5540183"><ele>426.0</ele><time>2026-05-01T11:34:05.275Z</time></trkpt><trkpt lat="44.00323" lon="7.5539483"><ele>426.0</ele><time>2026-05-01T11:34:06.275Z</time></trkpt><trkpt lat="44.0031217" lon="7.5538617"><ele>426.0</ele><time>2026-05-01T11:34:07.275Z</time></trkpt><trkpt lat="44.0030183" lon="7.5537983"><ele>426.4</ele><time>2026-05-01T11:34:08.275Z</time></trkpt><trkpt lat="44.002915" lon="7.5537517"><ele>426.8</ele><time>2026-05-01T11:34:09.276Z</time></trkpt><trkpt lat="44.0028217" lon="7.5537117"><ele>427.19999999999993</ele><time>2026-05-01T11:34:10.275Z</time></trkpt><trkpt lat="44.0027367" lon="7.55368"><ele>427.59999999999997</ele><time>2026-05-01T11:34:11.275Z</time></trkpt><trkpt lat="44.002655" lon="7.5536383"><ele>428.0</ele><time>2026-05-01T11:34:12.275Z</time></trkpt><trkpt lat="44.0025683" lon="7.553585"><ele>426.79999999999995</ele><time>2026-05-01T11:34:13.275Z</time></trkpt><trkpt lat="44.00249" lon="7.5535267"><ele>425.59999999999997</ele><time>2026-05-01T11:34:14.275Z</time></trkpt><trkpt lat="44.0024083" lon="7.5534717"><ele>424.4</ele><time>2026-05-01T11:34:15.275Z</time></trkpt><trkpt lat="44.00234" lon="7.5534067"><ele>423.20000000000005</ele><time>2026-05-01T11:34:16.275Z</time></trkpt><trkpt lat="44.0022817" lon="7.5533517"><ele>422.0</ele><time>2026-05-01T11:34:17.275Z</time></trkpt><trkpt lat="44.0021017" lon="7.5532283"><ele>421.99999999999994</ele><time>2026-05-01T11:34:20.275Z</time></trkpt><trkpt lat="44.0019883" lon="7.5531417"><ele>422.0</ele><time>2026-05-01T11:34:22.275Z</time></trkpt><trkpt lat="44.0019283" lon="7.5530967"><ele>422.0</ele><time>2026-05-01T11:34:23.275Z</time></trkpt><trkpt lat="44.0018667" lon="7.5530567"><ele>422.0</ele><time>2026-05-01T11:34:24.276Z</time></trkpt><trkpt lat="44.0018033" lon="7.5530267"><ele>421.99999999999994</ele><time>2026-05-01T11:34:25.275Z</time></trkpt><trkpt lat="44.0017417" lon="7.5529967"><ele>422.0</ele><time>2026-05-01T11:34:26.275Z</time></trkpt><trkpt lat="44.001625" lon="7.552945"><ele>421.0</ele><time>2026-05-01T11:34:28.275Z</time></trkpt><trkpt lat="44.00152" lon="7.5528917"><ele>420.0</ele><time>2026-05-01T11:34:30.275Z</time></trkpt><trkpt lat="44.00142" lon="7.552835"><ele>419.0</ele><time>2026-05-01T11:34:32.275Z</time></trkpt><trkpt lat="44.0013133" lon="7.552785"><ele>418.0</ele><time>2026-05-01T11:34:34.275Z</time></trkpt><trkpt lat="44.0012183" lon="7.552735"><ele>417.0</ele><time>2026-05-01T11:34:36.276Z</time></trkpt><trkpt lat="44.00112" lon="7.55269"><ele>417.6</ele><time>2026-05-01T11:34:38.276Z</time></trkpt><trkpt lat="44.000965" lon="7.5525883"><ele>418.20000000000005</ele><time>2026-05-01T11:34:42.275Z</time></trkpt><trkpt lat="44.0008783" lon="7.5525533"><ele>418.8</ele><time>2026-05-01T11:34:44.275Z</time></trkpt><trkpt lat="44.0007967" lon="7.552525"><ele>419.4</ele><time>2026-05-01T11:34:46.275Z</time></trkpt><trkpt lat="44.00073" lon="7.5524717"><ele>420.0</ele><time>2026-05-01T11:34:48.275Z</time></trkpt><trkpt lat="44.0006367" lon="7.552405"><ele>420.0</ele><time>2026-05-01T11:35:47.275Z</time></trkpt><trkpt lat="44.0004483" lon="7.5522817"><ele>420.0</ele><time>2026-05-01T11:35:50.275Z</time></trkpt><trkpt lat="44.00036" lon="7.5522183"><ele>420.0</ele><time>2026-05-01T11:35:51.275Z</time></trkpt><trkpt lat="44.0002683" lon="7.5521667"><ele>420.0</ele><time>2026-05-01T11:35:52.275Z</time></trkpt><trkpt lat="44.0001817" lon="7.55211"><ele>420.0</ele><time>2026-05-01T11:35:53.275Z</time></trkpt><trkpt lat="44.0000917" lon="7.5520583"><ele>420.0</ele><time>2026-05-01T11:35:54.275Z</time></trkpt><trkpt lat="44.0" lon="7.5519817"><ele>420.0</ele><time>2026-05-01T11:35:55.275Z</time></trkpt><trkpt lat="43.9998983" lon="7.5519017"><ele>420.0</ele><time>2026-05-01T11:35:56.275Z</time></trkpt><trkpt lat="43.9997983" lon="7.5518183"><ele>420.0</ele><time>2026-05-01T11:35:57.275Z</time></trkpt><trkpt lat="43.9996933" lon="7.5517367"><ele>423.0</ele><time>2026-05-01T11:35:58.275Z</time></trkpt><trkpt lat="43.9995817" lon="7.5516517"><ele>426.0</ele><time>2026-05-01T11:35:59.275Z</time></trkpt><trkpt lat="43.9994817" lon="7.5515617"><ele>429.0</ele><time>2026-05-01T11:36:00.275Z</time></trkpt><trkpt lat="43.99939" lon="7.55146"><ele>432.0</ele><time>2026-05-01T11:36:01.275Z</time></trkpt><trkpt lat="43.9992967" lon="7.5513483"><ele>432.0</ele><time>2026-05-01T11:36:02.275Z</time></trkpt><trkpt lat="43.9992167" lon="7.5512167"><ele>432.0</ele><time>2026-05-01T11:36:03.276Z</time></trkpt><trkpt lat="43.9991367" lon="7.5510867"><ele>432.0</ele><time>2026-05-01T11:36:04.275Z</time></trkpt><trkpt lat="43.999055" lon="7.5509683"><ele>432.0</ele><time>2026-05-01T11:36:05.275Z</time></trkpt><trkpt lat="43.9989633" lon="7.5508733"><ele>431.5</ele><time>2026-05-01T11:36:06.275Z</time></trkpt><trkpt lat="43.9988683" lon="7.550785"><ele>431.0</ele><time>2026-05-01T11:36:07.275Z</time></trkpt><trkpt lat="43.99877" lon="7.550705"><ele>430.5</ele><time>2026-05-01T11:36:08.275Z</time></trkpt><trkpt lat="43.99859" lon="7.5506133"><ele>430.0</ele><time>2026-05-01T11:36:10.275Z</time></trkpt><trkpt lat="43.9984967" lon="7.5505667"><ele>430.0</ele><time>2026-05-01T11:36:11.275Z</time></trkpt><trkpt lat="43.99841" lon="7.550535"><ele>430.0</ele><time>2026-05-01T11:36:12.275Z</time></trkpt><trkpt lat="43.9983217" lon="7.550485"><ele>430.0</ele><time>2026-05-01T11:36:13.276Z</time></trkpt><trkpt lat="43.9982383" lon="7.5504367"><ele>430.0</ele><time>2026-05-01T11:36:14.275Z</time></trkpt><trkpt lat="43.9981483" lon="7.550375"><ele>430.0</ele><time>2026-05-01T11:36:15.275Z</time></trkpt><trkpt lat="43.9980583" lon="7.55031"><ele>436.0</ele><time>2026-05-01T11:36:16.275Z</time></trkpt><trkpt lat="43.9979617" lon="7.5502383"><ele>442.0</ele><time>2026-05-01T11:36:17.275Z</time></trkpt><trkpt lat="43.9978633" lon="7.55017"><ele>448.0</ele><time>2026-05-01T11:36:18.275Z</time></trkpt><trkpt lat="43.997755" lon="7.550105"><ele>454.0</ele><time>2026-05-01T11:36:19.275Z</time></trkpt><trkpt lat="43.99764" lon="7.55005"><ele>454.0</ele><time>2026-05-01T11:36:20.275Z</time></trkpt><trkpt lat="43.99752" lon="7.5500083"><ele>454.0</ele><time>2026-05-01T11:36:21.276Z</time></trkpt><trkpt lat="43.9974083" lon="7.54997"><ele>454.0</ele><time>2026-05-01T11:36:22.276Z</time></trkpt><trkpt lat="43.9972967" lon="7.5499333"><ele>454.0</ele><time>2026-05-01T11:36:23.275Z</time></trkpt><trkpt lat="43.9971883" lon="7.5499083"><ele>446.75</ele><time>2026-05-01T11:36:24.276Z</time></trkpt><trkpt lat="43.9970767" lon="7.549875"><ele>439.5</ele><time>2026-05-01T11:36:25.275Z</time></trkpt><trkpt lat="43.99696" lon="7.5498333"><ele>432.25</ele><time>2026-05-01T11:36:26.275Z</time></trkpt><trkpt lat="43.9968483" lon="7.5497967"><ele>425.0</ele><time>2026-05-01T11:36:27.275Z</time></trkpt><trkpt lat="43.9967317" lon="7.54976"><ele>421.66666666666663</ele><time>2026-05-01T11:36:28.275Z</time></trkpt><trkpt lat="43.9966183" lon="7.5497233"><ele>418.33333333333337</ele><time>2026-05-01T11:36:29.276Z</time></trkpt><trkpt lat="43.9963867" lon="7.5496567"><ele>415.0</ele><time>2026-05-01T11:36:31.276Z</time></trkpt><trkpt lat="43.996265" lon="7.54963"><ele>415.0</ele><time>2026-05-01T11:36:32.275Z</time></trkpt><trkpt lat="43.9961467" lon="7.54961"><ele>415.0</ele><time>2026-05-01T11:36:33.275Z</time></trkpt><trkpt lat="43.996025" lon="7.5495933"><ele>415.0</ele><time>2026-05-01T11:36:34.276Z</time></trkpt><trkpt lat="43.995905" lon="7.5495767"><ele>415.0</ele><time>2026-05-01T11:36:35.275Z</time></trkpt><trkpt lat="43.9957833" lon="7.54957"><ele>414.25</ele><time>2026-05-01T11:36:36.275Z</time></trkpt><trkpt lat="43.9956583" lon="7.5495633"><ele>413.5</ele><time>2026-05-01T11:36:37.275Z</time></trkpt><trkpt lat="43.9955317" lon="7.549595"><ele>412.75</ele><time>2026-05-01T11:36:38.275Z</time></trkpt><trkpt lat="43.9954033" lon="7.5496233"><ele>412.0</ele><time>2026-05-01T11:36:39.275Z</time></trkpt><trkpt lat="43.9952783" lon="7.5496483"><ele>412.0</ele><time>2026-05-01T11:36:40.275Z</time></trkpt><trkpt lat="43.995155" lon="7.5496783"><ele>412.0</ele><time>2026-05-01T11:36:41.275Z</time></trkpt><trkpt lat="43.99502" lon="7.5497083"><ele>412.0</ele><time>2026-05-01T11:36:42.275Z</time></trkpt><trkpt lat="43.9948867" lon="7.5497433"><ele>412.0</ele><time>2026-05-01T11:36:43.276Z</time></trkpt><trkpt lat="43.99475" lon="7.5497733"><ele>411.75</ele><time>2026-05-01T11:36:44.275Z</time></trkpt><trkpt lat="43.9946117" lon="7.5497983"><ele>411.5</ele><time>2026-05-01T11:36:45.276Z</time></trkpt><trkpt lat="43.9944733" lon="7.5498083"><ele>411.25</ele><time>2026-05-01T11:36:46.275Z</time></trkpt><trkpt lat="43.9943533" lon="7.5497983"><ele>411.0</ele><time>2026-05-01T11:36:47.276Z</time></trkpt><trkpt lat="43.9942383" lon="7.5497433"><ele>410.33333333333337</ele><time>2026-05-01T11:36:48.276Z</time></trkpt><trkpt lat="43.9941283" lon="7.54965"><ele>409.6666666666667</ele><time>2026-05-01T11:36:49.275Z</time></trkpt><trkpt lat="43.99402" lon="7.549515"><ele>409.0</ele><time>2026-05-01T11:36:50.276Z</time></trkpt><trkpt lat="43.9937833" lon="7.549185"><ele>409.0</ele><time>2026-05-01T11:36:52.275Z</time></trkpt><trkpt lat="43.99365" lon="7.5490183"><ele>409.0</ele><time>2026-05-01T11:36:53.276Z</time></trkpt><trkpt lat="43.9935083" lon="7.54882"><ele>409.0</ele><time>2026-05-01T11:36:54.275Z</time></trkpt><trkpt lat="43.9933817" lon="7.5486183"><ele>407.33333333333337</ele><time>2026-05-01T11:36:55.275Z</time></trkpt><trkpt lat="43.9932767" lon="7.548425"><ele>405.66666666666663</ele><time>2026-05-01T11:36:56.276Z</time></trkpt><trkpt lat="43.993185" lon="7.548245"><ele>404.0</ele><time>2026-05-01T11:36:57.275Z</time></trkpt><trkpt lat="43.9930933" lon="7.5480733"><ele>404.0</ele><time>2026-05-01T11:36:58.275Z</time></trkpt><trkpt lat="43.9930017" lon="7.5479167"><ele>404.0</ele><time>2026-05-01T11:36:59.275Z</time></trkpt><trkpt lat="43.9929017" lon="7.547755"><ele>404.0</ele><time>2026-05-01T11:37:00.275Z</time></trkpt><trkpt lat="43.9927817" lon="7.54762"><ele>404.3333333333333</ele><time>2026-05-01T11:37:01.276Z</time></trkpt><trkpt lat="43.9926483" lon="7.54751"><ele>404.66666666666663</ele><time>2026-05-01T11:37:02.275Z</time></trkpt><trkpt lat="43.9924933" lon="7.54741"><ele>405.0</ele><time>2026-05-01T11:37:03.275Z</time></trkpt><trkpt lat="43.99233" lon="7.5473283"><ele>405.66666666666663</ele><time>2026-05-01T11:37:04.275Z</time></trkpt><trkpt lat="43.9921633" lon="7.5472567"><ele>406.3333333333333</ele><time>2026-05-01T11:37:05.275Z</time></trkpt><trkpt lat="43.991995" lon="7.5471917"><ele>407.0</ele><time>2026-05-01T11:37:06.275Z</time></trkpt><trkpt lat="43.99183" lon="7.5471233"><ele>407.3333333333333</ele><time>2026-05-01T11:37:07.275Z</time></trkpt><trkpt lat="43.9916617" lon="7.54706"><ele>407.66666666666663</ele><time>2026-05-01T11:37:08.275Z</time></trkpt><trkpt lat="43.9914967" lon="7.5469883"><ele>408.0</ele><time>2026-05-01T11:37:09.276Z</time></trkpt><trkpt lat="43.9913433" lon="7.5469233"><ele>408.0</ele><time>2026-05-01T11:37:10.275Z</time></trkpt><trkpt lat="43.9911917" lon="7.5468367"><ele>408.0</ele><time>2026-05-01T11:37:11.276Z</time></trkpt><trkpt lat="43.99091" lon="7.5466683"><ele>412.0</ele><time>2026-05-01T11:37:13.275Z</time></trkpt><trkpt lat="43.99077" lon="7.5466017"><ele>416.0</ele><time>2026-05-01T11:37:14.275Z</time></trkpt><trkpt lat="43.990625" lon="7.54656"><ele>420.0</ele><time>2026-05-01T11:37:15.275Z</time></trkpt><trkpt lat="43.99049" lon="7.5465433"><ele>424.0</ele><time>2026-05-01T11:37:16.275Z</time></trkpt><trkpt lat="43.9903433" lon="7.546605"><ele>424.0</ele><time>2026-05-01T11:37:17.275Z</time></trkpt><trkpt lat="43.9902" lon="7.546685"><ele>424.0</ele><time>2026-05-01T11:37:18.275Z</time></trkpt><trkpt lat="43.9900933" lon="7.546755"><ele>424.0</ele><time>2026-05-01T11:37:19.275Z</time></trkpt><trkpt lat="43.989975" lon="7.5468733"><ele>424.0</ele><time>2026-05-01T11:37:20.275Z</time></trkpt><trkpt lat="43.9898367" lon="7.54701"><ele>425.0</ele><time>2026-05-01T11:37:21.276Z</time></trkpt><trkpt lat="43.9896967" lon="7.5470733"><ele>426.0</ele><time>2026-05-01T11:37:22.275Z</time></trkpt><trkpt lat="43.9895533" lon="7.5471767"><ele>427.0</ele><time>2026-05-01T11:37:23.276Z</time></trkpt><trkpt lat="43.9893867" lon="7.5473217"><ele>427.0</ele><time>2026-05-01T11:37:24.275Z</time></trkpt><trkpt lat="43.98922" lon="7.5474133"><ele>427.0</ele><time>2026-05-01T11:37:25.275Z</time></trkpt><trkpt lat="43.9890617" lon="7.5474217"><ele>427.0</ele><time>2026-05-01T11:37:26.275Z</time></trkpt><trkpt lat="43.9888867" lon="7.5474167"><ele>417.33333333333337</ele><time>2026-05-01T11:37:27.275Z</time></trkpt><trkpt lat="43.9886933" lon="7.5474167"><ele>407.66666666666663</ele><time>2026-05-01T11:37:28.275Z</time></trkpt><trkpt lat="43.9885117" lon="7.54741"><ele>398.0</ele><time>2026-05-01T11:37:29.275Z</time></trkpt><trkpt lat="43.9883283" lon="7.5474083"><ele>394.66666666666663</ele><time>2026-05-01T11:37:30.275Z</time></trkpt><trkpt lat="43.9881483" lon="7.5473917"><ele>391.33333333333337</ele><time>2026-05-01T11:37:31.276Z</time></trkpt><trkpt lat="43.98799" lon="7.547375"><ele>388.0</ele><time>2026-05-01T11:37:32.275Z</time></trkpt><trkpt lat="43.98767" lon="7.547295"><ele>388.0</ele><time>2026-05-01T11:37:34.275Z</time></trkpt><trkpt lat="43.9875133" lon="7.5472033"><ele>388.0</ele><time>2026-05-01T11:37:35.275Z</time></trkpt><trkpt lat="43.9873417" lon="7.5471017"><ele>388.0</ele><time>2026-05-01T11:37:36.275Z</time></trkpt><trkpt lat="43.987165" lon="7.5469983"><ele>388.33333333333337</ele><time>2026-05-01T11:37:37.275Z</time></trkpt><trkpt lat="43.9869933" lon="7.5469017"><ele>388.66666666666663</ele><time>2026-05-01T11:37:38.275Z</time></trkpt><trkpt lat="43.9868183" lon="7.5468117"><ele>389.0</ele><time>2026-05-01T11:37:39.275Z</time></trkpt><trkpt lat="43.9866433" lon="7.5467267"><ele>389.0</ele><time>2026-05-01T11:37:40.275Z</time></trkpt><trkpt lat="43.98646" lon="7.54666"><ele>389.0</ele><time>2026-05-01T11:37:41.276Z</time></trkpt><trkpt lat="43.9862717" lon="7.5465933"><ele>389.0</ele><time>2026-05-01T11:37:42.275Z</time></trkpt><trkpt lat="43.98609" lon="7.546525"><ele>389.0</ele><time>2026-05-01T11:37:43.275Z</time></trkpt><trkpt lat="43.9859067" lon="7.5464617"><ele>389.0</ele><time>2026-05-01T11:37:44.275Z</time></trkpt><trkpt lat="43.9857167" lon="7.54639"><ele>389.0</ele><time>2026-05-01T11:37:45.276Z</time></trkpt><trkpt lat="43.98552" lon="7.54632"><ele>397.3333333333333</ele><time>2026-05-01T11:37:46.276Z</time></trkpt><trkpt lat="43.9853267" lon="7.5462483"><ele>405.66666666666663</ele><time>2026-05-01T11:37:47.275Z</time></trkpt><trkpt lat="43.985135" lon="7.5461817"><ele>414.0</ele><time>2026-05-01T11:37:48.275Z</time></trkpt><trkpt lat="43.9826983" lon="7.5458583"><ele>397.5</ele><time>2026-05-01T11:38:02.275Z</time></trkpt><trkpt lat="43.9822733" lon="7.5457567"><ele>381.0</ele><time>2026-05-01T11:38:04.275Z</time></trkpt><trkpt lat="43.9820883" lon="7.5456867"><ele>381.0</ele><time>2026-05-01T11:38:05.275Z</time></trkpt><trkpt lat="43.9819133" lon="7.5456083"><ele>381.0</ele><time>2026-05-01T11:38:06.275Z</time></trkpt><trkpt lat="43.9817333" lon="7.5455167"><ele>381.0</ele><time>2026-05-01T11:38:07.275Z</time></trkpt><trkpt lat="43.9815567" lon="7.5454267"><ele>381.6666666666667</ele><time>2026-05-01T11:38:08.276Z</time></trkpt><trkpt lat="43.9813817" lon="7.5453333"><ele>382.33333333333337</ele><time>2026-05-01T11:38:09.275Z</time></trkpt><trkpt lat="43.9812133" lon="7.54524"><ele>383.0</ele><time>2026-05-01T11:38:10.275Z</time></trkpt><trkpt lat="43.981035" lon="7.545175"><ele>378.6666666666667</ele><time>2026-05-01T11:38:11.275Z</time></trkpt><trkpt lat="43.9808483" lon="7.5451233"><ele>374.3333333333333</ele><time>2026-05-01T11:38:12.275Z</time></trkpt><trkpt lat="43.98066" lon="7.5450717"><ele>370.0</ele><time>2026-05-01T11:38:13.275Z</time></trkpt><trkpt lat="43.980475" lon="7.545015"><ele>370.0</ele><time>2026-05-01T11:38:14.275Z</time></trkpt><trkpt lat="43.9802833" lon="7.54496"><ele>370.0</ele><time>2026-05-01T11:38:15.275Z</time></trkpt><trkpt lat="43.9800967" lon="7.5449"><ele>370.0</ele><time>2026-05-01T11:38:16.275Z</time></trkpt><trkpt lat="43.9799033" lon="7.5448333"><ele>377.66666666666663</ele><time>2026-05-01T11:38:17.275Z</time></trkpt><trkpt lat="43.9796967" lon="7.5447617"><ele>385.3333333333333</ele><time>2026-05-01T11:38:18.275Z</time></trkpt><trkpt lat="43.9795" lon="7.5446933"><ele>393.0</ele><time>2026-05-01T11:38:19.275Z</time></trkpt><trkpt lat="43.9793033" lon="7.5446267"><ele>352.0</ele><time>2026-05-01T11:38:20.275Z</time></trkpt><trkpt lat="43.975385" lon="7.5407983"><ele>355.5</ele><time>2026-05-01T11:38:46.274Z</time></trkpt><trkpt lat="43.975135" lon="7.54037"><ele>359.0</ele><time>2026-05-01T11:38:48.274Z</time></trkpt><trkpt lat="43.97499" lon="7.54019"><ele>359.0</ele><time>2026-05-01T11:38:49.275Z</time></trkpt><trkpt lat="43.97484" lon="7.540035"><ele>359.0</ele><time>2026-05-01T11:38:50.274Z</time></trkpt><trkpt lat="43.9746733" lon="7.539885"><ele>359.0</ele><time>2026-05-01T11:38:51.274Z</time></trkpt><trkpt lat="43.9745083" lon="7.5397567"><ele>359.0</ele><time>2026-05-01T11:38:52.274Z</time></trkpt><trkpt lat="43.9743333" lon="7.5396433"><ele>359.0</ele><time>2026-05-01T11:38:53.274Z</time></trkpt><trkpt lat="43.9741467" lon="7.5395383"><ele>359.0</ele><time>2026-05-01T11:38:54.274Z</time></trkpt><trkpt lat="43.97397" lon="7.5394333"><ele>364.33333333333337</ele><time>2026-05-01T11:38:55.274Z</time></trkpt><trkpt lat="43.973795" lon="7.5393167"><ele>369.6666666666667</ele><time>2026-05-01T11:38:56.274Z</time></trkpt><trkpt lat="43.97362" lon="7.53921"><ele>375.0</ele><time>2026-05-01T11:38:57.274Z</time></trkpt><trkpt lat="43.9734567" lon="7.5390983"><ele>369.0</ele><time>2026-05-01T11:38:58.274Z</time></trkpt><trkpt lat="43.9732917" lon="7.5389983"><ele>363.0</ele><time>2026-05-01T11:38:59.274Z</time></trkpt><trkpt lat="43.9731133" lon="7.53893"><ele>357.0</ele><time>2026-05-01T11:39:00.274Z</time></trkpt><trkpt lat="43.9729333" lon="7.53887"><ele>357.0</ele><time>2026-05-01T11:39:01.274Z</time></trkpt><trkpt lat="43.9727483" lon="7.5388083"><ele>357.0</ele><time>2026-05-01T11:39:02.274Z</time></trkpt><trkpt lat="43.9725667" lon="7.5387433"><ele>357.0</ele><time>2026-05-01T11:39:03.274Z</time></trkpt><trkpt lat="43.9723817" lon="7.5386717"><ele>361.3333333333333</ele><time>2026-05-01T11:39:04.274Z</time></trkpt><trkpt lat="43.9722083" lon="7.53859"><ele>365.66666666666663</ele><time>2026-05-01T11:39:05.274Z</time></trkpt><trkpt lat="43.9720433" lon="7.538505"><ele>370.0</ele><time>2026-05-01T11:39:06.274Z</time></trkpt><trkpt lat="43.97188" lon="7.53842"><ele>362.0</ele><time>2026-05-01T11:39:07.274Z</time></trkpt><trkpt lat="43.9715617" lon="7.538215"><ele>354.0</ele><time>2026-05-01T11:39:09.274Z</time></trkpt><trkpt lat="43.9714" lon="7.5380967"><ele>354.0</ele><time>2026-05-01T11:39:10.275Z</time></trkpt><trkpt lat="43.9712333" lon="7.5379483"><ele>354.0</ele><time>2026-05-01T11:39:11.274Z</time></trkpt><trkpt lat="43.971075" lon="7.537775"><ele>354.0</ele><time>2026-05-01T11:39:12.274Z</time></trkpt><trkpt lat="43.9709233" lon="7.53758"><ele>354.3333333333333</ele><time>2026-05-01T11:39:13.274Z</time></trkpt><trkpt lat="43.970775" lon="7.53737"><ele>354.66666666666663</ele><time>2026-05-01T11:39:14.274Z</time></trkpt><trkpt lat="43.9706517" lon="7.53715"><ele>355.0</ele><time>2026-05-01T11:39:15.274Z</time></trkpt><trkpt lat="43.9705267" lon="7.536915"><ele>355.0</ele><time>2026-05-01T11:39:16.275Z</time></trkpt><trkpt lat="43.9704017" lon="7.5366817"><ele>355.0</ele><time>2026-05-01T11:39:17.274Z</time></trkpt><trkpt lat="43.9702867" lon="7.5364333"><ele>355.0</ele><time>2026-05-01T11:39:18.274Z</time></trkpt><trkpt lat="43.970175" lon="7.536175"><ele>353.0</ele><time>2026-05-01T11:39:19.274Z</time></trkpt><trkpt lat="43.9700633" lon="7.5359067"><ele>351.0</ele><time>2026-05-01T11:39:20.275Z</time></trkpt><trkpt lat="43.9699667" lon="7.5356433"><ele>349.0</ele><time>2026-05-01T11:39:21.274Z</time></trkpt><trkpt lat="43.9698767" lon="7.5353783"><ele>349.0</ele><time>2026-05-01T11:39:22.274Z</time></trkpt><trkpt lat="43.9697883" lon="7.5351183"><ele>349.0</ele><time>2026-05-01T11:39:23.274Z</time></trkpt><trkpt lat="43.9697167" lon="7.5348417"><ele>349.0</ele><time>2026-05-01T11:39:24.275Z</time></trkpt><trkpt lat="43.9696417" lon="7.53458"><ele>351.3333333333333</ele><time>2026-05-01T11:39:25.274Z</time></trkpt><trkpt lat="43.9695833" lon="7.53431"><ele>353.6666666666667</ele><time>2026-05-01T11:39:26.274Z</time></trkpt><trkpt lat="43.9695233" lon="7.534025"><ele>356.0</ele><time>2026-05-01T11:39:27.274Z</time></trkpt><trkpt lat="43.9694717" lon="7.5337233"><ele>361.5</ele><time>2026-05-01T11:39:28.274Z</time></trkpt><trkpt lat="43.9693683" lon="7.5331267"><ele>367.0</ele><time>2026-05-01T11:39:30.274Z</time></trkpt><trkpt lat="43.9693217" lon="7.532825"><ele>372.66666666666663</ele><time>2026-05-01T11:39:31.274Z</time></trkpt><trkpt lat="43.9692783" lon="7.5325317"><ele>378.3333333333333</ele><time>2026-05-01T11:39:32.274Z</time></trkpt><trkpt lat="43.9692167" lon="7.5322467"><ele>384.0</ele><time>2026-05-01T11:39:33.275Z</time></trkpt><trkpt lat="43.9691483" lon="7.5319733"><ele>377.6666666666667</ele><time>2026-05-01T11:39:34.274Z</time></trkpt><trkpt lat="43.9690567" lon="7.5317033"><ele>371.33333333333337</ele><time>2026-05-01T11:39:35.274Z</time></trkpt><trkpt lat="43.96895" lon="7.5314483"><ele>365.0</ele><time>2026-05-01T11:39:36.274Z</time></trkpt><trkpt lat="43.96884" lon="7.5311917"><ele>365.0</ele><time>2026-05-01T11:39:37.274Z</time></trkpt><trkpt lat="43.9687167" lon="7.5309517"><ele>365.0</ele><time>2026-05-01T11:39:38.274Z</time></trkpt><trkpt lat="43.96858" lon="7.530725"><ele>365.0</ele><time>2026-05-01T11:39:39.274Z</time></trkpt><trkpt lat="43.9684283" lon="7.5305133"><ele>355.33333333333337</ele><time>2026-05-01T11:39:40.274Z</time></trkpt><trkpt lat="43.9682917" lon="7.5302983"><ele>345.6666666666667</ele><time>2026-05-01T11:39:41.274Z</time></trkpt><trkpt lat="43.96816" lon="7.5300683"><ele>336.0</ele><time>2026-05-01T11:39:42.274Z</time></trkpt><trkpt lat="43.9680283" lon="7.5298267"><ele>336.0</ele><time>2026-05-01T11:39:43.274Z</time></trkpt><trkpt lat="43.9679017" lon="7.529585"><ele>336.0</ele><time>2026-05-01T11:39:44.274Z</time></trkpt><trkpt lat="43.9677833" lon="7.52933"><ele>336.0</ele><time>2026-05-01T11:39:45.274Z</time></trkpt><trkpt lat="43.9676767" lon="7.52909"><ele>335.6666666666667</ele><time>2026-05-01T11:39:46.274Z</time></trkpt><trkpt lat="43.9675633" lon="7.5288467"><ele>335.33333333333337</ele><time>2026-05-01T11:39:47.274Z</time></trkpt><trkpt lat="43.967455" lon="7.5286117"><ele>335.0</ele><time>2026-05-01T11:39:48.274Z</time></trkpt><trkpt lat="43.9673333" lon="7.52838"><ele>335.0</ele><time>2026-05-01T11:39:49.274Z</time></trkpt><trkpt lat="43.9670717" lon="7.527955"><ele>335.0</ele><time>2026-05-01T11:39:51.274Z</time></trkpt><trkpt lat="43.9669467" lon="7.5277383"><ele>337.6666666666667</ele><time>2026-05-01T11:39:52.274Z</time></trkpt><trkpt lat="43.9668183" lon="7.5275167"><ele>340.3333333333333</ele><time>2026-05-01T11:39:53.274Z</time></trkpt><trkpt lat="43.966695" lon="7.527285"><ele>343.0</ele><time>2026-05-01T11:39:54.274Z</time></trkpt><trkpt lat="43.96659" lon="7.5270517"><ele>343.0</ele><time>2026-05-01T11:39:55.274Z</time></trkpt><trkpt lat="43.9664783" lon="7.526825"><ele>343.0</ele><time>2026-05-01T11:39:56.275Z</time></trkpt><trkpt lat="43.966355" lon="7.526595"><ele>343.0</ele><time>2026-05-01T11:39:57.274Z</time></trkpt><trkpt lat="43.96623" lon="7.5263683"><ele>338.66666666666663</ele><time>2026-05-01T11:39:58.274Z</time></trkpt><trkpt lat="43.9661" lon="7.5261567"><ele>334.3333333333333</ele><time>2026-05-01T11:39:59.274Z</time></trkpt><trkpt lat="43.965965" lon="7.5259567"><ele>330.0</ele><time>2026-05-01T11:40:00.274Z</time></trkpt><trkpt lat="43.96582" lon="7.5257617"><ele>330.0</ele><time>2026-05-01T11:40:01.274Z</time></trkpt><trkpt lat="43.965665" lon="7.5255817"><ele>330.0</ele><time>2026-05-01T11:40:02.274Z</time></trkpt><trkpt lat="43.9655167" lon="7.52541"><ele>330.0</ele><time>2026-05-01T11:40:03.274Z</time></trkpt><trkpt lat="43.9653583" lon="7.5252467"><ele>329.0</ele><time>2026-05-01T11:40:04.274Z</time></trkpt><trkpt lat="43.9651917" lon="7.5250917"><ele>328.0</ele><time>2026-05-01T11:40:05.274Z</time></trkpt><trkpt lat="43.9650167" lon="7.5249483"><ele>327.0</ele><time>2026-05-01T11:40:06.275Z</time></trkpt><trkpt lat="43.9648367" lon="7.5248267"><ele>327.0</ele><time>2026-05-01T11:40:07.275Z</time></trkpt><trkpt lat="43.96465" lon="7.5247183"><ele>327.0</ele><time>2026-05-01T11:40:08.274Z</time></trkpt><trkpt lat="43.9644583" lon="7.5246117"><ele>327.0</ele><time>2026-05-01T11:40:09.274Z</time></trkpt><trkpt lat="43.9642717" lon="7.5245067"><ele>329.0</ele><time>2026-05-01T11:40:10.274Z</time></trkpt><trkpt lat="43.9638933" lon="7.5243"><ele>331.0</ele><time>2026-05-01T11:40:12.274Z</time></trkpt><trkpt lat="43.963705" lon="7.5241833"><ele>331.0</ele><time>2026-05-01T11:40:13.274Z</time></trkpt><trkpt lat="43.9635183" lon="7.52407"><ele>331.0</ele><time>2026-05-01T11:40:14.274Z</time></trkpt><trkpt lat="43.96333" lon="7.5239567"><ele>331.0</ele><time>2026-05-01T11:40:15.274Z</time></trkpt><trkpt lat="43.9631433" lon="7.5238383"><ele>334.0</ele><time>2026-05-01T11:40:16.274Z</time></trkpt><trkpt lat="43.9629567" lon="7.5237167"><ele>337.0</ele><time>2026-05-01T11:40:17.274Z</time></trkpt><trkpt lat="43.9627717" lon="7.523595"><ele>340.0</ele><time>2026-05-01T11:40:18.274Z</time></trkpt><trkpt lat="43.9625867" lon="7.5234767"><ele>334.66666666666663</ele><time>2026-05-01T11:40:19.274Z</time></trkpt><trkpt lat="43.9623967" lon="7.5233717"><ele>329.3333333333333</ele><time>2026-05-01T11:40:20.274Z</time></trkpt><trkpt lat="43.96221" lon="7.5232667"><ele>324.0</ele><time>2026-05-01T11:40:21.274Z</time></trkpt><trkpt lat="43.9620267" lon="7.523165"><ele>324.0</ele><time>2026-05-01T11:40:22.274Z</time></trkpt><trkpt lat="43.96184" lon="7.5230717"><ele>324.0</ele><time>2026-05-01T11:40:23.274Z</time></trkpt><trkpt lat="43.96165" lon="7.52298"><ele>324.0</ele><time>2026-05-01T11:40:24.274Z</time></trkpt><trkpt lat="43.9614567" lon="7.5228983"><ele>330.6666666666667</ele><time>2026-05-01T11:40:25.274Z</time></trkpt><trkpt lat="43.961265" lon="7.52281"><ele>337.33333333333337</ele><time>2026-05-01T11:40:26.275Z</time></trkpt><trkpt lat="43.961075" lon="7.5227083"><ele>344.0</ele><time>2026-05-01T11:40:27.275Z</time></trkpt><trkpt lat="43.9608767" lon="7.52264"><ele>338.6666666666667</ele><time>2026-05-01T11:40:28.274Z</time></trkpt><trkpt lat="43.9606883" lon="7.5225683"><ele>333.3333333333333</ele><time>2026-05-01T11:40:29.274Z</time></trkpt><trkpt lat="43.9604983" lon="7.5224917"><ele>328.0</ele><time>2026-05-01T11:40:30.274Z</time></trkpt><trkpt lat="43.9603" lon="7.52244"><ele>322.0</ele><time>2026-05-01T11:40:31.274Z</time></trkpt><trkpt lat="43.9599433" lon="7.5223217"><ele>316.0</ele><time>2026-05-01T11:40:33.274Z</time></trkpt><trkpt lat="43.9597667" lon="7.5222583"><ele>316.0</ele><time>2026-05-01T11:40:34.275Z</time></trkpt><trkpt lat="43.959605" lon="7.52218"><ele>316.0</ele><time>2026-05-01T11:40:35.274Z</time></trkpt><trkpt lat="43.9594583" lon="7.5220917"><ele>316.0</ele><time>2026-05-01T11:40:36.275Z</time></trkpt><trkpt lat="43.9593183" lon="7.5219883"><ele>316.5</ele><time>2026-05-01T11:40:37.274Z</time></trkpt><trkpt lat="43.95919" lon="7.5218833"><ele>317.0</ele><time>2026-05-01T11:40:38.274Z</time></trkpt><trkpt lat="43.9590717" lon="7.5217883"><ele>317.5</ele><time>2026-05-01T11:40:39.274Z</time></trkpt><trkpt lat="43.9589533" lon="7.52169"><ele>318.0</ele><time>2026-05-01T11:40:40.274Z</time></trkpt><trkpt lat="43.9588417" lon="7.5216017"><ele>318.0</ele><time>2026-05-01T11:40:41.275Z</time></trkpt><trkpt lat="43.958735" lon="7.5215117"><ele>318.0</ele><time>2026-05-01T11:40:42.275Z</time></trkpt><trkpt lat="43.9586317" lon="7.5214183"><ele>318.0</ele><time>2026-05-01T11:40:43.274Z</time></trkpt><trkpt lat="43.9585267" lon="7.52133"><ele>318.0</ele><time>2026-05-01T11:40:44.274Z</time></trkpt><trkpt lat="43.958415" lon="7.5212367"><ele>319.0</ele><time>2026-05-01T11:40:45.275Z</time></trkpt><trkpt lat="43.9582967" lon="7.5211533"><ele>320.0</ele><time>2026-05-01T11:40:46.275Z</time></trkpt><trkpt lat="43.958185" lon="7.5210583"><ele>321.0</ele><time>2026-05-01T11:40:47.275Z</time></trkpt><trkpt lat="43.9580733" lon="7.52097"><ele>322.0</ele><time>2026-05-01T11:40:48.274Z</time></trkpt><trkpt lat="43.9579617" lon="7.5208867"><ele>322.0</ele><time>2026-05-01T11:40:49.274Z</time></trkpt><trkpt lat="43.9578433" lon="7.5208183"><ele>322.0</ele><time>2026-05-01T11:40:50.274Z</time></trkpt><trkpt lat="43.9577267" lon="7.52076"><ele>322.0</ele><time>2026-05-01T11:40:51.275Z</time></trkpt><trkpt lat="43.957605" lon="7.52073"><ele>322.0</ele><time>2026-05-01T11:40:52.274Z</time></trkpt><trkpt lat="43.9573333" lon="7.5207317"><ele>319.75</ele><time>2026-05-01T11:40:54.274Z</time></trkpt><trkpt lat="43.957195" lon="7.5207417"><ele>317.5</ele><time>2026-05-01T11:40:55.275Z</time></trkpt><trkpt lat="43.957065" lon="7.5207533"><ele>315.25</ele><time>2026-05-01T11:40:56.274Z</time></trkpt><trkpt lat="43.9569383" lon="7.520765"><ele>313.0</ele><time>2026-05-01T11:40:57.274Z</time></trkpt><trkpt lat="43.95681" lon="7.5207833"><ele>312.75</ele><time>2026-05-01T11:40:58.274Z</time></trkpt><trkpt lat="43.9566683" lon="7.52081"><ele>312.5</ele><time>2026-05-01T11:40:59.275Z</time></trkpt><trkpt lat="43.9565383" lon="7.5208217"><ele>312.25</ele><time>2026-05-01T11:41:00.274Z</time></trkpt><trkpt lat="43.9564033" lon="7.5208333"><ele>312.0</ele><time>2026-05-01T11:41:01.275Z</time></trkpt><trkpt lat="43.9562633" lon="7.5208433"><ele>312.0</ele><time>2026-05-01T11:41:02.275Z</time></trkpt><trkpt lat="43.9561217" lon="7.5208617"><ele>312.0</ele><time>2026-05-01T11:41:03.274Z</time></trkpt><trkpt lat="43.9559767" lon="7.5208783"><ele>312.0</ele><time>2026-05-01T11:41:04.274Z</time></trkpt><trkpt lat="43.955835" lon="7.5208867"><ele>312.0</ele><time>2026-05-01T11:41:05.274Z</time></trkpt><trkpt lat="43.9556933" lon="7.520895"><ele>311.5</ele><time>2026-05-01T11:41:06.274Z</time></trkpt><trkpt lat="43.9555533" lon="7.5208883"><ele>311.0</ele><time>2026-05-01T11:41:07.274Z</time></trkpt><trkpt lat="43.9554217" lon="7.5208717"><ele>310.5</ele><time>2026-05-01T11:41:08.274Z</time></trkpt><trkpt lat="43.9552883" lon="7.5208417"><ele>310.0</ele><time>2026-05-01T11:41:09.274Z</time></trkpt><trkpt lat="43.9551583" lon="7.5207917"><ele>309.25</ele><time>2026-05-01T11:41:10.275Z</time></trkpt><trkpt lat="43.9550333" lon="7.5207133"><ele>308.5</ele><time>2026-05-01T11:41:11.275Z</time></trkpt><trkpt lat="43.954915" lon="7.5206167"><ele>307.75</ele><time>2026-05-01T11:41:12.274Z</time></trkpt><trkpt lat="43.9548067" lon="7.5204983"><ele>307.0</ele><time>2026-05-01T11:41:13.274Z</time></trkpt><trkpt lat="43.9545767" lon="7.5202717"><ele>308.0</ele><time>2026-05-01T11:41:15.274Z</time></trkpt><trkpt lat="43.9544517" lon="7.5201783"><ele>309.0</ele><time>2026-05-01T11:41:16.274Z</time></trkpt><trkpt lat="43.9543233" lon="7.5201067"><ele>310.0</ele><time>2026-05-01T11:41:17.274Z</time></trkpt><trkpt lat="43.9541867" lon="7.520065"><ele>311.0</ele><time>2026-05-01T11:41:18.274Z</time></trkpt><trkpt lat="43.9540517" lon="7.5200317"><ele>311.0</ele><time>2026-05-01T11:41:19.274Z</time></trkpt><trkpt lat="43.9539183" lon="7.520005"><ele>311.0</ele><time>2026-05-01T11:41:20.274Z</time></trkpt><trkpt lat="43.95378" lon="7.51997"><ele>311.0</ele><time>2026-05-01T11:41:21.274Z</time></trkpt><trkpt lat="43.9536517" lon="7.5199417"><ele>311.0</ele><time>2026-05-01T11:41:22.274Z</time></trkpt><trkpt lat="43.95352" lon="7.51989"><ele>311.0</ele><time>2026-05-01T11:41:23.274Z</time></trkpt><trkpt lat="43.9533917" lon="7.519835"><ele>311.0</ele><time>2026-05-01T11:41:24.274Z</time></trkpt><trkpt lat="43.953275" lon="7.519775"><ele>311.0</ele><time>2026-05-01T11:41:25.274Z</time></trkpt><trkpt lat="43.95316" lon="7.5197167"><ele>311.0</ele><time>2026-05-01T11:41:26.274Z</time></trkpt><trkpt lat="43.9530683" lon="7.519665"><ele>311.0</ele><time>2026-05-01T11:41:27.274Z</time></trkpt><trkpt lat="43.95299" lon="7.5196117"><ele>311.0</ele><time>2026-05-01T11:41:28.274Z</time></trkpt><trkpt lat="43.9529233" lon="7.5195733"><ele>311.0</ele><time>2026-05-01T11:41:29.274Z</time></trkpt><trkpt lat="43.95286" lon="7.5195417"><ele>311.0</ele><time>2026-05-01T11:41:30.275Z</time></trkpt><trkpt lat="43.9527967" lon="7.5195183"><ele>311.0</ele><time>2026-05-01T11:41:31.275Z</time></trkpt><trkpt lat="43.95267" lon="7.519435"><ele>311.0</ele><time>2026-05-01T11:41:33.274Z</time></trkpt><trkpt lat="43.952575" lon="7.5193833"><ele>312.0</ele><time>2026-05-01T11:41:34.275Z</time></trkpt><trkpt lat="43.9523467" lon="7.5192333"><ele>313.0</ele><time>2026-05-01T11:41:36.274Z</time></trkpt><trkpt lat="43.95222" lon="7.5191483"><ele>314.0</ele><time>2026-05-01T11:41:37.274Z</time></trkpt><trkpt lat="43.9520833" lon="7.5190683"><ele>314.0</ele><time>2026-05-01T11:41:38.275Z</time></trkpt><trkpt lat="43.95195" lon="7.5189983"><ele>314.0</ele><time>2026-05-01T11:41:39.274Z</time></trkpt><trkpt lat="43.9518217" lon="7.5189433"><ele>314.0</ele><time>2026-05-01T11:41:40.274Z</time></trkpt><trkpt lat="43.9517" lon="7.5188833"><ele>314.0</ele><time>2026-05-01T11:41:41.274Z</time></trkpt><trkpt lat="43.9515867" lon="7.5188317"><ele>313.4</ele><time>2026-05-01T11:41:42.275Z</time></trkpt><trkpt lat="43.9514767" lon="7.5187917"><ele>312.79999999999995</ele><time>2026-05-01T11:41:43.275Z</time></trkpt><trkpt lat="43.95137" lon="7.51876"><ele>312.20000000000005</ele><time>2026-05-01T11:41:44.274Z</time></trkpt><trkpt lat="43.9512667" lon="7.5187233"><ele>311.6</ele><time>2026-05-01T11:41:45.274Z</time></trkpt><trkpt lat="43.9511683" lon="7.5186983"><ele>311.0</ele><time>2026-05-01T11:41:46.274Z</time></trkpt><trkpt lat="43.9510867" lon="7.518675"><ele>313.5</ele><time>2026-05-01T11:41:47.275Z</time></trkpt><trkpt lat="43.95102" lon="7.51864"><ele>316.0</ele><time>2026-05-01T11:41:48.274Z</time></trkpt><trkpt lat="43.9509633" lon="7.5185867"><ele>318.5</ele><time>2026-05-01T11:41:49.274Z</time></trkpt><trkpt lat="43.950925" lon="7.5185167"><ele>321.0</ele><time>2026-05-01T11:41:50.274Z</time></trkpt><trkpt lat="43.950895" lon="7.518345"><ele>323.5</ele><time>2026-05-01T11:41:52.274Z</time></trkpt><trkpt lat="43.9508883" lon="7.518245"><ele>326.0</ele><time>2026-05-01T11:41:53.274Z</time></trkpt><trkpt lat="43.95088" lon="7.518145"><ele>325.20000000000005</ele><time>2026-05-01T11:41:54.274Z</time></trkpt><trkpt lat="43.950855" lon="7.51805"><ele>324.40000000000003</ele><time>2026-05-01T11:41:55.274Z</time></trkpt><trkpt lat="43.9507767" lon="7.5178683"><ele>323.6</ele><time>2026-05-01T11:41:57.274Z</time></trkpt><trkpt lat="43.9506933" lon="7.5177983"><ele>322.8</ele><time>2026-05-01T11:41:58.274Z</time></trkpt><trkpt lat="43.95059" lon="7.5177233"><ele>322.0</ele><time>2026-05-01T11:41:59.274Z</time></trkpt><trkpt lat="43.9504617" lon="7.517655"><ele>325.75</ele><time>2026-05-01T11:42:00.274Z</time></trkpt><trkpt lat="43.9503317" lon="7.51761"><ele>329.5</ele><time>2026-05-01T11:42:01.274Z</time></trkpt><trkpt lat="43.9502083" lon="7.5175717"><ele>333.25</ele><time>2026-05-01T11:42:02.274Z</time></trkpt><trkpt lat="43.9501033" lon="7.5175633"><ele>337.0</ele><time>2026-05-01T11:42:03.274Z</time></trkpt><trkpt lat="43.9500017" lon="7.5175633"><ele>337.0</ele><time>2026-05-01T11:42:04.274Z</time></trkpt><trkpt lat="43.94993" lon="7.517555"><ele>337.0</ele><time>2026-05-01T11:42:05.274Z</time></trkpt><trkpt lat="43.94986" lon="7.517475"><ele>337.0</ele><time>2026-05-01T11:42:07.274Z</time></trkpt><trkpt lat="43.949925" lon="7.517395"><ele>337.0</ele><time>2026-05-01T11:42:09.274Z</time></trkpt><trkpt lat="43.9499967" lon="7.5173733"><ele>337.0</ele><time>2026-05-01T11:42:10.274Z</time></trkpt><trkpt lat="43.9501033" lon="7.5173783"><ele>337.0</ele><time>2026-05-01T11:42:11.274Z</time></trkpt><trkpt lat="43.9502317" lon="7.5173833"><ele>338.5</ele><time>2026-05-01T11:42:12.274Z</time></trkpt><trkpt lat="43.9503783" lon="7.5174017"><ele>340.0</ele><time>2026-05-01T11:42:13.274Z</time></trkpt><trkpt lat="43.9505217" lon="7.51744"><ele>341.5</ele><time>2026-05-01T11:42:14.274Z</time></trkpt><trkpt lat="43.9506533" lon="7.5174883"><ele>343.0</ele><time>2026-05-01T11:42:15.274Z</time></trkpt><trkpt lat="43.9507767" lon="7.5175417"><ele>342.5</ele><time>2026-05-01T11:42:16.274Z</time></trkpt><trkpt lat="43.9509917" lon="7.517575"><ele>342.0</ele><time>2026-05-01T11:42:18.274Z</time></trkpt><trkpt lat="43.9510983" lon="7.517545"><ele>341.5</ele><time>2026-05-01T11:42:19.275Z</time></trkpt><trkpt lat="43.9512" lon="7.51749"><ele>341.0</ele><time>2026-05-01T11:42:20.274Z</time></trkpt><trkpt lat="43.9513167" lon="7.51743"><ele>341.0</ele><time>2026-05-01T11:42:21.275Z</time></trkpt><trkpt lat="43.95144" lon="7.5173733"><ele>341.0</ele><time>2026-05-01T11:42:22.274Z</time></trkpt><trkpt lat="43.9515717" lon="7.5173167"><ele>341.0</ele><time>2026-05-01T11:42:23.274Z</time></trkpt><trkpt lat="43.9516883" lon="7.5172783"><ele>341.0</ele><time>2026-05-01T11:42:24.274Z</time></trkpt><trkpt lat="43.9518033" lon="7.5172367"><ele>341.0</ele><time>2026-05-01T11:42:25.275Z</time></trkpt><trkpt lat="43.9519233" lon="7.5171967"><ele>341.0</ele><time>2026-05-01T11:42:26.274Z</time></trkpt><trkpt lat="43.952035" lon="7.5171633"><ele>341.0</ele><time>2026-05-01T11:42:27.274Z</time></trkpt><trkpt lat="43.9521433" lon="7.5171283"><ele>341.0</ele><time>2026-05-01T11:42:28.274Z</time></trkpt><trkpt lat="43.9522483" lon="7.517125"><ele>341.0</ele><time>2026-05-01T11:42:29.274Z</time></trkpt><trkpt lat="43.95235" lon="7.5171333"><ele>341.0</ele><time>2026-05-01T11:42:30.275Z</time></trkpt><trkpt lat="43.9524533" lon="7.5171283"><ele>341.0</ele><time>2026-05-01T11:42:31.274Z</time></trkpt><trkpt lat="43.9525633" lon="7.5171217"><ele>341.0</ele><time>2026-05-01T11:42:32.275Z</time></trkpt><trkpt lat="43.9526767" lon="7.5170883"><ele>341.0</ele><time>2026-05-01T11:42:33.274Z</time></trkpt><trkpt lat="43.9527783" lon="7.5170333"><ele>340.0</ele><time>2026-05-01T11:42:34.274Z</time></trkpt><trkpt lat="43.9528683" lon="7.5169567"><ele>339.0</ele><time>2026-05-01T11:42:35.274Z</time></trkpt><trkpt lat="43.952945" lon="7.5168317"><ele>338.0</ele><time>2026-05-01T11:42:36.274Z</time></trkpt><trkpt lat="43.9530167" lon="7.516695"><ele>337.0</ele><time>2026-05-01T11:42:37.274Z</time></trkpt><trkpt lat="43.9531233" lon="7.5163883"><ele>342.75</ele><time>2026-05-01T11:42:39.274Z</time></trkpt><trkpt lat="43.9531733" lon="7.5162333"><ele>348.5</ele><time>2026-05-01T11:42:40.274Z</time></trkpt><trkpt lat="43.953225" lon="7.516075"><ele>354.25</ele><time>2026-05-01T11:42:41.274Z</time></trkpt><trkpt lat="43.9532817" lon="7.5159167"><ele>360.0</ele><time>2026-05-01T11:42:42.274Z</time></trkpt><trkpt lat="43.9533483" lon="7.5157633"><ele>358.5</ele><time>2026-05-01T11:42:43.274Z</time></trkpt><trkpt lat="43.9534083" lon="7.5156233"><ele>357.0</ele><time>2026-05-01T11:42:44.274Z</time></trkpt><trkpt lat="43.953485" lon="7.5154867"><ele>355.5</ele><time>2026-05-01T11:42:45.274Z</time></trkpt><trkpt lat="43.9535683" lon="7.5153617"><ele>354.0</ele><time>2026-05-01T11:42:46.274Z</time></trkpt><trkpt lat="43.953665" lon="7.5152533"><ele>354.0</ele><time>2026-05-01T11:42:47.274Z</time></trkpt><trkpt lat="43.9537717" lon="7.5151467"><ele>354.0</ele><time>2026-05-01T11:42:48.274Z</time></trkpt><trkpt lat="43.9538733" lon="7.5150283"><ele>354.0</ele><time>2026-05-01T11:42:49.274Z</time></trkpt><trkpt lat="43.95397" lon="7.5149083"><ele>354.0</ele><time>2026-05-01T11:42:50.275Z</time></trkpt><trkpt lat="43.954065" lon="7.514775"><ele>354.0</ele><time>2026-05-01T11:42:51.274Z</time></trkpt><trkpt lat="43.9541567" lon="7.51463"><ele>354.0</ele><time>2026-05-01T11:42:52.274Z</time></trkpt><trkpt lat="43.9542417" lon="7.5145017"><ele>354.0</ele><time>2026-05-01T11:42:53.274Z</time></trkpt><trkpt lat="43.9543183" lon="7.51439"><ele>354.0</ele><time>2026-05-01T11:42:54.275Z</time></trkpt><trkpt lat="43.954395" lon="7.5143117"><ele>351.79999999999995</ele><time>2026-05-01T11:42:55.274Z</time></trkpt><trkpt lat="43.95446" lon="7.5142633"><ele>349.59999999999997</ele><time>2026-05-01T11:42:56.274Z</time></trkpt><trkpt lat="43.95451" lon="7.5141417"><ele>347.4</ele><time>2026-05-01T11:42:58.274Z</time></trkpt><trkpt lat="43.9543717" lon="7.5141083"><ele>345.2</ele><time>2026-05-01T11:43:02.274Z</time></trkpt><trkpt lat="43.9542767" lon="7.5142283"><ele>343.0</ele><time>2026-05-01T11:43:03.274Z</time></trkpt><trkpt lat="43.9541667" lon="7.5143833"><ele>345.75</ele><time>2026-05-01T11:43:04.274Z</time></trkpt><trkpt lat="43.9540517" lon="7.51453"><ele>348.5</ele><time>2026-05-01T11:43:05.275Z</time></trkpt><trkpt lat="43.9539383" lon="7.5146367"><ele>351.25</ele><time>2026-05-01T11:43:06.274Z</time></trkpt><trkpt lat="43.9538217" lon="7.514725"><ele>354.0</ele><time>2026-05-01T11:43:07.274Z</time></trkpt><trkpt lat="43.9536983" lon="7.5148167"><ele>354.0</ele><time>2026-05-01T11:43:08.274Z</time></trkpt><trkpt lat="43.953565" lon="7.5149117"><ele>354.0</ele><time>2026-05-01T11:43:09.274Z</time></trkpt><trkpt lat="43.953445" lon="7.5150217"><ele>354.0</ele><time>2026-05-01T11:43:10.275Z</time></trkpt><trkpt lat="43.9533367" lon="7.5151367"><ele>354.0</ele><time>2026-05-01T11:43:11.274Z</time></trkpt><trkpt lat="43.9532217" lon="7.5152567"><ele>355.5</ele><time>2026-05-01T11:43:12.274Z</time></trkpt><trkpt lat="43.9531167" lon="7.515385"><ele>357.0</ele><time>2026-05-01T11:43:13.274Z</time></trkpt><trkpt lat="43.9530167" lon="7.5155"><ele>358.5</ele><time>2026-05-01T11:43:14.274Z</time></trkpt><trkpt lat="43.952915" lon="7.5156017"><ele>360.0</ele><time>2026-05-01T11:43:15.274Z</time></trkpt><trkpt lat="43.9528117" lon="7.5156933"><ele>360.0</ele><time>2026-05-01T11:43:16.274Z</time></trkpt><trkpt lat="43.9526883" lon="7.515755"><ele>360.0</ele><time>2026-05-01T11:43:17.274Z</time></trkpt><trkpt lat="43.95257" lon="7.5157917"><ele>360.0</ele><time>2026-05-01T11:43:18.274Z</time></trkpt><trkpt lat="43.9524433" lon="7.51579"><ele>360.0</ele><time>2026-05-01T11:43:19.274Z</time></trkpt><trkpt lat="43.9521667" lon="7.51573"><ele>366.0</ele><time>2026-05-01T11:43:21.275Z</time></trkpt><trkpt lat="43.95203" lon="7.5156767"><ele>372.0</ele><time>2026-05-01T11:43:22.274Z</time></trkpt><trkpt lat="43.9518983" lon="7.51562"><ele>378.0</ele><time>2026-05-01T11:43:23.274Z</time></trkpt><trkpt lat="43.9517717" lon="7.5155983"><ele>384.0</ele><time>2026-05-01T11:43:24.274Z</time></trkpt><trkpt lat="43.951645" lon="7.51563"><ele>385.5</ele><time>2026-05-01T11:43:25.274Z</time></trkpt><trkpt lat="43.951505" lon="7.5156467"><ele>387.0</ele><time>2026-05-01T11:43:26.274Z</time></trkpt><trkpt lat="43.9513683" lon="7.5156533"><ele>388.5</ele><time>2026-05-01T11:43:27.274Z</time></trkpt><trkpt lat="43.9512333" lon="7.51564"><ele>390.0</ele><time>2026-05-01T11:43:28.275Z</time></trkpt><trkpt lat="43.9510933" lon="7.51563"><ele>390.0</ele><time>2026-05-01T11:43:29.274Z</time></trkpt><trkpt lat="43.9509583" lon="7.5156417"><ele>390.0</ele><time>2026-05-01T11:43:30.274Z</time></trkpt><trkpt lat="43.9508183" lon="7.5156583"><ele>390.0</ele><time>2026-05-01T11:43:31.275Z</time></trkpt><trkpt lat="43.9506767" lon="7.5156817"><ele>390.0</ele><time>2026-05-01T11:43:32.274Z</time></trkpt><trkpt lat="43.9505633" lon="7.5156867"><ele>391.5</ele><time>2026-05-01T11:43:33.274Z</time></trkpt><trkpt lat="43.950455" lon="7.5156667"><ele>393.0</ele><time>2026-05-01T11:43:34.274Z</time></trkpt><trkpt lat="43.9503483" lon="7.5155983"><ele>394.5</ele><time>2026-05-01T11:43:35.274Z</time></trkpt><trkpt lat="43.950245" lon="7.515515"><ele>396.0</ele><time>2026-05-01T11:43:36.274Z</time></trkpt><trkpt lat="43.9501383" lon="7.5154333"><ele>402.75</ele><time>2026-05-01T11:43:37.274Z</time></trkpt><trkpt lat="43.9500217" lon="7.5153567"><ele>409.5</ele><time>2026-05-01T11:43:38.274Z</time></trkpt><trkpt lat="43.9499067" lon="7.5152967"><ele>416.25</ele><time>2026-05-01T11:43:39.274Z</time></trkpt><trkpt lat="43.9497867" lon="7.5152483"><ele>423.0</ele><time>2026-05-01T11:43:40.275Z</time></trkpt><trkpt lat="43.9495417" lon="7.515245"><ele>423.0</ele><time>2026-05-01T11:43:42.274Z</time></trkpt><trkpt lat="43.94943" lon="7.5152683"><ele>423.0</ele><time>2026-05-01T11:43:43.274Z</time></trkpt><trkpt lat="43.9493367" lon="7.5152867"><ele>423.0</ele><time>2026-05-01T11:43:44.274Z</time></trkpt><trkpt lat="43.9492417" lon="7.5153"><ele>423.0</ele><time>2026-05-01T11:43:45.274Z</time></trkpt><trkpt lat="43.94915" lon="7.515275"><ele>423.0</ele><time>2026-05-01T11:43:46.274Z</time></trkpt><trkpt lat="43.9490767" lon="7.5152033"><ele>420.2</ele><time>2026-05-01T11:43:47.274Z</time></trkpt><trkpt lat="43.9490433" lon="7.5150867"><ele>417.4</ele><time>2026-05-01T11:43:48.274Z</time></trkpt><trkpt lat="43.9490533" lon="7.5149683"><ele>414.59999999999997</ele><time>2026-05-01T11:43:49.274Z</time></trkpt><trkpt lat="43.9490983" lon="7.514825"><ele>411.79999999999995</ele><time>2026-05-01T11:43:50.274Z</time></trkpt><trkpt lat="43.9491583" lon="7.5146617"><ele>409.0</ele><time>2026-05-01T11:43:51.274Z</time></trkpt><trkpt lat="43.9492217" lon="7.514475"><ele>417.75</ele><time>2026-05-01T11:43:52.275Z</time></trkpt><trkpt lat="43.9492633" lon="7.5142933"><ele>426.5</ele><time>2026-05-01T11:43:53.274Z</time></trkpt><trkpt lat="43.949295" lon="7.5141183"><ele>435.25</ele><time>2026-05-01T11:43:54.275Z</time></trkpt><trkpt lat="43.94932" lon="7.5139517"><ele>444.0</ele><time>2026-05-01T11:43:55.274Z</time></trkpt><trkpt lat="43.949315" lon="7.5137933"><ele>439.5</ele><time>2026-05-01T11:43:56.274Z</time></trkpt><trkpt lat="43.9492883" lon="7.51364"><ele>435.0</ele><time>2026-05-01T11:43:57.274Z</time></trkpt><trkpt lat="43.9492333" lon="7.5134883"><ele>430.5</ele><time>2026-05-01T11:43:58.274Z</time></trkpt><trkpt lat="43.9491833" lon="7.5133083"><ele>426.0</ele><time>2026-05-01T11:43:59.274Z</time></trkpt><trkpt lat="43.9491433" lon="7.5131283"><ele>426.0</ele><time>2026-05-01T11:44:00.274Z</time></trkpt><trkpt lat="43.9491083" lon="7.5129567"><ele>426.0</ele><time>2026-05-01T11:44:01.274Z</time></trkpt><trkpt lat="43.9490033" lon="7.5126717"><ele>426.0</ele><time>2026-05-01T11:44:03.274Z</time></trkpt><trkpt lat="43.9489233" lon="7.5125733"><ele>430.20000000000005</ele><time>2026-05-01T11:44:04.274Z</time></trkpt><trkpt lat="43.9488217" lon="7.51251"><ele>434.40000000000003</ele><time>2026-05-01T11:44:05.274Z</time></trkpt><trkpt lat="43.9487133" lon="7.5125033"><ele>438.6</ele><time>2026-05-01T11:44:06.274Z</time></trkpt><trkpt lat="43.948605" lon="7.51253"><ele>442.8</ele><time>2026-05-01T11:44:07.274Z</time></trkpt><trkpt lat="43.9485017" lon="7.5125983"><ele>447.0</ele><time>2026-05-01T11:44:08.275Z</time></trkpt><trkpt lat="43.9483983" lon="7.5126517"><ele>443.75</ele><time>2026-05-01T11:44:09.274Z</time></trkpt><trkpt lat="43.948265" lon="7.5126667"><ele>440.5</ele><time>2026-05-01T11:44:10.274Z</time></trkpt><trkpt lat="43.9481233" lon="7.5126183"><ele>437.25</ele><time>2026-05-01T11:44:11.274Z</time></trkpt><trkpt lat="43.94799" lon="7.5125283"><ele>434.0</ele><time>2026-05-01T11:44:12.274Z</time></trkpt><trkpt lat="43.9478567" lon="7.51241"><ele>434.0</ele><time>2026-05-01T11:44:13.274Z</time></trkpt><trkpt lat="43.9477383" lon="7.5122717"><ele>434.0</ele><time>2026-05-01T11:44:14.274Z</time></trkpt><trkpt lat="43.9476167" lon="7.5121433"><ele>434.0</ele><time>2026-05-01T11:44:15.274Z</time></trkpt><trkpt lat="43.94749" lon="7.51202"><ele>437.25</ele><time>2026-05-01T11:44:16.274Z</time></trkpt><trkpt lat="43.9473717" lon="7.5118783"><ele>440.5</ele><time>2026-05-01T11:44:17.275Z</time></trkpt><trkpt lat="43.9472733" lon="7.5117283"><ele>443.75</ele><time>2026-05-01T11:44:18.274Z</time></trkpt><trkpt lat="43.94719" lon="7.51158"><ele>447.0</ele><time>2026-05-01T11:44:19.274Z</time></trkpt><trkpt lat="43.9471183" lon="7.5114283"><ele>447.0</ele><time>2026-05-01T11:44:20.274Z</time></trkpt><trkpt lat="43.947025" lon="7.5113117"><ele>447.0</ele><time>2026-05-01T11:44:21.274Z</time></trkpt><trkpt lat="43.9469067" lon="7.511245"><ele>447.0</ele><time>2026-05-01T11:44:22.274Z</time></trkpt><trkpt lat="43.9466033" lon="7.51122"><ele>451.5</ele><time>2026-05-01T11:44:24.274Z</time></trkpt><trkpt lat="43.9464533" lon="7.51122"><ele>456.0</ele><time>2026-05-01T11:44:25.275Z</time></trkpt><trkpt lat="43.94632" lon="7.5111767"><ele>460.5</ele><time>2026-05-01T11:44:26.275Z</time></trkpt><trkpt lat="43.9461917" lon="7.5111067"><ele>465.0</ele><time>2026-05-01T11:44:27.274Z</time></trkpt><trkpt lat="43.946065" lon="7.5110183"><ele>465.0</ele><time>2026-05-01T11:44:28.274Z</time></trkpt><trkpt lat="43.9459483" lon="7.5109133"><ele>465.0</ele><time>2026-05-01T11:44:29.274Z</time></trkpt><trkpt lat="43.94583" lon="7.5108167"><ele>465.0</ele><time>2026-05-01T11:44:30.275Z</time></trkpt><trkpt lat="43.9457067" lon="7.5107233"><ele>465.0</ele><time>2026-05-01T11:44:31.274Z</time></trkpt><trkpt lat="43.94557" lon="7.5106483"><ele>463.0</ele><time>2026-05-01T11:44:32.274Z</time></trkpt><trkpt lat="43.945435" lon="7.5105667"><ele>461.0</ele><time>2026-05-01T11:44:33.274Z</time></trkpt><trkpt lat="43.94531" lon="7.5104617"><ele>459.0</ele><time>2026-05-01T11:44:34.274Z</time></trkpt><trkpt lat="43.945185" lon="7.5103517"><ele>457.0</ele><time>2026-05-01T11:44:35.274Z</time></trkpt><trkpt lat="43.9450583" lon="7.510245"><ele>460.6666666666667</ele><time>2026-05-01T11:44:36.274Z</time></trkpt><trkpt lat="43.9449233" lon="7.51015"><ele>464.33333333333337</ele><time>2026-05-01T11:44:37.275Z</time></trkpt><trkpt lat="43.9447867" lon="7.51007"><ele>468.0</ele><time>2026-05-01T11:44:38.274Z</time></trkpt><trkpt lat="43.9446467" lon="7.50999"><ele>468.0</ele><time>2026-05-01T11:44:39.274Z</time></trkpt><trkpt lat="43.9444983" lon="7.50991"><ele>468.0</ele><time>2026-05-01T11:44:40.274Z</time></trkpt><trkpt lat="43.9443567" lon="7.5098283"><ele>468.0</ele><time>2026-05-01T11:44:41.274Z</time></trkpt><trkpt lat="43.9442133" lon="7.5097767"><ele>461.0</ele><time>2026-05-01T11:44:42.274Z</time></trkpt><trkpt lat="43.944065" lon="7.5097117"><ele>454.0</ele><time>2026-05-01T11:44:43.275Z</time></trkpt><trkpt lat="43.94376" lon="7.5096217"><ele>457.0</ele><time>2026-05-01T11:44:45.274Z</time></trkpt><trkpt lat="43.9436117" lon="7.5095567"><ele>460.0</ele><time>2026-05-01T11:44:46.274Z</time></trkpt><trkpt lat="43.9434717" lon="7.5094833"><ele>463.0</ele><time>2026-05-01T11:44:47.274Z</time></trkpt><trkpt lat="43.9433417" lon="7.5094067"><ele>466.0</ele><time>2026-05-01T11:44:48.274Z</time></trkpt><trkpt lat="43.943235" lon="7.5093133"><ele>466.0</ele><time>2026-05-01T11:44:49.274Z</time></trkpt><trkpt lat="43.9431533" lon="7.5092017"><ele>466.0</ele><time>2026-05-01T11:44:50.274Z</time></trkpt><trkpt lat="43.9431067" lon="7.5090467"><ele>466.0</ele><time>2026-05-01T11:44:51.274Z</time></trkpt><trkpt lat="43.9430917" lon="7.5088667"><ele>466.0</ele><time>2026-05-01T11:44:52.274Z</time></trkpt><trkpt lat="43.94309" lon="7.5086783"><ele>471.33333333333337</ele><time>2026-05-01T11:44:53.274Z</time></trkpt><trkpt lat="43.9430767" lon="7.508475"><ele>476.66666666666663</ele><time>2026-05-01T11:44:54.274Z</time></trkpt><trkpt lat="43.943045" lon="7.5082617"><ele>482.0</ele><time>2026-05-01T11:44:55.275Z</time></trkpt><trkpt lat="43.9430033" lon="7.508065"><ele>486.25</ele><time>2026-05-01T11:44:56.274Z</time></trkpt><trkpt lat="43.942945" lon="7.50788"><ele>490.5</ele><time>2026-05-01T11:44:57.274Z</time></trkpt><trkpt lat="43.942875" lon="7.5077167"><ele>494.75</ele><time>2026-05-01T11:44:58.275Z</time></trkpt><trkpt lat="43.9428033" lon="7.507545"><ele>499.0</ele><time>2026-05-01T11:44:59.274Z</time></trkpt><trkpt lat="43.942725" lon="7.507365"><ele>499.0</ele><time>2026-05-01T11:45:00.274Z</time></trkpt><trkpt lat="43.9426717" lon="7.5071817"><ele>499.0</ele><time>2026-05-01T11:45:01.274Z</time></trkpt><trkpt lat="43.9426317" lon="7.50699"><ele>499.0</ele><time>2026-05-01T11:45:02.274Z</time></trkpt><trkpt lat="43.9426033" lon="7.506795"><ele>499.0</ele><time>2026-05-01T11:45:03.275Z</time></trkpt><trkpt lat="43.9425867" lon="7.5066017"><ele>502.6666666666667</ele><time>2026-05-01T11:45:04.274Z</time></trkpt><trkpt lat="43.94255" lon="7.5062517"><ele>506.33333333333337</ele><time>2026-05-01T11:45:06.275Z</time></trkpt><trkpt lat="43.9425067" lon="7.5061"><ele>510.0</ele><time>2026-05-01T11:45:07.274Z</time></trkpt><trkpt lat="43.9424467" lon="7.5059617"><ele>503.75</ele><time>2026-05-01T11:45:08.274Z</time></trkpt><trkpt lat="43.9424" lon="7.505815"><ele>497.5</ele><time>2026-05-01T11:45:09.274Z</time></trkpt><trkpt lat="43.9423733" lon="7.5056633"><ele>491.25</ele><time>2026-05-01T11:45:10.274Z</time></trkpt><trkpt lat="43.94237" lon="7.5055083"><ele>485.0</ele><time>2026-05-01T11:45:11.274Z</time></trkpt><trkpt lat="43.9423883" lon="7.5053533"><ele>485.0</ele><time>2026-05-01T11:45:12.274Z</time></trkpt><trkpt lat="43.9424233" lon="7.5051983"><ele>485.0</ele><time>2026-05-01T11:45:13.274Z</time></trkpt><trkpt lat="43.942465" lon="7.5050333"><ele>485.0</ele><time>2026-05-01T11:45:14.274Z</time></trkpt><trkpt lat="43.9424917" lon="7.50487"><ele>485.0</ele><time>2026-05-01T11:45:15.274Z</time></trkpt><trkpt lat="43.9425117" lon="7.504695"><ele>484.0</ele><time>2026-05-01T11:45:16.274Z</time></trkpt><trkpt lat="43.9425267" lon="7.5045167"><ele>483.0</ele><time>2026-05-01T11:45:17.274Z</time></trkpt><trkpt lat="43.942555" lon="7.5043283"><ele>482.0</ele><time>2026-05-01T11:45:18.274Z</time></trkpt><trkpt lat="43.9425933" lon="7.5041517"><ele>481.0</ele><time>2026-05-01T11:45:19.275Z</time></trkpt><trkpt lat="43.94264" lon="7.5039833"><ele>491.0</ele><time>2026-05-01T11:45:20.274Z</time></trkpt><trkpt lat="43.9426817" lon="7.503825"><ele>501.0</ele><time>2026-05-01T11:45:21.274Z</time></trkpt><trkpt lat="43.9426967" lon="7.5036483"><ele>511.0</ele><time>2026-05-01T11:45:22.274Z</time></trkpt><trkpt lat="43.9426867" lon="7.5034733"><ele>521.0</ele><time>2026-05-01T11:45:23.274Z</time></trkpt><trkpt lat="43.942685" lon="7.5032833"><ele>521.0</ele><time>2026-05-01T11:45:24.274Z</time></trkpt><trkpt lat="43.94268" lon="7.5030883"><ele>521.0</ele><time>2026-05-01T11:45:25.275Z</time></trkpt><trkpt lat="43.9426933" lon="7.502715"><ele>521.0</ele><time>2026-05-01T11:45:27.274Z</time></trkpt><trkpt lat="43.9426983" lon="7.5025217"><ele>523.5</ele><time>2026-05-01T11:45:28.274Z</time></trkpt><trkpt lat="43.9426867" lon="7.5023183"><ele>526.0</ele><time>2026-05-01T11:45:29.274Z</time></trkpt><trkpt lat="43.942675" lon="7.502115"><ele>528.5</ele><time>2026-05-01T11:45:30.275Z</time></trkpt><trkpt lat="43.9426783" lon="7.50192"><ele>531.0</ele><time>2026-05-01T11:45:31.274Z</time></trkpt><trkpt lat="43.9426833" lon="7.5017267"><ele>531.25</ele><time>2026-05-01T11:45:32.274Z</time></trkpt><trkpt lat="43.9426883" lon="7.501535"><ele>531.5</ele><time>2026-05-01T11:45:33.274Z</time></trkpt><trkpt lat="43.942695" lon="7.5013333"><ele>531.75</ele><time>2026-05-01T11:45:34.274Z</time></trkpt><trkpt lat="43.9427133" lon="7.501145"><ele>532.0</ele><time>2026-05-01T11:45:35.274Z</time></trkpt><trkpt lat="43.94275" lon="7.5009617"><ele>531.25</ele><time>2026-05-01T11:45:36.275Z</time></trkpt><trkpt lat="43.9427983" lon="7.500795"><ele>530.5</ele><time>2026-05-01T11:45:37.274Z</time></trkpt><trkpt lat="43.9428433" lon="7.5006267"><ele>529.75</ele><time>2026-05-01T11:45:38.275Z</time></trkpt><trkpt lat="43.9428767" lon="7.500455"><ele>529.0</ele><time>2026-05-01T11:45:39.274Z</time></trkpt><trkpt lat="43.9428967" lon="7.5002867"><ele>529.0</ele><time>2026-05-01T11:45:40.274Z</time></trkpt><trkpt lat="43.942905" lon="7.500105"><ele>529.0</ele><time>2026-05-01T11:45:41.274Z</time></trkpt><trkpt lat="43.9429333" lon="7.4999267"><ele>529.0</ele><time>2026-05-01T11:45:42.274Z</time></trkpt><trkpt lat="43.9429767" lon="7.4997533"><ele>529.0</ele><time>2026-05-01T11:45:43.274Z</time></trkpt><trkpt lat="43.94303" lon="7.4995717"><ele>528.6666666666667</ele><time>2026-05-01T11:45:44.274Z</time></trkpt><trkpt lat="43.943085" lon="7.49939"><ele>528.3333333333334</ele><time>2026-05-01T11:45:45.274Z</time></trkpt><trkpt lat="43.94313" lon="7.4992117"><ele>528.0</ele><time>2026-05-01T11:45:46.274Z</time></trkpt><trkpt lat="43.9431317" lon="7.4988417"><ele>528.25</ele><time>2026-05-01T11:45:48.274Z</time></trkpt><trkpt lat="43.9430883" lon="7.49866"><ele>528.5</ele><time>2026-05-01T11:45:49.274Z</time></trkpt><trkpt lat="43.9430533" lon="7.49848"><ele>528.75</ele><time>2026-05-01T11:45:50.274Z</time></trkpt><trkpt lat="43.9430317" lon="7.49829"><ele>529.0</ele><time>2026-05-01T11:45:51.274Z</time></trkpt><trkpt lat="43.9430433" lon="7.498085"><ele>528.75</ele><time>2026-05-01T11:45:52.274Z</time></trkpt><trkpt lat="43.943055" lon="7.4979033"><ele>528.5</ele><time>2026-05-01T11:45:53.275Z</time></trkpt><trkpt lat="43.9430783" lon="7.49772"><ele>528.25</ele><time>2026-05-01T11:45:54.274Z</time></trkpt><trkpt lat="43.9431233" lon="7.4975167"><ele>528.0</ele><time>2026-05-01T11:45:55.274Z</time></trkpt><trkpt lat="43.9431717" lon="7.4973217"><ele>528.0</ele><time>2026-05-01T11:45:56.274Z</time></trkpt><trkpt lat="43.943235" lon="7.49713"><ele>528.0</ele><time>2026-05-01T11:45:57.275Z</time></trkpt><trkpt lat="43.94329" lon="7.4969417"><ele>528.0</ele><time>2026-05-01T11:45:58.275Z</time></trkpt><trkpt lat="43.94336" lon="7.4967733"><ele>528.0</ele><time>2026-05-01T11:45:59.275Z</time></trkpt><trkpt lat="43.9434483" lon="7.4966183"><ele>531.25</ele><time>2026-05-01T11:46:00.274Z</time></trkpt><trkpt lat="43.94356" lon="7.496495"><ele>534.5</ele><time>2026-05-01T11:46:01.275Z</time></trkpt><trkpt lat="43.9436867" lon="7.4963967"><ele>537.75</ele><time>2026-05-01T11:46:02.274Z</time></trkpt><trkpt lat="43.9438083" lon="7.4962733"><ele>541.0</ele><time>2026-05-01T11:46:03.274Z</time></trkpt><trkpt lat="43.943905" lon="7.49612"><ele>541.0</ele><time>2026-05-01T11:46:04.274Z</time></trkpt><trkpt lat="43.9439867" lon="7.4959333"><ele>541.0</ele><time>2026-05-01T11:46:05.274Z</time></trkpt><trkpt lat="43.944045" lon="7.4957367"><ele>541.0</ele><time>2026-05-01T11:46:06.274Z</time></trkpt><trkpt lat="43.9440633" lon="7.495525"><ele>543.0</ele><time>2026-05-01T11:46:07.274Z</time></trkpt><trkpt lat="43.944075" lon="7.4951033"><ele>545.0</ele><time>2026-05-01T11:46:09.274Z</time></trkpt><trkpt lat="43.9440817" lon="7.4948933"><ele>545.0</ele><time>2026-05-01T11:46:10.274Z</time></trkpt><trkpt lat="43.9440833" lon="7.4946867"><ele>545.0</ele><time>2026-05-01T11:46:11.274Z</time></trkpt><trkpt lat="43.9440783" lon="7.4944683"><ele>545.0</ele><time>2026-05-01T11:46:12.274Z</time></trkpt><trkpt lat="43.9440517" lon="7.494255"><ele>547.0</ele><time>2026-05-01T11:46:13.275Z</time></trkpt><trkpt lat="43.9440217" lon="7.4940333"><ele>549.0</ele><time>2026-05-01T11:46:14.274Z</time></trkpt><trkpt lat="43.9440033" lon="7.4938067"><ele>551.0</ele><time>2026-05-01T11:46:15.274Z</time></trkpt><trkpt lat="43.9439833" lon="7.493575"><ele>553.0</ele><time>2026-05-01T11:46:16.274Z</time></trkpt><trkpt lat="43.9439667" lon="7.493335"><ele>555.0</ele><time>2026-05-01T11:46:17.274Z</time></trkpt><trkpt lat="43.94395" lon="7.4931033"><ele>557.0</ele><time>2026-05-01T11:46:18.275Z</time></trkpt><trkpt lat="43.9439267" lon="7.49288"><ele>560.0</ele><time>2026-05-01T11:46:19.274Z</time></trkpt><trkpt lat="43.943895" lon="7.4926467"><ele>563.0</ele><time>2026-05-01T11:46:20.275Z</time></trkpt><trkpt lat="43.9438683" lon="7.49242"><ele>566.0</ele><time>2026-05-01T11:46:21.274Z</time></trkpt><trkpt lat="43.9438467" lon="7.492195"><ele>569.0</ele><time>2026-05-01T11:46:22.274Z</time></trkpt><trkpt lat="43.94384" lon="7.4919817"><ele>572.0</ele><time>2026-05-01T11:46:23.274Z</time></trkpt><trkpt lat="43.94385" lon="7.4917733"><ele>575.0</ele><time>2026-05-01T11:46:24.274Z</time></trkpt><trkpt lat="43.9438633" lon="7.4915733"><ele>578.0</ele><time>2026-05-01T11:46:25.274Z</time></trkpt><trkpt lat="43.94388" lon="7.491395"><ele>579.75</ele><time>2026-05-01T11:46:26.274Z</time></trkpt><trkpt lat="43.94389" lon="7.4912317"><ele>581.5</ele><time>2026-05-01T11:46:27.274Z</time></trkpt><trkpt lat="43.9438817" lon="7.4910883"><ele>583.25</ele><time>2026-05-01T11:46:28.274Z</time></trkpt><trkpt lat="43.943805" lon="7.490875"><ele>585.0</ele><time>2026-05-01T11:46:30.274Z</time></trkpt><trkpt lat="43.94372" lon="7.490825"><ele>585.0</ele><time>2026-05-01T11:46:31.275Z</time></trkpt><trkpt lat="43.9436233" lon="7.490825"><ele>585.0</ele><time>2026-05-01T11:46:32.274Z</time></trkpt><trkpt lat="43.943535" lon="7.49085"><ele>585.0</ele><time>2026-05-01T11:46:33.274Z</time></trkpt><trkpt lat="43.943445" lon="7.4909533"><ele>585.0</ele><time>2026-05-01T11:46:34.274Z</time></trkpt><trkpt lat="43.9433667" lon="7.4911133"><ele>585.0</ele><time>2026-05-01T11:46:35.274Z</time></trkpt><trkpt lat="43.9433017" lon="7.49131"><ele>581.0</ele><time>2026-05-01T11:46:36.274Z</time></trkpt><trkpt lat="43.9432233" lon="7.491495"><ele>577.0</ele><time>2026-05-01T11:46:37.274Z</time></trkpt><trkpt lat="43.9431433" lon="7.4916717"><ele>573.0</ele><time>2026-05-01T11:46:38.274Z</time></trkpt><trkpt lat="43.9430767" lon="7.4918467"><ele>569.0</ele><time>2026-05-01T11:46:39.274Z</time></trkpt><trkpt lat="43.942995" lon="7.492025"><ele>563.25</ele><time>2026-05-01T11:46:40.275Z</time></trkpt><trkpt lat="43.9429117" lon="7.4922033"><ele>557.5</ele><time>2026-05-01T11:46:41.274Z</time></trkpt><trkpt lat="43.9428567" lon="7.492365"><ele>551.75</ele><time>2026-05-01T11:46:42.274Z</time></trkpt><trkpt lat="43.9428" lon="7.492505"><ele>546.0</ele><time>2026-05-01T11:46:43.274Z</time></trkpt><trkpt lat="43.94275" lon="7.4925967"><ele>546.0</ele><time>2026-05-01T11:46:44.274Z</time></trkpt><trkpt lat="43.942675" lon="7.4926217"><ele>546.0</ele><time>2026-05-01T11:46:45.274Z</time></trkpt><trkpt lat="43.94259" lon="7.4926017"><ele>546.0</ele><time>2026-05-01T11:46:46.274Z</time></trkpt><trkpt lat="43.9424867" lon="7.4925283"><ele>546.0</ele><time>2026-05-01T11:46:47.274Z</time></trkpt><trkpt lat="43.9423633" lon="7.4924333"><ele>546.0</ele><time>2026-05-01T11:46:48.274Z</time></trkpt><trkpt lat="43.942235" lon="7.492365"><ele>553.0</ele><time>2026-05-01T11:46:49.274Z</time></trkpt><trkpt lat="43.9419817" lon="7.49224"><ele>560.0</ele><time>2026-05-01T11:46:51.274Z</time></trkpt><trkpt lat="43.941855" lon="7.4922033"><ele>567.0</ele><time>2026-05-01T11:46:52.274Z</time></trkpt><trkpt lat="43.9417083" lon="7.4921967"><ele>568.0</ele><time>2026-05-01T11:46:53.274Z</time></trkpt><trkpt lat="43.94156" lon="7.4922383"><ele>569.0</ele><time>2026-05-01T11:46:54.274Z</time></trkpt><trkpt lat="43.941425" lon="7.4922867"><ele>570.0</ele><time>2026-05-01T11:46:55.274Z</time></trkpt><trkpt lat="43.9412917" lon="7.492325"><ele>571.0</ele><time>2026-05-01T11:46:56.274Z</time></trkpt><trkpt lat="43.9411583" lon="7.492335"><ele>571.0</ele><time>2026-05-01T11:46:57.275Z</time></trkpt><trkpt lat="43.9410083" lon="7.49232"><ele>571.0</ele><time>2026-05-01T11:46:58.274Z</time></trkpt><trkpt lat="43.94086" lon="7.4923"><ele>571.0</ele><time>2026-05-01T11:46:59.274Z</time></trkpt><trkpt lat="43.9407133" lon="7.4922767"><ele>571.0</ele><time>2026-05-01T11:47:00.274Z</time></trkpt><trkpt lat="43.9405733" lon="7.492265"><ele>571.75</ele><time>2026-05-01T11:47:01.274Z</time></trkpt><trkpt lat="43.940445" lon="7.4922367"><ele>572.5</ele><time>2026-05-01T11:47:02.274Z</time></trkpt><trkpt lat="43.9403317" lon="7.492175"><ele>573.25</ele><time>2026-05-01T11:47:03.275Z</time></trkpt><trkpt lat="43.940225" lon="7.4920783"><ele>574.0</ele><time>2026-05-01T11:47:04.274Z</time></trkpt><trkpt lat="43.9401233" lon="7.491955"><ele>578.0</ele><time>2026-05-01T11:47:05.274Z</time></trkpt><trkpt lat="43.94004" lon="7.4918067"><ele>582.0</ele><time>2026-05-01T11:47:06.274Z</time></trkpt><trkpt lat="43.939965" lon="7.4916483"><ele>586.0</ele><time>2026-05-01T11:47:07.275Z</time></trkpt><trkpt lat="43.93989" lon="7.4914767"><ele>590.0</ele><time>2026-05-01T11:47:08.274Z</time></trkpt><trkpt lat="43.9398167" lon="7.491295"><ele>600.3333333333333</ele><time>2026-05-01T11:47:09.274Z</time></trkpt><trkpt lat="43.9397217" lon="7.491145"><ele>610.6666666666666</ele><time>2026-05-01T11:47:10.274Z</time></trkpt><trkpt lat="43.9394983" lon="7.49086"><ele>621.0</ele><time>2026-05-01T11:47:12.274Z</time></trkpt><trkpt lat="43.93939" lon="7.4907017"><ele>621.0</ele><time>2026-05-01T11:47:13.274Z</time></trkpt><trkpt lat="43.9392833" lon="7.4905433"><ele>621.0</ele><time>2026-05-01T11:47:14.274Z</time></trkpt><trkpt lat="43.9391817" lon="7.4903833"><ele>621.0</ele><time>2026-05-01T11:47:15.274Z</time></trkpt><trkpt lat="43.9390817" lon="7.4902167"><ele>618.0</ele><time>2026-05-01T11:47:16.274Z</time></trkpt><trkpt lat="43.93898" lon="7.4900517"><ele>615.0</ele><time>2026-05-01T11:47:17.275Z</time></trkpt><trkpt lat="43.938885" lon="7.4898883"><ele>612.0</ele><time>2026-05-01T11:47:18.274Z</time></trkpt><trkpt lat="43.9388" lon="7.489715"><ele>621.0</ele><time>2026-05-01T11:47:19.274Z</time></trkpt><trkpt lat="43.9387233" lon="7.4895383"><ele>630.0</ele><time>2026-05-01T11:47:20.274Z</time></trkpt><trkpt lat="43.938655" lon="7.48935"><ele>639.0</ele><time>2026-05-01T11:47:21.275Z</time></trkpt><trkpt lat="43.9385967" lon="7.48915"><ele>639.0</ele><time>2026-05-01T11:47:22.274Z</time></trkpt><trkpt lat="43.9385367" lon="7.4889617"><ele>639.0</ele><time>2026-05-01T11:47:23.274Z</time></trkpt><trkpt lat="43.9384717" lon="7.488785"><ele>639.0</ele><time>2026-05-01T11:47:24.274Z</time></trkpt><trkpt lat="43.9384067" lon="7.488615"><ele>639.0</ele><time>2026-05-01T11:47:25.274Z</time></trkpt><trkpt lat="43.93837" lon="7.4884417"><ele>644.0</ele><time>2026-05-01T11:47:26.274Z</time></trkpt><trkpt lat="43.9383667" lon="7.4882767"><ele>649.0</ele><time>2026-05-01T11:47:27.274Z</time></trkpt><trkpt lat="43.9383867" lon="7.4881"><ele>654.0</ele><time>2026-05-01T11:47:28.274Z</time></trkpt><trkpt lat="43.9384167" lon="7.487915"><ele>659.0</ele><time>2026-05-01T11:47:29.274Z</time></trkpt><trkpt lat="43.9384417" lon="7.48773"><ele>661.0</ele><time>2026-05-01T11:47:30.274Z</time></trkpt><trkpt lat="43.9384683" lon="7.4875483"><ele>663.0</ele><time>2026-05-01T11:47:31.274Z</time></trkpt><trkpt lat="43.938435" lon="7.4872083"><ele>665.0</ele><time>2026-05-01T11:47:33.275Z</time></trkpt><trkpt lat="43.9383667" lon="7.487055"><ele>656.0</ele><time>2026-05-01T11:47:34.274Z</time></trkpt><trkpt lat="43.9382683" lon="7.4869017"><ele>647.0</ele><time>2026-05-01T11:47:35.274Z</time></trkpt><trkpt lat="43.9381633" lon="7.4867417"><ele>638.0</ele><time>2026-05-01T11:47:36.275Z</time></trkpt><trkpt lat="43.93806" lon="7.4865883"><ele>638.0</ele><time>2026-05-01T11:47:37.274Z</time></trkpt><trkpt lat="43.937945" lon="7.486445"><ele>638.0</ele><time>2026-05-01T11:47:38.274Z</time></trkpt><trkpt lat="43.9378433" lon="7.4862983"><ele>638.0</ele><time>2026-05-01T11:47:39.274Z</time></trkpt><trkpt lat="43.9377317" lon="7.4861733"><ele>638.0</ele><time>2026-05-01T11:47:40.274Z</time></trkpt><trkpt lat="43.9376067" lon="7.4860717"><ele>637.25</ele><time>2026-05-01T11:47:41.274Z</time></trkpt><trkpt lat="43.9374817" lon="7.486"><ele>636.5</ele><time>2026-05-01T11:47:42.274Z</time></trkpt><trkpt lat="43.937365" lon="7.485905"><ele>635.75</ele><time>2026-05-01T11:47:43.274Z</time></trkpt><trkpt lat="43.93727" lon="7.4857833"><ele>635.0</ele><time>2026-05-01T11:47:44.274Z</time></trkpt><trkpt lat="43.9372017" lon="7.4856333"><ele>635.0</ele><time>2026-05-01T11:47:45.274Z</time></trkpt><trkpt lat="43.93714" lon="7.4854833"><ele>635.0</ele><time>2026-05-01T11:47:46.274Z</time></trkpt><trkpt lat="43.9370983" lon="7.4852983"><ele>635.0</ele><time>2026-05-01T11:47:47.274Z</time></trkpt><trkpt lat="43.9370633" lon="7.4851017"><ele>635.0</ele><time>2026-05-01T11:47:48.274Z</time></trkpt><trkpt lat="43.93703" lon="7.484895"><ele>641.75</ele><time>2026-05-01T11:47:49.274Z</time></trkpt><trkpt lat="43.9369983" lon="7.4847"><ele>648.5</ele><time>2026-05-01T11:47:50.274Z</time></trkpt><trkpt lat="43.936965" lon="7.4845033"><ele>655.25</ele><time>2026-05-01T11:47:51.275Z</time></trkpt><trkpt lat="43.9369333" lon="7.484315"><ele>662.0</ele><time>2026-05-01T11:47:52.274Z</time></trkpt><trkpt lat="43.936885" lon="7.4839383"><ele>664.75</ele><time>2026-05-01T11:47:54.274Z</time></trkpt><trkpt lat="43.9368767" lon="7.4837583"><ele>667.5</ele><time>2026-05-01T11:47:55.274Z</time></trkpt><trkpt lat="43.9368833" lon="7.483565"><ele>670.25</ele><time>2026-05-01T11:47:56.274Z</time></trkpt><trkpt lat="43.9369017" lon="7.4833783"><ele>673.0</ele><time>2026-05-01T11:47:57.274Z</time></trkpt><trkpt lat="43.93693" lon="7.4831983"><ele>673.0</ele><time>2026-05-01T11:47:58.274Z</time></trkpt><trkpt lat="43.93697" lon="7.4830333"><ele>673.0</ele><time>2026-05-01T11:47:59.274Z</time></trkpt><trkpt lat="43.937045" lon="7.4828783"><ele>673.0</ele><time>2026-05-01T11:48:00.274Z</time></trkpt><trkpt lat="43.937135" lon="7.4827417"><ele>673.0</ele><time>2026-05-01T11:48:01.274Z</time></trkpt><trkpt lat="43.93722" lon="7.4826067"><ele>669.5</ele><time>2026-05-01T11:48:02.274Z</time></trkpt><trkpt lat="43.9372917" lon="7.4824483"><ele>666.0</ele><time>2026-05-01T11:48:03.275Z</time></trkpt><trkpt lat="43.9373617" lon="7.4822817"><ele>662.5</ele><time>2026-05-01T11:48:04.274Z</time></trkpt><trkpt lat="43.9374217" lon="7.482095"><ele>659.0</ele><time>2026-05-01T11:48:05.274Z</time></trkpt><trkpt lat="43.9374783" lon="7.481925"><ele>655.0</ele><time>2026-05-01T11:48:06.274Z</time></trkpt><trkpt lat="43.937545" lon="7.4817617"><ele>651.0</ele><time>2026-05-01T11:48:07.275Z</time></trkpt><trkpt lat="43.9376517" lon="7.4816317"><ele>647.0</ele><time>2026-05-01T11:48:08.274Z</time></trkpt><trkpt lat="43.9377583" lon="7.4815"><ele>643.0</ele><time>2026-05-01T11:48:09.275Z</time></trkpt><trkpt lat="43.9378667" lon="7.4813567"><ele>651.6666666666667</ele><time>2026-05-01T11:48:10.274Z</time></trkpt><trkpt lat="43.9379733" lon="7.4812033"><ele>660.3333333333334</ele><time>2026-05-01T11:48:11.274Z</time></trkpt><trkpt lat="43.9380567" lon="7.4810317"><ele>669.0</ele><time>2026-05-01T11:48:12.274Z</time></trkpt><trkpt lat="43.9381117" lon="7.48084"><ele>669.0</ele><time>2026-05-01T11:48:13.274Z</time></trkpt><trkpt lat="43.93824" lon="7.4804767"><ele>669.0</ele><time>2026-05-01T11:48:15.274Z</time></trkpt><trkpt lat="43.93831" lon="7.480325"><ele>669.0</ele><time>2026-05-01T11:48:16.274Z</time></trkpt><trkpt lat="43.9383867" lon="7.4801683"><ele>679.5</ele><time>2026-05-01T11:48:17.275Z</time></trkpt><trkpt lat="43.9384483" lon="7.4800017"><ele>690.0</ele><time>2026-05-01T11:48:18.274Z</time></trkpt><trkpt lat="43.93851" lon="7.4798533"><ele>700.5</ele><time>2026-05-01T11:48:19.274Z</time></trkpt><trkpt lat="43.9385717" lon="7.47973"><ele>711.0</ele><time>2026-05-01T11:48:20.274Z</time></trkpt><trkpt lat="43.9386233" lon="7.479605"><ele>713.5</ele><time>2026-05-01T11:48:21.274Z</time></trkpt><trkpt lat="43.938645" lon="7.4794533"><ele>716.0</ele><time>2026-05-01T11:48:22.274Z</time></trkpt><trkpt lat="43.9386317" lon="7.4793"><ele>718.5</ele><time>2026-05-01T11:48:23.275Z</time></trkpt><trkpt lat="43.9385867" lon="7.4791317"><ele>721.0</ele><time>2026-05-01T11:48:24.274Z</time></trkpt><trkpt lat="43.9385317" lon="7.4789583"><ele>721.0</ele><time>2026-05-01T11:48:25.274Z</time></trkpt><trkpt lat="43.9384583" lon="7.4787933"><ele>721.0</ele><time>2026-05-01T11:48:26.274Z</time></trkpt><trkpt lat="43.938365" lon="7.4786733"><ele>721.0</ele><time>2026-05-01T11:48:27.274Z</time></trkpt><trkpt lat="43.93825" lon="7.4785733"><ele>721.0</ele><time>2026-05-01T11:48:28.275Z</time></trkpt><trkpt lat="43.9381467" lon="7.4785"><ele>713.5</ele><time>2026-05-01T11:48:29.274Z</time></trkpt><trkpt lat="43.9380317" lon="7.4784683"><ele>706.0</ele><time>2026-05-01T11:48:30.274Z</time></trkpt><trkpt lat="43.9379267" lon="7.47848"><ele>698.5</ele><time>2026-05-01T11:48:31.274Z</time></trkpt><trkpt lat="43.9378267" lon="7.4785367"><ele>691.0</ele><time>2026-05-01T11:48:32.274Z</time></trkpt><trkpt lat="43.9377367" lon="7.4786533"><ele>687.5</ele><time>2026-05-01T11:48:33.274Z</time></trkpt><trkpt lat="43.937655" lon="7.4788117"><ele>684.0</ele><time>2026-05-01T11:48:34.274Z</time></trkpt><trkpt lat="43.9374867" lon="7.47918"><ele>684.0</ele><time>2026-05-01T11:48:36.274Z</time></trkpt><trkpt lat="43.9373917" lon="7.479345"><ele>684.0</ele><time>2026-05-01T11:48:37.274Z</time></trkpt><trkpt lat="43.9372817" lon="7.4795"><ele>684.0</ele><time>2026-05-01T11:48:38.274Z</time></trkpt><trkpt lat="43.9371583" lon="7.47962"><ele>688.0</ele><time>2026-05-01T11:48:39.274Z</time></trkpt><trkpt lat="43.9370267" lon="7.4796833"><ele>692.0</ele><time>2026-05-01T11:48:40.274Z</time></trkpt><trkpt lat="43.9368833" lon="7.4796883"><ele>696.0</ele><time>2026-05-01T11:48:41.274Z</time></trkpt><trkpt lat="43.9367233" lon="7.4796517"><ele>700.0</ele><time>2026-05-01T11:48:42.274Z</time></trkpt><trkpt lat="43.93656" lon="7.4795917"><ele>700.0</ele><time>2026-05-01T11:48:43.274Z</time></trkpt><trkpt lat="43.9364" lon="7.4795317"><ele>700.0</ele><time>2026-05-01T11:48:44.274Z</time></trkpt><trkpt lat="43.9362467" lon="7.4794767"><ele>700.0</ele><time>2026-05-01T11:48:45.274Z</time></trkpt><trkpt lat="43.9361117" lon="7.4794417"><ele>700.0</ele><time>2026-05-01T11:48:46.274Z</time></trkpt><trkpt lat="43.9359983" lon="7.4793767"><ele>700.0</ele><time>2026-05-01T11:48:47.274Z</time></trkpt><trkpt lat="43.935905" lon="7.479265"><ele>700.0</ele><time>2026-05-01T11:48:48.274Z</time></trkpt><trkpt lat="43.9358333" lon="7.479115"><ele>700.0</ele><time>2026-05-01T11:48:49.274Z</time></trkpt><trkpt lat="43.93577" lon="7.478945"><ele>699.25</ele><time>2026-05-01T11:48:50.274Z</time></trkpt><trkpt lat="43.9357033" lon="7.4787717"><ele>698.5</ele><time>2026-05-01T11:48:51.274Z</time></trkpt><trkpt lat="43.9356333" lon="7.4786217"><ele>697.75</ele><time>2026-05-01T11:48:52.274Z</time></trkpt><trkpt lat="43.9355733" lon="7.4784967"><ele>697.0</ele><time>2026-05-01T11:48:53.274Z</time></trkpt><trkpt lat="43.9354933" lon="7.478425"><ele>697.0</ele><time>2026-05-01T11:48:54.274Z</time></trkpt><trkpt lat="43.9354067" lon="7.478415"><ele>697.0</ele><time>2026-05-01T11:48:55.274Z</time></trkpt><trkpt lat="43.9352383" lon="7.4785583"><ele>697.0</ele><time>2026-05-01T11:48:57.275Z</time></trkpt><trkpt lat="43.93517" lon="7.4787067"><ele>697.0</ele><time>2026-05-01T11:48:58.274Z</time></trkpt><trkpt lat="43.93511" lon="7.4788933"><ele>697.0</ele><time>2026-05-01T11:48:59.274Z</time></trkpt><trkpt lat="43.9350683" lon="7.47911"><ele>697.0</ele><time>2026-05-01T11:49:00.274Z</time></trkpt><trkpt lat="43.9350383" lon="7.4793067"><ele>697.0</ele><time>2026-05-01T11:49:01.274Z</time></trkpt><trkpt lat="43.9350283" lon="7.4794933"><ele>697.0</ele><time>2026-05-01T11:49:02.274Z</time></trkpt><trkpt lat="43.93502" lon="7.4796683"><ele>697.5</ele><time>2026-05-01T11:49:03.274Z</time></trkpt><trkpt lat="43.9350117" lon="7.4798117"><ele>698.0</ele><time>2026-05-01T11:49:04.274Z</time></trkpt><trkpt lat="43.934975" lon="7.479905"><ele>698.5</ele><time>2026-05-01T11:49:05.274Z</time></trkpt><trkpt lat="43.9349167" lon="7.4799483"><ele>699.0</ele><time>2026-05-01T11:49:06.274Z</time></trkpt><trkpt lat="43.934835" lon="7.4799483"><ele>699.5</ele><time>2026-05-01T11:49:07.274Z</time></trkpt><trkpt lat="43.9347333" lon="7.4799033"><ele>700.0</ele><time>2026-05-01T11:49:08.274Z</time></trkpt><trkpt lat="43.934615" lon="7.479805"><ele>700.0</ele><time>2026-05-01T11:49:09.274Z</time></trkpt><trkpt lat="43.9344967" lon="7.4796483"><ele>700.0</ele><time>2026-05-01T11:49:10.275Z</time></trkpt><trkpt lat="43.9344" lon="7.4794867"><ele>700.0</ele><time>2026-05-01T11:49:11.275Z</time></trkpt><trkpt lat="43.93434" lon="7.4793183"><ele>702.25</ele><time>2026-05-01T11:49:12.274Z</time></trkpt><trkpt lat="43.9342883" lon="7.479135"><ele>704.5</ele><time>2026-05-01T11:49:13.274Z</time></trkpt><trkpt lat="43.934245" lon="7.4789567"><ele>706.75</ele><time>2026-05-01T11:49:14.275Z</time></trkpt><trkpt lat="43.9341783" lon="7.4787917"><ele>709.0</ele><time>2026-05-01T11:49:15.274Z</time></trkpt><trkpt lat="43.93409" lon="7.478665"><ele>716.0</ele><time>2026-05-01T11:49:16.274Z</time></trkpt><trkpt lat="43.933855" lon="7.4785283"><ele>723.0</ele><time>2026-05-01T11:49:18.275Z</time></trkpt><trkpt lat="43.933725" lon="7.4784767"><ele>730.0</ele><time>2026-05-01T11:49:19.274Z</time></trkpt><trkpt lat="43.93361" lon="7.4784033"><ele>730.0</ele><time>2026-05-01T11:49:20.274Z</time></trkpt><trkpt lat="43.933495" lon="7.4783167"><ele>730.0</ele><time>2026-05-01T11:49:21.274Z</time></trkpt><trkpt lat="43.9333833" lon="7.478255"><ele>730.0</ele><time>2026-05-01T11:49:22.274Z</time></trkpt><trkpt lat="43.933265" lon="7.478245"><ele>730.0</ele><time>2026-05-01T11:49:23.274Z</time></trkpt><trkpt lat="43.9331683" lon="7.4782583"><ele>730.0</ele><time>2026-05-01T11:49:24.274Z</time></trkpt><trkpt lat="43.9330883" lon="7.4782667"><ele>730.0</ele><time>2026-05-01T11:49:25.274Z</time></trkpt><trkpt lat="43.9330367" lon="7.4781867"><ele>730.0</ele><time>2026-05-01T11:49:27.274Z</time></trkpt><trkpt lat="43.9330867" lon="7.4781317"><ele>730.0</ele><time>2026-05-01T11:49:28.275Z</time></trkpt><trkpt lat="43.933165" lon="7.4781017"><ele>730.0</ele><time>2026-05-01T11:49:29.274Z</time></trkpt><trkpt lat="43.9332567" lon="7.4780917"><ele>730.0</ele><time>2026-05-01T11:49:30.274Z</time></trkpt><trkpt lat="43.933375" lon="7.4781117"><ele>730.0</ele><time>2026-05-01T11:49:31.274Z</time></trkpt><trkpt lat="43.9334833" lon="7.4781317"><ele>730.0</ele><time>2026-05-01T11:49:32.274Z</time></trkpt><trkpt lat="43.9335717" lon="7.47814"><ele>730.0</ele><time>2026-05-01T11:49:33.274Z</time></trkpt><trkpt lat="43.9336667" lon="7.4780717"><ele>730.0</ele><time>2026-05-01T11:49:35.274Z</time></trkpt><trkpt lat="43.9336283" lon="7.4779283"><ele>730.0</ele><time>2026-05-01T11:49:37.274Z</time></trkpt><trkpt lat="43.9334017" lon="7.47783"><ele>735.3333333333334</ele><time>2026-05-01T11:49:39.274Z</time></trkpt><trkpt lat="43.93325" lon="7.477815"><ele>740.6666666666666</ele><time>2026-05-01T11:49:40.274Z</time></trkpt><trkpt lat="43.9331" lon="7.4778233"><ele>746.0</ele><time>2026-05-01T11:49:41.274Z</time></trkpt><trkpt lat="43.93294" lon="7.47787"><ele>743.6666666666666</ele><time>2026-05-01T11:49:42.274Z</time></trkpt><trkpt lat="43.93278" lon="7.4779633"><ele>741.3333333333334</ele><time>2026-05-01T11:49:43.274Z</time></trkpt><trkpt lat="43.9326367" lon="7.4780783"><ele>739.0</ele><time>2026-05-01T11:49:44.274Z</time></trkpt><trkpt lat="43.9325" lon="7.47817"><ele>739.0</ele><time>2026-05-01T11:49:45.274Z</time></trkpt><trkpt lat="43.93235" lon="7.47823"><ele>739.0</ele><time>2026-05-01T11:49:46.274Z</time></trkpt><trkpt lat="43.9322" lon="7.4782683"><ele>739.0</ele><time>2026-05-01T11:49:47.274Z</time></trkpt><trkpt lat="43.9320683" lon="7.478305"><ele>739.0</ele><time>2026-05-01T11:49:48.274Z</time></trkpt><trkpt lat="43.93195" lon="7.478345"><ele>739.0</ele><time>2026-05-01T11:49:49.274Z</time></trkpt><trkpt lat="43.9318333" lon="7.47836"><ele>739.0</ele><time>2026-05-01T11:49:50.274Z</time></trkpt><trkpt lat="43.9317217" lon="7.478315"><ele>739.0</ele><time>2026-05-01T11:49:51.274Z</time></trkpt><trkpt lat="43.9316067" lon="7.4782367"><ele>739.0</ele><time>2026-05-01T11:49:52.274Z</time></trkpt><trkpt lat="43.931485" lon="7.47813"><ele>741.0</ele><time>2026-05-01T11:49:53.274Z</time></trkpt><trkpt lat="43.9313533" lon="7.4780267"><ele>743.0</ele><time>2026-05-01T11:49:54.274Z</time></trkpt><trkpt lat="43.9312183" lon="7.477935"><ele>745.0</ele><time>2026-05-01T11:49:55.274Z</time></trkpt><trkpt lat="43.931095" lon="7.4778667"><ele>747.0</ele><time>2026-05-01T11:49:56.274Z</time></trkpt><trkpt lat="43.9309683" lon="7.4778167"><ele>753.6666666666666</ele><time>2026-05-01T11:49:57.274Z</time></trkpt><trkpt lat="43.93085" lon="7.4777967"><ele>760.3333333333333</ele><time>2026-05-01T11:49:58.275Z</time></trkpt><trkpt lat="43.9306267" lon="7.4777083"><ele>767.0</ele><time>2026-05-01T11:50:00.274Z</time></trkpt><trkpt lat="43.930525" lon="7.477625"><ele>767.0</ele><time>2026-05-01T11:50:01.274Z</time></trkpt><trkpt lat="43.93042" lon="7.477525"><ele>767.0</ele><time>2026-05-01T11:50:02.274Z</time></trkpt><trkpt lat="43.9303183" lon="7.477425"><ele>767.0</ele><time>2026-05-01T11:50:03.274Z</time></trkpt><trkpt lat="43.9302217" lon="7.4773133"><ele>767.0</ele><time>2026-05-01T11:50:04.274Z</time></trkpt><trkpt lat="43.9301433" lon="7.4771817"><ele>767.0</ele><time>2026-05-01T11:50:05.274Z</time></trkpt><trkpt lat="43.930085" lon="7.47702"><ele>767.0</ele><time>2026-05-01T11:50:06.274Z</time></trkpt><trkpt lat="43.93003" lon="7.4768483"><ele>767.0</ele><time>2026-05-01T11:50:07.274Z</time></trkpt><trkpt lat="43.9299783" lon="7.47667"><ele>767.0</ele><time>2026-05-01T11:50:08.274Z</time></trkpt><trkpt lat="43.92992" lon="7.4764967"><ele>767.0</ele><time>2026-05-01T11:50:09.275Z</time></trkpt><trkpt lat="43.92983" lon="7.4763283"><ele>767.0</ele><time>2026-05-01T11:50:10.274Z</time></trkpt><trkpt lat="43.9297233" lon="7.4761867"><ele>767.0</ele><time>2026-05-01T11:50:11.274Z</time></trkpt><trkpt lat="43.92961" lon="7.4760517"><ele>767.0</ele><time>2026-05-01T11:50:12.275Z</time></trkpt><trkpt lat="43.9294883" lon="7.4759283"><ele>767.0</ele><time>2026-05-01T11:50:13.274Z</time></trkpt><trkpt lat="43.9293767" lon="7.4757983"><ele>767.0</ele><time>2026-05-01T11:50:14.274Z</time></trkpt><trkpt lat="43.9292767" lon="7.47566"><ele>767.0</ele><time>2026-05-01T11:50:15.274Z</time></trkpt><trkpt lat="43.9291767" lon="7.4755283"><ele>767.0</ele><time>2026-05-01T11:50:16.274Z</time></trkpt><trkpt lat="43.9290817" lon="7.4753983"><ele>775.3333333333333</ele><time>2026-05-01T11:50:17.274Z</time></trkpt><trkpt lat="43.9289917" lon="7.47526"><ele>783.6666666666666</ele><time>2026-05-01T11:50:18.274Z</time></trkpt><trkpt lat="43.928905" lon="7.4751367"><ele>792.0</ele><time>2026-05-01T11:50:19.274Z</time></trkpt><trkpt lat="43.92872" lon="7.4749583"><ele>792.0</ele><time>2026-05-01T11:50:21.274Z</time></trkpt><trkpt lat="43.928605" lon="7.47492"><ele>792.0</ele><time>2026-05-01T11:50:22.274Z</time></trkpt><trkpt lat="43.9284783" lon="7.4749233"><ele>792.0</ele><time>2026-05-01T11:50:23.274Z</time></trkpt><trkpt lat="43.9283533" lon="7.47494"><ele>792.0</ele><time>2026-05-01T11:50:24.274Z</time></trkpt><trkpt lat="43.9282167" lon="7.4749417"><ele>789.5</ele><time>2026-05-01T11:50:25.274Z</time></trkpt><trkpt lat="43.92809" lon="7.4749217"><ele>787.0</ele><time>2026-05-01T11:50:26.274Z</time></trkpt><trkpt lat="43.9279683" lon="7.4749017"><ele>784.5</ele><time>2026-05-01T11:50:27.274Z</time></trkpt><trkpt lat="43.9278433" lon="7.4748683"><ele>782.0</ele><time>2026-05-01T11:50:28.274Z</time></trkpt><trkpt lat="43.9277167" lon="7.4748633"><ele>782.0</ele><time>2026-05-01T11:50:29.274Z</time></trkpt><trkpt lat="43.9275817" lon="7.474875"><ele>782.0</ele><time>2026-05-01T11:50:30.274Z</time></trkpt><trkpt lat="43.9274367" lon="7.4748833"><ele>782.0</ele><time>2026-05-01T11:50:31.274Z</time></trkpt><trkpt lat="43.927295" lon="7.47491"><ele>782.0</ele><time>2026-05-01T11:50:32.274Z</time></trkpt><trkpt lat="43.9271567" lon="7.4749283"><ele>784.25</ele><time>2026-05-01T11:50:33.274Z</time></trkpt><trkpt lat="43.9270233" lon="7.474955"><ele>786.5</ele><time>2026-05-01T11:50:34.274Z</time></trkpt><trkpt lat="43.9268933" lon="7.47498"><ele>788.75</ele><time>2026-05-01T11:50:35.274Z</time></trkpt><trkpt lat="43.9267733" lon="7.4750133"><ele>791.0</ele><time>2026-05-01T11:50:36.274Z</time></trkpt><trkpt lat="43.9266567" lon="7.475035"><ele>793.75</ele><time>2026-05-01T11:50:37.274Z</time></trkpt><trkpt lat="43.9265367" lon="7.47505"><ele>796.5</ele><time>2026-05-01T11:50:38.274Z</time></trkpt><trkpt lat="43.9264267" lon="7.4750967"><ele>799.25</ele><time>2026-05-01T11:50:39.274Z</time></trkpt><trkpt lat="43.9263183" lon="7.47517"><ele>802.0</ele><time>2026-05-01T11:50:40.274Z</time></trkpt><trkpt lat="43.9261317" lon="7.475385"><ele>803.2</ele><time>2026-05-01T11:50:42.274Z</time></trkpt><trkpt lat="43.9260483" lon="7.4754867"><ele>804.4000000000001</ele><time>2026-05-01T11:50:43.274Z</time></trkpt><trkpt lat="43.925975" lon="7.4755733"><ele>805.5999999999999</ele><time>2026-05-01T11:50:44.274Z</time></trkpt><trkpt lat="43.9259217" lon="7.47562"><ele>806.8</ele><time>2026-05-01T11:50:45.274Z</time></trkpt><trkpt lat="43.9258267" lon="7.4756017"><ele>808.0</ele><time>2026-05-01T11:50:47.275Z</time></trkpt><trkpt lat="43.925845" lon="7.4754567"><ele>806.5</ele><time>2026-05-01T11:50:49.274Z</time></trkpt><trkpt lat="43.925905" lon="7.47536"><ele>805.0</ele><time>2026-05-01T11:50:50.274Z</time></trkpt><trkpt lat="43.9259917" lon="7.4752483"><ele>803.5</ele><time>2026-05-01T11:50:51.274Z</time></trkpt><trkpt lat="43.9260817" lon="7.4751067"><ele>802.0</ele><time>2026-05-01T11:50:52.274Z</time></trkpt><trkpt lat="43.9261783" lon="7.4749667"><ele>802.0</ele><time>2026-05-01T11:50:53.275Z</time></trkpt><trkpt lat="43.9262883" lon="7.4748483"><ele>802.0</ele><time>2026-05-01T11:50:54.274Z</time></trkpt><trkpt lat="43.926405" lon="7.4747467"><ele>802.0</ele><time>2026-05-01T11:50:55.274Z</time></trkpt><trkpt lat="43.926515" lon="7.4746417"><ele>802.0</ele><time>2026-05-01T11:50:56.274Z</time></trkpt><trkpt lat="43.9266233" lon="7.4745233"><ele>807.0</ele><time>2026-05-01T11:50:57.274Z</time></trkpt><trkpt lat="43.9267333" lon="7.4744033"><ele>812.0</ele><time>2026-05-01T11:50:58.274Z</time></trkpt><trkpt lat="43.9268567" lon="7.4743017"><ele>817.0</ele><time>2026-05-01T11:50:59.274Z</time></trkpt><trkpt lat="43.9269883" lon="7.4742417"><ele>822.0</ele><time>2026-05-01T11:51:00.274Z</time></trkpt><trkpt lat="43.9271267" lon="7.4742017"><ele>822.0</ele><time>2026-05-01T11:51:01.274Z</time></trkpt><trkpt lat="43.92741" lon="7.47416"><ele>822.0</ele><time>2026-05-01T11:51:03.274Z</time></trkpt><trkpt lat="43.9275367" lon="7.4741417"><ele>822.0</ele><time>2026-05-01T11:51:04.274Z</time></trkpt><trkpt lat="43.9276583" lon="7.47413"><ele>820.2</ele><time>2026-05-01T11:51:05.274Z</time></trkpt><trkpt lat="43.927775" lon="7.47411"><ele>818.4000000000001</ele><time>2026-05-01T11:51:06.274Z</time></trkpt><trkpt lat="43.927885" lon="7.4741017"><ele>816.5999999999999</ele><time>2026-05-01T11:51:07.274Z</time></trkpt><trkpt lat="43.9279783" lon="7.4740833"><ele>814.8</ele><time>2026-05-01T11:51:08.274Z</time></trkpt><trkpt lat="43.92805" lon="7.47404"><ele>813.0</ele><time>2026-05-01T11:51:09.274Z</time></trkpt><trkpt lat="43.9281067" lon="7.473915"><ele>813.0</ele><time>2026-05-01T11:51:11.274Z</time></trkpt><trkpt lat="43.9280383" lon="7.4738317"><ele>813.0</ele><time>2026-05-01T11:51:13.274Z</time></trkpt><trkpt lat="43.92796" lon="7.4738283"><ele>813.0</ele><time>2026-05-01T11:51:14.274Z</time></trkpt><trkpt lat="43.9278267" lon="7.4738433"><ele>813.0</ele><time>2026-05-01T11:51:15.274Z</time></trkpt><trkpt lat="43.9276617" lon="7.473845"><ele>815.25</ele><time>2026-05-01T11:51:16.275Z</time></trkpt><trkpt lat="43.927505" lon="7.4738167"><ele>817.5</ele><time>2026-05-01T11:51:17.275Z</time></trkpt><trkpt lat="43.9273633" lon="7.4737683"><ele>819.75</ele><time>2026-05-01T11:51:18.274Z</time></trkpt><trkpt lat="43.92723" lon="7.4737117"><ele>822.0</ele><time>2026-05-01T11:51:19.275Z</time></trkpt><trkpt lat="43.9270967" lon="7.4736583"><ele>835.0</ele><time>2026-05-01T11:51:20.274Z</time></trkpt><trkpt lat="43.9269583" lon="7.4736517"><ele>848.0</ele><time>2026-05-01T11:51:21.274Z</time></trkpt><trkpt lat="43.9268167" lon="7.4736833"><ele>861.0</ele><time>2026-05-01T11:51:22.274Z</time></trkpt><trkpt lat="43.9265267" lon="7.47375"><ele>855.0</ele><time>2026-05-01T11:51:24.274Z</time></trkpt><trkpt lat="43.9263883" lon="7.4737567"><ele>849.0</ele><time>2026-05-01T11:51:25.274Z</time></trkpt><trkpt lat="43.926255" lon="7.4737667"><ele>843.0</ele><time>2026-05-01T11:51:26.274Z</time></trkpt><trkpt lat="43.9261267" lon="7.47378"><ele>837.0</ele><time>2026-05-01T11:51:27.274Z</time></trkpt><trkpt lat="43.9260017" lon="7.4737917"><ele>840.6</ele><time>2026-05-01T11:51:28.274Z</time></trkpt><trkpt lat="43.925885" lon="7.4737983"><ele>844.2</ele><time>2026-05-01T11:51:29.274Z</time></trkpt><trkpt lat="43.9257717" lon="7.4738017"><ele>847.8</ele><time>2026-05-01T11:51:30.274Z</time></trkpt><trkpt lat="43.925675" lon="7.473825"><ele>851.4</ele><time>2026-05-01T11:51:31.274Z</time></trkpt><trkpt lat="43.9255833" lon="7.4738867"><ele>855.0</ele><time>2026-05-01T11:51:32.274Z</time></trkpt><trkpt lat="43.9255067" lon="7.474015"><ele>855.0</ele><time>2026-05-01T11:51:33.274Z</time></trkpt><trkpt lat="43.92543" lon="7.4741667"><ele>855.0</ele><time>2026-05-01T11:51:34.274Z</time></trkpt><trkpt lat="43.9253567" lon="7.4743317"><ele>855.0</ele><time>2026-05-01T11:51:35.274Z</time></trkpt><trkpt lat="43.92527" lon="7.4744933"><ele>855.0</ele><time>2026-05-01T11:51:36.274Z</time></trkpt><trkpt lat="43.92521" lon="7.4746583"><ele>859.75</ele><time>2026-05-01T11:51:37.274Z</time></trkpt><trkpt lat="43.925145" lon="7.4748183"><ele>864.5</ele><time>2026-05-01T11:51:38.274Z</time></trkpt><trkpt lat="43.9250817" lon="7.4749817"><ele>869.25</ele><time>2026-05-01T11:51:39.274Z</time></trkpt><trkpt lat="43.9250167" lon="7.4751567"><ele>874.0</ele><time>2026-05-01T11:51:40.274Z</time></trkpt><trkpt lat="43.924955" lon="7.4753433"><ele>871.3333333333333</ele><time>2026-05-01T11:51:41.274Z</time></trkpt><trkpt lat="43.9248833" lon="7.475535"><ele>868.6666666666667</ele><time>2026-05-01T11:51:42.274Z</time></trkpt><trkpt lat="43.9248167" lon="7.4757283"><ele>866.0</ele><time>2026-05-01T11:51:43.274Z</time></trkpt><trkpt lat="43.9246567" lon="7.476085"><ele>866.0</ele><time>2026-05-01T11:51:45.275Z</time></trkpt><trkpt lat="43.9245867" lon="7.4762267"><ele>865.9999999999999</ele><time>2026-05-01T11:51:46.274Z</time></trkpt><trkpt lat="43.9245283" lon="7.4763517"><ele>865.9999999999999</ele><time>2026-05-01T11:51:47.274Z</time></trkpt><trkpt lat="43.9244583" lon="7.4764467"><ele>866.0</ele><time>2026-05-01T11:51:48.274Z</time></trkpt><trkpt lat="43.9243833" lon="7.4764867"><ele>866.0</ele><time>2026-05-01T11:51:49.274Z</time></trkpt><trkpt lat="43.9243083" lon="7.4764667"><ele>864.0</ele><time>2026-05-01T11:51:50.274Z</time></trkpt><trkpt lat="43.924235" lon="7.47641"><ele>861.9999999999999</ele><time>2026-05-01T11:51:51.274Z</time></trkpt><trkpt lat="43.9241817" lon="7.47632"><ele>859.9999999999999</ele><time>2026-05-01T11:51:52.274Z</time></trkpt><trkpt lat="43.92414" lon="7.4762033"><ele>858.0</ele><time>2026-05-01T11:51:53.274Z</time></trkpt><trkpt lat="43.92409" lon="7.47606"><ele>856.0</ele><time>2026-05-01T11:51:54.274Z</time></trkpt><trkpt lat="43.9240233" lon="7.4759417"><ele>861.1999999999999</ele><time>2026-05-01T11:51:55.274Z</time></trkpt><trkpt lat="43.9239583" lon="7.475835"><ele>866.3999999999999</ele><time>2026-05-01T11:51:56.274Z</time></trkpt><trkpt lat="43.923895" lon="7.4757433"><ele>871.6</ele><time>2026-05-01T11:51:57.274Z</time></trkpt><trkpt lat="43.923835" lon="7.4756583"><ele>876.8</ele><time>2026-05-01T11:51:58.274Z</time></trkpt><trkpt lat="43.9237817" lon="7.47556"><ele>882.0</ele><time>2026-05-01T11:51:59.274Z</time></trkpt><trkpt lat="43.923725" lon="7.47546"><ele>880.8</ele><time>2026-05-01T11:52:00.274Z</time></trkpt><trkpt lat="43.9236617" lon="7.475365"><ele>879.6</ele><time>2026-05-01T11:52:01.274Z</time></trkpt><trkpt lat="43.9235933" lon="7.4752617"><ele>878.3999999999999</ele><time>2026-05-01T11:52:02.274Z</time></trkpt><trkpt lat="43.92353" lon="7.47516"><ele>877.1999999999999</ele><time>2026-05-01T11:52:03.274Z</time></trkpt><trkpt lat="43.9234633" lon="7.4750517"><ele>876.0</ele><time>2026-05-01T11:52:04.274Z</time></trkpt><trkpt lat="43.92332" lon="7.474815"><ele>876.0</ele><time>2026-05-01T11:52:06.274Z</time></trkpt><trkpt lat="43.9232483" lon="7.474695"><ele>875.9999999999999</ele><time>2026-05-01T11:52:07.274Z</time></trkpt><trkpt lat="43.92318" lon="7.4745783"><ele>875.9999999999999</ele><time>2026-05-01T11:52:08.274Z</time></trkpt><trkpt lat="43.9231133" lon="7.474475"><ele>876.0</ele><time>2026-05-01T11:52:09.274Z</time></trkpt><trkpt lat="43.92304" lon="7.4744067"><ele>876.0</ele><time>2026-05-01T11:52:10.274Z</time></trkpt><trkpt lat="43.9229617" lon="7.4743583"><ele>876.0</ele><time>2026-05-01T11:52:11.274Z</time></trkpt><trkpt lat="43.9228883" lon="7.4743333"><ele>876.0</ele><time>2026-05-01T11:52:12.274Z</time></trkpt><trkpt lat="43.9228083" lon="7.4743117"><ele>876.0</ele><time>2026-05-01T11:52:13.274Z</time></trkpt><trkpt lat="43.9227017" lon="7.474365"><ele>876.0</ele><time>2026-05-01T11:52:15.274Z</time></trkpt><trkpt lat="43.9227183" lon="7.4744983"><ele>876.0</ele><time>2026-05-01T11:52:17.274Z</time></trkpt><trkpt lat="43.92279" lon="7.47455"><ele>876.0</ele><time>2026-05-01T11:52:18.274Z</time></trkpt><trkpt lat="43.9228783" lon="7.4746067"><ele>876.0</ele><time>2026-05-01T11:52:19.274Z</time></trkpt><trkpt lat="43.92298" lon="7.47468"><ele>876.0</ele><time>2026-05-01T11:52:20.274Z</time></trkpt><trkpt lat="43.923085" lon="7.474785"><ele>876.0</ele><time>2026-05-01T11:52:21.274Z</time></trkpt><trkpt lat="43.923175" lon="7.4749133"><ele>876.0</ele><time>2026-05-01T11:52:22.274Z</time></trkpt><trkpt lat="43.9232567" lon="7.47505"><ele>876.0</ele><time>2026-05-01T11:52:23.274Z</time></trkpt><trkpt lat="43.92333" lon="7.4752"><ele>876.0</ele><time>2026-05-01T11:52:24.275Z</time></trkpt><trkpt lat="43.9233983" lon="7.4753417"><ele>876.0</ele><time>2026-05-01T11:52:25.274Z</time></trkpt><trkpt lat="43.92353" lon="7.4756033"><ele>877.0</ele><time>2026-05-01T11:52:27.274Z</time></trkpt><trkpt lat="43.923575" lon="7.475745"><ele>877.9999999999999</ele><time>2026-05-01T11:52:28.274Z</time></trkpt><trkpt lat="43.9236067" lon="7.4758883"><ele>878.9999999999999</ele><time>2026-05-01T11:52:29.274Z</time></trkpt><trkpt lat="43.9236267" lon="7.4760317"><ele>880.0</ele><time>2026-05-01T11:52:30.275Z</time></trkpt><trkpt lat="43.9236283" lon="7.47618"><ele>881.0</ele><time>2026-05-01T11:52:31.274Z</time></trkpt><trkpt lat="43.9236017" lon="7.4763183"><ele>881.0</ele><time>2026-05-01T11:52:32.274Z</time></trkpt><trkpt lat="43.923535" lon="7.47643"><ele>881.0</ele><time>2026-05-01T11:52:33.274Z</time></trkpt><trkpt lat="43.923435" lon="7.476515"><ele>881.0</ele><time>2026-05-01T11:52:34.274Z</time></trkpt><trkpt lat="43.9233283" lon="7.476575"><ele>881.0</ele><time>2026-05-01T11:52:35.274Z</time></trkpt><trkpt lat="43.9232167" lon="7.476625"><ele>878.0</ele><time>2026-05-01T11:52:36.274Z</time></trkpt><trkpt lat="43.923095" lon="7.4766483"><ele>875.0</ele><time>2026-05-01T11:52:37.274Z</time></trkpt><trkpt lat="43.922975" lon="7.4766433"><ele>872.0</ele><time>2026-05-01T11:52:38.274Z</time></trkpt><trkpt lat="43.9228717" lon="7.4766"><ele>869.0</ele><time>2026-05-01T11:52:39.275Z</time></trkpt><trkpt lat="43.92277" lon="7.4765333"><ele>869.0</ele><time>2026-05-01T11:52:40.275Z</time></trkpt><trkpt lat="43.92269" lon="7.4764383"><ele>869.0000000000001</ele><time>2026-05-01T11:52:41.274Z</time></trkpt><trkpt lat="43.9226433" lon="7.4763067"><ele>869.0000000000001</ele><time>2026-05-01T11:52:42.274Z</time></trkpt><trkpt lat="43.922625" lon="7.4761617"><ele>869.0</ele><time>2026-05-01T11:52:43.274Z</time></trkpt><trkpt lat="43.922625" lon="7.4760117"><ele>869.0</ele><time>2026-05-01T11:52:44.274Z</time></trkpt><trkpt lat="43.9226167" lon="7.4758733"><ele>868.6</ele><time>2026-05-01T11:52:45.274Z</time></trkpt><trkpt lat="43.9226017" lon="7.4757633"><ele>868.2</ele><time>2026-05-01T11:52:46.275Z</time></trkpt><trkpt lat="43.92249" lon="7.4756183"><ele>867.8000000000001</ele><time>2026-05-01T11:52:49.274Z</time></trkpt><trkpt lat="43.92242" lon="7.4757367"><ele>867.4000000000001</ele><time>2026-05-01T11:52:51.274Z</time></trkpt><trkpt lat="43.9224" lon="7.475875"><ele>867.0</ele><time>2026-05-01T11:52:52.275Z</time></trkpt><trkpt lat="43.9223967" lon="7.4760467"><ele>864.0</ele><time>2026-05-01T11:52:53.274Z</time></trkpt><trkpt lat="43.9223867" lon="7.4762033"><ele>861.0</ele><time>2026-05-01T11:52:54.274Z</time></trkpt><trkpt lat="43.9223733" lon="7.4763267"><ele>858.0</ele><time>2026-05-01T11:52:55.275Z</time></trkpt><trkpt lat="43.922315" lon="7.4764533"><ele>855.0</ele><time>2026-05-01T11:52:57.275Z</time></trkpt><trkpt lat="43.9222417" lon="7.4763817"><ele>852.0</ele><time>2026-05-01T11:52:59.274Z</time></trkpt><trkpt lat="43.9222217" lon="7.476265"><ele>851.5</ele><time>2026-05-01T11:53:00.275Z</time></trkpt><trkpt lat="43.92222" lon="7.4761067"><ele>851.0</ele><time>2026-05-01T11:53:01.274Z</time></trkpt><trkpt lat="43.9222183" lon="7.4759267"><ele>850.5</ele><time>2026-05-01T11:53:02.274Z</time></trkpt><trkpt lat="43.922215" lon="7.475755"><ele>850.0</ele><time>2026-05-01T11:53:03.274Z</time></trkpt><trkpt lat="43.9222017" lon="7.47558"><ele>851.25</ele><time>2026-05-01T11:53:04.274Z</time></trkpt><trkpt lat="43.92217" lon="7.47542"><ele>852.5</ele><time>2026-05-01T11:53:05.274Z</time></trkpt><trkpt lat="43.9221067" lon="7.4752767"><ele>853.75</ele><time>2026-05-01T11:53:06.275Z</time></trkpt><trkpt lat="43.9220217" lon="7.4751483"><ele>855.0</ele><time>2026-05-01T11:53:07.275Z</time></trkpt><trkpt lat="43.9218283" lon="7.4749233"><ele>855.0</ele><time>2026-05-01T11:53:09.274Z</time></trkpt><trkpt lat="43.92174" lon="7.474815"><ele>855.0</ele><time>2026-05-01T11:53:10.274Z</time></trkpt><trkpt lat="43.92167" lon="7.47469"><ele>855.0</ele><time>2026-05-01T11:53:11.274Z</time></trkpt><trkpt lat="43.9216183" lon="7.4745567"><ele>855.0</ele><time>2026-05-01T11:53:12.274Z</time></trkpt><trkpt lat="43.921595" lon="7.474405"><ele>850.0</ele><time>2026-05-01T11:53:13.274Z</time></trkpt><trkpt lat="43.9215983" lon="7.4742333"><ele>845.0</ele><time>2026-05-01T11:53:14.275Z</time></trkpt><trkpt lat="43.9216233" lon="7.4740667"><ele>840.0</ele><time>2026-05-01T11:53:15.275Z</time></trkpt><trkpt lat="43.9216683" lon="7.4739033"><ele>835.0</ele><time>2026-05-01T11:53:16.274Z</time></trkpt><trkpt lat="43.9217283" lon="7.4737417"><ele>846.0</ele><time>2026-05-01T11:53:17.274Z</time></trkpt><trkpt lat="43.9217833" lon="7.4735867"><ele>857.0</ele><time>2026-05-01T11:53:18.274Z</time></trkpt><trkpt lat="43.9218067" lon="7.4734333"><ele>868.0</ele><time>2026-05-01T11:53:19.274Z</time></trkpt><trkpt lat="43.9218117" lon="7.473275"><ele>879.0</ele><time>2026-05-01T11:53:20.274Z</time></trkpt><trkpt lat="43.921805" lon="7.4731233"><ele>879.0</ele><time>2026-05-01T11:53:21.274Z</time></trkpt><trkpt lat="43.92178" lon="7.4729817"><ele>879.0</ele><time>2026-05-01T11:53:22.274Z</time></trkpt><trkpt lat="43.9217383" lon="7.4728383"><ele>879.0</ele><time>2026-05-01T11:53:23.275Z</time></trkpt><trkpt lat="43.9216733" lon="7.4727033"><ele>879.0</ele><time>2026-05-01T11:53:24.274Z</time></trkpt><trkpt lat="43.9215983" lon="7.4725767"><ele>871.25</ele><time>2026-05-01T11:53:25.275Z</time></trkpt><trkpt lat="43.9215217" lon="7.4724367"><ele>863.5</ele><time>2026-05-01T11:53:26.274Z</time></trkpt><trkpt lat="43.9214467" lon="7.4722917"><ele>855.75</ele><time>2026-05-01T11:53:27.274Z</time></trkpt><trkpt lat="43.92138" lon="7.4721433"><ele>848.0</ele><time>2026-05-01T11:53:28.274Z</time></trkpt><trkpt lat="43.92124" lon="7.4719117"><ele>848.0000000000001</ele><time>2026-05-01T11:53:30.274Z</time></trkpt><trkpt lat="43.9211617" lon="7.47185"><ele>848.0</ele><time>2026-05-01T11:53:31.274Z</time></trkpt><trkpt lat="43.9210767" lon="7.47183"><ele>848.0</ele><time>2026-05-01T11:53:32.274Z</time></trkpt><trkpt lat="43.9209967" lon="7.4718317"><ele>848.0</ele><time>2026-05-01T11:53:33.274Z</time></trkpt><trkpt lat="43.9209333" lon="7.4718767"><ele>848.0000000000001</ele><time>2026-05-01T11:53:34.275Z</time></trkpt><trkpt lat="43.9208767" lon="7.47198"><ele>848.0</ele><time>2026-05-01T11:53:35.274Z</time></trkpt><trkpt lat="43.9208483" lon="7.4721533"><ele>844.25</ele><time>2026-05-01T11:53:36.274Z</time></trkpt><trkpt lat="43.9208417" lon="7.47235"><ele>840.5</ele><time>2026-05-01T11:53:37.274Z</time></trkpt><trkpt lat="43.9208617" lon="7.4725367"><ele>836.75</ele><time>2026-05-01T11:53:38.274Z</time></trkpt><trkpt lat="43.920855" lon="7.4726983"><ele>833.0</ele><time>2026-05-01T11:53:39.274Z</time></trkpt><trkpt lat="43.9208233" lon="7.472855"><ele>828.5</ele><time>2026-05-01T11:53:40.274Z</time></trkpt><trkpt lat="43.9207767" lon="7.4730133"><ele>824.0</ele><time>2026-05-01T11:53:41.274Z</time></trkpt><trkpt lat="43.9207017" lon="7.4731517"><ele>819.5</ele><time>2026-05-01T11:53:42.274Z</time></trkpt><trkpt lat="43.9206017" lon="7.47329"><ele>815.0</ele><time>2026-05-01T11:53:43.274Z</time></trkpt><trkpt lat="43.9204933" lon="7.4734267"><ele>815.0</ele><time>2026-05-01T11:53:44.274Z</time></trkpt><trkpt lat="43.92037" lon="7.4735583"><ele>815.0</ele><time>2026-05-01T11:53:45.274Z</time></trkpt><trkpt lat="43.9202467" lon="7.4736917"><ele>815.0</ele><time>2026-05-01T11:53:46.274Z</time></trkpt><trkpt lat="43.9201217" lon="7.473815"><ele>812.3333333333334</ele><time>2026-05-01T11:53:47.274Z</time></trkpt><trkpt lat="43.9200033" lon="7.47394"><ele>809.6666666666667</ele><time>2026-05-01T11:53:48.274Z</time></trkpt><trkpt lat="43.9198817" lon="7.4740683"><ele>807.0</ele><time>2026-05-01T11:53:49.275Z</time></trkpt><trkpt lat="43.9196567" lon="7.4743433"><ele>807.0</ele><time>2026-05-01T11:53:51.274Z</time></trkpt><trkpt lat="43.9195383" lon="7.4744733"><ele>807.0</ele><time>2026-05-01T11:53:52.274Z</time></trkpt><trkpt lat="43.91941" lon="7.4745717"><ele>807.0</ele><time>2026-05-01T11:53:53.274Z</time></trkpt><trkpt lat="43.9192767" lon="7.4746583"><ele>807.0</ele><time>2026-05-01T11:53:54.274Z</time></trkpt><trkpt lat="43.919135" lon="7.47474"><ele>801.0</ele><time>2026-05-01T11:53:55.275Z</time></trkpt><trkpt lat="43.918985" lon="7.47482"><ele>795.0</ele><time>2026-05-01T11:53:56.275Z</time></trkpt><trkpt lat="43.9188367" lon="7.4749133"><ele>789.0</ele><time>2026-05-01T11:53:57.274Z</time></trkpt><trkpt lat="43.91868" lon="7.4750067"><ele>789.0</ele><time>2026-05-01T11:53:58.274Z</time></trkpt><trkpt lat="43.9185183" lon="7.475105"><ele>789.0</ele><time>2026-05-01T11:53:59.274Z</time></trkpt><trkpt lat="43.9183533" lon="7.47519"><ele>789.0</ele><time>2026-05-01T11:54:00.274Z</time></trkpt><trkpt lat="43.918195" lon="7.475295"><ele>793.6666666666667</ele><time>2026-05-01T11:54:01.274Z</time></trkpt><trkpt lat="43.9180517" lon="7.4754"><ele>798.3333333333334</ele><time>2026-05-01T11:54:02.274Z</time></trkpt><trkpt lat="43.9179233" lon="7.4755317"><ele>803.0</ele><time>2026-05-01T11:54:03.274Z</time></trkpt><trkpt lat="43.9178" lon="7.47567"><ele>797.0</ele><time>2026-05-01T11:54:04.274Z</time></trkpt><trkpt lat="43.9176683" lon="7.4757917"><ele>791.0</ele><time>2026-05-01T11:54:05.274Z</time></trkpt><trkpt lat="43.9175283" lon="7.47589"><ele>785.0</ele><time>2026-05-01T11:54:06.274Z</time></trkpt><trkpt lat="43.9173783" lon="7.4759483"><ele>785.0</ele><time>2026-05-01T11:54:07.274Z</time></trkpt><trkpt lat="43.9172233" lon="7.476"><ele>785.0</ele><time>2026-05-01T11:54:08.274Z</time></trkpt><trkpt lat="43.9170717" lon="7.47605"><ele>785.0</ele><time>2026-05-01T11:54:09.275Z</time></trkpt><trkpt lat="43.91692" lon="7.4761233"><ele>793.5</ele><time>2026-05-01T11:54:10.274Z</time></trkpt><trkpt lat="43.9165933" lon="7.47624"><ele>802.0</ele><time>2026-05-01T11:54:12.274Z</time></trkpt><trkpt lat="43.9164283" lon="7.4762833"><ele>787.0</ele><time>2026-05-01T11:54:13.274Z</time></trkpt><trkpt lat="43.9162667" lon="7.47632"><ele>772.0</ele><time>2026-05-01T11:54:14.275Z</time></trkpt><trkpt lat="43.916105" lon="7.476355"><ele>757.0</ele><time>2026-05-01T11:54:15.274Z</time></trkpt><trkpt lat="43.915945" lon="7.4763867"><ele>761.3333333333334</ele><time>2026-05-01T11:54:16.274Z</time></trkpt><trkpt lat="43.9157867" lon="7.4764217"><ele>765.6666666666667</ele><time>2026-05-01T11:54:17.274Z</time></trkpt><trkpt lat="43.915645" lon="7.47647"><ele>770.0</ele><time>2026-05-01T11:54:18.274Z</time></trkpt><trkpt lat="43.915515" lon="7.47657"><ele>770.0</ele><time>2026-05-01T11:54:19.274Z</time></trkpt><trkpt lat="43.9154083" lon="7.4767"><ele>770.0</ele><time>2026-05-01T11:54:20.274Z</time></trkpt><trkpt lat="43.9153117" lon="7.4768833"><ele>770.0</ele><time>2026-05-01T11:54:21.274Z</time></trkpt><trkpt lat="43.91524" lon="7.47709"><ele>773.3333333333334</ele><time>2026-05-01T11:54:22.274Z</time></trkpt><trkpt lat="43.915155" lon="7.4773017"><ele>776.6666666666667</ele><time>2026-05-01T11:54:23.274Z</time></trkpt><trkpt lat="43.915055" lon="7.4774883"><ele>780.0</ele><time>2026-05-01T11:54:24.274Z</time></trkpt><trkpt lat="43.9149567" lon="7.4776817"><ele>780.0</ele><time>2026-05-01T11:54:25.274Z</time></trkpt><trkpt lat="43.9148917" lon="7.4779033"><ele>780.0</ele><time>2026-05-01T11:54:26.275Z</time></trkpt><trkpt lat="43.914815" lon="7.478125"><ele>780.0</ele><time>2026-05-01T11:54:27.274Z</time></trkpt><trkpt lat="43.91472" lon="7.4783333"><ele>770.3333333333334</ele><time>2026-05-01T11:54:28.274Z</time></trkpt><trkpt lat="43.9146267" lon="7.4785217"><ele>760.6666666666667</ele><time>2026-05-01T11:54:29.274Z</time></trkpt><trkpt lat="43.914525" lon="7.4786867"><ele>751.0</ele><time>2026-05-01T11:54:30.274Z</time></trkpt><trkpt lat="43.9144317" lon="7.4788617"><ele>742.5</ele><time>2026-05-01T11:54:31.274Z</time></trkpt><trkpt lat="43.914265" lon="7.479235"><ele>734.0</ele><time>2026-05-01T11:54:33.274Z</time></trkpt><trkpt lat="43.91419" lon="7.4794417"><ele>743.3333333333333</ele><time>2026-05-01T11:54:34.274Z</time></trkpt><trkpt lat="43.914125" lon="7.47966"><ele>752.6666666666666</ele><time>2026-05-01T11:54:35.274Z</time></trkpt><trkpt lat="43.9140717" lon="7.479895"><ele>762.0</ele><time>2026-05-01T11:54:36.274Z</time></trkpt><trkpt lat="43.9140267" lon="7.4801483"><ele>762.0</ele><time>2026-05-01T11:54:37.274Z</time></trkpt><trkpt lat="43.91398" lon="7.4804033"><ele>762.0</ele><time>2026-05-01T11:54:38.274Z</time></trkpt><trkpt lat="43.91393" lon="7.4806517"><ele>762.0</ele><time>2026-05-01T11:54:39.274Z</time></trkpt><trkpt lat="43.913905" lon="7.48091"><ele>758.6666666666666</ele><time>2026-05-01T11:54:40.274Z</time></trkpt><trkpt lat="43.9138967" lon="7.48115"><ele>755.3333333333333</ele><time>2026-05-01T11:54:41.274Z</time></trkpt><trkpt lat="43.9139033" lon="7.48138"><ele>752.0</ele><time>2026-05-01T11:54:42.274Z</time></trkpt><trkpt lat="43.913905" lon="7.4815967"><ele>752.0</ele><time>2026-05-01T11:54:43.274Z</time></trkpt><trkpt lat="43.9139083" lon="7.4817933"><ele>752.0</ele><time>2026-05-01T11:54:44.274Z</time></trkpt><trkpt lat="43.9139033" lon="7.4819717"><ele>752.0</ele><time>2026-05-01T11:54:45.274Z</time></trkpt><trkpt lat="43.9138583" lon="7.48212"><ele>752.0</ele><time>2026-05-01T11:54:46.274Z</time></trkpt><trkpt lat="43.9137783" lon="7.482255"><ele>750.5</ele><time>2026-05-01T11:54:47.274Z</time></trkpt><trkpt lat="43.9136633" lon="7.4823533"><ele>749.0</ele><time>2026-05-01T11:54:48.274Z</time></trkpt><trkpt lat="43.913535" lon="7.4824167"><ele>747.5</ele><time>2026-05-01T11:54:49.274Z</time></trkpt><trkpt lat="43.9133783" lon="7.4824633"><ele>746.0</ele><time>2026-05-01T11:54:50.274Z</time></trkpt><trkpt lat="43.91322" lon="7.4825333"><ele>756.5</ele><time>2026-05-01T11:54:51.274Z</time></trkpt><trkpt lat="43.9130583" lon="7.4826017"><ele>767.0</ele><time>2026-05-01T11:54:52.275Z</time></trkpt><trkpt lat="43.912745" lon="7.4827083"><ele>767.0</ele><time>2026-05-01T11:54:54.274Z</time></trkpt><trkpt lat="43.9125917" lon="7.4827283"><ele>767.0</ele><time>2026-05-01T11:54:55.274Z</time></trkpt><trkpt lat="43.9124467" lon="7.4827233"><ele>767.0</ele><time>2026-05-01T11:54:56.274Z</time></trkpt><trkpt lat="43.912305" lon="7.4826933"><ele>767.0</ele><time>2026-05-01T11:54:57.274Z</time></trkpt><trkpt lat="43.91218" lon="7.48265"><ele>768.0</ele><time>2026-05-01T11:54:58.274Z</time></trkpt><trkpt lat="43.9120717" lon="7.4826"><ele>769.0</ele><time>2026-05-01T11:54:59.274Z</time></trkpt><trkpt lat="43.9119667" lon="7.4825067"><ele>770.0</ele><time>2026-05-01T11:55:00.274Z</time></trkpt><trkpt lat="43.9118733" lon="7.4823733"><ele>771.0</ele><time>2026-05-01T11:55:01.274Z</time></trkpt><trkpt lat="43.91178" lon="7.4822183"><ele>767.75</ele><time>2026-05-01T11:55:02.274Z</time></trkpt><trkpt lat="43.9116933" lon="7.4820733"><ele>764.5</ele><time>2026-05-01T11:55:03.274Z</time></trkpt><trkpt lat="43.91161" lon="7.4819333"><ele>761.25</ele><time>2026-05-01T11:55:04.275Z</time></trkpt><trkpt lat="43.9115317" lon="7.4817783"><ele>758.0</ele><time>2026-05-01T11:55:05.274Z</time></trkpt><trkpt lat="43.911485" lon="7.481615"><ele>758.0</ele><time>2026-05-01T11:55:06.274Z</time></trkpt><trkpt lat="43.9114717" lon="7.4814467"><ele>758.0</ele><time>2026-05-01T11:55:07.275Z</time></trkpt><trkpt lat="43.9114817" lon="7.48127"><ele>758.0</ele><time>2026-05-01T11:55:08.274Z</time></trkpt><trkpt lat="43.9114767" lon="7.4810917"><ele>758.0</ele><time>2026-05-01T11:55:09.274Z</time></trkpt><trkpt lat="43.9114383" lon="7.4809183"><ele>760.25</ele><time>2026-05-01T11:55:10.274Z</time></trkpt><trkpt lat="43.9113867" lon="7.48076"><ele>762.5</ele><time>2026-05-01T11:55:11.274Z</time></trkpt><trkpt lat="43.911335" lon="7.4805983"><ele>764.75</ele><time>2026-05-01T11:55:12.274Z</time></trkpt><trkpt lat="43.9112833" lon="7.4804383"><ele>767.0</ele><time>2026-05-01T11:55:13.274Z</time></trkpt><trkpt lat="43.91123" lon="7.4800833"><ele>767.75</ele><time>2026-05-01T11:55:15.274Z</time></trkpt><trkpt lat="43.911215" lon="7.4798967"><ele>768.5</ele><time>2026-05-01T11:55:16.274Z</time></trkpt><trkpt lat="43.9112083" lon="7.4797117"><ele>769.25</ele><time>2026-05-01T11:55:17.274Z</time></trkpt><trkpt lat="43.9112217" lon="7.479525"><ele>770.0</ele><time>2026-05-01T11:55:18.274Z</time></trkpt><trkpt lat="43.91125" lon="7.47935"><ele>770.5</ele><time>2026-05-01T11:55:19.275Z</time></trkpt><trkpt lat="43.9112667" lon="7.4791817"><ele>771.0</ele><time>2026-05-01T11:55:20.274Z</time></trkpt><trkpt lat="43.911255" lon="7.4790117"><ele>771.5</ele><time>2026-05-01T11:55:21.274Z</time></trkpt><trkpt lat="43.9112433" lon="7.4788417"><ele>772.0</ele><time>2026-05-01T11:55:22.274Z</time></trkpt><trkpt lat="43.9112367" lon="7.4786733"><ele>773.5</ele><time>2026-05-01T11:55:23.274Z</time></trkpt><trkpt lat="43.9112283" lon="7.4785067"><ele>775.0</ele><time>2026-05-01T11:55:24.274Z</time></trkpt><trkpt lat="43.9112033" lon="7.4783417"><ele>776.5</ele><time>2026-05-01T11:55:25.274Z</time></trkpt><trkpt lat="43.9111717" lon="7.4781883"><ele>778.0</ele><time>2026-05-01T11:55:26.274Z</time></trkpt><trkpt lat="43.9111167" lon="7.478055"><ele>778.0</ele><time>2026-05-01T11:55:27.274Z</time></trkpt><trkpt lat="43.9110517" lon="7.47796"><ele>778.0</ele><time>2026-05-01T11:55:28.274Z</time></trkpt><trkpt lat="43.9109717" lon="7.4779117"><ele>778.0</ele><time>2026-05-01T11:55:29.274Z</time></trkpt><trkpt lat="43.91088" lon="7.4779033"><ele>778.0</ele><time>2026-05-01T11:55:30.275Z</time></trkpt><trkpt lat="43.9107917" lon="7.4779267"><ele>778.0</ele><time>2026-05-01T11:55:31.275Z</time></trkpt><trkpt lat="43.9106833" lon="7.4779817"><ele>764.6666666666666</ele><time>2026-05-01T11:55:32.274Z</time></trkpt><trkpt lat="43.910545" lon="7.47805"><ele>751.3333333333333</ele><time>2026-05-01T11:55:33.275Z</time></trkpt><trkpt lat="43.91041" lon="7.4781183"><ele>738.0</ele><time>2026-05-01T11:55:34.275Z</time></trkpt><trkpt lat="43.9101433" lon="7.4782717"><ele>738.0</ele><time>2026-05-01T11:55:36.274Z</time></trkpt><trkpt lat="43.9100217" lon="7.4783317"><ele>738.0</ele><time>2026-05-01T11:55:37.274Z</time></trkpt><trkpt lat="43.9098933" lon="7.47838"><ele>738.0</ele><time>2026-05-01T11:55:38.274Z</time></trkpt><trkpt lat="43.9097717" lon="7.4784217"><ele>738.0</ele><time>2026-05-01T11:55:39.274Z</time></trkpt><trkpt lat="43.90964" lon="7.4784333"><ele>738.0</ele><time>2026-05-01T11:55:40.275Z</time></trkpt><trkpt lat="43.909495" lon="7.478435"><ele>738.0</ele><time>2026-05-01T11:55:41.274Z</time></trkpt><trkpt lat="43.9093483" lon="7.478425"><ele>738.0</ele><time>2026-05-01T11:55:42.274Z</time></trkpt><trkpt lat="43.9092017" lon="7.4784283"><ele>738.0</ele><time>2026-05-01T11:55:43.274Z</time></trkpt><trkpt lat="43.9090583" lon="7.47844"><ele>739.25</ele><time>2026-05-01T11:55:44.274Z</time></trkpt><trkpt lat="43.9089117" lon="7.4784483"><ele>740.5</ele><time>2026-05-01T11:55:45.275Z</time></trkpt><trkpt lat="43.90877" lon="7.47845"><ele>741.75</ele><time>2026-05-01T11:55:46.274Z</time></trkpt><trkpt lat="43.9086383" lon="7.4784517"><ele>743.0</ele><time>2026-05-01T11:55:47.274Z</time></trkpt><trkpt lat="43.9085117" lon="7.4784483"><ele>738.0</ele><time>2026-05-01T11:55:48.274Z</time></trkpt><trkpt lat="43.9084" lon="7.4784267"><ele>733.0</ele><time>2026-05-01T11:55:49.274Z</time></trkpt><trkpt lat="43.9082933" lon="7.4783683"><ele>728.0</ele><time>2026-05-01T11:55:50.274Z</time></trkpt><trkpt lat="43.9081983" lon="7.478275"><ele>723.0</ele><time>2026-05-01T11:55:51.275Z</time></trkpt><trkpt lat="43.908105" lon="7.47817"><ele>723.0</ele><time>2026-05-01T11:55:52.274Z</time></trkpt><trkpt lat="43.9080067" lon="7.4780333"><ele>723.0</ele><time>2026-05-01T11:55:53.274Z</time></trkpt><trkpt lat="43.9079117" lon="7.477885"><ele>723.0</ele><time>2026-05-01T11:55:54.274Z</time></trkpt><trkpt lat="43.9078083" lon="7.477745"><ele>723.0</ele><time>2026-05-01T11:55:55.275Z</time></trkpt><trkpt lat="43.9075617" lon="7.4775017"><ele>724.25</ele><time>2026-05-01T11:55:57.274Z</time></trkpt><trkpt lat="43.9074317" lon="7.4773983"><ele>725.5</ele><time>2026-05-01T11:55:58.274Z</time></trkpt><trkpt lat="43.907305" lon="7.477305"><ele>726.75</ele><time>2026-05-01T11:55:59.274Z</time></trkpt><trkpt lat="43.90718" lon="7.4772017"><ele>728.0</ele><time>2026-05-01T11:56:00.275Z</time></trkpt><trkpt lat="43.9070717" lon="7.47708"><ele>732.25</ele><time>2026-05-01T11:56:01.274Z</time></trkpt><trkpt lat="43.9069767" lon="7.47694"><ele>736.5</ele><time>2026-05-01T11:56:02.274Z</time></trkpt><trkpt lat="43.906915" lon="7.4767683"><ele>740.75</ele><time>2026-05-01T11:56:03.274Z</time></trkpt><trkpt lat="43.9068883" lon="7.4765983"><ele>745.0</ele><time>2026-05-01T11:56:04.274Z</time></trkpt><trkpt lat="43.9068933" lon="7.4764217"><ele>742.25</ele><time>2026-05-01T11:56:05.274Z</time></trkpt><trkpt lat="43.90693" lon="7.4762383"><ele>739.5</ele><time>2026-05-01T11:56:06.274Z</time></trkpt><trkpt lat="43.9069667" lon="7.4760533"><ele>736.75</ele><time>2026-05-01T11:56:07.274Z</time></trkpt><trkpt lat="43.90702" lon="7.47589"><ele>734.0</ele><time>2026-05-01T11:56:08.274Z</time></trkpt><trkpt lat="43.9070917" lon="7.4757333"><ele>734.0</ele><time>2026-05-01T11:56:09.275Z</time></trkpt><trkpt lat="43.907195" lon="7.4756017"><ele>734.0</ele><time>2026-05-01T11:56:10.275Z</time></trkpt><trkpt lat="43.9072933" lon="7.47546"><ele>734.0</ele><time>2026-05-01T11:56:11.275Z</time></trkpt><trkpt lat="43.9073833" lon="7.4752883"><ele>734.0</ele><time>2026-05-01T11:56:12.275Z</time></trkpt><trkpt lat="43.9074617" lon="7.47511"><ele>736.0</ele><time>2026-05-01T11:56:13.274Z</time></trkpt><trkpt lat="43.9075433" lon="7.4749317"><ele>738.0</ele><time>2026-05-01T11:56:14.274Z</time></trkpt><trkpt lat="43.9076067" lon="7.4747467"><ele>740.0</ele><time>2026-05-01T11:56:15.275Z</time></trkpt><trkpt lat="43.9076667" lon="7.4745733"><ele>742.0</ele><time>2026-05-01T11:56:16.274Z</time></trkpt><trkpt lat="43.9077983" lon="7.4742817"><ele>742.0</ele><time>2026-05-01T11:56:18.274Z</time></trkpt><trkpt lat="43.9078433" lon="7.4741283"><ele>742.0</ele><time>2026-05-01T11:56:19.274Z</time></trkpt><trkpt lat="43.9078567" lon="7.473985"><ele>742.0</ele><time>2026-05-01T11:56:20.274Z</time></trkpt><trkpt lat="43.9078617" lon="7.4738517"><ele>742.0</ele><time>2026-05-01T11:56:21.274Z</time></trkpt><trkpt lat="43.907845" lon="7.4737317"><ele>742.0</ele><time>2026-05-01T11:56:22.274Z</time></trkpt><trkpt lat="43.90781" lon="7.4736383"><ele>741.8</ele><time>2026-05-01T11:56:23.274Z</time></trkpt><trkpt lat="43.9077617" lon="7.4735617"><ele>741.6</ele><time>2026-05-01T11:56:24.274Z</time></trkpt><trkpt lat="43.9077017" lon="7.4735167"><ele>741.4</ele><time>2026-05-01T11:56:25.274Z</time></trkpt><trkpt lat="43.907635" lon="7.4734867"><ele>741.1999999999999</ele><time>2026-05-01T11:56:26.274Z</time></trkpt><trkpt lat="43.9075283" lon="7.473505"><ele>741.0</ele><time>2026-05-01T11:56:27.274Z</time></trkpt><trkpt lat="43.9073917" lon="7.473575"><ele>734.6666666666666</ele><time>2026-05-01T11:56:28.274Z</time></trkpt><trkpt lat="43.9072217" lon="7.4736867"><ele>728.3333333333333</ele><time>2026-05-01T11:56:29.274Z</time></trkpt><trkpt lat="43.9070467" lon="7.47376"><ele>722.0</ele><time>2026-05-01T11:56:30.274Z</time></trkpt><trkpt lat="43.9068633" lon="7.4737933"><ele>707.6666666666666</ele><time>2026-05-01T11:56:31.274Z</time></trkpt><trkpt lat="43.90667" lon="7.4738283"><ele>693.3333333333334</ele><time>2026-05-01T11:56:32.274Z</time></trkpt><trkpt lat="43.90648" lon="7.4738717"><ele>679.0</ele><time>2026-05-01T11:56:33.275Z</time></trkpt><trkpt lat="43.9062933" lon="7.4739267"><ele>679.0</ele><time>2026-05-01T11:56:34.274Z</time></trkpt><trkpt lat="43.9061183" lon="7.4739717"><ele>679.0</ele><time>2026-05-01T11:56:35.274Z</time></trkpt><trkpt lat="43.9059533" lon="7.47403"><ele>679.0</ele><time>2026-05-01T11:56:36.274Z</time></trkpt><trkpt lat="43.905795" lon="7.4740883"><ele>681.5</ele><time>2026-05-01T11:56:37.274Z</time></trkpt><trkpt lat="43.9054967" lon="7.4742167"><ele>684.0</ele><time>2026-05-01T11:56:39.274Z</time></trkpt><trkpt lat="43.905355" lon="7.4742917"><ele>684.0</ele><time>2026-05-01T11:56:40.274Z</time></trkpt><trkpt lat="43.905215" lon="7.4743683"><ele>684.0</ele><time>2026-05-01T11:56:41.274Z</time></trkpt><trkpt lat="43.9050817" lon="7.47445"><ele>684.0</ele><time>2026-05-01T11:56:42.274Z</time></trkpt><trkpt lat="43.90495" lon="7.4745283"><ele>684.0</ele><time>2026-05-01T11:56:43.274Z</time></trkpt><trkpt lat="43.9048267" lon="7.4746233"><ele>679.25</ele><time>2026-05-01T11:56:44.274Z</time></trkpt><trkpt lat="43.9047017" lon="7.4747233"><ele>674.5</ele><time>2026-05-01T11:56:45.274Z</time></trkpt><trkpt lat="43.9046" lon="7.4748367"><ele>669.75</ele><time>2026-05-01T11:56:46.274Z</time></trkpt><trkpt lat="43.9045033" lon="7.474965"><ele>665.0</ele><time>2026-05-01T11:56:47.274Z</time></trkpt><trkpt lat="43.9044083" lon="7.475095"><ele>665.0</ele><time>2026-05-01T11:56:48.274Z</time></trkpt><trkpt lat="43.9043133" lon="7.4752067"><ele>665.0</ele><time>2026-05-01T11:56:49.275Z</time></trkpt><trkpt lat="43.9042183" lon="7.4753167"><ele>665.0</ele><time>2026-05-01T11:56:50.275Z</time></trkpt><trkpt lat="43.9041383" lon="7.4754117"><ele>665.0</ele><time>2026-05-01T11:56:51.274Z</time></trkpt><trkpt lat="43.9040717" lon="7.475495"><ele>665.0</ele><time>2026-05-01T11:56:52.274Z</time></trkpt><trkpt lat="43.9039933" lon="7.47556"><ele>662.4</ele><time>2026-05-01T11:56:53.275Z</time></trkpt><trkpt lat="43.9039267" lon="7.4755683"><ele>659.8</ele><time>2026-05-01T11:56:54.275Z</time></trkpt><trkpt lat="43.9038533" lon="7.47554"><ele>657.2</ele><time>2026-05-01T11:56:55.274Z</time></trkpt><trkpt lat="43.9037833" lon="7.4754633"><ele>654.6</ele><time>2026-05-01T11:56:56.274Z</time></trkpt><trkpt lat="43.90372" lon="7.475345"><ele>652.0</ele><time>2026-05-01T11:56:57.274Z</time></trkpt><trkpt lat="43.9036483" lon="7.4751983"><ele>662.0</ele><time>2026-05-01T11:56:58.275Z</time></trkpt><trkpt lat="43.9035133" lon="7.4748833"><ele>672.0</ele><time>2026-05-01T11:57:00.275Z</time></trkpt><trkpt lat="43.903465" lon="7.4747117"><ele>682.0</ele><time>2026-05-01T11:57:01.274Z</time></trkpt><trkpt lat="43.903415" lon="7.4745383"><ele>678.0</ele><time>2026-05-01T11:57:02.274Z</time></trkpt><trkpt lat="43.9033717" lon="7.47437"><ele>674.0</ele><time>2026-05-01T11:57:03.275Z</time></trkpt><trkpt lat="43.90334" lon="7.4742083"><ele>670.0</ele><time>2026-05-01T11:57:04.274Z</time></trkpt><trkpt lat="43.9033033" lon="7.474045"><ele>666.0</ele><time>2026-05-01T11:57:05.275Z</time></trkpt><trkpt lat="43.9032617" lon="7.4738833"><ele>666.8</ele><time>2026-05-01T11:57:06.274Z</time></trkpt><trkpt lat="43.9032217" lon="7.4737383"><ele>667.5999999999999</ele><time>2026-05-01T11:57:07.274Z</time></trkpt><trkpt lat="43.9031917" lon="7.4735967"><ele>668.4</ele><time>2026-05-01T11:57:08.274Z</time></trkpt><trkpt lat="43.9031667" lon="7.4734767"><ele>669.2</ele><time>2026-05-01T11:57:09.275Z</time></trkpt><trkpt lat="43.9031267" lon="7.4733717"><ele>670.0</ele><time>2026-05-01T11:57:10.274Z</time></trkpt><trkpt lat="43.90308" lon="7.473275"><ele>670.0</ele><time>2026-05-01T11:57:11.274Z</time></trkpt><trkpt lat="43.9030217" lon="7.4732017"><ele>670.0</ele><time>2026-05-01T11:57:12.274Z</time></trkpt><trkpt lat="43.9029417" lon="7.4731467"><ele>670.0</ele><time>2026-05-01T11:57:13.274Z</time></trkpt><trkpt lat="43.90286" lon="7.4730933"><ele>670.0</ele><time>2026-05-01T11:57:14.274Z</time></trkpt><trkpt lat="43.9027683" lon="7.473055"><ele>670.0</ele><time>2026-05-01T11:57:15.274Z</time></trkpt><trkpt lat="43.9026767" lon="7.4730117"><ele>670.0</ele><time>2026-05-01T11:57:16.274Z</time></trkpt><trkpt lat="43.9025867" lon="7.472955"><ele>670.0</ele><time>2026-05-01T11:57:17.274Z</time></trkpt><trkpt lat="43.9024883" lon="7.4729233"><ele>670.0</ele><time>2026-05-01T11:57:18.274Z</time></trkpt><trkpt lat="43.9023833" lon="7.472935"><ele>670.0</ele><time>2026-05-01T11:57:19.274Z</time></trkpt><trkpt lat="43.9021533" lon="7.4730233"><ele>665.0</ele><time>2026-05-01T11:57:21.274Z</time></trkpt><trkpt lat="43.9020517" lon="7.4731117"><ele>660.0</ele><time>2026-05-01T11:57:22.274Z</time></trkpt><trkpt lat="43.90194" lon="7.4732017"><ele>655.0</ele><time>2026-05-01T11:57:23.274Z</time></trkpt><trkpt lat="43.9018267" lon="7.4732917"><ele>650.0</ele><time>2026-05-01T11:57:24.274Z</time></trkpt><trkpt lat="43.9017033" lon="7.47338"><ele>647.75</ele><time>2026-05-01T11:57:25.274Z</time></trkpt><trkpt lat="43.9015767" lon="7.4734567"><ele>645.5</ele><time>2026-05-01T11:57:26.274Z</time></trkpt><trkpt lat="43.9014517" lon="7.4735267"><ele>643.25</ele><time>2026-05-01T11:57:27.274Z</time></trkpt><trkpt lat="43.9013267" lon="7.4735883"><ele>641.0</ele><time>2026-05-01T11:57:28.274Z</time></trkpt><trkpt lat="43.901205" lon="7.47364"><ele>641.0</ele><time>2026-05-01T11:57:29.274Z</time></trkpt><trkpt lat="43.9010733" lon="7.47369"><ele>641.0</ele><time>2026-05-01T11:57:30.275Z</time></trkpt><trkpt lat="43.9009333" lon="7.47373"><ele>641.0</ele><time>2026-05-01T11:57:31.274Z</time></trkpt><trkpt lat="43.90079" lon="7.4737667"><ele>641.0</ele><time>2026-05-01T11:57:32.274Z</time></trkpt><trkpt lat="43.9006433" lon="7.4738033"><ele>643.3333333333333</ele><time>2026-05-01T11:57:33.275Z</time></trkpt><trkpt lat="43.900495" lon="7.4738283"><ele>645.6666666666666</ele><time>2026-05-01T11:57:34.274Z</time></trkpt><trkpt lat="43.9003433" lon="7.4738533"><ele>648.0</ele><time>2026-05-01T11:57:35.274Z</time></trkpt><trkpt lat="43.9001917" lon="7.4738717"><ele>647.5</ele><time>2026-05-01T11:57:36.275Z</time></trkpt><trkpt lat="43.900045" lon="7.4738767"><ele>647.0</ele><time>2026-05-01T11:57:37.274Z</time></trkpt><trkpt lat="43.8999" lon="7.47388"><ele>646.5</ele><time>2026-05-01T11:57:38.274Z</time></trkpt><trkpt lat="43.8997583" lon="7.4738783"><ele>646.0</ele><time>2026-05-01T11:57:39.275Z</time></trkpt><trkpt lat="43.8996217" lon="7.47387"><ele>646.0</ele><time>2026-05-01T11:57:40.274Z</time></trkpt><trkpt lat="43.8993467" lon="7.4737933"><ele>646.0</ele><time>2026-05-01T11:57:42.274Z</time></trkpt><trkpt lat="43.89922" lon="7.4737217"><ele>646.0</ele><time>2026-05-01T11:57:43.274Z</time></trkpt><trkpt lat="43.899105" lon="7.4736267"><ele>639.5</ele><time>2026-05-01T11:57:44.274Z</time></trkpt><trkpt lat="43.89899" lon="7.4735083"><ele>633.0</ele><time>2026-05-01T11:57:45.274Z</time></trkpt><trkpt lat="43.89887" lon="7.473385"><ele>626.5</ele><time>2026-05-01T11:57:46.275Z</time></trkpt><trkpt lat="43.8987433" lon="7.47327"><ele>620.0</ele><time>2026-05-01T11:57:47.274Z</time></trkpt><trkpt lat="43.898605" lon="7.4731733"><ele>620.0</ele><time>2026-05-01T11:57:48.275Z</time></trkpt><trkpt lat="43.8984567" lon="7.4730867"><ele>620.0</ele><time>2026-05-01T11:57:49.274Z</time></trkpt><trkpt lat="43.898305" lon="7.473005"><ele>620.0</ele><time>2026-05-01T11:57:50.274Z</time></trkpt><trkpt lat="43.8981617" lon="7.4729283"><ele>616.0</ele><time>2026-05-01T11:57:51.274Z</time></trkpt><trkpt lat="43.8980217" lon="7.47287"><ele>612.0</ele><time>2026-05-01T11:57:52.274Z</time></trkpt><trkpt lat="43.89789" lon="7.472825"><ele>608.0</ele><time>2026-05-01T11:57:53.274Z</time></trkpt><trkpt lat="43.89777" lon="7.4728133"><ele>604.0</ele><time>2026-05-01T11:57:54.274Z</time></trkpt><trkpt lat="43.89766" lon="7.472835"><ele>605.2</ele><time>2026-05-01T11:57:55.274Z</time></trkpt><trkpt lat="43.89758" lon="7.4728817"><ele>606.4</ele><time>2026-05-01T11:57:56.275Z</time></trkpt><trkpt lat="43.89751" lon="7.4729167"><ele>607.6</ele><time>2026-05-01T11:57:57.274Z</time></trkpt><trkpt lat="43.8974133" lon="7.47291"><ele>608.8</ele><time>2026-05-01T11:57:59.274Z</time></trkpt><trkpt lat="43.8974233" lon="7.4728117"><ele>610.0</ele><time>2026-05-01T11:58:01.275Z</time></trkpt><trkpt lat="43.8975683" lon="7.4727633"><ele>608.5</ele><time>2026-05-01T11:58:03.274Z</time></trkpt><trkpt lat="43.89767" lon="7.472735"><ele>607.0</ele><time>2026-05-01T11:58:04.274Z</time></trkpt><trkpt lat="43.8978067" lon="7.4727217"><ele>605.5</ele><time>2026-05-01T11:58:05.274Z</time></trkpt><trkpt lat="43.8979617" lon="7.4727167"><ele>604.0</ele><time>2026-05-01T11:58:06.274Z</time></trkpt><trkpt lat="43.8981033" lon="7.4727233"><ele>604.0</ele><time>2026-05-01T11:58:07.274Z</time></trkpt><trkpt lat="43.8982317" lon="7.4727483"><ele>604.0</ele><time>2026-05-01T11:58:08.274Z</time></trkpt><trkpt lat="43.8983567" lon="7.4727817"><ele>604.0</ele><time>2026-05-01T11:58:09.274Z</time></trkpt><trkpt lat="43.89846" lon="7.4728183"><ele>604.0</ele><time>2026-05-01T11:58:10.274Z</time></trkpt><trkpt lat="43.89855" lon="7.4728833"><ele>602.5</ele><time>2026-05-01T11:58:11.274Z</time></trkpt><trkpt lat="43.898615" lon="7.4729567"><ele>601.0</ele><time>2026-05-01T11:58:12.274Z</time></trkpt><trkpt lat="43.8986683" lon="7.473005"><ele>599.5</ele><time>2026-05-01T11:58:13.274Z</time></trkpt><trkpt lat="43.8987567" lon="7.47303"><ele>598.0</ele><time>2026-05-01T11:58:15.275Z</time></trkpt><trkpt lat="43.8987767" lon="7.4729367"><ele>596.5</ele><time>2026-05-01T11:58:16.274Z</time></trkpt><trkpt lat="43.89875" lon="7.4728417"><ele>595.0</ele><time>2026-05-01T11:58:17.274Z</time></trkpt><trkpt lat="43.8986767" lon="7.4727583"><ele>595.0</ele><time>2026-05-01T11:58:18.274Z</time></trkpt><trkpt lat="43.89857" lon="7.47268"><ele>595.0</ele><time>2026-05-01T11:58:19.275Z</time></trkpt><trkpt lat="43.898445" lon="7.4726017"><ele>595.0</ele><time>2026-05-01T11:58:20.274Z</time></trkpt><trkpt lat="43.89831" lon="7.472535"><ele>595.0</ele><time>2026-05-01T11:58:21.274Z</time></trkpt><trkpt lat="43.8981817" lon="7.47247"><ele>598.0</ele><time>2026-05-01T11:58:22.274Z</time></trkpt><trkpt lat="43.89789" lon="7.4723967"><ele>601.0</ele><time>2026-05-01T11:58:24.274Z</time></trkpt><trkpt lat="43.8977483" lon="7.4723767"><ele>604.0</ele><time>2026-05-01T11:58:25.274Z</time></trkpt><trkpt lat="43.897605" lon="7.4723817"><ele>605.5</ele><time>2026-05-01T11:58:26.274Z</time></trkpt><trkpt lat="43.8974567" lon="7.4724167"><ele>607.0</ele><time>2026-05-01T11:58:27.274Z</time></trkpt><trkpt lat="43.89731" lon="7.4724667"><ele>608.5</ele><time>2026-05-01T11:58:28.275Z</time></trkpt><trkpt lat="43.8971683" lon="7.4725133"><ele>610.0</ele><time>2026-05-01T11:58:29.274Z</time></trkpt><trkpt lat="43.8970267" lon="7.472535"><ele>610.0</ele><time>2026-05-01T11:58:30.274Z</time></trkpt><trkpt lat="43.8968917" lon="7.4725233"><ele>610.0</ele><time>2026-05-01T11:58:31.275Z</time></trkpt><trkpt lat="43.8967533" lon="7.47248"><ele>610.0</ele><time>2026-05-01T11:58:32.274Z</time></trkpt><trkpt lat="43.89661" lon="7.4724283"><ele>610.0</ele><time>2026-05-01T11:58:33.274Z</time></trkpt><trkpt lat="43.8964583" lon="7.472385"><ele>608.6666666666667</ele><time>2026-05-01T11:58:34.275Z</time></trkpt><trkpt lat="43.89631" lon="7.4723383"><ele>607.3333333333334</ele><time>2026-05-01T11:58:35.274Z</time></trkpt><trkpt lat="43.8961583" lon="7.4722767"><ele>606.0</ele><time>2026-05-01T11:58:36.274Z</time></trkpt><trkpt lat="43.896015" lon="7.472225"><ele>604.75</ele><time>2026-05-01T11:58:37.274Z</time></trkpt><trkpt lat="43.895865" lon="7.472185"><ele>603.5</ele><time>2026-05-01T11:58:38.274Z</time></trkpt><trkpt lat="43.89572" lon="7.4721567"><ele>602.25</ele><time>2026-05-01T11:58:39.274Z</time></trkpt><trkpt lat="43.8955867" lon="7.472155"><ele>601.0</ele><time>2026-05-01T11:58:40.274Z</time></trkpt><trkpt lat="43.895445" lon="7.47217"><ele>601.0</ele><time>2026-05-01T11:58:41.274Z</time></trkpt><trkpt lat="43.8952967" lon="7.4721883"><ele>601.0</ele><time>2026-05-01T11:58:42.274Z</time></trkpt><trkpt lat="43.8951467" lon="7.472215"><ele>601.0</ele><time>2026-05-01T11:58:43.275Z</time></trkpt><trkpt lat="43.8948333" lon="7.4722983"><ele>599.0</ele><time>2026-05-01T11:58:45.274Z</time></trkpt><trkpt lat="43.894685" lon="7.472355"><ele>597.0</ele><time>2026-05-01T11:58:46.274Z</time></trkpt><trkpt lat="43.8945217" lon="7.4724133"><ele>595.0</ele><time>2026-05-01T11:58:47.274Z</time></trkpt><trkpt lat="43.89437" lon="7.4724633"><ele>591.75</ele><time>2026-05-01T11:58:48.275Z</time></trkpt><trkpt lat="43.8942333" lon="7.4724917"><ele>588.5</ele><time>2026-05-01T11:58:49.274Z</time></trkpt><trkpt lat="43.894085" lon="7.4724833"><ele>585.25</ele><time>2026-05-01T11:58:50.274Z</time></trkpt><trkpt lat="43.89394" lon="7.4724667"><ele>582.0</ele><time>2026-05-01T11:58:51.274Z</time></trkpt><trkpt lat="43.893795" lon="7.4724567"><ele>582.0</ele><time>2026-05-01T11:58:52.275Z</time></trkpt><trkpt lat="43.89365" lon="7.4724533"><ele>582.0</ele><time>2026-05-01T11:58:53.274Z</time></trkpt><trkpt lat="43.893505" lon="7.472445"><ele>582.0</ele><time>2026-05-01T11:58:54.274Z</time></trkpt><trkpt lat="43.8933633" lon="7.4724533"><ele>582.0</ele><time>2026-05-01T11:58:55.274Z</time></trkpt><trkpt lat="43.89322" lon="7.472465"><ele>580.6</ele><time>2026-05-01T11:58:56.274Z</time></trkpt><trkpt lat="43.8930867" lon="7.472505"><ele>579.2</ele><time>2026-05-01T11:58:57.274Z</time></trkpt><trkpt lat="43.89297" lon="7.4725533"><ele>577.8</ele><time>2026-05-01T11:58:58.274Z</time></trkpt><trkpt lat="43.8928817" lon="7.472625"><ele>576.4</ele><time>2026-05-01T11:58:59.274Z</time></trkpt><trkpt lat="43.8928183" lon="7.47271"><ele>575.0</ele><time>2026-05-01T11:59:00.274Z</time></trkpt><trkpt lat="43.89277" lon="7.4727717"><ele>575.0</ele><time>2026-05-01T11:59:01.275Z</time></trkpt><trkpt lat="43.8926717" lon="7.472765"><ele>575.0</ele><time>2026-05-01T11:59:03.274Z</time></trkpt><trkpt lat="43.89269" lon="7.472645"><ele>575.0</ele><time>2026-05-01T11:59:05.274Z</time></trkpt><trkpt lat="43.892865" lon="7.472485"><ele>575.0</ele><time>2026-05-01T11:59:07.274Z</time></trkpt><trkpt lat="43.8929867" lon="7.4723883"><ele>575.0</ele><time>2026-05-01T11:59:08.274Z</time></trkpt><trkpt lat="43.8931183" lon="7.472305"><ele>575.0</ele><time>2026-05-01T11:59:09.274Z</time></trkpt><trkpt lat="43.8932467" lon="7.4722533"><ele>575.0</ele><time>2026-05-01T11:59:10.274Z</time></trkpt><trkpt lat="43.8933683" lon="7.4722417"><ele>575.0</ele><time>2026-05-01T11:59:11.274Z</time></trkpt><trkpt lat="43.8934833" lon="7.4722683"><ele>576.4</ele><time>2026-05-01T11:59:12.274Z</time></trkpt><trkpt lat="43.8935783" lon="7.4723"><ele>577.8</ele><time>2026-05-01T11:59:13.274Z</time></trkpt><trkpt lat="43.8936533" lon="7.472335"><ele>579.2</ele><time>2026-05-01T11:59:14.275Z</time></trkpt><trkpt lat="43.8937467" lon="7.4723083"><ele>580.6</ele><time>2026-05-01T11:59:16.274Z</time></trkpt><trkpt lat="43.89373" lon="7.4721933"><ele>582.0</ele><time>2026-05-01T11:59:18.274Z</time></trkpt><trkpt lat="43.8936467" lon="7.4721317"><ele>573.3333333333334</ele><time>2026-05-01T11:59:19.274Z</time></trkpt><trkpt lat="43.893505" lon="7.4720783"><ele>564.6666666666667</ele><time>2026-05-01T11:59:20.274Z</time></trkpt><trkpt lat="43.8933433" lon="7.4720517"><ele>556.0</ele><time>2026-05-01T11:59:21.274Z</time></trkpt><trkpt lat="43.8931733" lon="7.4720667"><ele>562.3333333333334</ele><time>2026-05-01T11:59:22.274Z</time></trkpt><trkpt lat="43.8930017" lon="7.47211"><ele>568.6666666666666</ele><time>2026-05-01T11:59:23.274Z</time></trkpt><trkpt lat="43.892835" lon="7.4721617"><ele>575.0</ele><time>2026-05-01T11:59:24.274Z</time></trkpt><trkpt lat="43.8926833" lon="7.4722217"><ele>570.3333333333333</ele><time>2026-05-01T11:59:25.274Z</time></trkpt><trkpt lat="43.8925483" lon="7.4723"><ele>565.6666666666666</ele><time>2026-05-01T11:59:26.275Z</time></trkpt><trkpt lat="43.8923133" lon="7.4725117"><ele>561.0</ele><time>2026-05-01T11:59:28.274Z</time></trkpt><trkpt lat="43.8922033" lon="7.4726333"><ele>561.0</ele><time>2026-05-01T11:59:29.274Z</time></trkpt><trkpt lat="43.892095" lon="7.472745"><ele>561.0</ele><time>2026-05-01T11:59:30.274Z</time></trkpt><trkpt lat="43.8919717" lon="7.472845"><ele>561.0</ele><time>2026-05-01T11:59:31.275Z</time></trkpt><trkpt lat="43.89183" lon="7.4729217"><ele>561.0</ele><time>2026-05-01T11:59:32.274Z</time></trkpt><trkpt lat="43.891695" lon="7.4729817"><ele>560.5</ele><time>2026-05-01T11:59:33.274Z</time></trkpt><trkpt lat="43.8915633" lon="7.4730133"><ele>560.0</ele><time>2026-05-01T11:59:34.274Z</time></trkpt><trkpt lat="43.8914333" lon="7.473035"><ele>559.5</ele><time>2026-05-01T11:59:35.274Z</time></trkpt><trkpt lat="43.8913133" lon="7.4730733"><ele>559.0</ele><time>2026-05-01T11:59:36.274Z</time></trkpt><trkpt lat="43.89121" lon="7.473115"><ele>559.0</ele><time>2026-05-01T11:59:37.275Z</time></trkpt><trkpt lat="43.8911233" lon="7.4731817"><ele>559.0</ele><time>2026-05-01T11:59:38.274Z</time></trkpt><trkpt lat="43.891045" lon="7.47324"><ele>559.0</ele><time>2026-05-01T11:59:39.274Z</time></trkpt><trkpt lat="43.8909883" lon="7.4732967"><ele>559.0</ele><time>2026-05-01T11:59:40.275Z</time></trkpt><trkpt lat="43.8909" lon="7.4733533"><ele>559.0</ele><time>2026-05-01T11:59:42.275Z</time></trkpt><trkpt lat="43.8908733" lon="7.473265"><ele>559.0</ele><time>2026-05-01T11:59:44.274Z</time></trkpt><trkpt lat="43.8909333" lon="7.4731983"><ele>559.0</ele><time>2026-05-01T11:59:45.274Z</time></trkpt><trkpt lat="43.8910133" lon="7.473135"><ele>559.0</ele><time>2026-05-01T11:59:46.274Z</time></trkpt><trkpt lat="43.8911033" lon="7.4730633"><ele>559.0</ele><time>2026-05-01T11:59:47.274Z</time></trkpt><trkpt lat="43.89131" lon="7.4728967"><ele>559.0</ele><time>2026-05-01T11:59:49.274Z</time></trkpt><trkpt lat="43.8914367" lon="7.4728483"><ele>559.5</ele><time>2026-05-01T11:59:50.274Z</time></trkpt><trkpt lat="43.8915617" lon="7.4727967"><ele>560.0</ele><time>2026-05-01T11:59:51.274Z</time></trkpt><trkpt lat="43.8916783" lon="7.4726933"><ele>560.5</ele><time>2026-05-01T11:59:52.275Z</time></trkpt><trkpt lat="43.8917683" lon="7.4725417"><ele>561.0</ele><time>2026-05-01T11:59:53.274Z</time></trkpt><trkpt lat="43.8918567" lon="7.4723933"><ele>561.0</ele><time>2026-05-01T11:59:54.274Z</time></trkpt><trkpt lat="43.8919633" lon="7.4722533"><ele>561.0</ele><time>2026-05-01T11:59:55.275Z</time></trkpt><trkpt lat="43.89208" lon="7.472135"><ele>561.0</ele><time>2026-05-01T11:59:56.274Z</time></trkpt><trkpt lat="43.8921967" lon="7.4720183"><ele>561.0</ele><time>2026-05-01T11:59:57.274Z</time></trkpt><trkpt lat="43.8923167" lon="7.47191"><ele>557.75</ele><time>2026-05-01T11:59:58.274Z</time></trkpt><trkpt lat="43.8924417" lon="7.4718333"><ele>554.5</ele><time>2026-05-01T11:59:59.274Z</time></trkpt><trkpt lat="43.8925633" lon="7.4717683"><ele>551.25</ele><time>2026-05-01T12:00:00.274Z</time></trkpt><trkpt lat="43.8926783" lon="7.4717017"><ele>548.0</ele><time>2026-05-01T12:00:01.274Z</time></trkpt><trkpt lat="43.892775" lon="7.471595"><ele>548.0</ele><time>2026-05-01T12:00:02.274Z</time></trkpt><trkpt lat="43.8928617" lon="7.471475"><ele>548.0</ele><time>2026-05-01T12:00:03.275Z</time></trkpt><trkpt lat="43.8929367" lon="7.4713683"><ele>548.0</ele><time>2026-05-01T12:00:04.275Z</time></trkpt><trkpt lat="43.8930167" lon="7.47128"><ele>548.0</ele><time>2026-05-01T12:00:05.275Z</time></trkpt><trkpt lat="43.89311" lon="7.4712233"><ele>548.0</ele><time>2026-05-01T12:00:06.274Z</time></trkpt><trkpt lat="43.893195" lon="7.471205"><ele>542.8</ele><time>2026-05-01T12:00:07.274Z</time></trkpt><trkpt lat="43.8932667" lon="7.4711933"><ele>537.5999999999999</ele><time>2026-05-01T12:00:08.274Z</time></trkpt><trkpt lat="43.8933283" lon="7.47103"><ele>532.4000000000001</ele><time>2026-05-01T12:00:11.274Z</time></trkpt><trkpt lat="43.8932133" lon="7.4710117"><ele>527.2</ele><time>2026-05-01T12:00:13.274Z</time></trkpt><trkpt lat="43.8930967" lon="7.4710483"><ele>522.0</ele><time>2026-05-01T12:00:14.274Z</time></trkpt><trkpt lat="43.8929683" lon="7.4711333"><ele>522.0</ele><time>2026-05-01T12:00:15.274Z</time></trkpt><trkpt lat="43.8928467" lon="7.47125"><ele>522.0</ele><time>2026-05-01T12:00:16.275Z</time></trkpt><trkpt lat="43.892725" lon="7.4713667"><ele>522.0</ele><time>2026-05-01T12:00:17.274Z</time></trkpt><trkpt lat="43.892625" lon="7.4714683"><ele>522.0</ele><time>2026-05-01T12:00:18.274Z</time></trkpt><trkpt lat="43.892515" lon="7.4715233"><ele>525.0</ele><time>2026-05-01T12:00:19.274Z</time></trkpt><trkpt lat="43.8923967" lon="7.471545"><ele>528.0</ele><time>2026-05-01T12:00:20.274Z</time></trkpt><trkpt lat="43.8922733" lon="7.4715567"><ele>531.0</ele><time>2026-05-01T12:00:21.274Z</time></trkpt><trkpt lat="43.8921567" lon="7.4715817"><ele>534.0</ele><time>2026-05-01T12:00:22.274Z</time></trkpt><trkpt lat="43.8920467" lon="7.4716333"><ele>534.0</ele><time>2026-05-01T12:00:23.274Z</time></trkpt><trkpt lat="43.8919367" lon="7.471685"><ele>534.0</ele><time>2026-05-01T12:00:24.275Z</time></trkpt><trkpt lat="43.8918283" lon="7.4717133"><ele>534.0</ele><time>2026-05-01T12:00:25.274Z</time></trkpt><trkpt lat="43.8917217" lon="7.4717117"><ele>534.0</ele><time>2026-05-01T12:00:26.274Z</time></trkpt><trkpt lat="43.891615" lon="7.47171"><ele>534.0</ele><time>2026-05-01T12:00:27.275Z</time></trkpt><trkpt lat="43.8915117" lon="7.471745"><ele>534.75</ele><time>2026-05-01T12:00:28.274Z</time></trkpt><trkpt lat="43.89144" lon="7.4718183"><ele>535.5</ele><time>2026-05-01T12:00:29.274Z</time></trkpt><trkpt lat="43.8913617" lon="7.4720817"><ele>536.25</ele><time>2026-05-01T12:00:31.274Z</time></trkpt><trkpt lat="43.8912883" lon="7.4721967"><ele>537.0</ele><time>2026-05-01T12:00:32.274Z</time></trkpt><trkpt lat="43.8911717" lon="7.4722683"><ele>537.0</ele><time>2026-05-01T12:00:33.274Z</time></trkpt><trkpt lat="43.8910317" lon="7.4722867"><ele>537.0</ele><time>2026-05-01T12:00:34.274Z</time></trkpt><trkpt lat="43.8908933" lon="7.4723183"><ele>537.0</ele><time>2026-05-01T12:00:35.274Z</time></trkpt><trkpt lat="43.89076" lon="7.4723783"><ele>537.0</ele><time>2026-05-01T12:00:36.274Z</time></trkpt><trkpt lat="43.8906367" lon="7.4724367"><ele>532.5</ele><time>2026-05-01T12:00:37.274Z</time></trkpt><trkpt lat="43.8905183" lon="7.4724683"><ele>528.0</ele><time>2026-05-01T12:00:38.274Z</time></trkpt><trkpt lat="43.8903967" lon="7.4724983"><ele>523.5</ele><time>2026-05-01T12:00:39.274Z</time></trkpt><trkpt lat="43.89028" lon="7.4725483"><ele>519.0</ele><time>2026-05-01T12:00:40.274Z</time></trkpt><trkpt lat="43.89017" lon="7.47262"><ele>519.0</ele><time>2026-05-01T12:00:41.274Z</time></trkpt><trkpt lat="43.89007" lon="7.4727033"><ele>519.0</ele><time>2026-05-01T12:00:42.274Z</time></trkpt><trkpt lat="43.88997" lon="7.4727933"><ele>519.0</ele><time>2026-05-01T12:00:43.274Z</time></trkpt><trkpt lat="43.8898767" lon="7.4728883"><ele>519.0</ele><time>2026-05-01T12:00:44.274Z</time></trkpt><trkpt lat="43.8897983" lon="7.4729833"><ele>519.0</ele><time>2026-05-01T12:00:45.274Z</time></trkpt><trkpt lat="43.88973" lon="7.4730917"><ele>519.0</ele><time>2026-05-01T12:00:46.274Z</time></trkpt><trkpt lat="43.8896583" lon="7.4731933"><ele>519.0</ele><time>2026-05-01T12:00:47.274Z</time></trkpt><trkpt lat="43.8895917" lon="7.4733"><ele>519.0</ele><time>2026-05-01T12:00:48.274Z</time></trkpt><trkpt lat="43.889525" lon="7.4734117"><ele>519.0</ele><time>2026-05-01T12:00:49.274Z</time></trkpt><trkpt lat="43.889465" lon="7.4735283"><ele>519.0</ele><time>2026-05-01T12:00:50.274Z</time></trkpt><trkpt lat="43.8893117" lon="7.4737683"><ele>519.0</ele><time>2026-05-01T12:00:52.274Z</time></trkpt><trkpt lat="43.889215" lon="7.4738567"><ele>519.0</ele><time>2026-05-01T12:00:53.274Z</time></trkpt><trkpt lat="43.8890933" lon="7.473935"><ele>515.25</ele><time>2026-05-01T12:00:54.274Z</time></trkpt><trkpt lat="43.8889783" lon="7.4740167"><ele>511.5</ele><time>2026-05-01T12:00:55.274Z</time></trkpt><trkpt lat="43.8888733" lon="7.4741033"><ele>507.75</ele><time>2026-05-01T12:00:56.274Z</time></trkpt><trkpt lat="43.8887717" lon="7.474205"><ele>504.0</ele><time>2026-05-01T12:00:57.274Z</time></trkpt><trkpt lat="43.88869" lon="7.474315"><ele>504.0</ele><time>2026-05-01T12:00:58.274Z</time></trkpt><trkpt lat="43.8886017" lon="7.4744433"><ele>504.0</ele><time>2026-05-01T12:00:59.274Z</time></trkpt><trkpt lat="43.8885067" lon="7.4745867"><ele>504.0</ele><time>2026-05-01T12:01:00.274Z</time></trkpt><trkpt lat="43.8884067" lon="7.4747317"><ele>504.0</ele><time>2026-05-01T12:01:01.274Z</time></trkpt><trkpt lat="43.8883067" lon="7.47488"><ele>501.75</ele><time>2026-05-01T12:01:02.274Z</time></trkpt><trkpt lat="43.8882167" lon="7.475025"><ele>499.5</ele><time>2026-05-01T12:01:03.274Z</time></trkpt><trkpt lat="43.88814" lon="7.4751667"><ele>497.25</ele><time>2026-05-01T12:01:04.274Z</time></trkpt><trkpt lat="43.8880617" lon="7.4753017"><ele>495.0</ele><time>2026-05-01T12:01:05.274Z</time></trkpt><trkpt lat="43.8879983" lon="7.475435"><ele>496.6</ele><time>2026-05-01T12:01:06.274Z</time></trkpt><trkpt lat="43.8879617" lon="7.4755733"><ele>498.2</ele><time>2026-05-01T12:01:07.274Z</time></trkpt><trkpt lat="43.8879417" lon="7.4757133"><ele>499.79999999999995</ele><time>2026-05-01T12:01:08.274Z</time></trkpt><trkpt lat="43.8879567" lon="7.475855"><ele>501.4</ele><time>2026-05-01T12:01:09.274Z</time></trkpt><trkpt lat="43.88799" lon="7.47599"><ele>503.0</ele><time>2026-05-01T12:01:10.274Z</time></trkpt><trkpt lat="43.8880283" lon="7.476105"><ele>503.0</ele><time>2026-05-01T12:01:11.274Z</time></trkpt><trkpt lat="43.88812" lon="7.476285"><ele>502.99999999999994</ele><time>2026-05-01T12:01:13.275Z</time></trkpt><trkpt lat="43.888145" lon="7.4764167"><ele>502.99999999999994</ele><time>2026-05-01T12:01:15.274Z</time></trkpt><trkpt lat="43.888065" lon="7.4764283"><ele>503.0</ele><time>2026-05-01T12:01:17.274Z</time></trkpt><trkpt lat="43.88801" lon="7.4763767"><ele>503.0</ele><time>2026-05-01T12:01:18.274Z</time></trkpt><trkpt lat="43.88796" lon="7.476265"><ele>503.0</ele><time>2026-05-01T12:01:19.274Z</time></trkpt><trkpt lat="43.8879133" lon="7.4761167"><ele>503.0</ele><time>2026-05-01T12:01:20.274Z</time></trkpt><trkpt lat="43.887865" lon="7.4759483"><ele>503.0</ele><time>2026-05-01T12:01:21.274Z</time></trkpt><trkpt lat="43.8878167" lon="7.4758117"><ele>503.0</ele><time>2026-05-01T12:01:22.275Z</time></trkpt><trkpt lat="43.8877783" lon="7.4756733"><ele>502.99999999999994</ele><time>2026-05-01T12:01:23.274Z</time></trkpt><trkpt lat="43.8877633" lon="7.47554"><ele>503.0</ele><time>2026-05-01T12:01:24.274Z</time></trkpt><trkpt lat="43.8877667" lon="7.4754217"><ele>503.0</ele><time>2026-05-01T12:01:25.274Z</time></trkpt><trkpt lat="43.8878067" lon="7.475315"><ele>503.0</ele><time>2026-05-01T12:01:26.274Z</time></trkpt><trkpt lat="43.8878633" lon="7.47523"><ele>502.99999999999994</ele><time>2026-05-01T12:01:27.274Z</time></trkpt><trkpt lat="43.8878767" lon="7.47513"><ele>503.0</ele><time>2026-05-01T12:01:29.274Z</time></trkpt><trkpt lat="43.8878" lon="7.4751483"><ele>503.0</ele><time>2026-05-01T12:01:31.274Z</time></trkpt><trkpt lat="43.8877533" lon="7.47522"><ele>503.0</ele><time>2026-05-01T12:01:32.274Z</time></trkpt><trkpt lat="43.8876517" lon="7.4755367"><ele>503.0</ele><time>2026-05-01T12:01:34.274Z</time></trkpt><trkpt lat="43.8876417" lon="7.4757417"><ele>503.0</ele><time>2026-05-01T12:01:35.274Z</time></trkpt><trkpt lat="43.8876717" lon="7.475935"><ele>503.0</ele><time>2026-05-01T12:01:36.274Z</time></trkpt><trkpt lat="43.88771" lon="7.4761033"><ele>503.0</ele><time>2026-05-01T12:01:37.274Z</time></trkpt><trkpt lat="43.8877533" lon="7.4762467"><ele>503.0</ele><time>2026-05-01T12:01:38.274Z</time></trkpt><trkpt lat="43.8877967" lon="7.4763783"><ele>499.66666666666663</ele><time>2026-05-01T12:01:39.274Z</time></trkpt><trkpt lat="43.8878567" lon="7.4764883"><ele>496.3333333333333</ele><time>2026-05-01T12:01:40.274Z</time></trkpt><trkpt lat="43.8879117" lon="7.4765767"><ele>493.0</ele><time>2026-05-01T12:01:41.274Z</time></trkpt><trkpt lat="43.887965" lon="7.4766483"><ele>489.66666666666663</ele><time>2026-05-01T12:01:42.274Z</time></trkpt><trkpt lat="43.88803" lon="7.4767567"><ele>486.3333333333333</ele><time>2026-05-01T12:01:44.274Z</time></trkpt><trkpt lat="43.8879767" lon="7.4768033"><ele>483.0</ele><time>2026-05-01T12:01:47.274Z</time></trkpt><trkpt lat="43.8878783" lon="7.47668"><ele>483.0</ele><time>2026-05-01T12:01:49.274Z</time></trkpt><trkpt lat="43.8878183" lon="7.47659"><ele>482.99999999999994</ele><time>2026-05-01T12:01:50.274Z</time></trkpt><trkpt lat="43.88775" lon="7.47649"><ele>482.99999999999994</ele><time>2026-05-01T12:01:51.274Z</time></trkpt><trkpt lat="43.8876783" lon="7.476365"><ele>483.0</ele><time>2026-05-01T12:01:52.275Z</time></trkpt><trkpt lat="43.887605" lon="7.47624"><ele>483.0</ele><time>2026-05-01T12:01:53.274Z</time></trkpt><trkpt lat="43.8874867" lon="7.475935"><ele>478.75</ele><time>2026-05-01T12:01:55.274Z</time></trkpt><trkpt lat="43.8874317" lon="7.4757817"><ele>474.5</ele><time>2026-05-01T12:01:56.274Z</time></trkpt><trkpt lat="43.8873833" lon="7.4756317"><ele>470.25</ele><time>2026-05-01T12:01:57.274Z</time></trkpt><trkpt lat="43.88734" lon="7.4754817"><ele>466.0</ele><time>2026-05-01T12:01:58.274Z</time></trkpt><trkpt lat="43.8873317" lon="7.47534"><ele>464.75</ele><time>2026-05-01T12:01:59.274Z</time></trkpt><trkpt lat="43.887365" lon="7.4752083"><ele>463.5</ele><time>2026-05-01T12:02:00.274Z</time></trkpt><trkpt lat="43.8874333" lon="7.4750917"><ele>462.25</ele><time>2026-05-01T12:02:01.274Z</time></trkpt><trkpt lat="43.8875167" lon="7.4749783"><ele>461.0</ele><time>2026-05-01T12:02:02.274Z</time></trkpt><trkpt lat="43.8876017" lon="7.4748433"><ele>464.20000000000005</ele><time>2026-05-01T12:02:03.274Z</time></trkpt><trkpt lat="43.8876683" lon="7.4746967"><ele>467.40000000000003</ele><time>2026-05-01T12:02:04.274Z</time></trkpt><trkpt lat="43.8877433" lon="7.474565"><ele>470.6</ele><time>2026-05-01T12:02:05.274Z</time></trkpt><trkpt lat="43.88782" lon="7.474455"><ele>473.8</ele><time>2026-05-01T12:02:06.274Z</time></trkpt><trkpt lat="43.8878833" lon="7.474365"><ele>477.0</ele><time>2026-05-01T12:02:07.274Z</time></trkpt><trkpt lat="43.887925" lon="7.4742683"><ele>477.0</ele><time>2026-05-01T12:02:08.274Z</time></trkpt><trkpt lat="43.88794" lon="7.4741817"><ele>477.00000000000006</ele><time>2026-05-01T12:02:09.274Z</time></trkpt><trkpt lat="43.887875" lon="7.4740783"><ele>477.00000000000006</ele><time>2026-05-01T12:02:11.274Z</time></trkpt><trkpt lat="43.8877567" lon="7.47417"><ele>477.0</ele><time>2026-05-01T12:02:13.274Z</time></trkpt><trkpt lat="43.8876983" lon="7.4743217"><ele>477.0</ele><time>2026-05-01T12:02:14.274Z</time></trkpt><trkpt lat="43.8875333" lon="7.474635"><ele>473.0</ele><time>2026-05-01T12:02:16.274Z</time></trkpt><trkpt lat="43.887435" lon="7.47476"><ele>469.0</ele><time>2026-05-01T12:02:17.274Z</time></trkpt><trkpt lat="43.8873367" lon="7.47487"><ele>465.0</ele><time>2026-05-01T12:02:18.274Z</time></trkpt><trkpt lat="43.8872417" lon="7.4749633"><ele>461.0</ele><time>2026-05-01T12:02:19.274Z</time></trkpt><trkpt lat="43.8871483" lon="7.47506"><ele>461.0</ele><time>2026-05-01T12:02:20.274Z</time></trkpt><trkpt lat="43.88707" lon="7.4751617"><ele>461.0</ele><time>2026-05-01T12:02:21.274Z</time></trkpt><trkpt lat="43.8870167" lon="7.4752683"><ele>461.0</ele><time>2026-05-01T12:02:22.274Z</time></trkpt><trkpt lat="43.8869833" lon="7.4753817"><ele>461.0</ele><time>2026-05-01T12:02:23.274Z</time></trkpt><trkpt lat="43.8869733" lon="7.4755283"><ele>461.0</ele><time>2026-05-01T12:02:24.274Z</time></trkpt><trkpt lat="43.8869833" lon="7.4756817"><ele>461.8333333333333</ele><time>2026-05-01T12:02:25.274Z</time></trkpt><trkpt lat="43.8869933" lon="7.4758067"><ele>462.66666666666663</ele><time>2026-05-01T12:02:26.274Z</time></trkpt><trkpt lat="43.88701" lon="7.47593"><ele>463.5</ele><time>2026-05-01T12:02:27.275Z</time></trkpt><trkpt lat="43.887035" lon="7.4760433"><ele>464.33333333333337</ele><time>2026-05-01T12:02:28.274Z</time></trkpt><trkpt lat="43.8870667" lon="7.4761283"><ele>465.1666666666667</ele><time>2026-05-01T12:02:29.274Z</time></trkpt><trkpt lat="43.887085" lon="7.4762633"><ele>466.0</ele><time>2026-05-01T12:02:31.274Z</time></trkpt><trkpt lat="43.8870117" lon="7.47628"><ele>466.0</ele><time>2026-05-01T12:02:33.274Z</time></trkpt><trkpt lat="43.8869417" lon="7.476145"><ele>466.0</ele><time>2026-05-01T12:02:35.274Z</time></trkpt><trkpt lat="43.8868833" lon="7.4758617"><ele>466.0</ele><time>2026-05-01T12:02:37.274Z</time></trkpt><trkpt lat="43.8868317" lon="7.4756833"><ele>466.0</ele><time>2026-05-01T12:02:38.274Z</time></trkpt><trkpt lat="43.8867717" lon="7.4755133"><ele>466.0</ele><time>2026-05-01T12:02:39.274Z</time></trkpt><trkpt lat="43.8867317" lon="7.4753433"><ele>466.0</ele><time>2026-05-01T12:02:40.274Z</time></trkpt><trkpt lat="43.8867317" lon="7.4751667"><ele>466.0</ele><time>2026-05-01T12:02:41.274Z</time></trkpt><trkpt lat="43.8867633" lon="7.475005"><ele>464.75</ele><time>2026-05-01T12:02:42.274Z</time></trkpt><trkpt lat="43.8868283" lon="7.474845"><ele>463.5</ele><time>2026-05-01T12:02:43.274Z</time></trkpt><trkpt lat="43.8869233" lon="7.474715"><ele>462.25</ele><time>2026-05-01T12:02:44.274Z</time></trkpt><trkpt lat="43.887035" lon="7.4745733"><ele>461.0</ele><time>2026-05-01T12:02:45.274Z</time></trkpt><trkpt lat="43.88714" lon="7.4744367"><ele>457.25</ele><time>2026-05-01T12:02:46.274Z</time></trkpt><trkpt lat="43.8872283" lon="7.47428"><ele>453.5</ele><time>2026-05-01T12:02:47.274Z</time></trkpt><trkpt lat="43.8873033" lon="7.47412"><ele>449.75</ele><time>2026-05-01T12:02:48.274Z</time></trkpt><trkpt lat="43.8873533" lon="7.473955"><ele>446.0</ele><time>2026-05-01T12:02:49.274Z</time></trkpt><trkpt lat="43.88738" lon="7.4737817"><ele>442.25</ele><time>2026-05-01T12:02:50.274Z</time></trkpt><trkpt lat="43.887385" lon="7.4736067"><ele>438.5</ele><time>2026-05-01T12:02:51.274Z</time></trkpt><trkpt lat="43.887395" lon="7.4734383"><ele>434.75</ele><time>2026-05-01T12:02:52.274Z</time></trkpt><trkpt lat="43.8874267" lon="7.4732767"><ele>431.0</ele><time>2026-05-01T12:02:53.274Z</time></trkpt><trkpt lat="43.8874767" lon="7.4731133"><ele>431.0</ele><time>2026-05-01T12:02:54.274Z</time></trkpt><trkpt lat="43.8875317" lon="7.47296"><ele>431.0</ele><time>2026-05-01T12:02:55.275Z</time></trkpt><trkpt lat="43.88759" lon="7.4727933"><ele>431.0</ele><time>2026-05-01T12:02:56.274Z</time></trkpt><trkpt lat="43.887715" lon="7.47243"><ele>429.25</ele><time>2026-05-01T12:02:58.275Z</time></trkpt><trkpt lat="43.88779" lon="7.4722567"><ele>427.5</ele><time>2026-05-01T12:02:59.274Z</time></trkpt><trkpt lat="43.8878683" lon="7.472085"><ele>425.75</ele><time>2026-05-01T12:03:00.274Z</time></trkpt><trkpt lat="43.8879467" lon="7.471925"><ele>424.0</ele><time>2026-05-01T12:03:01.274Z</time></trkpt><trkpt lat="43.8880333" lon="7.4717517"><ele>424.0</ele><time>2026-05-01T12:03:02.274Z</time></trkpt><trkpt lat="43.8881133" lon="7.471575"><ele>424.0</ele><time>2026-05-01T12:03:03.274Z</time></trkpt><trkpt lat="43.8882017" lon="7.4713883"><ele>424.0</ele><time>2026-05-01T12:03:04.274Z</time></trkpt><trkpt lat="43.8883033" lon="7.4712017"><ele>424.6666666666667</ele><time>2026-05-01T12:03:05.274Z</time></trkpt><trkpt lat="43.8884033" lon="7.4710217"><ele>425.33333333333337</ele><time>2026-05-01T12:03:06.274Z</time></trkpt><trkpt lat="43.888495" lon="7.4708483"><ele>426.0</ele><time>2026-05-01T12:03:07.274Z</time></trkpt><trkpt lat="43.88857" lon="7.4706567"><ele>426.0</ele><time>2026-05-01T12:03:08.274Z</time></trkpt><trkpt lat="43.8886333" lon="7.4704517"><ele>426.0</ele><time>2026-05-01T12:03:09.274Z</time></trkpt><trkpt lat="43.8886933" lon="7.4702383"><ele>426.0</ele><time>2026-05-01T12:03:10.275Z</time></trkpt><trkpt lat="43.88876" lon="7.470035"><ele>422.33333333333337</ele><time>2026-05-01T12:03:11.274Z</time></trkpt><trkpt lat="43.8888433" lon="7.4698533"><ele>418.6666666666667</ele><time>2026-05-01T12:03:12.274Z</time></trkpt><trkpt lat="43.8889383" lon="7.46969"><ele>415.0</ele><time>2026-05-01T12:03:13.274Z</time></trkpt><trkpt lat="43.889045" lon="7.4695267"><ele>415.0</ele><time>2026-05-01T12:03:14.274Z</time></trkpt><trkpt lat="43.889145" lon="7.46937"><ele>415.0</ele><time>2026-05-01T12:03:15.274Z</time></trkpt><trkpt lat="43.8892233" lon="7.4691983"><ele>415.0</ele><time>2026-05-01T12:03:16.275Z</time></trkpt><trkpt lat="43.8892767" lon="7.4690083"><ele>415.0</ele><time>2026-05-01T12:03:17.274Z</time></trkpt><trkpt lat="43.8893133" lon="7.4685917"><ele>415.0</ele><time>2026-05-01T12:03:19.275Z</time></trkpt><trkpt lat="43.889335" lon="7.4683817"><ele>415.0</ele><time>2026-05-01T12:03:20.274Z</time></trkpt><trkpt lat="43.8893583" lon="7.468165"><ele>415.0</ele><time>2026-05-01T12:03:21.274Z</time></trkpt><trkpt lat="43.88937" lon="7.467945"><ele>412.0</ele><time>2026-05-01T12:03:22.275Z</time></trkpt><trkpt lat="43.8893833" lon="7.4677367"><ele>409.0</ele><time>2026-05-01T12:03:23.274Z</time></trkpt><trkpt lat="43.889385" lon="7.467535"><ele>406.0</ele><time>2026-05-01T12:03:24.274Z</time></trkpt><trkpt lat="43.8893533" lon="7.4673667"><ele>403.0</ele><time>2026-05-01T12:03:25.274Z</time></trkpt><trkpt lat="43.8892783" lon="7.467235"><ele>401.5</ele><time>2026-05-01T12:03:26.274Z</time></trkpt><trkpt lat="43.88917" lon="7.46715"><ele>400.0</ele><time>2026-05-01T12:03:27.274Z</time></trkpt><trkpt lat="43.8890433" lon="7.4671233"><ele>398.5</ele><time>2026-05-01T12:03:28.274Z</time></trkpt><trkpt lat="43.8889133" lon="7.4671533"><ele>397.0</ele><time>2026-05-01T12:03:29.274Z</time></trkpt><trkpt lat="43.888785" lon="7.46722"><ele>397.0</ele><time>2026-05-01T12:03:30.274Z</time></trkpt><trkpt lat="43.8886683" lon="7.4672833"><ele>397.0</ele><time>2026-05-01T12:03:31.274Z</time></trkpt><trkpt lat="43.8885767" lon="7.46737"><ele>397.0</ele><time>2026-05-01T12:03:32.274Z</time></trkpt><trkpt lat="43.888515" lon="7.4674983"><ele>397.0</ele><time>2026-05-01T12:03:33.274Z</time></trkpt><trkpt lat="43.888475" lon="7.4676417"><ele>397.0</ele><time>2026-05-01T12:03:34.274Z</time></trkpt><trkpt lat="43.8884367" lon="7.4677767"><ele>397.0</ele><time>2026-05-01T12:03:35.274Z</time></trkpt><trkpt lat="43.8883983" lon="7.4678883"><ele>397.0</ele><time>2026-05-01T12:03:36.274Z</time></trkpt><trkpt lat="43.8883333" lon="7.467965"><ele>397.0</ele><time>2026-05-01T12:03:37.275Z</time></trkpt><trkpt lat="43.888245" lon="7.468015"><ele>397.0</ele><time>2026-05-01T12:03:38.274Z</time></trkpt><trkpt lat="43.8880367" lon="7.468105"><ele>397.40000000000003</ele><time>2026-05-01T12:03:40.274Z</time></trkpt><trkpt lat="43.8879333" lon="7.4681517"><ele>397.8</ele><time>2026-05-01T12:03:41.274Z</time></trkpt><trkpt lat="43.8878283" lon="7.4681967"><ele>398.2</ele><time>2026-05-01T12:03:42.274Z</time></trkpt><trkpt lat="43.8877133" lon="7.4682383"><ele>398.6</ele><time>2026-05-01T12:03:43.275Z</time></trkpt><trkpt lat="43.8876067" lon="7.46828"><ele>399.0</ele><time>2026-05-01T12:03:44.274Z</time></trkpt><trkpt lat="43.8875133" lon="7.4683467"><ele>399.0</ele><time>2026-05-01T12:03:45.274Z</time></trkpt><trkpt lat="43.8874283" lon="7.46844"><ele>399.0</ele><time>2026-05-01T12:03:46.274Z</time></trkpt><trkpt lat="43.887355" lon="7.4685583"><ele>399.0</ele><time>2026-05-01T12:03:47.274Z</time></trkpt><trkpt lat="43.887295" lon="7.4686967"><ele>399.0</ele><time>2026-05-01T12:03:48.274Z</time></trkpt><trkpt lat="43.8872433" lon="7.4688317"><ele>399.0</ele><time>2026-05-01T12:03:49.274Z</time></trkpt><trkpt lat="43.88718" lon="7.468955"><ele>397.6</ele><time>2026-05-01T12:03:50.274Z</time></trkpt><trkpt lat="43.8871033" lon="7.46905"><ele>396.2</ele><time>2026-05-01T12:03:51.274Z</time></trkpt><trkpt lat="43.8870067" lon="7.4691167"><ele>394.8</ele><time>2026-05-01T12:03:52.275Z</time></trkpt><trkpt lat="43.8869017" lon="7.469155"><ele>393.40000000000003</ele><time>2026-05-01T12:03:53.275Z</time></trkpt><trkpt lat="43.8867833" lon="7.4691983"><ele>392.0</ele><time>2026-05-01T12:03:54.274Z</time></trkpt><trkpt lat="43.8866717" lon="7.4692433"><ele>392.0</ele><time>2026-05-01T12:03:55.274Z</time></trkpt><trkpt lat="43.88657" lon="7.4693"><ele>392.0</ele><time>2026-05-01T12:03:56.274Z</time></trkpt><trkpt lat="43.88647" lon="7.46938"><ele>392.0</ele><time>2026-05-01T12:03:57.274Z</time></trkpt><trkpt lat="43.88638" lon="7.4694933"><ele>392.0</ele><time>2026-05-01T12:03:58.274Z</time></trkpt><trkpt lat="43.8862983" lon="7.4696083"><ele>388.66666666666663</ele><time>2026-05-01T12:03:59.274Z</time></trkpt><trkpt lat="43.8861167" lon="7.46983"><ele>385.3333333333333</ele><time>2026-05-01T12:04:01.274Z</time></trkpt><trkpt lat="43.8859983" lon="7.4699067"><ele>382.0</ele><time>2026-05-01T12:04:02.274Z</time></trkpt><trkpt lat="43.885875" lon="7.4699667"><ele>382.0</ele><time>2026-05-01T12:04:03.274Z</time></trkpt><trkpt lat="43.8857417" lon="7.4700183"><ele>382.0</ele><time>2026-05-01T12:04:04.274Z</time></trkpt><trkpt lat="43.8856167" lon="7.4700683"><ele>382.0</ele><time>2026-05-01T12:04:05.274Z</time></trkpt><trkpt lat="43.8854983" lon="7.4701133"><ele>382.0</ele><time>2026-05-01T12:04:06.274Z</time></trkpt><trkpt lat="43.88538" lon="7.4701417"><ele>382.0</ele><time>2026-05-01T12:04:07.274Z</time></trkpt><trkpt lat="43.88525" lon="7.470175"><ele>382.0</ele><time>2026-05-01T12:04:08.274Z</time></trkpt><trkpt lat="43.8851283" lon="7.4702167"><ele>382.0</ele><time>2026-05-01T12:04:09.274Z</time></trkpt><trkpt lat="43.8850117" lon="7.470255"><ele>382.0</ele><time>2026-05-01T12:04:10.274Z</time></trkpt><trkpt lat="43.884895" lon="7.4702867"><ele>381.8</ele><time>2026-05-01T12:04:11.274Z</time></trkpt><trkpt lat="43.884795" lon="7.4702917"><ele>381.6</ele><time>2026-05-01T12:04:12.274Z</time></trkpt><trkpt lat="43.8847167" lon="7.4702633"><ele>381.40000000000003</ele><time>2026-05-01T12:04:13.274Z</time></trkpt><trkpt lat="43.884645" lon="7.4702"><ele>381.20000000000005</ele><time>2026-05-01T12:04:14.274Z</time></trkpt><trkpt lat="43.88457" lon="7.4701033"><ele>381.0</ele><time>2026-05-01T12:04:15.275Z</time></trkpt><trkpt lat="43.8844983" lon="7.4699933"><ele>381.0</ele><time>2026-05-01T12:04:16.275Z</time></trkpt><trkpt lat="43.884425" lon="7.4698733"><ele>381.0</ele><time>2026-05-01T12:04:17.274Z</time></trkpt><trkpt lat="43.88436" lon="7.4697383"><ele>381.0</ele><time>2026-05-01T12:04:18.274Z</time></trkpt><trkpt lat="43.8843017" lon="7.4695883"><ele>381.0</ele><time>2026-05-01T12:04:19.274Z</time></trkpt><trkpt lat="43.8842583" lon="7.4694333"><ele>379.0</ele><time>2026-05-01T12:04:20.275Z</time></trkpt><trkpt lat="43.8841767" lon="7.4690967"><ele>377.0</ele><time>2026-05-01T12:04:22.274Z</time></trkpt><trkpt lat="43.8841283" lon="7.468935"><ele>375.0</ele><time>2026-05-01T12:04:23.274Z</time></trkpt><trkpt lat="43.8840717" lon="7.4687767"><ele>377.0</ele><time>2026-05-01T12:04:24.274Z</time></trkpt><trkpt lat="43.8839917" lon="7.46864"><ele>379.0</ele><time>2026-05-01T12:04:25.274Z</time></trkpt><trkpt lat="43.8839083" lon="7.4685267"><ele>381.0</ele><time>2026-05-01T12:04:26.275Z</time></trkpt><trkpt lat="43.883825" lon="7.4684183"><ele>383.0</ele><time>2026-05-01T12:04:27.274Z</time></trkpt><trkpt lat="43.8837383" lon="7.4683233"><ele>383.0</ele><time>2026-05-01T12:04:28.275Z</time></trkpt><trkpt lat="43.88363" lon="7.4682433"><ele>383.0</ele><time>2026-05-01T12:04:29.274Z</time></trkpt><trkpt lat="43.88352" lon="7.4681817"><ele>383.0</ele><time>2026-05-01T12:04:30.274Z</time></trkpt><trkpt lat="43.8834133" lon="7.4681283"><ele>383.0</ele><time>2026-05-01T12:04:31.274Z</time></trkpt><trkpt lat="43.8833083" lon="7.4680483"><ele>381.0</ele><time>2026-05-01T12:04:32.275Z</time></trkpt><trkpt lat="43.8832083" lon="7.4679433"><ele>379.0</ele><time>2026-05-01T12:04:33.275Z</time></trkpt><trkpt lat="43.883125" lon="7.4678067"><ele>377.0</ele><time>2026-05-01T12:04:34.275Z</time></trkpt><trkpt lat="43.8830467" lon="7.4676483"><ele>375.0</ele><time>2026-05-01T12:04:35.274Z</time></trkpt><trkpt lat="43.8829517" lon="7.467475"><ele>375.0</ele><time>2026-05-01T12:04:36.274Z</time></trkpt><trkpt lat="43.8828483" lon="7.46731"><ele>375.0</ele><time>2026-05-01T12:04:37.274Z</time></trkpt><trkpt lat="43.8827433" lon="7.46716"><ele>375.0</ele><time>2026-05-01T12:04:38.274Z</time></trkpt><trkpt lat="43.882635" lon="7.4670233"><ele>372.6666666666667</ele><time>2026-05-01T12:04:39.274Z</time></trkpt><trkpt lat="43.8825367" lon="7.4668683"><ele>370.33333333333337</ele><time>2026-05-01T12:04:40.274Z</time></trkpt><trkpt lat="43.8824467" lon="7.46671"><ele>368.0</ele><time>2026-05-01T12:04:41.274Z</time></trkpt><trkpt lat="43.8822867" lon="7.4663717"><ele>370.0</ele><time>2026-05-01T12:04:43.274Z</time></trkpt><trkpt lat="43.882225" lon="7.46621"><ele>372.0</ele><time>2026-05-01T12:04:44.274Z</time></trkpt><trkpt lat="43.8821667" lon="7.4660583"><ele>374.0</ele><time>2026-05-01T12:04:45.274Z</time></trkpt><trkpt lat="43.88212" lon="7.4659167"><ele>376.0</ele><time>2026-05-01T12:04:46.275Z</time></trkpt><trkpt lat="43.882085" lon="7.4657733"><ele>376.0</ele><time>2026-05-01T12:04:47.274Z</time></trkpt><trkpt lat="43.8820533" lon="7.4656133"><ele>376.0</ele><time>2026-05-01T12:04:48.274Z</time></trkpt><trkpt lat="43.8820267" lon="7.4654417"><ele>376.0</ele><time>2026-05-01T12:04:49.274Z</time></trkpt><trkpt lat="43.882005" lon="7.4652717"><ele>376.0</ele><time>2026-05-01T12:04:50.274Z</time></trkpt><trkpt lat="43.8819933" lon="7.4651017"><ele>376.75</ele><time>2026-05-01T12:04:51.274Z</time></trkpt><trkpt lat="43.8820033" lon="7.4649233"><ele>377.5</ele><time>2026-05-01T12:04:52.274Z</time></trkpt><trkpt lat="43.8820117" lon="7.4647667"><ele>378.25</ele><time>2026-05-01T12:04:53.274Z</time></trkpt><trkpt lat="43.8819917" lon="7.464615"><ele>379.0</ele><time>2026-05-01T12:04:54.274Z</time></trkpt><trkpt lat="43.881945" lon="7.46448"><ele>381.5</ele><time>2026-05-01T12:04:55.274Z</time></trkpt><trkpt lat="43.88187" lon="7.4643583"><ele>384.0</ele><time>2026-05-01T12:04:56.274Z</time></trkpt><trkpt lat="43.8817667" lon="7.4642433"><ele>386.5</ele><time>2026-05-01T12:04:57.274Z</time></trkpt><trkpt lat="43.8816617" lon="7.464145"><ele>389.0</ele><time>2026-05-01T12:04:58.274Z</time></trkpt><trkpt lat="43.8815617" lon="7.4640233"><ele>384.5</ele><time>2026-05-01T12:04:59.274Z</time></trkpt><trkpt lat="43.8814767" lon="7.4638967"><ele>380.0</ele><time>2026-05-01T12:05:00.274Z</time></trkpt><trkpt lat="43.8814017" lon="7.4637517"><ele>375.5</ele><time>2026-05-01T12:05:01.274Z</time></trkpt><trkpt lat="43.8813283" lon="7.4636083"><ele>371.0</ele><time>2026-05-01T12:05:02.274Z</time></trkpt><trkpt lat="43.8811783" lon="7.4633317"><ele>371.0</ele><time>2026-05-01T12:05:04.274Z</time></trkpt><trkpt lat="43.8811167" lon="7.4631867"><ele>371.0</ele><time>2026-05-01T12:05:05.274Z</time></trkpt><trkpt lat="43.8810617" lon="7.4630333"><ele>371.0</ele><time>2026-05-01T12:05:06.275Z</time></trkpt><trkpt lat="43.8810033" lon="7.4628717"><ele>371.0</ele><time>2026-05-01T12:05:07.274Z</time></trkpt><trkpt lat="43.8809133" lon="7.4627483"><ele>368.5</ele><time>2026-05-01T12:05:08.274Z</time></trkpt><trkpt lat="43.88081" lon="7.4626333"><ele>366.0</ele><time>2026-05-01T12:05:09.274Z</time></trkpt><trkpt lat="43.8806983" lon="7.4625333"><ele>363.5</ele><time>2026-05-01T12:05:10.275Z</time></trkpt><trkpt lat="43.8805933" lon="7.4624183"><ele>361.0</ele><time>2026-05-01T12:05:11.274Z</time></trkpt><trkpt lat="43.8805067" lon="7.4622717"><ele>361.0</ele><time>2026-05-01T12:05:12.274Z</time></trkpt><trkpt lat="43.8804367" lon="7.4621183"><ele>361.0</ele><time>2026-05-01T12:05:13.274Z</time></trkpt><trkpt lat="43.88038" lon="7.4619767"><ele>361.0</ele><time>2026-05-01T12:05:14.274Z</time></trkpt><trkpt lat="43.880345" lon="7.46183"><ele>361.0</ele><time>2026-05-01T12:05:15.274Z</time></trkpt><trkpt lat="43.880315" lon="7.4616783"><ele>362.8</ele><time>2026-05-01T12:05:16.274Z</time></trkpt><trkpt lat="43.8803083" lon="7.4615283"><ele>364.6</ele><time>2026-05-01T12:05:17.274Z</time></trkpt><trkpt lat="43.880325" lon="7.461395"><ele>366.4</ele><time>2026-05-01T12:05:18.274Z</time></trkpt><trkpt lat="43.8803483" lon="7.4612617"><ele>368.2</ele><time>2026-05-01T12:05:19.274Z</time></trkpt><trkpt lat="43.8803417" lon="7.4611483"><ele>370.0</ele><time>2026-05-01T12:05:20.274Z</time></trkpt><trkpt lat="43.8803167" lon="7.4610667"><ele>371.5</ele><time>2026-05-01T12:05:21.274Z</time></trkpt><trkpt lat="43.880255" lon="7.4609867"><ele>373.0</ele><time>2026-05-01T12:05:22.274Z</time></trkpt><trkpt lat="43.88017" lon="7.4609283"><ele>374.5</ele><time>2026-05-01T12:05:23.274Z</time></trkpt><trkpt lat="43.8799833" lon="7.4607717"><ele>376.0</ele><time>2026-05-01T12:05:25.274Z</time></trkpt><trkpt lat="43.8799267" lon="7.4606633"><ele>371.6</ele><time>2026-05-01T12:05:26.274Z</time></trkpt><trkpt lat="43.8799033" lon="7.4605333"><ele>367.20000000000005</ele><time>2026-05-01T12:05:27.274Z</time></trkpt><trkpt lat="43.8798933" lon="7.4603983"><ele>362.79999999999995</ele><time>2026-05-01T12:05:28.274Z</time></trkpt><trkpt lat="43.879885" lon="7.4602433"><ele>358.4</ele><time>2026-05-01T12:05:29.274Z</time></trkpt><trkpt lat="43.879875" lon="7.46008"><ele>354.0</ele><time>2026-05-01T12:05:30.274Z</time></trkpt><trkpt lat="43.8798483" lon="7.4599233"><ele>354.0</ele><time>2026-05-01T12:05:31.275Z</time></trkpt><trkpt lat="43.87981" lon="7.4597783"><ele>354.0</ele><time>2026-05-01T12:05:32.274Z</time></trkpt><trkpt lat="43.8797683" lon="7.4596433"><ele>354.0</ele><time>2026-05-01T12:05:33.274Z</time></trkpt><trkpt lat="43.87974" lon="7.459505"><ele>354.0</ele><time>2026-05-01T12:05:34.274Z</time></trkpt><trkpt lat="43.8797133" lon="7.45937"><ele>354.0</ele><time>2026-05-01T12:05:35.274Z</time></trkpt><trkpt lat="43.8796933" lon="7.459225"><ele>355.25</ele><time>2026-05-01T12:05:36.274Z</time></trkpt><trkpt lat="43.8796667" lon="7.4590783"><ele>356.5</ele><time>2026-05-01T12:05:37.274Z</time></trkpt><trkpt lat="43.8796433" lon="7.4589167"><ele>357.75</ele><time>2026-05-01T12:05:38.274Z</time></trkpt><trkpt lat="43.8796167" lon="7.458745"><ele>359.0</ele><time>2026-05-01T12:05:39.274Z</time></trkpt><trkpt lat="43.8796083" lon="7.458565"><ele>359.0</ele><time>2026-05-01T12:05:40.274Z</time></trkpt><trkpt lat="43.8795967" lon="7.458375"><ele>359.0</ele><time>2026-05-01T12:05:41.274Z</time></trkpt><trkpt lat="43.8795733" lon="7.4581917"><ele>359.0</ele><time>2026-05-01T12:05:42.274Z</time></trkpt><trkpt lat="43.8795267" lon="7.4580083"><ele>359.0</ele><time>2026-05-01T12:05:43.274Z</time></trkpt><trkpt lat="43.8794933" lon="7.4578183"><ele>359.33333333333337</ele><time>2026-05-01T12:05:44.275Z</time></trkpt><trkpt lat="43.8794417" lon="7.45744"><ele>359.6666666666667</ele><time>2026-05-01T12:05:46.275Z</time></trkpt><trkpt lat="43.8794133" lon="7.457245"><ele>360.0</ele><time>2026-05-01T12:05:47.274Z</time></trkpt><trkpt lat="43.87938" lon="7.45706"><ele>362.5</ele><time>2026-05-01T12:05:48.274Z</time></trkpt><trkpt lat="43.87935" lon="7.456875"><ele>365.0</ele><time>2026-05-01T12:05:49.274Z</time></trkpt><trkpt lat="43.879315" lon="7.4566983"><ele>367.5</ele><time>2026-05-01T12:05:50.275Z</time></trkpt><trkpt lat="43.879275" lon="7.4565183"><ele>370.0</ele><time>2026-05-01T12:05:51.274Z</time></trkpt><trkpt lat="43.8792267" lon="7.4563267"><ele>364.25</ele><time>2026-05-01T12:05:52.275Z</time></trkpt><trkpt lat="43.87919" lon="7.4561267"><ele>358.5</ele><time>2026-05-01T12:05:53.274Z</time></trkpt><trkpt lat="43.8791383" lon="7.4559383"><ele>352.75</ele><time>2026-05-01T12:05:54.274Z</time></trkpt><trkpt lat="43.8790783" lon="7.45576"><ele>347.0</ele><time>2026-05-01T12:05:55.274Z</time></trkpt><trkpt lat="43.8790267" lon="7.4556017"><ele>348.75</ele><time>2026-05-01T12:05:56.274Z</time></trkpt><trkpt lat="43.8789767" lon="7.4554467"><ele>350.5</ele><time>2026-05-01T12:05:57.275Z</time></trkpt><trkpt lat="43.8789317" lon="7.4552967"><ele>352.25</ele><time>2026-05-01T12:05:58.274Z</time></trkpt><trkpt lat="43.8788833" lon="7.45514"><ele>354.0</ele><time>2026-05-01T12:05:59.274Z</time></trkpt><trkpt lat="43.8788383" lon="7.4549783"><ele>354.0</ele><time>2026-05-01T12:06:00.274Z</time></trkpt><trkpt lat="43.8788083" lon="7.45482"><ele>354.0</ele><time>2026-05-01T12:06:01.275Z</time></trkpt><trkpt lat="43.8787683" lon="7.4546567"><ele>354.0</ele><time>2026-05-01T12:06:02.274Z</time></trkpt><trkpt lat="43.878725" lon="7.4544817"><ele>354.0</ele><time>2026-05-01T12:06:03.274Z</time></trkpt><trkpt lat="43.8786867" lon="7.45431"><ele>355.0</ele><time>2026-05-01T12:06:04.274Z</time></trkpt><trkpt lat="43.8786417" lon="7.4541383"><ele>356.0</ele><time>2026-05-01T12:06:05.274Z</time></trkpt><trkpt lat="43.878555" lon="7.4538033"><ele>357.0</ele><time>2026-05-01T12:06:07.274Z</time></trkpt><trkpt lat="43.8785167" lon="7.453635"><ele>357.0</ele><time>2026-05-01T12:06:08.274Z</time></trkpt><trkpt lat="43.878485" lon="7.4534683"><ele>357.0</ele><time>2026-05-01T12:06:09.274Z</time></trkpt><trkpt lat="43.8784483" lon="7.4532933"><ele>357.0</ele><time>2026-05-01T12:06:10.275Z</time></trkpt><trkpt lat="43.87842" lon="7.4531183"><ele>357.0</ele><time>2026-05-01T12:06:11.274Z</time></trkpt><trkpt lat="43.8783883" lon="7.452945"><ele>353.5</ele><time>2026-05-01T12:06:12.274Z</time></trkpt><trkpt lat="43.8783533" lon="7.4527733"><ele>350.0</ele><time>2026-05-01T12:06:13.275Z</time></trkpt><trkpt lat="43.8783067" lon="7.4526183"><ele>346.5</ele><time>2026-05-01T12:06:14.274Z</time></trkpt><trkpt lat="43.8782583" lon="7.452455"><ele>343.0</ele><time>2026-05-01T12:06:15.275Z</time></trkpt><trkpt lat="43.8782233" lon="7.452295"><ele>343.0</ele><time>2026-05-01T12:06:16.274Z</time></trkpt><trkpt lat="43.8781917" lon="7.4521367"><ele>343.0</ele><time>2026-05-01T12:06:17.274Z</time></trkpt><trkpt lat="43.87816" lon="7.4519817"><ele>343.0</ele><time>2026-05-01T12:06:18.274Z</time></trkpt><trkpt lat="43.8781283" lon="7.451825"><ele>343.0</ele><time>2026-05-01T12:06:19.274Z</time></trkpt><trkpt lat="43.8781" lon="7.4516767"><ele>343.3333333333333</ele><time>2026-05-01T12:06:20.274Z</time></trkpt><trkpt lat="43.8780733" lon="7.4515417"><ele>343.66666666666663</ele><time>2026-05-01T12:06:21.274Z</time></trkpt><trkpt lat="43.8780417" lon="7.4514283"><ele>344.0</ele><time>2026-05-01T12:06:22.274Z</time></trkpt><trkpt lat="43.8780033" lon="7.4513283"><ele>344.3333333333333</ele><time>2026-05-01T12:06:23.274Z</time></trkpt><trkpt lat="43.8779467" lon="7.4512383"><ele>344.6666666666667</ele><time>2026-05-01T12:06:24.274Z</time></trkpt><trkpt lat="43.8778717" lon="7.451165"><ele>345.0</ele><time>2026-05-01T12:06:25.274Z</time></trkpt><trkpt lat="43.8777833" lon="7.4510867"><ele>345.75</ele><time>2026-05-01T12:06:26.274Z</time></trkpt><trkpt lat="43.8776367" lon="7.45095"><ele>346.5</ele><time>2026-05-01T12:06:28.274Z</time></trkpt><trkpt lat="43.8775767" lon="7.45086"><ele>347.25</ele><time>2026-05-01T12:06:30.274Z</time></trkpt><trkpt lat="43.877555" lon="7.450715"><ele>348.0</ele><time>2026-05-01T12:06:33.275Z</time></trkpt><trkpt lat="43.8775567" lon="7.4505717"><ele>348.3333333333333</ele><time>2026-05-01T12:06:35.274Z</time></trkpt><trkpt lat="43.8775583" lon="7.4504467"><ele>348.6666666666667</ele><time>2026-05-01T12:06:37.274Z</time></trkpt><trkpt lat="43.8775767" lon="7.4503217"><ele>349.0</ele><time>2026-05-01T12:06:39.274Z</time></trkpt><trkpt lat="43.87759" lon="7.4502083"><ele>349.33333333333337</ele><time>2026-05-01T12:06:41.274Z</time></trkpt><trkpt lat="43.8776067" lon="7.4501083"><ele>349.6666666666667</ele><time>2026-05-01T12:06:43.274Z</time></trkpt><trkpt lat="43.877615" lon="7.4499967"><ele>350.0</ele><time>2026-05-01T12:06:45.274Z</time></trkpt><trkpt lat="43.87762" lon="7.4498383"><ele>350.0</ele><time>2026-05-01T12:06:47.274Z</time></trkpt><trkpt lat="43.87764" lon="7.4496417"><ele>350.0</ele><time>2026-05-01T12:06:49.274Z</time></trkpt><trkpt lat="43.8776583" lon="7.4495383"><ele>350.0</ele><time>2026-05-01T12:06:50.274Z</time></trkpt><trkpt lat="43.877685" lon="7.4494333"><ele>350.0</ele><time>2026-05-01T12:06:51.274Z</time></trkpt><trkpt lat="43.8777117" lon="7.4493317"><ele>350.0</ele><time>2026-05-01T12:06:52.274Z</time></trkpt><trkpt lat="43.8777367" lon="7.449225"><ele>350.0</ele><time>2026-05-01T12:06:53.274Z</time></trkpt><trkpt lat="43.8777583" lon="7.4491333"><ele>350.0</ele><time>2026-05-01T12:06:54.274Z</time></trkpt><trkpt lat="43.87779" lon="7.4489767"><ele>350.0</ele><time>2026-05-01T12:06:56.274Z</time></trkpt><trkpt lat="43.877795" lon="7.4488317"><ele>350.0</ele><time>2026-05-01T12:06:58.274Z</time></trkpt><trkpt lat="43.87779" lon="7.4486983"><ele>350.0</ele><time>2026-05-01T12:07:00.274Z</time></trkpt><trkpt lat="43.8777933" lon="7.448605"><ele>349.4</ele><time>2026-05-01T12:07:02.274Z</time></trkpt><trkpt lat="43.8778" lon="7.448505"><ele>348.8</ele><time>2026-05-01T12:07:05.274Z</time></trkpt><trkpt lat="43.877805" lon="7.448385"><ele>348.20000000000005</ele><time>2026-05-01T12:07:09.275Z</time></trkpt><trkpt lat="43.8778017" lon="7.4481883"><ele>347.6</ele><time>2026-05-01T12:07:13.274Z</time></trkpt><trkpt lat="43.877795" lon="7.4480483"><ele>347.0</ele><time>2026-05-01T12:07:15.274Z</time></trkpt><trkpt lat="43.877795" lon="7.447905"><ele>347.0</ele><time>2026-05-01T12:07:17.275Z</time></trkpt><trkpt lat="43.8777983" lon="7.4477717"><ele>347.0</ele><time>2026-05-01T12:07:19.274Z</time></trkpt><trkpt lat="43.8778033" lon="7.4476767"><ele>347.0</ele><time>2026-05-01T12:07:21.274Z</time></trkpt><trkpt lat="43.8778317" lon="7.4475783"><ele>347.0</ele><time>2026-05-01T12:07:24.274Z</time></trkpt><trkpt lat="43.8778717" lon="7.4474533"><ele>347.0</ele><time>2026-05-01T12:07:27.274Z</time></trkpt><trkpt lat="43.8779217" lon="7.44739"><ele>347.0</ele><time>2026-05-01T12:07:30.274Z</time></trkpt><trkpt lat="43.8779667" lon="7.4471783"><ele>347.1666666666667</ele><time>2026-05-01T12:07:37.274Z</time></trkpt><trkpt lat="43.8779883" lon="7.447095"><ele>347.33333333333337</ele><time>2026-05-01T12:07:40.274Z</time></trkpt><trkpt lat="43.878055" lon="7.4470267"><ele>347.5</ele><time>2026-05-01T12:07:44.274Z</time></trkpt><trkpt lat="43.8780817" lon="7.446945"><ele>347.6666666666667</ele><time>2026-05-01T12:07:47.274Z</time></trkpt><trkpt lat="43.878105" lon="7.446855"><ele>347.8333333333333</ele><time>2026-05-01T12:07:49.274Z</time></trkpt><trkpt lat="43.8781267" lon="7.44673"><ele>348.0</ele><time>2026-05-01T12:07:51.274Z</time></trkpt><trkpt lat="43.878155" lon="7.4464717"><ele>348.0</ele><time>2026-05-01T12:07:54.274Z</time></trkpt><trkpt lat="43.8781767" lon="7.4463167"><ele>348.0</ele><time>2026-05-01T12:07:56.275Z</time></trkpt><trkpt lat="43.8782" lon="7.4461817"><ele>350.0</ele><time>2026-05-01T12:07:58.274Z</time></trkpt><trkpt lat="43.8782217" lon="7.446065"><ele>350.0</ele><time>2026-05-01T12:08:00.274Z</time></trkpt><trkpt lat="43.8782417" lon="7.4459683"><ele>350.0</ele><time>2026-05-01T12:08:02.274Z</time></trkpt><trkpt lat="43.8782683" lon="7.4458783"><ele>350.0</ele><time>2026-05-01T12:08:05.274Z</time></trkpt></trkseg><trkseg><trkpt lat="43.8782497" lon="7.4459184"><ele>350.0</ele><time>2026-05-01T13:17:15.273Z</time></trkpt><trkpt lat="43.878226" lon="7.4460424"><ele>350.0</ele><time>2026-05-01T13:17:18.272Z</time></trkpt><trkpt lat="43.8782126" lon="7.4461395"><ele>350.0</ele><time>2026-05-01T13:17:20.273Z</time></trkpt><trkpt lat="43.8781833" lon="7.4463664"><ele>350.0</ele><time>2026-05-01T13:17:24.272Z</time></trkpt><trkpt lat="43.8781662" lon="7.4464748"><ele>350.0</ele><time>2026-05-01T13:17:26.272Z</time></trkpt><trkpt lat="43.878155" lon="7.4465615"><ele>349.6666666666667</ele><time>2026-05-01T13:17:28.273Z</time></trkpt><trkpt lat="43.8781353" lon="7.446665"><ele>349.33333333333337</ele><time>2026-05-01T13:17:30.272Z</time></trkpt><trkpt lat="43.8781211" lon="7.4467682"><ele>349.0</ele><time>2026-05-01T13:17:32.272Z</time></trkpt><trkpt lat="43.8781088" lon="7.4468704"><ele>348.6666666666667</ele><time>2026-05-01T13:17:34.273Z</time></trkpt><trkpt lat="43.8780792" lon="7.4469643"><ele>348.3333333333333</ele><time>2026-05-01T13:17:36.273Z</time></trkpt><trkpt lat="43.8780398" lon="7.4470615"><ele>348.0</ele><time>2026-05-01T13:17:39.272Z</time></trkpt><trkpt lat="43.8780047" lon="7.4471729"><ele>347.79999999999995</ele><time>2026-05-01T13:17:42.273Z</time></trkpt><trkpt lat="43.8779241" lon="7.4473343"><ele>347.6</ele><time>2026-05-01T13:17:48.272Z</time></trkpt><trkpt lat="43.8778721" lon="7.4474199"><ele>347.4</ele><time>2026-05-01T13:17:51.272Z</time></trkpt><trkpt lat="43.8778567" lon="7.4475844"><ele>347.20000000000005</ele><time>2026-05-01T13:17:53.272Z</time></trkpt><trkpt lat="43.87786" lon="7.447702"><ele>347.0</ele><time>2026-05-01T13:17:54.273Z</time></trkpt><trkpt lat="43.8778651" lon="7.4478112"><ele>347.0</ele><time>2026-05-01T13:17:55.272Z</time></trkpt><trkpt lat="43.8778793" lon="7.4479178"><ele>347.0</ele><time>2026-05-01T13:17:56.272Z</time></trkpt><trkpt lat="43.8778813" lon="7.4480199"><ele>347.0</ele><time>2026-05-01T13:17:57.272Z</time></trkpt><trkpt lat="43.8778769" lon="7.4481214"><ele>347.0</ele><time>2026-05-01T13:17:58.272Z</time></trkpt><trkpt lat="43.8778761" lon="7.4482248"><ele>347.0</ele><time>2026-05-01T13:17:59.272Z</time></trkpt><trkpt lat="43.877872" lon="7.4483313"><ele>347.0</ele><time>2026-05-01T13:18:00.272Z</time></trkpt><trkpt lat="43.8778653" lon="7.4484277"><ele>347.0</ele><time>2026-05-01T13:18:01.272Z</time></trkpt><trkpt lat="43.8778629" lon="7.4485191"><ele>347.0</ele><time>2026-05-01T13:18:02.272Z</time></trkpt><trkpt lat="43.8778585" lon="7.448611"><ele>347.0</ele><time>2026-05-01T13:18:03.272Z</time></trkpt><trkpt lat="43.8778547" lon="7.4488022"><ele>347.0</ele><time>2026-05-01T13:18:05.273Z</time></trkpt><trkpt lat="43.8778487" lon="7.4489054"><ele>347.0</ele><time>2026-05-01T13:18:06.272Z</time></trkpt><trkpt lat="43.8778375" lon="7.4490125"><ele>347.0</ele><time>2026-05-01T13:18:07.272Z</time></trkpt><trkpt lat="43.8778172" lon="7.4491269"><ele>347.0</ele><time>2026-05-01T13:18:08.272Z</time></trkpt><trkpt lat="43.8777808" lon="7.4492307"><ele>347.5</ele><time>2026-05-01T13:18:09.272Z</time></trkpt><trkpt lat="43.8777443" lon="7.4493279"><ele>348.0</ele><time>2026-05-01T13:18:10.272Z</time></trkpt><trkpt lat="43.8777129" lon="7.4494197"><ele>348.5</ele><time>2026-05-01T13:18:11.271Z</time></trkpt><trkpt lat="43.8776857" lon="7.4495093"><ele>349.0</ele><time>2026-05-01T13:18:12.273Z</time></trkpt><trkpt lat="43.8776642" lon="7.4495951"><ele>349.5</ele><time>2026-05-01T13:18:13.272Z</time></trkpt><trkpt lat="43.8776411" lon="7.44968"><ele>350.0</ele><time>2026-05-01T13:18:14.272Z</time></trkpt><trkpt lat="43.8776051" lon="7.4498334"><ele>350.0</ele><time>2026-05-01T13:18:16.272Z</time></trkpt><trkpt lat="43.8775332" lon="7.4499309"><ele>350.0</ele><time>2026-05-01T13:18:18.272Z</time></trkpt><trkpt lat="43.8774248" lon="7.4499943"><ele>350.0</ele><time>2026-05-01T13:18:20.272Z</time></trkpt><trkpt lat="43.8773524" lon="7.4500247"><ele>350.0</ele><time>2026-05-01T13:18:21.272Z</time></trkpt><trkpt lat="43.8772759" lon="7.4500655"><ele>350.0</ele><time>2026-05-01T13:18:22.272Z</time></trkpt><trkpt lat="43.8772021" lon="7.4501033"><ele>350.0</ele><time>2026-05-01T13:18:23.272Z</time></trkpt><trkpt lat="43.8771356" lon="7.4501449"><ele>350.0</ele><time>2026-05-01T13:18:24.273Z</time></trkpt><trkpt lat="43.876971" lon="7.4502656"><ele>350.0</ele><time>2026-05-01T13:18:27.272Z</time></trkpt><trkpt lat="43.8769112" lon="7.45031"><ele>350.0</ele><time>2026-05-01T13:18:28.272Z</time></trkpt><trkpt lat="43.8768456" lon="7.4503569"><ele>350.0</ele><time>2026-05-01T13:18:29.272Z</time></trkpt><trkpt lat="43.8767882" lon="7.450396"><ele>350.2</ele><time>2026-05-01T13:18:30.272Z</time></trkpt><trkpt lat="43.8767051" lon="7.4504588"><ele>350.4</ele><time>2026-05-01T13:18:32.272Z</time></trkpt><trkpt lat="43.8766207" lon="7.4505064"><ele>350.6</ele><time>2026-05-01T13:18:34.272Z</time></trkpt><trkpt lat="43.8765086" lon="7.4504842"><ele>350.8</ele><time>2026-05-01T13:18:36.272Z</time></trkpt><trkpt lat="43.8764472" lon="7.4504291"><ele>351.0</ele><time>2026-05-01T13:18:37.272Z</time></trkpt><trkpt lat="43.8763961" lon="7.4503438"><ele>351.0</ele><time>2026-05-01T13:18:38.272Z</time></trkpt><trkpt lat="43.8763593" lon="7.4502259"><ele>351.0</ele><time>2026-05-01T13:18:39.272Z</time></trkpt><trkpt lat="43.8763299" lon="7.45011"><ele>351.0</ele><time>2026-05-01T13:18:40.273Z</time></trkpt><trkpt lat="43.8762926" lon="7.4500014"><ele>351.0</ele><time>2026-05-01T13:18:41.272Z</time></trkpt><trkpt lat="43.8762554" lon="7.4498877"><ele>351.0</ele><time>2026-05-01T13:18:42.272Z</time></trkpt><trkpt lat="43.876217" lon="7.4497905"><ele>351.0</ele><time>2026-05-01T13:18:43.272Z</time></trkpt><trkpt lat="43.8761624" lon="7.4496983"><ele>351.75</ele><time>2026-05-01T13:18:44.272Z</time></trkpt><trkpt lat="43.8760965" lon="7.4496174"><ele>352.5</ele><time>2026-05-01T13:18:45.272Z</time></trkpt><trkpt lat="43.8759359" lon="7.4494789"><ele>353.25</ele><time>2026-05-01T13:18:47.272Z</time></trkpt><trkpt lat="43.8758501" lon="7.4494035"><ele>354.0</ele><time>2026-05-01T13:18:48.272Z</time></trkpt><trkpt lat="43.8757725" lon="7.4493159"><ele>354.0</ele><time>2026-05-01T13:18:49.272Z</time></trkpt><trkpt lat="43.8757132" lon="7.4492004"><ele>354.0</ele><time>2026-05-01T13:18:50.272Z</time></trkpt><trkpt lat="43.8756725" lon="7.4490751"><ele>354.0</ele><time>2026-05-01T13:18:51.273Z</time></trkpt><trkpt lat="43.8756581" lon="7.4489477"><ele>354.0</ele><time>2026-05-01T13:18:52.272Z</time></trkpt><trkpt lat="43.8756541" lon="7.4488146"><ele>354.0</ele><time>2026-05-01T13:18:53.272Z</time></trkpt><trkpt lat="43.8756479" lon="7.448683"><ele>354.5</ele><time>2026-05-01T13:18:54.273Z</time></trkpt><trkpt lat="43.8756382" lon="7.4485525"><ele>355.0</ele><time>2026-05-01T13:18:55.272Z</time></trkpt><trkpt lat="43.8756283" lon="7.4484211"><ele>355.5</ele><time>2026-05-01T13:18:56.272Z</time></trkpt><trkpt lat="43.8756155" lon="7.4483072"><ele>356.0</ele><time>2026-05-01T13:18:57.272Z</time></trkpt><trkpt lat="43.8756004" lon="7.4481972"><ele>356.5</ele><time>2026-05-01T13:18:58.272Z</time></trkpt><trkpt lat="43.8755706" lon="7.4481105"><ele>357.0</ele><time>2026-05-01T13:18:59.272Z</time></trkpt><trkpt lat="43.8755284" lon="7.4480431"><ele>357.0</ele><time>2026-05-01T13:19:00.273Z</time></trkpt><trkpt lat="43.8754758" lon="7.4479782"><ele>357.0</ele><time>2026-05-01T13:19:01.272Z</time></trkpt><trkpt lat="43.8754054" lon="7.4479162"><ele>357.0</ele><time>2026-05-01T13:19:02.272Z</time></trkpt><trkpt lat="43.8753168" lon="7.4478651"><ele>357.0</ele><time>2026-05-01T13:19:03.272Z</time></trkpt><trkpt lat="43.8752051" lon="7.4478387"><ele>357.0</ele><time>2026-05-01T13:19:04.272Z</time></trkpt><trkpt lat="43.8750765" lon="7.4478044"><ele>357.6666666666667</ele><time>2026-05-01T13:19:05.272Z</time></trkpt><trkpt lat="43.8749462" lon="7.4477733"><ele>358.33333333333337</ele><time>2026-05-01T13:19:06.272Z</time></trkpt><trkpt lat="43.8747124" lon="7.4477331"><ele>359.0</ele><time>2026-05-01T13:19:08.272Z</time></trkpt><trkpt lat="43.8746103" lon="7.4477159"><ele>359.0</ele><time>2026-05-01T13:19:09.272Z</time></trkpt><trkpt lat="43.8745" lon="7.4477014"><ele>359.0</ele><time>2026-05-01T13:19:10.272Z</time></trkpt><trkpt lat="43.874392" lon="7.4476916"><ele>359.0</ele><time>2026-05-01T13:19:11.273Z</time></trkpt><trkpt lat="43.8742807" lon="7.4476737"><ele>359.0</ele><time>2026-05-01T13:19:12.272Z</time></trkpt><trkpt lat="43.8741705" lon="7.4476342"><ele>359.0</ele><time>2026-05-01T13:19:13.272Z</time></trkpt><trkpt lat="43.8740665" lon="7.4475699"><ele>360.0</ele><time>2026-05-01T13:19:14.272Z</time></trkpt><trkpt lat="43.873972" lon="7.4474655"><ele>361.0</ele><time>2026-05-01T13:19:15.272Z</time></trkpt><trkpt lat="43.8738929" lon="7.4473352"><ele>362.0</ele><time>2026-05-01T13:19:16.272Z</time></trkpt><trkpt lat="43.8738384" lon="7.4471766"><ele>363.0</ele><time>2026-05-01T13:19:17.272Z</time></trkpt><trkpt lat="43.8738006" lon="7.4470034"><ele>364.25</ele><time>2026-05-01T13:19:18.273Z</time></trkpt><trkpt lat="43.8737718" lon="7.4468312"><ele>365.5</ele><time>2026-05-01T13:19:19.272Z</time></trkpt><trkpt lat="43.873724" lon="7.4466801"><ele>366.75</ele><time>2026-05-01T13:19:20.272Z</time></trkpt><trkpt lat="43.8736624" lon="7.4465385"><ele>368.0</ele><time>2026-05-01T13:19:21.272Z</time></trkpt><trkpt lat="43.8735806" lon="7.4464196"><ele>368.0</ele><time>2026-05-01T13:19:22.272Z</time></trkpt><trkpt lat="43.8734703" lon="7.4463292"><ele>368.0</ele><time>2026-05-01T13:19:23.272Z</time></trkpt><trkpt lat="43.8733508" lon="7.4462728"><ele>368.0</ele><time>2026-05-01T13:19:24.273Z</time></trkpt><trkpt lat="43.8732158" lon="7.4462556"><ele>368.0</ele><time>2026-05-01T13:19:25.272Z</time></trkpt><trkpt lat="43.873075" lon="7.4462691"><ele>370.0</ele><time>2026-05-01T13:19:26.272Z</time></trkpt><trkpt lat="43.8729262" lon="7.4462827"><ele>372.0</ele><time>2026-05-01T13:19:27.272Z</time></trkpt><trkpt lat="43.8726366" lon="7.4462748"><ele>374.0</ele><time>2026-05-01T13:19:29.272Z</time></trkpt><trkpt lat="43.8725136" lon="7.4462182"><ele>374.25</ele><time>2026-05-01T13:19:30.272Z</time></trkpt><trkpt lat="43.8724003" lon="7.4461259"><ele>374.5</ele><time>2026-05-01T13:19:31.272Z</time></trkpt><trkpt lat="43.8722935" lon="7.4460221"><ele>374.75</ele><time>2026-05-01T13:19:32.272Z</time></trkpt><trkpt lat="43.872182" lon="7.4459135"><ele>375.0</ele><time>2026-05-01T13:19:33.272Z</time></trkpt><trkpt lat="43.8720621" lon="7.445849"><ele>375.0</ele><time>2026-05-01T13:19:34.272Z</time></trkpt><trkpt lat="43.8719276" lon="7.4458345"><ele>375.0</ele><time>2026-05-01T13:19:35.272Z</time></trkpt><trkpt lat="43.8717877" lon="7.4458674"><ele>375.0</ele><time>2026-05-01T13:19:36.272Z</time></trkpt><trkpt lat="43.8716356" lon="7.4459256"><ele>375.0</ele><time>2026-05-01T13:19:37.272Z</time></trkpt><trkpt lat="43.8714993" lon="7.4459804"><ele>377.0</ele><time>2026-05-01T13:19:38.273Z</time></trkpt><trkpt lat="43.8713642" lon="7.4459904"><ele>379.0</ele><time>2026-05-01T13:19:39.272Z</time></trkpt><trkpt lat="43.8712193" lon="7.4459445"><ele>381.0</ele><time>2026-05-01T13:19:40.272Z</time></trkpt><trkpt lat="43.8710934" lon="7.4458684"><ele>383.0</ele><time>2026-05-01T13:19:41.272Z</time></trkpt><trkpt lat="43.8709733" lon="7.4457678"><ele>383.0</ele><time>2026-05-01T13:19:42.272Z</time></trkpt><trkpt lat="43.8708537" lon="7.4456483"><ele>383.0</ele><time>2026-05-01T13:19:43.273Z</time></trkpt><trkpt lat="43.8707273" lon="7.4455412"><ele>383.0</ele><time>2026-05-01T13:19:44.273Z</time></trkpt><trkpt lat="43.8705968" lon="7.445436"><ele>383.0</ele><time>2026-05-01T13:19:45.272Z</time></trkpt><trkpt lat="43.8704661" lon="7.4453507"><ele>383.0</ele><time>2026-05-01T13:19:46.272Z</time></trkpt><trkpt lat="43.8703365" lon="7.4452672"><ele>383.0</ele><time>2026-05-01T13:19:47.272Z</time></trkpt><trkpt lat="43.8702022" lon="7.4452232"><ele>383.0</ele><time>2026-05-01T13:19:48.272Z</time></trkpt><trkpt lat="43.8699243" lon="7.4452255"><ele>384.25</ele><time>2026-05-01T13:19:50.272Z</time></trkpt><trkpt lat="43.8697725" lon="7.4452745"><ele>385.5</ele><time>2026-05-01T13:19:51.272Z</time></trkpt><trkpt lat="43.8696317" lon="7.445329"><ele>386.75</ele><time>2026-05-01T13:19:52.272Z</time></trkpt><trkpt lat="43.8694885" lon="7.4453426"><ele>388.0</ele><time>2026-05-01T13:19:53.273Z</time></trkpt><trkpt lat="43.869341" lon="7.4452974"><ele>391.0</ele><time>2026-05-01T13:19:54.273Z</time></trkpt><trkpt lat="43.8692011" lon="7.4452"><ele>394.0</ele><time>2026-05-01T13:19:55.272Z</time></trkpt><trkpt lat="43.8690656" lon="7.4450905"><ele>397.0</ele><time>2026-05-01T13:19:56.272Z</time></trkpt><trkpt lat="43.8689328" lon="7.4450005"><ele>397.0</ele><time>2026-05-01T13:19:57.272Z</time></trkpt><trkpt lat="43.8687855" lon="7.4449463"><ele>397.0</ele><time>2026-05-01T13:19:58.272Z</time></trkpt><trkpt lat="43.8686301" lon="7.4448965"><ele>397.0</ele><time>2026-05-01T13:19:59.272Z</time></trkpt><trkpt lat="43.8684744" lon="7.4448316"><ele>397.33333333333337</ele><time>2026-05-01T13:20:00.272Z</time></trkpt><trkpt lat="43.8683324" lon="7.4447316"><ele>397.66666666666663</ele><time>2026-05-01T13:20:01.272Z</time></trkpt><trkpt lat="43.8682012" lon="7.4446229"><ele>398.0</ele><time>2026-05-01T13:20:02.272Z</time></trkpt><trkpt lat="43.8680694" lon="7.4445233"><ele>398.0</ele><time>2026-05-01T13:20:03.272Z</time></trkpt><trkpt lat="43.8679299" lon="7.4444676"><ele>398.0</ele><time>2026-05-01T13:20:04.272Z</time></trkpt><trkpt lat="43.8677801" lon="7.4444588"><ele>398.0</ele><time>2026-05-01T13:20:05.272Z</time></trkpt><trkpt lat="43.8676191" lon="7.4444927"><ele>396.66666666666663</ele><time>2026-05-01T13:20:06.272Z</time></trkpt><trkpt lat="43.8674628" lon="7.4445638"><ele>395.33333333333337</ele><time>2026-05-01T13:20:07.272Z</time></trkpt><trkpt lat="43.8673057" lon="7.444647"><ele>394.0</ele><time>2026-05-01T13:20:08.272Z</time></trkpt><trkpt lat="43.8671516" lon="7.444711"><ele>408.5</ele><time>2026-05-01T13:20:09.272Z</time></trkpt><trkpt lat="43.8668032" lon="7.4447292"><ele>423.0</ele><time>2026-05-01T13:20:11.272Z</time></trkpt><trkpt lat="43.8666441" lon="7.4447346"><ele>423.0</ele><time>2026-05-01T13:20:12.272Z</time></trkpt><trkpt lat="43.8664733" lon="7.4447668"><ele>423.0</ele><time>2026-05-01T13:20:13.272Z</time></trkpt><trkpt lat="43.8663092" lon="7.4448147"><ele>423.0</ele><time>2026-05-01T13:20:14.272Z</time></trkpt><trkpt lat="43.8661529" lon="7.4448532"><ele>423.0</ele><time>2026-05-01T13:20:15.272Z</time></trkpt><trkpt lat="43.8660003" lon="7.4448724"><ele>423.0</ele><time>2026-05-01T13:20:16.272Z</time></trkpt><trkpt lat="43.8658427" lon="7.4448671"><ele>423.0</ele><time>2026-05-01T13:20:17.272Z</time></trkpt><trkpt lat="43.8656776" lon="7.4448802"><ele>421.66666666666663</ele><time>2026-05-01T13:20:18.272Z</time></trkpt><trkpt lat="43.8655156" lon="7.4449438"><ele>420.3333333333333</ele><time>2026-05-01T13:20:19.272Z</time></trkpt><trkpt lat="43.8653567" lon="7.4450311"><ele>419.0</ele><time>2026-05-01T13:20:20.272Z</time></trkpt><trkpt lat="43.8652009" lon="7.4451369"><ele>417.3333333333333</ele><time>2026-05-01T13:20:21.272Z</time></trkpt><trkpt lat="43.8650403" lon="7.4452329"><ele>415.66666666666663</ele><time>2026-05-01T13:20:22.272Z</time></trkpt><trkpt lat="43.864874" lon="7.4453199"><ele>414.0</ele><time>2026-05-01T13:20:23.272Z</time></trkpt><trkpt lat="43.864698" lon="7.4453959"><ele>421.33333333333337</ele><time>2026-05-01T13:20:24.272Z</time></trkpt><trkpt lat="43.8645267" lon="7.4454634"><ele>428.6666666666667</ele><time>2026-05-01T13:20:25.273Z</time></trkpt><trkpt lat="43.8643536" lon="7.4455246"><ele>436.0</ele><time>2026-05-01T13:20:26.272Z</time></trkpt><trkpt lat="43.864167" lon="7.4455907"><ele>436.0</ele><time>2026-05-01T13:20:27.272Z</time></trkpt><trkpt lat="43.8639872" lon="7.4456362"><ele>436.0</ele><time>2026-05-01T13:20:28.272Z</time></trkpt><trkpt lat="43.8638046" lon="7.4456704"><ele>436.0</ele><time>2026-05-01T13:20:29.272Z</time></trkpt><trkpt lat="43.8636307" lon="7.4456966"><ele>433.5</ele><time>2026-05-01T13:20:30.272Z</time></trkpt><trkpt lat="43.8632689" lon="7.445774"><ele>431.0</ele><time>2026-05-01T13:20:32.272Z</time></trkpt><trkpt lat="43.8631052" lon="7.4458285"><ele>431.0</ele><time>2026-05-01T13:20:33.272Z</time></trkpt><trkpt lat="43.8629555" lon="7.4458909"><ele>431.0</ele><time>2026-05-01T13:20:34.272Z</time></trkpt><trkpt lat="43.8628327" lon="7.4459774"><ele>431.0</ele><time>2026-05-01T13:20:35.272Z</time></trkpt><trkpt lat="43.862736" lon="7.4461002"><ele>431.0</ele><time>2026-05-01T13:20:36.272Z</time></trkpt><trkpt lat="43.8626748" lon="7.4462716"><ele>435.0</ele><time>2026-05-01T13:20:37.272Z</time></trkpt><trkpt lat="43.8626279" lon="7.4464509"><ele>439.0</ele><time>2026-05-01T13:20:38.272Z</time></trkpt><trkpt lat="43.8625616" lon="7.4465922"><ele>443.0</ele><time>2026-05-01T13:20:39.272Z</time></trkpt><trkpt lat="43.8624775" lon="7.446677"><ele>447.0</ele><time>2026-05-01T13:20:40.272Z</time></trkpt><trkpt lat="43.8623744" lon="7.4467018"><ele>447.0</ele><time>2026-05-01T13:20:41.272Z</time></trkpt><trkpt lat="43.862252" lon="7.4466571"><ele>447.0</ele><time>2026-05-01T13:20:42.272Z</time></trkpt><trkpt lat="43.8621338" lon="7.4465703"><ele>447.0</ele><time>2026-05-01T13:20:43.272Z</time></trkpt><trkpt lat="43.8620091" lon="7.4464872"><ele>447.0</ele><time>2026-05-01T13:20:44.272Z</time></trkpt><trkpt lat="43.8618646" lon="7.4464288"><ele>448.66666666666663</ele><time>2026-05-01T13:20:45.272Z</time></trkpt><trkpt lat="43.8617135" lon="7.4463923"><ele>450.3333333333333</ele><time>2026-05-01T13:20:46.272Z</time></trkpt><trkpt lat="43.8615667" lon="7.4463791"><ele>452.0</ele><time>2026-05-01T13:20:47.272Z</time></trkpt><trkpt lat="43.8614102" lon="7.4463838"><ele>452.0</ele><time>2026-05-01T13:20:48.272Z</time></trkpt><trkpt lat="43.8612411" lon="7.4464092"><ele>452.0</ele><time>2026-05-01T13:20:49.272Z</time></trkpt><trkpt lat="43.8610721" lon="7.4464327"><ele>452.0</ele><time>2026-05-01T13:20:50.272Z</time></trkpt><trkpt lat="43.8609084" lon="7.446456"><ele>451.5</ele><time>2026-05-01T13:20:51.272Z</time></trkpt><trkpt lat="43.8605693" lon="7.4465119"><ele>451.0</ele><time>2026-05-01T13:20:53.272Z</time></trkpt><trkpt lat="43.8603977" lon="7.4465534"><ele>451.0</ele><time>2026-05-01T13:20:54.272Z</time></trkpt><trkpt lat="43.8602409" lon="7.446605"><ele>451.0</ele><time>2026-05-01T13:20:55.272Z</time></trkpt><trkpt lat="43.8600816" lon="7.4466698"><ele>451.0</ele><time>2026-05-01T13:20:56.273Z</time></trkpt><trkpt lat="43.8599176" lon="7.4467353"><ele>448.33333333333337</ele><time>2026-05-01T13:20:57.273Z</time></trkpt><trkpt lat="43.8597468" lon="7.4468056"><ele>445.66666666666663</ele><time>2026-05-01T13:20:58.272Z</time></trkpt><trkpt lat="43.8595805" lon="7.4468835"><ele>443.0</ele><time>2026-05-01T13:20:59.273Z</time></trkpt><trkpt lat="43.8594151" lon="7.4469814"><ele>439.66666666666663</ele><time>2026-05-01T13:21:00.272Z</time></trkpt><trkpt lat="43.8592483" lon="7.4470869"><ele>436.33333333333337</ele><time>2026-05-01T13:21:01.273Z</time></trkpt><trkpt lat="43.8590819" lon="7.4471772"><ele>433.0</ele><time>2026-05-01T13:21:02.272Z</time></trkpt><trkpt lat="43.8589136" lon="7.4472786"><ele>436.33333333333337</ele><time>2026-05-01T13:21:03.272Z</time></trkpt><trkpt lat="43.858758" lon="7.4474175"><ele>439.66666666666663</ele><time>2026-05-01T13:21:04.272Z</time></trkpt><trkpt lat="43.8585968" lon="7.4475324"><ele>443.0</ele><time>2026-05-01T13:21:05.272Z</time></trkpt><trkpt lat="43.8584387" lon="7.4476526"><ele>443.0</ele><time>2026-05-01T13:21:06.272Z</time></trkpt><trkpt lat="43.8582881" lon="7.4477784"><ele>443.0</ele><time>2026-05-01T13:21:07.272Z</time></trkpt><trkpt lat="43.8581342" lon="7.447899"><ele>443.0</ele><time>2026-05-01T13:21:08.272Z</time></trkpt><trkpt lat="43.8579797" lon="7.4480012"><ele>445.66666666666663</ele><time>2026-05-01T13:21:09.272Z</time></trkpt><trkpt lat="43.85782" lon="7.4480717"><ele>448.33333333333337</ele><time>2026-05-01T13:21:10.272Z</time></trkpt><trkpt lat="43.8576634" lon="7.4481066"><ele>451.0</ele><time>2026-05-01T13:21:11.272Z</time></trkpt><trkpt lat="43.8574954" lon="7.448097"><ele>451.0</ele><time>2026-05-01T13:21:12.273Z</time></trkpt><trkpt lat="43.8571343" lon="7.4479478"><ele>451.0</ele><time>2026-05-01T13:21:14.272Z</time></trkpt><trkpt lat="43.8569619" lon="7.447837"><ele>451.0</ele><time>2026-05-01T13:21:15.272Z</time></trkpt><trkpt lat="43.8568054" lon="7.4477253"><ele>451.0</ele><time>2026-05-01T13:21:16.272Z</time></trkpt><trkpt lat="43.8566557" lon="7.4476243"><ele>451.0</ele><time>2026-05-01T13:21:17.272Z</time></trkpt><trkpt lat="43.8565102" lon="7.4475467"><ele>455.33333333333337</ele><time>2026-05-01T13:21:18.272Z</time></trkpt><trkpt lat="43.8563641" lon="7.4474946"><ele>459.66666666666663</ele><time>2026-05-01T13:21:19.272Z</time></trkpt><trkpt lat="43.8562106" lon="7.4474572"><ele>464.0</ele><time>2026-05-01T13:21:20.272Z</time></trkpt><trkpt lat="43.8560536" lon="7.4474319"><ele>466.66666666666663</ele><time>2026-05-01T13:21:21.272Z</time></trkpt><trkpt lat="43.8558801" lon="7.4474493"><ele>469.33333333333337</ele><time>2026-05-01T13:21:22.272Z</time></trkpt><trkpt lat="43.855706" lon="7.4474902"><ele>472.0</ele><time>2026-05-01T13:21:23.272Z</time></trkpt><trkpt lat="43.8555293" lon="7.4475542"><ele>472.0</ele><time>2026-05-01T13:21:24.272Z</time></trkpt><trkpt lat="43.855358" lon="7.447612"><ele>472.0</ele><time>2026-05-01T13:21:25.272Z</time></trkpt><trkpt lat="43.8551823" lon="7.4476696"><ele>472.0</ele><time>2026-05-01T13:21:26.273Z</time></trkpt><trkpt lat="43.8550068" lon="7.4477223"><ele>471.6666666666667</ele><time>2026-05-01T13:21:27.272Z</time></trkpt><trkpt lat="43.8548345" lon="7.4477755"><ele>471.33333333333337</ele><time>2026-05-01T13:21:28.272Z</time></trkpt><trkpt lat="43.8546528" lon="7.4478296"><ele>471.0</ele><time>2026-05-01T13:21:29.273Z</time></trkpt><trkpt lat="43.8544769" lon="7.4478802"><ele>471.0</ele><time>2026-05-01T13:21:30.273Z</time></trkpt><trkpt lat="43.8543109" lon="7.4479399"><ele>471.0</ele><time>2026-05-01T13:21:31.272Z</time></trkpt><trkpt lat="43.8541475" lon="7.4480215"><ele>471.0</ele><time>2026-05-01T13:21:32.272Z</time></trkpt><trkpt lat="43.8540103" lon="7.4481354"><ele>476.5</ele><time>2026-05-01T13:21:33.272Z</time></trkpt><trkpt lat="43.8538212" lon="7.4485235"><ele>482.0</ele><time>2026-05-01T13:21:35.272Z</time></trkpt><trkpt lat="43.8537528" lon="7.4487597"><ele>486.0</ele><time>2026-05-01T13:21:36.272Z</time></trkpt><trkpt lat="43.8536858" lon="7.4490019"><ele>490.0</ele><time>2026-05-01T13:21:37.272Z</time></trkpt><trkpt lat="43.8536302" lon="7.4492577"><ele>494.0</ele><time>2026-05-01T13:21:38.272Z</time></trkpt><trkpt lat="43.8535943" lon="7.4495145"><ele>496.3333333333333</ele><time>2026-05-01T13:21:39.272Z</time></trkpt><trkpt lat="43.8535686" lon="7.4497733"><ele>498.66666666666663</ele><time>2026-05-01T13:21:40.272Z</time></trkpt><trkpt lat="43.8535502" lon="7.4500303"><ele>501.0</ele><time>2026-05-01T13:21:41.272Z</time></trkpt><trkpt lat="43.8535311" lon="7.4502861"><ele>498.66666666666663</ele><time>2026-05-01T13:21:42.272Z</time></trkpt><trkpt lat="43.853508" lon="7.4505198"><ele>496.3333333333333</ele><time>2026-05-01T13:21:43.272Z</time></trkpt><trkpt lat="43.8534776" lon="7.4507352"><ele>494.0</ele><time>2026-05-01T13:21:44.273Z</time></trkpt><trkpt lat="43.8534363" lon="7.450926"><ele>494.0</ele><time>2026-05-01T13:21:45.272Z</time></trkpt><trkpt lat="43.8533763" lon="7.4510936"><ele>494.0</ele><time>2026-05-01T13:21:46.272Z</time></trkpt><trkpt lat="43.8532904" lon="7.4512233"><ele>494.0</ele><time>2026-05-01T13:21:47.272Z</time></trkpt><trkpt lat="43.8531719" lon="7.4513081"><ele>494.0</ele><time>2026-05-01T13:21:48.272Z</time></trkpt><trkpt lat="43.8530326" lon="7.4513306"><ele>494.0</ele><time>2026-05-01T13:21:49.272Z</time></trkpt><trkpt lat="43.8528786" lon="7.4513021"><ele>494.0</ele><time>2026-05-01T13:21:50.272Z</time></trkpt><trkpt lat="43.8527351" lon="7.4512189"><ele>494.0</ele><time>2026-05-01T13:21:51.272Z</time></trkpt><trkpt lat="43.8526102" lon="7.4510865"><ele>496.66666666666663</ele><time>2026-05-01T13:21:52.272Z</time></trkpt><trkpt lat="43.8524841" lon="7.4509324"><ele>499.33333333333337</ele><time>2026-05-01T13:21:53.272Z</time></trkpt><trkpt lat="43.8523612" lon="7.4507825"><ele>502.0</ele><time>2026-05-01T13:21:54.273Z</time></trkpt><trkpt lat="43.8520969" lon="7.4505518"><ele>502.0</ele><time>2026-05-01T13:21:56.272Z</time></trkpt><trkpt lat="43.8519499" lon="7.4504729"><ele>502.0</ele><time>2026-05-01T13:21:57.272Z</time></trkpt><trkpt lat="43.8517968" lon="7.450418"><ele>502.0</ele><time>2026-05-01T13:21:58.273Z</time></trkpt><trkpt lat="43.8516466" lon="7.4503715"><ele>500.6666666666667</ele><time>2026-05-01T13:21:59.272Z</time></trkpt><trkpt lat="43.8515015" lon="7.450319"><ele>499.33333333333337</ele><time>2026-05-01T13:22:00.272Z</time></trkpt><trkpt lat="43.8513537" lon="7.4502788"><ele>498.0</ele><time>2026-05-01T13:22:01.272Z</time></trkpt><trkpt lat="43.8511976" lon="7.450269"><ele>498.0</ele><time>2026-05-01T13:22:02.273Z</time></trkpt><trkpt lat="43.8510464" lon="7.4502943"><ele>498.0</ele><time>2026-05-01T13:22:03.272Z</time></trkpt><trkpt lat="43.8508992" lon="7.4503707"><ele>498.0</ele><time>2026-05-01T13:22:04.273Z</time></trkpt><trkpt lat="43.8507748" lon="7.4504805"><ele>508.0</ele><time>2026-05-01T13:22:05.272Z</time></trkpt><trkpt lat="43.8506298" lon="7.4506032"><ele>518.0</ele><time>2026-05-01T13:22:06.272Z</time></trkpt><trkpt lat="43.8504706" lon="7.4506939"><ele>528.0</ele><time>2026-05-01T13:22:07.272Z</time></trkpt><trkpt lat="43.8503114" lon="7.4507534"><ele>528.0</ele><time>2026-05-01T13:22:08.272Z</time></trkpt><trkpt lat="43.8501465" lon="7.4508074"><ele>528.0</ele><time>2026-05-01T13:22:09.273Z</time></trkpt><trkpt lat="43.8499773" lon="7.4508538"><ele>528.0</ele><time>2026-05-01T13:22:10.272Z</time></trkpt><trkpt lat="43.8498182" lon="7.4508925"><ele>525.25</ele><time>2026-05-01T13:22:11.272Z</time></trkpt><trkpt lat="43.8496674" lon="7.4509225"><ele>522.5</ele><time>2026-05-01T13:22:12.273Z</time></trkpt><trkpt lat="43.8495319" lon="7.4509616"><ele>519.75</ele><time>2026-05-01T13:22:13.272Z</time></trkpt><trkpt lat="43.849415" lon="7.4510178"><ele>517.0</ele><time>2026-05-01T13:22:14.272Z</time></trkpt><trkpt lat="43.8493121" lon="7.4511025"><ele>521.6666666666667</ele><time>2026-05-01T13:22:15.272Z</time></trkpt><trkpt lat="43.8492022" lon="7.4513839"><ele>526.3333333333334</ele><time>2026-05-01T13:22:17.272Z</time></trkpt><trkpt lat="43.849151" lon="7.4515481"><ele>531.0</ele><time>2026-05-01T13:22:18.272Z</time></trkpt><trkpt lat="43.8490632" lon="7.4516828"><ele>531.0</ele><time>2026-05-01T13:22:19.272Z</time></trkpt><trkpt lat="43.8489492" lon="7.4517703"><ele>531.0</ele><time>2026-05-01T13:22:20.272Z</time></trkpt><trkpt lat="43.8488082" lon="7.4518476"><ele>531.0</ele><time>2026-05-01T13:22:21.272Z</time></trkpt><trkpt lat="43.8486774" lon="7.4519321"><ele>531.0</ele><time>2026-05-01T13:22:22.273Z</time></trkpt><trkpt lat="43.8485619" lon="7.4520394"><ele>532.5</ele><time>2026-05-01T13:22:23.272Z</time></trkpt><trkpt lat="43.8484518" lon="7.4521473"><ele>534.0</ele><time>2026-05-01T13:22:24.272Z</time></trkpt><trkpt lat="43.8483388" lon="7.4522597"><ele>535.5</ele><time>2026-05-01T13:22:25.272Z</time></trkpt><trkpt lat="43.8482329" lon="7.4523718"><ele>537.0</ele><time>2026-05-01T13:22:26.273Z</time></trkpt><trkpt lat="43.8481228" lon="7.4524745"><ele>537.0</ele><time>2026-05-01T13:22:27.272Z</time></trkpt><trkpt lat="43.8479927" lon="7.4525546"><ele>537.0</ele><time>2026-05-01T13:22:28.272Z</time></trkpt><trkpt lat="43.8478605" lon="7.4526315"><ele>537.0</ele><time>2026-05-01T13:22:29.272Z</time></trkpt><trkpt lat="43.8477455" lon="7.4527073"><ele>537.0</ele><time>2026-05-01T13:22:30.272Z</time></trkpt><trkpt lat="43.8476233" lon="7.4527949"><ele>537.5</ele><time>2026-05-01T13:22:31.272Z</time></trkpt><trkpt lat="43.8475132" lon="7.452909"><ele>538.0</ele><time>2026-05-01T13:22:32.272Z</time></trkpt><trkpt lat="43.8474171" lon="7.4530264"><ele>538.5</ele><time>2026-05-01T13:22:33.272Z</time></trkpt><trkpt lat="43.8473246" lon="7.4531423"><ele>539.0</ele><time>2026-05-01T13:22:34.272Z</time></trkpt><trkpt lat="43.8472407" lon="7.4532576"><ele>539.0</ele><time>2026-05-01T13:22:35.272Z</time></trkpt><trkpt lat="43.8471777" lon="7.4534"><ele>539.0</ele><time>2026-05-01T13:22:36.272Z</time></trkpt><trkpt lat="43.8471148" lon="7.4537285"><ele>539.0</ele><time>2026-05-01T13:22:38.272Z</time></trkpt><trkpt lat="43.8471251" lon="7.4539258"><ele>541.25</ele><time>2026-05-01T13:22:39.272Z</time></trkpt><trkpt lat="43.8471473" lon="7.454132"><ele>543.5</ele><time>2026-05-01T13:22:40.272Z</time></trkpt><trkpt lat="43.8471684" lon="7.4543291"><ele>545.75</ele><time>2026-05-01T13:22:41.273Z</time></trkpt><trkpt lat="43.8472015" lon="7.4545162"><ele>548.0</ele><time>2026-05-01T13:22:42.272Z</time></trkpt><trkpt lat="43.8472421" lon="7.4546851"><ele>548.0</ele><time>2026-05-01T13:22:43.272Z</time></trkpt><trkpt lat="43.8472906" lon="7.4548244"><ele>548.0</ele><time>2026-05-01T13:22:44.272Z</time></trkpt><trkpt lat="43.8473446" lon="7.4549732"><ele>548.0</ele><time>2026-05-01T13:22:45.272Z</time></trkpt><trkpt lat="43.8473713" lon="7.4551245"><ele>548.0</ele><time>2026-05-01T13:22:46.272Z</time></trkpt><trkpt lat="43.8473596" lon="7.4552762"><ele>548.0</ele><time>2026-05-01T13:22:47.272Z</time></trkpt><trkpt lat="43.8473163" lon="7.4554121"><ele>548.0</ele><time>2026-05-01T13:22:48.272Z</time></trkpt><trkpt lat="43.847245" lon="7.4555186"><ele>548.0</ele><time>2026-05-01T13:22:49.272Z</time></trkpt><trkpt lat="43.847141" lon="7.455584"><ele>548.0</ele><time>2026-05-01T13:22:50.272Z</time></trkpt><trkpt lat="43.8470202" lon="7.455579"><ele>548.0</ele><time>2026-05-01T13:22:51.273Z</time></trkpt><trkpt lat="43.8468931" lon="7.4555179"><ele>546.75</ele><time>2026-05-01T13:22:52.272Z</time></trkpt><trkpt lat="43.8467821" lon="7.4554119"><ele>545.5</ele><time>2026-05-01T13:22:53.272Z</time></trkpt><trkpt lat="43.8466709" lon="7.4553033"><ele>544.25</ele><time>2026-05-01T13:22:54.272Z</time></trkpt><trkpt lat="43.846553" lon="7.4552144"><ele>543.0</ele><time>2026-05-01T13:22:55.273Z</time></trkpt><trkpt lat="43.8464263" lon="7.4551353"><ele>543.0</ele><time>2026-05-01T13:22:56.272Z</time></trkpt><trkpt lat="43.8462971" lon="7.4550767"><ele>543.0</ele><time>2026-05-01T13:22:57.272Z</time></trkpt><trkpt lat="43.846028" lon="7.4550002"><ele>543.0</ele><time>2026-05-01T13:22:59.272Z</time></trkpt><trkpt lat="43.8458986" lon="7.4549889"><ele>545.0</ele><time>2026-05-01T13:23:00.272Z</time></trkpt><trkpt lat="43.8457719" lon="7.4549945"><ele>547.0</ele><time>2026-05-01T13:23:01.272Z</time></trkpt><trkpt lat="43.8456403" lon="7.4550401"><ele>549.0</ele><time>2026-05-01T13:23:02.272Z</time></trkpt><trkpt lat="43.8455228" lon="7.4551246"><ele>551.0</ele><time>2026-05-01T13:23:03.273Z</time></trkpt><trkpt lat="43.8454063" lon="7.4552231"><ele>551.0</ele><time>2026-05-01T13:23:04.272Z</time></trkpt><trkpt lat="43.8452549" lon="7.4553043"><ele>551.0</ele><time>2026-05-01T13:23:05.272Z</time></trkpt><trkpt lat="43.8451005" lon="7.4553801"><ele>551.0</ele><time>2026-05-01T13:23:06.272Z</time></trkpt><trkpt lat="43.8449545" lon="7.4554397"><ele>560.6666666666666</ele><time>2026-05-01T13:23:07.272Z</time></trkpt><trkpt lat="43.8448167" lon="7.4554955"><ele>570.3333333333334</ele><time>2026-05-01T13:23:08.272Z</time></trkpt><trkpt lat="43.8446722" lon="7.455563"><ele>580.0</ele><time>2026-05-01T13:23:09.272Z</time></trkpt><trkpt lat="43.8445256" lon="7.4556276"><ele>580.0</ele><time>2026-05-01T13:23:10.272Z</time></trkpt><trkpt lat="43.8443831" lon="7.455696"><ele>580.0</ele><time>2026-05-01T13:23:11.272Z</time></trkpt><trkpt lat="43.8442431" lon="7.4557656"><ele>580.0</ele><time>2026-05-01T13:23:12.272Z</time></trkpt><trkpt lat="43.844103" lon="7.45585"><ele>578.5</ele><time>2026-05-01T13:23:13.272Z</time></trkpt><trkpt lat="43.8439638" lon="7.4559129"><ele>577.0</ele><time>2026-05-01T13:23:14.272Z</time></trkpt><trkpt lat="43.8438166" lon="7.455962"><ele>575.5</ele><time>2026-05-01T13:23:15.272Z</time></trkpt><trkpt lat="43.8436711" lon="7.455993"><ele>574.0</ele><time>2026-05-01T13:23:16.272Z</time></trkpt><trkpt lat="43.8435219" lon="7.4559905"><ele>574.3333333333334</ele><time>2026-05-01T13:23:17.272Z</time></trkpt><trkpt lat="43.8433696" lon="7.4559881"><ele>574.6666666666666</ele><time>2026-05-01T13:23:18.272Z</time></trkpt><trkpt lat="43.8430725" lon="7.4559901"><ele>575.0</ele><time>2026-05-01T13:23:20.272Z</time></trkpt><trkpt lat="43.8429428" lon="7.4559933"><ele>575.0</ele><time>2026-05-01T13:23:21.272Z</time></trkpt><trkpt lat="43.8428077" lon="7.4559994"><ele>575.0</ele><time>2026-05-01T13:23:22.273Z</time></trkpt><trkpt lat="43.8426756" lon="7.4560074"><ele>575.0</ele><time>2026-05-01T13:23:23.272Z</time></trkpt><trkpt lat="43.8425435" lon="7.4560219"><ele>575.0</ele><time>2026-05-01T13:23:24.272Z</time></trkpt><trkpt lat="43.8424143" lon="7.4560581"><ele>575.0</ele><time>2026-05-01T13:23:25.272Z</time></trkpt><trkpt lat="43.8422877" lon="7.4561116"><ele>575.0</ele><time>2026-05-01T13:23:26.272Z</time></trkpt><trkpt lat="43.842161" lon="7.4561681"><ele>575.0</ele><time>2026-05-01T13:23:27.273Z</time></trkpt><trkpt lat="43.8420316" lon="7.4562257"><ele>575.0</ele><time>2026-05-01T13:23:28.272Z</time></trkpt><trkpt lat="43.8419074" lon="7.4562801"><ele>584.25</ele><time>2026-05-01T13:23:29.273Z</time></trkpt><trkpt lat="43.8417754" lon="7.4563277"><ele>593.5</ele><time>2026-05-01T13:23:30.272Z</time></trkpt><trkpt lat="43.8416434" lon="7.4563771"><ele>602.75</ele><time>2026-05-01T13:23:31.272Z</time></trkpt><trkpt lat="43.8415121" lon="7.456429"><ele>612.0</ele><time>2026-05-01T13:23:32.272Z</time></trkpt><trkpt lat="43.8413807" lon="7.4564806"><ele>612.0</ele><time>2026-05-01T13:23:33.272Z</time></trkpt><trkpt lat="43.8412488" lon="7.4565323"><ele>612.0</ele><time>2026-05-01T13:23:34.273Z</time></trkpt><trkpt lat="43.8382117" lon="7.464515"><ele>602.0</ele><time>2026-05-01T13:24:19.274Z</time></trkpt><trkpt lat="43.8381186" lon="7.4648285"><ele>592.0</ele><time>2026-05-01T13:24:21.274Z</time></trkpt><trkpt lat="43.8380861" lon="7.4650065"><ele>582.0</ele><time>2026-05-01T13:24:22.274Z</time></trkpt><trkpt lat="43.8380337" lon="7.4651818"><ele>582.0</ele><time>2026-05-01T13:24:23.274Z</time></trkpt><trkpt lat="43.8379601" lon="7.4653408"><ele>582.0</ele><time>2026-05-01T13:24:24.274Z</time></trkpt><trkpt lat="43.837866" lon="7.4654897"><ele>582.0</ele><time>2026-05-01T13:24:25.274Z</time></trkpt><trkpt lat="43.8377592" lon="7.4656272"><ele>582.0</ele><time>2026-05-01T13:24:26.275Z</time></trkpt><trkpt lat="43.8376547" lon="7.465771"><ele>578.6666666666666</ele><time>2026-05-01T13:24:27.274Z</time></trkpt><trkpt lat="43.8375532" lon="7.4659279"><ele>575.3333333333333</ele><time>2026-05-01T13:24:28.274Z</time></trkpt><trkpt lat="43.8374435" lon="7.4660869"><ele>572.0</ele><time>2026-05-01T13:24:29.274Z</time></trkpt><trkpt lat="43.8373372" lon="7.466241"><ele>578.25</ele><time>2026-05-01T13:24:30.275Z</time></trkpt><trkpt lat="43.837241" lon="7.4663839"><ele>584.5</ele><time>2026-05-01T13:24:31.275Z</time></trkpt><trkpt lat="43.8371528" lon="7.4665376"><ele>590.75</ele><time>2026-05-01T13:24:32.274Z</time></trkpt><trkpt lat="43.8370832" lon="7.4666905"><ele>597.0</ele><time>2026-05-01T13:24:33.274Z</time></trkpt><trkpt lat="43.8370266" lon="7.4668436"><ele>597.0</ele><time>2026-05-01T13:24:34.274Z</time></trkpt><trkpt lat="43.8369595" lon="7.4669814"><ele>597.0</ele><time>2026-05-01T13:24:35.274Z</time></trkpt><trkpt lat="43.836865" lon="7.4670939"><ele>597.0</ele><time>2026-05-01T13:24:36.274Z</time></trkpt><trkpt lat="43.8367612" lon="7.4671597"><ele>597.0</ele><time>2026-05-01T13:24:37.275Z</time></trkpt><trkpt lat="43.8366504" lon="7.4671887"><ele>594.3333333333334</ele><time>2026-05-01T13:24:38.274Z</time></trkpt><trkpt lat="43.8365236" lon="7.4671811"><ele>591.6666666666667</ele><time>2026-05-01T13:24:39.274Z</time></trkpt><trkpt lat="43.8363932" lon="7.4671676"><ele>589.0</ele><time>2026-05-01T13:24:40.274Z</time></trkpt><trkpt lat="43.8361263" lon="7.4672387"><ele>589.0</ele><time>2026-05-01T13:24:42.274Z</time></trkpt><trkpt lat="43.836009" lon="7.4673175"><ele>589.0</ele><time>2026-05-01T13:24:43.274Z</time></trkpt><trkpt lat="43.8359005" lon="7.4674325"><ele>589.0</ele><time>2026-05-01T13:24:44.274Z</time></trkpt><trkpt lat="43.8358022" lon="7.4675653"><ele>589.0</ele><time>2026-05-01T13:24:45.274Z</time></trkpt><trkpt lat="43.8357146" lon="7.4677017"><ele>589.75</ele><time>2026-05-01T13:24:46.274Z</time></trkpt><trkpt lat="43.8356253" lon="7.4678471"><ele>590.5</ele><time>2026-05-01T13:24:47.274Z</time></trkpt><trkpt lat="43.8355386" lon="7.468003"><ele>591.25</ele><time>2026-05-01T13:24:48.274Z</time></trkpt><trkpt lat="43.835457" lon="7.468162"><ele>592.0</ele><time>2026-05-01T13:24:49.274Z</time></trkpt><trkpt lat="43.8353746" lon="7.4683202"><ele>592.0</ele><time>2026-05-01T13:24:50.274Z</time></trkpt><trkpt lat="43.8352905" lon="7.4684658"><ele>592.0</ele><time>2026-05-01T13:24:51.274Z</time></trkpt><trkpt lat="43.8352188" lon="7.468608"><ele>592.0</ele><time>2026-05-01T13:24:52.274Z</time></trkpt><trkpt lat="43.8351475" lon="7.4687504"><ele>592.0</ele><time>2026-05-01T13:24:53.274Z</time></trkpt><trkpt lat="43.8350767" lon="7.4688873"><ele>586.8000000000001</ele><time>2026-05-01T13:24:54.274Z</time></trkpt><trkpt lat="43.8350029" lon="7.4690112"><ele>581.6</ele><time>2026-05-01T13:24:55.274Z</time></trkpt><trkpt lat="43.8349301" lon="7.4691343"><ele>576.4000000000001</ele><time>2026-05-01T13:24:56.275Z</time></trkpt><trkpt lat="43.8348536" lon="7.4692406"><ele>571.2</ele><time>2026-05-01T13:24:57.274Z</time></trkpt><trkpt lat="43.8347784" lon="7.4693356"><ele>566.0</ele><time>2026-05-01T13:24:58.274Z</time></trkpt><trkpt lat="43.8347101" lon="7.4694257"><ele>566.0</ele><time>2026-05-01T13:24:59.274Z</time></trkpt><trkpt lat="43.8346614" lon="7.4695171"><ele>566.0</ele><time>2026-05-01T13:25:00.274Z</time></trkpt><trkpt lat="43.8346412" lon="7.4696125"><ele>566.0</ele><time>2026-05-01T13:25:01.274Z</time></trkpt><trkpt lat="43.8346849" lon="7.4698177"><ele>566.0</ele><time>2026-05-01T13:25:03.274Z</time></trkpt><trkpt lat="43.8347437" lon="7.4698932"><ele>566.0</ele><time>2026-05-01T13:25:04.274Z</time></trkpt><trkpt lat="43.8348121" lon="7.4699717"><ele>565.6</ele><time>2026-05-01T13:25:05.275Z</time></trkpt><trkpt lat="43.8348847" lon="7.4700698"><ele>565.2</ele><time>2026-05-01T13:25:06.274Z</time></trkpt><trkpt lat="43.8349436" lon="7.4701853"><ele>564.8</ele><time>2026-05-01T13:25:07.275Z</time></trkpt><trkpt lat="43.8349778" lon="7.470314"><ele>564.4</ele><time>2026-05-01T13:25:08.274Z</time></trkpt><trkpt lat="43.8350163" lon="7.4704444"><ele>564.0</ele><time>2026-05-01T13:25:09.275Z</time></trkpt><trkpt lat="43.8350536" lon="7.4705593"><ele>564.0</ele><time>2026-05-01T13:25:10.274Z</time></trkpt><trkpt lat="43.8350887" lon="7.4706565"><ele>564.0</ele><time>2026-05-01T13:25:11.274Z</time></trkpt><trkpt lat="43.8351207" lon="7.4707421"><ele>564.0</ele><time>2026-05-01T13:25:12.274Z</time></trkpt><trkpt lat="43.835133" lon="7.4709148"><ele>564.0</ele><time>2026-05-01T13:25:14.274Z</time></trkpt><trkpt lat="43.8350564" lon="7.4710014"><ele>564.0</ele><time>2026-05-01T13:25:16.274Z</time></trkpt><trkpt lat="43.8349177" lon="7.4709731"><ele>564.0</ele><time>2026-05-01T13:25:18.274Z</time></trkpt><trkpt lat="43.8348159" lon="7.4709095"><ele>564.0</ele><time>2026-05-01T13:25:19.274Z</time></trkpt><trkpt lat="43.8346928" lon="7.4708545"><ele>564.0</ele><time>2026-05-01T13:25:20.274Z</time></trkpt><trkpt lat="43.8345711" lon="7.4708471"><ele>564.0</ele><time>2026-05-01T13:25:21.274Z</time></trkpt><trkpt lat="43.8344587" lon="7.4708814"><ele>557.75</ele><time>2026-05-01T13:25:22.274Z</time></trkpt><trkpt lat="43.8342529" lon="7.4710139"><ele>551.5</ele><time>2026-05-01T13:25:24.275Z</time></trkpt><trkpt lat="43.8341542" lon="7.4710716"><ele>545.25</ele><time>2026-05-01T13:25:25.274Z</time></trkpt><trkpt lat="43.8340558" lon="7.4711161"><ele>539.0</ele><time>2026-05-01T13:25:26.274Z</time></trkpt><trkpt lat="43.8339619" lon="7.4711569"><ele>539.0</ele><time>2026-05-01T13:25:27.274Z</time></trkpt><trkpt lat="43.8338643" lon="7.471193"><ele>539.0</ele><time>2026-05-01T13:25:28.274Z</time></trkpt><trkpt lat="43.8337792" lon="7.4712238"><ele>539.0</ele><time>2026-05-01T13:25:29.274Z</time></trkpt><trkpt lat="43.8336982" lon="7.4712464"><ele>539.0</ele><time>2026-05-01T13:25:30.275Z</time></trkpt><trkpt lat="43.8336226" lon="7.4712627"><ele>539.0</ele><time>2026-05-01T13:25:31.274Z</time></trkpt><trkpt lat="43.8335476" lon="7.4712794"><ele>539.0</ele><time>2026-05-01T13:25:32.274Z</time></trkpt><trkpt lat="43.83347" lon="7.4712788"><ele>540.4</ele><time>2026-05-01T13:25:33.274Z</time></trkpt><trkpt lat="43.8333878" lon="7.4712677"><ele>541.8</ele><time>2026-05-01T13:25:34.274Z</time></trkpt><trkpt lat="43.8332962" lon="7.4712595"><ele>543.2</ele><time>2026-05-01T13:25:35.274Z</time></trkpt><trkpt lat="43.833192" lon="7.4712729"><ele>544.6</ele><time>2026-05-01T13:25:36.275Z</time></trkpt><trkpt lat="43.8330924" lon="7.4712998"><ele>546.0</ele><time>2026-05-01T13:25:37.274Z</time></trkpt><trkpt lat="43.8329996" lon="7.4713378"><ele>546.0</ele><time>2026-05-01T13:25:38.274Z</time></trkpt><trkpt lat="43.8329162" lon="7.4713798"><ele>546.0</ele><time>2026-05-01T13:25:39.274Z</time></trkpt><trkpt lat="43.8328457" lon="7.4714379"><ele>546.0</ele><time>2026-05-01T13:25:40.274Z</time></trkpt><trkpt lat="43.8327858" lon="7.4714937"><ele>546.0</ele><time>2026-05-01T13:25:41.274Z</time></trkpt><trkpt lat="43.8327418" lon="7.4715651"><ele>546.0</ele><time>2026-05-01T13:25:42.275Z</time></trkpt><trkpt lat="43.8326745" lon="7.4716894"><ele>546.0</ele><time>2026-05-01T13:25:44.274Z</time></trkpt><trkpt lat="43.8325938" lon="7.471599"><ele>546.0</ele><time>2026-05-01T13:25:48.275Z</time></trkpt><trkpt lat="43.8326983" lon="7.4714566"><ele>546.0</ele><time>2026-05-01T13:25:50.275Z</time></trkpt><trkpt lat="43.8327843" lon="7.4713657"><ele>546.0</ele><time>2026-05-01T13:25:51.274Z</time></trkpt><trkpt lat="43.8328668" lon="7.4712728"><ele>546.0</ele><time>2026-05-01T13:25:52.274Z</time></trkpt><trkpt lat="43.8329456" lon="7.4711865"><ele>540.2</ele><time>2026-05-01T13:25:53.274Z</time></trkpt><trkpt lat="43.8330276" lon="7.4711153"><ele>534.4000000000001</ele><time>2026-05-01T13:25:54.274Z</time></trkpt><trkpt lat="43.8331143" lon="7.4710563"><ele>528.6</ele><time>2026-05-01T13:25:55.275Z</time></trkpt><trkpt lat="43.8332073" lon="7.4710114"><ele>522.8000000000001</ele><time>2026-05-01T13:25:56.274Z</time></trkpt><trkpt lat="43.833306" lon="7.4709758"><ele>517.0</ele><time>2026-05-01T13:25:57.275Z</time></trkpt><trkpt lat="43.8334096" lon="7.4709447"><ele>521.4</ele><time>2026-05-01T13:25:58.275Z</time></trkpt><trkpt lat="43.833513" lon="7.4709379"><ele>525.8000000000001</ele><time>2026-05-01T13:25:59.274Z</time></trkpt><trkpt lat="43.8336133" lon="7.4709182"><ele>530.2</ele><time>2026-05-01T13:26:00.274Z</time></trkpt><trkpt lat="43.8337057" lon="7.4708828"><ele>534.6</ele><time>2026-05-01T13:26:01.275Z</time></trkpt><trkpt lat="43.8337876" lon="7.4708395"><ele>539.0</ele><time>2026-05-01T13:26:02.274Z</time></trkpt><trkpt lat="43.8338623" lon="7.4707899"><ele>539.0</ele><time>2026-05-01T13:26:03.274Z</time></trkpt><trkpt lat="43.8339333" lon="7.470761"><ele>539.0</ele><time>2026-05-01T13:26:04.274Z</time></trkpt><trkpt lat="43.8339971" lon="7.4707248"><ele>539.0</ele><time>2026-05-01T13:26:05.274Z</time></trkpt><trkpt lat="43.8341407" lon="7.4705847"><ele>539.0</ele><time>2026-05-01T13:26:08.274Z</time></trkpt><trkpt lat="43.8341589" lon="7.4704545"><ele>539.0</ele><time>2026-05-01T13:26:10.274Z</time></trkpt><trkpt lat="43.8340953" lon="7.470399"><ele>539.0</ele><time>2026-05-01T13:26:12.274Z</time></trkpt><trkpt lat="43.8340224" lon="7.4704409"><ele>539.0</ele><time>2026-05-01T13:26:13.274Z</time></trkpt><trkpt lat="43.8339203" lon="7.4705295"><ele>539.0</ele><time>2026-05-01T13:26:14.274Z</time></trkpt><trkpt lat="43.8338027" lon="7.4706114"><ele>539.0</ele><time>2026-05-01T13:26:15.274Z</time></trkpt><trkpt lat="43.8336899" lon="7.4706781"><ele>539.0</ele><time>2026-05-01T13:26:16.275Z</time></trkpt><trkpt lat="43.8335872" lon="7.4707252"><ele>539.0</ele><time>2026-05-01T13:26:17.274Z</time></trkpt><trkpt lat="43.8334801" lon="7.4707511"><ele>539.0</ele><time>2026-05-01T13:26:18.274Z</time></trkpt><trkpt lat="43.8333626" lon="7.4707626"><ele>539.0</ele><time>2026-05-01T13:26:19.274Z</time></trkpt><trkpt lat="43.833242" lon="7.4707625"><ele>534.6</ele><time>2026-05-01T13:26:20.274Z</time></trkpt><trkpt lat="43.833123" lon="7.4707701"><ele>530.2</ele><time>2026-05-01T13:26:21.274Z</time></trkpt><trkpt lat="43.833018" lon="7.4707769"><ele>525.8000000000001</ele><time>2026-05-01T13:26:22.274Z</time></trkpt><trkpt lat="43.8329163" lon="7.4707927"><ele>521.4</ele><time>2026-05-01T13:26:23.274Z</time></trkpt><trkpt lat="43.8328334" lon="7.4708132"><ele>517.0</ele><time>2026-05-01T13:26:24.274Z</time></trkpt><trkpt lat="43.8327712" lon="7.4708381"><ele>517.0</ele><time>2026-05-01T13:26:25.274Z</time></trkpt><trkpt lat="43.8326987" lon="7.4708831"><ele>517.0</ele><time>2026-05-01T13:26:27.274Z</time></trkpt><trkpt lat="43.8325435" lon="7.4709655"><ele>517.0</ele><time>2026-05-01T13:26:33.274Z</time></trkpt><trkpt lat="43.8324772" lon="7.4709984"><ele>517.0</ele><time>2026-05-01T13:27:17.275Z</time></trkpt><trkpt lat="43.8323096" lon="7.4711381"><ele>517.5714285714286</ele><time>2026-05-01T13:27:21.274Z</time></trkpt><trkpt lat="43.8322578" lon="7.471199"><ele>518.1428571428572</ele><time>2026-05-01T13:27:22.274Z</time></trkpt><trkpt lat="43.832213" lon="7.4712661"><ele>518.7142857142858</ele><time>2026-05-01T13:27:23.274Z</time></trkpt><trkpt lat="43.832168" lon="7.4713467"><ele>519.2857142857143</ele><time>2026-05-01T13:27:24.274Z</time></trkpt><trkpt lat="43.8321233" lon="7.4714356"><ele>519.8571428571429</ele><time>2026-05-01T13:27:25.274Z</time></trkpt><trkpt lat="43.8320859" lon="7.471523"><ele>520.4285714285714</ele><time>2026-05-01T13:27:26.274Z</time></trkpt><trkpt lat="43.8320574" lon="7.4716106"><ele>521.0</ele><time>2026-05-01T13:27:27.274Z</time></trkpt><trkpt lat="43.8320416" lon="7.4717016"><ele>521.0</ele><time>2026-05-01T13:27:28.274Z</time></trkpt><trkpt lat="43.8320349" lon="7.4717916"><ele>521.0</ele><time>2026-05-01T13:27:29.274Z</time></trkpt><trkpt lat="43.8320475" lon="7.4718789"><ele>521.0</ele><time>2026-05-01T13:27:30.274Z</time></trkpt><trkpt lat="43.8320718" lon="7.4719604"><ele>521.0</ele><time>2026-05-01T13:27:31.274Z</time></trkpt><trkpt lat="43.8321012" lon="7.4720413"><ele>521.0</ele><time>2026-05-01T13:27:32.274Z</time></trkpt><trkpt lat="43.8321378" lon="7.4721257"><ele>521.0</ele><time>2026-05-01T13:27:33.275Z</time></trkpt><trkpt lat="43.8321797" lon="7.4722047"><ele>521.0</ele><time>2026-05-01T13:27:34.274Z</time></trkpt><trkpt lat="43.8322262" lon="7.472293"><ele>520.4</ele><time>2026-05-01T13:27:35.274Z</time></trkpt><trkpt lat="43.8322589" lon="7.4723972"><ele>519.8</ele><time>2026-05-01T13:27:36.274Z</time></trkpt><trkpt lat="43.8322771" lon="7.4725192"><ele>519.1999999999999</ele><time>2026-05-01T13:27:37.274Z</time></trkpt><trkpt lat="43.832276" lon="7.472647"><ele>518.6</ele><time>2026-05-01T13:27:38.275Z</time></trkpt><trkpt lat="43.8322344" lon="7.4728972"><ele>518.0</ele><time>2026-05-01T13:27:40.274Z</time></trkpt><trkpt lat="43.8321978" lon="7.4730201"><ele>519.1999999999999</ele><time>2026-05-01T13:27:41.274Z</time></trkpt><trkpt lat="43.8321454" lon="7.4731404"><ele>520.4</ele><time>2026-05-01T13:27:42.274Z</time></trkpt><trkpt lat="43.8320863" lon="7.4732466"><ele>521.5999999999999</ele><time>2026-05-01T13:27:43.274Z</time></trkpt><trkpt lat="43.8320219" lon="7.4733552"><ele>522.8</ele><time>2026-05-01T13:27:44.274Z</time></trkpt><trkpt lat="43.8319505" lon="7.4734545"><ele>524.0</ele><time>2026-05-01T13:27:45.274Z</time></trkpt><trkpt lat="43.8318752" lon="7.4735284"><ele>515.0</ele><time>2026-05-01T13:27:46.274Z</time></trkpt><trkpt lat="43.8317704" lon="7.4736045"><ele>506.0</ele><time>2026-05-01T13:27:47.274Z</time></trkpt><trkpt lat="43.8316578" lon="7.4736687"><ele>497.0</ele><time>2026-05-01T13:27:48.274Z</time></trkpt><trkpt lat="43.8315433" lon="7.4737283"><ele>488.0</ele><time>2026-05-01T13:27:49.274Z</time></trkpt><trkpt lat="43.8314165" lon="7.4737717"><ele>496.0</ele><time>2026-05-01T13:27:50.274Z</time></trkpt><trkpt lat="43.8312963" lon="7.4738148"><ele>504.0</ele><time>2026-05-01T13:27:51.274Z</time></trkpt><trkpt lat="43.8311824" lon="7.4738804"><ele>512.0</ele><time>2026-05-01T13:27:52.274Z</time></trkpt><trkpt lat="43.8310857" lon="7.4739678"><ele>520.0</ele><time>2026-05-01T13:27:53.275Z</time></trkpt><trkpt lat="43.831002" lon="7.4740641"><ele>518.0</ele><time>2026-05-01T13:27:54.275Z</time></trkpt><trkpt lat="43.8309305" lon="7.4741886"><ele>516.0</ele><time>2026-05-01T13:27:55.274Z</time></trkpt><trkpt lat="43.8308747" lon="7.4743164"><ele>514.0</ele><time>2026-05-01T13:27:56.274Z</time></trkpt><trkpt lat="43.8308211" lon="7.4744397"><ele>512.0</ele><time>2026-05-01T13:27:57.274Z</time></trkpt><trkpt lat="43.8307634" lon="7.4745603"><ele>510.0</ele><time>2026-05-01T13:27:58.274Z</time></trkpt><trkpt lat="43.8307013" lon="7.4746861"><ele>510.0</ele><time>2026-05-01T13:27:59.274Z</time></trkpt><trkpt lat="43.8305702" lon="7.4749734"><ele>510.0</ele><time>2026-05-01T13:28:01.274Z</time></trkpt><trkpt lat="43.8304982" lon="7.4751247"><ele>510.0</ele><time>2026-05-01T13:28:02.274Z</time></trkpt><trkpt lat="43.8304259" lon="7.4752729"><ele>510.0</ele><time>2026-05-01T13:28:03.274Z</time></trkpt><trkpt lat="43.8303549" lon="7.4754185"><ele>510.0</ele><time>2026-05-01T13:28:04.274Z</time></trkpt><trkpt lat="43.8302823" lon="7.4755645"><ele>510.0</ele><time>2026-05-01T13:28:05.274Z</time></trkpt><trkpt lat="43.8302219" lon="7.4757131"><ele>510.0</ele><time>2026-05-01T13:28:06.274Z</time></trkpt><trkpt lat="43.8301824" lon="7.475868"><ele>512.75</ele><time>2026-05-01T13:28:07.274Z</time></trkpt><trkpt lat="43.83016" lon="7.4760315"><ele>515.5</ele><time>2026-05-01T13:28:08.274Z</time></trkpt><trkpt lat="43.8301506" lon="7.4761986"><ele>518.25</ele><time>2026-05-01T13:28:09.274Z</time></trkpt><trkpt lat="43.8301316" lon="7.4763637"><ele>521.0</ele><time>2026-05-01T13:28:10.274Z</time></trkpt><trkpt lat="43.8301168" lon="7.4765237"><ele>510.20000000000005</ele><time>2026-05-01T13:28:11.274Z</time></trkpt><trkpt lat="43.8301061" lon="7.4766775"><ele>499.40000000000003</ele><time>2026-05-01T13:28:12.274Z</time></trkpt><trkpt lat="43.8300994" lon="7.4768332"><ele>488.6</ele><time>2026-05-01T13:28:13.274Z</time></trkpt><trkpt lat="43.8300917" lon="7.4769797"><ele>477.8</ele><time>2026-05-01T13:28:14.274Z</time></trkpt><trkpt lat="43.8300984" lon="7.4771284"><ele>467.0</ele><time>2026-05-01T13:28:15.275Z</time></trkpt><trkpt lat="43.830131" lon="7.4772809"><ele>472.0</ele><time>2026-05-01T13:28:16.274Z</time></trkpt><trkpt lat="43.8301759" lon="7.4774183"><ele>477.00000000000006</ele><time>2026-05-01T13:28:17.274Z</time></trkpt><trkpt lat="43.8302367" lon="7.4775481"><ele>482.00000000000006</ele><time>2026-05-01T13:28:18.274Z</time></trkpt><trkpt lat="43.8303114" lon="7.4776631"><ele>487.0</ele><time>2026-05-01T13:28:19.274Z</time></trkpt><trkpt lat="43.8303784" lon="7.4777758"><ele>492.0</ele><time>2026-05-01T13:28:20.274Z</time></trkpt><trkpt lat="43.8304365" lon="7.4780692"><ele>492.0</ele><time>2026-05-01T13:28:22.274Z</time></trkpt><trkpt lat="43.8304162" lon="7.4782449"><ele>492.0</ele><time>2026-05-01T13:28:23.274Z</time></trkpt><trkpt lat="43.8303736" lon="7.4784114"><ele>492.0</ele><time>2026-05-01T13:28:24.274Z</time></trkpt><trkpt lat="43.8303185" lon="7.4785613"><ele>492.0</ele><time>2026-05-01T13:28:25.274Z</time></trkpt><trkpt lat="43.8302543" lon="7.4786893"><ele>494.6</ele><time>2026-05-01T13:28:26.275Z</time></trkpt><trkpt lat="43.8301689" lon="7.4787821"><ele>497.20000000000005</ele><time>2026-05-01T13:28:27.275Z</time></trkpt><trkpt lat="43.830067" lon="7.478833"><ele>499.8</ele><time>2026-05-01T13:28:28.274Z</time></trkpt><trkpt lat="43.8299518" lon="7.4788522"><ele>502.4</ele><time>2026-05-01T13:28:29.274Z</time></trkpt><trkpt lat="43.8298368" lon="7.4788606"><ele>505.0</ele><time>2026-05-01T13:28:30.274Z</time></trkpt><trkpt lat="43.8297316" lon="7.4788811"><ele>499.4</ele><time>2026-05-01T13:28:31.274Z</time></trkpt><trkpt lat="43.8296402" lon="7.4789592"><ele>493.8</ele><time>2026-05-01T13:28:32.274Z</time></trkpt><trkpt lat="43.829564" lon="7.4790534"><ele>488.20000000000005</ele><time>2026-05-01T13:28:33.275Z</time></trkpt><trkpt lat="43.8295147" lon="7.4791852"><ele>482.6</ele><time>2026-05-01T13:28:34.274Z</time></trkpt><trkpt lat="43.8294842" lon="7.4793262"><ele>477.0</ele><time>2026-05-01T13:28:35.274Z</time></trkpt><trkpt lat="43.8294602" lon="7.4794688"><ele>480.25</ele><time>2026-05-01T13:28:36.274Z</time></trkpt><trkpt lat="43.8294337" lon="7.4796234"><ele>483.5</ele><time>2026-05-01T13:28:37.274Z</time></trkpt><trkpt lat="43.8294162" lon="7.4797858"><ele>486.75</ele><time>2026-05-01T13:28:38.274Z</time></trkpt><trkpt lat="43.829402" lon="7.4799471"><ele>490.0</ele><time>2026-05-01T13:28:39.274Z</time></trkpt><trkpt lat="43.8293903" lon="7.4801115"><ele>490.0</ele><time>2026-05-01T13:28:40.275Z</time></trkpt><trkpt lat="43.8293695" lon="7.4802675"><ele>490.0</ele><time>2026-05-01T13:28:41.274Z</time></trkpt><trkpt lat="43.8292636" lon="7.4805415"><ele>490.0</ele><time>2026-05-01T13:28:43.274Z</time></trkpt><trkpt lat="43.8291885" lon="7.480649"><ele>490.0</ele><time>2026-05-01T13:28:44.274Z</time></trkpt><trkpt lat="43.8291076" lon="7.4807375"><ele>484.0</ele><time>2026-05-01T13:28:45.274Z</time></trkpt><trkpt lat="43.8290285" lon="7.4808261"><ele>478.0</ele><time>2026-05-01T13:28:46.274Z</time></trkpt><trkpt lat="43.8289455" lon="7.4809067"><ele>472.0</ele><time>2026-05-01T13:28:47.274Z</time></trkpt><trkpt lat="43.8288653" lon="7.4809832"><ele>466.0</ele><time>2026-05-01T13:28:48.274Z</time></trkpt><trkpt lat="43.8287992" lon="7.4810549"><ele>460.0</ele><time>2026-05-01T13:28:49.274Z</time></trkpt><trkpt lat="43.8287351" lon="7.4811228"><ele>460.00000000000006</ele><time>2026-05-01T13:28:50.274Z</time></trkpt><trkpt lat="43.8286734" lon="7.4811856"><ele>460.0</ele><time>2026-05-01T13:28:51.274Z</time></trkpt><trkpt lat="43.8286148" lon="7.4812339"><ele>460.0</ele><time>2026-05-01T13:28:52.274Z</time></trkpt><trkpt lat="43.8285159" lon="7.4813124"><ele>460.0</ele><time>2026-05-01T13:28:54.274Z</time></trkpt><trkpt lat="43.8284339" lon="7.4812799"><ele>460.00000000000006</ele><time>2026-05-01T13:28:56.274Z</time></trkpt><trkpt lat="43.8284517" lon="7.4811486"><ele>460.0</ele><time>2026-05-01T13:28:58.274Z</time></trkpt><trkpt lat="43.828519" lon="7.4810788"><ele>460.0</ele><time>2026-05-01T13:28:59.274Z</time></trkpt><trkpt lat="43.8286076" lon="7.4810054"><ele>460.0</ele><time>2026-05-01T13:29:00.274Z</time></trkpt><trkpt lat="43.8286955" lon="7.4809283"><ele>460.0</ele><time>2026-05-01T13:29:01.274Z</time></trkpt><trkpt lat="43.8287781" lon="7.480854"><ele>460.0</ele><time>2026-05-01T13:29:02.274Z</time></trkpt><trkpt lat="43.8289071" lon="7.4806746"><ele>460.0</ele><time>2026-05-01T13:29:04.274Z</time></trkpt><trkpt lat="43.828956" lon="7.4805651"><ele>460.0</ele><time>2026-05-01T13:29:05.274Z</time></trkpt><trkpt lat="43.8289928" lon="7.4804455"><ele>460.0</ele><time>2026-05-01T13:29:06.274Z</time></trkpt><trkpt lat="43.8290271" lon="7.480314"><ele>460.0</ele><time>2026-05-01T13:29:07.275Z</time></trkpt><trkpt lat="43.8290502" lon="7.4801728"><ele>460.0</ele><time>2026-05-01T13:29:08.275Z</time></trkpt><trkpt lat="43.8290655" lon="7.4800259"><ele>457.0</ele><time>2026-05-01T13:29:09.274Z</time></trkpt><trkpt lat="43.8290863" lon="7.47987"><ele>454.0</ele><time>2026-05-01T13:29:10.275Z</time></trkpt><trkpt lat="43.8291187" lon="7.479715"><ele>451.0</ele><time>2026-05-01T13:29:11.274Z</time></trkpt><trkpt lat="43.8291496" lon="7.4795579"><ele>448.0</ele><time>2026-05-01T13:29:12.274Z</time></trkpt><trkpt lat="43.8291865" lon="7.4794108"><ele>445.79999999999995</ele><time>2026-05-01T13:29:13.274Z</time></trkpt><trkpt lat="43.8292203" lon="7.4792711"><ele>443.59999999999997</ele><time>2026-05-01T13:29:14.274Z</time></trkpt><trkpt lat="43.8292508" lon="7.479133"><ele>441.40000000000003</ele><time>2026-05-01T13:29:15.274Z</time></trkpt><trkpt lat="43.8292609" lon="7.4790036"><ele>439.20000000000005</ele><time>2026-05-01T13:29:16.274Z</time></trkpt><trkpt lat="43.8292522" lon="7.4788745"><ele>437.0</ele><time>2026-05-01T13:29:17.274Z</time></trkpt><trkpt lat="43.829225" lon="7.4787552"><ele>433.8</ele><time>2026-05-01T13:29:18.275Z</time></trkpt><trkpt lat="43.829185" lon="7.4786302"><ele>430.6</ele><time>2026-05-01T13:29:19.274Z</time></trkpt><trkpt lat="43.8291474" lon="7.4785112"><ele>427.40000000000003</ele><time>2026-05-01T13:29:20.274Z</time></trkpt><trkpt lat="43.8291281" lon="7.47839"><ele>424.20000000000005</ele><time>2026-05-01T13:29:21.274Z</time></trkpt><trkpt lat="43.8291405" lon="7.4782701"><ele>421.0</ele><time>2026-05-01T13:29:22.274Z</time></trkpt><trkpt lat="43.8291787" lon="7.4781621"><ele>430.20000000000005</ele><time>2026-05-01T13:29:23.275Z</time></trkpt><trkpt lat="43.829324" lon="7.4780388"><ele>439.40000000000003</ele><time>2026-05-01T13:29:25.274Z</time></trkpt><trkpt lat="43.8294137" lon="7.4780005"><ele>448.6</ele><time>2026-05-01T13:29:26.274Z</time></trkpt><trkpt lat="43.8294985" lon="7.4779415"><ele>457.8</ele><time>2026-05-01T13:29:27.274Z</time></trkpt><trkpt lat="43.8295676" lon="7.4778614"><ele>467.0</ele><time>2026-05-01T13:29:28.274Z</time></trkpt><trkpt lat="43.8296191" lon="7.4777657"><ele>467.0</ele><time>2026-05-01T13:29:29.274Z</time></trkpt><trkpt lat="43.82964" lon="7.4776239"><ele>467.0</ele><time>2026-05-01T13:29:30.274Z</time></trkpt><trkpt lat="43.8296238" lon="7.4774491"><ele>467.0</ele><time>2026-05-01T13:29:31.274Z</time></trkpt><trkpt lat="43.8296012" lon="7.4772713"><ele>467.0</ele><time>2026-05-01T13:29:32.275Z</time></trkpt><trkpt lat="43.829602" lon="7.4770834"><ele>467.0</ele><time>2026-05-01T13:29:33.274Z</time></trkpt><trkpt lat="43.8296034" lon="7.4769088"><ele>467.0</ele><time>2026-05-01T13:29:34.274Z</time></trkpt><trkpt lat="43.8295893" lon="7.4767446"><ele>467.0</ele><time>2026-05-01T13:29:35.274Z</time></trkpt><trkpt lat="43.8295657" lon="7.4765852"><ele>467.0</ele><time>2026-05-01T13:29:36.274Z</time></trkpt><trkpt lat="43.8295378" lon="7.4764407"><ele>467.0</ele><time>2026-05-01T13:29:37.274Z</time></trkpt><trkpt lat="43.8295163" lon="7.4763081"><ele>467.00000000000006</ele><time>2026-05-01T13:29:38.274Z</time></trkpt><trkpt lat="43.8295036" lon="7.4761588"><ele>467.00000000000006</ele><time>2026-05-01T13:29:39.274Z</time></trkpt><trkpt lat="43.8294917" lon="7.4759954"><ele>467.0</ele><time>2026-05-01T13:29:40.274Z</time></trkpt><trkpt lat="43.8294837" lon="7.4758301"><ele>467.0</ele><time>2026-05-01T13:29:41.274Z</time></trkpt><trkpt lat="43.8294697" lon="7.4756702"><ele>466.0</ele><time>2026-05-01T13:29:42.274Z</time></trkpt><trkpt lat="43.8294572" lon="7.47551"><ele>465.0</ele><time>2026-05-01T13:29:43.274Z</time></trkpt><trkpt lat="43.8294547" lon="7.4753416"><ele>464.0</ele><time>2026-05-01T13:29:44.274Z</time></trkpt><trkpt lat="43.8294672" lon="7.4750243"><ele>461.4</ele><time>2026-05-01T13:29:46.274Z</time></trkpt><trkpt lat="43.8294778" lon="7.4748695"><ele>458.79999999999995</ele><time>2026-05-01T13:29:47.274Z</time></trkpt><trkpt lat="43.8294945" lon="7.4747156"><ele>456.20000000000005</ele><time>2026-05-01T13:29:48.274Z</time></trkpt><trkpt lat="43.8295222" lon="7.4745729"><ele>453.6</ele><time>2026-05-01T13:29:49.274Z</time></trkpt><trkpt lat="43.8295603" lon="7.474432"><ele>451.0</ele><time>2026-05-01T13:29:50.274Z</time></trkpt><trkpt lat="43.8296025" lon="7.4742953"><ele>447.8</ele><time>2026-05-01T13:29:51.274Z</time></trkpt><trkpt lat="43.8296519" lon="7.4741654"><ele>444.6</ele><time>2026-05-01T13:29:52.274Z</time></trkpt><trkpt lat="43.8296979" lon="7.4740422"><ele>441.4</ele><time>2026-05-01T13:29:53.274Z</time></trkpt><trkpt lat="43.829742" lon="7.4739303"><ele>438.2</ele><time>2026-05-01T13:29:54.274Z</time></trkpt><trkpt lat="43.8297792" lon="7.47382"><ele>435.0</ele><time>2026-05-01T13:29:55.274Z</time></trkpt><trkpt lat="43.8298149" lon="7.4737096"><ele>434.4</ele><time>2026-05-01T13:29:56.274Z</time></trkpt><trkpt lat="43.8298232" lon="7.4736165"><ele>433.8</ele><time>2026-05-01T13:29:57.275Z</time></trkpt><trkpt lat="43.8297656" lon="7.4734818"><ele>433.20000000000005</ele><time>2026-05-01T13:29:59.274Z</time></trkpt><trkpt lat="43.8296981" lon="7.473461"><ele>432.6</ele><time>2026-05-01T13:30:00.274Z</time></trkpt><trkpt lat="43.8295897" lon="7.4734783"><ele>432.0</ele><time>2026-05-01T13:30:01.274Z</time></trkpt><trkpt lat="43.8294783" lon="7.4735606"><ele>432.0</ele><time>2026-05-01T13:30:02.274Z</time></trkpt><trkpt lat="43.8293724" lon="7.4737053"><ele>432.0</ele><time>2026-05-01T13:30:03.274Z</time></trkpt><trkpt lat="43.8292881" lon="7.4738808"><ele>432.0</ele><time>2026-05-01T13:30:04.275Z</time></trkpt><trkpt lat="43.8292204" lon="7.474109"><ele>429.0</ele><time>2026-05-01T13:30:05.274Z</time></trkpt><trkpt lat="43.8291165" lon="7.4745606"><ele>426.0</ele><time>2026-05-01T13:30:07.274Z</time></trkpt><trkpt lat="43.8290785" lon="7.4747827"><ele>424.25</ele><time>2026-05-01T13:30:08.274Z</time></trkpt><trkpt lat="43.8290468" lon="7.4749887"><ele>422.5</ele><time>2026-05-01T13:30:09.274Z</time></trkpt><trkpt lat="43.8290175" lon="7.4751919"><ele>420.75</ele><time>2026-05-01T13:30:10.274Z</time></trkpt><trkpt lat="43.8289828" lon="7.4753833"><ele>419.0</ele><time>2026-05-01T13:30:11.274Z</time></trkpt><trkpt lat="43.8289439" lon="7.4755657"><ele>418.75</ele><time>2026-05-01T13:30:12.274Z</time></trkpt><trkpt lat="43.8289088" lon="7.4757454"><ele>418.5</ele><time>2026-05-01T13:30:13.274Z</time></trkpt><trkpt lat="43.8288761" lon="7.4759102"><ele>418.25</ele><time>2026-05-01T13:30:14.274Z</time></trkpt><trkpt lat="43.8288517" lon="7.4760645"><ele>418.0</ele><time>2026-05-01T13:30:15.274Z</time></trkpt><trkpt lat="43.8288231" lon="7.4762029"><ele>416.4</ele><time>2026-05-01T13:30:16.274Z</time></trkpt><trkpt lat="43.8287942" lon="7.476325"><ele>414.79999999999995</ele><time>2026-05-01T13:30:17.275Z</time></trkpt><trkpt lat="43.8287566" lon="7.4764392"><ele>413.2</ele><time>2026-05-01T13:30:18.274Z</time></trkpt><trkpt lat="43.8286951" lon="7.476526"><ele>411.6</ele><time>2026-05-01T13:30:19.275Z</time></trkpt><trkpt lat="43.8286153" lon="7.476594"><ele>410.0</ele><time>2026-05-01T13:30:20.274Z</time></trkpt><trkpt lat="43.8285323" lon="7.4766546"><ele>411.2</ele><time>2026-05-01T13:30:21.274Z</time></trkpt><trkpt lat="43.8284555" lon="7.4767136"><ele>412.4</ele><time>2026-05-01T13:30:22.274Z</time></trkpt><trkpt lat="43.8283819" lon="7.4767885"><ele>413.6</ele><time>2026-05-01T13:30:23.275Z</time></trkpt><trkpt lat="43.8283011" lon="7.4768855"><ele>414.8</ele><time>2026-05-01T13:30:24.274Z</time></trkpt><trkpt lat="43.8282242" lon="7.4770059"><ele>416.0</ele><time>2026-05-01T13:30:25.274Z</time></trkpt><trkpt lat="43.8281507" lon="7.4771349"><ele>410.0</ele><time>2026-05-01T13:30:26.274Z</time></trkpt><trkpt lat="43.8280228" lon="7.4773973"><ele>404.0</ele><time>2026-05-01T13:30:28.274Z</time></trkpt><trkpt lat="43.8279643" lon="7.4775216"><ele>398.0</ele><time>2026-05-01T13:30:29.274Z</time></trkpt><trkpt lat="43.827906" lon="7.4776385"><ele>392.0</ele><time>2026-05-01T13:30:30.274Z</time></trkpt><trkpt lat="43.8278494" lon="7.4777505"><ele>392.0</ele><time>2026-05-01T13:30:31.274Z</time></trkpt><trkpt lat="43.8277998" lon="7.4778739"><ele>392.0</ele><time>2026-05-01T13:30:32.274Z</time></trkpt><trkpt lat="43.827767" lon="7.4780094"><ele>392.0</ele><time>2026-05-01T13:30:33.274Z</time></trkpt><trkpt lat="43.8277349" lon="7.4781319"><ele>392.0</ele><time>2026-05-01T13:30:34.274Z</time></trkpt><trkpt lat="43.8276726" lon="7.4782212"><ele>392.0</ele><time>2026-05-01T13:30:35.274Z</time></trkpt><trkpt lat="43.8276008" lon="7.4782882"><ele>389.25</ele><time>2026-05-01T13:30:36.274Z</time></trkpt><trkpt lat="43.8275072" lon="7.4783247"><ele>386.5</ele><time>2026-05-01T13:30:37.274Z</time></trkpt><trkpt lat="43.8273918" lon="7.4783289"><ele>383.75</ele><time>2026-05-01T13:30:38.274Z</time></trkpt><trkpt lat="43.827265" lon="7.4783156"><ele>381.0</ele><time>2026-05-01T13:30:39.274Z</time></trkpt><trkpt lat="43.8271467" lon="7.4783152"><ele>381.0</ele><time>2026-05-01T13:30:40.274Z</time></trkpt><trkpt lat="43.8270438" lon="7.4783177"><ele>381.0</ele><time>2026-05-01T13:30:41.274Z</time></trkpt><trkpt lat="43.8269518" lon="7.4782954"><ele>381.0</ele><time>2026-05-01T13:30:42.274Z</time></trkpt><trkpt lat="43.8268685" lon="7.4782422"><ele>381.0</ele><time>2026-05-01T13:30:43.274Z</time></trkpt><trkpt lat="43.8268074" lon="7.4781605"><ele>381.0</ele><time>2026-05-01T13:30:44.274Z</time></trkpt><trkpt lat="43.8267636" lon="7.4780652"><ele>381.75</ele><time>2026-05-01T13:30:45.274Z</time></trkpt><trkpt lat="43.8267257" lon="7.4779603"><ele>382.5</ele><time>2026-05-01T13:30:46.274Z</time></trkpt><trkpt lat="43.8266908" lon="7.4778371"><ele>383.25</ele><time>2026-05-01T13:30:47.274Z</time></trkpt><trkpt lat="43.8266016" lon="7.4776047"><ele>384.0</ele><time>2026-05-01T13:30:49.274Z</time></trkpt><trkpt lat="43.826545" lon="7.4775224"><ele>386.6666666666667</ele><time>2026-05-01T13:30:50.274Z</time></trkpt><trkpt lat="43.8264825" lon="7.4774647"><ele>389.33333333333337</ele><time>2026-05-01T13:30:51.274Z</time></trkpt><trkpt lat="43.8264163" lon="7.4774379"><ele>392.0</ele><time>2026-05-01T13:30:52.274Z</time></trkpt><trkpt lat="43.8263464" lon="7.4774437"><ele>394.6666666666667</ele><time>2026-05-01T13:30:53.274Z</time></trkpt><trkpt lat="43.826279" lon="7.4774907"><ele>397.33333333333337</ele><time>2026-05-01T13:30:54.275Z</time></trkpt><trkpt lat="43.8262227" lon="7.4775859"><ele>400.0</ele><time>2026-05-01T13:30:55.274Z</time></trkpt><trkpt lat="43.8261925" lon="7.4777155"><ele>400.0</ele><time>2026-05-01T13:30:56.274Z</time></trkpt><trkpt lat="43.8261825" lon="7.4778893"><ele>400.0</ele><time>2026-05-01T13:30:57.274Z</time></trkpt><trkpt lat="43.8261926" lon="7.4781028"><ele>400.0</ele><time>2026-05-01T13:30:58.275Z</time></trkpt><trkpt lat="43.8262241" lon="7.4783475"><ele>396.0</ele><time>2026-05-01T13:30:59.274Z</time></trkpt><trkpt lat="43.826239" lon="7.4785765"><ele>392.0</ele><time>2026-05-01T13:31:00.274Z</time></trkpt><trkpt lat="43.8262459" lon="7.4787748"><ele>388.0</ele><time>2026-05-01T13:31:01.274Z</time></trkpt><trkpt lat="43.8262544" lon="7.4789423"><ele>384.0</ele><time>2026-05-01T13:31:02.274Z</time></trkpt><trkpt lat="43.8262662" lon="7.4791113"><ele>380.0</ele><time>2026-05-01T13:31:03.274Z</time></trkpt><trkpt lat="43.8262777" lon="7.4792911"><ele>376.0</ele><time>2026-05-01T13:31:04.274Z</time></trkpt><trkpt lat="43.8262795" lon="7.4794692"><ele>372.0</ele><time>2026-05-01T13:31:05.274Z</time></trkpt><trkpt lat="43.8262764" lon="7.4796388"><ele>368.0</ele><time>2026-05-01T13:31:06.274Z</time></trkpt><trkpt lat="43.8262706" lon="7.4798013"><ele>363.33333333333337</ele><time>2026-05-01T13:31:07.274Z</time></trkpt><trkpt lat="43.8262444" lon="7.4799667"><ele>358.6666666666667</ele><time>2026-05-01T13:31:08.274Z</time></trkpt><trkpt lat="43.826136" lon="7.480279"><ele>354.0</ele><time>2026-05-01T13:31:10.274Z</time></trkpt><trkpt lat="43.8260623" lon="7.480419"><ele>355.5</ele><time>2026-05-01T13:31:11.274Z</time></trkpt><trkpt lat="43.8259733" lon="7.4805395"><ele>357.0</ele><time>2026-05-01T13:31:12.274Z</time></trkpt><trkpt lat="43.8258717" lon="7.4806342"><ele>358.5</ele><time>2026-05-01T13:31:13.274Z</time></trkpt><trkpt lat="43.825743" lon="7.480708"><ele>360.0</ele><time>2026-05-01T13:31:14.274Z</time></trkpt><trkpt lat="43.8256081" lon="7.4807892"><ele>360.0</ele><time>2026-05-01T13:31:15.274Z</time></trkpt><trkpt lat="43.8254625" lon="7.4808866"><ele>360.0</ele><time>2026-05-01T13:31:16.274Z</time></trkpt><trkpt lat="43.8253272" lon="7.4810009"><ele>360.0</ele><time>2026-05-01T13:31:17.274Z</time></trkpt><trkpt lat="43.8251933" lon="7.4811148"><ele>357.75</ele><time>2026-05-01T13:31:18.274Z</time></trkpt><trkpt lat="43.8250698" lon="7.4812146"><ele>355.5</ele><time>2026-05-01T13:31:19.274Z</time></trkpt><trkpt lat="43.8249627" lon="7.4813102"><ele>353.25</ele><time>2026-05-01T13:31:20.274Z</time></trkpt><trkpt lat="43.8248787" lon="7.4813908"><ele>351.0</ele><time>2026-05-01T13:31:21.274Z</time></trkpt><trkpt lat="43.8247957" lon="7.4814587"><ele>351.0</ele><time>2026-05-01T13:31:22.274Z</time></trkpt><trkpt lat="43.8247153" lon="7.4815073"><ele>351.0</ele><time>2026-05-01T13:31:23.274Z</time></trkpt><trkpt lat="43.8246292" lon="7.4815075"><ele>351.0</ele><time>2026-05-01T13:31:24.274Z</time></trkpt><trkpt lat="43.8245346" lon="7.4814621"><ele>351.0</ele><time>2026-05-01T13:31:25.274Z</time></trkpt><trkpt lat="43.8244425" lon="7.481393"><ele>351.0</ele><time>2026-05-01T13:31:26.274Z</time></trkpt><trkpt lat="43.824349" lon="7.4813395"><ele>352.75</ele><time>2026-05-01T13:31:27.274Z</time></trkpt><trkpt lat="43.8242559" lon="7.4813289"><ele>354.5</ele><time>2026-05-01T13:31:28.274Z</time></trkpt><trkpt lat="43.824161" lon="7.4813754"><ele>356.25</ele><time>2026-05-01T13:31:29.274Z</time></trkpt><trkpt lat="43.8239925" lon="7.4815426"><ele>358.0</ele><time>2026-05-01T13:31:31.274Z</time></trkpt><trkpt lat="43.8238967" lon="7.4816124"><ele>358.0</ele><time>2026-05-01T13:31:32.274Z</time></trkpt><trkpt lat="43.8237951" lon="7.4816412"><ele>358.0</ele><time>2026-05-01T13:31:33.274Z</time></trkpt><trkpt lat="43.8236875" lon="7.481655"><ele>358.0</ele><time>2026-05-01T13:31:34.274Z</time></trkpt><trkpt lat="43.8235865" lon="7.4816722"><ele>358.0</ele><time>2026-05-01T13:31:35.274Z</time></trkpt><trkpt lat="43.8234903" lon="7.481736"><ele>358.0</ele><time>2026-05-01T13:31:36.274Z</time></trkpt><trkpt lat="43.8234063" lon="7.4818269"><ele>354.79999999999995</ele><time>2026-05-01T13:31:37.274Z</time></trkpt><trkpt lat="43.8233569" lon="7.4819663"><ele>351.6</ele><time>2026-05-01T13:31:38.274Z</time></trkpt><trkpt lat="43.8233107" lon="7.4821095"><ele>348.4</ele><time>2026-05-01T13:31:39.274Z</time></trkpt><trkpt lat="43.8232665" lon="7.4822427"><ele>345.20000000000005</ele><time>2026-05-01T13:31:40.275Z</time></trkpt><trkpt lat="43.8232296" lon="7.4823733"><ele>342.0</ele><time>2026-05-01T13:31:41.274Z</time></trkpt><trkpt lat="43.8231777" lon="7.4824944"><ele>342.0</ele><time>2026-05-01T13:31:42.274Z</time></trkpt><trkpt lat="43.8231187" lon="7.4826106"><ele>342.0</ele><time>2026-05-01T13:31:43.274Z</time></trkpt><trkpt lat="43.8230447" lon="7.4827131"><ele>342.0</ele><time>2026-05-01T13:31:44.274Z</time></trkpt><trkpt lat="43.8229552" lon="7.4827886"><ele>342.0</ele><time>2026-05-01T13:31:45.274Z</time></trkpt><trkpt lat="43.8228458" lon="7.4828348"><ele>342.0</ele><time>2026-05-01T13:31:46.275Z</time></trkpt><trkpt lat="43.8227354" lon="7.4828494"><ele>346.25</ele><time>2026-05-01T13:31:47.274Z</time></trkpt><trkpt lat="43.8226267" lon="7.4828271"><ele>350.5</ele><time>2026-05-01T13:31:48.274Z</time></trkpt><trkpt lat="43.8225153" lon="7.4827804"><ele>354.75</ele><time>2026-05-01T13:31:49.274Z</time></trkpt><trkpt lat="43.8224167" lon="7.4827033"><ele>359.0</ele><time>2026-05-01T13:31:50.274Z</time></trkpt><trkpt lat="43.8222275" lon="7.4826274"><ele>359.0</ele><time>2026-05-01T13:31:52.274Z</time></trkpt><trkpt lat="43.8221304" lon="7.4826584"><ele>359.0</ele><time>2026-05-01T13:31:53.274Z</time></trkpt><trkpt lat="43.8220292" lon="7.4827293"><ele>359.0</ele><time>2026-05-01T13:31:54.274Z</time></trkpt><trkpt lat="43.8219231" lon="7.4828162"><ele>359.0</ele><time>2026-05-01T13:31:55.274Z</time></trkpt><trkpt lat="43.8218216" lon="7.4829204"><ele>350.8</ele><time>2026-05-01T13:31:56.274Z</time></trkpt><trkpt lat="43.8217324" lon="7.4830073"><ele>342.59999999999997</ele><time>2026-05-01T13:31:57.274Z</time></trkpt><trkpt lat="43.8216348" lon="7.4830593"><ele>334.4</ele><time>2026-05-01T13:31:58.274Z</time></trkpt><trkpt lat="43.8215343" lon="7.4830734"><ele>326.2</ele><time>2026-05-01T13:31:59.274Z</time></trkpt><trkpt lat="43.8214273" lon="7.4830702"><ele>318.0</ele><time>2026-05-01T13:32:00.274Z</time></trkpt><trkpt lat="43.8213214" lon="7.4830604"><ele>318.0</ele><time>2026-05-01T13:32:01.274Z</time></trkpt><trkpt lat="43.8212076" lon="7.4830531"><ele>318.0</ele><time>2026-05-01T13:32:02.274Z</time></trkpt><trkpt lat="43.8210927" lon="7.4830722"><ele>318.0</ele><time>2026-05-01T13:32:03.275Z</time></trkpt><trkpt lat="43.8209848" lon="7.4831143"><ele>318.0</ele><time>2026-05-01T13:32:04.274Z</time></trkpt><trkpt lat="43.8208827" lon="7.4831906"><ele>321.4</ele><time>2026-05-01T13:32:05.274Z</time></trkpt><trkpt lat="43.820811" lon="7.4833059"><ele>324.8</ele><time>2026-05-01T13:32:06.274Z</time></trkpt><trkpt lat="43.8207632" lon="7.483436"><ele>328.2</ele><time>2026-05-01T13:32:07.274Z</time></trkpt><trkpt lat="43.8207122" lon="7.4835535"><ele>331.6</ele><time>2026-05-01T13:32:08.274Z</time></trkpt><trkpt lat="43.820644" lon="7.4836456"><ele>335.0</ele><time>2026-05-01T13:32:09.274Z</time></trkpt><trkpt lat="43.8205598" lon="7.4836945"><ele>335.0</ele><time>2026-05-01T13:32:10.274Z</time></trkpt><trkpt lat="43.8204657" lon="7.4837055"><ele>335.0</ele><time>2026-05-01T13:32:11.275Z</time></trkpt><trkpt lat="43.8202859" lon="7.4836737"><ele>335.0</ele><time>2026-05-01T13:32:13.274Z</time></trkpt><trkpt lat="43.8202171" lon="7.4836472"><ele>335.0</ele><time>2026-05-01T13:32:14.274Z</time></trkpt><trkpt lat="43.8201312" lon="7.483545"><ele>335.0</ele><time>2026-05-01T13:32:16.275Z</time></trkpt><trkpt lat="43.8201277" lon="7.4834554"><ele>335.0</ele><time>2026-05-01T13:32:17.275Z</time></trkpt><trkpt lat="43.8201559" lon="7.4833508"><ele>335.0</ele><time>2026-05-01T13:32:18.274Z</time></trkpt><trkpt lat="43.8202069" lon="7.483231"><ele>335.0</ele><time>2026-05-01T13:32:19.274Z</time></trkpt><trkpt lat="43.8202555" lon="7.4831006"><ele>335.0</ele><time>2026-05-01T13:32:20.274Z</time></trkpt><trkpt lat="43.8203006" lon="7.4829801"><ele>335.0</ele><time>2026-05-01T13:32:21.274Z</time></trkpt><trkpt lat="43.8203339" lon="7.4828661"><ele>336.83333333333337</ele><time>2026-05-01T13:32:22.274Z</time></trkpt><trkpt lat="43.8203629" lon="7.4827628"><ele>338.6666666666667</ele><time>2026-05-01T13:32:23.274Z</time></trkpt><trkpt lat="43.8203715" lon="7.4826754"><ele>340.5</ele><time>2026-05-01T13:32:24.275Z</time></trkpt><trkpt lat="43.8203165" lon="7.4825639"><ele>342.3333333333333</ele><time>2026-05-01T13:32:26.274Z</time></trkpt><trkpt lat="43.8201949" lon="7.482541"><ele>344.16666666666663</ele><time>2026-05-01T13:32:28.274Z</time></trkpt><trkpt lat="43.8201203" lon="7.4825868"><ele>346.0</ele><time>2026-05-01T13:32:29.274Z</time></trkpt><trkpt lat="43.8200671" lon="7.4826829"><ele>337.5</ele><time>2026-05-01T13:32:30.274Z</time></trkpt><trkpt lat="43.8200417" lon="7.4828059"><ele>329.0</ele><time>2026-05-01T13:32:31.274Z</time></trkpt><trkpt lat="43.8200477" lon="7.4829485"><ele>320.5</ele><time>2026-05-01T13:32:32.274Z</time></trkpt><trkpt lat="43.8200531" lon="7.4832706"><ele>312.0</ele><time>2026-05-01T13:32:34.274Z</time></trkpt><trkpt lat="43.82003" lon="7.4834183"><ele>311.8333333333333</ele><time>2026-05-01T13:32:35.274Z</time></trkpt><trkpt lat="43.8199972" lon="7.4835495"><ele>311.6666666666667</ele><time>2026-05-01T13:32:36.274Z</time></trkpt><trkpt lat="43.8199698" lon="7.4836713"><ele>311.5</ele><time>2026-05-01T13:32:37.274Z</time></trkpt><trkpt lat="43.8199424" lon="7.4837799"><ele>311.33333333333337</ele><time>2026-05-01T13:32:38.274Z</time></trkpt><trkpt lat="43.8199149" lon="7.4838795"><ele>311.1666666666667</ele><time>2026-05-01T13:32:39.273Z</time></trkpt><trkpt lat="43.8198919" lon="7.483972"><ele>311.0</ele><time>2026-05-01T13:32:40.273Z</time></trkpt><trkpt lat="43.8199157" lon="7.4840889"><ele>310.0</ele><time>2026-05-01T13:32:42.273Z</time></trkpt><trkpt lat="43.8200407" lon="7.4841178"><ele>309.0</ele><time>2026-05-01T13:32:44.273Z</time></trkpt><trkpt lat="43.8201302" lon="7.4840845"><ele>308.0</ele><time>2026-05-01T13:32:45.273Z</time></trkpt><trkpt lat="43.8202382" lon="7.4840366"><ele>307.0</ele><time>2026-05-01T13:32:46.273Z</time></trkpt><trkpt lat="43.8203476" lon="7.4840151"><ele>306.0</ele><time>2026-05-01T13:32:47.273Z</time></trkpt><trkpt lat="43.8204455" lon="7.4840234"><ele>303.8333333333333</ele><time>2026-05-01T13:32:48.273Z</time></trkpt><trkpt lat="43.8205401" lon="7.4840375"><ele>301.6666666666667</ele><time>2026-05-01T13:32:49.273Z</time></trkpt><trkpt lat="43.8206263" lon="7.4840591"><ele>299.5</ele><time>2026-05-01T13:32:50.273Z</time></trkpt><trkpt lat="43.8207139" lon="7.4840738"><ele>297.33333333333337</ele><time>2026-05-01T13:32:51.273Z</time></trkpt><trkpt lat="43.8207848" lon="7.4840658"><ele>295.1666666666667</ele><time>2026-05-01T13:32:52.273Z</time></trkpt><trkpt lat="43.8208557" lon="7.4840081"><ele>293.0</ele><time>2026-05-01T13:32:53.273Z</time></trkpt><trkpt lat="43.8209915" lon="7.4838052"><ele>297.1666666666667</ele><time>2026-05-01T13:32:55.273Z</time></trkpt><trkpt lat="43.821049" lon="7.4837117"><ele>301.33333333333337</ele><time>2026-05-01T13:32:56.273Z</time></trkpt><trkpt lat="43.8211142" lon="7.4836404"><ele>305.5</ele><time>2026-05-01T13:32:57.273Z</time></trkpt><trkpt lat="43.8211812" lon="7.4835848"><ele>309.6666666666667</ele><time>2026-05-01T13:32:58.273Z</time></trkpt><trkpt lat="43.8212635" lon="7.4835511"><ele>313.8333333333333</ele><time>2026-05-01T13:32:59.273Z</time></trkpt><trkpt lat="43.8213641" lon="7.4835453"><ele>318.0</ele><time>2026-05-01T13:33:00.273Z</time></trkpt><trkpt lat="43.8214656" lon="7.4835503"><ele>318.0</ele><time>2026-05-01T13:33:01.273Z</time></trkpt><trkpt lat="43.8215617" lon="7.4835552"><ele>318.0</ele><time>2026-05-01T13:33:02.273Z</time></trkpt><trkpt lat="43.821654" lon="7.4835678"><ele>318.0</ele><time>2026-05-01T13:33:03.273Z</time></trkpt><trkpt lat="43.8217411" lon="7.4835861"><ele>318.0</ele><time>2026-05-01T13:33:04.273Z</time></trkpt><trkpt lat="43.8218287" lon="7.4836186"><ele>318.0</ele><time>2026-05-01T13:33:05.273Z</time></trkpt><trkpt lat="43.8219097" lon="7.4836519"><ele>317.4</ele><time>2026-05-01T13:33:06.273Z</time></trkpt><trkpt lat="43.8220015" lon="7.4836671"><ele>316.8</ele><time>2026-05-01T13:33:07.273Z</time></trkpt><trkpt lat="43.8220963" lon="7.4836639"><ele>316.2</ele><time>2026-05-01T13:33:08.274Z</time></trkpt><trkpt lat="43.8221952" lon="7.4836361"><ele>315.6</ele><time>2026-05-01T13:33:09.274Z</time></trkpt><trkpt lat="43.8222967" lon="7.4836219"><ele>315.0</ele><time>2026-05-01T13:33:10.273Z</time></trkpt><trkpt lat="43.822399" lon="7.4836221"><ele>315.0</ele><time>2026-05-01T13:33:11.273Z</time></trkpt><trkpt lat="43.8224976" lon="7.483633"><ele>315.0</ele><time>2026-05-01T13:33:12.274Z</time></trkpt><trkpt lat="43.822589" lon="7.4836425"><ele>315.0</ele><time>2026-05-01T13:33:13.273Z</time></trkpt><trkpt lat="43.8226819" lon="7.4836594"><ele>315.0</ele><time>2026-05-01T13:33:14.273Z</time></trkpt><trkpt lat="43.8228513" lon="7.4837007"><ele>311.5</ele><time>2026-05-01T13:33:16.274Z</time></trkpt><trkpt lat="43.8229281" lon="7.4837291"><ele>308.0</ele><time>2026-05-01T13:33:17.273Z</time></trkpt><trkpt lat="43.8230056" lon="7.4837506"><ele>304.5</ele><time>2026-05-01T13:33:18.273Z</time></trkpt><trkpt lat="43.8230835" lon="7.4837564"><ele>301.0</ele><time>2026-05-01T13:33:19.274Z</time></trkpt><trkpt lat="43.8231615" lon="7.483736"><ele>297.5</ele><time>2026-05-01T13:33:20.273Z</time></trkpt><trkpt lat="43.8232352" lon="7.4836799"><ele>294.0</ele><time>2026-05-01T13:33:21.273Z</time></trkpt><trkpt lat="43.8233047" lon="7.4836077"><ele>294.0</ele><time>2026-05-01T13:33:22.273Z</time></trkpt><trkpt lat="43.8233729" lon="7.4835187"><ele>294.0</ele><time>2026-05-01T13:33:23.273Z</time></trkpt><trkpt lat="43.8234425" lon="7.4834166"><ele>294.0</ele><time>2026-05-01T13:33:24.274Z</time></trkpt><trkpt lat="43.8235111" lon="7.4833186"><ele>294.0</ele><time>2026-05-01T13:33:25.273Z</time></trkpt><trkpt lat="43.8235747" lon="7.4832153"><ele>294.0</ele><time>2026-05-01T13:33:26.273Z</time></trkpt><trkpt lat="43.8236231" lon="7.4831048"><ele>293.0</ele><time>2026-05-01T13:33:27.273Z</time></trkpt><trkpt lat="43.8236654" lon="7.4830083"><ele>292.0</ele><time>2026-05-01T13:33:28.274Z</time></trkpt><trkpt lat="43.8237082" lon="7.4829316"><ele>291.0</ele><time>2026-05-01T13:33:29.273Z</time></trkpt><trkpt lat="43.8237895" lon="7.4828254"><ele>290.0</ele><time>2026-05-01T13:33:31.273Z</time></trkpt><trkpt lat="43.8238563" lon="7.4828239"><ele>289.0</ele><time>2026-05-01T13:33:34.273Z</time></trkpt><trkpt lat="43.8237913" lon="7.482982"><ele>289.0</ele><time>2026-05-01T13:33:37.273Z</time></trkpt><trkpt lat="43.82364" lon="7.4832241"><ele>289.0</ele><time>2026-05-01T13:33:39.273Z</time></trkpt><trkpt lat="43.823571" lon="7.4833408"><ele>289.0</ele><time>2026-05-01T13:33:40.273Z</time></trkpt><trkpt lat="43.8234996" lon="7.4834451"><ele>289.0</ele><time>2026-05-01T13:33:41.273Z</time></trkpt><trkpt lat="43.8234467" lon="7.4835697"><ele>290.0</ele><time>2026-05-01T13:33:42.273Z</time></trkpt><trkpt lat="43.8234069" lon="7.4836988"><ele>291.0</ele><time>2026-05-01T13:33:43.273Z</time></trkpt><trkpt lat="43.82336" lon="7.4838235"><ele>292.0</ele><time>2026-05-01T13:33:44.273Z</time></trkpt><trkpt lat="43.8232987" lon="7.4839308"><ele>293.0</ele><time>2026-05-01T13:33:45.273Z</time></trkpt><trkpt lat="43.8232176" lon="7.4840045"><ele>294.0</ele><time>2026-05-01T13:33:46.273Z</time></trkpt><trkpt lat="43.8231145" lon="7.4840457"><ele>288.75</ele><time>2026-05-01T13:33:47.273Z</time></trkpt><trkpt lat="43.8229982" lon="7.4840665"><ele>283.5</ele><time>2026-05-01T13:33:48.273Z</time></trkpt><trkpt lat="43.8228812" lon="7.4840624"><ele>278.25</ele><time>2026-05-01T13:33:49.273Z</time></trkpt><trkpt lat="43.8227516" lon="7.4840669"><ele>273.0</ele><time>2026-05-01T13:33:50.273Z</time></trkpt><trkpt lat="43.822628" lon="7.4840742"><ele>273.0</ele><time>2026-05-01T13:33:51.273Z</time></trkpt><trkpt lat="43.8224985" lon="7.4840825"><ele>273.0</ele><time>2026-05-01T13:33:52.273Z</time></trkpt><trkpt lat="43.8223648" lon="7.4840917"><ele>273.0</ele><time>2026-05-01T13:33:53.273Z</time></trkpt><trkpt lat="43.8222374" lon="7.4841053"><ele>273.0</ele><time>2026-05-01T13:33:54.274Z</time></trkpt><trkpt lat="43.8221122" lon="7.4841205"><ele>273.0</ele><time>2026-05-01T13:33:55.273Z</time></trkpt><trkpt lat="43.821996" lon="7.4841425"><ele>273.0</ele><time>2026-05-01T13:33:56.273Z</time></trkpt><trkpt lat="43.8218755" lon="7.4841679"><ele>273.0</ele><time>2026-05-01T13:33:57.274Z</time></trkpt><trkpt lat="43.8217625" lon="7.4841831"><ele>273.0</ele><time>2026-05-01T13:33:58.273Z</time></trkpt><trkpt lat="43.8215304" lon="7.4842278"><ele>273.4</ele><time>2026-05-01T13:34:00.273Z</time></trkpt><trkpt lat="43.8214195" lon="7.484257"><ele>273.8</ele><time>2026-05-01T13:34:01.273Z</time></trkpt><trkpt lat="43.8213169" lon="7.4842956"><ele>274.2</ele><time>2026-05-01T13:34:02.274Z</time></trkpt><trkpt lat="43.8212248" lon="7.4843517"><ele>274.6</ele><time>2026-05-01T13:34:03.273Z</time></trkpt><trkpt lat="43.8211388" lon="7.4844211"><ele>275.0</ele><time>2026-05-01T13:34:04.273Z</time></trkpt><trkpt lat="43.82107" lon="7.4844917"><ele>275.0</ele><time>2026-05-01T13:34:05.273Z</time></trkpt><trkpt lat="43.8210161" lon="7.4845828"><ele>275.0</ele><time>2026-05-01T13:34:06.273Z</time></trkpt><trkpt lat="43.8209641" lon="7.4846764"><ele>275.0</ele><time>2026-05-01T13:34:07.273Z</time></trkpt><trkpt lat="43.8209106" lon="7.4847484"><ele>275.0</ele><time>2026-05-01T13:34:08.274Z</time></trkpt><trkpt lat="43.8208441" lon="7.4848043"><ele>275.0</ele><time>2026-05-01T13:34:09.273Z</time></trkpt><trkpt lat="43.8207709" lon="7.4848389"><ele>275.0</ele><time>2026-05-01T13:34:10.273Z</time></trkpt><trkpt lat="43.820689" lon="7.484835"><ele>270.8</ele><time>2026-05-01T13:34:11.273Z</time></trkpt><trkpt lat="43.8205895" lon="7.4848054"><ele>266.6</ele><time>2026-05-01T13:34:12.273Z</time></trkpt><trkpt lat="43.8204825" lon="7.4847757"><ele>262.4</ele><time>2026-05-01T13:34:13.273Z</time></trkpt><trkpt lat="43.8203716" lon="7.4847779"><ele>258.2</ele><time>2026-05-01T13:34:14.274Z</time></trkpt><trkpt lat="43.8202727" lon="7.4848102"><ele>254.0</ele><time>2026-05-01T13:34:15.273Z</time></trkpt><trkpt lat="43.8201802" lon="7.4848778"><ele>258.5</ele><time>2026-05-01T13:34:16.274Z</time></trkpt><trkpt lat="43.8200759" lon="7.4849548"><ele>263.0</ele><time>2026-05-01T13:34:17.273Z</time></trkpt><trkpt lat="43.8199753" lon="7.4850537"><ele>267.5</ele><time>2026-05-01T13:34:18.273Z</time></trkpt><trkpt lat="43.8198915" lon="7.4851642"><ele>272.0</ele><time>2026-05-01T13:34:19.273Z</time></trkpt><trkpt lat="43.8197472" lon="7.4854012"><ele>266.4</ele><time>2026-05-01T13:34:21.274Z</time></trkpt><trkpt lat="43.8196734" lon="7.4855194"><ele>260.79999999999995</ele><time>2026-05-01T13:34:22.273Z</time></trkpt><trkpt lat="43.8195994" lon="7.4856306"><ele>255.2</ele><time>2026-05-01T13:34:23.273Z</time></trkpt><trkpt lat="43.8195261" lon="7.4857388"><ele>249.6</ele><time>2026-05-01T13:34:24.273Z</time></trkpt><trkpt lat="43.8194603" lon="7.4858512"><ele>244.0</ele><time>2026-05-01T13:34:25.273Z</time></trkpt><trkpt lat="43.8193914" lon="7.4859648"><ele>240.5</ele><time>2026-05-01T13:34:26.273Z</time></trkpt><trkpt lat="43.8193088" lon="7.4860683"><ele>237.0</ele><time>2026-05-01T13:34:27.273Z</time></trkpt><trkpt lat="43.8192189" lon="7.4861695"><ele>233.5</ele><time>2026-05-01T13:34:28.273Z</time></trkpt><trkpt lat="43.8191264" lon="7.4862831"><ele>230.0</ele><time>2026-05-01T13:34:29.274Z</time></trkpt><trkpt lat="43.8190066" lon="7.4863602"><ele>230.0</ele><time>2026-05-01T13:34:30.273Z</time></trkpt><trkpt lat="43.8188826" lon="7.4864099"><ele>230.0</ele><time>2026-05-01T13:34:31.274Z</time></trkpt><trkpt lat="43.818764" lon="7.4864601"><ele>230.0</ele><time>2026-05-01T13:34:32.273Z</time></trkpt><trkpt lat="43.8186508" lon="7.4865023"><ele>230.0</ele><time>2026-05-01T13:34:33.273Z</time></trkpt><trkpt lat="43.8185463" lon="7.486548"><ele>232.6</ele><time>2026-05-01T13:34:34.273Z</time></trkpt><trkpt lat="43.8184456" lon="7.4865792"><ele>235.2</ele><time>2026-05-01T13:34:35.274Z</time></trkpt><trkpt lat="43.8183474" lon="7.486611"><ele>237.8</ele><time>2026-05-01T13:34:36.273Z</time></trkpt><trkpt lat="43.8182512" lon="7.4866485"><ele>240.4</ele><time>2026-05-01T13:34:37.273Z</time></trkpt><trkpt lat="43.8181535" lon="7.4866977"><ele>243.0</ele><time>2026-05-01T13:34:38.273Z</time></trkpt><trkpt lat="43.8180555" lon="7.48676"><ele>243.0</ele><time>2026-05-01T13:34:39.273Z</time></trkpt><trkpt lat="43.8179481" lon="7.4868058"><ele>243.0</ele><time>2026-05-01T13:34:40.273Z</time></trkpt><trkpt lat="43.8177272" lon="7.4868622"><ele>243.0</ele><time>2026-05-01T13:34:42.274Z</time></trkpt><trkpt lat="43.8176165" lon="7.4868489"><ele>243.0</ele><time>2026-05-01T13:34:43.273Z</time></trkpt><trkpt lat="43.8175051" lon="7.4868032"><ele>239.75</ele><time>2026-05-01T13:34:44.273Z</time></trkpt><trkpt lat="43.8174006" lon="7.4867335"><ele>236.5</ele><time>2026-05-01T13:34:45.273Z</time></trkpt><trkpt lat="43.8173042" lon="7.4866402"><ele>233.25</ele><time>2026-05-01T13:34:46.274Z</time></trkpt><trkpt lat="43.8172186" lon="7.4865345"><ele>230.0</ele><time>2026-05-01T13:34:47.273Z</time></trkpt><trkpt lat="43.8171413" lon="7.4864167"><ele>230.0</ele><time>2026-05-01T13:34:48.273Z</time></trkpt><trkpt lat="43.8170782" lon="7.4863007"><ele>230.0</ele><time>2026-05-01T13:34:49.273Z</time></trkpt><trkpt lat="43.8170177" lon="7.486198"><ele>230.0</ele><time>2026-05-01T13:34:50.273Z</time></trkpt><trkpt lat="43.8169707" lon="7.4860872"><ele>230.0</ele><time>2026-05-01T13:34:51.274Z</time></trkpt><trkpt lat="43.8169512" lon="7.4859713"><ele>230.0</ele><time>2026-05-01T13:34:52.273Z</time></trkpt><trkpt lat="43.8169645" lon="7.4858446"><ele>230.6</ele><time>2026-05-01T13:34:53.274Z</time></trkpt><trkpt lat="43.8170045" lon="7.4857248"><ele>231.2</ele><time>2026-05-01T13:34:54.273Z</time></trkpt><trkpt lat="43.8170758" lon="7.4856028"><ele>231.8</ele><time>2026-05-01T13:34:55.273Z</time></trkpt><trkpt lat="43.8171565" lon="7.4854821"><ele>232.4</ele><time>2026-05-01T13:34:56.274Z</time></trkpt><trkpt lat="43.8172348" lon="7.4853633"><ele>233.0</ele><time>2026-05-01T13:34:57.273Z</time></trkpt><trkpt lat="43.8172912" lon="7.4852608"><ele>233.0</ele><time>2026-05-01T13:34:58.273Z</time></trkpt><trkpt lat="43.8173096" lon="7.4851632"><ele>233.0</ele><time>2026-05-01T13:34:59.274Z</time></trkpt><trkpt lat="43.8173035" lon="7.4850234"><ele>233.0</ele><time>2026-05-01T13:35:01.273Z</time></trkpt><trkpt lat="43.8171843" lon="7.4849659"><ele>233.0</ele><time>2026-05-01T13:35:04.273Z</time></trkpt><trkpt lat="43.817091" lon="7.4850692"><ele>233.0</ele><time>2026-05-01T13:35:05.274Z</time></trkpt><trkpt lat="43.8169588" lon="7.4851912"><ele>234.0</ele><time>2026-05-01T13:35:06.273Z</time></trkpt><trkpt lat="43.8168058" lon="7.4852999"><ele>235.0</ele><time>2026-05-01T13:35:07.274Z</time></trkpt><trkpt lat="43.8166726" lon="7.4853732"><ele>236.0</ele><time>2026-05-01T13:35:08.274Z</time></trkpt><trkpt lat="43.8165345" lon="7.4854255"><ele>231.0</ele><time>2026-05-01T13:35:09.273Z</time></trkpt><trkpt lat="43.8164195" lon="7.4854802"><ele>226.00000000000003</ele><time>2026-05-01T13:35:10.273Z</time></trkpt><trkpt lat="43.8163117" lon="7.4855163"><ele>221.0</ele><time>2026-05-01T13:35:11.274Z</time></trkpt><trkpt lat="43.8162073" lon="7.4855436"><ele>216.0</ele><time>2026-05-01T13:35:12.273Z</time></trkpt><trkpt lat="43.8161066" lon="7.4855532"><ele>211.0</ele><time>2026-05-01T13:35:13.273Z</time></trkpt><trkpt lat="43.8159992" lon="7.4855429"><ele>208.8</ele><time>2026-05-01T13:35:14.273Z</time></trkpt><trkpt lat="43.8158896" lon="7.48552"><ele>206.60000000000002</ele><time>2026-05-01T13:35:15.274Z</time></trkpt><trkpt lat="43.815778" lon="7.4855034"><ele>204.4</ele><time>2026-05-01T13:35:16.273Z</time></trkpt><trkpt lat="43.8156685" lon="7.4854911"><ele>202.2</ele><time>2026-05-01T13:35:17.273Z</time></trkpt><trkpt lat="43.8155579" lon="7.4854782"><ele>200.0</ele><time>2026-05-01T13:35:18.274Z</time></trkpt><trkpt lat="43.8154435" lon="7.4854611"><ele>200.0</ele><time>2026-05-01T13:35:19.274Z</time></trkpt><trkpt lat="43.8153269" lon="7.4854434"><ele>200.0</ele><time>2026-05-01T13:35:20.273Z</time></trkpt><trkpt lat="43.8152147" lon="7.4854276"><ele>200.0</ele><time>2026-05-01T13:35:21.273Z</time></trkpt><trkpt lat="43.8151064" lon="7.4854163"><ele>200.0</ele><time>2026-05-01T13:35:22.273Z</time></trkpt><trkpt lat="43.814898" lon="7.4853929"><ele>206.2</ele><time>2026-05-01T13:35:24.273Z</time></trkpt><trkpt lat="43.8148001" lon="7.4853763"><ele>212.4</ele><time>2026-05-01T13:35:25.273Z</time></trkpt><trkpt lat="43.8147034" lon="7.4853703"><ele>218.60000000000002</ele><time>2026-05-01T13:35:26.273Z</time></trkpt><trkpt lat="43.8146112" lon="7.4853524"><ele>224.8</ele><time>2026-05-01T13:35:27.274Z</time></trkpt><trkpt lat="43.8145133" lon="7.4853432"><ele>231.0</ele><time>2026-05-01T13:35:28.273Z</time></trkpt><trkpt lat="43.8144058" lon="7.4853255"><ele>226.5</ele><time>2026-05-01T13:35:29.273Z</time></trkpt><trkpt lat="43.8142933" lon="7.4852913"><ele>222.0</ele><time>2026-05-01T13:35:30.273Z</time></trkpt><trkpt lat="43.8141756" lon="7.4852568"><ele>217.5</ele><time>2026-05-01T13:35:31.273Z</time></trkpt><trkpt lat="43.8140634" lon="7.4852141"><ele>213.0</ele><time>2026-05-01T13:35:32.273Z</time></trkpt><trkpt lat="43.8139512" lon="7.4851946"><ele>213.0</ele><time>2026-05-01T13:35:33.273Z</time></trkpt><trkpt lat="43.8138459" lon="7.4851916"><ele>213.0</ele><time>2026-05-01T13:35:34.274Z</time></trkpt><trkpt lat="43.8137492" lon="7.4851993"><ele>213.0</ele><time>2026-05-01T13:35:35.273Z</time></trkpt><trkpt lat="43.8136479" lon="7.4852034"><ele>213.0</ele><time>2026-05-01T13:35:36.273Z</time></trkpt><trkpt lat="43.8135552" lon="7.4852009"><ele>213.0</ele><time>2026-05-01T13:35:37.273Z</time></trkpt><trkpt lat="43.8134724" lon="7.4851632"><ele>210.60000000000002</ele><time>2026-05-01T13:35:38.274Z</time></trkpt><trkpt lat="43.8134028" lon="7.485099"><ele>208.20000000000002</ele><time>2026-05-01T13:35:39.273Z</time></trkpt><trkpt lat="43.8133541" lon="7.4850061"><ele>205.8</ele><time>2026-05-01T13:35:40.273Z</time></trkpt><trkpt lat="43.8133263" lon="7.484886"><ele>203.4</ele><time>2026-05-01T13:35:41.273Z</time></trkpt><trkpt lat="43.8133137" lon="7.4847456"><ele>201.0</ele><time>2026-05-01T13:35:42.273Z</time></trkpt><trkpt lat="43.8133138" lon="7.484595"><ele>201.0</ele><time>2026-05-01T13:35:43.273Z</time></trkpt><trkpt lat="43.8133377" lon="7.4842968"><ele>201.0</ele><time>2026-05-01T13:35:45.273Z</time></trkpt><trkpt lat="43.8133517" lon="7.4841473"><ele>201.0</ele><time>2026-05-01T13:35:46.273Z</time></trkpt><trkpt lat="43.8133794" lon="7.4840187"><ele>201.0</ele><time>2026-05-01T13:35:47.273Z</time></trkpt><trkpt lat="43.8134151" lon="7.4839124"><ele>201.0</ele><time>2026-05-01T13:35:48.273Z</time></trkpt><trkpt lat="43.8134484" lon="7.4838249"><ele>201.0</ele><time>2026-05-01T13:35:49.273Z</time></trkpt><trkpt lat="43.8134435" lon="7.4836796"><ele>201.0</ele><time>2026-05-01T13:35:51.273Z</time></trkpt><trkpt lat="43.8133613" lon="7.4836794"><ele>201.0</ele><time>2026-05-01T13:35:53.273Z</time></trkpt><trkpt lat="43.8132938" lon="7.4837699"><ele>201.0</ele><time>2026-05-01T13:35:54.273Z</time></trkpt><trkpt lat="43.813192" lon="7.4839071"><ele>201.0</ele><time>2026-05-01T13:35:55.273Z</time></trkpt><trkpt lat="43.8130779" lon="7.4840564"><ele>201.0</ele><time>2026-05-01T13:35:56.273Z</time></trkpt><trkpt lat="43.8129661" lon="7.4842348"><ele>201.0</ele><time>2026-05-01T13:35:57.273Z</time></trkpt><trkpt lat="43.8128728" lon="7.4843994"><ele>201.0</ele><time>2026-05-01T13:35:58.273Z</time></trkpt><trkpt lat="43.8127914" lon="7.4845323"><ele>201.0</ele><time>2026-05-01T13:35:59.274Z</time></trkpt><trkpt lat="43.8127232" lon="7.4846504"><ele>201.0</ele><time>2026-05-01T13:36:00.273Z</time></trkpt><trkpt lat="43.8126639" lon="7.4847596"><ele>201.0</ele><time>2026-05-01T13:36:01.273Z</time></trkpt><trkpt lat="43.8126147" lon="7.4848682"><ele>201.0</ele><time>2026-05-01T13:36:02.274Z</time></trkpt><trkpt lat="43.8125754" lon="7.4849828"><ele>200.25</ele><time>2026-05-01T13:36:03.273Z</time></trkpt><trkpt lat="43.812535" lon="7.4851132"><ele>199.5</ele><time>2026-05-01T13:36:04.273Z</time></trkpt><trkpt lat="43.8124591" lon="7.4853545"><ele>198.75</ele><time>2026-05-01T13:36:06.273Z</time></trkpt><trkpt lat="43.8124177" lon="7.485461"><ele>198.0</ele><time>2026-05-01T13:36:07.273Z</time></trkpt><trkpt lat="43.8123492" lon="7.4855367"><ele>193.60000000000002</ele><time>2026-05-01T13:36:08.273Z</time></trkpt><trkpt lat="43.8122795" lon="7.4855929"><ele>189.20000000000002</ele><time>2026-05-01T13:36:09.273Z</time></trkpt><trkpt lat="43.8121913" lon="7.4856223"><ele>184.8</ele><time>2026-05-01T13:36:10.273Z</time></trkpt><trkpt lat="43.8120936" lon="7.4856354"><ele>180.4</ele><time>2026-05-01T13:36:11.274Z</time></trkpt><trkpt lat="43.8119908" lon="7.485631"><ele>176.0</ele><time>2026-05-01T13:36:12.273Z</time></trkpt><trkpt lat="43.8118884" lon="7.4856246"><ele>177.20000000000002</ele><time>2026-05-01T13:36:13.273Z</time></trkpt><trkpt lat="43.8117911" lon="7.4856253"><ele>178.4</ele><time>2026-05-01T13:36:14.274Z</time></trkpt><trkpt lat="43.8116925" lon="7.4856223"><ele>179.6</ele><time>2026-05-01T13:36:15.273Z</time></trkpt><trkpt lat="43.8115923" lon="7.4856013"><ele>180.8</ele><time>2026-05-01T13:36:16.273Z</time></trkpt><trkpt lat="43.8114906" lon="7.4855627"><ele>182.0</ele><time>2026-05-01T13:36:17.274Z</time></trkpt><trkpt lat="43.8113969" lon="7.4855262"><ele>182.0</ele><time>2026-05-01T13:36:18.273Z</time></trkpt><trkpt lat="43.8113041" lon="7.4854922"><ele>182.0</ele><time>2026-05-01T13:36:19.273Z</time></trkpt><trkpt lat="43.8112038" lon="7.4854601"><ele>182.0</ele><time>2026-05-01T13:36:20.273Z</time></trkpt><trkpt lat="43.8111024" lon="7.4854252"><ele>182.0</ele><time>2026-05-01T13:36:21.273Z</time></trkpt><trkpt lat="43.8110045" lon="7.4853909"><ele>182.0</ele><time>2026-05-01T13:36:22.273Z</time></trkpt><trkpt lat="43.8109079" lon="7.4853557"><ele>188.25</ele><time>2026-05-01T13:36:23.274Z</time></trkpt><trkpt lat="43.8108068" lon="7.4853233"><ele>194.5</ele><time>2026-05-01T13:36:24.273Z</time></trkpt><trkpt lat="43.8107083" lon="7.4852885"><ele>200.75</ele><time>2026-05-01T13:36:25.273Z</time></trkpt><trkpt lat="43.8105339" lon="7.4852465"><ele>207.0</ele><time>2026-05-01T13:36:27.273Z</time></trkpt><trkpt lat="43.8104556" lon="7.4852133"><ele>207.0</ele><time>2026-05-01T13:36:28.273Z</time></trkpt><trkpt lat="43.8103855" lon="7.4851133"><ele>207.0</ele><time>2026-05-01T13:36:29.274Z</time></trkpt><trkpt lat="43.8103232" lon="7.4850536"><ele>207.0</ele><time>2026-05-01T13:36:30.273Z</time></trkpt><trkpt lat="43.810273" lon="7.4849804"><ele>207.0</ele><time>2026-05-01T13:36:31.273Z</time></trkpt><trkpt lat="43.810241" lon="7.4848998"><ele>207.0</ele><time>2026-05-01T13:36:32.274Z</time></trkpt><trkpt lat="43.810237" lon="7.4847987"><ele>207.0</ele><time>2026-05-01T13:36:33.273Z</time></trkpt><trkpt lat="43.8102444" lon="7.4846816"><ele>206.66666666666666</ele><time>2026-05-01T13:36:34.273Z</time></trkpt><trkpt lat="43.8102454" lon="7.4845695"><ele>206.33333333333331</ele><time>2026-05-01T13:36:35.273Z</time></trkpt><trkpt lat="43.8102335" lon="7.4844631"><ele>206.0</ele><time>2026-05-01T13:36:36.273Z</time></trkpt><trkpt lat="43.8102091" lon="7.4843736"><ele>205.66666666666666</ele><time>2026-05-01T13:36:37.273Z</time></trkpt><trkpt lat="43.8100924" lon="7.4843022"><ele>205.33333333333331</ele><time>2026-05-01T13:36:39.273Z</time></trkpt><trkpt lat="43.8100133" lon="7.4843157"><ele>205.0</ele><time>2026-05-01T13:36:40.273Z</time></trkpt><trkpt lat="43.8099328" lon="7.4843652"><ele>205.0</ele><time>2026-05-01T13:36:41.273Z</time></trkpt><trkpt lat="43.8098562" lon="7.4844486"><ele>205.0</ele><time>2026-05-01T13:36:42.273Z</time></trkpt><trkpt lat="43.8097865" lon="7.4845603"><ele>205.0</ele><time>2026-05-01T13:36:43.273Z</time></trkpt><trkpt lat="43.8097238" lon="7.4846675"><ele>205.0</ele><time>2026-05-01T13:36:44.273Z</time></trkpt><trkpt lat="43.809647" lon="7.4847649"><ele>205.0</ele><time>2026-05-01T13:36:45.273Z</time></trkpt><trkpt lat="43.8095674" lon="7.4848527"><ele>201.5</ele><time>2026-05-01T13:36:46.273Z</time></trkpt><trkpt lat="43.8093751" lon="7.4849554"><ele>198.0</ele><time>2026-05-01T13:36:48.273Z</time></trkpt><trkpt lat="43.8092713" lon="7.48498"><ele>194.5</ele><time>2026-05-01T13:36:49.274Z</time></trkpt><trkpt lat="43.8091724" lon="7.4850066"><ele>191.0</ele><time>2026-05-01T13:36:50.274Z</time></trkpt><trkpt lat="43.8090904" lon="7.4850396"><ele>191.0</ele><time>2026-05-01T13:36:51.273Z</time></trkpt><trkpt lat="43.8090065" lon="7.4850674"><ele>191.0</ele><time>2026-05-01T13:36:52.273Z</time></trkpt><trkpt lat="43.8089187" lon="7.4850918"><ele>191.0</ele><time>2026-05-01T13:36:53.273Z</time></trkpt><trkpt lat="43.8088365" lon="7.4850973"><ele>191.0</ele><time>2026-05-01T13:36:54.273Z</time></trkpt><trkpt lat="43.808758" lon="7.4850932"><ele>191.0</ele><time>2026-05-01T13:36:55.273Z</time></trkpt><trkpt lat="43.8086935" lon="7.4850504"><ele>191.0</ele><time>2026-05-01T13:36:56.273Z</time></trkpt><trkpt lat="43.8086469" lon="7.4849552"><ele>191.0</ele><time>2026-05-01T13:36:57.273Z</time></trkpt><trkpt lat="43.8086221" lon="7.4848198"><ele>191.0</ele><time>2026-05-01T13:36:58.273Z</time></trkpt><trkpt lat="43.8086196" lon="7.4846713"><ele>191.0</ele><time>2026-05-01T13:36:59.273Z</time></trkpt><trkpt lat="43.808626" lon="7.4845317"><ele>191.0</ele><time>2026-05-01T13:37:00.273Z</time></trkpt><trkpt lat="43.8086594" lon="7.4843871"><ele>191.0</ele><time>2026-05-01T13:37:01.273Z</time></trkpt><trkpt lat="43.8087126" lon="7.4842545"><ele>193.16666666666666</ele><time>2026-05-01T13:37:02.273Z</time></trkpt><trkpt lat="43.8087839" lon="7.4841472"><ele>195.33333333333331</ele><time>2026-05-01T13:37:03.273Z</time></trkpt><trkpt lat="43.8088423" lon="7.4840427"><ele>197.5</ele><time>2026-05-01T13:37:04.273Z</time></trkpt><trkpt lat="43.8088743" lon="7.4839436"><ele>199.66666666666666</ele><time>2026-05-01T13:37:05.273Z</time></trkpt><trkpt lat="43.8088839" lon="7.4838431"><ele>201.83333333333334</ele><time>2026-05-01T13:37:06.273Z</time></trkpt><trkpt lat="43.808879" lon="7.4837386"><ele>204.0</ele><time>2026-05-01T13:37:07.273Z</time></trkpt><trkpt lat="43.8087912" lon="7.4835896"><ele>202.6</ele><time>2026-05-01T13:37:09.273Z</time></trkpt><trkpt lat="43.8087116" lon="7.4835461"><ele>201.2</ele><time>2026-05-01T13:37:10.273Z</time></trkpt><trkpt lat="43.8086207" lon="7.4835234"><ele>199.79999999999998</ele><time>2026-05-01T13:37:11.273Z</time></trkpt><trkpt lat="43.8085246" lon="7.4835392"><ele>198.39999999999998</ele><time>2026-05-01T13:37:12.273Z</time></trkpt><trkpt lat="43.8084255" lon="7.4836046"><ele>197.0</ele><time>2026-05-01T13:37:13.273Z</time></trkpt><trkpt lat="43.8083276" lon="7.4836756"><ele>194.2</ele><time>2026-05-01T13:37:14.273Z</time></trkpt><trkpt lat="43.8082406" lon="7.4837746"><ele>191.39999999999998</ele><time>2026-05-01T13:37:15.273Z</time></trkpt><trkpt lat="43.8081674" lon="7.4838923"><ele>188.60000000000002</ele><time>2026-05-01T13:37:16.273Z</time></trkpt><trkpt lat="43.8081115" lon="7.4840229"><ele>185.8</ele><time>2026-05-01T13:37:17.273Z</time></trkpt><trkpt lat="43.8080643" lon="7.4841607"><ele>183.0</ele><time>2026-05-01T13:37:18.273Z</time></trkpt><trkpt lat="43.8080305" lon="7.4842921"><ele>183.0</ele><time>2026-05-01T13:37:19.273Z</time></trkpt><trkpt lat="43.8079949" lon="7.4844164"><ele>183.0</ele><time>2026-05-01T13:37:20.273Z</time></trkpt><trkpt lat="43.8079536" lon="7.4845242"><ele>183.0</ele><time>2026-05-01T13:37:21.273Z</time></trkpt><trkpt lat="43.8079101" lon="7.4846185"><ele>183.0</ele><time>2026-05-01T13:37:22.273Z</time></trkpt><trkpt lat="43.8078636" lon="7.4847127"><ele>183.0</ele><time>2026-05-01T13:37:23.273Z</time></trkpt><trkpt lat="43.8078153" lon="7.4848126"><ele>183.0</ele><time>2026-05-01T13:37:24.273Z</time></trkpt><trkpt lat="43.8077431" lon="7.4848989"><ele>181.75</ele><time>2026-05-01T13:37:25.273Z</time></trkpt><trkpt lat="43.8076614" lon="7.4849586"><ele>180.5</ele><time>2026-05-01T13:37:26.273Z</time></trkpt><trkpt lat="43.8075736" lon="7.4850228"><ele>179.25</ele><time>2026-05-01T13:37:27.273Z</time></trkpt><trkpt lat="43.8074888" lon="7.485082"><ele>178.0</ele><time>2026-05-01T13:37:28.273Z</time></trkpt><trkpt lat="43.8073155" lon="7.4852095"><ele>178.0</ele><time>2026-05-01T13:37:30.273Z</time></trkpt><trkpt lat="43.8072318" lon="7.4852914"><ele>178.0</ele><time>2026-05-01T13:37:31.273Z</time></trkpt><trkpt lat="43.8071468" lon="7.4853724"><ele>178.0</ele><time>2026-05-01T13:37:32.273Z</time></trkpt><trkpt lat="43.8070658" lon="7.4854608"><ele>178.0</ele><time>2026-05-01T13:37:33.273Z</time></trkpt><trkpt lat="43.806983" lon="7.4855466"><ele>178.0</ele><time>2026-05-01T13:37:34.273Z</time></trkpt><trkpt lat="43.8069061" lon="7.4856277"><ele>174.8</ele><time>2026-05-01T13:37:35.274Z</time></trkpt><trkpt lat="43.8068313" lon="7.4856984"><ele>171.60000000000002</ele><time>2026-05-01T13:37:36.273Z</time></trkpt><trkpt lat="43.8067528" lon="7.4857514"><ele>168.39999999999998</ele><time>2026-05-01T13:37:37.273Z</time></trkpt><trkpt lat="43.8066573" lon="7.4857781"><ele>165.2</ele><time>2026-05-01T13:37:38.273Z</time></trkpt><trkpt lat="43.8065505" lon="7.4857915"><ele>162.0</ele><time>2026-05-01T13:37:39.274Z</time></trkpt><trkpt lat="43.8064431" lon="7.4857939"><ele>162.0</ele><time>2026-05-01T13:37:40.273Z</time></trkpt><trkpt lat="43.8063327" lon="7.4857794"><ele>162.0</ele><time>2026-05-01T13:37:41.273Z</time></trkpt><trkpt lat="43.8062174" lon="7.485767"><ele>162.0</ele><time>2026-05-01T13:37:42.274Z</time></trkpt><trkpt lat="43.8060929" lon="7.4857415"><ele>162.0</ele><time>2026-05-01T13:37:43.273Z</time></trkpt><trkpt lat="43.8059641" lon="7.4857135"><ele>159.0</ele><time>2026-05-01T13:37:44.273Z</time></trkpt><trkpt lat="43.8058336" lon="7.4856927"><ele>156.0</ele><time>2026-05-01T13:37:45.273Z</time></trkpt><trkpt lat="43.8057053" lon="7.4856773"><ele>153.0</ele><time>2026-05-01T13:37:46.273Z</time></trkpt><trkpt lat="43.8055786" lon="7.4856721"><ele>150.0</ele><time>2026-05-01T13:37:47.273Z</time></trkpt><trkpt lat="43.8054545" lon="7.4856736"><ele>150.0</ele><time>2026-05-01T13:37:48.273Z</time></trkpt><trkpt lat="43.8053257" lon="7.4856804"><ele>150.0</ele><time>2026-05-01T13:37:49.273Z</time></trkpt><trkpt lat="43.8050707" lon="7.4857104"><ele>150.0</ele><time>2026-05-01T13:37:51.273Z</time></trkpt><trkpt lat="43.80495" lon="7.485726"><ele>148.25</ele><time>2026-05-01T13:37:52.273Z</time></trkpt><trkpt lat="43.8048373" lon="7.4857255"><ele>146.5</ele><time>2026-05-01T13:37:53.274Z</time></trkpt><trkpt lat="43.8047188" lon="7.4857241"><ele>144.75</ele><time>2026-05-01T13:37:54.273Z</time></trkpt><trkpt lat="43.8046031" lon="7.4857243"><ele>143.0</ele><time>2026-05-01T13:37:55.273Z</time></trkpt><trkpt lat="43.8044914" lon="7.4857429"><ele>143.0</ele><time>2026-05-01T13:37:56.273Z</time></trkpt><trkpt lat="43.8043815" lon="7.4857556"><ele>143.0</ele><time>2026-05-01T13:37:57.273Z</time></trkpt><trkpt lat="43.8042731" lon="7.4857624"><ele>143.0</ele><time>2026-05-01T13:37:58.273Z</time></trkpt><trkpt lat="43.8041712" lon="7.4857654"><ele>143.0</ele><time>2026-05-01T13:37:59.273Z</time></trkpt><trkpt lat="43.804079" lon="7.4857408"><ele>143.0</ele><time>2026-05-01T13:38:00.273Z</time></trkpt><trkpt lat="43.8039936" lon="7.4856784"><ele>142.6</ele><time>2026-05-01T13:38:01.274Z</time></trkpt><trkpt lat="43.8039198" lon="7.4855957"><ele>142.20000000000002</ele><time>2026-05-01T13:38:02.273Z</time></trkpt><trkpt lat="43.8038431" lon="7.4855089"><ele>141.8</ele><time>2026-05-01T13:38:03.273Z</time></trkpt><trkpt lat="43.8037648" lon="7.4854294"><ele>141.4</ele><time>2026-05-01T13:38:04.273Z</time></trkpt><trkpt lat="43.8036811" lon="7.4853723"><ele>141.0</ele><time>2026-05-01T13:38:05.273Z</time></trkpt><trkpt lat="43.8035982" lon="7.4853432"><ele>140.4</ele><time>2026-05-01T13:38:06.273Z</time></trkpt><trkpt lat="43.8035199" lon="7.4853481"><ele>139.8</ele><time>2026-05-01T13:38:07.273Z</time></trkpt><trkpt lat="43.8034466" lon="7.485374"><ele>139.20000000000002</ele><time>2026-05-01T13:38:08.273Z</time></trkpt><trkpt lat="43.803375" lon="7.4854517"><ele>138.6</ele><time>2026-05-01T13:38:09.273Z</time></trkpt><trkpt lat="43.8033211" lon="7.4855656"><ele>138.0</ele><time>2026-05-01T13:38:10.273Z</time></trkpt><trkpt lat="43.8032467" lon="7.4857703"><ele>138.0</ele><time>2026-05-01T13:38:12.273Z</time></trkpt><trkpt lat="43.8032079" lon="7.4858441"><ele>138.0</ele><time>2026-05-01T13:38:13.273Z</time></trkpt><trkpt lat="43.8031558" lon="7.4859019"><ele>138.0</ele><time>2026-05-01T13:38:14.273Z</time></trkpt><trkpt lat="43.8030927" lon="7.4859345"><ele>138.0</ele><time>2026-05-01T13:38:15.273Z</time></trkpt><trkpt lat="43.8030184" lon="7.4859581"><ele>138.0</ele><time>2026-05-01T13:38:16.273Z</time></trkpt><trkpt lat="43.8029454" lon="7.4859864"><ele>138.0</ele><time>2026-05-01T13:38:17.274Z</time></trkpt><trkpt lat="43.802864" lon="7.4860252"><ele>138.0</ele><time>2026-05-01T13:38:18.273Z</time></trkpt><trkpt lat="43.8027848" lon="7.4860704"><ele>138.0</ele><time>2026-05-01T13:38:19.273Z</time></trkpt><trkpt lat="43.8027136" lon="7.4861089"><ele>138.0</ele><time>2026-05-01T13:38:20.274Z</time></trkpt><trkpt lat="43.8026411" lon="7.4861359"><ele>138.0</ele><time>2026-05-01T13:38:21.273Z</time></trkpt><trkpt lat="43.8025742" lon="7.4861503"><ele>138.0</ele><time>2026-05-01T13:38:22.273Z</time></trkpt><trkpt lat="43.8025069" lon="7.4861471"><ele>138.0</ele><time>2026-05-01T13:38:23.273Z</time></trkpt><trkpt lat="43.8024388" lon="7.4861486"><ele>138.0</ele><time>2026-05-01T13:38:24.273Z</time></trkpt><trkpt lat="43.8023732" lon="7.4861461"><ele>138.0</ele><time>2026-05-01T13:38:25.274Z</time></trkpt><trkpt lat="43.8022557" lon="7.4861216"><ele>139.20000000000002</ele><time>2026-05-01T13:38:27.274Z</time></trkpt><trkpt lat="43.8021362" lon="7.486055"><ele>140.4</ele><time>2026-05-01T13:38:29.273Z</time></trkpt><trkpt lat="43.8020733" lon="7.4860039"><ele>141.60000000000002</ele><time>2026-05-01T13:38:30.273Z</time></trkpt><trkpt lat="43.8020102" lon="7.4859482"><ele>142.8</ele><time>2026-05-01T13:38:31.273Z</time></trkpt><trkpt lat="43.8018878" lon="7.4858416"><ele>144.0</ele><time>2026-05-01T13:38:33.273Z</time></trkpt><trkpt lat="43.8018302" lon="7.4857958"><ele>141.85714285714286</ele><time>2026-05-01T13:38:34.273Z</time></trkpt><trkpt lat="43.8017738" lon="7.4857563"><ele>139.71428571428572</ele><time>2026-05-01T13:38:35.273Z</time></trkpt><trkpt lat="43.8017185" lon="7.4857124"><ele>137.57142857142856</ele><time>2026-05-01T13:38:36.273Z</time></trkpt><trkpt lat="43.8016566" lon="7.485664"><ele>135.42857142857144</ele><time>2026-05-01T13:38:37.273Z</time></trkpt><trkpt lat="43.8015818" lon="7.4856202"><ele>133.28571428571428</ele><time>2026-05-01T13:38:38.273Z</time></trkpt><trkpt lat="43.8015026" lon="7.4855885"><ele>131.14285714285714</ele><time>2026-05-01T13:38:39.273Z</time></trkpt><trkpt lat="43.801421" lon="7.4855934"><ele>129.0</ele><time>2026-05-01T13:38:40.274Z</time></trkpt><trkpt lat="43.8013361" lon="7.4856293"><ele>129.0</ele><time>2026-05-01T13:38:41.273Z</time></trkpt><trkpt lat="43.8012607" lon="7.485699"><ele>129.0</ele><time>2026-05-01T13:38:42.273Z</time></trkpt><trkpt lat="43.8012077" lon="7.4857893"><ele>129.0</ele><time>2026-05-01T13:38:43.274Z</time></trkpt><trkpt lat="43.8011604" lon="7.4858808"><ele>129.0</ele><time>2026-05-01T13:38:44.273Z</time></trkpt><trkpt lat="43.801114" lon="7.4859464"><ele>129.0</ele><time>2026-05-01T13:38:45.273Z</time></trkpt><trkpt lat="43.8010598" lon="7.4859911"><ele>129.0</ele><time>2026-05-01T13:38:46.274Z</time></trkpt><trkpt lat="43.8009329" lon="7.4860495"><ele>132.6</ele><time>2026-05-01T13:38:48.273Z</time></trkpt><trkpt lat="43.8008712" lon="7.4860775"><ele>136.2</ele><time>2026-05-01T13:38:49.273Z</time></trkpt><trkpt lat="43.8008006" lon="7.4861052"><ele>139.79999999999998</ele><time>2026-05-01T13:38:50.273Z</time></trkpt><trkpt lat="43.8007256" lon="7.4861337"><ele>143.4</ele><time>2026-05-01T13:38:51.273Z</time></trkpt><trkpt lat="43.8006478" lon="7.4861559"><ele>147.0</ele><time>2026-05-01T13:38:52.273Z</time></trkpt><trkpt lat="43.8004941" lon="7.4861933"><ele>147.0</ele><time>2026-05-01T13:38:54.274Z</time></trkpt><trkpt lat="43.8004094" lon="7.4862206"><ele>147.0</ele><time>2026-05-01T13:38:55.273Z</time></trkpt><trkpt lat="43.8003282" lon="7.48626"><ele>147.0</ele><time>2026-05-01T13:38:56.273Z</time></trkpt><trkpt lat="43.8002602" lon="7.4863247"><ele>147.0</ele><time>2026-05-01T13:38:57.273Z</time></trkpt><trkpt lat="43.8002132" lon="7.4863944"><ele>147.0</ele><time>2026-05-01T13:38:58.273Z</time></trkpt><trkpt lat="43.8001613" lon="7.4864543"><ele>147.0</ele><time>2026-05-01T13:38:59.273Z</time></trkpt><trkpt lat="43.8000585" lon="7.4865423"><ele>136.5</ele><time>2026-05-01T13:39:01.273Z</time></trkpt><trkpt lat="43.7999364" lon="7.4865673"><ele>126.0</ele><time>2026-05-01T13:39:03.273Z</time></trkpt><trkpt lat="43.7998237" lon="7.4864827"><ele>115.5</ele><time>2026-05-01T13:39:05.273Z</time></trkpt><trkpt lat="43.7997497" lon="7.4863637"><ele>105.0</ele><time>2026-05-01T13:39:07.273Z</time></trkpt><trkpt lat="43.7996645" lon="7.486276"><ele>105.0</ele><time>2026-05-01T13:39:09.274Z</time></trkpt><trkpt lat="43.7995638" lon="7.4862415"><ele>105.0</ele><time>2026-05-01T13:39:11.274Z</time></trkpt><trkpt lat="43.7994659" lon="7.4862579"><ele>105.0</ele><time>2026-05-01T13:39:13.273Z</time></trkpt><trkpt lat="43.7993461" lon="7.4864988"><ele>105.0</ele><time>2026-05-01T13:39:17.273Z</time></trkpt><trkpt lat="43.7993351" lon="7.4865986"><ele>106.16666666666667</ele><time>2026-05-01T13:39:18.273Z</time></trkpt><trkpt lat="43.7993231" lon="7.4867096"><ele>107.33333333333334</ele><time>2026-05-01T13:39:19.273Z</time></trkpt><trkpt lat="43.799309" lon="7.4868132"><ele>108.5</ele><time>2026-05-01T13:39:20.273Z</time></trkpt><trkpt lat="43.799282" lon="7.4869017"><ele>109.66666666666667</ele><time>2026-05-01T13:39:21.273Z</time></trkpt><trkpt lat="43.7992352" lon="7.4869728"><ele>110.83333333333334</ele><time>2026-05-01T13:39:22.273Z</time></trkpt><trkpt lat="43.7991329" lon="7.4870346"><ele>112.0</ele><time>2026-05-01T13:39:24.273Z</time></trkpt><trkpt lat="43.7990538" lon="7.4870578"><ele>112.0</ele><time>2026-05-01T13:39:26.273Z</time></trkpt><trkpt lat="43.7989723" lon="7.4870425"><ele>112.0</ele><time>2026-05-01T13:39:39.273Z</time></trkpt><trkpt lat="43.7987795" lon="7.4869784"><ele>112.0</ele><time>2026-05-01T13:39:48.273Z</time></trkpt><trkpt lat="43.7986904" lon="7.4870222"><ele>112.0</ele><time>2026-05-01T13:39:50.273Z</time></trkpt><trkpt lat="43.7985626" lon="7.4870577"><ele>110.83333333333334</ele><time>2026-05-01T13:39:52.273Z</time></trkpt><trkpt lat="43.7984871" lon="7.4870208"><ele>109.66666666666667</ele><time>2026-05-01T13:39:53.273Z</time></trkpt><trkpt lat="43.7984273" lon="7.4869499"><ele>108.5</ele><time>2026-05-01T13:39:54.273Z</time></trkpt><trkpt lat="43.7983823" lon="7.4868625"><ele>107.33333333333334</ele><time>2026-05-01T13:39:55.273Z</time></trkpt><trkpt lat="43.7983383" lon="7.4867858"><ele>106.16666666666667</ele><time>2026-05-01T13:39:56.273Z</time></trkpt><trkpt lat="43.7983004" lon="7.4867152"><ele>105.0</ele><time>2026-05-01T13:39:57.273Z</time></trkpt><trkpt lat="43.798212" lon="7.4866355"><ele>105.0</ele><time>2026-05-01T13:39:59.273Z</time></trkpt><trkpt lat="43.7981177" lon="7.4866495"><ele>105.0</ele><time>2026-05-01T13:40:01.273Z</time></trkpt><trkpt lat="43.7980176" lon="7.4869034"><ele>105.0</ele><time>2026-05-01T13:40:04.273Z</time></trkpt><trkpt lat="43.7980392" lon="7.4870186"><ele>105.0</ele><time>2026-05-01T13:40:05.273Z</time></trkpt><trkpt lat="43.7980702" lon="7.4871039"><ele>103.0</ele><time>2026-05-01T13:40:06.273Z</time></trkpt><trkpt lat="43.7981163" lon="7.4872303"><ele>101.0</ele><time>2026-05-01T13:40:08.273Z</time></trkpt><trkpt lat="43.7981374" lon="7.4873319"><ele>99.0</ele><time>2026-05-01T13:40:10.273Z</time></trkpt><trkpt lat="43.7981539" lon="7.4874291"><ele>97.0</ele><time>2026-05-01T13:40:13.273Z</time></trkpt><trkpt lat="43.7982047" lon="7.4875071"><ele>95.0</ele><time>2026-05-01T13:40:23.273Z</time></trkpt><trkpt lat="43.7982969" lon="7.4877085"><ele>95.0</ele><time>2026-05-01T13:40:28.273Z</time></trkpt><trkpt lat="43.7983261" lon="7.487797"><ele>95.0</ele><time>2026-05-01T13:40:30.273Z</time></trkpt><trkpt lat="43.7983698" lon="7.4878694"><ele>95.0</ele><time>2026-05-01T13:40:32.273Z</time></trkpt><trkpt lat="43.7984409" lon="7.4879257"><ele>95.0</ele><time>2026-05-01T13:40:35.273Z</time></trkpt><trkpt lat="43.7985077" lon="7.4879806"><ele>95.0</ele><time>2026-05-01T13:40:39.274Z</time></trkpt><trkpt lat="43.7985739" lon="7.4879523"><ele>95.0</ele><time>2026-05-01T13:40:50.273Z</time></trkpt><trkpt lat="43.7987891" lon="7.4879545"><ele>77.0</ele><time>2026-05-01T13:41:50.273Z</time></trkpt></trkseg><trkseg><trkpt lat="43.7985832" lon="7.4880856"><ele>77.0</ele><time>2026-05-01T14:08:17.168Z</time></trkpt><trkpt lat="43.7985606" lon="7.4881749"><ele>77.0</ele><time>2026-05-01T14:08:19.168Z</time></trkpt><trkpt lat="43.7984005" lon="7.4882592"><ele>77.0</ele><time>2026-05-01T14:08:30.274Z</time></trkpt><trkpt lat="43.7983106" lon="7.4882972"><ele>77.0</ele><time>2026-05-01T14:08:32.273Z</time></trkpt><trkpt lat="43.7982282" lon="7.4883433"><ele>77.0</ele><time>2026-05-01T14:08:35.273Z</time></trkpt><trkpt lat="43.7981549" lon="7.4883318"><ele>78.4</ele><time>2026-05-01T14:08:39.273Z</time></trkpt><trkpt lat="43.7981554" lon="7.4881871"><ele>79.80000000000001</ele><time>2026-05-01T14:08:58.273Z</time></trkpt><trkpt lat="43.7982009" lon="7.4879246"><ele>81.2</ele><time>2026-05-01T14:09:01.273Z</time></trkpt><trkpt lat="43.7981965" lon="7.48782"><ele>82.60000000000001</ele><time>2026-05-01T14:09:02.273Z</time></trkpt><trkpt lat="43.7981949" lon="7.487726"><ele>84.0</ele><time>2026-05-01T14:09:03.273Z</time></trkpt><trkpt lat="43.798183" lon="7.4876344"><ele>86.75</ele><time>2026-05-01T14:09:04.273Z</time></trkpt><trkpt lat="43.7981686" lon="7.4875416"><ele>89.5</ele><time>2026-05-01T14:09:05.273Z</time></trkpt><trkpt lat="43.7981379" lon="7.4873697"><ele>92.25</ele><time>2026-05-01T14:09:07.273Z</time></trkpt><trkpt lat="43.7980884" lon="7.4871175"><ele>95.0</ele><time>2026-05-01T14:09:10.273Z</time></trkpt><trkpt lat="43.798056" lon="7.4869465"><ele>97.0</ele><time>2026-05-01T14:09:12.273Z</time></trkpt><trkpt lat="43.7980503" lon="7.4868584"><ele>99.0</ele><time>2026-05-01T14:09:13.273Z</time></trkpt><trkpt lat="43.7980942" lon="7.4867206"><ele>101.0</ele><time>2026-05-01T14:09:15.273Z</time></trkpt><trkpt lat="43.7981898" lon="7.4866816"><ele>103.0</ele><time>2026-05-01T14:09:17.273Z</time></trkpt><trkpt lat="43.7982879" lon="7.4867728"><ele>105.0</ele><time>2026-05-01T14:09:19.273Z</time></trkpt><trkpt lat="43.79837" lon="7.4869338"><ele>105.0</ele><time>2026-05-01T14:09:21.273Z</time></trkpt><trkpt lat="43.798441" lon="7.4870431"><ele>105.0</ele><time>2026-05-01T14:09:23.273Z</time></trkpt><trkpt lat="43.7985091" lon="7.4871043"><ele>105.0</ele><time>2026-05-01T14:09:25.273Z</time></trkpt><trkpt lat="43.7985805" lon="7.4871256"><ele>105.0</ele><time>2026-05-01T14:09:28.273Z</time></trkpt><trkpt lat="43.7986732" lon="7.4871495"><ele>105.0</ele><time>2026-05-01T14:09:33.273Z</time></trkpt><trkpt lat="43.7987346" lon="7.4871715"><ele>105.0</ele><time>2026-05-01T14:09:34.273Z</time></trkpt><trkpt lat="43.7988182" lon="7.4871515"><ele>105.0</ele><time>2026-05-01T14:09:36.273Z</time></trkpt><trkpt lat="43.7988332" lon="7.4870488"><ele>105.0</ele><time>2026-05-01T14:09:38.273Z</time></trkpt><trkpt lat="43.7987718" lon="7.4869375"><ele>105.0</ele><time>2026-05-01T14:09:40.273Z</time></trkpt><trkpt lat="43.7985907" lon="7.486999"><ele>105.0</ele><time>2026-05-01T14:09:43.273Z</time></trkpt><trkpt lat="43.7985124" lon="7.4869927"><ele>105.0</ele><time>2026-05-01T14:09:44.274Z</time></trkpt><trkpt lat="43.7984479" lon="7.4869415"><ele>105.0</ele><time>2026-05-01T14:09:45.273Z</time></trkpt><trkpt lat="43.7983877" lon="7.4868684"><ele>105.0</ele><time>2026-05-01T14:09:46.273Z</time></trkpt><trkpt lat="43.7983364" lon="7.486784"><ele>105.0</ele><time>2026-05-01T14:09:47.273Z</time></trkpt><trkpt lat="43.7982907" lon="7.4867036"><ele>105.0</ele><time>2026-05-01T14:09:48.273Z</time></trkpt><trkpt lat="43.7982457" lon="7.4866415"><ele>105.0</ele><time>2026-05-01T14:09:49.273Z</time></trkpt><trkpt lat="43.79815" lon="7.4865911"><ele>105.0</ele><time>2026-05-01T14:09:51.273Z</time></trkpt><trkpt lat="43.7980556" lon="7.4866799"><ele>105.0</ele><time>2026-05-01T14:09:53.273Z</time></trkpt><trkpt lat="43.7980245" lon="7.4867723"><ele>105.0</ele><time>2026-05-01T14:09:54.273Z</time></trkpt><trkpt lat="43.7980096" lon="7.486905"><ele>105.0</ele><time>2026-05-01T14:09:55.273Z</time></trkpt><trkpt lat="43.7980265" lon="7.4870539"><ele>105.0</ele><time>2026-05-01T14:09:56.273Z</time></trkpt><trkpt lat="43.7980588" lon="7.4872009"><ele>105.0</ele><time>2026-05-01T14:09:57.273Z</time></trkpt><trkpt lat="43.7980932" lon="7.4873327"><ele>103.0</ele><time>2026-05-01T14:09:58.273Z</time></trkpt><trkpt lat="43.7981248" lon="7.4874516"><ele>101.0</ele><time>2026-05-01T14:09:59.273Z</time></trkpt><trkpt lat="43.7981625" lon="7.4875552"><ele>99.0</ele><time>2026-05-01T14:10:00.273Z</time></trkpt><trkpt lat="43.7981851" lon="7.4876528"><ele>97.0</ele><time>2026-05-01T14:10:01.273Z</time></trkpt><trkpt lat="43.7982078" lon="7.4878579"><ele>95.0</ele><time>2026-05-01T14:10:03.273Z</time></trkpt><trkpt lat="43.7982075" lon="7.4879666"><ele>93.16666666666667</ele><time>2026-05-01T14:10:04.273Z</time></trkpt><trkpt lat="43.7981925" lon="7.4880693"><ele>91.33333333333334</ele><time>2026-05-01T14:10:05.273Z</time></trkpt><trkpt lat="43.7981683" lon="7.4881648"><ele>89.5</ele><time>2026-05-01T14:10:06.273Z</time></trkpt><trkpt lat="43.7981265" lon="7.4882532"><ele>87.66666666666667</ele><time>2026-05-01T14:10:07.273Z</time></trkpt><trkpt lat="43.798066" lon="7.488336"><ele>85.83333333333333</ele><time>2026-05-01T14:10:08.273Z</time></trkpt><trkpt lat="43.7980046" lon="7.488406"><ele>84.0</ele><time>2026-05-01T14:10:09.273Z</time></trkpt><trkpt lat="43.7979488" lon="7.4884618"><ele>84.0</ele><time>2026-05-01T14:10:10.273Z</time></trkpt><trkpt lat="43.7978724" lon="7.4885068"><ele>84.0</ele><time>2026-05-01T14:10:11.273Z</time></trkpt><trkpt lat="43.7977873" lon="7.4885352"><ele>84.0</ele><time>2026-05-01T14:10:12.273Z</time></trkpt><trkpt lat="43.7976915" lon="7.488533"><ele>84.0</ele><time>2026-05-01T14:10:13.273Z</time></trkpt><trkpt lat="43.7975893" lon="7.488513"><ele>84.0</ele><time>2026-05-01T14:10:14.273Z</time></trkpt><trkpt lat="43.7974876" lon="7.4884833"><ele>85.6</ele><time>2026-05-01T14:10:15.273Z</time></trkpt><trkpt lat="43.7973916" lon="7.4884631"><ele>87.2</ele><time>2026-05-01T14:10:16.273Z</time></trkpt><trkpt lat="43.7973024" lon="7.4884362"><ele>88.8</ele><time>2026-05-01T14:10:17.273Z</time></trkpt><trkpt lat="43.7972028" lon="7.4884123"><ele>90.39999999999999</ele><time>2026-05-01T14:10:18.274Z</time></trkpt><trkpt lat="43.7971003" lon="7.4884133"><ele>92.0</ele><time>2026-05-01T14:10:19.273Z</time></trkpt><trkpt lat="43.7969934" lon="7.4884395"><ele>92.0</ele><time>2026-05-01T14:10:20.274Z</time></trkpt><trkpt lat="43.7968863" lon="7.488484"><ele>92.0</ele><time>2026-05-01T14:10:21.273Z</time></trkpt><trkpt lat="43.7967817" lon="7.4885542"><ele>92.0</ele><time>2026-05-01T14:10:22.273Z</time></trkpt><trkpt lat="43.7966046" lon="7.4887452"><ele>88.0</ele><time>2026-05-01T14:10:24.273Z</time></trkpt><trkpt lat="43.7965323" lon="7.4888378"><ele>84.0</ele><time>2026-05-01T14:10:25.273Z</time></trkpt><trkpt lat="43.7964629" lon="7.4889254"><ele>80.0</ele><time>2026-05-01T14:10:26.273Z</time></trkpt><trkpt lat="43.7963901" lon="7.4890204"><ele>76.0</ele><time>2026-05-01T14:10:27.273Z</time></trkpt><trkpt lat="43.7963137" lon="7.4891157"><ele>72.0</ele><time>2026-05-01T14:10:28.273Z</time></trkpt><trkpt lat="43.7962319" lon="7.4891958"><ele>72.0</ele><time>2026-05-01T14:10:29.273Z</time></trkpt><trkpt lat="43.7961335" lon="7.4892511"><ele>72.0</ele><time>2026-05-01T14:10:30.273Z</time></trkpt><trkpt lat="43.7960253" lon="7.4892762"><ele>72.0</ele><time>2026-05-01T14:10:31.273Z</time></trkpt><trkpt lat="43.7959117" lon="7.4892838"><ele>72.0</ele><time>2026-05-01T14:10:32.273Z</time></trkpt><trkpt lat="43.7957947" lon="7.4892935"><ele>72.0</ele><time>2026-05-01T14:10:33.273Z</time></trkpt><trkpt lat="43.7956773" lon="7.4893148"><ele>74.25</ele><time>2026-05-01T14:10:34.273Z</time></trkpt><trkpt lat="43.7955563" lon="7.489349"><ele>76.5</ele><time>2026-05-01T14:10:35.273Z</time></trkpt><trkpt lat="43.7954429" lon="7.4894155"><ele>78.75</ele><time>2026-05-01T14:10:36.274Z</time></trkpt><trkpt lat="43.7953301" lon="7.4894895"><ele>81.0</ele><time>2026-05-01T14:10:37.273Z</time></trkpt><trkpt lat="43.7952242" lon="7.489569"><ele>78.39999999999999</ele><time>2026-05-01T14:10:38.274Z</time></trkpt><trkpt lat="43.7951326" lon="7.489655"><ele>75.8</ele><time>2026-05-01T14:10:39.273Z</time></trkpt><trkpt lat="43.7950509" lon="7.4897316"><ele>73.19999999999999</ele><time>2026-05-01T14:10:40.273Z</time></trkpt><trkpt lat="43.794976" lon="7.489811"><ele>70.6</ele><time>2026-05-01T14:10:41.273Z</time></trkpt><trkpt lat="43.7949098" lon="7.4898939"><ele>68.0</ele><time>2026-05-01T14:10:42.273Z</time></trkpt><trkpt lat="43.7948524" lon="7.4899739"><ele>68.0</ele><time>2026-05-01T14:10:43.273Z</time></trkpt><trkpt lat="43.7947625" lon="7.4902024"><ele>68.0</ele><time>2026-05-01T14:10:46.273Z</time></trkpt><trkpt lat="43.7947434" lon="7.4903716"><ele>68.0</ele><time>2026-05-01T14:10:48.273Z</time></trkpt><trkpt lat="43.7947318" lon="7.4904583"><ele>68.0</ele><time>2026-05-01T14:10:49.273Z</time></trkpt><trkpt lat="43.794706" lon="7.4905525"><ele>68.0</ele><time>2026-05-01T14:10:50.273Z</time></trkpt><trkpt lat="43.7946654" lon="7.4906497"><ele>66.8</ele><time>2026-05-01T14:10:51.273Z</time></trkpt><trkpt lat="43.7946058" lon="7.4907417"><ele>65.6</ele><time>2026-05-01T14:10:52.273Z</time></trkpt><trkpt lat="43.7945339" lon="7.4908207"><ele>64.4</ele><time>2026-05-01T14:10:53.273Z</time></trkpt><trkpt lat="43.7944609" lon="7.4908967"><ele>63.2</ele><time>2026-05-01T14:10:54.273Z</time></trkpt><trkpt lat="43.7943817" lon="7.4909791"><ele>62.0</ele><time>2026-05-01T14:10:55.273Z</time></trkpt><trkpt lat="43.7943045" lon="7.491056"><ele>62.00000000000001</ele><time>2026-05-01T14:10:56.273Z</time></trkpt><trkpt lat="43.7942275" lon="7.4911186"><ele>62.0</ele><time>2026-05-01T14:10:57.273Z</time></trkpt><trkpt lat="43.7941572" lon="7.4911575"><ele>62.0</ele><time>2026-05-01T14:10:58.273Z</time></trkpt><trkpt lat="43.7940514" lon="7.4912061"><ele>62.0</ele><time>2026-05-01T14:11:00.274Z</time></trkpt><trkpt lat="43.793976" lon="7.4912441"><ele>62.00000000000001</ele><time>2026-05-01T14:11:02.273Z</time></trkpt><trkpt lat="43.7939068" lon="7.4912572"><ele>62.0</ele><time>2026-05-01T14:11:04.273Z</time></trkpt><trkpt lat="43.7937493" lon="7.4913071"><ele>61.16666666666667</ele><time>2026-05-01T14:11:08.273Z</time></trkpt><trkpt lat="43.7936299" lon="7.4913094"><ele>60.333333333333336</ele><time>2026-05-01T14:11:10.273Z</time></trkpt><trkpt lat="43.7935611" lon="7.4913033"><ele>59.5</ele><time>2026-05-01T14:11:11.274Z</time></trkpt><trkpt lat="43.793494" lon="7.4913139"><ele>58.66666666666667</ele><time>2026-05-01T14:11:12.273Z</time></trkpt><trkpt lat="43.7934319" lon="7.4913322"><ele>57.833333333333336</ele><time>2026-05-01T14:11:13.274Z</time></trkpt><trkpt lat="43.7933208" lon="7.4913805"><ele>57.0</ele><time>2026-05-01T14:11:15.273Z</time></trkpt><trkpt lat="43.7932188" lon="7.4914752"><ele>57.0</ele><time>2026-05-01T14:11:17.273Z</time></trkpt><trkpt lat="43.7931055" lon="7.4915481"><ele>57.0</ele><time>2026-05-01T14:11:19.274Z</time></trkpt><trkpt lat="43.7930381" lon="7.4915689"><ele>57.0</ele><time>2026-05-01T14:11:20.274Z</time></trkpt><trkpt lat="43.7929571" lon="7.4915947"><ele>57.0</ele><time>2026-05-01T14:11:21.273Z</time></trkpt><trkpt lat="43.7928759" lon="7.4916121"><ele>57.0</ele><time>2026-05-01T14:11:22.273Z</time></trkpt><trkpt lat="43.7927955" lon="7.49165"><ele>57.0</ele><time>2026-05-01T14:11:23.273Z</time></trkpt><trkpt lat="43.792724" lon="7.4916854"><ele>56.400000000000006</ele><time>2026-05-01T14:11:24.273Z</time></trkpt><trkpt lat="43.7926467" lon="7.4917118"><ele>55.800000000000004</ele><time>2026-05-01T14:11:25.273Z</time></trkpt><trkpt lat="43.7924816" lon="7.4917675"><ele>55.2</ele><time>2026-05-01T14:11:27.273Z</time></trkpt><trkpt lat="43.7923911" lon="7.4917886"><ele>54.6</ele><time>2026-05-01T14:11:28.273Z</time></trkpt><trkpt lat="43.7922887" lon="7.4918228"><ele>54.0</ele><time>2026-05-01T14:11:29.273Z</time></trkpt><trkpt lat="43.7921851" lon="7.4918663"><ele>54.0</ele><time>2026-05-01T14:11:30.273Z</time></trkpt><trkpt lat="43.7920917" lon="7.4919047"><ele>54.00000000000001</ele><time>2026-05-01T14:11:31.273Z</time></trkpt><trkpt lat="43.7920027" lon="7.4919399"><ele>54.00000000000001</ele><time>2026-05-01T14:11:32.274Z</time></trkpt><trkpt lat="43.7919086" lon="7.4919763"><ele>54.0</ele><time>2026-05-01T14:11:33.274Z</time></trkpt><trkpt lat="43.7918224" lon="7.4920012"><ele>54.0</ele><time>2026-05-01T14:11:34.273Z</time></trkpt><trkpt lat="43.7917464" lon="7.4920421"><ele>54.166666666666664</ele><time>2026-05-01T14:11:35.273Z</time></trkpt><trkpt lat="43.7916712" lon="7.4920873"><ele>54.33333333333333</ele><time>2026-05-01T14:11:36.273Z</time></trkpt><trkpt lat="43.7916005" lon="7.4921174"><ele>54.5</ele><time>2026-05-01T14:11:37.273Z</time></trkpt><trkpt lat="43.7915357" lon="7.4921341"><ele>54.666666666666664</ele><time>2026-05-01T14:11:38.273Z</time></trkpt><trkpt lat="43.791438" lon="7.49215"><ele>54.83333333333333</ele><time>2026-05-01T14:11:40.273Z</time></trkpt><trkpt lat="43.7913406" lon="7.4921518"><ele>55.0</ele><time>2026-05-01T14:11:42.273Z</time></trkpt><trkpt lat="43.7912444" lon="7.4921288"><ele>55.0</ele><time>2026-05-01T14:11:44.273Z</time></trkpt><trkpt lat="43.7911189" lon="7.4921299"><ele>55.0</ele><time>2026-05-01T14:11:46.273Z</time></trkpt><trkpt lat="43.7909807" lon="7.4921855"><ele>55.0</ele><time>2026-05-01T14:11:48.273Z</time></trkpt><trkpt lat="43.7909174" lon="7.4922285"><ele>55.0</ele><time>2026-05-01T14:11:49.273Z</time></trkpt><trkpt lat="43.7908604" lon="7.4922754"><ele>55.0</ele><time>2026-05-01T14:11:50.273Z</time></trkpt><trkpt lat="43.7908005" lon="7.4923153"><ele>54.33333333333333</ele><time>2026-05-01T14:11:51.273Z</time></trkpt><trkpt lat="43.7907347" lon="7.4923451"><ele>53.666666666666664</ele><time>2026-05-01T14:11:52.273Z</time></trkpt><trkpt lat="43.7906544" lon="7.4923645"><ele>53.0</ele><time>2026-05-01T14:11:53.273Z</time></trkpt><trkpt lat="43.7905699" lon="7.4923791"><ele>52.33333333333333</ele><time>2026-05-01T14:11:54.273Z</time></trkpt><trkpt lat="43.7904791" lon="7.4923973"><ele>51.666666666666664</ele><time>2026-05-01T14:11:55.273Z</time></trkpt><trkpt lat="43.7903872" lon="7.4924198"><ele>51.0</ele><time>2026-05-01T14:11:56.273Z</time></trkpt><trkpt lat="43.7902926" lon="7.4924476"><ele>51.0</ele><time>2026-05-01T14:11:57.273Z</time></trkpt><trkpt lat="43.7902004" lon="7.4924763"><ele>51.0</ele><time>2026-05-01T14:11:58.274Z</time></trkpt><trkpt lat="43.7901014" lon="7.4925121"><ele>51.0</ele><time>2026-05-01T14:11:59.273Z</time></trkpt><trkpt lat="43.7899998" lon="7.4925403"><ele>51.0</ele><time>2026-05-01T14:12:00.274Z</time></trkpt><trkpt lat="43.7899021" lon="7.4925674"><ele>51.0</ele><time>2026-05-01T14:12:01.273Z</time></trkpt><trkpt lat="43.7898129" lon="7.4925907"><ele>51.0</ele><time>2026-05-01T14:12:02.274Z</time></trkpt><trkpt lat="43.7897278" lon="7.4926125"><ele>51.0</ele><time>2026-05-01T14:12:03.273Z</time></trkpt><trkpt lat="43.7896449" lon="7.4926339"><ele>51.0</ele><time>2026-05-01T14:12:04.274Z</time></trkpt><trkpt lat="43.7895751" lon="7.4926525"><ele>51.0</ele><time>2026-05-01T14:12:05.273Z</time></trkpt><trkpt lat="43.7894689" lon="7.4926898"><ele>51.0</ele><time>2026-05-01T14:12:07.273Z</time></trkpt><trkpt lat="43.7892726" lon="7.4927254"><ele>50.0</ele><time>2026-05-01T14:12:11.273Z</time></trkpt><trkpt lat="43.7892106" lon="7.4927415"><ele>49.0</ele><time>2026-05-01T14:12:14.273Z</time></trkpt><trkpt lat="43.7890955" lon="7.492755"><ele>48.0</ele><time>2026-05-01T14:12:22.274Z</time></trkpt><trkpt lat="43.7889793" lon="7.4927853"><ele>47.0</ele><time>2026-05-01T14:12:24.273Z</time></trkpt><trkpt lat="43.7888611" lon="7.4928123"><ele>46.0</ele><time>2026-05-01T14:12:26.273Z</time></trkpt><trkpt lat="43.7887421" lon="7.4928338"><ele>46.0</ele><time>2026-05-01T14:12:28.273Z</time></trkpt><trkpt lat="43.788601" lon="7.4928626"><ele>46.0</ele><time>2026-05-01T14:12:30.273Z</time></trkpt><trkpt lat="43.7885197" lon="7.4928975"><ele>46.0</ele><time>2026-05-01T14:12:31.273Z</time></trkpt><trkpt lat="43.7884363" lon="7.492929"><ele>46.0</ele><time>2026-05-01T14:12:32.273Z</time></trkpt><trkpt lat="43.7883481" lon="7.4929725"><ele>46.0</ele><time>2026-05-01T14:12:33.273Z</time></trkpt><trkpt lat="43.7882721" lon="7.4930103"><ele>45.57142857142858</ele><time>2026-05-01T14:12:34.273Z</time></trkpt><trkpt lat="43.7881955" lon="7.4930423"><ele>45.14285714285714</ele><time>2026-05-01T14:12:35.274Z</time></trkpt><trkpt lat="43.7881215" lon="7.4930745"><ele>44.714285714285715</ele><time>2026-05-01T14:12:36.273Z</time></trkpt><trkpt lat="43.7880493" lon="7.4931072"><ele>44.28571428571429</ele><time>2026-05-01T14:12:37.273Z</time></trkpt><trkpt lat="43.7879855" lon="7.4931445"><ele>43.85714285714286</ele><time>2026-05-01T14:12:38.273Z</time></trkpt><trkpt lat="43.7879212" lon="7.4931809"><ele>43.42857142857143</ele><time>2026-05-01T14:12:39.273Z</time></trkpt><trkpt lat="43.7878554" lon="7.49322"><ele>43.0</ele><time>2026-05-01T14:12:40.273Z</time></trkpt><trkpt lat="43.7877915" lon="7.493262"><ele>43.0</ele><time>2026-05-01T14:12:41.273Z</time></trkpt><trkpt lat="43.7877234" lon="7.4933108"><ele>43.0</ele><time>2026-05-01T14:12:42.273Z</time></trkpt><trkpt lat="43.7876584" lon="7.4933549"><ele>43.0</ele><time>2026-05-01T14:12:43.273Z</time></trkpt><trkpt lat="43.7875984" lon="7.493393"><ele>43.0</ele><time>2026-05-01T14:12:44.273Z</time></trkpt><trkpt lat="43.787497" lon="7.4934563"><ele>43.0</ele><time>2026-05-01T14:12:46.273Z</time></trkpt><trkpt lat="43.7874205" lon="7.4935028"><ele>43.0</ele><time>2026-05-01T14:12:48.273Z</time></trkpt><trkpt lat="43.7873236" lon="7.4935643"><ele>42.833333333333336</ele><time>2026-05-01T14:12:50.273Z</time></trkpt><trkpt lat="43.7872029" lon="7.4936401"><ele>42.66666666666667</ele><time>2026-05-01T14:12:52.273Z</time></trkpt><trkpt lat="43.7871446" lon="7.4936774"><ele>42.5</ele><time>2026-05-01T14:12:53.273Z</time></trkpt><trkpt lat="43.7870853" lon="7.4937178"><ele>42.333333333333336</ele><time>2026-05-01T14:12:54.273Z</time></trkpt><trkpt lat="43.7870226" lon="7.4937623"><ele>42.166666666666664</ele><time>2026-05-01T14:12:55.274Z</time></trkpt><trkpt lat="43.7869544" lon="7.4938049"><ele>42.0</ele><time>2026-05-01T14:12:56.273Z</time></trkpt><trkpt lat="43.786888" lon="7.4938575"><ele>42.0</ele><time>2026-05-01T14:12:57.273Z</time></trkpt><trkpt lat="43.7868126" lon="7.4939124"><ele>42.0</ele><time>2026-05-01T14:12:58.274Z</time></trkpt><trkpt lat="43.7867355" lon="7.4939573"><ele>42.0</ele><time>2026-05-01T14:12:59.273Z</time></trkpt><trkpt lat="43.7866556" lon="7.4940064"><ele>42.0</ele><time>2026-05-01T14:13:00.273Z</time></trkpt><trkpt lat="43.7865841" lon="7.4940555"><ele>42.0</ele><time>2026-05-01T14:13:01.274Z</time></trkpt><trkpt lat="43.7865115" lon="7.494089"><ele>42.0</ele><time>2026-05-01T14:13:02.273Z</time></trkpt><trkpt lat="43.786445" lon="7.494116"><ele>42.0</ele><time>2026-05-01T14:13:03.273Z</time></trkpt><trkpt lat="43.7863849" lon="7.4941438"><ele>42.0</ele><time>2026-05-01T14:13:04.273Z</time></trkpt><trkpt lat="43.7862828" lon="7.494209"><ele>42.0</ele><time>2026-05-01T14:13:06.273Z</time></trkpt><trkpt lat="43.786227" lon="7.4942573"><ele>42.0</ele><time>2026-05-01T14:13:08.273Z</time></trkpt><trkpt lat="43.7861497" lon="7.4943142"><ele>42.0</ele><time>2026-05-01T14:13:11.273Z</time></trkpt><trkpt lat="43.7859837" lon="7.4944258"><ele>41.5</ele><time>2026-05-01T14:13:14.273Z</time></trkpt><trkpt lat="43.78591" lon="7.4944682"><ele>41.0</ele><time>2026-05-01T14:13:15.273Z</time></trkpt><trkpt lat="43.7858433" lon="7.4945081"><ele>40.5</ele><time>2026-05-01T14:13:16.273Z</time></trkpt><trkpt lat="43.7857303" lon="7.4945482"><ele>40.0</ele><time>2026-05-01T14:13:18.273Z</time></trkpt><trkpt lat="43.7856184" lon="7.4945687"><ele>39.5</ele><time>2026-05-01T14:13:20.273Z</time></trkpt><trkpt lat="43.7855568" lon="7.4945897"><ele>39.0</ele><time>2026-05-01T14:13:21.273Z</time></trkpt><trkpt lat="43.785492" lon="7.4946188"><ele>39.5</ele><time>2026-05-01T14:13:22.274Z</time></trkpt><trkpt lat="43.7854297" lon="7.4946442"><ele>40.0</ele><time>2026-05-01T14:13:23.273Z</time></trkpt><trkpt lat="43.7853663" lon="7.4946668"><ele>40.5</ele><time>2026-05-01T14:13:24.273Z</time></trkpt><trkpt lat="43.7852626" lon="7.4946827"><ele>41.0</ele><time>2026-05-01T14:13:26.273Z</time></trkpt><trkpt lat="43.7851825" lon="7.4946811"><ele>41.5</ele><time>2026-05-01T14:13:28.274Z</time></trkpt><trkpt lat="43.7851076" lon="7.4946768"><ele>42.0</ele><time>2026-05-01T14:13:31.273Z</time></trkpt><trkpt lat="43.785041" lon="7.4946733"><ele>42.0</ele><time>2026-05-01T14:13:33.273Z</time></trkpt><trkpt lat="43.7848637" lon="7.494663"><ele>42.0</ele><time>2026-05-01T14:13:37.273Z</time></trkpt><trkpt lat="43.7847768" lon="7.4946407"><ele>42.0</ele><time>2026-05-01T14:13:39.273Z</time></trkpt><trkpt lat="43.7846936" lon="7.494625"><ele>42.0</ele><time>2026-05-01T14:13:41.273Z</time></trkpt><trkpt lat="43.7845703" lon="7.494605"><ele>42.0</ele><time>2026-05-01T14:13:43.274Z</time></trkpt><trkpt lat="43.7844963" lon="7.4945906"><ele>42.0</ele><time>2026-05-01T14:13:44.273Z</time></trkpt><trkpt lat="43.7844118" lon="7.4945746"><ele>42.0</ele><time>2026-05-01T14:13:45.273Z</time></trkpt><trkpt lat="43.7843276" lon="7.4945562"><ele>42.0</ele><time>2026-05-01T14:13:46.273Z</time></trkpt><trkpt lat="43.7842443" lon="7.4945305"><ele>42.0</ele><time>2026-05-01T14:13:47.273Z</time></trkpt><trkpt lat="43.784163" lon="7.4945017"><ele>42.0</ele><time>2026-05-01T14:13:48.273Z</time></trkpt><trkpt lat="43.7840843" lon="7.4944671"><ele>40.333333333333336</ele><time>2026-05-01T14:13:49.273Z</time></trkpt><trkpt lat="43.7840101" lon="7.4944355"><ele>38.666666666666664</ele><time>2026-05-01T14:13:50.273Z</time></trkpt><trkpt lat="43.7839338" lon="7.4944088"><ele>37.0</ele><time>2026-05-01T14:13:51.273Z</time></trkpt><trkpt lat="43.783861" lon="7.4943948"><ele>35.33333333333333</ele><time>2026-05-01T14:13:52.274Z</time></trkpt><trkpt lat="43.7837916" lon="7.4943917"><ele>33.666666666666664</ele><time>2026-05-01T14:13:53.273Z</time></trkpt><trkpt lat="43.7837232" lon="7.494382"><ele>32.0</ele><time>2026-05-01T14:13:54.273Z</time></trkpt><trkpt lat="43.7835843" lon="7.4943619"><ele>32.0</ele><time>2026-05-01T14:13:56.273Z</time></trkpt><trkpt lat="43.7835163" lon="7.4943416"><ele>31.999999999999996</ele><time>2026-05-01T14:13:57.273Z</time></trkpt><trkpt lat="43.7834419" lon="7.49432"><ele>32.0</ele><time>2026-05-01T14:13:58.273Z</time></trkpt><trkpt lat="43.7833753" lon="7.494309"><ele>32.0</ele><time>2026-05-01T14:13:59.273Z</time></trkpt><trkpt lat="43.7833059" lon="7.494293"><ele>31.999999999999996</ele><time>2026-05-01T14:14:00.273Z</time></trkpt><trkpt lat="43.7832378" lon="7.4942832"><ele>32.0</ele><time>2026-05-01T14:14:01.273Z</time></trkpt><trkpt lat="43.7831617" lon="7.4942757"><ele>32.0</ele><time>2026-05-01T14:14:02.273Z</time></trkpt><trkpt lat="43.7830926" lon="7.4942858"><ele>31.8</ele><time>2026-05-01T14:14:03.273Z</time></trkpt><trkpt lat="43.7830287" lon="7.4942812"><ele>31.6</ele><time>2026-05-01T14:14:04.273Z</time></trkpt><trkpt lat="43.7829212" lon="7.4942697"><ele>31.400000000000002</ele><time>2026-05-01T14:14:06.273Z</time></trkpt><trkpt lat="43.7827984" lon="7.4942517"><ele>31.200000000000003</ele><time>2026-05-01T14:14:08.273Z</time></trkpt><trkpt lat="43.7826777" lon="7.494221"><ele>31.0</ele><time>2026-05-01T14:14:10.274Z</time></trkpt><trkpt lat="43.7825652" lon="7.4941861"><ele>31.8</ele><time>2026-05-01T14:14:12.273Z</time></trkpt><trkpt lat="43.7824411" lon="7.4941584"><ele>32.6</ele><time>2026-05-01T14:14:14.274Z</time></trkpt><trkpt lat="43.7823683" lon="7.4941472"><ele>33.4</ele><time>2026-05-01T14:14:15.273Z</time></trkpt><trkpt lat="43.7822121" lon="7.4941412"><ele>34.2</ele><time>2026-05-01T14:14:17.273Z</time></trkpt><trkpt lat="43.7821429" lon="7.4941265"><ele>35.0</ele><time>2026-05-01T14:14:18.273Z</time></trkpt><trkpt lat="43.7820716" lon="7.4941121"><ele>35.0</ele><time>2026-05-01T14:14:19.274Z</time></trkpt><trkpt lat="43.7819982" lon="7.4940915"><ele>35.0</ele><time>2026-05-01T14:14:20.274Z</time></trkpt><trkpt lat="43.7819278" lon="7.4940816"><ele>35.0</ele><time>2026-05-01T14:14:21.273Z</time></trkpt><trkpt lat="43.7818554" lon="7.494073"><ele>35.0</ele><time>2026-05-01T14:14:22.273Z</time></trkpt><trkpt lat="43.7817875" lon="7.494066"><ele>35.0</ele><time>2026-05-01T14:14:23.273Z</time></trkpt><trkpt lat="43.781717" lon="7.4940479"><ele>35.0</ele><time>2026-05-01T14:14:24.273Z</time></trkpt><trkpt lat="43.7816509" lon="7.4940363"><ele>35.0</ele><time>2026-05-01T14:14:25.273Z</time></trkpt><trkpt lat="43.7815876" lon="7.4940283"><ele>34.285714285714285</ele><time>2026-05-01T14:14:26.273Z</time></trkpt><trkpt lat="43.7815198" lon="7.4940172"><ele>33.57142857142857</ele><time>2026-05-01T14:14:27.273Z</time></trkpt><trkpt lat="43.7814504" lon="7.494004"><ele>32.85714285714286</ele><time>2026-05-01T14:14:28.273Z</time></trkpt><trkpt lat="43.7813805" lon="7.4939881"><ele>32.14285714285714</ele><time>2026-05-01T14:14:29.273Z</time></trkpt><trkpt lat="43.7813089" lon="7.493971"><ele>31.428571428571427</ele><time>2026-05-01T14:14:30.274Z</time></trkpt><trkpt lat="43.7812385" lon="7.4939526"><ele>30.714285714285715</ele><time>2026-05-01T14:14:31.273Z</time></trkpt><trkpt lat="43.7811687" lon="7.4939371"><ele>30.0</ele><time>2026-05-01T14:14:32.273Z</time></trkpt><trkpt lat="43.7811013" lon="7.4939236"><ele>29.75</ele><time>2026-05-01T14:14:33.273Z</time></trkpt><trkpt lat="43.7809869" lon="7.4938945"><ele>29.5</ele><time>2026-05-01T14:14:35.274Z</time></trkpt><trkpt lat="43.7808962" lon="7.4938641"><ele>29.25</ele><time>2026-05-01T14:14:37.273Z</time></trkpt><trkpt lat="43.7807482" lon="7.4938145"><ele>29.0</ele><time>2026-05-01T14:14:41.273Z</time></trkpt><trkpt lat="43.7806595" lon="7.4938067"><ele>28.999999999999996</ele><time>2026-05-01T14:14:43.273Z</time></trkpt><trkpt lat="43.7805827" lon="7.4937996"><ele>29.0</ele><time>2026-05-01T14:14:46.273Z</time></trkpt><trkpt lat="43.7805102" lon="7.4937749"><ele>29.0</ele><time>2026-05-01T14:14:51.273Z</time></trkpt><trkpt lat="43.7804383" lon="7.4937635"><ele>29.0</ele><time>2026-05-01T14:14:55.273Z</time></trkpt><trkpt lat="43.7803733" lon="7.4937551"><ele>28.999999999999996</ele><time>2026-05-01T14:14:58.273Z</time></trkpt><trkpt lat="43.7802445" lon="7.4937137"><ele>29.0</ele><time>2026-05-01T14:15:04.273Z</time></trkpt><trkpt lat="43.7801766" lon="7.4937014"><ele>29.833333333333332</ele><time>2026-05-01T14:15:06.273Z</time></trkpt><trkpt lat="43.7800954" lon="7.4936848"><ele>30.666666666666664</ele><time>2026-05-01T14:15:08.274Z</time></trkpt><trkpt lat="43.7800189" lon="7.4936692"><ele>31.5</ele><time>2026-05-01T14:15:10.273Z</time></trkpt><trkpt lat="43.7799533" lon="7.4936447"><ele>32.333333333333336</ele><time>2026-05-01T14:15:12.273Z</time></trkpt><trkpt lat="43.7798618" lon="7.4936106"><ele>33.16666666666667</ele><time>2026-05-01T14:15:14.273Z</time></trkpt><trkpt lat="43.7797976" lon="7.4935897"><ele>34.0</ele><time>2026-05-01T14:15:15.274Z</time></trkpt><trkpt lat="43.779724" lon="7.4935713"><ele>34.0</ele><time>2026-05-01T14:15:16.273Z</time></trkpt><trkpt lat="43.7796525" lon="7.4935555"><ele>34.0</ele><time>2026-05-01T14:15:17.273Z</time></trkpt><trkpt lat="43.7795839" lon="7.4935418"><ele>34.0</ele><time>2026-05-01T14:15:18.273Z</time></trkpt><trkpt lat="43.7795174" lon="7.4935243"><ele>34.0</ele><time>2026-05-01T14:15:19.274Z</time></trkpt><trkpt lat="43.7793402" lon="7.4934256"><ele>34.0</ele><time>2026-05-01T14:15:22.273Z</time></trkpt><trkpt lat="43.7792641" lon="7.4934069"><ele>33.0</ele><time>2026-05-01T14:15:23.273Z</time></trkpt><trkpt lat="43.7791839" lon="7.4933965"><ele>32.0</ele><time>2026-05-01T14:15:24.273Z</time></trkpt><trkpt lat="43.7790952" lon="7.4933926"><ele>31.0</ele><time>2026-05-01T14:15:25.273Z</time></trkpt><trkpt lat="43.7790015" lon="7.493381"><ele>30.0</ele><time>2026-05-01T14:15:26.273Z</time></trkpt><trkpt lat="43.778899" lon="7.4933883"><ele>29.0</ele><time>2026-05-01T14:15:27.273Z</time></trkpt><trkpt lat="43.7787956" lon="7.493408"><ele>28.999999999999996</ele><time>2026-05-01T14:15:28.273Z</time></trkpt><trkpt lat="43.7787043" lon="7.4934342"><ele>29.0</ele><time>2026-05-01T14:15:29.273Z</time></trkpt><trkpt lat="43.7786248" lon="7.4934517"><ele>29.0</ele><time>2026-05-01T14:15:30.273Z</time></trkpt><trkpt lat="43.7785575" lon="7.4934727"><ele>29.0</ele><time>2026-05-01T14:15:31.273Z</time></trkpt><trkpt lat="43.7784595" lon="7.4935134"><ele>28.999999999999996</ele><time>2026-05-01T14:15:33.273Z</time></trkpt><trkpt lat="43.7783882" lon="7.4935565"><ele>29.0</ele><time>2026-05-01T14:15:38.273Z</time></trkpt><trkpt lat="43.7783047" lon="7.4935856"><ele>29.0</ele><time>2026-05-01T14:15:41.273Z</time></trkpt><trkpt lat="43.7781078" lon="7.4936454"><ele>29.0</ele><time>2026-05-01T14:15:45.273Z</time></trkpt><trkpt lat="43.7780144" lon="7.4936615"><ele>29.0</ele><time>2026-05-01T14:15:46.273Z</time></trkpt><trkpt lat="43.7779204" lon="7.493682"><ele>29.0</ele><time>2026-05-01T14:15:47.273Z</time></trkpt><trkpt lat="43.7778298" lon="7.4937024"><ele>28.999999999999996</ele><time>2026-05-01T14:15:48.273Z</time></trkpt><trkpt lat="43.7777516" lon="7.4937203"><ele>29.0</ele><time>2026-05-01T14:15:49.273Z</time></trkpt><trkpt lat="43.7776457" lon="7.4937383"><ele>29.0</ele><time>2026-05-01T14:15:51.273Z</time></trkpt><trkpt lat="43.7775814" lon="7.4937505"><ele>29.0</ele><time>2026-05-01T14:15:53.273Z</time></trkpt><trkpt lat="43.7775097" lon="7.4937533"><ele>28.999999999999996</ele><time>2026-05-01T14:15:56.273Z</time></trkpt><trkpt lat="43.777415" lon="7.4937575"><ele>29.0</ele><time>2026-05-01T14:16:05.273Z</time></trkpt><trkpt lat="43.7772783" lon="7.4938128"><ele>28.2</ele><time>2026-05-01T14:16:08.273Z</time></trkpt><trkpt lat="43.7771946" lon="7.4938321"><ele>27.4</ele><time>2026-05-01T14:16:09.273Z</time></trkpt><trkpt lat="43.7770973" lon="7.4938589"><ele>26.6</ele><time>2026-05-01T14:16:10.274Z</time></trkpt><trkpt lat="43.7770013" lon="7.4938815"><ele>25.8</ele><time>2026-05-01T14:16:11.273Z</time></trkpt><trkpt lat="43.7769128" lon="7.4939066"><ele>25.0</ele><time>2026-05-01T14:16:12.274Z</time></trkpt><trkpt lat="43.7768211" lon="7.4939303"><ele>24.0</ele><time>2026-05-01T14:16:13.273Z</time></trkpt><trkpt lat="43.7767353" lon="7.4939536"><ele>23.0</ele><time>2026-05-01T14:16:14.274Z</time></trkpt><trkpt lat="43.7766575" lon="7.4939826"><ele>22.0</ele><time>2026-05-01T14:16:15.273Z</time></trkpt><trkpt lat="43.7765926" lon="7.4940122"><ele>21.0</ele><time>2026-05-01T14:16:16.274Z</time></trkpt><trkpt lat="43.7764893" lon="7.4940732"><ele>20.0</ele><time>2026-05-01T14:16:18.273Z</time></trkpt><trkpt lat="43.7763826" lon="7.4941433"><ele>20.0</ele><time>2026-05-01T14:16:20.273Z</time></trkpt><trkpt lat="43.7762639" lon="7.49423"><ele>20.0</ele><time>2026-05-01T14:16:22.273Z</time></trkpt><trkpt lat="43.7761915" lon="7.4942823"><ele>20.0</ele><time>2026-05-01T14:16:23.274Z</time></trkpt><trkpt lat="43.7761224" lon="7.4943381"><ele>20.0</ele><time>2026-05-01T14:16:24.273Z</time></trkpt><trkpt lat="43.776066" lon="7.4943922"><ele>20.0</ele><time>2026-05-01T14:16:25.273Z</time></trkpt><trkpt lat="43.7759759" lon="7.4944937"><ele>19.75</ele><time>2026-05-01T14:16:27.273Z</time></trkpt><trkpt lat="43.7758391" lon="7.4945057"><ele>19.5</ele><time>2026-05-01T14:16:41.273Z</time></trkpt><trkpt lat="43.7757735" lon="7.4943931"><ele>19.25</ele><time>2026-05-01T14:16:43.273Z</time></trkpt><trkpt lat="43.7756834" lon="7.4942569"><ele>19.0</ele><time>2026-05-01T14:16:45.273Z</time></trkpt><trkpt lat="43.7756342" lon="7.4941717"><ele>19.0</ele><time>2026-05-01T14:16:46.273Z</time></trkpt><trkpt lat="43.7755817" lon="7.4940777"><ele>19.0</ele><time>2026-05-01T14:16:47.274Z</time></trkpt><trkpt lat="43.7755217" lon="7.4939785"><ele>19.0</ele><time>2026-05-01T14:16:48.273Z</time></trkpt><trkpt lat="43.7753873" lon="7.4937815"><ele>19.0</ele><time>2026-05-01T14:16:50.273Z</time></trkpt><trkpt lat="43.7753158" lon="7.4936788"><ele>19.0</ele><time>2026-05-01T14:16:51.273Z</time></trkpt><trkpt lat="43.7752576" lon="7.493589"><ele>19.0</ele><time>2026-05-01T14:16:52.274Z</time></trkpt><trkpt lat="43.7751958" lon="7.4934981"><ele>19.0</ele><time>2026-05-01T14:16:53.273Z</time></trkpt><trkpt lat="43.775126" lon="7.4934097"><ele>19.0</ele><time>2026-05-01T14:16:54.274Z</time></trkpt><trkpt lat="43.7750618" lon="7.4933189"><ele>19.0</ele><time>2026-05-01T14:16:55.273Z</time></trkpt><trkpt lat="43.7750034" lon="7.4932351"><ele>19.0</ele><time>2026-05-01T14:16:56.273Z</time></trkpt><trkpt lat="43.7749447" lon="7.4931531"><ele>19.0</ele><time>2026-05-01T14:16:57.273Z</time></trkpt><trkpt lat="43.7748851" lon="7.4930697"><ele>19.0</ele><time>2026-05-01T14:16:58.273Z</time></trkpt><trkpt lat="43.7748152" lon="7.4929816"><ele>19.0</ele><time>2026-05-01T14:16:59.273Z</time></trkpt><trkpt lat="43.7747471" lon="7.4928877"><ele>19.0</ele><time>2026-05-01T14:17:00.273Z</time></trkpt><trkpt lat="43.7746805" lon="7.4928051"><ele>19.0</ele><time>2026-05-01T14:17:01.273Z</time></trkpt><trkpt lat="43.7746076" lon="7.4927237"><ele>19.4</ele><time>2026-05-01T14:17:02.273Z</time></trkpt><trkpt lat="43.7745306" lon="7.4926416"><ele>19.799999999999997</ele><time>2026-05-01T14:17:03.273Z</time></trkpt><trkpt lat="43.7744537" lon="7.4925601"><ele>20.200000000000003</ele><time>2026-05-01T14:17:04.273Z</time></trkpt><trkpt lat="43.7743768" lon="7.4924828"><ele>20.6</ele><time>2026-05-01T14:17:05.274Z</time></trkpt><trkpt lat="43.7743043" lon="7.492406"><ele>21.0</ele><time>2026-05-01T14:17:06.274Z</time></trkpt><trkpt lat="43.7742359" lon="7.4923317"><ele>21.0</ele><time>2026-05-01T14:17:07.273Z</time></trkpt><trkpt lat="43.7741615" lon="7.4922646"><ele>21.0</ele><time>2026-05-01T14:17:08.273Z</time></trkpt><trkpt lat="43.7740804" lon="7.4922066"><ele>21.0</ele><time>2026-05-01T14:17:09.273Z</time></trkpt><trkpt lat="43.7739244" lon="7.4921025"><ele>21.0</ele><time>2026-05-01T14:17:11.273Z</time></trkpt><trkpt lat="43.7738527" lon="7.4920559"><ele>21.0</ele><time>2026-05-01T14:17:12.274Z</time></trkpt><trkpt lat="43.7737786" lon="7.4920068"><ele>20.5</ele><time>2026-05-01T14:17:13.274Z</time></trkpt><trkpt lat="43.7736962" lon="7.4919568"><ele>20.0</ele><time>2026-05-01T14:17:14.273Z</time></trkpt><trkpt lat="43.7736193" lon="7.4918922"><ele>19.5</ele><time>2026-05-01T14:17:15.273Z</time></trkpt><trkpt lat="43.773544" lon="7.4918254"><ele>19.0</ele><time>2026-05-01T14:17:16.273Z</time></trkpt><trkpt lat="43.7734663" lon="7.4917659"><ele>18.5</ele><time>2026-05-01T14:17:17.274Z</time></trkpt><trkpt lat="43.7733865" lon="7.4917137"><ele>18.0</ele><time>2026-05-01T14:17:18.273Z</time></trkpt><trkpt lat="43.773298" lon="7.491664"><ele>18.0</ele><time>2026-05-01T14:17:19.273Z</time></trkpt><trkpt lat="43.7732092" lon="7.4916114"><ele>18.0</ele><time>2026-05-01T14:17:20.273Z</time></trkpt><trkpt lat="43.7731234" lon="7.4915559"><ele>18.0</ele><time>2026-05-01T14:17:21.273Z</time></trkpt><trkpt lat="43.773043" lon="7.4914969"><ele>18.0</ele><time>2026-05-01T14:17:22.273Z</time></trkpt><trkpt lat="43.7729677" lon="7.4914314"><ele>18.0</ele><time>2026-05-01T14:17:23.273Z</time></trkpt><trkpt lat="43.772898" lon="7.4913812"><ele>18.0</ele><time>2026-05-01T14:17:24.273Z</time></trkpt><trkpt lat="43.7728405" lon="7.4913303"><ele>18.0</ele><time>2026-05-01T14:17:25.273Z</time></trkpt><trkpt lat="43.7727995" lon="7.4912627"><ele>18.0</ele><time>2026-05-01T14:17:26.273Z</time></trkpt><trkpt lat="43.7726924" lon="7.4912262"><ele>18.0</ele><time>2026-05-01T14:17:28.273Z</time></trkpt><trkpt lat="43.7726058" lon="7.4911817"><ele>18.0</ele><time>2026-05-01T14:17:30.273Z</time></trkpt><trkpt lat="43.7723896" lon="7.4910967"><ele>17.571428571428573</ele><time>2026-05-01T14:17:34.273Z</time></trkpt><trkpt lat="43.7723243" lon="7.4911311"><ele>17.142857142857142</ele><time>2026-05-01T14:17:35.273Z</time></trkpt><trkpt lat="43.7722629" lon="7.4911651"><ele>16.714285714285715</ele><time>2026-05-01T14:17:36.273Z</time></trkpt><trkpt lat="43.7722044" lon="7.4912046"><ele>16.285714285714285</ele><time>2026-05-01T14:17:37.273Z</time></trkpt><trkpt lat="43.7721617" lon="7.4912725"><ele>15.857142857142858</ele><time>2026-05-01T14:17:38.273Z</time></trkpt><trkpt lat="43.7721297" lon="7.4913661"><ele>15.428571428571429</ele><time>2026-05-01T14:17:39.273Z</time></trkpt><trkpt lat="43.7720969" lon="7.4914877"><ele>15.0</ele><time>2026-05-01T14:17:40.273Z</time></trkpt><trkpt lat="43.7720584" lon="7.4916207"><ele>14.6</ele><time>2026-05-01T14:17:41.273Z</time></trkpt><trkpt lat="43.7720023" lon="7.4917447"><ele>14.2</ele><time>2026-05-01T14:17:42.273Z</time></trkpt><trkpt lat="43.7719435" lon="7.4918704"><ele>13.8</ele><time>2026-05-01T14:17:43.273Z</time></trkpt><trkpt lat="43.7718907" lon="7.4920008"><ele>13.4</ele><time>2026-05-01T14:17:44.273Z</time></trkpt><trkpt lat="43.7718333" lon="7.4921188"><ele>13.0</ele><time>2026-05-01T14:17:45.274Z</time></trkpt><trkpt lat="43.7717736" lon="7.4922169"><ele>12.499999999999998</ele><time>2026-05-01T14:17:46.273Z</time></trkpt><trkpt lat="43.7717228" lon="7.4923045"><ele>12.0</ele><time>2026-05-01T14:17:47.273Z</time></trkpt><trkpt lat="43.7716691" lon="7.4923847"><ele>11.5</ele><time>2026-05-01T14:17:48.273Z</time></trkpt><trkpt lat="43.7716233" lon="7.4924562"><ele>11.0</ele><time>2026-05-01T14:17:49.273Z</time></trkpt><trkpt lat="43.7715737" lon="7.4925146"><ele>10.5</ele><time>2026-05-01T14:17:50.273Z</time></trkpt><trkpt lat="43.7715248" lon="7.4925807"><ele>10.0</ele><time>2026-05-01T14:17:51.273Z</time></trkpt><trkpt lat="43.7714475" lon="7.4927699"><ele>10.0</ele><time>2026-05-01T14:17:53.273Z</time></trkpt><trkpt lat="43.7714276" lon="7.4928905"><ele>10.0</ele><time>2026-05-01T14:17:54.274Z</time></trkpt><trkpt lat="43.7714112" lon="7.4930144"><ele>10.0</ele><time>2026-05-01T14:17:55.273Z</time></trkpt><trkpt lat="43.7713859" lon="7.4931389"><ele>10.0</ele><time>2026-05-01T14:17:56.273Z</time></trkpt><trkpt lat="43.7713546" lon="7.4932547"><ele>10.0</ele><time>2026-05-01T14:17:57.273Z</time></trkpt><trkpt lat="43.771313" lon="7.4933682"><ele>10.333333333333334</ele><time>2026-05-01T14:17:58.273Z</time></trkpt><trkpt lat="43.7712647" lon="7.4934847"><ele>10.666666666666668</ele><time>2026-05-01T14:17:59.273Z</time></trkpt><trkpt lat="43.7712133" lon="7.4935936"><ele>11.0</ele><time>2026-05-01T14:18:00.273Z</time></trkpt><trkpt lat="43.7711572" lon="7.49369"><ele>11.333333333333334</ele><time>2026-05-01T14:18:01.273Z</time></trkpt><trkpt lat="43.7711101" lon="7.4937709"><ele>11.666666666666666</ele><time>2026-05-01T14:18:02.274Z</time></trkpt><trkpt lat="43.7710613" lon="7.4938413"><ele>12.0</ele><time>2026-05-01T14:18:03.274Z</time></trkpt><trkpt lat="43.7709682" lon="7.4939335"><ele>12.5</ele><time>2026-05-01T14:18:05.273Z</time></trkpt><trkpt lat="43.7708679" lon="7.4939846"><ele>13.0</ele><time>2026-05-01T14:18:07.273Z</time></trkpt><trkpt lat="43.7708062" lon="7.4940248"><ele>13.5</ele><time>2026-05-01T14:18:10.273Z</time></trkpt><trkpt lat="43.7707047" lon="7.4940309"><ele>14.0</ele><time>2026-05-01T14:19:15.273Z</time></trkpt><trkpt lat="43.7705577" lon="7.493825"><ele>13.799999999999999</ele><time>2026-05-01T14:19:18.273Z</time></trkpt><trkpt lat="43.7705028" lon="7.4937074"><ele>13.599999999999998</ele><time>2026-05-01T14:19:19.274Z</time></trkpt><trkpt lat="43.7704499" lon="7.4936094"><ele>13.4</ele><time>2026-05-01T14:19:20.273Z</time></trkpt><trkpt lat="43.7703977" lon="7.4935008"><ele>13.2</ele><time>2026-05-01T14:19:21.273Z</time></trkpt><trkpt lat="43.7703471" lon="7.4933948"><ele>13.0</ele><time>2026-05-01T14:19:22.273Z</time></trkpt><trkpt lat="43.7702854" lon="7.4932918"><ele>13.0</ele><time>2026-05-01T14:19:23.274Z</time></trkpt><trkpt lat="43.7702107" lon="7.4932068"><ele>13.0</ele><time>2026-05-01T14:19:24.273Z</time></trkpt><trkpt lat="43.7701461" lon="7.4931137"><ele>13.0</ele><time>2026-05-01T14:19:25.274Z</time></trkpt><trkpt lat="43.7700858" lon="7.493022"><ele>13.0</ele><time>2026-05-01T14:19:26.273Z</time></trkpt><trkpt lat="43.7700313" lon="7.4929312"><ele>13.0</ele><time>2026-05-01T14:19:27.273Z</time></trkpt><trkpt lat="43.7699722" lon="7.4928369"><ele>12.166666666666666</ele><time>2026-05-01T14:19:28.273Z</time></trkpt><trkpt lat="43.769915" lon="7.4927478"><ele>11.333333333333332</ele><time>2026-05-01T14:19:29.273Z</time></trkpt><trkpt lat="43.7698651" lon="7.4926601"><ele>10.5</ele><time>2026-05-01T14:19:30.273Z</time></trkpt><trkpt lat="43.7698081" lon="7.4925774"><ele>9.666666666666666</ele><time>2026-05-01T14:19:31.273Z</time></trkpt><trkpt lat="43.7697479" lon="7.4925007"><ele>8.833333333333332</ele><time>2026-05-01T14:19:32.273Z</time></trkpt><trkpt lat="43.7696902" lon="7.4924157"><ele>8.0</ele><time>2026-05-01T14:19:33.273Z</time></trkpt><trkpt lat="43.7696319" lon="7.4923306"><ele>8.0</ele><time>2026-05-01T14:19:34.273Z</time></trkpt><trkpt lat="43.7695745" lon="7.4922393"><ele>8.0</ele><time>2026-05-01T14:19:35.273Z</time></trkpt><trkpt lat="43.7695125" lon="7.4921505"><ele>8.0</ele><time>2026-05-01T14:19:36.273Z</time></trkpt><trkpt lat="43.7694063" lon="7.4919926"><ele>8.0</ele><time>2026-05-01T14:19:38.273Z</time></trkpt><trkpt lat="43.7693594" lon="7.4919274"><ele>8.0</ele><time>2026-05-01T14:19:39.273Z</time></trkpt><trkpt lat="43.7692842" lon="7.4918086"><ele>7.25</ele><time>2026-05-01T14:19:41.273Z</time></trkpt><trkpt lat="43.7692051" lon="7.4917134"><ele>6.5</ele><time>2026-05-01T14:19:43.273Z</time></trkpt><trkpt lat="43.7691283" lon="7.4915868"><ele>5.75</ele><time>2026-05-01T14:19:45.273Z</time></trkpt><trkpt lat="43.7690528" lon="7.4914779"><ele>5.0</ele><time>2026-05-01T14:19:47.273Z</time></trkpt><trkpt lat="43.7689648" lon="7.4913581"><ele>6.166666666666667</ele><time>2026-05-01T14:19:49.273Z</time></trkpt><trkpt lat="43.7688851" lon="7.4912464"><ele>7.333333333333334</ele><time>2026-05-01T14:19:51.273Z</time></trkpt><trkpt lat="43.7688386" lon="7.4911835"><ele>8.5</ele><time>2026-05-01T14:19:52.273Z</time></trkpt><trkpt lat="43.7687839" lon="7.4911033"><ele>9.666666666666666</ele><time>2026-05-01T14:19:53.273Z</time></trkpt><trkpt lat="43.7687279" lon="7.4910236"><ele>10.833333333333334</ele><time>2026-05-01T14:19:54.274Z</time></trkpt><trkpt lat="43.7686686" lon="7.4909359"><ele>12.0</ele><time>2026-05-01T14:19:55.274Z</time></trkpt><trkpt lat="43.7686143" lon="7.4908481"><ele>12.0</ele><time>2026-05-01T14:19:56.273Z</time></trkpt><trkpt lat="43.768561" lon="7.4907783"><ele>12.0</ele><time>2026-05-01T14:19:57.273Z</time></trkpt><trkpt lat="43.7684302" lon="7.4905658"><ele>12.0</ele><time>2026-05-01T14:20:02.273Z</time></trkpt><trkpt lat="43.7683797" lon="7.4904845"><ele>12.0</ele><time>2026-05-01T14:20:05.273Z</time></trkpt><trkpt lat="43.7683218" lon="7.4904383"><ele>12.0</ele><time>2026-05-01T14:20:08.273Z</time></trkpt><trkpt lat="43.7682625" lon="7.4903522"><ele>10.799999999999999</ele><time>2026-05-01T14:20:12.273Z</time></trkpt><trkpt lat="43.7682024" lon="7.4902667"><ele>9.6</ele><time>2026-05-01T14:20:14.273Z</time></trkpt><trkpt lat="43.7681152" lon="7.490138"><ele>8.399999999999999</ele><time>2026-05-01T14:20:16.273Z</time></trkpt><trkpt lat="43.7680655" lon="7.4900663"><ele>7.199999999999999</ele><time>2026-05-01T14:20:17.273Z</time></trkpt><trkpt lat="43.7680121" lon="7.489988"><ele>6.0</ele><time>2026-05-01T14:20:18.273Z</time></trkpt><trkpt lat="43.7679247" lon="7.4898467"><ele>6.0</ele><time>2026-05-01T14:20:20.273Z</time></trkpt><trkpt lat="43.7678845" lon="7.4897786"><ele>6.0</ele><time>2026-05-01T14:20:21.274Z</time></trkpt><trkpt lat="43.7678146" lon="7.4896559"><ele>6.0</ele><time>2026-05-01T14:20:23.274Z</time></trkpt><trkpt lat="43.7677438" lon="7.4895383"><ele>6.0</ele><time>2026-05-01T14:21:01.274Z</time></trkpt><trkpt lat="43.7676849" lon="7.4892596"><ele>6.6</ele><time>2026-05-01T14:21:05.273Z</time></trkpt><trkpt lat="43.7677495" lon="7.4891142"><ele>7.199999999999999</ele><time>2026-05-01T14:21:07.273Z</time></trkpt><trkpt lat="43.7678032" lon="7.4890221"><ele>7.800000000000001</ele><time>2026-05-01T14:21:08.273Z</time></trkpt><trkpt lat="43.7678586" lon="7.4889176"><ele>8.4</ele><time>2026-05-01T14:21:09.273Z</time></trkpt><trkpt lat="43.7679167" lon="7.4888148"><ele>9.0</ele><time>2026-05-01T14:21:10.274Z</time></trkpt><trkpt lat="43.767973" lon="7.4887093"><ele>10.166666666666666</ele><time>2026-05-01T14:21:11.273Z</time></trkpt><trkpt lat="43.7680131" lon="7.4886159"><ele>11.333333333333332</ele><time>2026-05-01T14:21:12.273Z</time></trkpt><trkpt lat="43.7680343" lon="7.4885242"><ele>12.5</ele><time>2026-05-01T14:21:13.273Z</time></trkpt><trkpt lat="43.768045" lon="7.4884314"><ele>13.666666666666666</ele><time>2026-05-01T14:21:14.273Z</time></trkpt><trkpt lat="43.7680363" lon="7.4883322"><ele>14.833333333333332</ele><time>2026-05-01T14:21:15.273Z</time></trkpt><trkpt lat="43.7680123" lon="7.4882202"><ele>16.0</ele><time>2026-05-01T14:21:16.273Z</time></trkpt><trkpt lat="43.7679655" lon="7.4880894"><ele>16.0</ele><time>2026-05-01T14:21:17.273Z</time></trkpt><trkpt lat="43.7679059" lon="7.4879509"><ele>16.0</ele><time>2026-05-01T14:21:18.273Z</time></trkpt><trkpt lat="43.7678458" lon="7.4878041"><ele>16.0</ele><time>2026-05-01T14:21:19.273Z</time></trkpt><trkpt lat="43.7677918" lon="7.4876765"><ele>16.0</ele><time>2026-05-01T14:21:20.274Z</time></trkpt><trkpt lat="43.7677463" lon="7.4875702"><ele>16.0</ele><time>2026-05-01T14:21:21.274Z</time></trkpt><trkpt lat="43.7677075" lon="7.4874813"><ele>14.4</ele><time>2026-05-01T14:21:22.273Z</time></trkpt><trkpt lat="43.7676844" lon="7.4872726"><ele>12.8</ele><time>2026-05-01T14:21:24.273Z</time></trkpt><trkpt lat="43.7676883" lon="7.4871534"><ele>11.200000000000001</ele><time>2026-05-01T14:21:25.273Z</time></trkpt><trkpt lat="43.7677027" lon="7.4870235"><ele>9.600000000000001</ele><time>2026-05-01T14:21:26.273Z</time></trkpt><trkpt lat="43.7677098" lon="7.486877"><ele>8.0</ele><time>2026-05-01T14:21:27.273Z</time></trkpt><trkpt lat="43.7676946" lon="7.4867458"><ele>9.600000000000001</ele><time>2026-05-01T14:21:28.273Z</time></trkpt><trkpt lat="43.7676586" lon="7.4866244"><ele>11.200000000000001</ele><time>2026-05-01T14:21:29.274Z</time></trkpt><trkpt lat="43.7676128" lon="7.4865092"><ele>12.8</ele><time>2026-05-01T14:21:30.273Z</time></trkpt><trkpt lat="43.767545" lon="7.4863999"><ele>14.4</ele><time>2026-05-01T14:21:31.273Z</time></trkpt><trkpt lat="43.767474" lon="7.4862897"><ele>16.0</ele><time>2026-05-01T14:21:32.273Z</time></trkpt><trkpt lat="43.7674124" lon="7.4861946"><ele>16.400000000000002</ele><time>2026-05-01T14:21:33.273Z</time></trkpt><trkpt lat="43.7673699" lon="7.4860979"><ele>16.8</ele><time>2026-05-01T14:21:34.273Z</time></trkpt><trkpt lat="43.7673308" lon="7.4860076"><ele>17.200000000000003</ele><time>2026-05-01T14:21:35.273Z</time></trkpt><trkpt lat="43.7672914" lon="7.4859279"><ele>17.6</ele><time>2026-05-01T14:21:36.273Z</time></trkpt><trkpt lat="43.7672282" lon="7.4857874"><ele>18.0</ele><time>2026-05-01T14:21:38.274Z</time></trkpt><trkpt lat="43.7671412" lon="7.4856536"><ele>18.0</ele><time>2026-05-01T14:21:40.273Z</time></trkpt><trkpt lat="43.7670452" lon="7.485577"><ele>18.0</ele><time>2026-05-01T14:21:42.273Z</time></trkpt><trkpt lat="43.7669586" lon="7.4855092"><ele>18.0</ele><time>2026-05-01T14:21:44.273Z</time></trkpt><trkpt lat="43.7668367" lon="7.4854183"><ele>18.0</ele><time>2026-05-01T14:21:46.274Z</time></trkpt><trkpt lat="43.7667742" lon="7.4853701"><ele>18.0</ele><time>2026-05-01T14:21:48.273Z</time></trkpt><trkpt lat="43.766715" lon="7.4853316"><ele>17.6</ele><time>2026-05-01T14:21:53.273Z</time></trkpt><trkpt lat="43.7666365" lon="7.4851995"><ele>17.200000000000003</ele><time>2026-05-01T14:21:55.273Z</time></trkpt><trkpt lat="43.7665931" lon="7.4851071"><ele>16.8</ele><time>2026-05-01T14:21:56.273Z</time></trkpt><trkpt lat="43.7665514" lon="7.485006"><ele>16.400000000000002</ele><time>2026-05-01T14:21:57.273Z</time></trkpt><trkpt lat="43.7665191" lon="7.484892"><ele>16.0</ele><time>2026-05-01T14:21:58.273Z</time></trkpt><trkpt lat="43.7664905" lon="7.4847727"><ele>16.0</ele><time>2026-05-01T14:21:59.273Z</time></trkpt><trkpt lat="43.7664748" lon="7.4846311"><ele>16.0</ele><time>2026-05-01T14:22:00.273Z</time></trkpt><trkpt lat="43.7664496" lon="7.4845233"><ele>16.0</ele><time>2026-05-01T14:22:01.273Z</time></trkpt><trkpt lat="43.7664217" lon="7.4844379"><ele>16.0</ele><time>2026-05-01T14:22:02.273Z</time></trkpt><trkpt lat="43.7663441" lon="7.4843067"><ele>16.0</ele><time>2026-05-01T14:22:04.273Z</time></trkpt><trkpt lat="43.7662646" lon="7.4842008"><ele>16.0</ele><time>2026-05-01T14:22:06.273Z</time></trkpt><trkpt lat="43.7661698" lon="7.4840606"><ele>16.0</ele><time>2026-05-01T14:22:11.273Z</time></trkpt><trkpt lat="43.7660956" lon="7.4839353"><ele>16.0</ele><time>2026-05-01T14:22:13.273Z</time></trkpt><trkpt lat="43.7659952" lon="7.4838418"><ele>16.0</ele><time>2026-05-01T14:22:15.273Z</time></trkpt><trkpt lat="43.7659429" lon="7.4837802"><ele>16.0</ele><time>2026-05-01T14:22:16.273Z</time></trkpt><trkpt lat="43.7659048" lon="7.4837059"><ele>16.5</ele><time>2026-05-01T14:22:17.273Z</time></trkpt><trkpt lat="43.7658366" lon="7.4835722"><ele>17.0</ele><time>2026-05-01T14:22:19.274Z</time></trkpt><trkpt lat="43.7658097" lon="7.4834912"><ele>17.5</ele><time>2026-05-01T14:22:20.273Z</time></trkpt><trkpt lat="43.7657906" lon="7.4833939"><ele>18.0</ele><time>2026-05-01T14:22:21.273Z</time></trkpt><trkpt lat="43.7657695" lon="7.4832976"><ele>18.5</ele><time>2026-05-01T14:22:22.273Z</time></trkpt><trkpt lat="43.7657508" lon="7.4832024"><ele>19.0</ele><time>2026-05-01T14:22:23.273Z</time></trkpt><trkpt lat="43.7657259" lon="7.483118"><ele>19.0</ele><time>2026-05-01T14:22:24.273Z</time></trkpt><trkpt lat="43.765708" lon="7.4830335"><ele>19.0</ele><time>2026-05-01T14:22:25.273Z</time></trkpt><trkpt lat="43.7656715" lon="7.4828837"><ele>19.0</ele><time>2026-05-01T14:22:27.273Z</time></trkpt><trkpt lat="43.7655339" lon="7.4826118"><ele>19.0</ele><time>2026-05-01T14:22:31.273Z</time></trkpt><trkpt lat="43.7654777" lon="7.4825501"><ele>18.833333333333332</ele><time>2026-05-01T14:22:32.273Z</time></trkpt><trkpt lat="43.7654272" lon="7.4824971"><ele>18.666666666666664</ele><time>2026-05-01T14:22:33.273Z</time></trkpt><trkpt lat="43.7653689" lon="7.4824373"><ele>18.5</ele><time>2026-05-01T14:22:36.273Z</time></trkpt><trkpt lat="43.7652901" lon="7.4823641"><ele>18.333333333333332</ele><time>2026-05-01T14:22:38.273Z</time></trkpt><trkpt lat="43.7652281" lon="7.4823038"><ele>18.166666666666668</ele><time>2026-05-01T14:22:39.273Z</time></trkpt><trkpt lat="43.7651583" lon="7.4822333"><ele>18.0</ele><time>2026-05-01T14:22:40.273Z</time></trkpt><trkpt lat="43.7650806" lon="7.4821567"><ele>18.5</ele><time>2026-05-01T14:22:41.274Z</time></trkpt><trkpt lat="43.7650062" lon="7.4820863"><ele>19.0</ele><time>2026-05-01T14:22:42.273Z</time></trkpt><trkpt lat="43.7649403" lon="7.4820199"><ele>19.5</ele><time>2026-05-01T14:22:43.273Z</time></trkpt><trkpt lat="43.7648711" lon="7.4819542"><ele>20.0</ele><time>2026-05-01T14:22:44.273Z</time></trkpt><trkpt lat="43.7647954" lon="7.4819176"><ele>20.5</ele><time>2026-05-01T14:22:45.274Z</time></trkpt><trkpt lat="43.7647255" lon="7.4818841"><ele>21.0</ele><time>2026-05-01T14:22:46.273Z</time></trkpt><trkpt lat="43.7646634" lon="7.481829"><ele>21.0</ele><time>2026-05-01T14:22:47.273Z</time></trkpt><trkpt lat="43.7646104" lon="7.4817602"><ele>21.0</ele><time>2026-05-01T14:22:48.273Z</time></trkpt><trkpt lat="43.7645071" lon="7.481619"><ele>21.0</ele><time>2026-05-01T14:22:50.273Z</time></trkpt><trkpt lat="43.7644662" lon="7.4815464"><ele>21.0</ele><time>2026-05-01T14:22:51.273Z</time></trkpt><trkpt lat="43.764428" lon="7.4814658"><ele>21.0</ele><time>2026-05-01T14:22:52.273Z</time></trkpt><trkpt lat="43.7643836" lon="7.4813895"><ele>21.0</ele><time>2026-05-01T14:22:53.274Z</time></trkpt><trkpt lat="43.7643308" lon="7.4813095"><ele>20.857142857142858</ele><time>2026-05-01T14:22:54.273Z</time></trkpt><trkpt lat="43.7642779" lon="7.4812395"><ele>20.714285714285715</ele><time>2026-05-01T14:22:55.273Z</time></trkpt><trkpt lat="43.7642326" lon="7.4811676"><ele>20.57142857142857</ele><time>2026-05-01T14:22:56.273Z</time></trkpt><trkpt lat="43.7641877" lon="7.4810929"><ele>20.42857142857143</ele><time>2026-05-01T14:22:57.274Z</time></trkpt><trkpt lat="43.7641385" lon="7.4810109"><ele>20.285714285714285</ele><time>2026-05-01T14:22:58.273Z</time></trkpt><trkpt lat="43.7640886" lon="7.4809288"><ele>20.142857142857142</ele><time>2026-05-01T14:22:59.273Z</time></trkpt><trkpt lat="43.7640391" lon="7.4808558"><ele>20.0</ele><time>2026-05-01T14:23:00.273Z</time></trkpt><trkpt lat="43.7639977" lon="7.4807827"><ele>20.0</ele><time>2026-05-01T14:23:01.273Z</time></trkpt><trkpt lat="43.7639595" lon="7.4807111"><ele>20.0</ele><time>2026-05-01T14:23:02.273Z</time></trkpt><trkpt lat="43.763903" lon="7.4805836"><ele>20.0</ele><time>2026-05-01T14:23:04.274Z</time></trkpt><trkpt lat="43.7638648" lon="7.4804966"><ele>20.0</ele><time>2026-05-01T14:23:06.273Z</time></trkpt><trkpt lat="43.7638318" lon="7.4804109"><ele>20.0</ele><time>2026-05-01T14:23:08.273Z</time></trkpt><trkpt lat="43.7637912" lon="7.4803027"><ele>20.0</ele><time>2026-05-01T14:23:10.273Z</time></trkpt><trkpt lat="43.7636187" lon="7.4801113"><ele>20.6</ele><time>2026-05-01T14:23:14.273Z</time></trkpt><trkpt lat="43.7635601" lon="7.48003"><ele>21.2</ele><time>2026-05-01T14:23:15.274Z</time></trkpt><trkpt lat="43.7634968" lon="7.4799373"><ele>21.799999999999997</ele><time>2026-05-01T14:23:16.273Z</time></trkpt><trkpt lat="43.763436" lon="7.4798332"><ele>22.4</ele><time>2026-05-01T14:23:17.273Z</time></trkpt><trkpt lat="43.7633725" lon="7.4797172"><ele>23.0</ele><time>2026-05-01T14:23:18.273Z</time></trkpt><trkpt lat="43.7633046" lon="7.4796014"><ele>24.2</ele><time>2026-05-01T14:23:19.273Z</time></trkpt><trkpt lat="43.7632319" lon="7.4794855"><ele>25.4</ele><time>2026-05-01T14:23:20.273Z</time></trkpt><trkpt lat="43.7631532" lon="7.4793675"><ele>26.599999999999998</ele><time>2026-05-01T14:23:21.272Z</time></trkpt><trkpt lat="43.7630706" lon="7.4792521"><ele>27.799999999999997</ele><time>2026-05-01T14:23:22.272Z</time></trkpt><trkpt lat="43.7630014" lon="7.4791543"><ele>29.0</ele><time>2026-05-01T14:23:23.273Z</time></trkpt><trkpt lat="43.7629208" lon="7.4790915"><ele>28.999999999999996</ele><time>2026-05-01T14:23:24.272Z</time></trkpt><trkpt lat="43.7628515" lon="7.4790244"><ele>29.0</ele><time>2026-05-01T14:23:25.272Z</time></trkpt><trkpt lat="43.7627978" lon="7.4789517"><ele>29.0</ele><time>2026-05-01T14:23:26.272Z</time></trkpt><trkpt lat="43.7627384" lon="7.4788727"><ele>29.0</ele><time>2026-05-01T14:23:27.272Z</time></trkpt><trkpt lat="43.7626696" lon="7.4787951"><ele>28.999999999999996</ele><time>2026-05-01T14:23:28.272Z</time></trkpt><trkpt lat="43.7625969" lon="7.4787182"><ele>29.0</ele><time>2026-05-01T14:23:29.272Z</time></trkpt><trkpt lat="43.7625213" lon="7.4786419"><ele>31.0</ele><time>2026-05-01T14:23:30.272Z</time></trkpt><trkpt lat="43.7624371" lon="7.4785705"><ele>33.0</ele><time>2026-05-01T14:23:31.272Z</time></trkpt><trkpt lat="43.7622464" lon="7.4785002"><ele>35.0</ele><time>2026-05-01T14:23:33.272Z</time></trkpt><trkpt lat="43.7621456" lon="7.4784971"><ele>37.0</ele><time>2026-05-01T14:23:34.272Z</time></trkpt><trkpt lat="43.7620425" lon="7.4785129"><ele>37.0</ele><time>2026-05-01T14:23:35.272Z</time></trkpt><trkpt lat="43.7619462" lon="7.4785318"><ele>37.0</ele><time>2026-05-01T14:23:36.272Z</time></trkpt><trkpt lat="43.7618531" lon="7.4785564"><ele>37.0</ele><time>2026-05-01T14:23:37.273Z</time></trkpt><trkpt lat="43.7617589" lon="7.4785875"><ele>37.0</ele><time>2026-05-01T14:23:38.272Z</time></trkpt><trkpt lat="43.7616651" lon="7.478602"><ele>37.0</ele><time>2026-05-01T14:23:39.273Z</time></trkpt><trkpt lat="43.7615776" lon="7.4786024"><ele>37.4</ele><time>2026-05-01T14:23:40.272Z</time></trkpt><trkpt lat="43.7614851" lon="7.4785905"><ele>37.800000000000004</ele><time>2026-05-01T14:23:41.272Z</time></trkpt><trkpt lat="43.7613933" lon="7.4785638"><ele>38.2</ele><time>2026-05-01T14:23:42.272Z</time></trkpt><trkpt lat="43.761294" lon="7.478527"><ele>38.6</ele><time>2026-05-01T14:23:43.272Z</time></trkpt><trkpt lat="43.7611908" lon="7.478473"><ele>39.0</ele><time>2026-05-01T14:23:44.272Z</time></trkpt><trkpt lat="43.7610826" lon="7.4784"><ele>39.0</ele><time>2026-05-01T14:23:45.272Z</time></trkpt><trkpt lat="43.7609783" lon="7.4783243"><ele>39.0</ele><time>2026-05-01T14:23:46.272Z</time></trkpt><trkpt lat="43.7608854" lon="7.4782506"><ele>39.0</ele><time>2026-05-01T14:23:47.273Z</time></trkpt><trkpt lat="43.7607973" lon="7.4781817"><ele>39.0</ele><time>2026-05-01T14:23:48.272Z</time></trkpt><trkpt lat="43.7607207" lon="7.4781184"><ele>39.0</ele><time>2026-05-01T14:23:49.272Z</time></trkpt><trkpt lat="43.7606582" lon="7.4780671"><ele>39.0</ele><time>2026-05-01T14:23:50.272Z</time></trkpt><trkpt lat="43.7606009" lon="7.4780208"><ele>39.0</ele><time>2026-05-01T14:23:51.273Z</time></trkpt><trkpt lat="43.7605431" lon="7.477976"><ele>39.0</ele><time>2026-05-01T14:23:52.272Z</time></trkpt><trkpt lat="43.7604207" lon="7.4778786"><ele>39.0</ele><time>2026-05-01T14:23:54.272Z</time></trkpt><trkpt lat="43.7603494" lon="7.4778192"><ele>39.0</ele><time>2026-05-01T14:23:55.272Z</time></trkpt><trkpt lat="43.7602678" lon="7.477751"><ele>40.5</ele><time>2026-05-01T14:23:56.272Z</time></trkpt><trkpt lat="43.7601835" lon="7.4776691"><ele>42.0</ele><time>2026-05-01T14:23:57.272Z</time></trkpt><trkpt lat="43.760109" lon="7.4776004"><ele>43.5</ele><time>2026-05-01T14:23:58.272Z</time></trkpt><trkpt lat="43.7600379" lon="7.4775456"><ele>45.0</ele><time>2026-05-01T14:23:59.272Z</time></trkpt><trkpt lat="43.7599626" lon="7.4774896"><ele>46.5</ele><time>2026-05-01T14:24:00.272Z</time></trkpt><trkpt lat="43.7598946" lon="7.4774344"><ele>48.0</ele><time>2026-05-01T14:24:01.272Z</time></trkpt><trkpt lat="43.7598277" lon="7.4773688"><ele>48.0</ele><time>2026-05-01T14:24:02.272Z</time></trkpt><trkpt lat="43.7597642" lon="7.4772959"><ele>48.0</ele><time>2026-05-01T14:24:03.272Z</time></trkpt><trkpt lat="43.7596982" lon="7.4772263"><ele>48.0</ele><time>2026-05-01T14:24:04.272Z</time></trkpt><trkpt lat="43.7596361" lon="7.4771593"><ele>48.0</ele><time>2026-05-01T14:24:05.272Z</time></trkpt><trkpt lat="43.7595792" lon="7.4770809"><ele>48.0</ele><time>2026-05-01T14:24:06.273Z</time></trkpt><trkpt lat="43.7595315" lon="7.4769931"><ele>48.0</ele><time>2026-05-01T14:24:07.272Z</time></trkpt><trkpt lat="43.7594994" lon="7.4769008"><ele>48.5</ele><time>2026-05-01T14:24:08.272Z</time></trkpt><trkpt lat="43.7594931" lon="7.4767933"><ele>49.0</ele><time>2026-05-01T14:24:09.272Z</time></trkpt><trkpt lat="43.7595135" lon="7.4766876"><ele>49.5</ele><time>2026-05-01T14:24:10.272Z</time></trkpt><trkpt lat="43.759555" lon="7.4765883"><ele>50.0</ele><time>2026-05-01T14:24:11.272Z</time></trkpt><trkpt lat="43.759619" lon="7.4764968"><ele>50.5</ele><time>2026-05-01T14:24:12.272Z</time></trkpt><trkpt lat="43.7596909" lon="7.4764113"><ele>51.0</ele><time>2026-05-01T14:24:13.272Z</time></trkpt><trkpt lat="43.7598624" lon="7.4762692"><ele>51.0</ele><time>2026-05-01T14:24:15.272Z</time></trkpt><trkpt lat="43.7599482" lon="7.4762164"><ele>51.0</ele><time>2026-05-01T14:24:16.272Z</time></trkpt><trkpt lat="43.760035" lon="7.4761596"><ele>51.0</ele><time>2026-05-01T14:24:17.272Z</time></trkpt><trkpt lat="43.7601221" lon="7.4760993"><ele>51.0</ele><time>2026-05-01T14:24:18.273Z</time></trkpt><trkpt lat="43.7602079" lon="7.4760261"><ele>51.0</ele><time>2026-05-01T14:24:19.272Z</time></trkpt><trkpt lat="43.760294" lon="7.4759586"><ele>55.199999999999996</ele><time>2026-05-01T14:24:20.273Z</time></trkpt><trkpt lat="43.7603736" lon="7.4758897"><ele>59.4</ele><time>2026-05-01T14:24:21.272Z</time></trkpt><trkpt lat="43.7604456" lon="7.4758006"><ele>63.6</ele><time>2026-05-01T14:24:22.272Z</time></trkpt><trkpt lat="43.7605108" lon="7.475705"><ele>67.8</ele><time>2026-05-01T14:24:23.272Z</time></trkpt><trkpt lat="43.7605717" lon="7.4756112"><ele>72.0</ele><time>2026-05-01T14:24:24.272Z</time></trkpt><trkpt lat="43.7606339" lon="7.4755158"><ele>69.75</ele><time>2026-05-01T14:24:25.272Z</time></trkpt><trkpt lat="43.7606959" lon="7.4754063"><ele>67.5</ele><time>2026-05-01T14:24:26.272Z</time></trkpt><trkpt lat="43.7607602" lon="7.4752747"><ele>65.25</ele><time>2026-05-01T14:24:27.272Z</time></trkpt><trkpt lat="43.7608431" lon="7.4751146"><ele>63.0</ele><time>2026-05-01T14:24:28.272Z</time></trkpt><trkpt lat="43.7609359" lon="7.4749585"><ele>63.0</ele><time>2026-05-01T14:24:29.272Z</time></trkpt><trkpt lat="43.761022" lon="7.474829"><ele>63.0</ele><time>2026-05-01T14:24:30.273Z</time></trkpt><trkpt lat="43.7610994" lon="7.4747183"><ele>63.0</ele><time>2026-05-01T14:24:31.272Z</time></trkpt><trkpt lat="43.7611727" lon="7.4746274"><ele>63.0</ele><time>2026-05-01T14:24:32.272Z</time></trkpt><trkpt lat="43.7612528" lon="7.474531"><ele>63.0</ele><time>2026-05-01T14:24:33.272Z</time></trkpt><trkpt lat="43.7613287" lon="7.4744334"><ele>64.75</ele><time>2026-05-01T14:24:34.272Z</time></trkpt><trkpt lat="43.7614283" lon="7.4742059"><ele>66.5</ele><time>2026-05-01T14:24:36.272Z</time></trkpt><trkpt lat="43.7614513" lon="7.4740774"><ele>68.25</ele><time>2026-05-01T14:24:37.272Z</time></trkpt><trkpt lat="43.7614683" lon="7.4739559"><ele>70.0</ele><time>2026-05-01T14:24:38.272Z</time></trkpt><trkpt lat="43.7614818" lon="7.473841"><ele>69.33333333333333</ele><time>2026-05-01T14:24:39.272Z</time></trkpt><trkpt lat="43.7615126" lon="7.4737247"><ele>68.66666666666666</ele><time>2026-05-01T14:24:40.272Z</time></trkpt><trkpt lat="43.7615439" lon="7.4736099"><ele>68.0</ele><time>2026-05-01T14:24:41.272Z</time></trkpt><trkpt lat="43.7615918" lon="7.4735073"><ele>67.33333333333333</ele><time>2026-05-01T14:24:42.272Z</time></trkpt><trkpt lat="43.7616497" lon="7.4734101"><ele>66.66666666666667</ele><time>2026-05-01T14:24:43.272Z</time></trkpt><trkpt lat="43.7617149" lon="7.4733345"><ele>66.0</ele><time>2026-05-01T14:24:44.272Z</time></trkpt><trkpt lat="43.7617897" lon="7.473278"><ele>68.66666666666667</ele><time>2026-05-01T14:24:45.272Z</time></trkpt><trkpt lat="43.7618686" lon="7.4732339"><ele>71.33333333333333</ele><time>2026-05-01T14:24:46.273Z</time></trkpt><trkpt lat="43.7619522" lon="7.473203"><ele>74.0</ele><time>2026-05-01T14:24:47.272Z</time></trkpt><trkpt lat="43.762039" lon="7.4731659"><ele>76.66666666666666</ele><time>2026-05-01T14:24:48.272Z</time></trkpt><trkpt lat="43.7621139" lon="7.473102"><ele>79.33333333333333</ele><time>2026-05-01T14:24:49.272Z</time></trkpt><trkpt lat="43.7621839" lon="7.4730175"><ele>82.0</ele><time>2026-05-01T14:24:50.272Z</time></trkpt><trkpt lat="43.7622458" lon="7.4729233"><ele>82.0</ele><time>2026-05-01T14:24:51.272Z</time></trkpt><trkpt lat="43.7623052" lon="7.4728259"><ele>82.0</ele><time>2026-05-01T14:24:52.272Z</time></trkpt><trkpt lat="43.7623585" lon="7.4727209"><ele>82.0</ele><time>2026-05-01T14:24:53.272Z</time></trkpt><trkpt lat="43.7624034" lon="7.4726074"><ele>82.0</ele><time>2026-05-01T14:24:54.272Z</time></trkpt><trkpt lat="43.7624458" lon="7.4725057"><ele>82.0</ele><time>2026-05-01T14:24:55.273Z</time></trkpt><trkpt lat="43.7624859" lon="7.4722927"><ele>82.0</ele><time>2026-05-01T14:24:57.273Z</time></trkpt><trkpt lat="43.7624985" lon="7.472191"><ele>82.0</ele><time>2026-05-01T14:24:58.272Z</time></trkpt><trkpt lat="43.7625116" lon="7.4720618"><ele>82.0</ele><time>2026-05-01T14:24:59.272Z</time></trkpt><trkpt lat="43.7625325" lon="7.4719074"><ele>82.0</ele><time>2026-05-01T14:25:00.272Z</time></trkpt><trkpt lat="43.7625699" lon="7.4717278"><ele>82.0</ele><time>2026-05-01T14:25:01.272Z</time></trkpt><trkpt lat="43.7626058" lon="7.4715534"><ele>82.39999999999999</ele><time>2026-05-01T14:25:02.272Z</time></trkpt><trkpt lat="43.762621" lon="7.4713933"><ele>82.8</ele><time>2026-05-01T14:25:03.272Z</time></trkpt><trkpt lat="43.7626313" lon="7.4712533"><ele>83.2</ele><time>2026-05-01T14:25:04.272Z</time></trkpt><trkpt lat="43.7626285" lon="7.4711167"><ele>83.6</ele><time>2026-05-01T14:25:05.273Z</time></trkpt><trkpt lat="43.7626015" lon="7.4709909"><ele>84.0</ele><time>2026-05-01T14:25:06.272Z</time></trkpt><trkpt lat="43.7625522" lon="7.4708664"><ele>85.0</ele><time>2026-05-01T14:25:07.272Z</time></trkpt><trkpt lat="43.7624746" lon="7.4707642"><ele>86.0</ele><time>2026-05-01T14:25:08.272Z</time></trkpt><trkpt lat="43.7623802" lon="7.4706746"><ele>87.0</ele><time>2026-05-01T14:25:09.272Z</time></trkpt><trkpt lat="43.7622745" lon="7.4706275"><ele>88.0</ele><time>2026-05-01T14:25:10.272Z</time></trkpt><trkpt lat="43.7621609" lon="7.4706203"><ele>89.0</ele><time>2026-05-01T14:25:11.272Z</time></trkpt><trkpt lat="43.7620391" lon="7.470652"><ele>89.0</ele><time>2026-05-01T14:25:12.272Z</time></trkpt><trkpt lat="43.7619136" lon="7.4707058"><ele>89.0</ele><time>2026-05-01T14:25:13.272Z</time></trkpt><trkpt lat="43.7617862" lon="7.4707896"><ele>89.0</ele><time>2026-05-01T14:25:14.273Z</time></trkpt><trkpt lat="43.7616746" lon="7.470851"><ele>89.0</ele><time>2026-05-01T14:25:15.273Z</time></trkpt><trkpt lat="43.7615708" lon="7.4708981"><ele>89.75</ele><time>2026-05-01T14:25:16.272Z</time></trkpt><trkpt lat="43.7613668" lon="7.4709523"><ele>90.5</ele><time>2026-05-01T14:25:18.272Z</time></trkpt><trkpt lat="43.7612727" lon="7.4709484"><ele>91.25</ele><time>2026-05-01T14:25:19.272Z</time></trkpt><trkpt lat="43.7611721" lon="7.470925"><ele>92.0</ele><time>2026-05-01T14:25:20.272Z</time></trkpt><trkpt lat="43.7610659" lon="7.4708858"><ele>93.39999999999999</ele><time>2026-05-01T14:25:21.272Z</time></trkpt><trkpt lat="43.7609599" lon="7.4708424"><ele>94.8</ele><time>2026-05-01T14:25:22.272Z</time></trkpt><trkpt lat="43.7608549" lon="7.4708085"><ele>96.2</ele><time>2026-05-01T14:25:23.272Z</time></trkpt><trkpt lat="43.7607548" lon="7.4707804"><ele>97.6</ele><time>2026-05-01T14:25:24.272Z</time></trkpt><trkpt lat="43.760655" lon="7.4707587"><ele>99.0</ele><time>2026-05-01T14:25:25.272Z</time></trkpt><trkpt lat="43.7605459" lon="7.4707516"><ele>99.0</ele><time>2026-05-01T14:25:26.272Z</time></trkpt><trkpt lat="43.7604327" lon="7.4707568"><ele>99.0</ele><time>2026-05-01T14:25:27.272Z</time></trkpt><trkpt lat="43.7603207" lon="7.4707725"><ele>99.0</ele><time>2026-05-01T14:25:28.272Z</time></trkpt><trkpt lat="43.760214" lon="7.4707722"><ele>99.0</ele><time>2026-05-01T14:25:29.272Z</time></trkpt><trkpt lat="43.7601131" lon="7.4707704"><ele>99.0</ele><time>2026-05-01T14:25:30.272Z</time></trkpt><trkpt lat="43.760013" lon="7.4707658"><ele>99.2</ele><time>2026-05-01T14:25:31.272Z</time></trkpt><trkpt lat="43.7599144" lon="7.4707559"><ele>99.4</ele><time>2026-05-01T14:25:32.273Z</time></trkpt><trkpt lat="43.7598242" lon="7.4707337"><ele>99.6</ele><time>2026-05-01T14:25:33.272Z</time></trkpt><trkpt lat="43.7597349" lon="7.4707001"><ele>99.8</ele><time>2026-05-01T14:25:34.272Z</time></trkpt><trkpt lat="43.7596479" lon="7.4706611"><ele>100.0</ele><time>2026-05-01T14:25:35.272Z</time></trkpt><trkpt lat="43.7595641" lon="7.4706164"><ele>100.0</ele><time>2026-05-01T14:25:36.272Z</time></trkpt><trkpt lat="43.7594766" lon="7.4705725"><ele>100.0</ele><time>2026-05-01T14:25:37.272Z</time></trkpt><trkpt lat="43.759296" lon="7.470459"><ele>100.0</ele><time>2026-05-01T14:25:39.272Z</time></trkpt><trkpt lat="43.7592063" lon="7.4704014"><ele>100.0</ele><time>2026-05-01T14:25:40.272Z</time></trkpt><trkpt lat="43.7591215" lon="7.4703383"><ele>102.6</ele><time>2026-05-01T14:25:41.273Z</time></trkpt><trkpt lat="43.7590347" lon="7.4702649"><ele>105.2</ele><time>2026-05-01T14:25:42.272Z</time></trkpt><trkpt lat="43.7589509" lon="7.4701799"><ele>107.80000000000001</ele><time>2026-05-01T14:25:43.272Z</time></trkpt><trkpt lat="43.7588784" lon="7.4700941"><ele>110.4</ele><time>2026-05-01T14:25:44.272Z</time></trkpt><trkpt lat="43.7588105" lon="7.470011"><ele>113.0</ele><time>2026-05-01T14:25:45.272Z</time></trkpt><trkpt lat="43.7587552" lon="7.4699242"><ele>113.0</ele><time>2026-05-01T14:25:46.272Z</time></trkpt><trkpt lat="43.7587047" lon="7.4698416"><ele>113.0</ele><time>2026-05-01T14:25:47.272Z</time></trkpt><trkpt lat="43.7586657" lon="7.4697614"><ele>113.0</ele><time>2026-05-01T14:25:48.272Z</time></trkpt><trkpt lat="43.7586341" lon="7.469681"><ele>113.0</ele><time>2026-05-01T14:25:49.272Z</time></trkpt><trkpt lat="43.7586012" lon="7.4696023"><ele>113.0</ele><time>2026-05-01T14:25:50.272Z</time></trkpt><trkpt lat="43.7585714" lon="7.4695124"><ele>113.0</ele><time>2026-05-01T14:25:51.273Z</time></trkpt><trkpt lat="43.7585443" lon="7.469411"><ele>113.0</ele><time>2026-05-01T14:25:52.272Z</time></trkpt><trkpt lat="43.7585149" lon="7.4693012"><ele>111.33333333333333</ele><time>2026-05-01T14:25:53.272Z</time></trkpt><trkpt lat="43.7584894" lon="7.4691959"><ele>109.66666666666666</ele><time>2026-05-01T14:25:54.273Z</time></trkpt><trkpt lat="43.7584757" lon="7.4690966"><ele>108.0</ele><time>2026-05-01T14:25:55.272Z</time></trkpt><trkpt lat="43.7584687" lon="7.4690041"><ele>106.33333333333334</ele><time>2026-05-01T14:25:56.272Z</time></trkpt><trkpt lat="43.7584847" lon="7.4688987"><ele>104.66666666666667</ele><time>2026-05-01T14:25:57.272Z</time></trkpt><trkpt lat="43.7585193" lon="7.468792"><ele>103.0</ele><time>2026-05-01T14:25:58.272Z</time></trkpt><trkpt lat="43.7586391" lon="7.4685548"><ele>108.60000000000001</ele><time>2026-05-01T14:26:00.273Z</time></trkpt><trkpt lat="43.7587009" lon="7.4684345"><ele>114.2</ele><time>2026-05-01T14:26:01.272Z</time></trkpt><trkpt lat="43.7587684" lon="7.4683224"><ele>119.8</ele><time>2026-05-01T14:26:02.272Z</time></trkpt><trkpt lat="43.7588209" lon="7.4682189"><ele>125.4</ele><time>2026-05-01T14:26:03.272Z</time></trkpt><trkpt lat="43.7588755" lon="7.4681153"><ele>131.0</ele><time>2026-05-01T14:26:04.273Z</time></trkpt><trkpt lat="43.7589304" lon="7.468015"><ele>126.8</ele><time>2026-05-01T14:26:05.273Z</time></trkpt><trkpt lat="43.7589954" lon="7.4679221"><ele>122.6</ele><time>2026-05-01T14:26:06.272Z</time></trkpt><trkpt lat="43.7590607" lon="7.4678219"><ele>118.4</ele><time>2026-05-01T14:26:07.273Z</time></trkpt><trkpt lat="43.7591323" lon="7.4677106"><ele>114.2</ele><time>2026-05-01T14:26:08.272Z</time></trkpt><trkpt lat="43.7592124" lon="7.4676016"><ele>110.0</ele><time>2026-05-01T14:26:09.272Z</time></trkpt><trkpt lat="43.7593033" lon="7.4675036"><ele>112.25</ele><time>2026-05-01T14:26:10.273Z</time></trkpt><trkpt lat="43.7593964" lon="7.4673967"><ele>114.5</ele><time>2026-05-01T14:26:11.272Z</time></trkpt><trkpt lat="43.7595067" lon="7.4672916"><ele>116.75</ele><time>2026-05-01T14:26:12.272Z</time></trkpt><trkpt lat="43.7596149" lon="7.467189"><ele>119.0</ele><time>2026-05-01T14:26:13.272Z</time></trkpt><trkpt lat="43.7597235" lon="7.4670798"><ele>119.0</ele><time>2026-05-01T14:26:14.272Z</time></trkpt><trkpt lat="43.7598279" lon="7.4669494"><ele>119.0</ele><time>2026-05-01T14:26:15.273Z</time></trkpt><trkpt lat="43.7599376" lon="7.4668322"><ele>119.0</ele><time>2026-05-01T14:26:16.273Z</time></trkpt><trkpt lat="43.760038" lon="7.4667182"><ele>119.0</ele><time>2026-05-01T14:26:17.272Z</time></trkpt><trkpt lat="43.7601274" lon="7.4665983"><ele>121.66666666666666</ele><time>2026-05-01T14:26:18.272Z</time></trkpt><trkpt lat="43.760227" lon="7.4664892"><ele>124.33333333333334</ele><time>2026-05-01T14:26:19.272Z</time></trkpt><trkpt lat="43.7604394" lon="7.4662862"><ele>127.0</ele><time>2026-05-01T14:26:21.272Z</time></trkpt><trkpt lat="43.760565" lon="7.466198"><ele>127.0</ele><time>2026-05-01T14:26:22.272Z</time></trkpt><trkpt lat="43.7606911" lon="7.4661116"><ele>127.0</ele><time>2026-05-01T14:26:23.272Z</time></trkpt><trkpt lat="43.760812" lon="7.4660272"><ele>127.0</ele><time>2026-05-01T14:26:24.273Z</time></trkpt><trkpt lat="43.760933" lon="7.465924"><ele>127.0</ele><time>2026-05-01T14:26:25.272Z</time></trkpt><trkpt lat="43.7610432" lon="7.4658043"><ele>128.75</ele><time>2026-05-01T14:26:26.272Z</time></trkpt><trkpt lat="43.7611533" lon="7.4656807"><ele>130.5</ele><time>2026-05-01T14:26:27.272Z</time></trkpt><trkpt lat="43.7612506" lon="7.4655636"><ele>132.25</ele><time>2026-05-01T14:26:28.272Z</time></trkpt><trkpt lat="43.7613491" lon="7.4654726"><ele>134.0</ele><time>2026-05-01T14:26:29.272Z</time></trkpt><trkpt lat="43.7614443" lon="7.4653972"><ele>134.0</ele><time>2026-05-01T14:26:30.272Z</time></trkpt><trkpt lat="43.7615332" lon="7.4653086"><ele>134.0</ele><time>2026-05-01T14:26:31.272Z</time></trkpt><trkpt lat="43.7616061" lon="7.4651968"><ele>134.0</ele><time>2026-05-01T14:26:32.272Z</time></trkpt><trkpt lat="43.7616831" lon="7.4650809"><ele>134.0</ele><time>2026-05-01T14:26:33.272Z</time></trkpt><trkpt lat="43.7617471" lon="7.4649345"><ele>134.0</ele><time>2026-05-01T14:26:34.272Z</time></trkpt><trkpt lat="43.761811" lon="7.464778"><ele>134.0</ele><time>2026-05-01T14:26:35.272Z</time></trkpt><trkpt lat="43.761877" lon="7.4646292"><ele>134.0</ele><time>2026-05-01T14:26:36.272Z</time></trkpt><trkpt lat="43.7619465" lon="7.4644791"><ele>134.0</ele><time>2026-05-01T14:26:37.272Z</time></trkpt><trkpt lat="43.7620263" lon="7.4643466"><ele>141.0</ele><time>2026-05-01T14:26:38.272Z</time></trkpt><trkpt lat="43.7621233" lon="7.464241"><ele>148.0</ele><time>2026-05-01T14:26:39.272Z</time></trkpt><trkpt lat="43.7622266" lon="7.4641402"><ele>155.0</ele><time>2026-05-01T14:26:40.272Z</time></trkpt><trkpt lat="43.7624464" lon="7.4639732"><ele>155.0</ele><time>2026-05-01T14:26:42.272Z</time></trkpt><trkpt lat="43.7625419" lon="7.4638557"><ele>155.0</ele><time>2026-05-01T14:26:43.272Z</time></trkpt><trkpt lat="43.7626324" lon="7.4637074"><ele>155.0</ele><time>2026-05-01T14:26:44.272Z</time></trkpt><trkpt lat="43.7627313" lon="7.4635516"><ele>155.0</ele><time>2026-05-01T14:26:45.272Z</time></trkpt><trkpt lat="43.7628393" lon="7.4634238"><ele>157.5</ele><time>2026-05-01T14:26:46.272Z</time></trkpt><trkpt lat="43.7629584" lon="7.4632907"><ele>160.0</ele><time>2026-05-01T14:26:47.272Z</time></trkpt><trkpt lat="43.7630663" lon="7.4631633"><ele>162.5</ele><time>2026-05-01T14:26:48.272Z</time></trkpt><trkpt lat="43.7631637" lon="7.4630321"><ele>165.0</ele><time>2026-05-01T14:26:49.272Z</time></trkpt><trkpt lat="43.763258" lon="7.4629076"><ele>170.5</ele><time>2026-05-01T14:26:50.272Z</time></trkpt><trkpt lat="43.7633491" lon="7.4627814"><ele>176.0</ele><time>2026-05-01T14:26:51.272Z</time></trkpt><trkpt lat="43.7634351" lon="7.4626597"><ele>181.5</ele><time>2026-05-01T14:26:52.273Z</time></trkpt><trkpt lat="43.7635218" lon="7.4625442"><ele>187.0</ele><time>2026-05-01T14:26:53.273Z</time></trkpt><trkpt lat="43.7636171" lon="7.4624517"><ele>187.0</ele><time>2026-05-01T14:26:54.272Z</time></trkpt><trkpt lat="43.7636961" lon="7.462371"><ele>187.0</ele><time>2026-05-01T14:26:55.272Z</time></trkpt><trkpt lat="43.7637574" lon="7.4622695"><ele>187.0</ele><time>2026-05-01T14:26:56.272Z</time></trkpt><trkpt lat="43.7637923" lon="7.4621454"><ele>187.0</ele><time>2026-05-01T14:26:57.272Z</time></trkpt><trkpt lat="43.763798" lon="7.4620101"><ele>187.0</ele><time>2026-05-01T14:26:58.272Z</time></trkpt><trkpt lat="43.763768" lon="7.4618768"><ele>187.0</ele><time>2026-05-01T14:26:59.272Z</time></trkpt><trkpt lat="43.7637239" lon="7.4617512"><ele>187.0</ele><time>2026-05-01T14:27:00.272Z</time></trkpt><trkpt lat="43.7636788" lon="7.4616405"><ele>187.0</ele><time>2026-05-01T14:27:01.272Z</time></trkpt><trkpt lat="43.7636564" lon="7.4614054"><ele>187.0</ele><time>2026-05-01T14:27:03.272Z</time></trkpt><trkpt lat="43.7636926" lon="7.4612735"><ele>187.0</ele><time>2026-05-01T14:27:04.272Z</time></trkpt><trkpt lat="43.7637572" lon="7.461145"><ele>187.0</ele><time>2026-05-01T14:27:05.272Z</time></trkpt><trkpt lat="43.7638221" lon="7.4610294"><ele>187.0</ele><time>2026-05-01T14:27:06.273Z</time></trkpt><trkpt lat="43.7638686" lon="7.460923"><ele>187.0</ele><time>2026-05-01T14:27:07.272Z</time></trkpt><trkpt lat="43.7638816" lon="7.4608062"><ele>187.0</ele><time>2026-05-01T14:27:08.273Z</time></trkpt><trkpt lat="43.7638553" lon="7.4606781"><ele>187.0</ele><time>2026-05-01T14:27:09.272Z</time></trkpt><trkpt lat="43.7638032" lon="7.4605578"><ele>187.0</ele><time>2026-05-01T14:27:10.273Z</time></trkpt><trkpt lat="43.7637171" lon="7.4604413"><ele>187.0</ele><time>2026-05-01T14:27:11.272Z</time></trkpt><trkpt lat="43.7636321" lon="7.46032"><ele>187.0</ele><time>2026-05-01T14:27:12.272Z</time></trkpt><trkpt lat="43.7635579" lon="7.4602005"><ele>186.0</ele><time>2026-05-01T14:27:13.272Z</time></trkpt><trkpt lat="43.7635174" lon="7.4600693"><ele>185.0</ele><time>2026-05-01T14:27:14.272Z</time></trkpt><trkpt lat="43.763496" lon="7.459946"><ele>184.0</ele><time>2026-05-01T14:27:15.272Z</time></trkpt><trkpt lat="43.7634926" lon="7.4598326"><ele>183.0</ele><time>2026-05-01T14:27:16.272Z</time></trkpt><trkpt lat="43.763512" lon="7.4597069"><ele>182.0</ele><time>2026-05-01T14:27:17.272Z</time></trkpt><trkpt lat="43.7635548" lon="7.4595752"><ele>182.0</ele><time>2026-05-01T14:27:18.272Z</time></trkpt><trkpt lat="43.7636235" lon="7.4594405"><ele>182.0</ele><time>2026-05-01T14:27:19.272Z</time></trkpt><trkpt lat="43.7636917" lon="7.4593097"><ele>182.0</ele><time>2026-05-01T14:27:20.272Z</time></trkpt><trkpt lat="43.7637771" lon="7.4591818"><ele>182.0</ele><time>2026-05-01T14:27:21.272Z</time></trkpt><trkpt lat="43.7638741" lon="7.4590683"><ele>182.0</ele><time>2026-05-01T14:27:22.273Z</time></trkpt><trkpt lat="43.7640604" lon="7.4588534"><ele>182.0</ele><time>2026-05-01T14:27:24.273Z</time></trkpt><trkpt lat="43.7641222" lon="7.4587253"><ele>182.0</ele><time>2026-05-01T14:27:25.272Z</time></trkpt><trkpt lat="43.7641669" lon="7.4585862"><ele>185.0</ele><time>2026-05-01T14:27:26.272Z</time></trkpt><trkpt lat="43.7642175" lon="7.4584492"><ele>188.0</ele><time>2026-05-01T14:27:27.272Z</time></trkpt><trkpt lat="43.7642847" lon="7.4583384"><ele>191.0</ele><time>2026-05-01T14:27:28.272Z</time></trkpt><trkpt lat="43.7643693" lon="7.4582634"><ele>194.0</ele><time>2026-05-01T14:27:29.272Z</time></trkpt><trkpt lat="43.7644732" lon="7.4582147"><ele>197.0</ele><time>2026-05-01T14:27:30.272Z</time></trkpt><trkpt lat="43.7645798" lon="7.4581955"><ele>197.0</ele><time>2026-05-01T14:27:31.272Z</time></trkpt><trkpt lat="43.7646793" lon="7.4581814"><ele>197.0</ele><time>2026-05-01T14:27:32.272Z</time></trkpt><trkpt lat="43.7647592" lon="7.4581619"><ele>197.0</ele><time>2026-05-01T14:27:33.272Z</time></trkpt><trkpt lat="43.7648428" lon="7.4580326"><ele>197.0</ele><time>2026-05-01T14:27:35.272Z</time></trkpt><trkpt lat="43.7648503" lon="7.4579287"><ele>197.0</ele><time>2026-05-01T14:27:36.272Z</time></trkpt><trkpt lat="43.7648321" lon="7.4578283"><ele>199.0</ele><time>2026-05-01T14:27:37.272Z</time></trkpt><trkpt lat="43.7648004" lon="7.4577458"><ele>201.0</ele><time>2026-05-01T14:27:38.272Z</time></trkpt><trkpt lat="43.7647266" lon="7.4576775"><ele>203.0</ele><time>2026-05-01T14:27:39.272Z</time></trkpt><trkpt lat="43.7646357" lon="7.457594"><ele>205.0</ele><time>2026-05-01T14:27:40.272Z</time></trkpt><trkpt lat="43.764547" lon="7.4575087"><ele>207.0</ele><time>2026-05-01T14:27:41.272Z</time></trkpt><trkpt lat="43.7644634" lon="7.4574245"><ele>207.0</ele><time>2026-05-01T14:27:42.272Z</time></trkpt><trkpt lat="43.7643836" lon="7.4573479"><ele>207.0</ele><time>2026-05-01T14:27:43.272Z</time></trkpt><trkpt lat="43.7642328" lon="7.4572172"><ele>207.0</ele><time>2026-05-01T14:27:45.272Z</time></trkpt><trkpt lat="43.7641673" lon="7.4571593"><ele>207.0</ele><time>2026-05-01T14:27:46.272Z</time></trkpt><trkpt lat="43.7641031" lon="7.4571165"><ele>207.0</ele><time>2026-05-01T14:27:47.272Z</time></trkpt><trkpt lat="43.764047" lon="7.4570633"><ele>202.83333333333334</ele><time>2026-05-01T14:27:48.272Z</time></trkpt><trkpt lat="43.7639969" lon="7.4570091"><ele>198.66666666666666</ele><time>2026-05-01T14:27:49.272Z</time></trkpt><trkpt lat="43.7639545" lon="7.4568683"><ele>194.5</ele><time>2026-05-01T14:27:51.272Z</time></trkpt><trkpt lat="43.7639752" lon="7.4567841"><ele>190.33333333333331</ele><time>2026-05-01T14:27:52.272Z</time></trkpt><trkpt lat="43.7640182" lon="7.4566974"><ele>186.16666666666666</ele><time>2026-05-01T14:27:53.272Z</time></trkpt><trkpt lat="43.764097" lon="7.4566088"><ele>182.0</ele><time>2026-05-01T14:27:54.272Z</time></trkpt><trkpt lat="43.7642046" lon="7.4565328"><ele>182.0</ele><time>2026-05-01T14:27:55.272Z</time></trkpt><trkpt lat="43.7643366" lon="7.4564755"><ele>182.0</ele><time>2026-05-01T14:27:56.272Z</time></trkpt><trkpt lat="43.7644855" lon="7.4564404"><ele>182.0</ele><time>2026-05-01T14:27:57.273Z</time></trkpt><trkpt lat="43.7646482" lon="7.4563764"><ele>182.33333333333331</ele><time>2026-05-01T14:27:58.272Z</time></trkpt><trkpt lat="43.7648263" lon="7.456293"><ele>182.66666666666666</ele><time>2026-05-01T14:27:59.272Z</time></trkpt><trkpt lat="43.76501" lon="7.4561915"><ele>183.0</ele><time>2026-05-01T14:28:00.272Z</time></trkpt><trkpt lat="43.7651785" lon="7.4561109"><ele>188.25</ele><time>2026-05-01T14:28:01.273Z</time></trkpt><trkpt lat="43.7653206" lon="7.4560181"><ele>193.5</ele><time>2026-05-01T14:28:02.272Z</time></trkpt><trkpt lat="43.7654375" lon="7.4559321"><ele>198.75</ele><time>2026-05-01T14:28:03.273Z</time></trkpt><trkpt lat="43.7655481" lon="7.4558249"><ele>204.0</ele><time>2026-05-01T14:28:04.272Z</time></trkpt><trkpt lat="43.7657635" lon="7.4555919"><ele>204.0</ele><time>2026-05-01T14:28:06.272Z</time></trkpt><trkpt lat="43.7658746" lon="7.455494"><ele>204.0</ele><time>2026-05-01T14:28:07.272Z</time></trkpt><trkpt lat="43.7659929" lon="7.4554105"><ele>204.0</ele><time>2026-05-01T14:28:08.272Z</time></trkpt><trkpt lat="43.7661061" lon="7.4553144"><ele>204.0</ele><time>2026-05-01T14:28:09.273Z</time></trkpt><trkpt lat="43.7662221" lon="7.4552192"><ele>208.75</ele><time>2026-05-01T14:28:10.272Z</time></trkpt><trkpt lat="43.7663388" lon="7.4551215"><ele>213.5</ele><time>2026-05-01T14:28:11.272Z</time></trkpt><trkpt lat="43.7664543" lon="7.4550306"><ele>218.25</ele><time>2026-05-01T14:28:12.272Z</time></trkpt><trkpt lat="43.7665639" lon="7.4549389"><ele>223.0</ele><time>2026-05-01T14:28:13.272Z</time></trkpt><trkpt lat="43.7666478" lon="7.4548099"><ele>223.0</ele><time>2026-05-01T14:28:14.272Z</time></trkpt><trkpt lat="43.7667053" lon="7.4546592"><ele>223.0</ele><time>2026-05-01T14:28:15.273Z</time></trkpt><trkpt lat="43.7667507" lon="7.4545173"><ele>223.0</ele><time>2026-05-01T14:28:16.272Z</time></trkpt><trkpt lat="43.7668059" lon="7.4543824"><ele>223.0</ele><time>2026-05-01T14:28:17.272Z</time></trkpt><trkpt lat="43.7668736" lon="7.4542761"><ele>223.0</ele><time>2026-05-01T14:28:18.272Z</time></trkpt><trkpt lat="43.7669708" lon="7.4541904"><ele>224.75</ele><time>2026-05-01T14:28:19.273Z</time></trkpt><trkpt lat="43.7670717" lon="7.4540989"><ele>226.5</ele><time>2026-05-01T14:28:20.273Z</time></trkpt><trkpt lat="43.7671697" lon="7.4539961"><ele>228.25</ele><time>2026-05-01T14:28:21.272Z</time></trkpt><trkpt lat="43.767266" lon="7.4538851"><ele>230.0</ele><time>2026-05-01T14:28:22.272Z</time></trkpt><trkpt lat="43.7673716" lon="7.4537993"><ele>230.33333333333334</ele><time>2026-05-01T14:28:23.273Z</time></trkpt><trkpt lat="43.7674798" lon="7.4537196"><ele>230.66666666666669</ele><time>2026-05-01T14:28:24.272Z</time></trkpt><trkpt lat="43.767583" lon="7.4536634"><ele>231.0</ele><time>2026-05-01T14:28:25.272Z</time></trkpt><trkpt lat="43.7678242" lon="7.4536174"><ele>231.0</ele><time>2026-05-01T14:28:27.272Z</time></trkpt><trkpt lat="43.7679514" lon="7.4535418"><ele>231.0</ele><time>2026-05-01T14:28:28.272Z</time></trkpt><trkpt lat="43.7680787" lon="7.4534266"><ele>231.0</ele><time>2026-05-01T14:28:29.272Z</time></trkpt><trkpt lat="43.7681979" lon="7.4532987"><ele>231.0</ele><time>2026-05-01T14:28:30.272Z</time></trkpt><trkpt lat="43.7682968" lon="7.4531709"><ele>231.0</ele><time>2026-05-01T14:28:31.272Z</time></trkpt><trkpt lat="43.768387" lon="7.453023"><ele>231.0</ele><time>2026-05-01T14:28:32.272Z</time></trkpt><trkpt lat="43.7684571" lon="7.4528861"><ele>231.0</ele><time>2026-05-01T14:28:33.272Z</time></trkpt><trkpt lat="43.7685168" lon="7.4527296"><ele>231.0</ele><time>2026-05-01T14:28:34.272Z</time></trkpt><trkpt lat="43.7685726" lon="7.4525811"><ele>231.25</ele><time>2026-05-01T14:28:35.272Z</time></trkpt><trkpt lat="43.7686355" lon="7.4524297"><ele>231.5</ele><time>2026-05-01T14:28:36.272Z</time></trkpt><trkpt lat="43.7686949" lon="7.4522776"><ele>231.75</ele><time>2026-05-01T14:28:37.273Z</time></trkpt><trkpt lat="43.7687636" lon="7.4521425"><ele>232.0</ele><time>2026-05-01T14:28:38.272Z</time></trkpt><trkpt lat="43.7688512" lon="7.4520293"><ele>232.0</ele><time>2026-05-01T14:28:39.272Z</time></trkpt><trkpt lat="43.7689429" lon="7.4519289"><ele>232.0</ele><time>2026-05-01T14:28:40.272Z</time></trkpt><trkpt lat="43.7690499" lon="7.4518355"><ele>232.0</ele><time>2026-05-01T14:28:41.272Z</time></trkpt><trkpt lat="43.7691243" lon="7.4517518"><ele>232.0</ele><time>2026-05-01T14:28:42.272Z</time></trkpt><trkpt lat="43.7691629" lon="7.451656"><ele>232.0</ele><time>2026-05-01T14:28:43.272Z</time></trkpt><trkpt lat="43.7691748" lon="7.4515436"><ele>232.0</ele><time>2026-05-01T14:28:44.272Z</time></trkpt><trkpt lat="43.7691687" lon="7.4514357"><ele>232.0</ele><time>2026-05-01T14:28:45.272Z</time></trkpt><trkpt lat="43.7691292" lon="7.4513227"><ele>232.0</ele><time>2026-05-01T14:28:46.272Z</time></trkpt><trkpt lat="43.7689528" lon="7.4510602"><ele>232.0</ele><time>2026-05-01T14:28:48.272Z</time></trkpt><trkpt lat="43.7688652" lon="7.450967"><ele>234.2</ele><time>2026-05-01T14:28:49.272Z</time></trkpt><trkpt lat="43.768783" lon="7.450907"><ele>236.39999999999998</ele><time>2026-05-01T14:28:50.273Z</time></trkpt><trkpt lat="43.7687035" lon="7.4508833"><ele>238.60000000000002</ele><time>2026-05-01T14:28:51.272Z</time></trkpt><trkpt lat="43.7686071" lon="7.4509078"><ele>240.8</ele><time>2026-05-01T14:28:52.272Z</time></trkpt><trkpt lat="43.7685019" lon="7.4509587"><ele>243.0</ele><time>2026-05-01T14:28:53.272Z</time></trkpt><trkpt lat="43.7683896" lon="7.4510211"><ele>245.0</ele><time>2026-05-01T14:28:54.272Z</time></trkpt><trkpt lat="43.76827" lon="7.4510705"><ele>247.0</ele><time>2026-05-01T14:28:55.272Z</time></trkpt><trkpt lat="43.7681342" lon="7.451095"><ele>249.0</ele><time>2026-05-01T14:28:56.273Z</time></trkpt><trkpt lat="43.768004" lon="7.4511139"><ele>251.0</ele><time>2026-05-01T14:28:57.272Z</time></trkpt><trkpt lat="43.7678834" lon="7.4511504"><ele>251.0</ele><time>2026-05-01T14:28:58.272Z</time></trkpt><trkpt lat="43.7677804" lon="7.4511939"><ele>251.00000000000003</ele><time>2026-05-01T14:28:59.272Z</time></trkpt><trkpt lat="43.767684" lon="7.4512296"><ele>251.00000000000003</ele><time>2026-05-01T14:29:00.272Z</time></trkpt><trkpt lat="43.7675855" lon="7.4512244"><ele>251.0</ele><time>2026-05-01T14:29:01.272Z</time></trkpt><trkpt lat="43.767484" lon="7.4511935"><ele>251.0</ele><time>2026-05-01T14:29:02.272Z</time></trkpt><trkpt lat="43.767373" lon="7.4511563"><ele>252.0</ele><time>2026-05-01T14:29:03.272Z</time></trkpt><trkpt lat="43.7672758" lon="7.4511196"><ele>253.00000000000003</ele><time>2026-05-01T14:29:04.272Z</time></trkpt><trkpt lat="43.7671754" lon="7.4511078"><ele>254.00000000000003</ele><time>2026-05-01T14:29:05.272Z</time></trkpt><trkpt lat="43.7670766" lon="7.4511078"><ele>255.0</ele><time>2026-05-01T14:29:06.272Z</time></trkpt><trkpt lat="43.766977" lon="7.4511051"><ele>256.0</ele><time>2026-05-01T14:29:07.273Z</time></trkpt><trkpt lat="43.7667972" lon="7.4510571"><ele>256.0</ele><time>2026-05-01T14:29:09.272Z</time></trkpt><trkpt lat="43.7667141" lon="7.4509917"><ele>256.0</ele><time>2026-05-01T14:29:10.272Z</time></trkpt><trkpt lat="43.7666329" lon="7.4509125"><ele>256.0</ele><time>2026-05-01T14:29:11.272Z</time></trkpt><trkpt lat="43.7665425" lon="7.4508546"><ele>256.0</ele><time>2026-05-01T14:29:12.272Z</time></trkpt><trkpt lat="43.7664339" lon="7.450842"><ele>256.0</ele><time>2026-05-01T14:29:13.272Z</time></trkpt><trkpt lat="43.7663269" lon="7.4508444"><ele>256.0</ele><time>2026-05-01T14:29:14.272Z</time></trkpt><trkpt lat="43.766217" lon="7.450868"><ele>256.0</ele><time>2026-05-01T14:29:15.272Z</time></trkpt><trkpt lat="43.7661021" lon="7.4509017"><ele>256.0</ele><time>2026-05-01T14:29:16.272Z</time></trkpt><trkpt lat="43.7659869" lon="7.4509303"><ele>256.0</ele><time>2026-05-01T14:29:17.272Z</time></trkpt><trkpt lat="43.765869" lon="7.4509704"><ele>256.75</ele><time>2026-05-01T14:29:18.272Z</time></trkpt><trkpt lat="43.7657534" lon="7.4509983"><ele>257.5</ele><time>2026-05-01T14:29:19.272Z</time></trkpt><trkpt lat="43.7656354" lon="7.4510187"><ele>258.25</ele><time>2026-05-01T14:29:20.272Z</time></trkpt><trkpt lat="43.7655233" lon="7.4510437"><ele>259.0</ele><time>2026-05-01T14:29:21.272Z</time></trkpt><trkpt lat="43.7654118" lon="7.4510641"><ele>259.0</ele><time>2026-05-01T14:29:22.272Z</time></trkpt><trkpt lat="43.7653034" lon="7.4510868"><ele>259.0</ele><time>2026-05-01T14:29:23.272Z</time></trkpt><trkpt lat="43.7651955" lon="7.4510961"><ele>259.0</ele><time>2026-05-01T14:29:24.272Z</time></trkpt><trkpt lat="43.7650961" lon="7.4510701"><ele>259.0</ele><time>2026-05-01T14:29:25.272Z</time></trkpt><trkpt lat="43.7649914" lon="7.4510286"><ele>259.0</ele><time>2026-05-01T14:29:26.272Z</time></trkpt><trkpt lat="43.7648904" lon="7.4509669"><ele>261.0</ele><time>2026-05-01T14:29:27.272Z</time></trkpt><trkpt lat="43.7647897" lon="7.4509072"><ele>263.0</ele><time>2026-05-01T14:29:28.272Z</time></trkpt><trkpt lat="43.7645881" lon="7.4508128"><ele>265.0</ele><time>2026-05-01T14:29:30.272Z</time></trkpt><trkpt lat="43.7644843" lon="7.4507709"><ele>267.0</ele><time>2026-05-01T14:29:31.272Z</time></trkpt><trkpt lat="43.7643771" lon="7.4507191"><ele>264.6</ele><time>2026-05-01T14:29:32.272Z</time></trkpt><trkpt lat="43.7642752" lon="7.4506476"><ele>262.2</ele><time>2026-05-01T14:29:33.272Z</time></trkpt><trkpt lat="43.7641755" lon="7.4505751"><ele>259.8</ele><time>2026-05-01T14:29:34.273Z</time></trkpt><trkpt lat="43.7640906" lon="7.4504859"><ele>257.4</ele><time>2026-05-01T14:29:35.273Z</time></trkpt><trkpt lat="43.7640063" lon="7.4503862"><ele>255.0</ele><time>2026-05-01T14:29:36.272Z</time></trkpt><trkpt lat="43.7639165" lon="7.4502908"><ele>256.6</ele><time>2026-05-01T14:29:37.272Z</time></trkpt><trkpt lat="43.7638274" lon="7.4502094"><ele>258.2</ele><time>2026-05-01T14:29:38.272Z</time></trkpt><trkpt lat="43.7637304" lon="7.4501277"><ele>259.8</ele><time>2026-05-01T14:29:39.272Z</time></trkpt><trkpt lat="43.7636408" lon="7.4500503"><ele>261.4</ele><time>2026-05-01T14:29:40.272Z</time></trkpt><trkpt lat="43.76355" lon="7.4499656"><ele>263.0</ele><time>2026-05-01T14:29:41.272Z</time></trkpt><trkpt lat="43.7634644" lon="7.4498789"><ele>263.0</ele><time>2026-05-01T14:29:42.272Z</time></trkpt><trkpt lat="43.7633792" lon="7.4497941"><ele>263.0</ele><time>2026-05-01T14:29:43.272Z</time></trkpt><trkpt lat="43.7632928" lon="7.449721"><ele>263.0</ele><time>2026-05-01T14:29:44.272Z</time></trkpt><trkpt lat="43.7631961" lon="7.4496578"><ele>263.0</ele><time>2026-05-01T14:29:45.272Z</time></trkpt><trkpt lat="43.7631031" lon="7.449577"><ele>263.0</ele><time>2026-05-01T14:29:46.272Z</time></trkpt><trkpt lat="43.763016" lon="7.4494814"><ele>264.25</ele><time>2026-05-01T14:29:47.272Z</time></trkpt><trkpt lat="43.7629326" lon="7.4493854"><ele>265.5</ele><time>2026-05-01T14:29:48.273Z</time></trkpt><trkpt lat="43.7628512" lon="7.4492893"><ele>266.75</ele><time>2026-05-01T14:29:49.272Z</time></trkpt><trkpt lat="43.7626862" lon="7.4490928"><ele>268.0</ele><time>2026-05-01T14:29:51.272Z</time></trkpt><trkpt lat="43.7626091" lon="7.4489884"><ele>268.0</ele><time>2026-05-01T14:29:52.272Z</time></trkpt><trkpt lat="43.7625386" lon="7.4488803"><ele>268.0</ele><time>2026-05-01T14:29:53.272Z</time></trkpt><trkpt lat="43.7624648" lon="7.448781"><ele>268.0</ele><time>2026-05-01T14:29:54.272Z</time></trkpt><trkpt lat="43.7623842" lon="7.4486932"><ele>268.0</ele><time>2026-05-01T14:29:55.272Z</time></trkpt><trkpt lat="43.7623031" lon="7.4486044"><ele>268.0</ele><time>2026-05-01T14:29:56.273Z</time></trkpt><trkpt lat="43.7622165" lon="7.4485204"><ele>269.8</ele><time>2026-05-01T14:29:57.272Z</time></trkpt><trkpt lat="43.7621162" lon="7.4484525"><ele>271.6</ele><time>2026-05-01T14:29:58.272Z</time></trkpt><trkpt lat="43.7620139" lon="7.4483997"><ele>273.4</ele><time>2026-05-01T14:29:59.272Z</time></trkpt><trkpt lat="43.7619056" lon="7.4483662"><ele>275.2</ele><time>2026-05-01T14:30:00.273Z</time></trkpt><trkpt lat="43.7617998" lon="7.4483261"><ele>277.0</ele><time>2026-05-01T14:30:01.272Z</time></trkpt><trkpt lat="43.761697" lon="7.4482763"><ele>277.0</ele><time>2026-05-01T14:30:02.272Z</time></trkpt><trkpt lat="43.7615951" lon="7.4482072"><ele>277.0</ele><time>2026-05-01T14:30:03.272Z</time></trkpt><trkpt lat="43.7614961" lon="7.4481209"><ele>277.0</ele><time>2026-05-01T14:30:04.272Z</time></trkpt><trkpt lat="43.761386" lon="7.4480453"><ele>277.0</ele><time>2026-05-01T14:30:05.272Z</time></trkpt><trkpt lat="43.7612847" lon="7.4479515"><ele>282.25</ele><time>2026-05-01T14:30:06.272Z</time></trkpt><trkpt lat="43.7611842" lon="7.447864"><ele>287.5</ele><time>2026-05-01T14:30:07.272Z</time></trkpt><trkpt lat="43.7610737" lon="7.4477972"><ele>292.75</ele><time>2026-05-01T14:30:08.272Z</time></trkpt><trkpt lat="43.7609587" lon="7.4477536"><ele>298.0</ele><time>2026-05-01T14:30:09.272Z</time></trkpt><trkpt lat="43.7608428" lon="7.4477104"><ele>298.0</ele><time>2026-05-01T14:30:10.272Z</time></trkpt><trkpt lat="43.7606232" lon="7.4475782"><ele>298.0</ele><time>2026-05-01T14:30:12.273Z</time></trkpt><trkpt lat="43.7605211" lon="7.4474968"><ele>298.0</ele><time>2026-05-01T14:30:13.272Z</time></trkpt><trkpt lat="43.7604218" lon="7.4474019"><ele>298.0</ele><time>2026-05-01T14:30:14.272Z</time></trkpt><trkpt lat="43.7603233" lon="7.4473152"><ele>298.0</ele><time>2026-05-01T14:30:15.273Z</time></trkpt><trkpt lat="43.7602368" lon="7.4472007"><ele>298.0</ele><time>2026-05-01T14:30:16.273Z</time></trkpt><trkpt lat="43.7601663" lon="7.4470712"><ele>298.0</ele><time>2026-05-01T14:30:17.272Z</time></trkpt><trkpt lat="43.7601149" lon="7.4469196"><ele>296.25</ele><time>2026-05-01T14:30:18.272Z</time></trkpt><trkpt lat="43.7600849" lon="7.4467587"><ele>294.5</ele><time>2026-05-01T14:30:19.272Z</time></trkpt><trkpt lat="43.7600539" lon="7.4466031"><ele>292.75</ele><time>2026-05-01T14:30:20.272Z</time></trkpt><trkpt lat="43.7600082" lon="7.4464448"><ele>291.0</ele><time>2026-05-01T14:30:21.273Z</time></trkpt><trkpt lat="43.7599325" lon="7.4463079"><ele>295.25</ele><time>2026-05-01T14:30:22.272Z</time></trkpt><trkpt lat="43.7598468" lon="7.4461874"><ele>299.5</ele><time>2026-05-01T14:30:23.273Z</time></trkpt><trkpt lat="43.7597492" lon="7.446089"><ele>303.75</ele><time>2026-05-01T14:30:24.272Z</time></trkpt><trkpt lat="43.7596393" lon="7.4460083"><ele>308.0</ele><time>2026-05-01T14:30:25.272Z</time></trkpt><trkpt lat="43.7595386" lon="7.4459241"><ele>308.0</ele><time>2026-05-01T14:30:26.272Z</time></trkpt><trkpt lat="43.7594393" lon="7.445828"><ele>308.0</ele><time>2026-05-01T14:30:27.272Z</time></trkpt><trkpt lat="43.7593521" lon="7.4457148"><ele>308.0</ele><time>2026-05-01T14:30:28.272Z</time></trkpt><trkpt lat="43.7592723" lon="7.4455883"><ele>308.0</ele><time>2026-05-01T14:30:29.273Z</time></trkpt><trkpt lat="43.7592006" lon="7.445455"><ele>305.6666666666667</ele><time>2026-05-01T14:30:30.272Z</time></trkpt><trkpt lat="43.7591374" lon="7.4453165"><ele>303.3333333333333</ele><time>2026-05-01T14:30:31.272Z</time></trkpt><trkpt lat="43.7590427" lon="7.4450151"><ele>301.0</ele><time>2026-05-01T14:30:33.272Z</time></trkpt><trkpt lat="43.7590045" lon="7.4448654"><ele>301.0</ele><time>2026-05-01T14:30:34.272Z</time></trkpt><trkpt lat="43.7589548" lon="7.4447165"><ele>301.0</ele><time>2026-05-01T14:30:35.272Z</time></trkpt><trkpt lat="43.7588937" lon="7.4445768"><ele>301.0</ele><time>2026-05-01T14:30:36.272Z</time></trkpt><trkpt lat="43.7588203" lon="7.4444488"><ele>301.0</ele><time>2026-05-01T14:30:37.272Z</time></trkpt><trkpt lat="43.7587317" lon="7.4443289"><ele>303.0</ele><time>2026-05-01T14:30:38.272Z</time></trkpt><trkpt lat="43.7586335" lon="7.4442295"><ele>305.0</ele><time>2026-05-01T14:30:39.272Z</time></trkpt><trkpt lat="43.7585268" lon="7.4441501"><ele>307.0</ele><time>2026-05-01T14:30:40.272Z</time></trkpt><trkpt lat="43.75842" lon="7.4440961"><ele>309.0</ele><time>2026-05-01T14:30:41.272Z</time></trkpt><trkpt lat="43.7583057" lon="7.4440621"><ele>309.0</ele><time>2026-05-01T14:30:42.272Z</time></trkpt><trkpt lat="43.7581937" lon="7.4440453"><ele>309.0</ele><time>2026-05-01T14:30:43.272Z</time></trkpt><trkpt lat="43.7580936" lon="7.4440456"><ele>309.0</ele><time>2026-05-01T14:30:44.272Z</time></trkpt><trkpt lat="43.7580005" lon="7.4440475"><ele>309.0</ele><time>2026-05-01T14:30:45.272Z</time></trkpt><trkpt lat="43.7579063" lon="7.4440493"><ele>309.0</ele><time>2026-05-01T14:30:46.272Z</time></trkpt><trkpt lat="43.7578203" lon="7.4440555"><ele>309.0</ele><time>2026-05-01T14:30:47.273Z</time></trkpt><trkpt lat="43.7577557" lon="7.44406"><ele>309.0</ele><time>2026-05-01T14:30:48.272Z</time></trkpt><trkpt lat="43.7576567" lon="7.4440754"><ele>309.0</ele><time>2026-05-01T14:30:50.272Z</time></trkpt><trkpt lat="43.7575383" lon="7.4441329"><ele>309.0</ele><time>2026-05-01T14:30:52.272Z</time></trkpt><trkpt lat="43.7573728" lon="7.4441929"><ele>309.6666666666667</ele><time>2026-05-01T14:30:55.272Z</time></trkpt><trkpt lat="43.7573024" lon="7.4442061"><ele>310.3333333333333</ele><time>2026-05-01T14:30:57.272Z</time></trkpt><trkpt lat="43.757231" lon="7.4441715"><ele>311.0</ele><time>2026-05-01T14:30:59.272Z</time></trkpt><trkpt lat="43.757155" lon="7.4440572"><ele>311.66666666666663</ele><time>2026-05-01T14:31:01.272Z</time></trkpt><trkpt lat="43.7571152" lon="7.443976"><ele>312.3333333333333</ele><time>2026-05-01T14:31:02.272Z</time></trkpt><trkpt lat="43.7570765" lon="7.4438775"><ele>313.0</ele><time>2026-05-01T14:31:03.272Z</time></trkpt><trkpt lat="43.7570382" lon="7.4437638"><ele>319.0</ele><time>2026-05-01T14:31:04.272Z</time></trkpt><trkpt lat="43.7570122" lon="7.4436321"><ele>325.0</ele><time>2026-05-01T14:31:05.272Z</time></trkpt><trkpt lat="43.7569852" lon="7.4434928"><ele>331.0</ele><time>2026-05-01T14:31:06.272Z</time></trkpt><trkpt lat="43.7569568" lon="7.4433314"><ele>337.0</ele><time>2026-05-01T14:31:07.272Z</time></trkpt><trkpt lat="43.7569232" lon="7.4431739"><ele>343.0</ele><time>2026-05-01T14:31:08.272Z</time></trkpt><trkpt lat="43.7568877" lon="7.4430156"><ele>347.5</ele><time>2026-05-01T14:31:09.272Z</time></trkpt><trkpt lat="43.7568642" lon="7.4428586"><ele>352.0</ele><time>2026-05-01T14:31:10.272Z</time></trkpt><trkpt lat="43.7568508" lon="7.4426944"><ele>356.5</ele><time>2026-05-01T14:31:11.273Z</time></trkpt><trkpt lat="43.7568561" lon="7.4425338"><ele>361.0</ele><time>2026-05-01T14:31:12.272Z</time></trkpt><trkpt lat="43.7568699" lon="7.4423725"><ele>363.25</ele><time>2026-05-01T14:31:13.272Z</time></trkpt><trkpt lat="43.7568894" lon="7.4420836"><ele>365.5</ele><time>2026-05-01T14:31:15.272Z</time></trkpt><trkpt lat="43.7568797" lon="7.4419439"><ele>367.75</ele><time>2026-05-01T14:31:16.272Z</time></trkpt><trkpt lat="43.7568527" lon="7.4418039"><ele>370.0</ele><time>2026-05-01T14:31:17.272Z</time></trkpt><trkpt lat="43.7568187" lon="7.4416584"><ele>358.0</ele><time>2026-05-01T14:31:18.272Z</time></trkpt><trkpt lat="43.7567714" lon="7.4415052"><ele>346.0</ele><time>2026-05-01T14:31:19.273Z</time></trkpt><trkpt lat="43.7567071" lon="7.4413559"><ele>334.0</ele><time>2026-05-01T14:31:20.272Z</time></trkpt><trkpt lat="43.756657" lon="7.4412078"><ele>322.0</ele><time>2026-05-01T14:31:21.272Z</time></trkpt><trkpt lat="43.7566123" lon="7.4410623"><ele>322.0</ele><time>2026-05-01T14:31:22.272Z</time></trkpt><trkpt lat="43.756567" lon="7.4409184"><ele>322.0</ele><time>2026-05-01T14:31:23.272Z</time></trkpt><trkpt lat="43.756534" lon="7.440773"><ele>322.0</ele><time>2026-05-01T14:31:24.273Z</time></trkpt><trkpt lat="43.7565258" lon="7.4406198"><ele>322.0</ele><time>2026-05-01T14:31:25.272Z</time></trkpt><trkpt lat="43.7565447" lon="7.4404783"><ele>322.0</ele><time>2026-05-01T14:31:26.272Z</time></trkpt><trkpt lat="43.7565852" lon="7.4403004"><ele>321.5</ele><time>2026-05-01T14:31:27.272Z</time></trkpt><trkpt lat="43.7566289" lon="7.4401242"><ele>321.0</ele><time>2026-05-01T14:31:28.273Z</time></trkpt><trkpt lat="43.7566518" lon="7.4399637"><ele>320.5</ele><time>2026-05-01T14:31:29.272Z</time></trkpt><trkpt lat="43.7566527" lon="7.4398173"><ele>320.0</ele><time>2026-05-01T14:31:30.272Z</time></trkpt><trkpt lat="43.7566366" lon="7.4396719"><ele>319.75</ele><time>2026-05-01T14:31:31.273Z</time></trkpt><trkpt lat="43.7566051" lon="7.4395167"><ele>319.5</ele><time>2026-05-01T14:31:32.272Z</time></trkpt><trkpt lat="43.7565555" lon="7.4393649"><ele>319.25</ele><time>2026-05-01T14:31:33.272Z</time></trkpt><trkpt lat="43.7565104" lon="7.4392289"><ele>319.0</ele><time>2026-05-01T14:31:34.273Z</time></trkpt><trkpt lat="43.7565105" lon="7.4389901"><ele>319.0</ele><time>2026-05-01T14:31:36.272Z</time></trkpt><trkpt lat="43.756566" lon="7.4389048"><ele>319.0</ele><time>2026-05-01T14:31:37.272Z</time></trkpt><trkpt lat="43.7566549" lon="7.438841"><ele>319.0</ele><time>2026-05-01T14:31:38.272Z</time></trkpt><trkpt lat="43.7567694" lon="7.4388202"><ele>319.0</ele><time>2026-05-01T14:31:39.272Z</time></trkpt><trkpt lat="43.7569161" lon="7.4388141"><ele>319.0</ele><time>2026-05-01T14:31:40.272Z</time></trkpt><trkpt lat="43.7570595" lon="7.4388139"><ele>319.0</ele><time>2026-05-01T14:31:41.272Z</time></trkpt><trkpt lat="43.7571861" lon="7.4387916"><ele>319.0</ele><time>2026-05-01T14:31:42.272Z</time></trkpt><trkpt lat="43.7572949" lon="7.4387516"><ele>319.0</ele><time>2026-05-01T14:31:43.272Z</time></trkpt><trkpt lat="43.7573949" lon="7.4386956"><ele>319.0</ele><time>2026-05-01T14:31:44.272Z</time></trkpt><trkpt lat="43.7574964" lon="7.438616"><ele>319.0</ele><time>2026-05-01T14:31:45.272Z</time></trkpt><trkpt lat="43.7575931" lon="7.4385249"><ele>319.0</ele><time>2026-05-01T14:31:46.272Z</time></trkpt><trkpt lat="43.7576924" lon="7.4384221"><ele>319.0</ele><time>2026-05-01T14:31:47.272Z</time></trkpt><trkpt lat="43.7577822" lon="7.4383155"><ele>319.0</ele><time>2026-05-01T14:31:48.272Z</time></trkpt><trkpt lat="43.7578685" lon="7.4382255"><ele>322.6</ele><time>2026-05-01T14:31:49.272Z</time></trkpt><trkpt lat="43.7579565" lon="7.4381368"><ele>326.2</ele><time>2026-05-01T14:31:50.272Z</time></trkpt><trkpt lat="43.7580443" lon="7.4380463"><ele>329.8</ele><time>2026-05-01T14:31:51.272Z</time></trkpt><trkpt lat="43.7581374" lon="7.4379986"><ele>333.40000000000003</ele><time>2026-05-01T14:31:52.272Z</time></trkpt><trkpt lat="43.7582487" lon="7.4379979"><ele>337.0</ele><time>2026-05-01T14:31:53.272Z</time></trkpt><trkpt lat="43.7583607" lon="7.4380177"><ele>337.0</ele><time>2026-05-01T14:31:54.272Z</time></trkpt><trkpt lat="43.7584699" lon="7.4380094"><ele>337.0</ele><time>2026-05-01T14:31:55.272Z</time></trkpt><trkpt lat="43.7586417" lon="7.4378738"><ele>337.0</ele><time>2026-05-01T14:31:57.272Z</time></trkpt><trkpt lat="43.7586975" lon="7.4377415"><ele>337.0</ele><time>2026-05-01T14:31:58.272Z</time></trkpt><trkpt lat="43.758739" lon="7.4375856"><ele>338.25</ele><time>2026-05-01T14:31:59.272Z</time></trkpt><trkpt lat="43.75875" lon="7.4374115"><ele>339.5</ele><time>2026-05-01T14:32:00.272Z</time></trkpt><trkpt lat="43.7587237" lon="7.4372809"><ele>340.75</ele><time>2026-05-01T14:32:01.272Z</time></trkpt><trkpt lat="43.7586484" lon="7.4371716"><ele>342.0</ele><time>2026-05-01T14:32:02.272Z</time></trkpt><trkpt lat="43.7585119" lon="7.4370563"><ele>342.0</ele><time>2026-05-01T14:32:03.272Z</time></trkpt><trkpt lat="43.7583763" lon="7.4369204"><ele>342.0</ele><time>2026-05-01T14:32:04.272Z</time></trkpt><trkpt lat="43.758263" lon="7.4368032"><ele>342.0</ele><time>2026-05-01T14:32:05.272Z</time></trkpt><trkpt lat="43.758168" lon="7.4366829"><ele>342.0</ele><time>2026-05-01T14:32:06.272Z</time></trkpt><trkpt lat="43.7580977" lon="7.4365497"><ele>342.0</ele><time>2026-05-01T14:32:07.272Z</time></trkpt><trkpt lat="43.7580587" lon="7.436389"><ele>342.0</ele><time>2026-05-01T14:32:08.272Z</time></trkpt><trkpt lat="43.7580441" lon="7.4362258"><ele>342.0</ele><time>2026-05-01T14:32:09.272Z</time></trkpt><trkpt lat="43.7580408" lon="7.4360731"><ele>342.0</ele><time>2026-05-01T14:32:10.272Z</time></trkpt><trkpt lat="43.7580497" lon="7.4359195"><ele>340.0</ele><time>2026-05-01T14:32:11.272Z</time></trkpt><trkpt lat="43.7580791" lon="7.4357668"><ele>338.0</ele><time>2026-05-01T14:32:12.273Z</time></trkpt><trkpt lat="43.7581312" lon="7.4356167"><ele>336.0</ele><time>2026-05-01T14:32:13.272Z</time></trkpt><trkpt lat="43.7581909" lon="7.4354829"><ele>334.0</ele><time>2026-05-01T14:32:14.272Z</time></trkpt><trkpt lat="43.7582453" lon="7.4353505"><ele>334.0</ele><time>2026-05-01T14:32:15.272Z</time></trkpt><trkpt lat="43.75829" lon="7.4352209"><ele>334.0</ele><time>2026-05-01T14:32:16.272Z</time></trkpt><trkpt lat="43.7582958" lon="7.434943"><ele>334.0</ele><time>2026-05-01T14:32:18.273Z</time></trkpt><trkpt lat="43.7582428" lon="7.4348075"><ele>334.0</ele><time>2026-05-01T14:32:19.272Z</time></trkpt><trkpt lat="43.7581626" lon="7.434666"><ele>342.0</ele><time>2026-05-01T14:32:20.272Z</time></trkpt><trkpt lat="43.7580715" lon="7.4345302"><ele>350.0</ele><time>2026-05-01T14:32:21.272Z</time></trkpt><trkpt lat="43.7579935" lon="7.4343949"><ele>358.0</ele><time>2026-05-01T14:32:22.272Z</time></trkpt><trkpt lat="43.7579328" lon="7.4342521"><ele>366.0</ele><time>2026-05-01T14:32:23.272Z</time></trkpt><trkpt lat="43.7578935" lon="7.4341023"><ele>366.0</ele><time>2026-05-01T14:32:24.272Z</time></trkpt><trkpt lat="43.7578779" lon="7.4339539"><ele>366.0</ele><time>2026-05-01T14:32:25.273Z</time></trkpt><trkpt lat="43.7578672" lon="7.4338086"><ele>366.0</ele><time>2026-05-01T14:32:26.272Z</time></trkpt><trkpt lat="43.7578471" lon="7.433671"><ele>366.0</ele><time>2026-05-01T14:32:27.272Z</time></trkpt><trkpt lat="43.757791" lon="7.4335437"><ele>366.0</ele><time>2026-05-01T14:32:28.272Z</time></trkpt><trkpt lat="43.7576847" lon="7.4334178"><ele>361.6666666666667</ele><time>2026-05-01T14:32:29.272Z</time></trkpt><trkpt lat="43.7575279" lon="7.433285"><ele>357.33333333333337</ele><time>2026-05-01T14:32:30.272Z</time></trkpt><trkpt lat="43.7573522" lon="7.4331236"><ele>353.0</ele><time>2026-05-01T14:32:31.272Z</time></trkpt><trkpt lat="43.7571873" lon="7.4329658"><ele>347.33333333333337</ele><time>2026-05-01T14:32:32.273Z</time></trkpt><trkpt lat="43.7570359" lon="7.4328229"><ele>341.6666666666667</ele><time>2026-05-01T14:32:33.272Z</time></trkpt><trkpt lat="43.7569082" lon="7.4326765"><ele>336.0</ele><time>2026-05-01T14:32:34.272Z</time></trkpt><trkpt lat="43.7568124" lon="7.4325262"><ele>336.0</ele><time>2026-05-01T14:32:35.272Z</time></trkpt><trkpt lat="43.7567696" lon="7.4323542"><ele>336.0</ele><time>2026-05-01T14:32:36.272Z</time></trkpt><trkpt lat="43.7567734" lon="7.4321755"><ele>336.0</ele><time>2026-05-01T14:32:37.273Z</time></trkpt><trkpt lat="43.7568628" lon="7.4318189"><ele>343.0</ele><time>2026-05-01T14:32:39.272Z</time></trkpt><trkpt lat="43.7569308" lon="7.4316473"><ele>350.0</ele><time>2026-05-01T14:32:40.272Z</time></trkpt><trkpt lat="43.7570058" lon="7.4314702"><ele>357.0</ele><time>2026-05-01T14:32:41.272Z</time></trkpt><trkpt lat="43.7570739" lon="7.4312732"><ele>364.0</ele><time>2026-05-01T14:32:42.272Z</time></trkpt><trkpt lat="43.7571332" lon="7.4310636"><ele>364.0</ele><time>2026-05-01T14:32:43.272Z</time></trkpt><trkpt lat="43.7571964" lon="7.4308378"><ele>364.0</ele><time>2026-05-01T14:32:44.273Z</time></trkpt><trkpt lat="43.7572586" lon="7.4306227"><ele>364.0</ele><time>2026-05-01T14:32:45.272Z</time></trkpt><trkpt lat="43.75732" lon="7.4304017"><ele>356.66666666666663</ele><time>2026-05-01T14:32:46.272Z</time></trkpt><trkpt lat="43.7573826" lon="7.4301898"><ele>349.3333333333333</ele><time>2026-05-01T14:32:47.272Z</time></trkpt><trkpt lat="43.7574457" lon="7.4299919"><ele>342.0</ele><time>2026-05-01T14:32:48.272Z</time></trkpt><trkpt lat="43.7575113" lon="7.4298047"><ele>342.75</ele><time>2026-05-01T14:32:49.273Z</time></trkpt><trkpt lat="43.7575513" lon="7.4296089"><ele>343.5</ele><time>2026-05-01T14:32:50.272Z</time></trkpt><trkpt lat="43.7575529" lon="7.4294"><ele>344.25</ele><time>2026-05-01T14:32:51.272Z</time></trkpt><trkpt lat="43.7575528" lon="7.4292109"><ele>345.0</ele><time>2026-05-01T14:32:52.272Z</time></trkpt><trkpt lat="43.7575512" lon="7.4290324"><ele>345.0</ele><time>2026-05-01T14:32:53.272Z</time></trkpt><trkpt lat="43.7575536" lon="7.4288704"><ele>345.0</ele><time>2026-05-01T14:32:54.272Z</time></trkpt><trkpt lat="43.7575323" lon="7.4287398"><ele>345.0</ele><time>2026-05-01T14:32:55.273Z</time></trkpt><trkpt lat="43.7574785" lon="7.4286481"><ele>345.0</ele><time>2026-05-01T14:32:56.273Z</time></trkpt><trkpt lat="43.7574028" lon="7.4285891"><ele>345.0</ele><time>2026-05-01T14:32:57.272Z</time></trkpt><trkpt lat="43.7573144" lon="7.4285711"><ele>357.6666666666667</ele><time>2026-05-01T14:32:58.272Z</time></trkpt><trkpt lat="43.7570683" lon="7.4286253"><ele>370.33333333333337</ele><time>2026-05-01T14:33:00.272Z</time></trkpt><trkpt lat="43.756902" lon="7.4287295"><ele>383.0</ele><time>2026-05-01T14:33:01.272Z</time></trkpt><trkpt lat="43.7567323" lon="7.4287984"><ele>387.33333333333337</ele><time>2026-05-01T14:33:02.272Z</time></trkpt><trkpt lat="43.756575" lon="7.4288011"><ele>391.6666666666667</ele><time>2026-05-01T14:33:03.272Z</time></trkpt><trkpt lat="43.7564144" lon="7.4287668"><ele>396.0</ele><time>2026-05-01T14:33:04.272Z</time></trkpt><trkpt lat="43.756272" lon="7.4286929"><ele>396.0</ele><time>2026-05-01T14:33:05.272Z</time></trkpt><trkpt lat="43.7561259" lon="7.4286009"><ele>396.0</ele><time>2026-05-01T14:33:06.272Z</time></trkpt><trkpt lat="43.7559916" lon="7.4284996"><ele>396.0</ele><time>2026-05-01T14:33:07.272Z</time></trkpt><trkpt lat="43.7558598" lon="7.4284087"><ele>393.0</ele><time>2026-05-01T14:33:08.272Z</time></trkpt><trkpt lat="43.7557286" lon="7.4283666"><ele>390.0</ele><time>2026-05-01T14:33:09.272Z</time></trkpt><trkpt lat="43.7556015" lon="7.4283595"><ele>387.0</ele><time>2026-05-01T14:33:10.272Z</time></trkpt><trkpt lat="43.7554843" lon="7.4283457"><ele>384.0</ele><time>2026-05-01T14:33:11.273Z</time></trkpt><trkpt lat="43.7553746" lon="7.4283115"><ele>384.0</ele><time>2026-05-01T14:33:12.272Z</time></trkpt><trkpt lat="43.7552817" lon="7.4282444"><ele>384.0</ele><time>2026-05-01T14:33:13.272Z</time></trkpt><trkpt lat="43.7552183" lon="7.4281451"><ele>384.0</ele><time>2026-05-01T14:33:14.272Z</time></trkpt><trkpt lat="43.7551657" lon="7.4280031"><ele>384.0</ele><time>2026-05-01T14:33:15.272Z</time></trkpt><trkpt lat="43.7551093" lon="7.4278387"><ele>384.0</ele><time>2026-05-01T14:33:16.272Z</time></trkpt><trkpt lat="43.7550612" lon="7.4276669"><ele>385.0</ele><time>2026-05-01T14:33:17.273Z</time></trkpt><trkpt lat="43.755005" lon="7.42749"><ele>386.0</ele><time>2026-05-01T14:33:18.272Z</time></trkpt><trkpt lat="43.7549556" lon="7.4273139"><ele>387.0</ele><time>2026-05-01T14:33:19.272Z</time></trkpt><trkpt lat="43.7548635" lon="7.4269835"><ele>387.0</ele><time>2026-05-01T14:33:21.272Z</time></trkpt><trkpt lat="43.7548208" lon="7.4268242"><ele>387.0</ele><time>2026-05-01T14:33:22.272Z</time></trkpt><trkpt lat="43.7547624" lon="7.4266722"><ele>387.0</ele><time>2026-05-01T14:33:23.272Z</time></trkpt><trkpt lat="43.7546942" lon="7.4265307"><ele>387.0</ele><time>2026-05-01T14:33:24.273Z</time></trkpt><trkpt lat="43.7546211" lon="7.4263924"><ele>388.40000000000003</ele><time>2026-05-01T14:33:25.273Z</time></trkpt><trkpt lat="43.7545491" lon="7.4262682"><ele>389.8</ele><time>2026-05-01T14:33:26.272Z</time></trkpt><trkpt lat="43.7544823" lon="7.4261474"><ele>391.2</ele><time>2026-05-01T14:33:27.273Z</time></trkpt><trkpt lat="43.7544245" lon="7.4260268"><ele>392.6</ele><time>2026-05-01T14:33:28.272Z</time></trkpt><trkpt lat="43.7543759" lon="7.4259007"><ele>394.0</ele><time>2026-05-01T14:33:29.272Z</time></trkpt><trkpt lat="43.7543499" lon="7.4257814"><ele>394.0</ele><time>2026-05-01T14:33:30.273Z</time></trkpt><trkpt lat="43.7543664" lon="7.4256357"><ele>394.0</ele><time>2026-05-01T14:33:31.272Z</time></trkpt><trkpt lat="43.7544267" lon="7.4254843"><ele>394.0</ele><time>2026-05-01T14:33:32.272Z</time></trkpt><trkpt lat="43.7545174" lon="7.4253468"><ele>394.0</ele><time>2026-05-01T14:33:33.272Z</time></trkpt><trkpt lat="43.7546072" lon="7.4252134"><ele>392.5</ele><time>2026-05-01T14:33:34.273Z</time></trkpt><trkpt lat="43.7546889" lon="7.4250734"><ele>391.0</ele><time>2026-05-01T14:33:35.272Z</time></trkpt><trkpt lat="43.7547661" lon="7.424954"><ele>389.5</ele><time>2026-05-01T14:33:36.272Z</time></trkpt><trkpt lat="43.7548428" lon="7.4248557"><ele>388.0</ele><time>2026-05-01T14:33:37.272Z</time></trkpt><trkpt lat="43.7549215" lon="7.4247592"><ele>388.0</ele><time>2026-05-01T14:33:38.273Z</time></trkpt><trkpt lat="43.7549941" lon="7.4246665"><ele>388.0</ele><time>2026-05-01T14:33:39.272Z</time></trkpt><trkpt lat="43.7550543" lon="7.4245694"><ele>388.0</ele><time>2026-05-01T14:33:40.272Z</time></trkpt><trkpt lat="43.7551952" lon="7.4243799"><ele>388.0</ele><time>2026-05-01T14:33:42.272Z</time></trkpt><trkpt lat="43.755294" lon="7.4242994"><ele>388.79999999999995</ele><time>2026-05-01T14:33:43.272Z</time></trkpt><trkpt lat="43.7554012" lon="7.4242359"><ele>389.6</ele><time>2026-05-01T14:33:44.272Z</time></trkpt><trkpt lat="43.7555121" lon="7.4242041"><ele>390.4</ele><time>2026-05-01T14:33:45.273Z</time></trkpt><trkpt lat="43.7556166" lon="7.4241805"><ele>391.20000000000005</ele><time>2026-05-01T14:33:46.272Z</time></trkpt><trkpt lat="43.7557089" lon="7.4241679"><ele>392.0</ele><time>2026-05-01T14:33:47.272Z</time></trkpt><trkpt lat="43.7557847" lon="7.4241322"><ele>391.99999999999994</ele><time>2026-05-01T14:33:48.272Z</time></trkpt><trkpt lat="43.7558622" lon="7.4240941"><ele>392.0</ele><time>2026-05-01T14:33:49.272Z</time></trkpt><trkpt lat="43.7559423" lon="7.4240577"><ele>392.0</ele><time>2026-05-01T14:33:50.272Z</time></trkpt><trkpt lat="43.7560337" lon="7.4240213"><ele>392.0</ele><time>2026-05-01T14:33:51.272Z</time></trkpt><trkpt lat="43.7561091" lon="7.4239851"><ele>391.99999999999994</ele><time>2026-05-01T14:33:52.272Z</time></trkpt><trkpt lat="43.7561731" lon="7.4239492"><ele>392.0</ele><time>2026-05-01T14:33:53.273Z</time></trkpt><trkpt lat="43.7562649" lon="7.4238284"><ele>398.8</ele><time>2026-05-01T14:33:55.272Z</time></trkpt><trkpt lat="43.7562861" lon="7.4237327"><ele>405.6</ele><time>2026-05-01T14:33:56.272Z</time></trkpt><trkpt lat="43.7562872" lon="7.423609"><ele>412.40000000000003</ele><time>2026-05-01T14:33:57.272Z</time></trkpt><trkpt lat="43.7562438" lon="7.4234848"><ele>419.20000000000005</ele><time>2026-05-01T14:33:58.272Z</time></trkpt><trkpt lat="43.7561614" lon="7.4233615"><ele>426.0</ele><time>2026-05-01T14:33:59.272Z</time></trkpt><trkpt lat="43.7560425" lon="7.423238"><ele>422.66666666666663</ele><time>2026-05-01T14:34:00.272Z</time></trkpt><trkpt lat="43.7559167" lon="7.4231219"><ele>419.3333333333333</ele><time>2026-05-01T14:34:01.272Z</time></trkpt><trkpt lat="43.7557285" lon="7.4228606"><ele>416.0</ele><time>2026-05-01T14:34:03.272Z</time></trkpt><trkpt lat="43.7556442" lon="7.4227489"><ele>416.0</ele><time>2026-05-01T14:34:04.272Z</time></trkpt><trkpt lat="43.7555563" lon="7.4226514"><ele>416.0</ele><time>2026-05-01T14:34:05.273Z</time></trkpt><trkpt lat="43.7554698" lon="7.4225665"><ele>416.0</ele><time>2026-05-01T14:34:06.272Z</time></trkpt><trkpt lat="43.7553742" lon="7.4224906"><ele>416.0</ele><time>2026-05-01T14:34:07.272Z</time></trkpt><trkpt lat="43.7552693" lon="7.422429"><ele>416.0</ele><time>2026-05-01T14:34:08.272Z</time></trkpt><trkpt lat="43.7551594" lon="7.4223598"><ele>417.25</ele><time>2026-05-01T14:34:09.272Z</time></trkpt><trkpt lat="43.7550538" lon="7.4222873"><ele>418.5</ele><time>2026-05-01T14:34:10.272Z</time></trkpt><trkpt lat="43.7549486" lon="7.4222238"><ele>419.75</ele><time>2026-05-01T14:34:11.272Z</time></trkpt><trkpt lat="43.7548452" lon="7.4221624"><ele>421.0</ele><time>2026-05-01T14:34:12.272Z</time></trkpt><trkpt lat="43.7547445" lon="7.4220951"><ele>421.0</ele><time>2026-05-01T14:34:13.272Z</time></trkpt><trkpt lat="43.7546435" lon="7.4220235"><ele>421.0</ele><time>2026-05-01T14:34:14.272Z</time></trkpt><trkpt lat="43.7545522" lon="7.4219493"><ele>421.0</ele><time>2026-05-01T14:34:15.272Z</time></trkpt><trkpt lat="43.7544584" lon="7.4218811"><ele>421.0</ele><time>2026-05-01T14:34:16.272Z</time></trkpt><trkpt lat="43.7543667" lon="7.4218227"><ele>421.0</ele><time>2026-05-01T14:34:17.273Z</time></trkpt><trkpt lat="43.7542767" lon="7.4217676"><ele>416.8</ele><time>2026-05-01T14:34:18.272Z</time></trkpt><trkpt lat="43.7541935" lon="7.4217248"><ele>412.6</ele><time>2026-05-01T14:34:19.272Z</time></trkpt><trkpt lat="43.7541102" lon="7.4216865"><ele>408.4</ele><time>2026-05-01T14:34:20.272Z</time></trkpt><trkpt lat="43.7540265" lon="7.4216417"><ele>404.2</ele><time>2026-05-01T14:34:21.273Z</time></trkpt><trkpt lat="43.7539462" lon="7.4215859"><ele>400.0</ele><time>2026-05-01T14:34:22.272Z</time></trkpt><trkpt lat="43.7537814" lon="7.4214355"><ele>400.0</ele><time>2026-05-01T14:34:24.272Z</time></trkpt><trkpt lat="43.7536967" lon="7.4213322"><ele>400.0</ele><time>2026-05-01T14:34:25.272Z</time></trkpt><trkpt lat="43.753616" lon="7.4212093"><ele>400.0</ele><time>2026-05-01T14:34:26.272Z</time></trkpt><trkpt lat="43.7535379" lon="7.4210746"><ele>400.0</ele><time>2026-05-01T14:34:27.272Z</time></trkpt><trkpt lat="43.7534547" lon="7.4209533"><ele>401.2</ele><time>2026-05-01T14:34:28.272Z</time></trkpt><trkpt lat="43.7533672" lon="7.4208367"><ele>402.4</ele><time>2026-05-01T14:34:29.272Z</time></trkpt><trkpt lat="43.7532799" lon="7.4207253"><ele>403.6</ele><time>2026-05-01T14:34:30.272Z</time></trkpt><trkpt lat="43.7531975" lon="7.4206381"><ele>404.8</ele><time>2026-05-01T14:34:31.272Z</time></trkpt><trkpt lat="43.7531205" lon="7.420561"><ele>406.0</ele><time>2026-05-01T14:34:32.272Z</time></trkpt><trkpt lat="43.7530418" lon="7.4204972"><ele>405.8</ele><time>2026-05-01T14:34:33.273Z</time></trkpt><trkpt lat="43.752961" lon="7.4204476"><ele>405.6</ele><time>2026-05-01T14:34:34.272Z</time></trkpt><trkpt lat="43.7528773" lon="7.4204046"><ele>405.4</ele><time>2026-05-01T14:34:35.272Z</time></trkpt><trkpt lat="43.7527919" lon="7.4203603"><ele>405.2</ele><time>2026-05-01T14:34:36.272Z</time></trkpt><trkpt lat="43.7527093" lon="7.4203053"><ele>405.0</ele><time>2026-05-01T14:34:37.272Z</time></trkpt><trkpt lat="43.7526279" lon="7.4202355"><ele>405.0</ele><time>2026-05-01T14:34:38.272Z</time></trkpt><trkpt lat="43.7525593" lon="7.4201484"><ele>405.0</ele><time>2026-05-01T14:34:39.272Z</time></trkpt><trkpt lat="43.7525038" lon="7.4200445"><ele>405.0</ele><time>2026-05-01T14:34:40.272Z</time></trkpt><trkpt lat="43.7524572" lon="7.4199345"><ele>405.0</ele><time>2026-05-01T14:34:41.272Z</time></trkpt><trkpt lat="43.7524189" lon="7.419813"><ele>405.0</ele><time>2026-05-01T14:34:42.272Z</time></trkpt><trkpt lat="43.7523864" lon="7.4197072"><ele>405.5</ele><time>2026-05-01T14:34:43.272Z</time></trkpt><trkpt lat="43.7523761" lon="7.4194466"><ele>406.0</ele><time>2026-05-01T14:34:46.272Z</time></trkpt><trkpt lat="43.7524092" lon="7.4192815"><ele>406.5</ele><time>2026-05-01T14:34:48.272Z</time></trkpt><trkpt lat="43.7524425" lon="7.419181"><ele>407.0</ele><time>2026-05-01T14:34:49.272Z</time></trkpt><trkpt lat="43.7524977" lon="7.4190687"><ele>407.0</ele><time>2026-05-01T14:34:50.273Z</time></trkpt><trkpt lat="43.7525634" lon="7.4189477"><ele>407.0</ele><time>2026-05-01T14:34:51.272Z</time></trkpt><trkpt lat="43.7526335" lon="7.4188038"><ele>407.0</ele><time>2026-05-01T14:34:52.272Z</time></trkpt><trkpt lat="43.7526925" lon="7.4186293"><ele>407.0</ele><time>2026-05-01T14:34:53.272Z</time></trkpt><trkpt lat="43.752739" lon="7.4184537"><ele>414.25</ele><time>2026-05-01T14:34:54.272Z</time></trkpt><trkpt lat="43.752769" lon="7.4182812"><ele>421.5</ele><time>2026-05-01T14:34:55.272Z</time></trkpt><trkpt lat="43.7527804" lon="7.4181109"><ele>428.75</ele><time>2026-05-01T14:34:56.273Z</time></trkpt><trkpt lat="43.7527558" lon="7.4179494"><ele>436.0</ele><time>2026-05-01T14:34:57.272Z</time></trkpt><trkpt lat="43.752714" lon="7.4178097"><ele>430.75</ele><time>2026-05-01T14:34:58.272Z</time></trkpt><trkpt lat="43.7526478" lon="7.4176873"><ele>425.5</ele><time>2026-05-01T14:34:59.273Z</time></trkpt><trkpt lat="43.7525684" lon="7.4175675"><ele>420.25</ele><time>2026-05-01T14:35:00.272Z</time></trkpt><trkpt lat="43.7524779" lon="7.417462"><ele>415.0</ele><time>2026-05-01T14:35:01.272Z</time></trkpt><trkpt lat="43.7523832" lon="7.4173545"><ele>415.0</ele><time>2026-05-01T14:35:02.272Z</time></trkpt><trkpt lat="43.7522951" lon="7.4172524"><ele>415.0</ele><time>2026-05-01T14:35:03.272Z</time></trkpt><trkpt lat="43.7522158" lon="7.4171664"><ele>415.0</ele><time>2026-05-01T14:35:04.272Z</time></trkpt><trkpt lat="43.7520613" lon="7.4170033"><ele>415.0</ele><time>2026-05-01T14:35:06.272Z</time></trkpt><trkpt lat="43.7519791" lon="7.4169236"><ele>414.2</ele><time>2026-05-01T14:35:07.272Z</time></trkpt><trkpt lat="43.7519042" lon="7.416834"><ele>413.4</ele><time>2026-05-01T14:35:08.272Z</time></trkpt><trkpt lat="43.7518369" lon="7.4167349"><ele>412.6</ele><time>2026-05-01T14:35:09.272Z</time></trkpt><trkpt lat="43.7517771" lon="7.4166268"><ele>411.8</ele><time>2026-05-01T14:35:10.273Z</time></trkpt><trkpt lat="43.7517238" lon="7.4165139"><ele>411.0</ele><time>2026-05-01T14:35:11.272Z</time></trkpt><trkpt lat="43.7516762" lon="7.416389"><ele>414.0</ele><time>2026-05-01T14:35:12.272Z</time></trkpt><trkpt lat="43.7516346" lon="7.4162478"><ele>417.0</ele><time>2026-05-01T14:35:13.272Z</time></trkpt><trkpt lat="43.7516024" lon="7.4161026"><ele>420.0</ele><time>2026-05-01T14:35:14.272Z</time></trkpt><trkpt lat="43.7515744" lon="7.4159545"><ele>423.0</ele><time>2026-05-01T14:35:15.272Z</time></trkpt><trkpt lat="43.7515479" lon="7.4158182"><ele>426.0</ele><time>2026-05-01T14:35:16.272Z</time></trkpt><trkpt lat="43.7515213" lon="7.4156869"><ele>426.0</ele><time>2026-05-01T14:35:17.272Z</time></trkpt><trkpt lat="43.7514932" lon="7.4155527"><ele>426.0</ele><time>2026-05-01T14:35:18.272Z</time></trkpt><trkpt lat="43.7514632" lon="7.4154188"><ele>426.0</ele><time>2026-05-01T14:35:19.273Z</time></trkpt><trkpt lat="43.7514283" lon="7.4152853"><ele>426.0</ele><time>2026-05-01T14:35:20.272Z</time></trkpt><trkpt lat="43.7513887" lon="7.4151471"><ele>426.0</ele><time>2026-05-01T14:35:21.273Z</time></trkpt><trkpt lat="43.7513502" lon="7.415005"><ele>428.5</ele><time>2026-05-01T14:35:22.272Z</time></trkpt><trkpt lat="43.7513058" lon="7.4148643"><ele>431.0</ele><time>2026-05-01T14:35:23.272Z</time></trkpt><trkpt lat="43.7512623" lon="7.4147264"><ele>433.5</ele><time>2026-05-01T14:35:24.272Z</time></trkpt><trkpt lat="43.7512261" lon="7.4145903"><ele>436.0</ele><time>2026-05-01T14:35:25.272Z</time></trkpt><trkpt lat="43.7511512" lon="7.4143087"><ele>434.6</ele><time>2026-05-01T14:35:27.272Z</time></trkpt><trkpt lat="43.7511141" lon="7.414165"><ele>433.20000000000005</ele><time>2026-05-01T14:35:28.272Z</time></trkpt><trkpt lat="43.7510739" lon="7.4140218"><ele>431.79999999999995</ele><time>2026-05-01T14:35:29.273Z</time></trkpt><trkpt lat="43.7510374" lon="7.4138843"><ele>430.4</ele><time>2026-05-01T14:35:30.272Z</time></trkpt><trkpt lat="43.7510005" lon="7.4137594"><ele>429.0</ele><time>2026-05-01T14:35:31.272Z</time></trkpt><trkpt lat="43.7509682" lon="7.4136395"><ele>429.0</ele><time>2026-05-01T14:35:32.273Z</time></trkpt><trkpt lat="43.7509442" lon="7.4135267"><ele>429.0</ele><time>2026-05-01T14:35:33.272Z</time></trkpt><trkpt lat="43.7509214" lon="7.4134264"><ele>429.0</ele><time>2026-05-01T14:35:34.272Z</time></trkpt><trkpt lat="43.7509147" lon="7.413334"><ele>429.0</ele><time>2026-05-01T14:35:35.272Z</time></trkpt><trkpt lat="43.7509291" lon="7.4131807"><ele>429.0</ele><time>2026-05-01T14:35:37.272Z</time></trkpt><trkpt lat="43.7509641" lon="7.4130393"><ele>429.0</ele><time>2026-05-01T14:35:39.272Z</time></trkpt><trkpt lat="43.750971" lon="7.4129515"><ele>430.6666666666667</ele><time>2026-05-01T14:35:40.272Z</time></trkpt><trkpt lat="43.7509318" lon="7.4128086"><ele>432.33333333333337</ele><time>2026-05-01T14:35:42.272Z</time></trkpt><trkpt lat="43.7508776" lon="7.4127579"><ele>434.0</ele><time>2026-05-01T14:35:43.272Z</time></trkpt><trkpt lat="43.7508142" lon="7.4127033"><ele>435.6666666666667</ele><time>2026-05-01T14:35:44.272Z</time></trkpt><trkpt lat="43.7507498" lon="7.412629"><ele>437.33333333333337</ele><time>2026-05-01T14:35:45.272Z</time></trkpt><trkpt lat="43.7506914" lon="7.412552"><ele>439.0</ele><time>2026-05-01T14:35:46.272Z</time></trkpt><trkpt lat="43.7505747" lon="7.4123326"><ele>439.0</ele><time>2026-05-01T14:35:49.273Z</time></trkpt><trkpt lat="43.7505365" lon="7.4122263"><ele>439.0</ele><time>2026-05-01T14:35:50.272Z</time></trkpt><trkpt lat="43.750492" lon="7.4121028"><ele>439.0</ele><time>2026-05-01T14:35:51.272Z</time></trkpt><trkpt lat="43.7504345" lon="7.4119524"><ele>439.0</ele><time>2026-05-01T14:35:52.272Z</time></trkpt><trkpt lat="43.7503727" lon="7.4117719"><ele>438.0</ele><time>2026-05-01T14:35:53.273Z</time></trkpt><trkpt lat="43.7503055" lon="7.4116116"><ele>437.0</ele><time>2026-05-01T14:35:54.272Z</time></trkpt><trkpt lat="43.7502284" lon="7.4114498"><ele>436.0</ele><time>2026-05-01T14:35:55.272Z</time></trkpt><trkpt lat="43.7501604" lon="7.4113096"><ele>435.0</ele><time>2026-05-01T14:35:56.272Z</time></trkpt><trkpt lat="43.7500923" lon="7.4111929"><ele>435.0</ele><time>2026-05-01T14:35:57.273Z</time></trkpt><trkpt lat="43.7500273" lon="7.4110875"><ele>435.0</ele><time>2026-05-01T14:35:58.272Z</time></trkpt><trkpt lat="43.7499713" lon="7.4109855"><ele>435.0</ele><time>2026-05-01T14:35:59.273Z</time></trkpt><trkpt lat="43.7499195" lon="7.4108856"><ele>435.0</ele><time>2026-05-01T14:36:00.272Z</time></trkpt><trkpt lat="43.749881" lon="7.4107946"><ele>435.0</ele><time>2026-05-01T14:36:01.272Z</time></trkpt><trkpt lat="43.7498493" lon="7.4107065"><ele>435.0</ele><time>2026-05-01T14:36:02.272Z</time></trkpt><trkpt lat="43.7498193" lon="7.4106032"><ele>435.0</ele><time>2026-05-01T14:36:03.272Z</time></trkpt><trkpt lat="43.7497897" lon="7.4104988"><ele>435.0</ele><time>2026-05-01T14:36:04.272Z</time></trkpt><trkpt lat="43.7497627" lon="7.4103952"><ele>435.0</ele><time>2026-05-01T14:36:05.272Z</time></trkpt><trkpt lat="43.7497394" lon="7.4102925"><ele>435.0</ele><time>2026-05-01T14:36:06.272Z</time></trkpt><trkpt lat="43.7497181" lon="7.4101794"><ele>435.0</ele><time>2026-05-01T14:36:07.272Z</time></trkpt><trkpt lat="43.749683" lon="7.4099357"><ele>436.5</ele><time>2026-05-01T14:36:09.272Z</time></trkpt><trkpt lat="43.7496712" lon="7.4098174"><ele>438.0</ele><time>2026-05-01T14:36:10.272Z</time></trkpt><trkpt lat="43.7496612" lon="7.4097036"><ele>439.5</ele><time>2026-05-01T14:36:11.273Z</time></trkpt><trkpt lat="43.7496502" lon="7.4095903"><ele>441.0</ele><time>2026-05-01T14:36:12.272Z</time></trkpt><trkpt lat="43.7496368" lon="7.4094737"><ele>442.5</ele><time>2026-05-01T14:36:13.272Z</time></trkpt><trkpt lat="43.749623" lon="7.4093534"><ele>444.0</ele><time>2026-05-01T14:36:14.272Z</time></trkpt><trkpt lat="43.749616" lon="7.4092375"><ele>444.8333333333333</ele><time>2026-05-01T14:36:15.273Z</time></trkpt><trkpt lat="43.7496126" lon="7.4091285"><ele>445.66666666666663</ele><time>2026-05-01T14:36:16.272Z</time></trkpt><trkpt lat="43.7496149" lon="7.4089982"><ele>446.5</ele><time>2026-05-01T14:36:17.272Z</time></trkpt><trkpt lat="43.7496084" lon="7.4088746"><ele>447.3333333333333</ele><time>2026-05-01T14:36:18.272Z</time></trkpt><trkpt lat="43.7496051" lon="7.4087538"><ele>448.16666666666663</ele><time>2026-05-01T14:36:19.273Z</time></trkpt><trkpt lat="43.749602" lon="7.4086455"><ele>449.0</ele><time>2026-05-01T14:36:20.273Z</time></trkpt><trkpt lat="43.749598" lon="7.4085405"><ele>449.66666666666663</ele><time>2026-05-01T14:36:21.273Z</time></trkpt><trkpt lat="43.7496001" lon="7.4084284"><ele>450.3333333333333</ele><time>2026-05-01T14:36:22.272Z</time></trkpt><trkpt lat="43.7496047" lon="7.4083135"><ele>451.0</ele><time>2026-05-01T14:36:23.273Z</time></trkpt><trkpt lat="43.7496141" lon="7.4082034"><ele>451.66666666666663</ele><time>2026-05-01T14:36:24.272Z</time></trkpt><trkpt lat="43.7496256" lon="7.4080928"><ele>452.3333333333333</ele><time>2026-05-01T14:36:25.272Z</time></trkpt><trkpt lat="43.7496405" lon="7.4079874"><ele>453.0</ele><time>2026-05-01T14:36:26.272Z</time></trkpt><trkpt lat="43.7496484" lon="7.4078757"><ele>453.0</ele><time>2026-05-01T14:36:27.272Z</time></trkpt><trkpt lat="43.7496525" lon="7.4077633"><ele>452.99999999999994</ele><time>2026-05-01T14:36:28.272Z</time></trkpt><trkpt lat="43.7496848" lon="7.4075502"><ele>452.99999999999994</ele><time>2026-05-01T14:36:30.273Z</time></trkpt><trkpt lat="43.7497211" lon="7.4074542"><ele>453.0</ele><time>2026-05-01T14:36:31.272Z</time></trkpt><trkpt lat="43.7497607" lon="7.4073509"><ele>453.0</ele><time>2026-05-01T14:36:32.272Z</time></trkpt><trkpt lat="43.7498161" lon="7.4072461"><ele>453.0</ele><time>2026-05-01T14:36:33.272Z</time></trkpt><trkpt lat="43.7498821" lon="7.4071631"><ele>452.99999999999994</ele><time>2026-05-01T14:36:34.272Z</time></trkpt><trkpt lat="43.74995" lon="7.4070995"><ele>452.99999999999994</ele><time>2026-05-01T14:36:35.272Z</time></trkpt><trkpt lat="43.7500309" lon="7.4070396"><ele>453.0</ele><time>2026-05-01T14:36:36.272Z</time></trkpt><trkpt lat="43.7501146" lon="7.4069717"><ele>453.0</ele><time>2026-05-01T14:36:37.272Z</time></trkpt><trkpt lat="43.750191" lon="7.4068847"><ele>457.2</ele><time>2026-05-01T14:36:38.272Z</time></trkpt><trkpt lat="43.7502535" lon="7.40679"><ele>461.4</ele><time>2026-05-01T14:36:39.272Z</time></trkpt><trkpt lat="43.7503056" lon="7.4066898"><ele>465.59999999999997</ele><time>2026-05-01T14:36:40.272Z</time></trkpt><trkpt lat="43.7503508" lon="7.4065779"><ele>469.79999999999995</ele><time>2026-05-01T14:36:41.272Z</time></trkpt><trkpt lat="43.7503835" lon="7.4064534"><ele>474.0</ele><time>2026-05-01T14:36:42.272Z</time></trkpt><trkpt lat="43.7504187" lon="7.4063354"><ele>473.0</ele><time>2026-05-01T14:36:43.272Z</time></trkpt><trkpt lat="43.7504667" lon="7.4062276"><ele>472.0</ele><time>2026-05-01T14:36:44.272Z</time></trkpt><trkpt lat="43.7505114" lon="7.4061178"><ele>471.0</ele><time>2026-05-01T14:36:45.272Z</time></trkpt><trkpt lat="43.7505439" lon="7.4059981"><ele>470.0</ele><time>2026-05-01T14:36:46.272Z</time></trkpt><trkpt lat="43.750569" lon="7.4058681"><ele>469.0</ele><time>2026-05-01T14:36:47.272Z</time></trkpt><trkpt lat="43.7505892" lon="7.4057426"><ele>469.0</ele><time>2026-05-01T14:36:48.272Z</time></trkpt><trkpt lat="43.7505964" lon="7.4056019"><ele>469.0</ele><time>2026-05-01T14:36:49.272Z</time></trkpt><trkpt lat="43.7506403" lon="7.4053465"><ele>469.0</ele><time>2026-05-01T14:36:51.272Z</time></trkpt><trkpt lat="43.7506845" lon="7.4052236"><ele>469.0</ele><time>2026-05-01T14:36:52.272Z</time></trkpt><trkpt lat="43.7507355" lon="7.4051069"><ele>471.50000000000006</ele><time>2026-05-01T14:36:53.273Z</time></trkpt><trkpt lat="43.7508045" lon="7.4050089"><ele>474.0</ele><time>2026-05-01T14:36:54.272Z</time></trkpt><trkpt lat="43.750883" lon="7.4049343"><ele>476.5</ele><time>2026-05-01T14:36:55.273Z</time></trkpt><trkpt lat="43.7509564" lon="7.4048771"><ele>479.0</ele><time>2026-05-01T14:36:56.272Z</time></trkpt><trkpt lat="43.7510245" lon="7.4048172"><ele>481.50000000000006</ele><time>2026-05-01T14:36:57.272Z</time></trkpt><trkpt lat="43.7510803" lon="7.4047543"><ele>484.0</ele><time>2026-05-01T14:36:58.272Z</time></trkpt><trkpt lat="43.7511211" lon="7.4046654"><ele>484.00000000000006</ele><time>2026-05-01T14:36:59.272Z</time></trkpt><trkpt lat="43.7511337" lon="7.4045604"><ele>484.0</ele><time>2026-05-01T14:37:00.272Z</time></trkpt><trkpt lat="43.7511265" lon="7.4044456"><ele>484.0</ele><time>2026-05-01T14:37:01.272Z</time></trkpt><trkpt lat="43.7510998" lon="7.4043226"><ele>484.0</ele><time>2026-05-01T14:37:02.272Z</time></trkpt><trkpt lat="43.7510626" lon="7.4042003"><ele>484.00000000000006</ele><time>2026-05-01T14:37:03.272Z</time></trkpt><trkpt lat="43.7510184" lon="7.4040903"><ele>484.0</ele><time>2026-05-01T14:37:04.272Z</time></trkpt><trkpt lat="43.7509649" lon="7.4039896"><ele>482.00000000000006</ele><time>2026-05-01T14:37:05.272Z</time></trkpt><trkpt lat="43.7509088" lon="7.4038978"><ele>480.0</ele><time>2026-05-01T14:37:06.273Z</time></trkpt><trkpt lat="43.7508539" lon="7.4038084"><ele>478.0</ele><time>2026-05-01T14:37:07.272Z</time></trkpt><trkpt lat="43.7508099" lon="7.4037271"><ele>476.0</ele><time>2026-05-01T14:37:08.272Z</time></trkpt><trkpt lat="43.7507698" lon="7.4036324"><ele>474.00000000000006</ele><time>2026-05-01T14:37:09.272Z</time></trkpt><trkpt lat="43.7507349" lon="7.4035338"><ele>472.0</ele><time>2026-05-01T14:37:10.272Z</time></trkpt><trkpt lat="43.7506286" lon="7.4033632"><ele>472.0</ele><time>2026-05-01T14:37:12.272Z</time></trkpt><trkpt lat="43.7505593" lon="7.4032886"><ele>472.00000000000006</ele><time>2026-05-01T14:37:13.272Z</time></trkpt><trkpt lat="43.7504988" lon="7.4032143"><ele>472.00000000000006</ele><time>2026-05-01T14:37:14.272Z</time></trkpt><trkpt lat="43.7504439" lon="7.4031568"><ele>472.0</ele><time>2026-05-01T14:37:15.272Z</time></trkpt><trkpt lat="43.750341" lon="7.4030809"><ele>472.0</ele><time>2026-05-01T14:37:17.272Z</time></trkpt><trkpt lat="43.7502359" lon="7.4030499"><ele>473.57142857142856</ele><time>2026-05-01T14:37:19.272Z</time></trkpt><trkpt lat="43.750171" lon="7.4030491"><ele>475.14285714285717</ele><time>2026-05-01T14:37:20.272Z</time></trkpt><trkpt lat="43.7500981" lon="7.4030486"><ele>476.7142857142857</ele><time>2026-05-01T14:37:21.272Z</time></trkpt><trkpt lat="43.7500303" lon="7.403042"><ele>478.2857142857143</ele><time>2026-05-01T14:37:22.272Z</time></trkpt><trkpt lat="43.7499625" lon="7.4030324"><ele>479.8571428571429</ele><time>2026-05-01T14:37:23.272Z</time></trkpt><trkpt lat="43.7498912" lon="7.4030205"><ele>481.42857142857144</ele><time>2026-05-01T14:37:24.272Z</time></trkpt><trkpt lat="43.7498189" lon="7.4030014"><ele>483.0</ele><time>2026-05-01T14:37:25.272Z</time></trkpt><trkpt lat="43.749747" lon="7.4029824"><ele>483.0</ele><time>2026-05-01T14:37:26.272Z</time></trkpt><trkpt lat="43.7496751" lon="7.4029625"><ele>483.0</ele><time>2026-05-01T14:37:27.272Z</time></trkpt><trkpt lat="43.7495988" lon="7.4029348"><ele>483.0</ele><time>2026-05-01T14:37:28.273Z</time></trkpt><trkpt lat="43.7495261" lon="7.4029034"><ele>483.0</ele><time>2026-05-01T14:37:29.272Z</time></trkpt><trkpt lat="43.7494623" lon="7.402874"><ele>483.0</ele><time>2026-05-01T14:37:30.272Z</time></trkpt><trkpt lat="43.7493937" lon="7.4028398"><ele>483.0</ele><time>2026-05-01T14:37:31.272Z</time></trkpt><trkpt lat="43.7492533" lon="7.402782"><ele>481.8333333333333</ele><time>2026-05-01T14:37:33.272Z</time></trkpt><trkpt lat="43.7491753" lon="7.4027433"><ele>480.66666666666663</ele><time>2026-05-01T14:37:34.272Z</time></trkpt><trkpt lat="43.7490938" lon="7.4027111"><ele>479.5</ele><time>2026-05-01T14:37:35.272Z</time></trkpt><trkpt lat="43.749018" lon="7.402686"><ele>478.3333333333333</ele><time>2026-05-01T14:37:36.272Z</time></trkpt><trkpt lat="43.7489479" lon="7.4026526"><ele>477.16666666666663</ele><time>2026-05-01T14:37:37.272Z</time></trkpt><trkpt lat="43.7488844" lon="7.4026252"><ele>476.0</ele><time>2026-05-01T14:37:38.272Z</time></trkpt><trkpt lat="43.74882" lon="7.4026098"><ele>476.0</ele><time>2026-05-01T14:37:39.272Z</time></trkpt><trkpt lat="43.7487516" lon="7.4025936"><ele>476.0</ele><time>2026-05-01T14:37:40.272Z</time></trkpt><trkpt lat="43.748677" lon="7.4025635"><ele>476.0</ele><time>2026-05-01T14:37:41.273Z</time></trkpt><trkpt lat="43.7486076" lon="7.4025425"><ele>476.0</ele><time>2026-05-01T14:37:42.272Z</time></trkpt><trkpt lat="43.7485369" lon="7.4025083"><ele>476.0</ele><time>2026-05-01T14:37:43.272Z</time></trkpt><trkpt lat="43.7484698" lon="7.4024729"><ele>476.0</ele><time>2026-05-01T14:37:44.273Z</time></trkpt><trkpt lat="43.7484082" lon="7.4024388"><ele>476.0</ele><time>2026-05-01T14:37:45.272Z</time></trkpt><trkpt lat="43.7483402" lon="7.4023977"><ele>475.66666666666663</ele><time>2026-05-01T14:37:46.273Z</time></trkpt><trkpt lat="43.7482643" lon="7.4023558"><ele>475.3333333333333</ele><time>2026-05-01T14:37:47.272Z</time></trkpt><trkpt lat="43.7481854" lon="7.402309"><ele>475.0</ele><time>2026-05-01T14:37:48.272Z</time></trkpt><trkpt lat="43.7481128" lon="7.4022573"><ele>474.66666666666663</ele><time>2026-05-01T14:37:49.272Z</time></trkpt><trkpt lat="43.7480429" lon="7.402201"><ele>474.3333333333333</ele><time>2026-05-01T14:37:50.273Z</time></trkpt><trkpt lat="43.7479768" lon="7.4021498"><ele>474.0</ele><time>2026-05-01T14:37:51.272Z</time></trkpt><trkpt lat="43.74791" lon="7.4020921"><ele>475.0</ele><time>2026-05-01T14:37:52.272Z</time></trkpt><trkpt lat="43.7477719" lon="7.4019503"><ele>476.0</ele><time>2026-05-01T14:37:54.272Z</time></trkpt><trkpt lat="43.7476916" lon="7.4018702"><ele>477.0</ele><time>2026-05-01T14:37:55.272Z</time></trkpt><trkpt lat="43.7475864" lon="7.401794"><ele>478.0</ele><time>2026-05-01T14:37:56.272Z</time></trkpt><trkpt lat="43.7474934" lon="7.4017094"><ele>478.0</ele><time>2026-05-01T14:37:57.272Z</time></trkpt><trkpt lat="43.7474224" lon="7.4016452"><ele>477.99999999999994</ele><time>2026-05-01T14:37:58.272Z</time></trkpt><trkpt lat="43.7473634" lon="7.4016011"><ele>477.99999999999994</ele><time>2026-05-01T14:37:59.272Z</time></trkpt><trkpt lat="43.7472628" lon="7.4015465"><ele>478.0</ele><time>2026-05-01T14:38:01.272Z</time></trkpt><trkpt lat="43.7471486" lon="7.401512"><ele>478.0</ele><time>2026-05-01T14:38:03.272Z</time></trkpt><trkpt lat="43.7470369" lon="7.4014504"><ele>478.00000000000006</ele><time>2026-05-01T14:38:05.272Z</time></trkpt><trkpt lat="43.7469689" lon="7.4014002"><ele>478.0</ele><time>2026-05-01T14:38:06.272Z</time></trkpt><trkpt lat="43.7469033" lon="7.4013472"><ele>478.0</ele><time>2026-05-01T14:38:07.272Z</time></trkpt><trkpt lat="43.7468432" lon="7.4012922"><ele>478.0</ele><time>2026-05-01T14:38:08.272Z</time></trkpt><trkpt lat="43.7467896" lon="7.4012285"><ele>478.00000000000006</ele><time>2026-05-01T14:38:09.273Z</time></trkpt><trkpt lat="43.746737" lon="7.401171"><ele>478.0</ele><time>2026-05-01T14:38:10.272Z</time></trkpt><trkpt lat="43.7466367" lon="7.4010714"><ele>480.33333333333337</ele><time>2026-05-01T14:38:12.272Z</time></trkpt><trkpt lat="43.7465281" lon="7.400978"><ele>482.66666666666663</ele><time>2026-05-01T14:38:14.272Z</time></trkpt><trkpt lat="43.7463331" lon="7.4008242"><ele>485.0</ele><time>2026-05-01T14:38:18.272Z</time></trkpt><trkpt lat="43.746243" lon="7.4007734"><ele>485.0</ele><time>2026-05-01T14:38:20.272Z</time></trkpt><trkpt lat="43.7461438" lon="7.4007453"><ele>485.0</ele><time>2026-05-01T14:38:22.272Z</time></trkpt><trkpt lat="43.746042" lon="7.4007279"><ele>485.0</ele><time>2026-05-01T14:38:24.272Z</time></trkpt><trkpt lat="43.745939" lon="7.4006566"><ele>485.0</ele><time>2026-05-01T14:38:26.272Z</time></trkpt><trkpt lat="43.7458444" lon="7.4005736"><ele>485.0</ele><time>2026-05-01T14:38:28.272Z</time></trkpt><trkpt lat="43.7457821" lon="7.4005096"><ele>485.6</ele><time>2026-05-01T14:38:30.272Z</time></trkpt><trkpt lat="43.7457284" lon="7.4004574"><ele>486.2</ele><time>2026-05-01T14:38:34.273Z</time></trkpt><trkpt lat="43.7456572" lon="7.400413"><ele>486.79999999999995</ele><time>2026-05-01T14:38:40.272Z</time></trkpt><trkpt lat="43.745562" lon="7.4002692"><ele>487.4</ele><time>2026-05-01T14:38:47.272Z</time></trkpt><trkpt lat="43.7455177" lon="7.4001423"><ele>488.0</ele><time>2026-05-01T14:38:50.272Z</time></trkpt><trkpt lat="43.7454932" lon="7.4000077"><ele>487.99999999999994</ele><time>2026-05-01T14:38:52.272Z</time></trkpt><trkpt lat="43.7454706" lon="7.3998336"><ele>488.0</ele><time>2026-05-01T14:38:54.272Z</time></trkpt><trkpt lat="43.745458" lon="7.399732"><ele>488.0</ele><time>2026-05-01T14:38:55.272Z</time></trkpt><trkpt lat="43.7454489" lon="7.3996366"><ele>488.0</ele><time>2026-05-01T14:38:56.272Z</time></trkpt><trkpt lat="43.7454455" lon="7.3995453"><ele>487.99999999999994</ele><time>2026-05-01T14:38:57.272Z</time></trkpt><trkpt lat="43.7454425" lon="7.399444"><ele>488.0</ele><time>2026-05-01T14:38:58.272Z</time></trkpt><trkpt lat="43.7454297" lon="7.3992749"><ele>488.25</ele><time>2026-05-01T14:39:00.273Z</time></trkpt><trkpt lat="43.7454403" lon="7.3991032"><ele>488.5</ele><time>2026-05-01T14:39:02.272Z</time></trkpt><trkpt lat="43.745462" lon="7.3988198"><ele>488.75</ele><time>2026-05-01T14:39:06.273Z</time></trkpt><trkpt lat="43.7454872" lon="7.3986641"><ele>489.0</ele><time>2026-05-01T14:39:08.272Z</time></trkpt><trkpt lat="43.7455087" lon="7.3985565"><ele>487.79999999999995</ele><time>2026-05-01T14:39:09.272Z</time></trkpt><trkpt lat="43.7455535" lon="7.3984386"><ele>486.59999999999997</ele><time>2026-05-01T14:39:10.272Z</time></trkpt><trkpt lat="43.7456151" lon="7.398312"><ele>485.4</ele><time>2026-05-01T14:39:11.272Z</time></trkpt><trkpt lat="43.7456708" lon="7.39819"><ele>484.2</ele><time>2026-05-01T14:39:12.272Z</time></trkpt><trkpt lat="43.7457121" lon="7.3980638"><ele>483.0</ele><time>2026-05-01T14:39:13.272Z</time></trkpt><trkpt lat="43.7457434" lon="7.397944"><ele>482.1666666666667</ele><time>2026-05-01T14:39:14.272Z</time></trkpt><trkpt lat="43.7457664" lon="7.397835"><ele>481.33333333333337</ele><time>2026-05-01T14:39:15.273Z</time></trkpt><trkpt lat="43.7457789" lon="7.3977261"><ele>480.5</ele><time>2026-05-01T14:39:16.272Z</time></trkpt><trkpt lat="43.7457923" lon="7.3976194"><ele>479.6666666666667</ele><time>2026-05-01T14:39:17.272Z</time></trkpt><trkpt lat="43.7457902" lon="7.3975048"><ele>478.83333333333337</ele><time>2026-05-01T14:39:18.272Z</time></trkpt><trkpt lat="43.7457828" lon="7.3973788"><ele>478.0</ele><time>2026-05-01T14:39:19.272Z</time></trkpt><trkpt lat="43.7457712" lon="7.3972255"><ele>477.75</ele><time>2026-05-01T14:39:20.272Z</time></trkpt><trkpt lat="43.7457619" lon="7.3970402"><ele>477.5</ele><time>2026-05-01T14:39:21.273Z</time></trkpt><trkpt lat="43.7457581" lon="7.3968331"><ele>477.25</ele><time>2026-05-01T14:39:22.272Z</time></trkpt><trkpt lat="43.7457473" lon="7.3966385"><ele>477.0</ele><time>2026-05-01T14:39:23.272Z</time></trkpt><trkpt lat="43.7456921" lon="7.3962751"><ele>478.0</ele><time>2026-05-01T14:39:25.272Z</time></trkpt><trkpt lat="43.7456578" lon="7.3961151"><ele>479.0</ele><time>2026-05-01T14:39:26.273Z</time></trkpt><trkpt lat="43.7456114" lon="7.3959645"><ele>480.0</ele><time>2026-05-01T14:39:27.272Z</time></trkpt><trkpt lat="43.7455678" lon="7.3958078"><ele>481.0</ele><time>2026-05-01T14:39:28.272Z</time></trkpt><trkpt lat="43.7455177" lon="7.395666"><ele>481.0</ele><time>2026-05-01T14:39:29.272Z</time></trkpt><trkpt lat="43.7454635" lon="7.3955238"><ele>481.0</ele><time>2026-05-01T14:39:30.272Z</time></trkpt><trkpt lat="43.7454008" lon="7.3953821"><ele>481.0</ele><time>2026-05-01T14:39:31.272Z</time></trkpt><trkpt lat="43.7453279" lon="7.3952408"><ele>481.0</ele><time>2026-05-01T14:39:32.272Z</time></trkpt><trkpt lat="43.7452548" lon="7.3950965"><ele>477.20000000000005</ele><time>2026-05-01T14:39:33.272Z</time></trkpt><trkpt lat="43.7451807" lon="7.3949762"><ele>473.40000000000003</ele><time>2026-05-01T14:39:34.272Z</time></trkpt><trkpt lat="43.7451111" lon="7.3948742"><ele>469.6</ele><time>2026-05-01T14:39:35.272Z</time></trkpt><trkpt lat="43.7450335" lon="7.394787"><ele>465.8</ele><time>2026-05-01T14:39:36.272Z</time></trkpt><trkpt lat="43.7449616" lon="7.3947035"><ele>462.0</ele><time>2026-05-01T14:39:37.272Z</time></trkpt><trkpt lat="43.7448984" lon="7.3946218"><ele>462.0</ele><time>2026-05-01T14:39:38.272Z</time></trkpt><trkpt lat="43.744861" lon="7.3945334"><ele>462.0</ele><time>2026-05-01T14:39:39.272Z</time></trkpt><trkpt lat="43.7448204" lon="7.394367"><ele>462.0</ele><time>2026-05-01T14:39:41.272Z</time></trkpt><trkpt lat="43.7447579" lon="7.394232"><ele>462.0</ele><time>2026-05-01T14:39:43.272Z</time></trkpt><trkpt lat="43.7446284" lon="7.394186"><ele>462.0</ele><time>2026-05-01T14:39:45.272Z</time></trkpt><trkpt lat="43.7444455" lon="7.3941451"><ele>462.0</ele><time>2026-05-01T14:39:47.272Z</time></trkpt><trkpt lat="43.7443547" lon="7.3940726"><ele>462.0</ele><time>2026-05-01T14:39:48.272Z</time></trkpt><trkpt lat="43.7442663" lon="7.3939765"><ele>462.0</ele><time>2026-05-01T14:39:49.273Z</time></trkpt><trkpt lat="43.7441802" lon="7.3938784"><ele>461.25</ele><time>2026-05-01T14:39:50.272Z</time></trkpt><trkpt lat="43.7440915" lon="7.3937808"><ele>460.5</ele><time>2026-05-01T14:39:51.272Z</time></trkpt><trkpt lat="43.7439989" lon="7.3936848"><ele>459.75</ele><time>2026-05-01T14:39:52.272Z</time></trkpt><trkpt lat="43.7439081" lon="7.3935883"><ele>459.0</ele><time>2026-05-01T14:39:53.272Z</time></trkpt><trkpt lat="43.7438245" lon="7.3934855"><ele>459.0</ele><time>2026-05-01T14:39:54.272Z</time></trkpt><trkpt lat="43.7437413" lon="7.3933756"><ele>459.0</ele><time>2026-05-01T14:39:55.272Z</time></trkpt><trkpt lat="43.7436625" lon="7.393265"><ele>459.0</ele><time>2026-05-01T14:39:56.272Z</time></trkpt><trkpt lat="43.7435961" lon="7.393147"><ele>459.0</ele><time>2026-05-01T14:39:57.272Z</time></trkpt><trkpt lat="43.7435293" lon="7.3930176"><ele>461.25</ele><time>2026-05-01T14:39:58.272Z</time></trkpt><trkpt lat="43.7434644" lon="7.3928848"><ele>463.5</ele><time>2026-05-01T14:39:59.272Z</time></trkpt><trkpt lat="43.7433895" lon="7.3927499"><ele>465.75</ele><time>2026-05-01T14:40:00.272Z</time></trkpt><trkpt lat="43.7433195" lon="7.3926223"><ele>468.0</ele><time>2026-05-01T14:40:01.272Z</time></trkpt><trkpt lat="43.743248" lon="7.392494"><ele>468.0</ele><time>2026-05-01T14:40:02.272Z</time></trkpt><trkpt lat="43.7431772" lon="7.3923755"><ele>467.99999999999994</ele><time>2026-05-01T14:40:03.272Z</time></trkpt><trkpt lat="43.7431054" lon="7.3922679"><ele>467.99999999999994</ele><time>2026-05-01T14:40:04.272Z</time></trkpt><trkpt lat="43.743037" lon="7.3921562"><ele>468.0</ele><time>2026-05-01T14:40:05.272Z</time></trkpt><trkpt lat="43.7429736" lon="7.3920503"><ele>468.0</ele><time>2026-05-01T14:40:06.272Z</time></trkpt><trkpt lat="43.7428565" lon="7.3918321"><ele>467.4</ele><time>2026-05-01T14:40:08.272Z</time></trkpt><trkpt lat="43.7427978" lon="7.3917233"><ele>466.79999999999995</ele><time>2026-05-01T14:40:09.272Z</time></trkpt><trkpt lat="43.7427307" lon="7.3916012"><ele>466.2</ele><time>2026-05-01T14:40:10.273Z</time></trkpt><trkpt lat="43.7426602" lon="7.3914833"><ele>465.6</ele><time>2026-05-01T14:40:11.272Z</time></trkpt><trkpt lat="43.7425831" lon="7.3913606"><ele>465.0</ele><time>2026-05-01T14:40:12.272Z</time></trkpt><trkpt lat="43.7424784" lon="7.3912494"><ele>472.25</ele><time>2026-05-01T14:40:13.272Z</time></trkpt><trkpt lat="43.7423564" lon="7.3911655"><ele>479.5</ele><time>2026-05-01T14:40:14.273Z</time></trkpt><trkpt lat="43.7422282" lon="7.391108"><ele>486.75</ele><time>2026-05-01T14:40:15.272Z</time></trkpt><trkpt lat="43.7420945" lon="7.3910702"><ele>494.0</ele><time>2026-05-01T14:40:16.272Z</time></trkpt><trkpt lat="43.7419668" lon="7.3910247"><ele>493.0</ele><time>2026-05-01T14:40:17.273Z</time></trkpt><trkpt lat="43.7418417" lon="7.3909797"><ele>492.0</ele><time>2026-05-01T14:40:18.272Z</time></trkpt><trkpt lat="43.7417212" lon="7.3909363"><ele>491.0</ele><time>2026-05-01T14:40:19.273Z</time></trkpt><trkpt lat="43.7416078" lon="7.3908966"><ele>490.0</ele><time>2026-05-01T14:40:20.272Z</time></trkpt><trkpt lat="43.741502" lon="7.3908597"><ele>490.0</ele><time>2026-05-01T14:40:21.272Z</time></trkpt><trkpt lat="43.7413999" lon="7.3908192"><ele>490.0</ele><time>2026-05-01T14:40:22.273Z</time></trkpt><trkpt lat="43.7412965" lon="7.3907759"><ele>490.0</ele><time>2026-05-01T14:40:23.272Z</time></trkpt><trkpt lat="43.741185" lon="7.3907466"><ele>490.0</ele><time>2026-05-01T14:40:24.272Z</time></trkpt><trkpt lat="43.7410656" lon="7.3907104"><ele>484.6666666666667</ele><time>2026-05-01T14:40:25.272Z</time></trkpt><trkpt lat="43.7409417" lon="7.3906636"><ele>479.33333333333337</ele><time>2026-05-01T14:40:26.272Z</time></trkpt><trkpt lat="43.7408123" lon="7.3906191"><ele>474.0</ele><time>2026-05-01T14:40:27.272Z</time></trkpt><trkpt lat="43.7405451" lon="7.3904933"><ele>479.75</ele><time>2026-05-01T14:40:29.272Z</time></trkpt><trkpt lat="43.7404112" lon="7.3904249"><ele>485.5</ele><time>2026-05-01T14:40:30.272Z</time></trkpt><trkpt lat="43.7402723" lon="7.3903434"><ele>491.25</ele><time>2026-05-01T14:40:31.272Z</time></trkpt><trkpt lat="43.7401364" lon="7.3902611"><ele>497.0</ele><time>2026-05-01T14:40:32.272Z</time></trkpt><trkpt lat="43.7400041" lon="7.3901737"><ele>497.0</ele><time>2026-05-01T14:40:33.272Z</time></trkpt><trkpt lat="43.7398726" lon="7.3900899"><ele>497.0</ele><time>2026-05-01T14:40:34.272Z</time></trkpt><trkpt lat="43.7397423" lon="7.39001"><ele>497.0</ele><time>2026-05-01T14:40:35.272Z</time></trkpt><trkpt lat="43.7396086" lon="7.389927"><ele>497.0</ele><time>2026-05-01T14:40:36.272Z</time></trkpt><trkpt lat="43.7394708" lon="7.389838"><ele>498.75</ele><time>2026-05-01T14:40:37.272Z</time></trkpt><trkpt lat="43.7393359" lon="7.3897424"><ele>500.5</ele><time>2026-05-01T14:40:38.272Z</time></trkpt><trkpt lat="43.7392037" lon="7.3896486"><ele>502.25</ele><time>2026-05-01T14:40:39.273Z</time></trkpt><trkpt lat="43.7390778" lon="7.3895563"><ele>504.0</ele><time>2026-05-01T14:40:40.272Z</time></trkpt><trkpt lat="43.7389641" lon="7.3894623"><ele>504.0</ele><time>2026-05-01T14:40:41.272Z</time></trkpt><trkpt lat="43.7388544" lon="7.3893641"><ele>504.0</ele><time>2026-05-01T14:40:42.272Z</time></trkpt><trkpt lat="43.738758" lon="7.389247"><ele>504.0</ele><time>2026-05-01T14:40:43.272Z</time></trkpt><trkpt lat="43.7386833" lon="7.3891133"><ele>504.0</ele><time>2026-05-01T14:40:44.272Z</time></trkpt><trkpt lat="43.7386163" lon="7.3889653"><ele>498.75</ele><time>2026-05-01T14:40:45.272Z</time></trkpt><trkpt lat="43.7385802" lon="7.3887986"><ele>493.5</ele><time>2026-05-01T14:40:46.272Z</time></trkpt><trkpt lat="43.738558" lon="7.3886056"><ele>488.25</ele><time>2026-05-01T14:40:47.272Z</time></trkpt><trkpt lat="43.7385324" lon="7.3884071"><ele>483.0</ele><time>2026-05-01T14:40:48.272Z</time></trkpt><trkpt lat="43.7384744" lon="7.3880074"><ele>483.0</ele><time>2026-05-01T14:40:50.272Z</time></trkpt><trkpt lat="43.7384505" lon="7.3878101"><ele>483.0</ele><time>2026-05-01T14:40:51.272Z</time></trkpt><trkpt lat="43.7384243" lon="7.3876209"><ele>483.0</ele><time>2026-05-01T14:40:52.272Z</time></trkpt><trkpt lat="43.7384024" lon="7.3874315"><ele>483.0</ele><time>2026-05-01T14:40:53.272Z</time></trkpt><trkpt lat="43.7383826" lon="7.3872479"><ele>487.5</ele><time>2026-05-01T14:40:54.272Z</time></trkpt><trkpt lat="43.73836" lon="7.3870731"><ele>492.0</ele><time>2026-05-01T14:40:55.272Z</time></trkpt><trkpt lat="43.7383394" lon="7.3868975"><ele>496.5</ele><time>2026-05-01T14:40:56.273Z</time></trkpt><trkpt lat="43.7383062" lon="7.3867349"><ele>501.0</ele><time>2026-05-01T14:40:57.273Z</time></trkpt><trkpt lat="43.7382661" lon="7.3865711"><ele>501.0</ele><time>2026-05-01T14:40:58.272Z</time></trkpt><trkpt lat="43.7382187" lon="7.386411"><ele>501.0</ele><time>2026-05-01T14:40:59.272Z</time></trkpt><trkpt lat="43.7381562" lon="7.3862489"><ele>501.0</ele><time>2026-05-01T14:41:00.272Z</time></trkpt><trkpt lat="43.7380765" lon="7.3860924"><ele>501.0</ele><time>2026-05-01T14:41:01.272Z</time></trkpt><trkpt lat="43.7379862" lon="7.3859456"><ele>501.5</ele><time>2026-05-01T14:41:02.272Z</time></trkpt><trkpt lat="43.7378885" lon="7.3858038"><ele>502.0</ele><time>2026-05-01T14:41:03.273Z</time></trkpt><trkpt lat="43.7377867" lon="7.3856581"><ele>502.5</ele><time>2026-05-01T14:41:04.272Z</time></trkpt><trkpt lat="43.7376723" lon="7.3855173"><ele>503.0</ele><time>2026-05-01T14:41:05.272Z</time></trkpt><trkpt lat="43.7375483" lon="7.3853663"><ele>503.0</ele><time>2026-05-01T14:41:06.272Z</time></trkpt><trkpt lat="43.7374306" lon="7.3851964"><ele>503.0</ele><time>2026-05-01T14:41:07.272Z</time></trkpt><trkpt lat="43.7373136" lon="7.3850361"><ele>503.0</ele><time>2026-05-01T14:41:08.272Z</time></trkpt><trkpt lat="43.7371981" lon="7.3848707"><ele>494.0</ele><time>2026-05-01T14:41:09.272Z</time></trkpt><trkpt lat="43.7369645" lon="7.3845128"><ele>485.0</ele><time>2026-05-01T14:41:11.272Z</time></trkpt><trkpt lat="43.7368455" lon="7.3843211"><ele>485.0</ele><time>2026-05-01T14:41:12.272Z</time></trkpt><trkpt lat="43.7367333" lon="7.3841314"><ele>485.0</ele><time>2026-05-01T14:41:13.272Z</time></trkpt><trkpt lat="43.7366229" lon="7.3839413"><ele>485.0</ele><time>2026-05-01T14:41:14.273Z</time></trkpt><trkpt lat="43.7365166" lon="7.3837451"><ele>495.66666666666663</ele><time>2026-05-01T14:41:15.272Z</time></trkpt><trkpt lat="43.7364246" lon="7.3835522"><ele>506.33333333333337</ele><time>2026-05-01T14:41:16.272Z</time></trkpt><trkpt lat="43.7363463" lon="7.3833575"><ele>517.0</ele><time>2026-05-01T14:41:17.273Z</time></trkpt><trkpt lat="43.7362788" lon="7.3831497"><ele>525.0</ele><time>2026-05-01T14:41:18.272Z</time></trkpt><trkpt lat="43.7362237" lon="7.3829326"><ele>533.0</ele><time>2026-05-01T14:41:19.272Z</time></trkpt><trkpt lat="43.7361766" lon="7.3827077"><ele>541.0</ele><time>2026-05-01T14:41:20.272Z</time></trkpt><trkpt lat="43.7361302" lon="7.3824721"><ele>541.0</ele><time>2026-05-01T14:41:21.272Z</time></trkpt><trkpt lat="43.7360935" lon="7.3822416"><ele>541.0</ele><time>2026-05-01T14:41:22.272Z</time></trkpt><trkpt lat="43.7360509" lon="7.3820262"><ele>541.0</ele><time>2026-05-01T14:41:23.272Z</time></trkpt><trkpt lat="43.7360171" lon="7.3818018"><ele>532.3333333333334</ele><time>2026-05-01T14:41:24.272Z</time></trkpt><trkpt lat="43.7359953" lon="7.3815845"><ele>523.6666666666666</ele><time>2026-05-01T14:41:25.272Z</time></trkpt><trkpt lat="43.7359754" lon="7.3813547"><ele>515.0</ele><time>2026-05-01T14:41:26.272Z</time></trkpt><trkpt lat="43.7359423" lon="7.3811187"><ele>515.0</ele><time>2026-05-01T14:41:27.272Z</time></trkpt><trkpt lat="43.7359038" lon="7.3808895"><ele>515.0</ele><time>2026-05-01T14:41:28.272Z</time></trkpt><trkpt lat="43.7358488" lon="7.3806725"><ele>515.0</ele><time>2026-05-01T14:41:29.272Z</time></trkpt><trkpt lat="43.735766" lon="7.3804686"><ele>529.5</ele><time>2026-05-01T14:41:30.272Z</time></trkpt><trkpt lat="43.7355582" lon="7.3800845"><ele>544.0</ele><time>2026-05-01T14:41:32.272Z</time></trkpt><trkpt lat="43.7354555" lon="7.3799017"><ele>544.0</ele><time>2026-05-01T14:41:33.272Z</time></trkpt><trkpt lat="43.7353494" lon="7.3797185"><ele>544.0</ele><time>2026-05-01T14:41:34.272Z</time></trkpt><trkpt lat="43.7352358" lon="7.3795407"><ele>544.0</ele><time>2026-05-01T14:41:35.272Z</time></trkpt><trkpt lat="43.7351249" lon="7.3793714"><ele>532.0</ele><time>2026-05-01T14:41:36.273Z</time></trkpt><trkpt lat="43.7350235" lon="7.3792042"><ele>520.0</ele><time>2026-05-01T14:41:37.272Z</time></trkpt><trkpt lat="43.734929" lon="7.3790394"><ele>508.0</ele><time>2026-05-01T14:41:38.272Z</time></trkpt><trkpt lat="43.7348512" lon="7.3788672"><ele>519.3333333333334</ele><time>2026-05-01T14:41:39.272Z</time></trkpt><trkpt lat="43.7347863" lon="7.3786892"><ele>530.6666666666666</ele><time>2026-05-01T14:41:40.272Z</time></trkpt><trkpt lat="43.7347349" lon="7.3784916"><ele>542.0</ele><time>2026-05-01T14:41:41.272Z</time></trkpt><trkpt lat="43.7346842" lon="7.3782761"><ele>542.0</ele><time>2026-05-01T14:41:42.272Z</time></trkpt><trkpt lat="43.7346338" lon="7.3780629"><ele>542.0</ele><time>2026-05-01T14:41:43.272Z</time></trkpt><trkpt lat="43.7345775" lon="7.3778436"><ele>542.0</ele><time>2026-05-01T14:41:44.272Z</time></trkpt><trkpt lat="43.734529" lon="7.377628"><ele>550.6666666666666</ele><time>2026-05-01T14:41:45.272Z</time></trkpt><trkpt lat="43.7344735" lon="7.3774115"><ele>559.3333333333334</ele><time>2026-05-01T14:41:46.273Z</time></trkpt><trkpt lat="43.7344184" lon="7.3772089"><ele>568.0</ele><time>2026-05-01T14:41:47.272Z</time></trkpt><trkpt lat="43.7343602" lon="7.3770202"><ele>552.0</ele><time>2026-05-01T14:41:48.272Z</time></trkpt><trkpt lat="43.734311" lon="7.3768299"><ele>536.0</ele><time>2026-05-01T14:41:49.273Z</time></trkpt><trkpt lat="43.7342703" lon="7.376646"><ele>520.0</ele><time>2026-05-01T14:41:50.272Z</time></trkpt><trkpt lat="43.7342663" lon="7.3764393"><ele>504.0</ele><time>2026-05-01T14:41:51.272Z</time></trkpt><trkpt lat="43.7343076" lon="7.3759887"><ele>503.33333333333337</ele><time>2026-05-01T14:41:53.273Z</time></trkpt><trkpt lat="43.7343209" lon="7.3757443"><ele>502.6666666666667</ele><time>2026-05-01T14:41:54.272Z</time></trkpt><trkpt lat="43.7343342" lon="7.3755039"><ele>502.0</ele><time>2026-05-01T14:41:55.272Z</time></trkpt><trkpt lat="43.7343358" lon="7.3752627"><ele>503.6666666666667</ele><time>2026-05-01T14:41:56.272Z</time></trkpt><trkpt lat="43.7343268" lon="7.37502"><ele>505.33333333333337</ele><time>2026-05-01T14:41:57.272Z</time></trkpt><trkpt lat="43.7343042" lon="7.3747783"><ele>507.0</ele><time>2026-05-01T14:41:58.272Z</time></trkpt><trkpt lat="43.7342764" lon="7.3745381"><ele>508.0</ele><time>2026-05-01T14:41:59.272Z</time></trkpt><trkpt lat="43.7342316" lon="7.3743173"><ele>509.0</ele><time>2026-05-01T14:42:00.272Z</time></trkpt><trkpt lat="43.7341651" lon="7.3740998"><ele>510.0</ele><time>2026-05-01T14:42:01.272Z</time></trkpt><trkpt lat="43.7340915" lon="7.3738834"><ele>517.0</ele><time>2026-05-01T14:42:02.272Z</time></trkpt><trkpt lat="43.7340145" lon="7.373669"><ele>524.0</ele><time>2026-05-01T14:42:03.272Z</time></trkpt><trkpt lat="43.7339434" lon="7.3734456"><ele>531.0</ele><time>2026-05-01T14:42:04.272Z</time></trkpt><trkpt lat="43.7338732" lon="7.3732264"><ele>539.3333333333334</ele><time>2026-05-01T14:42:05.272Z</time></trkpt><trkpt lat="43.7338009" lon="7.3730037"><ele>547.6666666666667</ele><time>2026-05-01T14:42:06.272Z</time></trkpt><trkpt lat="43.7337396" lon="7.3727796"><ele>556.0</ele><time>2026-05-01T14:42:07.272Z</time></trkpt><trkpt lat="43.7336871" lon="7.372548"><ele>556.0</ele><time>2026-05-01T14:42:08.272Z</time></trkpt><trkpt lat="43.733647" lon="7.3723173"><ele>556.0</ele><time>2026-05-01T14:42:09.272Z</time></trkpt><trkpt lat="43.7336126" lon="7.3720799"><ele>556.0</ele><time>2026-05-01T14:42:10.272Z</time></trkpt><trkpt lat="43.7335673" lon="7.3718482"><ele>540.0</ele><time>2026-05-01T14:42:11.272Z</time></trkpt><trkpt lat="43.7335162" lon="7.3716257"><ele>524.0</ele><time>2026-05-01T14:42:12.272Z</time></trkpt><trkpt lat="43.7333952" lon="7.3711555"><ele>524.0</ele><time>2026-05-01T14:42:14.272Z</time></trkpt><trkpt lat="43.733326" lon="7.3709194"><ele>524.0</ele><time>2026-05-01T14:42:15.273Z</time></trkpt><trkpt lat="43.7332657" lon="7.3706976"><ele>524.0</ele><time>2026-05-01T14:42:16.272Z</time></trkpt><trkpt lat="43.7332061" lon="7.3704745"><ele>526.6666666666666</ele><time>2026-05-01T14:42:17.272Z</time></trkpt><trkpt lat="43.7331572" lon="7.3702437"><ele>529.3333333333334</ele><time>2026-05-01T14:42:18.272Z</time></trkpt><trkpt lat="43.7331319" lon="7.3700206"><ele>532.0</ele><time>2026-05-01T14:42:19.273Z</time></trkpt><trkpt lat="43.7331151" lon="7.3698126"><ele>530.0</ele><time>2026-05-01T14:42:20.272Z</time></trkpt><trkpt lat="43.7331245" lon="7.3695973"><ele>528.0</ele><time>2026-05-01T14:42:21.272Z</time></trkpt><trkpt lat="43.7331753" lon="7.3693856"><ele>526.0</ele><time>2026-05-01T14:42:22.272Z</time></trkpt><trkpt lat="43.7332536" lon="7.3691847"><ele>526.0</ele><time>2026-05-01T14:42:23.272Z</time></trkpt><trkpt lat="43.7333527" lon="7.3689975"><ele>526.0</ele><time>2026-05-01T14:42:24.272Z</time></trkpt><trkpt lat="43.7334735" lon="7.3688496"><ele>526.0</ele><time>2026-05-01T14:42:25.272Z</time></trkpt><trkpt lat="43.7336008" lon="7.3687415"><ele>522.3333333333334</ele><time>2026-05-01T14:42:26.272Z</time></trkpt><trkpt lat="43.7337509" lon="7.3686806"><ele>518.6666666666666</ele><time>2026-05-01T14:42:27.273Z</time></trkpt><trkpt lat="43.7339025" lon="7.3686522"><ele>515.0</ele><time>2026-05-01T14:42:28.272Z</time></trkpt><trkpt lat="43.7340539" lon="7.3686391"><ele>515.0</ele><time>2026-05-01T14:42:29.272Z</time></trkpt><trkpt lat="43.734215" lon="7.3686307"><ele>515.0</ele><time>2026-05-01T14:42:30.272Z</time></trkpt><trkpt lat="43.7343758" lon="7.3686153"><ele>515.0</ele><time>2026-05-01T14:42:31.272Z</time></trkpt><trkpt lat="43.734538" lon="7.3685863"><ele>523.0</ele><time>2026-05-01T14:42:32.272Z</time></trkpt><trkpt lat="43.7347017" lon="7.3685292"><ele>531.0</ele><time>2026-05-01T14:42:33.273Z</time></trkpt><trkpt lat="43.7350177" lon="7.368296"><ele>531.0</ele><time>2026-05-01T14:42:35.273Z</time></trkpt><trkpt lat="43.7351628" lon="7.3681363"><ele>531.0</ele><time>2026-05-01T14:42:36.272Z</time></trkpt><trkpt lat="43.7352833" lon="7.3679539"><ele>531.0</ele><time>2026-05-01T14:42:37.272Z</time></trkpt><trkpt lat="43.735383" lon="7.3677553"><ele>533.3333333333334</ele><time>2026-05-01T14:42:38.272Z</time></trkpt><trkpt lat="43.7354779" lon="7.3675481"><ele>535.6666666666667</ele><time>2026-05-01T14:42:39.272Z</time></trkpt><trkpt lat="43.735552" lon="7.3673339"><ele>538.0</ele><time>2026-05-01T14:42:40.273Z</time></trkpt><trkpt lat="43.7356222" lon="7.3671297"><ele>538.0</ele><time>2026-05-01T14:42:41.272Z</time></trkpt><trkpt lat="43.7356829" lon="7.3669469"><ele>538.0</ele><time>2026-05-01T14:42:42.272Z</time></trkpt><trkpt lat="43.7357403" lon="7.3667645"><ele>538.0</ele><time>2026-05-01T14:42:43.272Z</time></trkpt><trkpt lat="43.7357837" lon="7.3665776"><ele>538.0</ele><time>2026-05-01T14:42:44.273Z</time></trkpt><trkpt lat="43.7357993" lon="7.3664026"><ele>538.25</ele><time>2026-05-01T14:42:45.272Z</time></trkpt><trkpt lat="43.7357929" lon="7.3662167"><ele>538.5</ele><time>2026-05-01T14:42:46.272Z</time></trkpt><trkpt lat="43.7357512" lon="7.3660181"><ele>538.75</ele><time>2026-05-01T14:42:47.272Z</time></trkpt><trkpt lat="43.7356914" lon="7.3658306"><ele>539.0</ele><time>2026-05-01T14:42:48.272Z</time></trkpt><trkpt lat="43.7356234" lon="7.3656427"><ele>539.0</ele><time>2026-05-01T14:42:49.273Z</time></trkpt><trkpt lat="43.7355606" lon="7.3654745"><ele>539.0</ele><time>2026-05-01T14:42:50.272Z</time></trkpt><trkpt lat="43.7355314" lon="7.3653049"><ele>539.0</ele><time>2026-05-01T14:42:51.272Z</time></trkpt><trkpt lat="43.735554" lon="7.3651336"><ele>539.0</ele><time>2026-05-01T14:42:52.272Z</time></trkpt><trkpt lat="43.7356067" lon="7.3649569"><ele>539.0</ele><time>2026-05-01T14:42:53.272Z</time></trkpt><trkpt lat="43.7356744" lon="7.3647801"><ele>539.0</ele><time>2026-05-01T14:42:54.272Z</time></trkpt><trkpt lat="43.7358141" lon="7.3643867"><ele>536.0</ele><time>2026-05-01T14:42:56.272Z</time></trkpt><trkpt lat="43.7358892" lon="7.3641766"><ele>533.0</ele><time>2026-05-01T14:42:57.272Z</time></trkpt><trkpt lat="43.7359719" lon="7.3639564"><ele>530.0</ele><time>2026-05-01T14:42:58.272Z</time></trkpt><trkpt lat="43.7360681" lon="7.363767"><ele>539.0</ele><time>2026-05-01T14:42:59.272Z</time></trkpt><trkpt lat="43.7361573" lon="7.3635614"><ele>548.0</ele><time>2026-05-01T14:43:00.272Z</time></trkpt><trkpt lat="43.7362268" lon="7.3633466"><ele>557.0</ele><time>2026-05-01T14:43:01.272Z</time></trkpt><trkpt lat="43.7362792" lon="7.3631074"><ele>555.0</ele><time>2026-05-01T14:43:02.272Z</time></trkpt><trkpt lat="43.7363213" lon="7.3628646"><ele>553.0</ele><time>2026-05-01T14:43:03.272Z</time></trkpt><trkpt lat="43.7363545" lon="7.3626321"><ele>551.0</ele><time>2026-05-01T14:43:04.272Z</time></trkpt><trkpt lat="43.7363643" lon="7.3624064"><ele>551.3333333333333</ele><time>2026-05-01T14:43:05.272Z</time></trkpt><trkpt lat="43.7363499" lon="7.3621712"><ele>551.6666666666666</ele><time>2026-05-01T14:43:06.272Z</time></trkpt><trkpt lat="43.7363205" lon="7.3619293"><ele>552.0</ele><time>2026-05-01T14:43:07.272Z</time></trkpt><trkpt lat="43.7362764" lon="7.3616834"><ele>552.0</ele><time>2026-05-01T14:43:08.273Z</time></trkpt><trkpt lat="43.7362345" lon="7.3614487"><ele>552.0</ele><time>2026-05-01T14:43:09.272Z</time></trkpt><trkpt lat="43.7361986" lon="7.3612294"><ele>552.0</ele><time>2026-05-01T14:43:10.272Z</time></trkpt><trkpt lat="43.7361679" lon="7.361022"><ele>550.25</ele><time>2026-05-01T14:43:11.272Z</time></trkpt><trkpt lat="43.7361642" lon="7.3608201"><ele>548.5</ele><time>2026-05-01T14:43:12.272Z</time></trkpt><trkpt lat="43.7361871" lon="7.3606312"><ele>546.75</ele><time>2026-05-01T14:43:13.273Z</time></trkpt><trkpt lat="43.7362445" lon="7.3604714"><ele>545.0</ele><time>2026-05-01T14:43:14.272Z</time></trkpt><trkpt lat="43.7363222" lon="7.360332"><ele>540.6666666666666</ele><time>2026-05-01T14:43:15.272Z</time></trkpt><trkpt lat="43.7365482" lon="7.3601328"><ele>536.3333333333334</ele><time>2026-05-01T14:43:17.272Z</time></trkpt><trkpt lat="43.7366853" lon="7.3600538"><ele>532.0</ele><time>2026-05-01T14:43:18.272Z</time></trkpt><trkpt lat="43.7368254" lon="7.3599605"><ele>536.6666666666667</ele><time>2026-05-01T14:43:19.272Z</time></trkpt><trkpt lat="43.7369549" lon="7.3598447"><ele>541.3333333333334</ele><time>2026-05-01T14:43:20.272Z</time></trkpt><trkpt lat="43.7370641" lon="7.3596998"><ele>546.0</ele><time>2026-05-01T14:43:21.272Z</time></trkpt><trkpt lat="43.7371523" lon="7.3595256"><ele>546.0</ele><time>2026-05-01T14:43:22.272Z</time></trkpt><trkpt lat="43.7372151" lon="7.359328"><ele>546.0</ele><time>2026-05-01T14:43:23.272Z</time></trkpt><trkpt lat="43.7372614" lon="7.3591279"><ele>546.0</ele><time>2026-05-01T14:43:24.272Z</time></trkpt><trkpt lat="43.7372982" lon="7.3589269"><ele>545.3333333333334</ele><time>2026-05-01T14:43:25.272Z</time></trkpt><trkpt lat="43.7373212" lon="7.3587318"><ele>544.6666666666667</ele><time>2026-05-01T14:43:26.272Z</time></trkpt><trkpt lat="43.7373317" lon="7.3585155"><ele>544.0</ele><time>2026-05-01T14:43:27.272Z</time></trkpt><trkpt lat="43.7373242" lon="7.3582975"><ele>544.0</ele><time>2026-05-01T14:43:28.273Z</time></trkpt><trkpt lat="43.7373105" lon="7.3580879"><ele>544.0</ele><time>2026-05-01T14:43:29.272Z</time></trkpt><trkpt lat="43.7372917" lon="7.3578872"><ele>544.0</ele><time>2026-05-01T14:43:30.272Z</time></trkpt><trkpt lat="43.737254" lon="7.3576718"><ele>546.6666666666667</ele><time>2026-05-01T14:43:31.273Z</time></trkpt><trkpt lat="43.7371914" lon="7.3574693"><ele>549.3333333333334</ele><time>2026-05-01T14:43:32.273Z</time></trkpt><trkpt lat="43.7371236" lon="7.3572675"><ele>552.0</ele><time>2026-05-01T14:43:33.273Z</time></trkpt><trkpt lat="43.7370394" lon="7.3570702"><ele>548.0</ele><time>2026-05-01T14:43:34.272Z</time></trkpt><trkpt lat="43.7369511" lon="7.3568804"><ele>544.0</ele><time>2026-05-01T14:43:35.272Z</time></trkpt><trkpt lat="43.7368752" lon="7.3566725"><ele>540.0</ele><time>2026-05-01T14:43:36.272Z</time></trkpt><trkpt lat="43.7367056" lon="7.3563398"><ele>540.0</ele><time>2026-05-01T14:43:38.273Z</time></trkpt><trkpt lat="43.7366083" lon="7.3561948"><ele>540.0</ele><time>2026-05-01T14:43:39.272Z</time></trkpt><trkpt lat="43.7364893" lon="7.3560731"><ele>540.0</ele><time>2026-05-01T14:43:40.272Z</time></trkpt><trkpt lat="43.7363884" lon="7.3559531"><ele>540.0</ele><time>2026-05-01T14:43:41.272Z</time></trkpt><trkpt lat="43.7363154" lon="7.3558163"><ele>540.0</ele><time>2026-05-01T14:43:42.272Z</time></trkpt><trkpt lat="43.7362737" lon="7.3556666"><ele>540.0</ele><time>2026-05-01T14:43:43.272Z</time></trkpt><trkpt lat="43.7362652" lon="7.3554948"><ele>540.0</ele><time>2026-05-01T14:43:44.273Z</time></trkpt><trkpt lat="43.7362723" lon="7.3553027"><ele>540.0</ele><time>2026-05-01T14:43:45.272Z</time></trkpt><trkpt lat="43.7362873" lon="7.355077"><ele>539.3333333333334</ele><time>2026-05-01T14:43:46.273Z</time></trkpt><trkpt lat="43.7363083" lon="7.3548416"><ele>538.6666666666667</ele><time>2026-05-01T14:43:47.272Z</time></trkpt><trkpt lat="43.7363248" lon="7.354613"><ele>538.0</ele><time>2026-05-01T14:43:48.273Z</time></trkpt><trkpt lat="43.7363441" lon="7.354374"><ele>538.0</ele><time>2026-05-01T14:43:49.272Z</time></trkpt><trkpt lat="43.7363766" lon="7.354139"><ele>538.0</ele><time>2026-05-01T14:43:50.272Z</time></trkpt><trkpt lat="43.7364161" lon="7.3538844"><ele>538.0</ele><time>2026-05-01T14:43:51.272Z</time></trkpt><trkpt lat="43.736448" lon="7.3536542"><ele>537.0</ele><time>2026-05-01T14:43:52.272Z</time></trkpt><trkpt lat="43.7364937" lon="7.3534333"><ele>536.0</ele><time>2026-05-01T14:43:53.272Z</time></trkpt><trkpt lat="43.7365346" lon="7.3532241"><ele>535.0</ele><time>2026-05-01T14:43:54.272Z</time></trkpt><trkpt lat="43.7365817" lon="7.3530227"><ele>530.6666666666667</ele><time>2026-05-01T14:43:55.272Z</time></trkpt><trkpt lat="43.7366187" lon="7.3528253"><ele>526.3333333333334</ele><time>2026-05-01T14:43:56.272Z</time></trkpt><trkpt lat="43.7366538" lon="7.3526261"><ele>522.0</ele><time>2026-05-01T14:43:57.273Z</time></trkpt><trkpt lat="43.7367178" lon="7.3522696"><ele>520.6</ele><time>2026-05-01T14:43:59.273Z</time></trkpt><trkpt lat="43.7367505" lon="7.3521181"><ele>519.2</ele><time>2026-05-01T14:44:00.272Z</time></trkpt><trkpt lat="43.7367738" lon="7.3519891"><ele>517.8</ele><time>2026-05-01T14:44:01.272Z</time></trkpt><trkpt lat="43.7367907" lon="7.3518732"><ele>516.4</ele><time>2026-05-01T14:44:02.272Z</time></trkpt><trkpt lat="43.7368059" lon="7.3517534"><ele>515.0</ele><time>2026-05-01T14:44:03.272Z</time></trkpt><trkpt lat="43.7368313" lon="7.3516233"><ele>515.0</ele><time>2026-05-01T14:44:04.272Z</time></trkpt><trkpt lat="43.7368591" lon="7.3514868"><ele>515.0</ele><time>2026-05-01T14:44:05.272Z</time></trkpt><trkpt lat="43.7368774" lon="7.3513506"><ele>515.0</ele><time>2026-05-01T14:44:06.273Z</time></trkpt><trkpt lat="43.7368955" lon="7.3512164"><ele>515.0</ele><time>2026-05-01T14:44:07.272Z</time></trkpt><trkpt lat="43.736921" lon="7.3510919"><ele>515.0</ele><time>2026-05-01T14:44:08.273Z</time></trkpt><trkpt lat="43.7369462" lon="7.3509764"><ele>515.5</ele><time>2026-05-01T14:44:09.272Z</time></trkpt><trkpt lat="43.7369522" lon="7.3508614"><ele>516.0</ele><time>2026-05-01T14:44:10.272Z</time></trkpt><trkpt lat="43.7369425" lon="7.3507544"><ele>516.5</ele><time>2026-05-01T14:44:11.272Z</time></trkpt><trkpt lat="43.7369147" lon="7.3506574"><ele>517.0</ele><time>2026-05-01T14:44:12.272Z</time></trkpt><trkpt lat="43.7368535" lon="7.3505777"><ele>517.5</ele><time>2026-05-01T14:44:13.272Z</time></trkpt><trkpt lat="43.7367621" lon="7.3505098"><ele>518.0</ele><time>2026-05-01T14:44:14.272Z</time></trkpt><trkpt lat="43.7366583" lon="7.3504653"><ele>522.0</ele><time>2026-05-01T14:44:15.272Z</time></trkpt><trkpt lat="43.7365527" lon="7.3504364"><ele>526.0</ele><time>2026-05-01T14:44:16.272Z</time></trkpt><trkpt lat="43.7364493" lon="7.3504153"><ele>530.0</ele><time>2026-05-01T14:44:17.272Z</time></trkpt><trkpt lat="43.7363385" lon="7.3503897"><ele>534.0</ele><time>2026-05-01T14:44:18.272Z</time></trkpt><trkpt lat="43.7361286" lon="7.3503285"><ele>531.2</ele><time>2026-05-01T14:44:20.272Z</time></trkpt><trkpt lat="43.736022" lon="7.3502996"><ele>528.4</ele><time>2026-05-01T14:44:21.272Z</time></trkpt><trkpt lat="43.7359214" lon="7.3502701"><ele>525.6</ele><time>2026-05-01T14:44:22.272Z</time></trkpt><trkpt lat="43.7358262" lon="7.3502299"><ele>522.8</ele><time>2026-05-01T14:44:23.272Z</time></trkpt><trkpt lat="43.7357364" lon="7.3501615"><ele>520.0</ele><time>2026-05-01T14:44:24.272Z</time></trkpt><trkpt lat="43.7356585" lon="7.3500674"><ele>520.0</ele><time>2026-05-01T14:44:25.272Z</time></trkpt><trkpt lat="43.7355921" lon="7.3499484"><ele>520.0</ele><time>2026-05-01T14:44:26.272Z</time></trkpt><trkpt lat="43.7355326" lon="7.349822"><ele>520.0</ele><time>2026-05-01T14:44:27.272Z</time></trkpt><trkpt lat="43.735473" lon="7.3496959"><ele>520.0</ele><time>2026-05-01T14:44:28.273Z</time></trkpt><trkpt lat="43.7354085" lon="7.3495695"><ele>520.0</ele><time>2026-05-01T14:44:29.272Z</time></trkpt><trkpt lat="43.7353378" lon="7.3494572"><ele>518.75</ele><time>2026-05-01T14:44:30.272Z</time></trkpt><trkpt lat="43.7352594" lon="7.3493544"><ele>517.5</ele><time>2026-05-01T14:44:31.272Z</time></trkpt><trkpt lat="43.7351653" lon="7.3492593"><ele>516.25</ele><time>2026-05-01T14:44:32.272Z</time></trkpt><trkpt lat="43.7350662" lon="7.3491751"><ele>515.0</ele><time>2026-05-01T14:44:33.272Z</time></trkpt><trkpt lat="43.734968" lon="7.349097"><ele>515.0</ele><time>2026-05-01T14:44:34.273Z</time></trkpt><trkpt lat="43.7348771" lon="7.349018"><ele>515.0</ele><time>2026-05-01T14:44:35.272Z</time></trkpt><trkpt lat="43.7347969" lon="7.3489257"><ele>515.0</ele><time>2026-05-01T14:44:36.272Z</time></trkpt><trkpt lat="43.7347297" lon="7.3488086"><ele>515.0</ele><time>2026-05-01T14:44:37.272Z</time></trkpt><trkpt lat="43.7346756" lon="7.348668"><ele>515.0</ele><time>2026-05-01T14:44:38.272Z</time></trkpt><trkpt lat="43.7346309" lon="7.3485088"><ele>521.3333333333333</ele><time>2026-05-01T14:44:39.272Z</time></trkpt><trkpt lat="43.7345411" lon="7.3481517"><ele>527.6666666666666</ele><time>2026-05-01T14:44:41.272Z</time></trkpt><trkpt lat="43.7344846" lon="7.34796"><ele>534.0</ele><time>2026-05-01T14:44:42.272Z</time></trkpt><trkpt lat="43.7344312" lon="7.3477794"><ele>528.0</ele><time>2026-05-01T14:44:43.272Z</time></trkpt><trkpt lat="43.7343777" lon="7.3476059"><ele>522.0</ele><time>2026-05-01T14:44:44.272Z</time></trkpt><trkpt lat="43.7343307" lon="7.3474518"><ele>516.0</ele><time>2026-05-01T14:44:45.272Z</time></trkpt><trkpt lat="43.734283" lon="7.3473039"><ele>510.0</ele><time>2026-05-01T14:44:46.272Z</time></trkpt><trkpt lat="43.7342379" lon="7.3471664"><ele>510.0</ele><time>2026-05-01T14:44:47.272Z</time></trkpt><trkpt lat="43.7341929" lon="7.3470394"><ele>510.0</ele><time>2026-05-01T14:44:48.272Z</time></trkpt><trkpt lat="43.7341498" lon="7.3469097"><ele>510.0</ele><time>2026-05-01T14:44:49.272Z</time></trkpt><trkpt lat="43.734107" lon="7.3467873"><ele>510.0</ele><time>2026-05-01T14:44:50.272Z</time></trkpt><trkpt lat="43.7340683" lon="7.3466694"><ele>510.0</ele><time>2026-05-01T14:44:51.272Z</time></trkpt><trkpt lat="43.7340285" lon="7.3465526"><ele>510.0</ele><time>2026-05-01T14:44:52.272Z</time></trkpt><trkpt lat="43.7339853" lon="7.3464122"><ele>510.0</ele><time>2026-05-01T14:44:53.272Z</time></trkpt><trkpt lat="43.7339374" lon="7.3462613"><ele>510.0</ele><time>2026-05-01T14:44:54.272Z</time></trkpt><trkpt lat="43.73389" lon="7.3461036"><ele>510.0</ele><time>2026-05-01T14:44:55.272Z</time></trkpt><trkpt lat="43.7338332" lon="7.3459644"><ele>508.4</ele><time>2026-05-01T14:44:56.272Z</time></trkpt><trkpt lat="43.733759" lon="7.3458506"><ele>506.8</ele><time>2026-05-01T14:44:57.272Z</time></trkpt><trkpt lat="43.7336681" lon="7.3457643"><ele>505.20000000000005</ele><time>2026-05-01T14:44:58.272Z</time></trkpt><trkpt lat="43.7335616" lon="7.34571"><ele>503.6</ele><time>2026-05-01T14:44:59.272Z</time></trkpt><trkpt lat="43.7334539" lon="7.3457002"><ele>502.0</ele><time>2026-05-01T14:45:00.272Z</time></trkpt><trkpt lat="43.7332106" lon="7.3458351"><ele>502.0</ele><time>2026-05-01T14:45:02.272Z</time></trkpt><trkpt lat="43.7330813" lon="7.3459477"><ele>502.0</ele><time>2026-05-01T14:45:03.272Z</time></trkpt><trkpt lat="43.7329532" lon="7.3460456"><ele>502.0</ele><time>2026-05-01T14:45:04.272Z</time></trkpt><trkpt lat="43.7328353" lon="7.3461329"><ele>502.0</ele><time>2026-05-01T14:45:05.272Z</time></trkpt><trkpt lat="43.7327231" lon="7.3462042"><ele>501.40000000000003</ele><time>2026-05-01T14:45:06.272Z</time></trkpt><trkpt lat="43.7326132" lon="7.3462356"><ele>500.80000000000007</ele><time>2026-05-01T14:45:07.273Z</time></trkpt><trkpt lat="43.7325054" lon="7.3462245"><ele>500.2</ele><time>2026-05-01T14:45:08.272Z</time></trkpt><trkpt lat="43.7324158" lon="7.3461629"><ele>499.6</ele><time>2026-05-01T14:45:09.272Z</time></trkpt><trkpt lat="43.7323522" lon="7.3460542"><ele>499.0</ele><time>2026-05-01T14:45:10.272Z</time></trkpt><trkpt lat="43.7323155" lon="7.3459095"><ele>499.0</ele><time>2026-05-01T14:45:11.272Z</time></trkpt><trkpt lat="43.7322917" lon="7.3457382"><ele>499.0</ele><time>2026-05-01T14:45:12.272Z</time></trkpt><trkpt lat="43.7322695" lon="7.3455511"><ele>499.0</ele><time>2026-05-01T14:45:13.272Z</time></trkpt><trkpt lat="43.7322329" lon="7.3453524"><ele>499.0</ele><time>2026-05-01T14:45:14.272Z</time></trkpt><trkpt lat="43.7322062" lon="7.3451501"><ele>496.0</ele><time>2026-05-01T14:45:15.272Z</time></trkpt><trkpt lat="43.7321851" lon="7.3449358"><ele>493.0</ele><time>2026-05-01T14:45:16.272Z</time></trkpt><trkpt lat="43.7321628" lon="7.3447222"><ele>490.0</ele><time>2026-05-01T14:45:17.272Z</time></trkpt><trkpt lat="43.7321541" lon="7.3445136"><ele>488.75</ele><time>2026-05-01T14:45:18.273Z</time></trkpt><trkpt lat="43.7321655" lon="7.3443064"><ele>487.5</ele><time>2026-05-01T14:45:19.273Z</time></trkpt><trkpt lat="43.7321851" lon="7.3441124"><ele>486.25</ele><time>2026-05-01T14:45:20.273Z</time></trkpt><trkpt lat="43.7322134" lon="7.3439306"><ele>485.0</ele><time>2026-05-01T14:45:21.273Z</time></trkpt><trkpt lat="43.7322611" lon="7.3435823"><ele>484.75</ele><time>2026-05-01T14:45:23.272Z</time></trkpt><trkpt lat="43.7322597" lon="7.3434194"><ele>484.5</ele><time>2026-05-01T14:45:24.272Z</time></trkpt><trkpt lat="43.7322327" lon="7.3432568"><ele>484.25</ele><time>2026-05-01T14:45:25.272Z</time></trkpt><trkpt lat="43.7321697" lon="7.3431107"><ele>484.0</ele><time>2026-05-01T14:45:26.272Z</time></trkpt><trkpt lat="43.7320844" lon="7.3429571"><ele>482.0</ele><time>2026-05-01T14:45:27.273Z</time></trkpt><trkpt lat="43.7319886" lon="7.3428117"><ele>480.0</ele><time>2026-05-01T14:45:28.272Z</time></trkpt><trkpt lat="43.7319005" lon="7.3426638"><ele>478.0</ele><time>2026-05-01T14:45:29.272Z</time></trkpt><trkpt lat="43.7318157" lon="7.342518"><ele>476.0</ele><time>2026-05-01T14:45:30.272Z</time></trkpt><trkpt lat="43.7317314" lon="7.3423859"><ele>479.4</ele><time>2026-05-01T14:45:31.272Z</time></trkpt><trkpt lat="43.7316484" lon="7.3422633"><ele>482.8</ele><time>2026-05-01T14:45:32.272Z</time></trkpt><trkpt lat="43.7315701" lon="7.3421427"><ele>486.19999999999993</ele><time>2026-05-01T14:45:33.272Z</time></trkpt><trkpt lat="43.7314994" lon="7.3420306"><ele>489.59999999999997</ele><time>2026-05-01T14:45:34.272Z</time></trkpt><trkpt lat="43.731427" lon="7.3419287"><ele>493.0</ele><time>2026-05-01T14:45:35.272Z</time></trkpt><trkpt lat="43.7313507" lon="7.3418424"><ele>493.0</ele><time>2026-05-01T14:45:36.272Z</time></trkpt><trkpt lat="43.731277" lon="7.3417424"><ele>492.99999999999994</ele><time>2026-05-01T14:45:37.272Z</time></trkpt><trkpt lat="43.7311997" lon="7.3416521"><ele>492.99999999999994</ele><time>2026-05-01T14:45:38.273Z</time></trkpt><trkpt lat="43.7311104" lon="7.3415894"><ele>493.0</ele><time>2026-05-01T14:45:39.273Z</time></trkpt><trkpt lat="43.7310087" lon="7.3415692"><ele>493.0</ele><time>2026-05-01T14:45:40.273Z</time></trkpt><trkpt lat="43.7308928" lon="7.3415827"><ele>496.0</ele><time>2026-05-01T14:45:41.272Z</time></trkpt><trkpt lat="43.7307845" lon="7.3416371"><ele>499.0</ele><time>2026-05-01T14:45:42.272Z</time></trkpt><trkpt lat="43.7305928" lon="7.3418347"><ele>502.0</ele><time>2026-05-01T14:45:44.272Z</time></trkpt><trkpt lat="43.7305137" lon="7.3419694"><ele>502.0</ele><time>2026-05-01T14:45:45.273Z</time></trkpt><trkpt lat="43.730443" lon="7.3421059"><ele>502.0</ele><time>2026-05-01T14:45:46.272Z</time></trkpt><trkpt lat="43.7303768" lon="7.342235"><ele>502.0</ele><time>2026-05-01T14:45:47.272Z</time></trkpt><trkpt lat="43.7303057" lon="7.3423569"><ele>502.0</ele><time>2026-05-01T14:45:48.272Z</time></trkpt><trkpt lat="43.7302258" lon="7.3424769"><ele>502.20000000000005</ele><time>2026-05-01T14:45:49.272Z</time></trkpt><trkpt lat="43.730143" lon="7.3425719"><ele>502.40000000000003</ele><time>2026-05-01T14:45:50.272Z</time></trkpt><trkpt lat="43.7300532" lon="7.342652"><ele>502.59999999999997</ele><time>2026-05-01T14:45:51.272Z</time></trkpt><trkpt lat="43.7299619" lon="7.3427183"><ele>502.79999999999995</ele><time>2026-05-01T14:45:52.272Z</time></trkpt><trkpt lat="43.7298703" lon="7.3427779"><ele>503.0</ele><time>2026-05-01T14:45:53.272Z</time></trkpt><trkpt lat="43.7297709" lon="7.3428273"><ele>503.0</ele><time>2026-05-01T14:45:54.272Z</time></trkpt><trkpt lat="43.7296599" lon="7.3428598"><ele>503.0</ele><time>2026-05-01T14:45:55.272Z</time></trkpt><trkpt lat="43.729543" lon="7.3428847"><ele>503.0</ele><time>2026-05-01T14:45:56.272Z</time></trkpt><trkpt lat="43.7294142" lon="7.3429042"><ele>503.0</ele><time>2026-05-01T14:45:57.272Z</time></trkpt><trkpt lat="43.7292894" lon="7.342912"><ele>499.75</ele><time>2026-05-01T14:45:58.272Z</time></trkpt><trkpt lat="43.7291517" lon="7.3429311"><ele>496.5</ele><time>2026-05-01T14:45:59.272Z</time></trkpt><trkpt lat="43.729009" lon="7.3429815"><ele>493.25</ele><time>2026-05-01T14:46:00.273Z</time></trkpt><trkpt lat="43.7288548" lon="7.3430509"><ele>490.0</ele><time>2026-05-01T14:46:01.272Z</time></trkpt><trkpt lat="43.7287008" lon="7.3431385"><ele>498.0</ele><time>2026-05-01T14:46:02.273Z</time></trkpt><trkpt lat="43.7285534" lon="7.3432404"><ele>506.0</ele><time>2026-05-01T14:46:03.272Z</time></trkpt><trkpt lat="43.7282812" lon="7.3434237"><ele>506.0</ele><time>2026-05-01T14:46:05.272Z</time></trkpt><trkpt lat="43.7281545" lon="7.3435047"><ele>506.0</ele><time>2026-05-01T14:46:06.273Z</time></trkpt><trkpt lat="43.7280309" lon="7.3435656"><ele>506.0</ele><time>2026-05-01T14:46:07.272Z</time></trkpt><trkpt lat="43.7279084" lon="7.3436069"><ele>506.0</ele><time>2026-05-01T14:46:08.272Z</time></trkpt><trkpt lat="43.7277825" lon="7.3436329"><ele>510.3333333333333</ele><time>2026-05-01T14:46:09.272Z</time></trkpt><trkpt lat="43.7276296" lon="7.343652"><ele>514.6666666666666</ele><time>2026-05-01T14:46:10.272Z</time></trkpt><trkpt lat="43.7274509" lon="7.3436512"><ele>519.0</ele><time>2026-05-01T14:46:11.273Z</time></trkpt><trkpt lat="43.7272539" lon="7.3436312"><ele>519.0</ele><time>2026-05-01T14:46:12.272Z</time></trkpt><trkpt lat="43.7270731" lon="7.3436036"><ele>519.0</ele><time>2026-05-01T14:46:13.272Z</time></trkpt><trkpt lat="43.7269031" lon="7.343586"><ele>519.0</ele><time>2026-05-01T14:46:14.272Z</time></trkpt><trkpt lat="43.7267463" lon="7.3435818"><ele>517.5</ele><time>2026-05-01T14:46:15.272Z</time></trkpt><trkpt lat="43.7266054" lon="7.3435907"><ele>516.0</ele><time>2026-05-01T14:46:16.273Z</time></trkpt><trkpt lat="43.726486" lon="7.3436"><ele>514.5</ele><time>2026-05-01T14:46:17.272Z</time></trkpt><trkpt lat="43.7263825" lon="7.3435943"><ele>513.0</ele><time>2026-05-01T14:46:18.272Z</time></trkpt><trkpt lat="43.7262991" lon="7.3435451"><ele>513.0</ele><time>2026-05-01T14:46:19.272Z</time></trkpt><trkpt lat="43.7262292" lon="7.3434572"><ele>513.0</ele><time>2026-05-01T14:46:20.272Z</time></trkpt><trkpt lat="43.7261715" lon="7.3433417"><ele>513.0</ele><time>2026-05-01T14:46:21.272Z</time></trkpt><trkpt lat="43.7261325" lon="7.3431741"><ele>513.0</ele><time>2026-05-01T14:46:22.272Z</time></trkpt><trkpt lat="43.7261091" lon="7.3429827"><ele>515.6666666666666</ele><time>2026-05-01T14:46:23.272Z</time></trkpt><trkpt lat="43.7260896" lon="7.3428132"><ele>518.3333333333333</ele><time>2026-05-01T14:46:24.272Z</time></trkpt><trkpt lat="43.7261081" lon="7.3424704"><ele>521.0</ele><time>2026-05-01T14:46:26.272Z</time></trkpt><trkpt lat="43.7261656" lon="7.3422895"><ele>518.3333333333333</ele><time>2026-05-01T14:46:27.273Z</time></trkpt><trkpt lat="43.7262391" lon="7.3421064"><ele>515.6666666666666</ele><time>2026-05-01T14:46:28.272Z</time></trkpt><trkpt lat="43.7263133" lon="7.3419078"><ele>513.0</ele><time>2026-05-01T14:46:29.272Z</time></trkpt><trkpt lat="43.726389" lon="7.341687"><ele>513.0</ele><time>2026-05-01T14:46:30.272Z</time></trkpt><trkpt lat="43.7264698" lon="7.3414725"><ele>513.0</ele><time>2026-05-01T14:46:31.272Z</time></trkpt><trkpt lat="43.726543" lon="7.3412472"><ele>513.0</ele><time>2026-05-01T14:46:32.272Z</time></trkpt><trkpt lat="43.7266163" lon="7.3410236"><ele>509.33333333333337</ele><time>2026-05-01T14:46:33.273Z</time></trkpt><trkpt lat="43.7266895" lon="7.3408105"><ele>505.6666666666667</ele><time>2026-05-01T14:46:34.272Z</time></trkpt><trkpt lat="43.726761" lon="7.3406098"><ele>502.0</ele><time>2026-05-01T14:46:35.273Z</time></trkpt><trkpt lat="43.726827" lon="7.3404183"><ele>500.25</ele><time>2026-05-01T14:46:36.272Z</time></trkpt><trkpt lat="43.7268917" lon="7.3402407"><ele>498.5</ele><time>2026-05-01T14:46:37.272Z</time></trkpt><trkpt lat="43.7269545" lon="7.3400729"><ele>496.75</ele><time>2026-05-01T14:46:38.272Z</time></trkpt><trkpt lat="43.727004" lon="7.3399122"><ele>495.0</ele><time>2026-05-01T14:46:39.272Z</time></trkpt><trkpt lat="43.7270327" lon="7.3397649"><ele>496.8</ele><time>2026-05-01T14:46:40.272Z</time></trkpt><trkpt lat="43.7270288" lon="7.3396197"><ele>498.6</ele><time>2026-05-01T14:46:41.273Z</time></trkpt><trkpt lat="43.7269895" lon="7.339486"><ele>500.4</ele><time>2026-05-01T14:46:42.272Z</time></trkpt><trkpt lat="43.7269211" lon="7.3393649"><ele>502.2</ele><time>2026-05-01T14:46:43.272Z</time></trkpt><trkpt lat="43.7268246" lon="7.3392643"><ele>504.0</ele><time>2026-05-01T14:46:44.273Z</time></trkpt><trkpt lat="43.7267054" lon="7.339217"><ele>504.0</ele><time>2026-05-01T14:46:45.272Z</time></trkpt><trkpt lat="43.7264805" lon="7.3391201"><ele>504.0</ele><time>2026-05-01T14:46:47.273Z</time></trkpt><trkpt lat="43.726399" lon="7.3390106"><ele>504.0</ele><time>2026-05-01T14:46:48.272Z</time></trkpt><trkpt lat="43.7263438" lon="7.3388581"><ele>507.0</ele><time>2026-05-01T14:46:49.272Z</time></trkpt><trkpt lat="43.7263065" lon="7.3386854"><ele>510.0</ele><time>2026-05-01T14:46:50.272Z</time></trkpt><trkpt lat="43.7262966" lon="7.3384764"><ele>513.0</ele><time>2026-05-01T14:46:51.272Z</time></trkpt><trkpt lat="43.7262631" lon="7.3382568"><ele>516.0</ele><time>2026-05-01T14:46:52.272Z</time></trkpt><trkpt lat="43.726232" lon="7.3380197"><ele>518.3333333333334</ele><time>2026-05-01T14:46:53.272Z</time></trkpt><trkpt lat="43.7261875" lon="7.3377926"><ele>520.6666666666667</ele><time>2026-05-01T14:46:54.273Z</time></trkpt><trkpt lat="43.7261365" lon="7.3375659"><ele>523.0</ele><time>2026-05-01T14:46:55.272Z</time></trkpt><trkpt lat="43.7260806" lon="7.3373392"><ele>514.6666666666667</ele><time>2026-05-01T14:46:56.272Z</time></trkpt><trkpt lat="43.7260236" lon="7.3371128"><ele>506.33333333333337</ele><time>2026-05-01T14:46:57.273Z</time></trkpt><trkpt lat="43.7259567" lon="7.3368893"><ele>498.0</ele><time>2026-05-01T14:46:58.272Z</time></trkpt><trkpt lat="43.7258851" lon="7.3366825"><ele>498.0</ele><time>2026-05-01T14:46:59.272Z</time></trkpt><trkpt lat="43.7258078" lon="7.3364973"><ele>498.0</ele><time>2026-05-01T14:47:00.273Z</time></trkpt><trkpt lat="43.7257281" lon="7.3363229"><ele>498.0</ele><time>2026-05-01T14:47:01.272Z</time></trkpt><trkpt lat="43.725652" lon="7.3361632"><ele>498.0</ele><time>2026-05-01T14:47:02.273Z</time></trkpt><trkpt lat="43.7255911" lon="7.3360259"><ele>500.25</ele><time>2026-05-01T14:47:03.273Z</time></trkpt><trkpt lat="43.7255244" lon="7.3359155"><ele>502.5</ele><time>2026-05-01T14:47:04.272Z</time></trkpt><trkpt lat="43.7254448" lon="7.3358444"><ele>504.75</ele><time>2026-05-01T14:47:05.272Z</time></trkpt><trkpt lat="43.725349" lon="7.3358331"><ele>507.0</ele><time>2026-05-01T14:47:06.272Z</time></trkpt><trkpt lat="43.7251692" lon="7.3359592"><ele>507.0</ele><time>2026-05-01T14:47:08.273Z</time></trkpt><trkpt lat="43.7250796" lon="7.3360862"><ele>507.0</ele><time>2026-05-01T14:47:09.272Z</time></trkpt><trkpt lat="43.724997" lon="7.3362638"><ele>507.0</ele><time>2026-05-01T14:47:10.272Z</time></trkpt><trkpt lat="43.7249186" lon="7.3364678"><ele>507.0</ele><time>2026-05-01T14:47:11.272Z</time></trkpt><trkpt lat="43.7248415" lon="7.3366493"><ele>502.75</ele><time>2026-05-01T14:47:12.272Z</time></trkpt><trkpt lat="43.7247596" lon="7.3368038"><ele>498.5</ele><time>2026-05-01T14:47:13.273Z</time></trkpt><trkpt lat="43.7246595" lon="7.3369137"><ele>494.25</ele><time>2026-05-01T14:47:14.273Z</time></trkpt><trkpt lat="43.7245443" lon="7.3369785"><ele>490.0</ele><time>2026-05-01T14:47:15.272Z</time></trkpt><trkpt lat="43.7244275" lon="7.3369773"><ele>492.25</ele><time>2026-05-01T14:47:16.273Z</time></trkpt><trkpt lat="43.724303" lon="7.3369244"><ele>494.5</ele><time>2026-05-01T14:47:17.272Z</time></trkpt><trkpt lat="43.7241867" lon="7.3368332"><ele>496.75</ele><time>2026-05-01T14:47:18.272Z</time></trkpt><trkpt lat="43.7240623" lon="7.3367345"><ele>499.0</ele><time>2026-05-01T14:47:19.272Z</time></trkpt><trkpt lat="43.723935" lon="7.3366277"><ele>499.0</ele><time>2026-05-01T14:47:20.273Z</time></trkpt><trkpt lat="43.7238031" lon="7.3365152"><ele>499.0</ele><time>2026-05-01T14:47:21.272Z</time></trkpt><trkpt lat="43.7236761" lon="7.3364178"><ele>499.0</ele><time>2026-05-01T14:47:22.272Z</time></trkpt><trkpt lat="43.7235542" lon="7.336332"><ele>499.0</ele><time>2026-05-01T14:47:23.272Z</time></trkpt><trkpt lat="43.7234423" lon="7.3362473"><ele>498.75</ele><time>2026-05-01T14:47:24.272Z</time></trkpt><trkpt lat="43.72335" lon="7.3361561"><ele>498.5</ele><time>2026-05-01T14:47:25.272Z</time></trkpt><trkpt lat="43.7232776" lon="7.3360441"><ele>498.25</ele><time>2026-05-01T14:47:26.273Z</time></trkpt><trkpt lat="43.723216" lon="7.335904"><ele>498.0</ele><time>2026-05-01T14:47:27.272Z</time></trkpt><trkpt lat="43.7231076" lon="7.3355475"><ele>498.0</ele><time>2026-05-01T14:47:29.272Z</time></trkpt><trkpt lat="43.7230483" lon="7.3353505"><ele>498.0</ele><time>2026-05-01T14:47:30.272Z</time></trkpt><trkpt lat="43.722988" lon="7.335154"><ele>498.0</ele><time>2026-05-01T14:47:31.272Z</time></trkpt><trkpt lat="43.722928" lon="7.3349633"><ele>498.0</ele><time>2026-05-01T14:47:32.272Z</time></trkpt><trkpt lat="43.7228727" lon="7.3347817"><ele>498.0</ele><time>2026-05-01T14:47:33.272Z</time></trkpt><trkpt lat="43.7228165" lon="7.3346092"><ele>498.0</ele><time>2026-05-01T14:47:34.272Z</time></trkpt><trkpt lat="43.7227662" lon="7.3344452"><ele>498.0</ele><time>2026-05-01T14:47:35.272Z</time></trkpt><trkpt lat="43.7227095" lon="7.334304"><ele>494.59999999999997</ele><time>2026-05-01T14:47:36.273Z</time></trkpt><trkpt lat="43.7226443" lon="7.3341787"><ele>491.19999999999993</ele><time>2026-05-01T14:47:37.272Z</time></trkpt><trkpt lat="43.7225494" lon="7.3341018"><ele>487.8</ele><time>2026-05-01T14:47:38.272Z</time></trkpt><trkpt lat="43.722449" lon="7.3340769"><ele>484.4</ele><time>2026-05-01T14:47:39.272Z</time></trkpt><trkpt lat="43.7223397" lon="7.3341239"><ele>481.0</ele><time>2026-05-01T14:47:40.272Z</time></trkpt><trkpt lat="43.7222389" lon="7.3342218"><ele>481.0</ele><time>2026-05-01T14:47:41.272Z</time></trkpt><trkpt lat="43.7221408" lon="7.3343456"><ele>481.0</ele><time>2026-05-01T14:47:42.272Z</time></trkpt><trkpt lat="43.722036" lon="7.3344602"><ele>481.0</ele><time>2026-05-01T14:47:43.272Z</time></trkpt><trkpt lat="43.7219229" lon="7.3345352"><ele>481.0</ele><time>2026-05-01T14:47:44.272Z</time></trkpt><trkpt lat="43.7218074" lon="7.3345686"><ele>478.25</ele><time>2026-05-01T14:47:45.272Z</time></trkpt><trkpt lat="43.721698" lon="7.3345476"><ele>475.5</ele><time>2026-05-01T14:47:46.272Z</time></trkpt><trkpt lat="43.721589" lon="7.3344888"><ele>472.75</ele><time>2026-05-01T14:47:47.272Z</time></trkpt><trkpt lat="43.7214982" lon="7.3343849"><ele>470.0</ele><time>2026-05-01T14:47:48.272Z</time></trkpt><trkpt lat="43.7213427" lon="7.3340749"><ele>470.0</ele><time>2026-05-01T14:47:50.272Z</time></trkpt><trkpt lat="43.7212517" lon="7.3339021"><ele>470.0</ele><time>2026-05-01T14:47:51.272Z</time></trkpt><trkpt lat="43.7211657" lon="7.333727"><ele>470.0</ele><time>2026-05-01T14:47:52.272Z</time></trkpt><trkpt lat="43.7210869" lon="7.3335499"><ele>471.0</ele><time>2026-05-01T14:47:53.272Z</time></trkpt><trkpt lat="43.7210102" lon="7.3333587"><ele>472.0</ele><time>2026-05-01T14:47:54.273Z</time></trkpt><trkpt lat="43.720924" lon="7.33316"><ele>473.0</ele><time>2026-05-01T14:47:55.272Z</time></trkpt><trkpt lat="43.7208196" lon="7.3329985"><ele>473.0</ele><time>2026-05-01T14:47:56.272Z</time></trkpt><trkpt lat="43.7207042" lon="7.3328562"><ele>473.0</ele><time>2026-05-01T14:47:57.272Z</time></trkpt><trkpt lat="43.720589" lon="7.332716"><ele>473.0</ele><time>2026-05-01T14:47:58.272Z</time></trkpt><trkpt lat="43.7204798" lon="7.332572"><ele>473.0</ele><time>2026-05-01T14:47:59.273Z</time></trkpt><trkpt lat="43.7203764" lon="7.3324224"><ele>473.0</ele><time>2026-05-01T14:48:00.273Z</time></trkpt><trkpt lat="43.7202839" lon="7.3322752"><ele>473.0</ele><time>2026-05-01T14:48:01.272Z</time></trkpt><trkpt lat="43.720199" lon="7.3321202"><ele>473.0</ele><time>2026-05-01T14:48:02.272Z</time></trkpt><trkpt lat="43.7201167" lon="7.3319647"><ele>467.25</ele><time>2026-05-01T14:48:03.272Z</time></trkpt><trkpt lat="43.7200349" lon="7.3318162"><ele>461.5</ele><time>2026-05-01T14:48:04.272Z</time></trkpt><trkpt lat="43.719961" lon="7.3316712"><ele>455.75</ele><time>2026-05-01T14:48:05.272Z</time></trkpt><trkpt lat="43.7198984" lon="7.3315264"><ele>450.0</ele><time>2026-05-01T14:48:06.272Z</time></trkpt><trkpt lat="43.7198601" lon="7.3313566"><ele>450.0</ele><time>2026-05-01T14:48:07.272Z</time></trkpt><trkpt lat="43.7198378" lon="7.3311834"><ele>450.0</ele><time>2026-05-01T14:48:08.272Z</time></trkpt><trkpt lat="43.7198334" lon="7.3310073"><ele>450.0</ele><time>2026-05-01T14:48:09.272Z</time></trkpt><trkpt lat="43.7198466" lon="7.3306206"><ele>445.66666666666663</ele><time>2026-05-01T14:48:11.272Z</time></trkpt><trkpt lat="43.7198744" lon="7.3304199"><ele>441.3333333333333</ele><time>2026-05-01T14:48:12.272Z</time></trkpt><trkpt lat="43.7199205" lon="7.3302202"><ele>437.0</ele><time>2026-05-01T14:48:13.272Z</time></trkpt><trkpt lat="43.7199901" lon="7.3300243"><ele>437.0</ele><time>2026-05-01T14:48:14.272Z</time></trkpt><trkpt lat="43.7200602" lon="7.3298399"><ele>437.0</ele><time>2026-05-01T14:48:15.272Z</time></trkpt><trkpt lat="43.7201252" lon="7.3296656"><ele>437.0</ele><time>2026-05-01T14:48:16.273Z</time></trkpt><trkpt lat="43.7201688" lon="7.3295005"><ele>437.0</ele><time>2026-05-01T14:48:17.273Z</time></trkpt><trkpt lat="43.7201836" lon="7.3293647"><ele>436.5</ele><time>2026-05-01T14:48:18.272Z</time></trkpt><trkpt lat="43.7201592" lon="7.3292358"><ele>436.0</ele><time>2026-05-01T14:48:19.272Z</time></trkpt><trkpt lat="43.7200949" lon="7.3291243"><ele>435.5</ele><time>2026-05-01T14:48:20.272Z</time></trkpt><trkpt lat="43.7199899" lon="7.3290244"><ele>435.0</ele><time>2026-05-01T14:48:21.273Z</time></trkpt><trkpt lat="43.7198605" lon="7.3289441"><ele>432.25</ele><time>2026-05-01T14:48:22.272Z</time></trkpt><trkpt lat="43.7197341" lon="7.3288652"><ele>429.5</ele><time>2026-05-01T14:48:23.272Z</time></trkpt><trkpt lat="43.7196153" lon="7.3287807"><ele>426.75</ele><time>2026-05-01T14:48:24.272Z</time></trkpt><trkpt lat="43.7194998" lon="7.3286908"><ele>424.0</ele><time>2026-05-01T14:48:25.272Z</time></trkpt><trkpt lat="43.71939" lon="7.3286024"><ele>424.0</ele><time>2026-05-01T14:48:26.272Z</time></trkpt><trkpt lat="43.7192988" lon="7.3284913"><ele>424.0</ele><time>2026-05-01T14:48:27.273Z</time></trkpt><trkpt lat="43.7192285" lon="7.328363"><ele>424.0</ele><time>2026-05-01T14:48:28.272Z</time></trkpt><trkpt lat="43.7191869" lon="7.3282181"><ele>424.0</ele><time>2026-05-01T14:48:29.272Z</time></trkpt><trkpt lat="43.7191575" lon="7.3280657"><ele>426.0</ele><time>2026-05-01T14:48:30.272Z</time></trkpt><trkpt lat="43.7190917" lon="7.3277635"><ele>428.0</ele><time>2026-05-01T14:48:32.272Z</time></trkpt><trkpt lat="43.719056" lon="7.3276232"><ele>430.0</ele><time>2026-05-01T14:48:33.272Z</time></trkpt><trkpt lat="43.719012" lon="7.3274768"><ele>430.0</ele><time>2026-05-01T14:48:34.272Z</time></trkpt><trkpt lat="43.7189681" lon="7.3273394"><ele>430.0</ele><time>2026-05-01T14:48:35.272Z</time></trkpt><trkpt lat="43.7189238" lon="7.3272285"><ele>430.0</ele><time>2026-05-01T14:48:36.272Z</time></trkpt><trkpt lat="43.7188588" lon="7.3271386"><ele>430.0</ele><time>2026-05-01T14:48:37.272Z</time></trkpt><trkpt lat="43.71878" lon="7.3270704"><ele>430.0</ele><time>2026-05-01T14:48:38.272Z</time></trkpt><trkpt lat="43.7186882" lon="7.327015"><ele>427.8</ele><time>2026-05-01T14:48:39.272Z</time></trkpt><trkpt lat="43.7185957" lon="7.3269535"><ele>425.6</ele><time>2026-05-01T14:48:40.272Z</time></trkpt><trkpt lat="43.7185143" lon="7.3268932"><ele>423.4</ele><time>2026-05-01T14:48:41.272Z</time></trkpt><trkpt lat="43.7184286" lon="7.3268532"><ele>421.2</ele><time>2026-05-01T14:48:42.272Z</time></trkpt><trkpt lat="43.7183494" lon="7.3268046"><ele>419.0</ele><time>2026-05-01T14:48:43.273Z</time></trkpt><trkpt lat="43.7182728" lon="7.3267474"><ele>418.99999999999994</ele><time>2026-05-01T14:48:44.272Z</time></trkpt><trkpt lat="43.7182054" lon="7.3266837"><ele>419.0</ele><time>2026-05-01T14:48:45.273Z</time></trkpt><trkpt lat="43.7181423" lon="7.3266126"><ele>419.0</ele><time>2026-05-01T14:48:46.272Z</time></trkpt><trkpt lat="43.7180827" lon="7.3265417"><ele>419.0</ele><time>2026-05-01T14:48:47.272Z</time></trkpt><trkpt lat="43.7180237" lon="7.3264501"><ele>418.99999999999994</ele><time>2026-05-01T14:48:48.272Z</time></trkpt><trkpt lat="43.7179547" lon="7.3263463"><ele>419.0</ele><time>2026-05-01T14:48:49.272Z</time></trkpt><trkpt lat="43.7178708" lon="7.3262059"><ele>424.0</ele><time>2026-05-01T14:48:50.272Z</time></trkpt><trkpt lat="43.7177739" lon="7.3260213"><ele>429.0</ele><time>2026-05-01T14:48:51.272Z</time></trkpt><trkpt lat="43.7175803" lon="7.3255791"><ele>425.75</ele><time>2026-05-01T14:48:53.273Z</time></trkpt><trkpt lat="43.7174866" lon="7.3253951"><ele>422.5</ele><time>2026-05-01T14:48:54.272Z</time></trkpt><trkpt lat="43.7174024" lon="7.325235"><ele>419.25</ele><time>2026-05-01T14:48:55.272Z</time></trkpt><trkpt lat="43.7173274" lon="7.3250875"><ele>416.0</ele><time>2026-05-01T14:48:56.272Z</time></trkpt><trkpt lat="43.7172654" lon="7.3249536"><ele>416.0</ele><time>2026-05-01T14:48:57.272Z</time></trkpt><trkpt lat="43.7172118" lon="7.3248222"><ele>416.0</ele><time>2026-05-01T14:48:58.273Z</time></trkpt><trkpt lat="43.7171652" lon="7.3246823"><ele>416.0</ele><time>2026-05-01T14:48:59.272Z</time></trkpt><trkpt lat="43.7171265" lon="7.3245435"><ele>416.0</ele><time>2026-05-01T14:49:00.272Z</time></trkpt><trkpt lat="43.7171013" lon="7.3243942"><ele>416.0</ele><time>2026-05-01T14:49:01.272Z</time></trkpt><trkpt lat="43.7170685" lon="7.3242344"><ele>417.75</ele><time>2026-05-01T14:49:02.272Z</time></trkpt><trkpt lat="43.7170325" lon="7.3240562"><ele>419.5</ele><time>2026-05-01T14:49:03.272Z</time></trkpt><trkpt lat="43.7169955" lon="7.3238926"><ele>421.25</ele><time>2026-05-01T14:49:04.272Z</time></trkpt><trkpt lat="43.7169678" lon="7.3237279"><ele>423.0</ele><time>2026-05-01T14:49:05.272Z</time></trkpt><trkpt lat="43.7169398" lon="7.3235625"><ele>423.0</ele><time>2026-05-01T14:49:06.272Z</time></trkpt><trkpt lat="43.716907" lon="7.3234089"><ele>423.0</ele><time>2026-05-01T14:49:07.272Z</time></trkpt><trkpt lat="43.7168777" lon="7.3232517"><ele>423.0</ele><time>2026-05-01T14:49:08.272Z</time></trkpt><trkpt lat="43.7168566" lon="7.3230894"><ele>423.0</ele><time>2026-05-01T14:49:09.272Z</time></trkpt><trkpt lat="43.7168242" lon="7.3229367"><ele>416.0</ele><time>2026-05-01T14:49:10.272Z</time></trkpt><trkpt lat="43.7167908" lon="7.3227866"><ele>409.0</ele><time>2026-05-01T14:49:11.273Z</time></trkpt><trkpt lat="43.7167656" lon="7.3226322"><ele>402.0</ele><time>2026-05-01T14:49:12.272Z</time></trkpt><trkpt lat="43.7167226" lon="7.3223521"><ele>395.0</ele><time>2026-05-01T14:49:14.272Z</time></trkpt><trkpt lat="43.7166979" lon="7.3222106"><ele>394.2</ele><time>2026-05-01T14:49:15.272Z</time></trkpt><trkpt lat="43.7166744" lon="7.3220631"><ele>393.4</ele><time>2026-05-01T14:49:16.272Z</time></trkpt><trkpt lat="43.7166482" lon="7.321918"><ele>392.6</ele><time>2026-05-01T14:49:17.272Z</time></trkpt><trkpt lat="43.7166242" lon="7.3217774"><ele>391.8</ele><time>2026-05-01T14:49:18.272Z</time></trkpt><trkpt lat="43.7166023" lon="7.3216322"><ele>391.0</ele><time>2026-05-01T14:49:19.272Z</time></trkpt><trkpt lat="43.7165836" lon="7.3214951"><ele>389.20000000000005</ele><time>2026-05-01T14:49:20.272Z</time></trkpt><trkpt lat="43.7165742" lon="7.321361"><ele>387.40000000000003</ele><time>2026-05-01T14:49:21.272Z</time></trkpt><trkpt lat="43.716583" lon="7.3212227"><ele>385.6</ele><time>2026-05-01T14:49:22.273Z</time></trkpt><trkpt lat="43.7166121" lon="7.3210837"><ele>383.8</ele><time>2026-05-01T14:49:23.272Z</time></trkpt><trkpt lat="43.716662" lon="7.3209257"><ele>382.0</ele><time>2026-05-01T14:49:24.272Z</time></trkpt><trkpt lat="43.7167155" lon="7.3207482"><ele>378.66666666666663</ele><time>2026-05-01T14:49:25.272Z</time></trkpt><trkpt lat="43.716757" lon="7.3205509"><ele>375.3333333333333</ele><time>2026-05-01T14:49:26.273Z</time></trkpt><trkpt lat="43.7167826" lon="7.3203435"><ele>372.0</ele><time>2026-05-01T14:49:27.272Z</time></trkpt><trkpt lat="43.7168006" lon="7.3201268"><ele>372.0</ele><time>2026-05-01T14:49:28.272Z</time></trkpt><trkpt lat="43.7168191" lon="7.3198998"><ele>372.0</ele><time>2026-05-01T14:49:29.273Z</time></trkpt><trkpt lat="43.7168296" lon="7.319664"><ele>372.0</ele><time>2026-05-01T14:49:30.272Z</time></trkpt><trkpt lat="43.7168257" lon="7.3194192"><ele>370.6666666666667</ele><time>2026-05-01T14:49:31.272Z</time></trkpt><trkpt lat="43.7168261" lon="7.3191721"><ele>369.33333333333337</ele><time>2026-05-01T14:49:32.273Z</time></trkpt><trkpt lat="43.716835" lon="7.3189307"><ele>368.0</ele><time>2026-05-01T14:49:33.272Z</time></trkpt><trkpt lat="43.7168669" lon="7.3184697"><ele>365.33333333333337</ele><time>2026-05-01T14:49:35.272Z</time></trkpt><trkpt lat="43.716882" lon="7.3182467"><ele>362.6666666666667</ele><time>2026-05-01T14:49:36.272Z</time></trkpt><trkpt lat="43.7169036" lon="7.318035"><ele>360.0</ele><time>2026-05-01T14:49:37.272Z</time></trkpt><trkpt lat="43.716913" lon="7.3178225"><ele>367.25</ele><time>2026-05-01T14:49:38.272Z</time></trkpt><trkpt lat="43.7169289" lon="7.3176181"><ele>374.5</ele><time>2026-05-01T14:49:39.273Z</time></trkpt><trkpt lat="43.7169397" lon="7.3174127"><ele>381.75</ele><time>2026-05-01T14:49:40.272Z</time></trkpt><trkpt lat="43.7169639" lon="7.3172081"><ele>389.0</ele><time>2026-05-01T14:49:41.272Z</time></trkpt><trkpt lat="43.7169771" lon="7.3170005"><ele>389.0</ele><time>2026-05-01T14:49:42.272Z</time></trkpt><trkpt lat="43.7169876" lon="7.3167966"><ele>389.0</ele><time>2026-05-01T14:49:43.272Z</time></trkpt><trkpt lat="43.7169945" lon="7.3165927"><ele>389.0</ele><time>2026-05-01T14:49:44.273Z</time></trkpt><trkpt lat="43.7169953" lon="7.3163731"><ele>386.66666666666663</ele><time>2026-05-01T14:49:45.272Z</time></trkpt><trkpt lat="43.7169872" lon="7.316149"><ele>384.3333333333333</ele><time>2026-05-01T14:49:46.272Z</time></trkpt><trkpt lat="43.71697" lon="7.3159156"><ele>382.0</ele><time>2026-05-01T14:49:47.272Z</time></trkpt><trkpt lat="43.7169437" lon="7.3156766"><ele>380.3333333333333</ele><time>2026-05-01T14:49:48.272Z</time></trkpt><trkpt lat="43.7169298" lon="7.3154397"><ele>378.6666666666667</ele><time>2026-05-01T14:49:49.272Z</time></trkpt><trkpt lat="43.7169084" lon="7.3152052"><ele>377.0</ele><time>2026-05-01T14:49:50.272Z</time></trkpt><trkpt lat="43.716892" lon="7.3149647"><ele>363.6666666666667</ele><time>2026-05-01T14:49:51.272Z</time></trkpt><trkpt lat="43.7168744" lon="7.3147298"><ele>350.3333333333333</ele><time>2026-05-01T14:49:52.272Z</time></trkpt><trkpt lat="43.7168529" lon="7.3145065"><ele>337.0</ele><time>2026-05-01T14:49:53.273Z</time></trkpt><trkpt lat="43.7168253" lon="7.3142837"><ele>336.3333333333333</ele><time>2026-05-01T14:49:54.272Z</time></trkpt><trkpt lat="43.716773" lon="7.3138751"><ele>335.6666666666667</ele><time>2026-05-01T14:49:56.272Z</time></trkpt><trkpt lat="43.7167547" lon="7.3136817"><ele>335.0</ele><time>2026-05-01T14:49:57.272Z</time></trkpt><trkpt lat="43.7167425" lon="7.3135067"><ele>335.0</ele><time>2026-05-01T14:49:58.272Z</time></trkpt><trkpt lat="43.7167317" lon="7.3133403"><ele>335.0</ele><time>2026-05-01T14:49:59.272Z</time></trkpt><trkpt lat="43.716731" lon="7.3131833"><ele>335.0</ele><time>2026-05-01T14:50:00.272Z</time></trkpt><trkpt lat="43.7167389" lon="7.3130414"><ele>335.0</ele><time>2026-05-01T14:50:01.273Z</time></trkpt><trkpt lat="43.7167616" lon="7.3129012"><ele>335.0</ele><time>2026-05-01T14:50:02.272Z</time></trkpt><trkpt lat="43.7167919" lon="7.3127475"><ele>335.4</ele><time>2026-05-01T14:50:03.272Z</time></trkpt><trkpt lat="43.7168361" lon="7.3126017"><ele>335.8</ele><time>2026-05-01T14:50:04.272Z</time></trkpt><trkpt lat="43.7168729" lon="7.3124618"><ele>336.20000000000005</ele><time>2026-05-01T14:50:05.273Z</time></trkpt><trkpt lat="43.7169019" lon="7.3123264"><ele>336.6</ele><time>2026-05-01T14:50:06.272Z</time></trkpt><trkpt lat="43.7169188" lon="7.3122138"><ele>337.0</ele><time>2026-05-01T14:50:07.272Z</time></trkpt><trkpt lat="43.7169418" lon="7.3121193"><ele>333.8</ele><time>2026-05-01T14:50:08.272Z</time></trkpt><trkpt lat="43.7169629" lon="7.3120198"><ele>330.6</ele><time>2026-05-01T14:50:09.272Z</time></trkpt><trkpt lat="43.7169798" lon="7.3118928"><ele>327.40000000000003</ele><time>2026-05-01T14:50:10.272Z</time></trkpt><trkpt lat="43.7169969" lon="7.3117574"><ele>324.20000000000005</ele><time>2026-05-01T14:50:11.272Z</time></trkpt><trkpt lat="43.7170214" lon="7.311616"><ele>321.0</ele><time>2026-05-01T14:50:12.272Z</time></trkpt><trkpt lat="43.7170386" lon="7.3114732"><ele>321.75</ele><time>2026-05-01T14:50:13.272Z</time></trkpt><trkpt lat="43.7170307" lon="7.3113419"><ele>322.5</ele><time>2026-05-01T14:50:14.272Z</time></trkpt><trkpt lat="43.7170186" lon="7.3112062"><ele>323.25</ele><time>2026-05-01T14:50:15.273Z</time></trkpt><trkpt lat="43.716999" lon="7.3109643"><ele>324.0</ele><time>2026-05-01T14:50:17.272Z</time></trkpt><trkpt lat="43.7170154" lon="7.310856"><ele>324.0</ele><time>2026-05-01T14:50:18.272Z</time></trkpt><trkpt lat="43.7170622" lon="7.3107567"><ele>324.0</ele><time>2026-05-01T14:50:19.273Z</time></trkpt><trkpt lat="43.7171254" lon="7.3106746"><ele>324.0</ele><time>2026-05-01T14:50:20.272Z</time></trkpt><trkpt lat="43.7172033" lon="7.3106131"><ele>324.0</ele><time>2026-05-01T14:50:21.272Z</time></trkpt><trkpt lat="43.717289" lon="7.3105712"><ele>324.0</ele><time>2026-05-01T14:50:22.272Z</time></trkpt><trkpt lat="43.717393" lon="7.3105461"><ele>324.3333333333333</ele><time>2026-05-01T14:50:23.272Z</time></trkpt><trkpt lat="43.7174938" lon="7.3105262"><ele>324.6666666666667</ele><time>2026-05-01T14:50:24.273Z</time></trkpt><trkpt lat="43.717586" lon="7.3104986"><ele>325.0</ele><time>2026-05-01T14:50:25.272Z</time></trkpt><trkpt lat="43.7176731" lon="7.3104723"><ele>325.33333333333337</ele><time>2026-05-01T14:50:26.273Z</time></trkpt><trkpt lat="43.7177571" lon="7.3104464"><ele>325.6666666666667</ele><time>2026-05-01T14:50:27.272Z</time></trkpt><trkpt lat="43.7178191" lon="7.3104209"><ele>326.0</ele><time>2026-05-01T14:50:28.272Z</time></trkpt><trkpt lat="43.7178757" lon="7.3103559"><ele>326.0</ele><time>2026-05-01T14:50:31.272Z</time></trkpt><trkpt lat="43.7177549" lon="7.310396"><ele>326.0</ele><time>2026-05-01T14:50:45.272Z</time></trkpt><trkpt lat="43.71758" lon="7.310455"><ele>326.0</ele><time>2026-05-01T14:50:47.272Z</time></trkpt><trkpt lat="43.7174716" lon="7.310483"><ele>326.0</ele><time>2026-05-01T14:50:48.272Z</time></trkpt><trkpt lat="43.7173691" lon="7.3105187"><ele>325.6</ele><time>2026-05-01T14:50:49.272Z</time></trkpt><trkpt lat="43.7172695" lon="7.3105562"><ele>325.20000000000005</ele><time>2026-05-01T14:50:50.272Z</time></trkpt><trkpt lat="43.717183" lon="7.3105944"><ele>324.79999999999995</ele><time>2026-05-01T14:50:51.272Z</time></trkpt><trkpt lat="43.7171044" lon="7.3106534"><ele>324.4</ele><time>2026-05-01T14:50:52.272Z</time></trkpt><trkpt lat="43.7170385" lon="7.3107511"><ele>324.0</ele><time>2026-05-01T14:50:53.272Z</time></trkpt><trkpt lat="43.7169949" lon="7.3108817"><ele>324.0</ele><time>2026-05-01T14:50:54.272Z</time></trkpt><trkpt lat="43.7169801" lon="7.3110346"><ele>324.0</ele><time>2026-05-01T14:50:55.272Z</time></trkpt><trkpt lat="43.7169862" lon="7.3111942"><ele>324.0</ele><time>2026-05-01T14:50:56.272Z</time></trkpt><trkpt lat="43.7170054" lon="7.3113551"><ele>324.0</ele><time>2026-05-01T14:50:57.272Z</time></trkpt><trkpt lat="43.7170171" lon="7.3115096"><ele>323.4</ele><time>2026-05-01T14:50:58.272Z</time></trkpt><trkpt lat="43.7170133" lon="7.3116649"><ele>322.79999999999995</ele><time>2026-05-01T14:50:59.272Z</time></trkpt><trkpt lat="43.7169908" lon="7.3118086"><ele>322.20000000000005</ele><time>2026-05-01T14:51:00.272Z</time></trkpt><trkpt lat="43.7169644" lon="7.3119416"><ele>321.6</ele><time>2026-05-01T14:51:01.272Z</time></trkpt><trkpt lat="43.7169402" lon="7.3120517"><ele>321.0</ele><time>2026-05-01T14:51:02.272Z</time></trkpt><trkpt lat="43.7169171" lon="7.3121391"><ele>321.0</ele><time>2026-05-01T14:51:03.272Z</time></trkpt><trkpt lat="43.7168902" lon="7.3122604"><ele>321.0</ele><time>2026-05-01T14:51:05.272Z</time></trkpt><trkpt lat="43.7169192" lon="7.3123388"><ele>321.0</ele><time>2026-05-01T14:51:07.272Z</time></trkpt><trkpt lat="43.7170577" lon="7.3122828"><ele>321.0</ele><time>2026-05-01T14:51:18.272Z</time></trkpt><trkpt lat="43.7171211" lon="7.3122385"><ele>321.0</ele><time>2026-05-01T14:51:19.272Z</time></trkpt><trkpt lat="43.7171993" lon="7.3121849"><ele>321.0</ele><time>2026-05-01T14:51:20.272Z</time></trkpt><trkpt lat="43.7172805" lon="7.3121333"><ele>321.0</ele><time>2026-05-01T14:51:21.273Z</time></trkpt><trkpt lat="43.7173639" lon="7.312086"><ele>321.0</ele><time>2026-05-01T14:51:22.272Z</time></trkpt><trkpt lat="43.7174435" lon="7.3120374"><ele>321.0</ele><time>2026-05-01T14:51:23.273Z</time></trkpt><trkpt lat="43.7175237" lon="7.3119886"><ele>321.0</ele><time>2026-05-01T14:51:24.272Z</time></trkpt><trkpt lat="43.7176011" lon="7.3119439"><ele>321.0</ele><time>2026-05-01T14:51:25.272Z</time></trkpt><trkpt lat="43.717688" lon="7.3119065"><ele>320.2</ele><time>2026-05-01T14:51:26.272Z</time></trkpt><trkpt lat="43.7177765" lon="7.3118843"><ele>319.40000000000003</ele><time>2026-05-01T14:51:27.272Z</time></trkpt><trkpt lat="43.7178639" lon="7.311844"><ele>318.6</ele><time>2026-05-01T14:51:28.272Z</time></trkpt><trkpt lat="43.7180225" lon="7.3117585"><ele>317.8</ele><time>2026-05-01T14:51:30.272Z</time></trkpt><trkpt lat="43.7181046" lon="7.3116986"><ele>317.0</ele><time>2026-05-01T14:51:31.272Z</time></trkpt><trkpt lat="43.7182028" lon="7.3116439"><ele>317.0</ele><time>2026-05-01T14:51:32.272Z</time></trkpt><trkpt lat="43.7183017" lon="7.3115925"><ele>317.0</ele><time>2026-05-01T14:51:33.272Z</time></trkpt><trkpt lat="43.7183979" lon="7.31154"><ele>317.0</ele><time>2026-05-01T14:51:34.272Z</time></trkpt><trkpt lat="43.7185001" lon="7.3114818"><ele>317.0</ele><time>2026-05-01T14:51:35.272Z</time></trkpt><trkpt lat="43.7185976" lon="7.3114137"><ele>317.0</ele><time>2026-05-01T14:51:36.272Z</time></trkpt><trkpt lat="43.7186933" lon="7.3113457"><ele>315.6</ele><time>2026-05-01T14:51:37.272Z</time></trkpt><trkpt lat="43.7187898" lon="7.3112816"><ele>314.2</ele><time>2026-05-01T14:51:38.272Z</time></trkpt><trkpt lat="43.7188832" lon="7.311219"><ele>312.8</ele><time>2026-05-01T14:51:39.273Z</time></trkpt><trkpt lat="43.7189828" lon="7.311158"><ele>311.4</ele><time>2026-05-01T14:51:40.272Z</time></trkpt><trkpt lat="43.719089" lon="7.3111077"><ele>310.0</ele><time>2026-05-01T14:51:41.272Z</time></trkpt><trkpt lat="43.7191888" lon="7.3110638"><ele>310.0</ele><time>2026-05-01T14:51:42.272Z</time></trkpt><trkpt lat="43.7192926" lon="7.3110277"><ele>310.0</ele><time>2026-05-01T14:51:43.273Z</time></trkpt><trkpt lat="43.7194057" lon="7.3109985"><ele>310.0</ele><time>2026-05-01T14:51:44.272Z</time></trkpt><trkpt lat="43.7195242" lon="7.3109809"><ele>310.0</ele><time>2026-05-01T14:51:45.273Z</time></trkpt><trkpt lat="43.7196459" lon="7.3109789"><ele>309.75</ele><time>2026-05-01T14:51:46.272Z</time></trkpt><trkpt lat="43.7197494" lon="7.3109762"><ele>309.5</ele><time>2026-05-01T14:51:47.272Z</time></trkpt><trkpt lat="43.7198405" lon="7.310972"><ele>309.25</ele><time>2026-05-01T14:51:48.272Z</time></trkpt><trkpt lat="43.7199266" lon="7.3109562"><ele>309.0</ele><time>2026-05-01T14:51:49.272Z</time></trkpt><trkpt lat="43.7200709" lon="7.3108311"><ele>309.0</ele><time>2026-05-01T14:51:51.272Z</time></trkpt><trkpt lat="43.7201268" lon="7.3107604"><ele>309.0</ele><time>2026-05-01T14:51:52.272Z</time></trkpt><trkpt lat="43.720169" lon="7.3106745"><ele>309.0</ele><time>2026-05-01T14:51:53.272Z</time></trkpt><trkpt lat="43.720208" lon="7.3105694"><ele>309.0</ele><time>2026-05-01T14:51:54.272Z</time></trkpt><trkpt lat="43.7202473" lon="7.3104458"><ele>309.0</ele><time>2026-05-01T14:51:55.272Z</time></trkpt><trkpt lat="43.7202874" lon="7.3103168"><ele>309.0</ele><time>2026-05-01T14:51:56.272Z</time></trkpt><trkpt lat="43.7203239" lon="7.3101868"><ele>308.59999999999997</ele><time>2026-05-01T14:51:57.272Z</time></trkpt><trkpt lat="43.72036" lon="7.3100792"><ele>308.2</ele><time>2026-05-01T14:51:58.272Z</time></trkpt><trkpt lat="43.7204029" lon="7.309942"><ele>307.79999999999995</ele><time>2026-05-01T14:51:59.272Z</time></trkpt><trkpt lat="43.7204536" lon="7.3098149"><ele>307.4</ele><time>2026-05-01T14:52:00.273Z</time></trkpt><trkpt lat="43.7205057" lon="7.3097016"><ele>307.0</ele><time>2026-05-01T14:52:01.272Z</time></trkpt><trkpt lat="43.7205653" lon="7.3095966"><ele>305.0</ele><time>2026-05-01T14:52:02.273Z</time></trkpt><trkpt lat="43.7206336" lon="7.3094892"><ele>303.0</ele><time>2026-05-01T14:52:03.272Z</time></trkpt><trkpt lat="43.7207115" lon="7.3093759"><ele>301.0</ele><time>2026-05-01T14:52:04.273Z</time></trkpt><trkpt lat="43.7207922" lon="7.3092574"><ele>299.0</ele><time>2026-05-01T14:52:05.272Z</time></trkpt><trkpt lat="43.720871" lon="7.3091356"><ele>299.0</ele><time>2026-05-01T14:52:06.272Z</time></trkpt><trkpt lat="43.7209499" lon="7.3090032"><ele>299.0</ele><time>2026-05-01T14:52:07.272Z</time></trkpt><trkpt lat="43.7210445" lon="7.3088696"><ele>299.0</ele><time>2026-05-01T14:52:08.272Z</time></trkpt><trkpt lat="43.7211461" lon="7.3087451"><ele>299.0</ele><time>2026-05-01T14:52:09.273Z</time></trkpt><trkpt lat="43.7212398" lon="7.3086335"><ele>297.0</ele><time>2026-05-01T14:52:10.272Z</time></trkpt><trkpt lat="43.7214121" lon="7.3084348"><ele>295.0</ele><time>2026-05-01T14:52:12.272Z</time></trkpt><trkpt lat="43.7214982" lon="7.3083324"><ele>293.0</ele><time>2026-05-01T14:52:13.272Z</time></trkpt><trkpt lat="43.7215689" lon="7.30823"><ele>291.0</ele><time>2026-05-01T14:52:14.273Z</time></trkpt><trkpt lat="43.7216251" lon="7.3081525"><ele>291.0</ele><time>2026-05-01T14:52:15.272Z</time></trkpt><trkpt lat="43.7216791" lon="7.3080814"><ele>291.0</ele><time>2026-05-01T14:52:16.272Z</time></trkpt><trkpt lat="43.7217305" lon="7.3080044"><ele>291.0</ele><time>2026-05-01T14:52:17.272Z</time></trkpt><trkpt lat="43.7217863" lon="7.307924"><ele>291.0</ele><time>2026-05-01T14:52:18.272Z</time></trkpt><trkpt lat="43.7218462" lon="7.3078385"><ele>291.0</ele><time>2026-05-01T14:52:19.272Z</time></trkpt><trkpt lat="43.7219125" lon="7.3077447"><ele>291.0</ele><time>2026-05-01T14:52:20.272Z</time></trkpt><trkpt lat="43.7219796" lon="7.3076442"><ele>288.8</ele><time>2026-05-01T14:52:21.272Z</time></trkpt><trkpt lat="43.7220505" lon="7.307537"><ele>286.6</ele><time>2026-05-01T14:52:22.272Z</time></trkpt><trkpt lat="43.7221017" lon="7.307437"><ele>284.4</ele><time>2026-05-01T14:52:23.272Z</time></trkpt><trkpt lat="43.7221357" lon="7.307322"><ele>282.2</ele><time>2026-05-01T14:52:24.272Z</time></trkpt><trkpt lat="43.7221625" lon="7.3072049"><ele>280.0</ele><time>2026-05-01T14:52:25.272Z</time></trkpt><trkpt lat="43.7221879" lon="7.3070933"><ele>274.0</ele><time>2026-05-01T14:52:26.272Z</time></trkpt><trkpt lat="43.7222206" lon="7.3070031"><ele>268.0</ele><time>2026-05-01T14:52:27.272Z</time></trkpt><trkpt lat="43.7223162" lon="7.3069246"><ele>262.0</ele><time>2026-05-01T14:52:29.273Z</time></trkpt><trkpt lat="43.7223862" lon="7.3069214"><ele>256.0</ele><time>2026-05-01T14:52:30.273Z</time></trkpt><trkpt lat="43.7226005" lon="7.3069648"><ele>254.5</ele><time>2026-05-01T14:52:32.272Z</time></trkpt><trkpt lat="43.7227361" lon="7.3069738"><ele>253.0</ele><time>2026-05-01T14:52:33.272Z</time></trkpt><trkpt lat="43.7228603" lon="7.306971"><ele>251.5</ele><time>2026-05-01T14:52:34.272Z</time></trkpt><trkpt lat="43.722974" lon="7.3069532"><ele>250.0</ele><time>2026-05-01T14:52:35.272Z</time></trkpt><trkpt lat="43.7230887" lon="7.306942"><ele>250.0</ele><time>2026-05-01T14:52:36.272Z</time></trkpt><trkpt lat="43.7231994" lon="7.3069395"><ele>250.0</ele><time>2026-05-01T14:52:37.272Z</time></trkpt><trkpt lat="43.7233007" lon="7.306953"><ele>250.0</ele><time>2026-05-01T14:52:38.272Z</time></trkpt><trkpt lat="43.7233993" lon="7.3069935"><ele>250.0</ele><time>2026-05-01T14:52:39.272Z</time></trkpt><trkpt lat="43.7234937" lon="7.3070588"><ele>250.0</ele><time>2026-05-01T14:52:40.272Z</time></trkpt><trkpt lat="43.7235784" lon="7.3071337"><ele>250.8</ele><time>2026-05-01T14:52:41.272Z</time></trkpt><trkpt lat="43.7236656" lon="7.3071979"><ele>251.6</ele><time>2026-05-01T14:52:42.272Z</time></trkpt><trkpt lat="43.723761" lon="7.3072445"><ele>252.39999999999998</ele><time>2026-05-01T14:52:43.272Z</time></trkpt><trkpt lat="43.7238532" lon="7.3072837"><ele>253.2</ele><time>2026-05-01T14:52:44.272Z</time></trkpt><trkpt lat="43.7239346" lon="7.3073364"><ele>254.0</ele><time>2026-05-01T14:52:45.273Z</time></trkpt><trkpt lat="43.7240123" lon="7.3074018"><ele>254.00000000000003</ele><time>2026-05-01T14:52:46.272Z</time></trkpt><trkpt lat="43.7240736" lon="7.3074875"><ele>254.0</ele><time>2026-05-01T14:52:47.272Z</time></trkpt><trkpt lat="43.7241267" lon="7.3075936"><ele>254.0</ele><time>2026-05-01T14:52:48.272Z</time></trkpt><trkpt lat="43.7241655" lon="7.3077093"><ele>254.0</ele><time>2026-05-01T14:52:49.272Z</time></trkpt><trkpt lat="43.7242001" lon="7.3078243"><ele>254.00000000000003</ele><time>2026-05-01T14:52:50.272Z</time></trkpt><trkpt lat="43.7242296" lon="7.3079282"><ele>254.0</ele><time>2026-05-01T14:52:51.272Z</time></trkpt><trkpt lat="43.7241929" lon="7.3081736"><ele>253.66666666666669</ele><time>2026-05-01T14:52:54.272Z</time></trkpt><trkpt lat="43.7240908" lon="7.3082447"><ele>253.33333333333334</ele><time>2026-05-01T14:52:56.273Z</time></trkpt><trkpt lat="43.7240166" lon="7.3082547"><ele>253.0</ele><time>2026-05-01T14:52:57.272Z</time></trkpt><trkpt lat="43.7239341" lon="7.3082693"><ele>252.66666666666669</ele><time>2026-05-01T14:52:58.272Z</time></trkpt><trkpt lat="43.723851" lon="7.3082922"><ele>252.33333333333334</ele><time>2026-05-01T14:52:59.272Z</time></trkpt><trkpt lat="43.7237735" lon="7.3083326"><ele>252.0</ele><time>2026-05-01T14:53:00.272Z</time></trkpt><trkpt lat="43.723715" lon="7.3083962"><ele>252.0</ele><time>2026-05-01T14:53:01.272Z</time></trkpt><trkpt lat="43.7236938" lon="7.3085298"><ele>252.0</ele><time>2026-05-01T14:53:03.272Z</time></trkpt><trkpt lat="43.723725" lon="7.308607"><ele>252.0</ele><time>2026-05-01T14:53:04.272Z</time></trkpt><trkpt lat="43.7238017" lon="7.3086814"><ele>252.0</ele><time>2026-05-01T14:53:05.272Z</time></trkpt><trkpt lat="43.7239027" lon="7.3087674"><ele>252.0</ele><time>2026-05-01T14:53:06.272Z</time></trkpt><trkpt lat="43.7240217" lon="7.3088603"><ele>253.25</ele><time>2026-05-01T14:53:07.273Z</time></trkpt><trkpt lat="43.7241311" lon="7.3089643"><ele>254.5</ele><time>2026-05-01T14:53:08.272Z</time></trkpt><trkpt lat="43.7242419" lon="7.3090653"><ele>255.75</ele><time>2026-05-01T14:53:09.272Z</time></trkpt><trkpt lat="43.7243673" lon="7.3091681"><ele>257.0</ele><time>2026-05-01T14:53:10.272Z</time></trkpt><trkpt lat="43.7244663" lon="7.3092579"><ele>245.75</ele><time>2026-05-01T14:53:11.272Z</time></trkpt><trkpt lat="43.7245566" lon="7.3093351"><ele>234.5</ele><time>2026-05-01T14:53:12.272Z</time></trkpt><trkpt lat="43.7247246" lon="7.3095135"><ele>223.25</ele><time>2026-05-01T14:53:14.273Z</time></trkpt><trkpt lat="43.7247898" lon="7.3096046"><ele>212.0</ele><time>2026-05-01T14:53:15.272Z</time></trkpt><trkpt lat="43.7248239" lon="7.3097008"><ele>213.8</ele><time>2026-05-01T14:53:16.272Z</time></trkpt><trkpt lat="43.7248417" lon="7.309794"><ele>215.6</ele><time>2026-05-01T14:53:17.272Z</time></trkpt><trkpt lat="43.7248288" lon="7.3099094"><ele>217.40000000000003</ele><time>2026-05-01T14:53:18.272Z</time></trkpt><trkpt lat="43.7247966" lon="7.3100464"><ele>219.20000000000002</ele><time>2026-05-01T14:53:19.273Z</time></trkpt><trkpt lat="43.7247646" lon="7.3102058"><ele>221.0</ele><time>2026-05-01T14:53:20.272Z</time></trkpt><trkpt lat="43.7247215" lon="7.3103538"><ele>221.0</ele><time>2026-05-01T14:53:21.272Z</time></trkpt><trkpt lat="43.7246639" lon="7.3104866"><ele>221.00000000000003</ele><time>2026-05-01T14:53:22.272Z</time></trkpt><trkpt lat="43.7246024" lon="7.3106006"><ele>221.00000000000003</ele><time>2026-05-01T14:53:23.273Z</time></trkpt><trkpt lat="43.7245459" lon="7.310716"><ele>221.0</ele><time>2026-05-01T14:53:24.272Z</time></trkpt><trkpt lat="43.7245077" lon="7.3108156"><ele>221.0</ele><time>2026-05-01T14:53:25.272Z</time></trkpt><trkpt lat="43.7244923" lon="7.3109043"><ele>224.25</ele><time>2026-05-01T14:53:26.272Z</time></trkpt><trkpt lat="43.7245195" lon="7.3110217"><ele>227.5</ele><time>2026-05-01T14:53:28.272Z</time></trkpt><trkpt lat="43.7246441" lon="7.3110477"><ele>230.75</ele><time>2026-05-01T14:53:30.272Z</time></trkpt><trkpt lat="43.7247557" lon="7.3110275"><ele>234.0</ele><time>2026-05-01T14:53:31.272Z</time></trkpt><trkpt lat="43.7248821" lon="7.3109704"><ele>234.0</ele><time>2026-05-01T14:53:32.272Z</time></trkpt><trkpt lat="43.7250112" lon="7.3108906"><ele>234.0</ele><time>2026-05-01T14:53:33.272Z</time></trkpt><trkpt lat="43.7251881" lon="7.3107349"><ele>234.0</ele><time>2026-05-01T14:53:35.272Z</time></trkpt><trkpt lat="43.7252681" lon="7.3106933"><ele>234.0</ele><time>2026-05-01T14:53:36.272Z</time></trkpt><trkpt lat="43.7253557" lon="7.3106763"><ele>229.0</ele><time>2026-05-01T14:53:37.272Z</time></trkpt><trkpt lat="43.7254548" lon="7.3106802"><ele>224.0</ele><time>2026-05-01T14:53:38.272Z</time></trkpt><trkpt lat="43.7255733" lon="7.3106916"><ele>219.0</ele><time>2026-05-01T14:53:39.272Z</time></trkpt><trkpt lat="43.7256991" lon="7.3107043"><ele>214.0</ele><time>2026-05-01T14:53:40.272Z</time></trkpt><trkpt lat="43.7258325" lon="7.310717"><ele>214.0</ele><time>2026-05-01T14:53:41.273Z</time></trkpt><trkpt lat="43.7259702" lon="7.3107298"><ele>214.0</ele><time>2026-05-01T14:53:42.272Z</time></trkpt><trkpt lat="43.7260911" lon="7.3107277"><ele>214.0</ele><time>2026-05-01T14:53:43.272Z</time></trkpt><trkpt lat="43.7261927" lon="7.3107161"><ele>214.0</ele><time>2026-05-01T14:53:44.272Z</time></trkpt><trkpt lat="43.7262875" lon="7.310695"><ele>212.0</ele><time>2026-05-01T14:53:45.272Z</time></trkpt><trkpt lat="43.726385" lon="7.3106553"><ele>209.99999999999997</ele><time>2026-05-01T14:53:46.272Z</time></trkpt><trkpt lat="43.7264734" lon="7.3105804"><ele>208.0</ele><time>2026-05-01T14:53:47.273Z</time></trkpt><trkpt lat="43.7265561" lon="7.3104894"><ele>206.0</ele><time>2026-05-01T14:53:48.272Z</time></trkpt><trkpt lat="43.7266301" lon="7.3104327"><ele>204.0</ele><time>2026-05-01T14:53:49.273Z</time></trkpt><trkpt lat="43.7266931" lon="7.3104037"><ele>204.0</ele><time>2026-05-01T14:53:50.272Z</time></trkpt><trkpt lat="43.7267588" lon="7.3104283"><ele>204.0</ele><time>2026-05-01T14:53:51.272Z</time></trkpt><trkpt lat="43.7268209" lon="7.3104895"><ele>204.0</ele><time>2026-05-01T14:53:52.272Z</time></trkpt><trkpt lat="43.7268766" lon="7.3105782"><ele>204.0</ele><time>2026-05-01T14:53:53.272Z</time></trkpt><trkpt lat="43.7270078" lon="7.3106889"><ele>204.0</ele><time>2026-05-01T14:53:55.273Z</time></trkpt><trkpt lat="43.7270747" lon="7.3106869"><ele>202.0</ele><time>2026-05-01T14:53:56.272Z</time></trkpt><trkpt lat="43.7271488" lon="7.3105981"><ele>200.0</ele><time>2026-05-01T14:53:58.272Z</time></trkpt><trkpt lat="43.7270991" lon="7.31044"><ele>198.0</ele><time>2026-05-01T14:54:00.272Z</time></trkpt><trkpt lat="43.7270024" lon="7.3103363"><ele>196.0</ele><time>2026-05-01T14:54:01.272Z</time></trkpt><trkpt lat="43.726911" lon="7.3102328"><ele>194.99999999999997</ele><time>2026-05-01T14:54:02.272Z</time></trkpt><trkpt lat="43.7268429" lon="7.3101202"><ele>194.0</ele><time>2026-05-01T14:54:03.272Z</time></trkpt><trkpt lat="43.7267979" lon="7.3100126"><ele>193.0</ele><time>2026-05-01T14:54:04.273Z</time></trkpt><trkpt lat="43.7267517" lon="7.3099319"><ele>192.0</ele><time>2026-05-01T14:54:05.272Z</time></trkpt><trkpt lat="43.7266946" lon="7.3098907"><ele>191.0</ele><time>2026-05-01T14:54:06.272Z</time></trkpt><trkpt lat="43.7266218" lon="7.3097968"><ele>190.0</ele><time>2026-05-01T14:54:08.272Z</time></trkpt><trkpt lat="43.7266556" lon="7.3096633"><ele>188.0</ele><time>2026-05-01T14:54:10.272Z</time></trkpt><trkpt lat="43.7267717" lon="7.3096269"><ele>186.0</ele><time>2026-05-01T14:54:12.272Z</time></trkpt><trkpt lat="43.7268445" lon="7.3096653"><ele>184.0</ele><time>2026-05-01T14:54:13.272Z</time></trkpt><trkpt lat="43.7269104" lon="7.3097255"><ele>182.0</ele><time>2026-05-01T14:54:14.272Z</time></trkpt><trkpt lat="43.7270583" lon="7.3099135"><ele>182.0</ele><time>2026-05-01T14:54:16.272Z</time></trkpt><trkpt lat="43.72714" lon="7.3099786"><ele>182.0</ele><time>2026-05-01T14:54:17.272Z</time></trkpt><trkpt lat="43.727218" lon="7.3100157"><ele>182.0</ele><time>2026-05-01T14:54:18.272Z</time></trkpt><trkpt lat="43.7273007" lon="7.3100322"><ele>182.0</ele><time>2026-05-01T14:54:19.272Z</time></trkpt><trkpt lat="43.7273899" lon="7.3100051"><ele>182.0</ele><time>2026-05-01T14:54:20.272Z</time></trkpt><trkpt lat="43.7274782" lon="7.3099471"><ele>182.0</ele><time>2026-05-01T14:54:21.272Z</time></trkpt><trkpt lat="43.727553" lon="7.3098696"><ele>182.0</ele><time>2026-05-01T14:54:22.272Z</time></trkpt><trkpt lat="43.727614" lon="7.3097969"><ele>182.0</ele><time>2026-05-01T14:54:23.272Z</time></trkpt><trkpt lat="43.7276722" lon="7.3097513"><ele>182.0</ele><time>2026-05-01T14:54:24.272Z</time></trkpt><trkpt lat="43.7277381" lon="7.3097507"><ele>182.0</ele><time>2026-05-01T14:54:25.272Z</time></trkpt><trkpt lat="43.7278097" lon="7.3097915"><ele>182.0</ele><time>2026-05-01T14:54:26.272Z</time></trkpt><trkpt lat="43.7278861" lon="7.3098389"><ele>182.0</ele><time>2026-05-01T14:54:27.273Z</time></trkpt><trkpt lat="43.7279636" lon="7.3099002"><ele>179.33333333333331</ele><time>2026-05-01T14:54:28.272Z</time></trkpt><trkpt lat="43.7280357" lon="7.309969"><ele>176.66666666666666</ele><time>2026-05-01T14:54:29.273Z</time></trkpt><trkpt lat="43.7281023" lon="7.3100447"><ele>174.0</ele><time>2026-05-01T14:54:30.272Z</time></trkpt><trkpt lat="43.7281643" lon="7.3101154"><ele>171.33333333333334</ele><time>2026-05-01T14:54:31.273Z</time></trkpt><trkpt lat="43.7282122" lon="7.3101964"><ele>168.66666666666669</ele><time>2026-05-01T14:54:32.272Z</time></trkpt><trkpt lat="43.7282473" lon="7.3102787"><ele>166.0</ele><time>2026-05-01T14:54:33.272Z</time></trkpt><trkpt lat="43.7283064" lon="7.3103962"><ele>166.0</ele><time>2026-05-01T14:54:35.272Z</time></trkpt><trkpt lat="43.7283839" lon="7.3101845"><ele>166.0</ele><time>2026-05-01T14:54:39.272Z</time></trkpt><trkpt lat="43.728336" lon="7.3100824"><ele>166.0</ele><time>2026-05-01T14:54:40.273Z</time></trkpt><trkpt lat="43.7282861" lon="7.3099775"><ele>166.0</ele><time>2026-05-01T14:54:41.272Z</time></trkpt><trkpt lat="43.728236" lon="7.309876"><ele>166.0</ele><time>2026-05-01T14:54:42.272Z</time></trkpt><trkpt lat="43.7281848" lon="7.3097822"><ele>163.0</ele><time>2026-05-01T14:54:43.272Z</time></trkpt><trkpt lat="43.7281293" lon="7.3096919"><ele>160.0</ele><time>2026-05-01T14:54:44.272Z</time></trkpt><trkpt lat="43.7280634" lon="7.3096144"><ele>157.0</ele><time>2026-05-01T14:54:45.273Z</time></trkpt><trkpt lat="43.7279906" lon="7.3095477"><ele>154.0</ele><time>2026-05-01T14:54:46.272Z</time></trkpt><trkpt lat="43.7279253" lon="7.3095107"><ele>151.0</ele><time>2026-05-01T14:54:47.273Z</time></trkpt><trkpt lat="43.7278421" lon="7.3094519"><ele>148.0</ele><time>2026-05-01T14:54:49.272Z</time></trkpt><trkpt lat="43.7278524" lon="7.3093596"><ele>148.0</ele><time>2026-05-01T14:54:51.272Z</time></trkpt><trkpt lat="43.7279332" lon="7.3093522"><ele>148.0</ele><time>2026-05-01T14:54:53.272Z</time></trkpt><trkpt lat="43.7280527" lon="7.309453"><ele>148.0</ele><time>2026-05-01T14:54:55.272Z</time></trkpt><trkpt lat="43.7281255" lon="7.3095042"><ele>148.0</ele><time>2026-05-01T14:54:56.272Z</time></trkpt><trkpt lat="43.7282913" lon="7.3095579"><ele>148.0</ele><time>2026-05-01T14:54:58.272Z</time></trkpt><trkpt lat="43.7283753" lon="7.3095453"><ele>148.0</ele><time>2026-05-01T14:54:59.272Z</time></trkpt><trkpt lat="43.7284621" lon="7.3095321"><ele>148.0</ele><time>2026-05-01T14:55:00.272Z</time></trkpt><trkpt lat="43.7285463" lon="7.309549"><ele>148.0</ele><time>2026-05-01T14:55:01.272Z</time></trkpt><trkpt lat="43.7286166" lon="7.3095946"><ele>148.0</ele><time>2026-05-01T14:55:02.272Z</time></trkpt><trkpt lat="43.7286674" lon="7.3096722"><ele>148.0</ele><time>2026-05-01T14:55:03.272Z</time></trkpt><trkpt lat="43.7286961" lon="7.3097778"><ele>147.83333333333334</ele><time>2026-05-01T14:55:04.272Z</time></trkpt><trkpt lat="43.728705" lon="7.3098849"><ele>147.66666666666669</ele><time>2026-05-01T14:55:05.272Z</time></trkpt><trkpt lat="43.7287117" lon="7.30999"><ele>147.5</ele><time>2026-05-01T14:55:06.272Z</time></trkpt><trkpt lat="43.7287281" lon="7.3101063"><ele>147.33333333333334</ele><time>2026-05-01T14:55:07.272Z</time></trkpt><trkpt lat="43.728736" lon="7.3102032"><ele>147.16666666666666</ele><time>2026-05-01T14:55:08.272Z</time></trkpt><trkpt lat="43.7287483" lon="7.3103077"><ele>147.0</ele><time>2026-05-01T14:55:09.272Z</time></trkpt><trkpt lat="43.7287627" lon="7.3104103"><ele>147.0</ele><time>2026-05-01T14:55:10.272Z</time></trkpt><trkpt lat="43.7287849" lon="7.3105021"><ele>147.0</ele><time>2026-05-01T14:55:11.272Z</time></trkpt><trkpt lat="43.7288038" lon="7.3105906"><ele>147.0</ele><time>2026-05-01T14:55:12.272Z</time></trkpt><trkpt lat="43.7288512" lon="7.3107242"><ele>147.0</ele><time>2026-05-01T14:55:14.272Z</time></trkpt><trkpt lat="43.7289547" lon="7.3107133"><ele>147.0</ele><time>2026-05-01T14:55:16.273Z</time></trkpt><trkpt lat="43.729072" lon="7.3105296"><ele>147.0</ele><time>2026-05-01T14:55:18.272Z</time></trkpt><trkpt lat="43.7292411" lon="7.3101834"><ele>147.0</ele><time>2026-05-01T14:55:20.272Z</time></trkpt><trkpt lat="43.729339" lon="7.3100172"><ele>147.75</ele><time>2026-05-01T14:55:21.272Z</time></trkpt><trkpt lat="43.7294357" lon="7.3098884"><ele>148.5</ele><time>2026-05-01T14:55:22.272Z</time></trkpt><trkpt lat="43.7295309" lon="7.3097885"><ele>149.25</ele><time>2026-05-01T14:55:23.273Z</time></trkpt><trkpt lat="43.7296316" lon="7.309701"><ele>150.0</ele><time>2026-05-01T14:55:24.272Z</time></trkpt><trkpt lat="43.7297266" lon="7.3096314"><ele>143.8</ele><time>2026-05-01T14:55:25.272Z</time></trkpt><trkpt lat="43.7298249" lon="7.3095779"><ele>137.6</ele><time>2026-05-01T14:55:26.272Z</time></trkpt><trkpt lat="43.7299239" lon="7.3095368"><ele>131.4</ele><time>2026-05-01T14:55:27.273Z</time></trkpt><trkpt lat="43.7300317" lon="7.3095014"><ele>125.2</ele><time>2026-05-01T14:55:28.272Z</time></trkpt><trkpt lat="43.7301438" lon="7.3094874"><ele>119.0</ele><time>2026-05-01T14:55:29.272Z</time></trkpt><trkpt lat="43.7302532" lon="7.3094772"><ele>117.6</ele><time>2026-05-01T14:55:30.272Z</time></trkpt><trkpt lat="43.730358" lon="7.309462"><ele>116.2</ele><time>2026-05-01T14:55:31.272Z</time></trkpt><trkpt lat="43.7304742" lon="7.3094526"><ele>114.79999999999998</ele><time>2026-05-01T14:55:32.272Z</time></trkpt><trkpt lat="43.7305898" lon="7.3094497"><ele>113.39999999999999</ele><time>2026-05-01T14:55:33.272Z</time></trkpt><trkpt lat="43.7306978" lon="7.3094506"><ele>112.0</ele><time>2026-05-01T14:55:34.272Z</time></trkpt><trkpt lat="43.730797" lon="7.3094569"><ele>112.0</ele><time>2026-05-01T14:55:35.272Z</time></trkpt><trkpt lat="43.7308919" lon="7.3094581"><ele>111.99999999999999</ele><time>2026-05-01T14:55:36.272Z</time></trkpt><trkpt lat="43.7309699" lon="7.3094472"><ele>111.99999999999999</ele><time>2026-05-01T14:55:37.273Z</time></trkpt><trkpt lat="43.7310376" lon="7.3094681"><ele>112.0</ele><time>2026-05-01T14:55:38.272Z</time></trkpt><trkpt lat="43.7310897" lon="7.3095228"><ele>112.0</ele><time>2026-05-01T14:55:39.273Z</time></trkpt><trkpt lat="43.7311459" lon="7.3097346"><ele>110.50000000000001</ele><time>2026-05-01T14:55:41.272Z</time></trkpt><trkpt lat="43.7311642" lon="7.3098814"><ele>109.0</ele><time>2026-05-01T14:55:42.272Z</time></trkpt><trkpt lat="43.7311892" lon="7.310008"><ele>107.5</ele><time>2026-05-01T14:55:43.272Z</time></trkpt><trkpt lat="43.7312252" lon="7.310107"><ele>106.0</ele><time>2026-05-01T14:55:44.272Z</time></trkpt><trkpt lat="43.7312821" lon="7.3101791"><ele>104.50000000000001</ele><time>2026-05-01T14:55:45.272Z</time></trkpt><trkpt lat="43.7313563" lon="7.3102221"><ele>103.0</ele><time>2026-05-01T14:55:46.272Z</time></trkpt><trkpt lat="43.7314432" lon="7.3102572"><ele>103.00000000000001</ele><time>2026-05-01T14:55:47.272Z</time></trkpt><trkpt lat="43.7315256" lon="7.310302"><ele>103.0</ele><time>2026-05-01T14:55:48.272Z</time></trkpt><trkpt lat="43.7315994" lon="7.3103721"><ele>103.0</ele><time>2026-05-01T14:55:49.273Z</time></trkpt><trkpt lat="43.7316507" lon="7.3104548"><ele>103.0</ele><time>2026-05-01T14:55:50.272Z</time></trkpt><trkpt lat="43.7316972" lon="7.3105459"><ele>103.00000000000001</ele><time>2026-05-01T14:55:51.273Z</time></trkpt><trkpt lat="43.7317283" lon="7.3106497"><ele>103.0</ele><time>2026-05-01T14:55:52.272Z</time></trkpt><trkpt lat="43.731753" lon="7.3107496"><ele>103.50000000000001</ele><time>2026-05-01T14:55:53.272Z</time></trkpt><trkpt lat="43.7317804" lon="7.3108359"><ele>104.0</ele><time>2026-05-01T14:55:54.272Z</time></trkpt><trkpt lat="43.7318505" lon="7.3108788"><ele>104.5</ele><time>2026-05-01T14:55:56.272Z</time></trkpt><trkpt lat="43.7319174" lon="7.3107551"><ele>105.0</ele><time>2026-05-01T14:55:58.272Z</time></trkpt><trkpt lat="43.731954" lon="7.3106783"><ele>105.50000000000001</ele><time>2026-05-01T14:55:59.272Z</time></trkpt><trkpt lat="43.7319998" lon="7.3106056"><ele>106.0</ele><time>2026-05-01T14:56:00.272Z</time></trkpt><trkpt lat="43.7321" lon="7.3104441"><ele>106.0</ele><time>2026-05-01T14:56:02.272Z</time></trkpt><trkpt lat="43.7321444" lon="7.3103744"><ele>106.0</ele><time>2026-05-01T14:56:03.272Z</time></trkpt><trkpt lat="43.7322316" lon="7.3102743"><ele>106.0</ele><time>2026-05-01T14:56:05.272Z</time></trkpt><trkpt lat="43.7323239" lon="7.3101876"><ele>106.0</ele><time>2026-05-01T14:56:07.273Z</time></trkpt><trkpt lat="43.7324243" lon="7.3101139"><ele>106.0</ele><time>2026-05-01T14:56:09.272Z</time></trkpt><trkpt lat="43.7324858" lon="7.310093"><ele>106.0</ele><time>2026-05-01T14:56:10.272Z</time></trkpt><trkpt lat="43.7325694" lon="7.3100193"><ele>106.0</ele><time>2026-05-01T14:56:12.273Z</time></trkpt><trkpt lat="43.7326012" lon="7.3099146"><ele>106.0</ele><time>2026-05-01T14:56:14.272Z</time></trkpt><trkpt lat="43.7325535" lon="7.3098001"><ele>106.0</ele><time>2026-05-01T14:56:16.273Z</time></trkpt><trkpt lat="43.7324471" lon="7.3097071"><ele>106.0</ele><time>2026-05-01T14:56:18.272Z</time></trkpt><trkpt lat="43.7323799" lon="7.3096578"><ele>103.6</ele><time>2026-05-01T14:56:19.273Z</time></trkpt><trkpt lat="43.7323191" lon="7.30959"><ele>101.19999999999999</ele><time>2026-05-01T14:56:20.272Z</time></trkpt><trkpt lat="43.7322829" lon="7.3095008"><ele>98.80000000000001</ele><time>2026-05-01T14:56:21.272Z</time></trkpt><trkpt lat="43.732238" lon="7.3092636"><ele>96.4</ele><time>2026-05-01T14:56:23.273Z</time></trkpt><trkpt lat="43.7322209" lon="7.309131"><ele>94.0</ele><time>2026-05-01T14:56:24.273Z</time></trkpt><trkpt lat="43.7322069" lon="7.3089891"><ele>91.6</ele><time>2026-05-01T14:56:25.273Z</time></trkpt><trkpt lat="43.732186" lon="7.3088444"><ele>89.2</ele><time>2026-05-01T14:56:26.272Z</time></trkpt><trkpt lat="43.7321632" lon="7.3087005"><ele>86.8</ele><time>2026-05-01T14:56:27.273Z</time></trkpt><trkpt lat="43.7321381" lon="7.3085521"><ele>84.39999999999999</ele><time>2026-05-01T14:56:28.272Z</time></trkpt><trkpt lat="43.732119" lon="7.3083994"><ele>82.0</ele><time>2026-05-01T14:56:29.272Z</time></trkpt><trkpt lat="43.7320997" lon="7.3082445"><ele>82.0</ele><time>2026-05-01T14:56:30.272Z</time></trkpt><trkpt lat="43.7320905" lon="7.3080972"><ele>82.0</ele><time>2026-05-01T14:56:31.272Z</time></trkpt><trkpt lat="43.7320871" lon="7.3079508"><ele>82.0</ele><time>2026-05-01T14:56:32.273Z</time></trkpt><trkpt lat="43.7320827" lon="7.3077988"><ele>82.0</ele><time>2026-05-01T14:56:33.272Z</time></trkpt><trkpt lat="43.7320703" lon="7.3076595"><ele>82.0</ele><time>2026-05-01T14:56:34.272Z</time></trkpt><trkpt lat="43.7320468" lon="7.307525"><ele>80.5</ele><time>2026-05-01T14:56:35.272Z</time></trkpt><trkpt lat="43.7320445" lon="7.3074086"><ele>79.0</ele><time>2026-05-01T14:56:36.272Z</time></trkpt><trkpt lat="43.7320631" lon="7.3073067"><ele>77.5</ele><time>2026-05-01T14:56:37.272Z</time></trkpt><trkpt lat="43.7320965" lon="7.3072178"><ele>76.0</ele><time>2026-05-01T14:56:38.272Z</time></trkpt><trkpt lat="43.7321468" lon="7.3071382"><ele>74.5</ele><time>2026-05-01T14:56:39.272Z</time></trkpt><trkpt lat="43.7322043" lon="7.30706"><ele>73.0</ele><time>2026-05-01T14:56:40.272Z</time></trkpt><trkpt lat="43.7322634" lon="7.3069866"><ele>73.0</ele><time>2026-05-01T14:56:41.272Z</time></trkpt><trkpt lat="43.7323224" lon="7.3069311"><ele>73.0</ele><time>2026-05-01T14:56:42.272Z</time></trkpt><trkpt lat="43.7325357" lon="7.3069027"><ele>73.0</ele><time>2026-05-01T14:56:45.272Z</time></trkpt><trkpt lat="43.732633" lon="7.3069261"><ele>73.0</ele><time>2026-05-01T14:56:46.272Z</time></trkpt><trkpt lat="43.7327451" lon="7.3069626"><ele>71.8</ele><time>2026-05-01T14:56:47.272Z</time></trkpt><trkpt lat="43.7328553" lon="7.3069942"><ele>70.6</ele><time>2026-05-01T14:56:48.272Z</time></trkpt><trkpt lat="43.7329652" lon="7.3070083"><ele>69.4</ele><time>2026-05-01T14:56:49.272Z</time></trkpt><trkpt lat="43.733076" lon="7.3069973"><ele>68.2</ele><time>2026-05-01T14:56:50.272Z</time></trkpt><trkpt lat="43.7331828" lon="7.3069823"><ele>67.0</ele><time>2026-05-01T14:56:51.272Z</time></trkpt><trkpt lat="43.7332829" lon="7.3069544"><ele>67.0</ele><time>2026-05-01T14:56:52.272Z</time></trkpt><trkpt lat="43.733382" lon="7.3069123"><ele>67.0</ele><time>2026-05-01T14:56:53.272Z</time></trkpt><trkpt lat="43.7334776" lon="7.306859"><ele>67.0</ele><time>2026-05-01T14:56:54.272Z</time></trkpt><trkpt lat="43.7335587" lon="7.3068122"><ele>67.0</ele><time>2026-05-01T14:56:55.273Z</time></trkpt><trkpt lat="43.7336362" lon="7.3067678"><ele>67.0</ele><time>2026-05-01T14:56:56.272Z</time></trkpt><trkpt lat="43.7337165" lon="7.3067096"><ele>66.4</ele><time>2026-05-01T14:56:57.273Z</time></trkpt><trkpt lat="43.7338032" lon="7.3066256"><ele>65.80000000000001</ele><time>2026-05-01T14:56:58.272Z</time></trkpt><trkpt lat="43.7338818" lon="7.3065348"><ele>65.2</ele><time>2026-05-01T14:56:59.272Z</time></trkpt><trkpt lat="43.7339705" lon="7.3064415"><ele>64.60000000000001</ele><time>2026-05-01T14:57:00.272Z</time></trkpt><trkpt lat="43.7340642" lon="7.3063484"><ele>64.0</ele><time>2026-05-01T14:57:01.272Z</time></trkpt><trkpt lat="43.7341596" lon="7.3062664"><ele>62.33333333333333</ele><time>2026-05-01T14:57:02.272Z</time></trkpt><trkpt lat="43.734252" lon="7.3061686"><ele>60.66666666666667</ele><time>2026-05-01T14:57:03.272Z</time></trkpt><trkpt lat="43.734447" lon="7.3059893"><ele>59.0</ele><time>2026-05-01T14:57:05.272Z</time></trkpt><trkpt lat="43.7345422" lon="7.3058962"><ele>59.00000000000001</ele><time>2026-05-01T14:57:06.272Z</time></trkpt><trkpt lat="43.7346304" lon="7.3058272"><ele>59.0</ele><time>2026-05-01T14:57:07.272Z</time></trkpt><trkpt lat="43.7347098" lon="7.3057698"><ele>59.0</ele><time>2026-05-01T14:57:08.272Z</time></trkpt><trkpt lat="43.7347905" lon="7.3057066"><ele>59.0</ele><time>2026-05-01T14:57:09.272Z</time></trkpt><trkpt lat="43.7348612" lon="7.3056572"><ele>59.00000000000001</ele><time>2026-05-01T14:57:10.272Z</time></trkpt><trkpt lat="43.7349199" lon="7.3056114"><ele>59.0</ele><time>2026-05-01T14:57:11.272Z</time></trkpt><trkpt lat="43.734992" lon="7.3055518"><ele>59.00000000000001</ele><time>2026-05-01T14:57:13.272Z</time></trkpt><trkpt lat="43.7350384" lon="7.3054767"><ele>59.0</ele><time>2026-05-01T14:57:17.273Z</time></trkpt><trkpt lat="43.7350186" lon="7.3053393"><ele>59.0</ele><time>2026-05-01T14:57:19.272Z</time></trkpt><trkpt lat="43.7349888" lon="7.3052383"><ele>59.0</ele><time>2026-05-01T14:57:20.272Z</time></trkpt><trkpt lat="43.7349481" lon="7.3051286"><ele>59.00000000000001</ele><time>2026-05-01T14:57:21.272Z</time></trkpt><trkpt lat="43.7349011" lon="7.3050013"><ele>59.0</ele><time>2026-05-01T14:57:22.272Z</time></trkpt><trkpt lat="43.7348521" lon="7.3048714"><ele>58.333333333333336</ele><time>2026-05-01T14:57:23.272Z</time></trkpt><trkpt lat="43.7347989" lon="7.3047239"><ele>57.66666666666667</ele><time>2026-05-01T14:57:24.272Z</time></trkpt><trkpt lat="43.7346874" lon="7.3044082"><ele>57.0</ele><time>2026-05-01T14:57:26.272Z</time></trkpt><trkpt lat="43.7346275" lon="7.304239"><ele>57.0</ele><time>2026-05-01T14:57:27.272Z</time></trkpt><trkpt lat="43.734569" lon="7.3040515"><ele>57.0</ele><time>2026-05-01T14:57:28.272Z</time></trkpt><trkpt lat="43.734515" lon="7.3038568"><ele>57.0</ele><time>2026-05-01T14:57:29.272Z</time></trkpt><trkpt lat="43.7344628" lon="7.3036445"><ele>57.0</ele><time>2026-05-01T14:57:30.272Z</time></trkpt><trkpt lat="43.7344065" lon="7.3034269"><ele>57.0</ele><time>2026-05-01T14:57:31.272Z</time></trkpt><trkpt lat="43.7343562" lon="7.3032107"><ele>57.0</ele><time>2026-05-01T14:57:32.272Z</time></trkpt><trkpt lat="43.73431" lon="7.303003"><ele>57.0</ele><time>2026-05-01T14:57:33.272Z</time></trkpt><trkpt lat="43.7342683" lon="7.3028029"><ele>57.0</ele><time>2026-05-01T14:57:34.272Z</time></trkpt><trkpt lat="43.7342326" lon="7.3026231"><ele>57.0</ele><time>2026-05-01T14:57:35.273Z</time></trkpt><trkpt lat="43.7342091" lon="7.3024538"><ele>57.0</ele><time>2026-05-01T14:57:36.272Z</time></trkpt><trkpt lat="43.7341831" lon="7.302284"><ele>57.0</ele><time>2026-05-01T14:57:37.272Z</time></trkpt><trkpt lat="43.7341611" lon="7.3021199"><ele>57.0</ele><time>2026-05-01T14:57:38.272Z</time></trkpt><trkpt lat="43.7341453" lon="7.3019613"><ele>57.0</ele><time>2026-05-01T14:57:39.273Z</time></trkpt><trkpt lat="43.7341327" lon="7.3018061"><ele>57.0</ele><time>2026-05-01T14:57:40.272Z</time></trkpt><trkpt lat="43.7341193" lon="7.3016654"><ele>57.0</ele><time>2026-05-01T14:57:41.272Z</time></trkpt><trkpt lat="43.7340973" lon="7.3015284"><ele>57.0</ele><time>2026-05-01T14:57:42.273Z</time></trkpt><trkpt lat="43.7340767" lon="7.3013882"><ele>57.0</ele><time>2026-05-01T14:57:43.272Z</time></trkpt><trkpt lat="43.7340562" lon="7.3012441"><ele>57.0</ele><time>2026-05-01T14:57:44.272Z</time></trkpt><trkpt lat="43.7340329" lon="7.3010885"><ele>57.0</ele><time>2026-05-01T14:57:45.272Z</time></trkpt><trkpt lat="43.7339914" lon="7.3006969"><ele>56.33333333333333</ele><time>2026-05-01T14:57:47.273Z</time></trkpt><trkpt lat="43.7339589" lon="7.3004915"><ele>55.666666666666664</ele><time>2026-05-01T14:57:48.272Z</time></trkpt><trkpt lat="43.7339195" lon="7.300268"><ele>55.0</ele><time>2026-05-01T14:57:49.272Z</time></trkpt><trkpt lat="43.7338851" lon="7.3000485"><ele>55.0</ele><time>2026-05-01T14:57:50.272Z</time></trkpt><trkpt lat="43.7338564" lon="7.2998304"><ele>55.0</ele><time>2026-05-01T14:57:51.273Z</time></trkpt><trkpt lat="43.7338206" lon="7.2996182"><ele>55.0</ele><time>2026-05-01T14:57:52.273Z</time></trkpt><trkpt lat="43.7337813" lon="7.2994066"><ele>55.0</ele><time>2026-05-01T14:57:53.272Z</time></trkpt><trkpt lat="43.7337586" lon="7.2991892"><ele>55.0</ele><time>2026-05-01T14:57:54.272Z</time></trkpt><trkpt lat="43.7337368" lon="7.2989823"><ele>55.0</ele><time>2026-05-01T14:57:55.272Z</time></trkpt><trkpt lat="43.7337124" lon="7.2987774"><ele>55.0</ele><time>2026-05-01T14:57:56.272Z</time></trkpt><trkpt lat="43.733689" lon="7.2985718"><ele>55.0</ele><time>2026-05-01T14:57:57.272Z</time></trkpt><trkpt lat="43.7336632" lon="7.2983648"><ele>55.0</ele><time>2026-05-01T14:57:58.272Z</time></trkpt><trkpt lat="43.7336337" lon="7.2981504"><ele>54.0</ele><time>2026-05-01T14:57:59.272Z</time></trkpt><trkpt lat="43.7336025" lon="7.2979397"><ele>53.0</ele><time>2026-05-01T14:58:00.272Z</time></trkpt><trkpt lat="43.7335747" lon="7.297737"><ele>52.0</ele><time>2026-05-01T14:58:01.272Z</time></trkpt><trkpt lat="43.7335526" lon="7.2975435"><ele>51.0</ele><time>2026-05-01T14:58:02.272Z</time></trkpt><trkpt lat="43.7335328" lon="7.2973424"><ele>56.0</ele><time>2026-05-01T14:58:03.272Z</time></trkpt><trkpt lat="43.7335068" lon="7.2971404"><ele>61.0</ele><time>2026-05-01T14:58:04.272Z</time></trkpt><trkpt lat="43.7334801" lon="7.2969307"><ele>66.0</ele><time>2026-05-01T14:58:05.272Z</time></trkpt><trkpt lat="43.7334566" lon="7.2967173"><ele>63.0</ele><time>2026-05-01T14:58:06.272Z</time></trkpt><trkpt lat="43.7334094" lon="7.2963009"><ele>60.0</ele><time>2026-05-01T14:58:08.272Z</time></trkpt><trkpt lat="43.7333848" lon="7.2960886"><ele>60.0</ele><time>2026-05-01T14:58:09.272Z</time></trkpt><trkpt lat="43.7333626" lon="7.2958866"><ele>60.0</ele><time>2026-05-01T14:58:10.272Z</time></trkpt><trkpt lat="43.7333419" lon="7.2956906"><ele>60.0</ele><time>2026-05-01T14:58:11.272Z</time></trkpt><trkpt lat="43.7333124" lon="7.2954996"><ele>60.0</ele><time>2026-05-01T14:58:12.272Z</time></trkpt><trkpt lat="43.7332872" lon="7.2953043"><ele>58.0</ele><time>2026-05-01T14:58:13.272Z</time></trkpt><trkpt lat="43.7332621" lon="7.2951052"><ele>56.0</ele><time>2026-05-01T14:58:14.272Z</time></trkpt><trkpt lat="43.7332371" lon="7.2949095"><ele>54.0</ele><time>2026-05-01T14:58:15.272Z</time></trkpt><trkpt lat="43.7332089" lon="7.2947103"><ele>52.0</ele><time>2026-05-01T14:58:16.272Z</time></trkpt><trkpt lat="43.7331784" lon="7.2945023"><ele>51.75</ele><time>2026-05-01T14:58:17.273Z</time></trkpt><trkpt lat="43.7331466" lon="7.2942958"><ele>51.5</ele><time>2026-05-01T14:58:18.272Z</time></trkpt><trkpt lat="43.7331298" lon="7.2940973"><ele>51.25</ele><time>2026-05-01T14:58:19.272Z</time></trkpt><trkpt lat="43.7331121" lon="7.2938884"><ele>51.0</ele><time>2026-05-01T14:58:20.272Z</time></trkpt><trkpt lat="43.7330925" lon="7.2936771"><ele>51.0</ele><time>2026-05-01T14:58:21.272Z</time></trkpt><trkpt lat="43.7330641" lon="7.2934627"><ele>51.0</ele><time>2026-05-01T14:58:22.272Z</time></trkpt><trkpt lat="43.7330443" lon="7.2932584"><ele>51.0</ele><time>2026-05-01T14:58:23.273Z</time></trkpt><trkpt lat="43.733022" lon="7.2930647"><ele>51.0</ele><time>2026-05-01T14:58:24.272Z</time></trkpt><trkpt lat="43.7330005" lon="7.2928811"><ele>51.0</ele><time>2026-05-01T14:58:25.272Z</time></trkpt><trkpt lat="43.7329814" lon="7.2927014"><ele>51.0</ele><time>2026-05-01T14:58:26.272Z</time></trkpt><trkpt lat="43.7329756" lon="7.2925165"><ele>51.0</ele><time>2026-05-01T14:58:27.272Z</time></trkpt><trkpt lat="43.7329188" lon="7.2921499"><ele>50.5</ele><time>2026-05-01T14:58:29.272Z</time></trkpt><trkpt lat="43.732869" lon="7.2919725"><ele>50.0</ele><time>2026-05-01T14:58:30.273Z</time></trkpt><trkpt lat="43.732826" lon="7.2917951"><ele>49.5</ele><time>2026-05-01T14:58:31.272Z</time></trkpt><trkpt lat="43.7327721" lon="7.291622"><ele>49.0</ele><time>2026-05-01T14:58:32.272Z</time></trkpt><trkpt lat="43.732695" lon="7.2914534"><ele>49.33333333333333</ele><time>2026-05-01T14:58:33.272Z</time></trkpt><trkpt lat="43.7325908" lon="7.2912963"><ele>49.66666666666667</ele><time>2026-05-01T14:58:34.272Z</time></trkpt><trkpt lat="43.7324977" lon="7.2911377"><ele>50.0</ele><time>2026-05-01T14:58:35.273Z</time></trkpt><trkpt lat="43.7324056" lon="7.2909777"><ele>50.0</ele><time>2026-05-01T14:58:36.272Z</time></trkpt><trkpt lat="43.7323267" lon="7.2908186"><ele>50.0</ele><time>2026-05-01T14:58:37.273Z</time></trkpt><trkpt lat="43.7322417" lon="7.2906553"><ele>50.0</ele><time>2026-05-01T14:58:38.272Z</time></trkpt><trkpt lat="43.7321587" lon="7.2905114"><ele>50.0</ele><time>2026-05-01T14:58:39.272Z</time></trkpt><trkpt lat="43.7320702" lon="7.2903738"><ele>50.0</ele><time>2026-05-01T14:58:40.272Z</time></trkpt><trkpt lat="43.7319947" lon="7.2902424"><ele>50.0</ele><time>2026-05-01T14:58:41.272Z</time></trkpt><trkpt lat="43.7319279" lon="7.290113"><ele>50.0</ele><time>2026-05-01T14:58:42.272Z</time></trkpt><trkpt lat="43.7318589" lon="7.2900002"><ele>50.0</ele><time>2026-05-01T14:58:43.273Z</time></trkpt><trkpt lat="43.7318107" lon="7.2898809"><ele>50.0</ele><time>2026-05-01T14:58:44.272Z</time></trkpt><trkpt lat="43.731753" lon="7.2897835"><ele>49.4</ele><time>2026-05-01T14:58:45.272Z</time></trkpt><trkpt lat="43.7316997" lon="7.2896846"><ele>48.8</ele><time>2026-05-01T14:58:46.272Z</time></trkpt><trkpt lat="43.7316508" lon="7.2895871"><ele>48.2</ele><time>2026-05-01T14:58:47.272Z</time></trkpt><trkpt lat="43.7315988" lon="7.2894976"><ele>47.6</ele><time>2026-05-01T14:58:48.273Z</time></trkpt><trkpt lat="43.7314925" lon="7.289299"><ele>47.0</ele><time>2026-05-01T14:58:50.273Z</time></trkpt><trkpt lat="43.7314247" lon="7.2891869"><ele>47.0</ele><time>2026-05-01T14:58:51.272Z</time></trkpt><trkpt lat="43.7313572" lon="7.2890627"><ele>47.0</ele><time>2026-05-01T14:58:52.272Z</time></trkpt><trkpt lat="43.7312931" lon="7.2889489"><ele>47.0</ele><time>2026-05-01T14:58:53.273Z</time></trkpt><trkpt lat="43.731243" lon="7.2888409"><ele>47.0</ele><time>2026-05-01T14:58:54.272Z</time></trkpt><trkpt lat="43.731193" lon="7.2887504"><ele>47.0</ele><time>2026-05-01T14:58:55.272Z</time></trkpt><trkpt lat="43.7311396" lon="7.2886523"><ele>46.83333333333333</ele><time>2026-05-01T14:58:57.273Z</time></trkpt><trkpt lat="43.7311036" lon="7.2885806"><ele>46.666666666666664</ele><time>2026-05-01T14:59:00.272Z</time></trkpt><trkpt lat="43.7310496" lon="7.2884467"><ele>46.5</ele><time>2026-05-01T14:59:02.272Z</time></trkpt><trkpt lat="43.7310142" lon="7.2883711"><ele>46.333333333333336</ele><time>2026-05-01T14:59:03.272Z</time></trkpt><trkpt lat="43.7309306" lon="7.2882358"><ele>46.16666666666667</ele><time>2026-05-01T14:59:05.272Z</time></trkpt><trkpt lat="43.7308888" lon="7.2881533"><ele>46.0</ele><time>2026-05-01T14:59:06.272Z</time></trkpt><trkpt lat="43.7308519" lon="7.288058"><ele>46.4</ele><time>2026-05-01T14:59:07.272Z</time></trkpt><trkpt lat="43.7308244" lon="7.287952"><ele>46.8</ele><time>2026-05-01T14:59:08.273Z</time></trkpt><trkpt lat="43.7307948" lon="7.2878595"><ele>47.199999999999996</ele><time>2026-05-01T14:59:09.273Z</time></trkpt><trkpt lat="43.7307371" lon="7.2875998"><ele>47.599999999999994</ele><time>2026-05-01T14:59:12.272Z</time></trkpt><trkpt lat="43.7307334" lon="7.2875115"><ele>48.0</ele><time>2026-05-01T14:59:13.272Z</time></trkpt><trkpt lat="43.7307342" lon="7.2873391"><ele>48.2</ele><time>2026-05-01T14:59:15.272Z</time></trkpt><trkpt lat="43.7307447" lon="7.2872057"><ele>48.4</ele><time>2026-05-01T14:59:17.272Z</time></trkpt><trkpt lat="43.7307674" lon="7.2871142"><ele>48.6</ele><time>2026-05-01T14:59:19.272Z</time></trkpt><trkpt lat="43.7307961" lon="7.2870231"><ele>48.800000000000004</ele><time>2026-05-01T14:59:31.272Z</time></trkpt><trkpt lat="43.7308946" lon="7.2868783"><ele>49.0</ele><time>2026-05-01T14:59:36.272Z</time></trkpt><trkpt lat="43.7309488" lon="7.2868143"><ele>49.0</ele><time>2026-05-01T14:59:39.272Z</time></trkpt><trkpt lat="43.7310139" lon="7.2867652"><ele>49.0</ele><time>2026-05-01T14:59:48.272Z</time></trkpt><trkpt lat="43.7310786" lon="7.286745"><ele>49.0</ele><time>2026-05-01T14:59:51.272Z</time></trkpt><trkpt lat="43.731188" lon="7.2866937"><ele>49.0</ele><time>2026-05-01T15:00:10.272Z</time></trkpt><trkpt lat="43.7313198" lon="7.2866312"><ele>49.0</ele><time>2026-05-01T15:00:12.272Z</time></trkpt><trkpt lat="43.731384" lon="7.2865951"><ele>48.33333333333333</ele><time>2026-05-01T15:00:13.272Z</time></trkpt><trkpt lat="43.7314566" lon="7.2865619"><ele>47.666666666666664</ele><time>2026-05-01T15:00:14.272Z</time></trkpt><trkpt lat="43.7315294" lon="7.2865174"><ele>47.0</ele><time>2026-05-01T15:00:15.272Z</time></trkpt><trkpt lat="43.7316101" lon="7.2864659"><ele>46.33333333333333</ele><time>2026-05-01T15:00:16.272Z</time></trkpt><trkpt lat="43.7316907" lon="7.2864122"><ele>45.666666666666664</ele><time>2026-05-01T15:00:17.272Z</time></trkpt><trkpt lat="43.7317816" lon="7.286353"><ele>45.0</ele><time>2026-05-01T15:00:18.273Z</time></trkpt><trkpt lat="43.7318782" lon="7.2862938"><ele>45.0</ele><time>2026-05-01T15:00:19.272Z</time></trkpt><trkpt lat="43.731966" lon="7.2862368"><ele>45.0</ele><time>2026-05-01T15:00:20.272Z</time></trkpt><trkpt lat="43.732042" lon="7.2861831"><ele>45.0</ele><time>2026-05-01T15:00:21.272Z</time></trkpt><trkpt lat="43.7321149" lon="7.2861258"><ele>45.0</ele><time>2026-05-01T15:00:22.272Z</time></trkpt><trkpt lat="43.7321863" lon="7.2860553"><ele>45.0</ele><time>2026-05-01T15:00:23.272Z</time></trkpt><trkpt lat="43.7322566" lon="7.2859761"><ele>45.0</ele><time>2026-05-01T15:00:24.272Z</time></trkpt><trkpt lat="43.7323236" lon="7.2858869"><ele>45.0</ele><time>2026-05-01T15:00:25.272Z</time></trkpt><trkpt lat="43.7323928" lon="7.2857835"><ele>45.0</ele><time>2026-05-01T15:00:26.272Z</time></trkpt><trkpt lat="43.7324618" lon="7.2856789"><ele>45.0</ele><time>2026-05-01T15:00:27.272Z</time></trkpt><trkpt lat="43.7325421" lon="7.2855817"><ele>45.0</ele><time>2026-05-01T15:00:28.272Z</time></trkpt><trkpt lat="43.732629" lon="7.2854999"><ele>45.0</ele><time>2026-05-01T15:00:29.272Z</time></trkpt><trkpt lat="43.7327382" lon="7.2854341"><ele>48.33333333333333</ele><time>2026-05-01T15:00:30.272Z</time></trkpt><trkpt lat="43.732866" lon="7.2853914"><ele>51.666666666666664</ele><time>2026-05-01T15:00:31.272Z</time></trkpt><trkpt lat="43.7331268" lon="7.2853618"><ele>55.0</ele><time>2026-05-01T15:00:33.272Z</time></trkpt><trkpt lat="43.7332476" lon="7.2853969"><ele>55.0</ele><time>2026-05-01T15:00:34.272Z</time></trkpt><trkpt lat="43.7333753" lon="7.2854764"><ele>55.0</ele><time>2026-05-01T15:00:35.273Z</time></trkpt><trkpt lat="43.7334912" lon="7.285584"><ele>55.0</ele><time>2026-05-01T15:00:36.272Z</time></trkpt><trkpt lat="43.7335711" lon="7.2857196"><ele>55.0</ele><time>2026-05-01T15:00:37.273Z</time></trkpt><trkpt lat="43.7336679" lon="7.285871"><ele>54.75</ele><time>2026-05-01T15:00:38.273Z</time></trkpt><trkpt lat="43.7337658" lon="7.2860329"><ele>54.5</ele><time>2026-05-01T15:00:39.272Z</time></trkpt><trkpt lat="43.7338395" lon="7.2861941"><ele>54.25</ele><time>2026-05-01T15:00:40.272Z</time></trkpt><trkpt lat="43.7338959" lon="7.2863828"><ele>54.0</ele><time>2026-05-01T15:00:41.272Z</time></trkpt><trkpt lat="43.7339457" lon="7.2865884"><ele>53.33333333333333</ele><time>2026-05-01T15:00:42.273Z</time></trkpt><trkpt lat="43.7339936" lon="7.286788"><ele>52.666666666666664</ele><time>2026-05-01T15:00:43.272Z</time></trkpt><trkpt lat="43.7340433" lon="7.2869899"><ele>52.0</ele><time>2026-05-01T15:00:44.273Z</time></trkpt><trkpt lat="43.7340802" lon="7.2871943"><ele>53.0</ele><time>2026-05-01T15:00:45.272Z</time></trkpt><trkpt lat="43.734125" lon="7.2873954"><ele>54.0</ele><time>2026-05-01T15:00:46.272Z</time></trkpt><trkpt lat="43.734167" lon="7.2875964"><ele>55.0</ele><time>2026-05-01T15:00:47.273Z</time></trkpt><trkpt lat="43.7342185" lon="7.2877796"><ele>56.0</ele><time>2026-05-01T15:00:48.272Z</time></trkpt><trkpt lat="43.7342771" lon="7.2879541"><ele>56.25</ele><time>2026-05-01T15:00:49.272Z</time></trkpt><trkpt lat="43.734324" lon="7.2881395"><ele>56.5</ele><time>2026-05-01T15:00:50.272Z</time></trkpt><trkpt lat="43.7343481" lon="7.2883277"><ele>56.75</ele><time>2026-05-01T15:00:51.272Z</time></trkpt><trkpt lat="43.7343561" lon="7.2885145"><ele>57.0</ele><time>2026-05-01T15:00:52.272Z</time></trkpt><trkpt lat="43.7342922" lon="7.2888428"><ele>57.75</ele><time>2026-05-01T15:00:54.272Z</time></trkpt><trkpt lat="43.7342157" lon="7.2889344"><ele>58.5</ele><time>2026-05-01T15:00:55.272Z</time></trkpt><trkpt lat="43.7341027" lon="7.2890012"><ele>59.25</ele><time>2026-05-01T15:00:56.272Z</time></trkpt><trkpt lat="43.7339792" lon="7.2890143"><ele>60.0</ele><time>2026-05-01T15:00:57.272Z</time></trkpt><trkpt lat="43.7338635" lon="7.2889648"><ele>59.25</ele><time>2026-05-01T15:00:58.272Z</time></trkpt><trkpt lat="43.7337615" lon="7.2888574"><ele>58.5</ele><time>2026-05-01T15:00:59.272Z</time></trkpt><trkpt lat="43.7336901" lon="7.2887159"><ele>57.75</ele><time>2026-05-01T15:01:00.272Z</time></trkpt><trkpt lat="43.7336692" lon="7.288533"><ele>57.0</ele><time>2026-05-01T15:01:01.272Z</time></trkpt><trkpt lat="43.7336749" lon="7.2883278"><ele>57.0</ele><time>2026-05-01T15:01:02.272Z</time></trkpt><trkpt lat="43.7336992" lon="7.2881048"><ele>57.0</ele><time>2026-05-01T15:01:03.272Z</time></trkpt><trkpt lat="43.7337221" lon="7.287873"><ele>57.0</ele><time>2026-05-01T15:01:04.273Z</time></trkpt><trkpt lat="43.7337484" lon="7.2876221"><ele>56.66666666666667</ele><time>2026-05-01T15:01:05.272Z</time></trkpt><trkpt lat="43.7337765" lon="7.2873515"><ele>56.333333333333336</ele><time>2026-05-01T15:01:06.272Z</time></trkpt><trkpt lat="43.7337998" lon="7.2870849"><ele>56.0</ele><time>2026-05-01T15:01:07.273Z</time></trkpt><trkpt lat="43.733825" lon="7.2868335"><ele>55.333333333333336</ele><time>2026-05-01T15:01:08.272Z</time></trkpt><trkpt lat="43.7338518" lon="7.2865752"><ele>54.66666666666667</ele><time>2026-05-01T15:01:09.272Z</time></trkpt><trkpt lat="43.7338701" lon="7.2863296"><ele>54.0</ele><time>2026-05-01T15:01:10.272Z</time></trkpt><trkpt lat="43.7338819" lon="7.2860853"><ele>54.0</ele><time>2026-05-01T15:01:11.272Z</time></trkpt><trkpt lat="43.7338903" lon="7.2858281"><ele>54.0</ele><time>2026-05-01T15:01:12.273Z</time></trkpt><trkpt lat="43.7338858" lon="7.2855555"><ele>54.0</ele><time>2026-05-01T15:01:13.272Z</time></trkpt><trkpt lat="43.7338412" lon="7.2849412"><ele>63.5</ele><time>2026-05-01T15:01:15.272Z</time></trkpt><trkpt lat="43.7338008" lon="7.284617"><ele>73.0</ele><time>2026-05-01T15:01:16.273Z</time></trkpt><trkpt lat="43.7337504" lon="7.2843019"><ele>73.0</ele><time>2026-05-01T15:01:17.272Z</time></trkpt><trkpt lat="43.7337012" lon="7.2839902"><ele>73.0</ele><time>2026-05-01T15:01:18.271Z</time></trkpt><trkpt lat="43.7336473" lon="7.2836893"><ele>86.66666666666666</ele><time>2026-05-01T15:01:19.271Z</time></trkpt><trkpt lat="43.733604" lon="7.2833936"><ele>100.33333333333333</ele><time>2026-05-01T15:01:20.271Z</time></trkpt><trkpt lat="43.7335698" lon="7.2831295"><ele>114.0</ele><time>2026-05-01T15:01:21.271Z</time></trkpt><trkpt lat="43.7335296" lon="7.2828462"><ele>115.66666666666666</ele><time>2026-05-01T15:01:22.271Z</time></trkpt><trkpt lat="43.7334866" lon="7.2825624"><ele>117.33333333333333</ele><time>2026-05-01T15:01:23.271Z</time></trkpt><trkpt lat="43.7334432" lon="7.2822765"><ele>119.0</ele><time>2026-05-01T15:01:24.271Z</time></trkpt><trkpt lat="43.7322517" lon="7.2789483"><ele>133.0</ele><time>2026-05-01T15:01:37.274Z</time></trkpt><trkpt lat="43.7320166" lon="7.2783633"><ele>133.66666666666669</ele><time>2026-05-01T15:01:39.274Z</time></trkpt><trkpt lat="43.7319364" lon="7.278081"><ele>134.33333333333334</ele><time>2026-05-01T15:01:40.274Z</time></trkpt><trkpt lat="43.7318852" lon="7.2777887"><ele>135.0</ele><time>2026-05-01T15:01:41.274Z</time></trkpt><trkpt lat="43.7318387" lon="7.2774865"><ele>142.0</ele><time>2026-05-01T15:01:42.274Z</time></trkpt><trkpt lat="43.731787" lon="7.2771872"><ele>149.0</ele><time>2026-05-01T15:01:43.274Z</time></trkpt><trkpt lat="43.7317349" lon="7.2768886"><ele>156.0</ele><time>2026-05-01T15:01:44.274Z</time></trkpt><trkpt lat="43.7316821" lon="7.2765866"><ele>160.0</ele><time>2026-05-01T15:01:45.274Z</time></trkpt><trkpt lat="43.7316298" lon="7.2762823"><ele>164.0</ele><time>2026-05-01T15:01:46.274Z</time></trkpt><trkpt lat="43.7319233" lon="7.2719983"><ele>122.0</ele><time>2026-05-01T15:01:59.274Z</time></trkpt><trkpt lat="43.732035" lon="7.2713875"><ele>122.0</ele><time>2026-05-01T15:02:01.274Z</time></trkpt><trkpt lat="43.7320323" lon="7.2710872"><ele>122.0</ele><time>2026-05-01T15:02:02.275Z</time></trkpt><trkpt lat="43.7320356" lon="7.2707736"><ele>122.0</ele><time>2026-05-01T15:02:03.274Z</time></trkpt><trkpt lat="43.7320347" lon="7.2704591"><ele>127.66666666666666</ele><time>2026-05-01T15:02:04.274Z</time></trkpt><trkpt lat="43.7320317" lon="7.2701653"><ele>133.33333333333334</ele><time>2026-05-01T15:02:05.274Z</time></trkpt><trkpt lat="43.7320173" lon="7.2698682"><ele>139.0</ele><time>2026-05-01T15:02:06.275Z</time></trkpt><trkpt lat="43.7319908" lon="7.2695671"><ele>141.0</ele><time>2026-05-01T15:02:07.274Z</time></trkpt><trkpt lat="43.7319391" lon="7.2692573"><ele>143.0</ele><time>2026-05-01T15:02:08.274Z</time></trkpt><trkpt lat="43.7318682" lon="7.2689504"><ele>139.5</ele><time>2026-05-01T15:02:09.275Z</time></trkpt><trkpt lat="43.7317815" lon="7.2686545"><ele>136.0</ele><time>2026-05-01T15:02:10.274Z</time></trkpt><trkpt lat="43.7316797" lon="7.2683631"><ele>139.0</ele><time>2026-05-01T15:02:11.274Z</time></trkpt><trkpt lat="43.7315505" lon="7.268087"><ele>142.0</ele><time>2026-05-01T15:02:12.274Z</time></trkpt><trkpt lat="43.7314133" lon="7.2678231"><ele>142.0</ele><time>2026-05-01T15:02:13.274Z</time></trkpt><trkpt lat="43.7312601" lon="7.267584"><ele>142.0</ele><time>2026-05-01T15:02:14.275Z</time></trkpt><trkpt lat="43.7310924" lon="7.267361"><ele>144.5</ele><time>2026-05-01T15:02:15.274Z</time></trkpt><trkpt lat="43.7309077" lon="7.2671506"><ele>147.0</ele><time>2026-05-01T15:02:16.274Z</time></trkpt><trkpt lat="43.7307158" lon="7.2669524"><ele>147.0</ele><time>2026-05-01T15:02:17.275Z</time></trkpt><trkpt lat="43.7305177" lon="7.2667513"><ele>147.0</ele><time>2026-05-01T15:02:18.274Z</time></trkpt><trkpt lat="43.7303222" lon="7.2665444"><ele>148.5</ele><time>2026-05-01T15:02:19.274Z</time></trkpt><trkpt lat="43.7301356" lon="7.2663349"><ele>150.0</ele><time>2026-05-01T15:02:20.274Z</time></trkpt><trkpt lat="43.7297809" lon="7.2658883"><ele>150.0</ele><time>2026-05-01T15:02:22.274Z</time></trkpt><trkpt lat="43.7296201" lon="7.265645"><ele>150.0</ele><time>2026-05-01T15:02:23.274Z</time></trkpt><trkpt lat="43.7294788" lon="7.2653739"><ele>149.0</ele><time>2026-05-01T15:02:24.274Z</time></trkpt><trkpt lat="43.7293651" lon="7.2650783"><ele>148.0</ele><time>2026-05-01T15:02:25.274Z</time></trkpt><trkpt lat="43.729262" lon="7.2647761"><ele>148.0</ele><time>2026-05-01T15:02:26.274Z</time></trkpt><trkpt lat="43.7291741" lon="7.2644509"><ele>148.0</ele><time>2026-05-01T15:02:27.274Z</time></trkpt><trkpt lat="43.7291028" lon="7.2641068"><ele>149.0</ele><time>2026-05-01T15:02:28.274Z</time></trkpt><trkpt lat="43.7290385" lon="7.2637702"><ele>150.0</ele><time>2026-05-01T15:02:29.275Z</time></trkpt><trkpt lat="43.7289685" lon="7.2634255"><ele>149.5</ele><time>2026-05-01T15:02:30.274Z</time></trkpt><trkpt lat="43.7289039" lon="7.2630937"><ele>149.0</ele><time>2026-05-01T15:02:31.274Z</time></trkpt><trkpt lat="43.7288531" lon="7.2627675"><ele>149.0</ele><time>2026-05-01T15:02:32.274Z</time></trkpt><trkpt lat="43.7287916" lon="7.2624139"><ele>149.0</ele><time>2026-05-01T15:02:33.274Z</time></trkpt><trkpt lat="43.7287412" lon="7.2620571"><ele>148.5</ele><time>2026-05-01T15:02:34.274Z</time></trkpt><trkpt lat="43.7286981" lon="7.261707"><ele>148.0</ele><time>2026-05-01T15:02:35.274Z</time></trkpt><trkpt lat="43.7286555" lon="7.2613711"><ele>145.0</ele><time>2026-05-01T15:02:36.274Z</time></trkpt><trkpt lat="43.7286341" lon="7.2610186"><ele>142.0</ele><time>2026-05-01T15:02:37.274Z</time></trkpt><trkpt lat="43.7286195" lon="7.260668"><ele>137.5</ele><time>2026-05-01T15:02:38.274Z</time></trkpt><trkpt lat="43.7286269" lon="7.2603019"><ele>133.0</ele><time>2026-05-01T15:02:39.275Z</time></trkpt><trkpt lat="43.7286535" lon="7.259941"><ele>125.5</ele><time>2026-05-01T15:02:40.274Z</time></trkpt><trkpt lat="43.7287005" lon="7.2595893"><ele>118.0</ele><time>2026-05-01T15:02:41.275Z</time></trkpt><trkpt lat="43.7288622" lon="7.2589223"><ele>116.0</ele><time>2026-05-01T15:02:43.274Z</time></trkpt><trkpt lat="43.7289563" lon="7.2586009"><ele>114.0</ele><time>2026-05-01T15:02:44.274Z</time></trkpt><trkpt lat="43.7290636" lon="7.2582892"><ele>110.5</ele><time>2026-05-01T15:02:45.274Z</time></trkpt><trkpt lat="43.729188" lon="7.2579997"><ele>107.0</ele><time>2026-05-01T15:02:46.274Z</time></trkpt><trkpt lat="43.7293269" lon="7.2577239"><ele>108.5</ele><time>2026-05-01T15:02:47.274Z</time></trkpt><trkpt lat="43.7294842" lon="7.2574654"><ele>110.0</ele><time>2026-05-01T15:02:48.274Z</time></trkpt><trkpt lat="43.7296541" lon="7.2572181"><ele>110.0</ele><time>2026-05-01T15:02:49.275Z</time></trkpt><trkpt lat="43.7298343" lon="7.2569951"><ele>110.0</ele><time>2026-05-01T15:02:50.274Z</time></trkpt><trkpt lat="43.7300249" lon="7.2567895"><ele>117.0</ele><time>2026-05-01T15:02:51.274Z</time></trkpt><trkpt lat="43.730228" lon="7.2566148"><ele>124.0</ele><time>2026-05-01T15:02:52.274Z</time></trkpt><trkpt lat="43.7304388" lon="7.256466"><ele>116.0</ele><time>2026-05-01T15:02:53.274Z</time></trkpt><trkpt lat="43.7306559" lon="7.2563352"><ele>108.0</ele><time>2026-05-01T15:02:54.274Z</time></trkpt><trkpt lat="43.7308744" lon="7.2562281"><ele>115.0</ele><time>2026-05-01T15:02:55.274Z</time></trkpt><trkpt lat="43.7310923" lon="7.256133"><ele>122.0</ele><time>2026-05-01T15:02:56.274Z</time></trkpt><trkpt lat="43.731312" lon="7.2560399"><ele>122.0</ele><time>2026-05-01T15:02:57.274Z</time></trkpt><trkpt lat="43.7315368" lon="7.2559664"><ele>122.0</ele><time>2026-05-01T15:02:58.275Z</time></trkpt><trkpt lat="43.7317634" lon="7.2558981"><ele>138.0</ele><time>2026-05-01T15:02:59.274Z</time></trkpt><trkpt lat="43.7319957" lon="7.2558207"><ele>154.0</ele><time>2026-05-01T15:03:00.275Z</time></trkpt><trkpt lat="43.7322319" lon="7.2557403"><ele>154.0</ele><time>2026-05-01T15:03:01.274Z</time></trkpt><trkpt lat="43.7324673" lon="7.2556601"><ele>154.0</ele><time>2026-05-01T15:03:02.274Z</time></trkpt><trkpt lat="43.7349083" lon="7.24365"><ele>175.0</ele><time>2026-05-01T15:03:45.274Z</time></trkpt><trkpt lat="43.734708" lon="7.2430163"><ele>175.0</ele><time>2026-05-01T15:03:47.274Z</time></trkpt><trkpt lat="43.7346134" lon="7.2427348"><ele>175.0</ele><time>2026-05-01T15:03:48.274Z</time></trkpt><trkpt lat="43.7345216" lon="7.2424483"><ele>173.33333333333334</ele><time>2026-05-01T15:03:49.274Z</time></trkpt><trkpt lat="43.7344274" lon="7.2421666"><ele>171.66666666666666</ele><time>2026-05-01T15:03:50.274Z</time></trkpt><trkpt lat="43.7343282" lon="7.2418906"><ele>170.0</ele><time>2026-05-01T15:03:51.275Z</time></trkpt><trkpt lat="43.7342195" lon="7.2416174"><ele>172.33333333333331</ele><time>2026-05-01T15:03:52.274Z</time></trkpt><trkpt lat="43.7341086" lon="7.2413406"><ele>174.66666666666666</ele><time>2026-05-01T15:03:53.274Z</time></trkpt><trkpt lat="43.7339965" lon="7.2410783"><ele>177.0</ele><time>2026-05-01T15:03:54.274Z</time></trkpt><trkpt lat="43.7338828" lon="7.2408185"><ele>186.33333333333331</ele><time>2026-05-01T15:03:55.275Z</time></trkpt><trkpt lat="43.7337615" lon="7.240561"><ele>195.66666666666666</ele><time>2026-05-01T15:03:56.274Z</time></trkpt><trkpt lat="43.7336449" lon="7.2402989"><ele>205.0</ele><time>2026-05-01T15:03:57.274Z</time></trkpt><trkpt lat="43.733534" lon="7.2400356"><ele>217.33333333333331</ele><time>2026-05-01T15:03:58.274Z</time></trkpt><trkpt lat="43.7334301" lon="7.2397778"><ele>229.66666666666669</ele><time>2026-05-01T15:03:59.274Z</time></trkpt><trkpt lat="43.7333269" lon="7.2395197"><ele>242.0</ele><time>2026-05-01T15:04:00.274Z</time></trkpt><trkpt lat="43.7332285" lon="7.2392616"><ele>242.0</ele><time>2026-05-01T15:04:01.274Z</time></trkpt><trkpt lat="43.7331223" lon="7.2390033"><ele>242.0</ele><time>2026-05-01T15:04:02.274Z</time></trkpt><trkpt lat="43.729695" lon="7.2352383"><ele>236.5</ele><time>2026-05-01T15:04:21.274Z</time></trkpt><trkpt lat="43.729348" lon="7.2349217"><ele>231.0</ele><time>2026-05-01T15:04:23.274Z</time></trkpt><trkpt lat="43.7291559" lon="7.2347575"><ele>231.0</ele><time>2026-05-01T15:04:24.274Z</time></trkpt><trkpt lat="43.7289567" lon="7.2345838"><ele>231.0</ele><time>2026-05-01T15:04:25.274Z</time></trkpt><trkpt lat="43.7287698" lon="7.2344112"><ele>231.0</ele><time>2026-05-01T15:04:26.274Z</time></trkpt><trkpt lat="43.728583" lon="7.2342239"><ele>231.0</ele><time>2026-05-01T15:04:27.274Z</time></trkpt><trkpt lat="43.7284008" lon="7.2340456"><ele>224.5</ele><time>2026-05-01T15:04:28.274Z</time></trkpt><trkpt lat="43.7282177" lon="7.2338635"><ele>218.0</ele><time>2026-05-01T15:04:29.274Z</time></trkpt><trkpt lat="43.7280335" lon="7.2336841"><ele>218.0</ele><time>2026-05-01T15:04:30.274Z</time></trkpt><trkpt lat="43.7278531" lon="7.2335016"><ele>218.0</ele><time>2026-05-01T15:04:31.274Z</time></trkpt><trkpt lat="43.7276777" lon="7.2333052"><ele>218.0</ele><time>2026-05-01T15:04:32.275Z</time></trkpt><trkpt lat="43.7275134" lon="7.2330965"><ele>219.5</ele><time>2026-05-01T15:04:33.274Z</time></trkpt><trkpt lat="43.7273478" lon="7.2328754"><ele>221.0</ele><time>2026-05-01T15:04:34.275Z</time></trkpt><trkpt lat="43.7271881" lon="7.2326506"><ele>221.0</ele><time>2026-05-01T15:04:35.274Z</time></trkpt><trkpt lat="43.7270308" lon="7.2324275"><ele>221.0</ele><time>2026-05-01T15:04:36.274Z</time></trkpt><trkpt lat="43.7268758" lon="7.2321921"><ele>231.0</ele><time>2026-05-01T15:04:37.274Z</time></trkpt><trkpt lat="43.7267241" lon="7.2319594"><ele>241.0</ele><time>2026-05-01T15:04:38.274Z</time></trkpt><trkpt lat="43.7265669" lon="7.231735"><ele>241.0</ele><time>2026-05-01T15:04:39.274Z</time></trkpt><trkpt lat="43.7264116" lon="7.2315101"><ele>241.0</ele><time>2026-05-01T15:04:40.274Z</time></trkpt><trkpt lat="43.7262557" lon="7.2312859"><ele>221.0</ele><time>2026-05-01T15:04:41.274Z</time></trkpt><trkpt lat="43.7257227" lon="7.2307083"><ele>223.0</ele><time>2026-05-01T15:04:44.275Z</time></trkpt><trkpt lat="43.7254061" lon="7.2301845"><ele>219.5</ele><time>2026-05-01T15:04:46.274Z</time></trkpt><trkpt lat="43.7252261" lon="7.2299654"><ele>216.0</ele><time>2026-05-01T15:04:47.274Z</time></trkpt><trkpt lat="43.7250355" lon="7.2297724"><ele>226.0</ele><time>2026-05-01T15:04:48.274Z</time></trkpt><trkpt lat="43.7248463" lon="7.2295906"><ele>236.0</ele><time>2026-05-01T15:04:49.274Z</time></trkpt><trkpt lat="43.7246551" lon="7.2294171"><ele>236.0</ele><time>2026-05-01T15:04:50.274Z</time></trkpt><trkpt lat="43.7244625" lon="7.2292496"><ele>236.0</ele><time>2026-05-01T15:04:51.274Z</time></trkpt><trkpt lat="43.7242809" lon="7.2290809"><ele>236.0</ele><time>2026-05-01T15:04:52.274Z</time></trkpt><trkpt lat="43.7240966" lon="7.2289045"><ele>229.0</ele><time>2026-05-01T15:04:53.274Z</time></trkpt><trkpt lat="43.7239164" lon="7.228708"><ele>222.0</ele><time>2026-05-01T15:04:54.274Z</time></trkpt><trkpt lat="43.7237383" lon="7.22849"><ele>222.0</ele><time>2026-05-01T15:04:55.274Z</time></trkpt><trkpt lat="43.7235725" lon="7.2282603"><ele>222.0</ele><time>2026-05-01T15:04:56.274Z</time></trkpt><trkpt lat="43.723429" lon="7.2280083"><ele>219.5</ele><time>2026-05-01T15:04:57.274Z</time></trkpt><trkpt lat="43.7232963" lon="7.2277407"><ele>217.0</ele><time>2026-05-01T15:04:58.274Z</time></trkpt><trkpt lat="43.7231793" lon="7.2274637"><ele>208.5</ele><time>2026-05-01T15:04:59.275Z</time></trkpt><trkpt lat="43.7231008" lon="7.2271034"><ele>200.0</ele><time>2026-05-01T15:05:00.274Z</time></trkpt><trkpt lat="43.7230116" lon="7.2268104"><ele>200.0</ele><time>2026-05-01T15:05:01.274Z</time></trkpt><trkpt lat="43.7229495" lon="7.2265062"><ele>200.0</ele><time>2026-05-01T15:05:02.274Z</time></trkpt><trkpt lat="43.722895" lon="7.2261956"><ele>190.5</ele><time>2026-05-01T15:05:03.274Z</time></trkpt><trkpt lat="43.7228545" lon="7.2258764"><ele>181.0</ele><time>2026-05-01T15:05:04.274Z</time></trkpt><trkpt lat="43.7228213" lon="7.2255548"><ele>164.0</ele><time>2026-05-01T15:05:05.274Z</time></trkpt><trkpt lat="43.7227544" lon="7.224927"><ele>157.5</ele><time>2026-05-01T15:05:07.274Z</time></trkpt><trkpt lat="43.722714" lon="7.2246184"><ele>151.0</ele><time>2026-05-01T15:05:08.274Z</time></trkpt><trkpt lat="43.7226791" lon="7.2243066"><ele>151.0</ele><time>2026-05-01T15:05:09.274Z</time></trkpt><trkpt lat="43.7226433" lon="7.2239891"><ele>151.0</ele><time>2026-05-01T15:05:10.274Z</time></trkpt><trkpt lat="43.7226138" lon="7.2236737"><ele>129.5</ele><time>2026-05-01T15:05:11.274Z</time></trkpt><trkpt lat="43.7225853" lon="7.2233602"><ele>108.0</ele><time>2026-05-01T15:05:12.274Z</time></trkpt><trkpt lat="43.7225569" lon="7.2230471"><ele>99.5</ele><time>2026-05-01T15:05:13.275Z</time></trkpt><trkpt lat="43.7225244" lon="7.2227368"><ele>91.0</ele><time>2026-05-01T15:05:14.274Z</time></trkpt><trkpt lat="43.7224898" lon="7.2224268"><ele>97.0</ele><time>2026-05-01T15:05:15.274Z</time></trkpt><trkpt lat="43.7224549" lon="7.222117"><ele>103.0</ele><time>2026-05-01T15:05:16.274Z</time></trkpt><trkpt lat="43.7224185" lon="7.221814"><ele>109.0</ele><time>2026-05-01T15:05:17.274Z</time></trkpt><trkpt lat="43.7223876" lon="7.2215084"><ele>122.66666666666667</ele><time>2026-05-01T15:05:18.274Z</time></trkpt><trkpt lat="43.7223589" lon="7.2212067"><ele>136.33333333333334</ele><time>2026-05-01T15:05:19.275Z</time></trkpt><trkpt lat="43.722332" lon="7.220914"><ele>150.0</ele><time>2026-05-01T15:05:20.274Z</time></trkpt><trkpt lat="43.7223018" lon="7.2206384"><ele>160.33333333333334</ele><time>2026-05-01T15:05:21.274Z</time></trkpt><trkpt lat="43.7222703" lon="7.2203436"><ele>170.66666666666669</ele><time>2026-05-01T15:05:22.274Z</time></trkpt><trkpt lat="43.7222354" lon="7.2200621"><ele>181.0</ele><time>2026-05-01T15:05:23.274Z</time></trkpt><trkpt lat="43.722199" lon="7.219792"><ele>188.66666666666669</ele><time>2026-05-01T15:05:24.274Z</time></trkpt><trkpt lat="43.7221637" lon="7.2195276"><ele>196.33333333333334</ele><time>2026-05-01T15:05:25.274Z</time></trkpt><trkpt lat="43.7221213" lon="7.2192622"><ele>204.0</ele><time>2026-05-01T15:05:26.274Z</time></trkpt><trkpt lat="43.7220394" lon="7.2187151"><ele>208.0</ele><time>2026-05-01T15:05:28.274Z</time></trkpt><trkpt lat="43.7219803" lon="7.2184534"><ele>212.0</ele><time>2026-05-01T15:05:29.274Z</time></trkpt><trkpt lat="43.7219019" lon="7.2181976"><ele>216.0</ele><time>2026-05-01T15:05:30.274Z</time></trkpt><trkpt lat="43.7218168" lon="7.2179323"><ele>216.66666666666669</ele><time>2026-05-01T15:05:31.274Z</time></trkpt><trkpt lat="43.721726" lon="7.2176716"><ele>217.33333333333334</ele><time>2026-05-01T15:05:32.274Z</time></trkpt><trkpt lat="43.7216355" lon="7.2174074"><ele>218.0</ele><time>2026-05-01T15:05:33.274Z</time></trkpt><trkpt lat="43.7215453" lon="7.2171537"><ele>225.66666666666669</ele><time>2026-05-01T15:05:34.274Z</time></trkpt><trkpt lat="43.7214548" lon="7.2169002"><ele>233.33333333333331</ele><time>2026-05-01T15:05:35.274Z</time></trkpt><trkpt lat="43.721363" lon="7.2166476"><ele>241.0</ele><time>2026-05-01T15:05:36.274Z</time></trkpt><trkpt lat="43.717155" lon="7.2132833"><ele>204.0</ele><time>2026-05-01T15:05:58.273Z</time></trkpt><trkpt lat="43.7167722" lon="7.2133226"><ele>167.0</ele><time>2026-05-01T15:06:00.273Z</time></trkpt><trkpt lat="43.7165761" lon="7.2133465"><ele>167.0</ele><time>2026-05-01T15:06:01.273Z</time></trkpt><trkpt lat="43.71639" lon="7.2133658"><ele>167.0</ele><time>2026-05-01T15:06:02.273Z</time></trkpt><trkpt lat="43.7162081" lon="7.2133765"><ele>167.0</ele><time>2026-05-01T15:06:03.274Z</time></trkpt><trkpt lat="43.7160239" lon="7.2133908"><ele>164.33333333333331</ele><time>2026-05-01T15:06:04.273Z</time></trkpt><trkpt lat="43.7158376" lon="7.2134007"><ele>161.66666666666666</ele><time>2026-05-01T15:06:05.273Z</time></trkpt><trkpt lat="43.715648" lon="7.2134093"><ele>159.0</ele><time>2026-05-01T15:06:06.273Z</time></trkpt><trkpt lat="43.7154535" lon="7.2134198"><ele>159.0</ele><time>2026-05-01T15:06:07.273Z</time></trkpt><trkpt lat="43.7152566" lon="7.2134328"><ele>159.0</ele><time>2026-05-01T15:06:08.273Z</time></trkpt><trkpt lat="43.7150534" lon="7.213449"><ele>159.0</ele><time>2026-05-01T15:06:09.273Z</time></trkpt><trkpt lat="43.7148379" lon="7.2134713"><ele>157.0</ele><time>2026-05-01T15:06:10.273Z</time></trkpt><trkpt lat="43.714621" lon="7.2134917"><ele>155.0</ele><time>2026-05-01T15:06:11.273Z</time></trkpt><trkpt lat="43.7144071" lon="7.2135118"><ele>153.0</ele><time>2026-05-01T15:06:12.273Z</time></trkpt><trkpt lat="43.7141953" lon="7.2135183"><ele>149.33333333333334</ele><time>2026-05-01T15:06:13.273Z</time></trkpt><trkpt lat="43.7139877" lon="7.2135186"><ele>145.66666666666669</ele><time>2026-05-01T15:06:14.273Z</time></trkpt><trkpt lat="43.7137837" lon="7.2135156"><ele>142.0</ele><time>2026-05-01T15:06:15.273Z</time></trkpt><trkpt lat="43.7135788" lon="7.2134952"><ele>144.66666666666669</ele><time>2026-05-01T15:06:16.273Z</time></trkpt><trkpt lat="43.7133607" lon="7.2134637"><ele>147.33333333333334</ele><time>2026-05-01T15:06:17.273Z</time></trkpt><trkpt lat="43.7131408" lon="7.2134197"><ele>150.0</ele><time>2026-05-01T15:06:18.273Z</time></trkpt><trkpt lat="43.7129248" lon="7.2133563"><ele>149.0</ele><time>2026-05-01T15:06:19.273Z</time></trkpt><trkpt lat="43.712496" lon="7.2131587"><ele>143.0</ele><time>2026-05-01T15:06:21.273Z</time></trkpt><trkpt lat="43.7122887" lon="7.2130452"><ele>137.0</ele><time>2026-05-01T15:06:22.273Z</time></trkpt><trkpt lat="43.7120894" lon="7.2129275"><ele>131.0</ele><time>2026-05-01T15:06:23.273Z</time></trkpt><trkpt lat="43.7119036" lon="7.2127826"><ele>131.0</ele><time>2026-05-01T15:06:24.273Z</time></trkpt><trkpt lat="43.7117236" lon="7.2126314"><ele>131.0</ele><time>2026-05-01T15:06:25.274Z</time></trkpt><trkpt lat="43.711551" lon="7.2124622"><ele>131.0</ele><time>2026-05-01T15:06:26.273Z</time></trkpt><trkpt lat="43.7113788" lon="7.2122904"><ele>129.0</ele><time>2026-05-01T15:06:27.273Z</time></trkpt><trkpt lat="43.7112094" lon="7.2121054"><ele>127.0</ele><time>2026-05-01T15:06:28.273Z</time></trkpt><trkpt lat="43.7110438" lon="7.2119115"><ele>125.0</ele><time>2026-05-01T15:06:29.274Z</time></trkpt><trkpt lat="43.7108719" lon="7.2117144"><ele>125.0</ele><time>2026-05-01T15:06:30.274Z</time></trkpt><trkpt lat="43.7106928" lon="7.2115064"><ele>125.0</ele><time>2026-05-01T15:06:31.274Z</time></trkpt><trkpt lat="43.7105137" lon="7.2112916"><ele>129.0</ele><time>2026-05-01T15:06:32.274Z</time></trkpt><trkpt lat="43.7103468" lon="7.2110606"><ele>133.0</ele><time>2026-05-01T15:06:33.273Z</time></trkpt><trkpt lat="43.7101879" lon="7.2108134"><ele>125.5</ele><time>2026-05-01T15:06:34.273Z</time></trkpt><trkpt lat="43.7100412" lon="7.2105611"><ele>118.0</ele><time>2026-05-01T15:06:35.273Z</time></trkpt><trkpt lat="43.709903" lon="7.2102965"><ele>118.0</ele><time>2026-05-01T15:06:36.273Z</time></trkpt><trkpt lat="43.7097844" lon="7.2100171"><ele>118.0</ele><time>2026-05-01T15:06:37.273Z</time></trkpt><trkpt lat="43.709681" lon="7.2097342"><ele>109.0</ele><time>2026-05-01T15:06:38.273Z</time></trkpt><trkpt lat="43.7095864" lon="7.2094486"><ele>100.0</ele><time>2026-05-01T15:06:39.274Z</time></trkpt><trkpt lat="43.7094974" lon="7.2091553"><ele>127.0</ele><time>2026-05-01T15:06:40.273Z</time></trkpt><trkpt lat="43.7093786" lon="7.2085448"><ele>127.0</ele><time>2026-05-01T15:06:42.273Z</time></trkpt><trkpt lat="43.709333" lon="7.2082219"><ele>127.0</ele><time>2026-05-01T15:06:43.273Z</time></trkpt><trkpt lat="43.7093073" lon="7.2078983"><ele>125.66666666666667</ele><time>2026-05-01T15:06:44.273Z</time></trkpt><trkpt lat="43.7092884" lon="7.207584"><ele>124.33333333333334</ele><time>2026-05-01T15:06:45.273Z</time></trkpt><trkpt lat="43.7092852" lon="7.2072853"><ele>123.0</ele><time>2026-05-01T15:06:46.273Z</time></trkpt><trkpt lat="43.7093053" lon="7.206982"><ele>123.0</ele><time>2026-05-01T15:06:47.273Z</time></trkpt><trkpt lat="43.7093423" lon="7.2066912"><ele>123.0</ele><time>2026-05-01T15:06:48.273Z</time></trkpt><trkpt lat="43.7093945" lon="7.2064149"><ele>123.0</ele><time>2026-05-01T15:06:49.273Z</time></trkpt><trkpt lat="43.7094598" lon="7.2061397"><ele>113.33333333333333</ele><time>2026-05-01T15:06:50.273Z</time></trkpt><trkpt lat="43.7095373" lon="7.2058584"><ele>103.66666666666666</ele><time>2026-05-01T15:06:51.273Z</time></trkpt><trkpt lat="43.7096211" lon="7.2055669"><ele>94.0</ele><time>2026-05-01T15:06:52.273Z</time></trkpt><trkpt lat="43.7097141" lon="7.2052783"><ele>94.0</ele><time>2026-05-01T15:06:53.273Z</time></trkpt><trkpt lat="43.7098134" lon="7.2050009"><ele>94.0</ele><time>2026-05-01T15:06:54.273Z</time></trkpt><trkpt lat="43.7099045" lon="7.2047322"><ele>94.0</ele><time>2026-05-01T15:06:55.273Z</time></trkpt><trkpt lat="43.7099895" lon="7.2044686"><ele>97.66666666666666</ele><time>2026-05-01T15:06:56.273Z</time></trkpt><trkpt lat="43.7100676" lon="7.2042097"><ele>101.33333333333333</ele><time>2026-05-01T15:06:57.273Z</time></trkpt><trkpt lat="43.7101407" lon="7.2039404"><ele>105.0</ele><time>2026-05-01T15:06:58.273Z</time></trkpt><trkpt lat="43.7102031" lon="7.2036556"><ele>94.33333333333333</ele><time>2026-05-01T15:06:59.273Z</time></trkpt><trkpt lat="43.7102552" lon="7.2033592"><ele>83.66666666666666</ele><time>2026-05-01T15:07:00.274Z</time></trkpt><trkpt lat="43.7103063" lon="7.2030625"><ele>73.0</ele><time>2026-05-01T15:07:01.273Z</time></trkpt><trkpt lat="43.7103911" lon="7.202466"><ele>71.33333333333333</ele><time>2026-05-01T15:07:03.273Z</time></trkpt><trkpt lat="43.7104277" lon="7.2021806"><ele>69.66666666666667</ele><time>2026-05-01T15:07:04.273Z</time></trkpt><trkpt lat="43.7104595" lon="7.201896"><ele>68.0</ele><time>2026-05-01T15:07:05.274Z</time></trkpt><trkpt lat="43.7104828" lon="7.2016155"><ele>68.33333333333334</ele><time>2026-05-01T15:07:06.273Z</time></trkpt><trkpt lat="43.7105034" lon="7.2013279"><ele>68.66666666666667</ele><time>2026-05-01T15:07:07.273Z</time></trkpt><trkpt lat="43.7105173" lon="7.201029"><ele>69.0</ele><time>2026-05-01T15:07:08.273Z</time></trkpt><trkpt lat="43.7105247" lon="7.2007353"><ele>68.33333333333333</ele><time>2026-05-01T15:07:09.273Z</time></trkpt><trkpt lat="43.7105312" lon="7.200432"><ele>67.66666666666666</ele><time>2026-05-01T15:07:10.273Z</time></trkpt><trkpt lat="43.7105268" lon="7.2001325"><ele>67.0</ele><time>2026-05-01T15:07:11.273Z</time></trkpt><trkpt lat="43.7104998" lon="7.1998406"><ele>64.66666666666666</ele><time>2026-05-01T15:07:12.273Z</time></trkpt><trkpt lat="43.7104671" lon="7.1995431"><ele>62.33333333333333</ele><time>2026-05-01T15:07:13.273Z</time></trkpt><trkpt lat="43.7104055" lon="7.1992479"><ele>60.0</ele><time>2026-05-01T15:07:14.273Z</time></trkpt><trkpt lat="43.7103371" lon="7.1989504"><ele>65.0</ele><time>2026-05-01T15:07:15.273Z</time></trkpt><trkpt lat="43.7102667" lon="7.1986474"><ele>70.0</ele><time>2026-05-01T15:07:16.273Z</time></trkpt><trkpt lat="43.7101925" lon="7.1983454"><ele>61.0</ele><time>2026-05-01T15:07:17.273Z</time></trkpt><trkpt lat="43.7101033" lon="7.1980402"><ele>52.0</ele><time>2026-05-01T15:07:18.273Z</time></trkpt><trkpt lat="43.710005" lon="7.197735"><ele>52.0</ele><time>2026-05-01T15:07:19.273Z</time></trkpt><trkpt lat="43.7099061" lon="7.1974289"><ele>52.0</ele><time>2026-05-01T15:07:20.273Z</time></trkpt><trkpt lat="43.7098028" lon="7.197127"><ele>44.5</ele><time>2026-05-01T15:07:21.273Z</time></trkpt><trkpt lat="43.7097001" lon="7.196819"><ele>37.0</ele><time>2026-05-01T15:07:22.274Z</time></trkpt><trkpt lat="43.7095024" lon="7.1962004"><ele>35.0</ele><time>2026-05-01T15:07:24.274Z</time></trkpt><trkpt lat="43.7094068" lon="7.1958834"><ele>33.0</ele><time>2026-05-01T15:07:25.273Z</time></trkpt><trkpt lat="43.7093062" lon="7.195578"><ele>33.0</ele><time>2026-05-01T15:07:26.273Z</time></trkpt><trkpt lat="43.7092032" lon="7.1952757"><ele>33.0</ele><time>2026-05-01T15:07:27.273Z</time></trkpt><trkpt lat="43.7091005" lon="7.1949734"><ele>33.0</ele><time>2026-05-01T15:07:28.273Z</time></trkpt><trkpt lat="43.7090014" lon="7.1946659"><ele>33.0</ele><time>2026-05-01T15:07:29.273Z</time></trkpt><trkpt lat="43.7089043" lon="7.1943546"><ele>33.0</ele><time>2026-05-01T15:07:30.273Z</time></trkpt><trkpt lat="43.708801" lon="7.1940337"><ele>33.0</ele><time>2026-05-01T15:07:31.273Z</time></trkpt><trkpt lat="43.7086913" lon="7.1937149"><ele>32.0</ele><time>2026-05-01T15:07:32.273Z</time></trkpt><trkpt lat="43.7085869" lon="7.1933864"><ele>31.0</ele><time>2026-05-01T15:07:33.273Z</time></trkpt><trkpt lat="43.7084819" lon="7.1930633"><ele>30.5</ele><time>2026-05-01T15:07:34.273Z</time></trkpt><trkpt lat="43.7083764" lon="7.1927381"><ele>30.0</ele><time>2026-05-01T15:07:35.273Z</time></trkpt><trkpt lat="43.708277" lon="7.1924177"><ele>30.0</ele><time>2026-05-01T15:07:36.273Z</time></trkpt><trkpt lat="43.7081825" lon="7.1921088"><ele>30.0</ele><time>2026-05-01T15:07:37.273Z</time></trkpt><trkpt lat="43.7080746" lon="7.1918185"><ele>30.0</ele><time>2026-05-01T15:07:38.273Z</time></trkpt><trkpt lat="43.7079494" lon="7.19155"><ele>30.0</ele><time>2026-05-01T15:07:39.273Z</time></trkpt><trkpt lat="43.7078088" lon="7.1912974"><ele>30.5</ele><time>2026-05-01T15:07:40.273Z</time></trkpt><trkpt lat="43.7076594" lon="7.1910461"><ele>31.0</ele><time>2026-05-01T15:07:41.273Z</time></trkpt><trkpt lat="43.7075047" lon="7.1908038"><ele>30.5</ele><time>2026-05-01T15:07:42.273Z</time></trkpt><trkpt lat="43.7073347" lon="7.1905816"><ele>30.0</ele><time>2026-05-01T15:07:43.273Z</time></trkpt><trkpt lat="43.7069718" lon="7.1901599"><ele>30.0</ele><time>2026-05-01T15:07:45.273Z</time></trkpt><trkpt lat="43.7067753" lon="7.189971"><ele>30.0</ele><time>2026-05-01T15:07:46.273Z</time></trkpt><trkpt lat="43.7065853" lon="7.1897749"><ele>29.5</ele><time>2026-05-01T15:07:47.273Z</time></trkpt><trkpt lat="43.7063954" lon="7.1895729"><ele>29.0</ele><time>2026-05-01T15:07:48.273Z</time></trkpt><trkpt lat="43.7062091" lon="7.1893732"><ele>28.0</ele><time>2026-05-01T15:07:49.273Z</time></trkpt><trkpt lat="43.7060241" lon="7.1891856"><ele>27.0</ele><time>2026-05-01T15:07:50.273Z</time></trkpt><trkpt lat="43.7058364" lon="7.1890056"><ele>26.0</ele><time>2026-05-01T15:07:51.273Z</time></trkpt><trkpt lat="43.7056448" lon="7.1888248"><ele>25.0</ele><time>2026-05-01T15:07:52.273Z</time></trkpt><trkpt lat="43.7054481" lon="7.1886554"><ele>25.0</ele><time>2026-05-01T15:07:53.273Z</time></trkpt><trkpt lat="43.7052419" lon="7.1885129"><ele>25.0</ele><time>2026-05-01T15:07:54.273Z</time></trkpt><trkpt lat="43.7050231" lon="7.1884001"><ele>25.0</ele><time>2026-05-01T15:07:55.273Z</time></trkpt><trkpt lat="43.7048097" lon="7.188295"><ele>25.0</ele><time>2026-05-01T15:07:56.273Z</time></trkpt><trkpt lat="43.7045931" lon="7.1882318"><ele>25.0</ele><time>2026-05-01T15:07:57.273Z</time></trkpt><trkpt lat="43.7043838" lon="7.188183"><ele>23.666666666666668</ele><time>2026-05-01T15:07:58.273Z</time></trkpt><trkpt lat="43.7041775" lon="7.1881563"><ele>22.333333333333336</ele><time>2026-05-01T15:07:59.273Z</time></trkpt><trkpt lat="43.7039702" lon="7.1881351"><ele>21.0</ele><time>2026-05-01T15:08:00.273Z</time></trkpt><trkpt lat="43.7037656" lon="7.1881151"><ele>21.0</ele><time>2026-05-01T15:08:01.273Z</time></trkpt><trkpt lat="43.7035744" lon="7.1881023"><ele>21.0</ele><time>2026-05-01T15:08:02.273Z</time></trkpt><trkpt lat="43.7033924" lon="7.1881018"><ele>21.0</ele><time>2026-05-01T15:08:03.273Z</time></trkpt><trkpt lat="43.7032216" lon="7.1881066"><ele>21.0</ele><time>2026-05-01T15:08:04.273Z</time></trkpt><trkpt lat="43.7028892" lon="7.1881207"><ele>21.0</ele><time>2026-05-01T15:08:06.273Z</time></trkpt><trkpt lat="43.7027339" lon="7.188127"><ele>20.333333333333332</ele><time>2026-05-01T15:08:07.273Z</time></trkpt><trkpt lat="43.7025823" lon="7.1881341"><ele>19.666666666666664</ele><time>2026-05-01T15:08:08.273Z</time></trkpt><trkpt lat="43.70243" lon="7.1881417"><ele>19.0</ele><time>2026-05-01T15:08:09.273Z</time></trkpt><trkpt lat="43.7022804" lon="7.1881414"><ele>19.0</ele><time>2026-05-01T15:08:10.273Z</time></trkpt><trkpt lat="43.7021352" lon="7.1881483"><ele>19.0</ele><time>2026-05-01T15:08:11.273Z</time></trkpt><trkpt lat="43.7019921" lon="7.1881592"><ele>19.0</ele><time>2026-05-01T15:08:12.273Z</time></trkpt><trkpt lat="43.7018629" lon="7.1881679"><ele>19.0</ele><time>2026-05-01T15:08:13.274Z</time></trkpt><trkpt lat="43.7017501" lon="7.1881776"><ele>19.666666666666664</ele><time>2026-05-01T15:08:14.274Z</time></trkpt><trkpt lat="43.7016591" lon="7.1881819"><ele>20.333333333333332</ele><time>2026-05-01T15:08:15.273Z</time></trkpt><trkpt lat="43.7015857" lon="7.1881834"><ele>21.0</ele><time>2026-05-01T15:08:16.273Z</time></trkpt><trkpt lat="43.7014768" lon="7.1881836"><ele>21.666666666666668</ele><time>2026-05-01T15:08:18.273Z</time></trkpt><trkpt lat="43.7013754" lon="7.1881822"><ele>22.333333333333336</ele><time>2026-05-01T15:08:20.273Z</time></trkpt><trkpt lat="43.7013122" lon="7.1881792"><ele>23.0</ele><time>2026-05-01T15:08:21.273Z</time></trkpt><trkpt lat="43.7012025" lon="7.1881872"><ele>23.0</ele><time>2026-05-01T15:08:23.273Z</time></trkpt><trkpt lat="43.701124" lon="7.1881835"><ele>23.0</ele><time>2026-05-01T15:08:25.273Z</time></trkpt><trkpt lat="43.7009643" lon="7.1881734"><ele>23.0</ele><time>2026-05-01T15:08:32.273Z</time></trkpt><trkpt lat="43.7008666" lon="7.1881809"><ele>23.0</ele><time>2026-05-01T15:08:40.273Z</time></trkpt><trkpt lat="43.7007971" lon="7.1881785"><ele>23.0</ele><time>2026-05-01T15:08:42.273Z</time></trkpt><trkpt lat="43.7007156" lon="7.1881714"><ele>23.333333333333336</ele><time>2026-05-01T15:09:12.273Z</time></trkpt><trkpt lat="43.7004752" lon="7.1881861"><ele>23.666666666666668</ele><time>2026-05-01T15:09:46.273Z</time></trkpt><trkpt lat="43.7004044" lon="7.1881964"><ele>24.0</ele><time>2026-05-01T15:10:00.273Z</time></trkpt><trkpt lat="43.7001661" lon="7.1882136"><ele>24.0</ele><time>2026-05-01T15:10:28.273Z</time></trkpt><trkpt lat="43.7000752" lon="7.1882055"><ele>24.0</ele><time>2026-05-01T15:10:49.274Z</time></trkpt><trkpt lat="43.6999171" lon="7.1882269"><ele>24.0</ele><time>2026-05-01T15:11:31.273Z</time></trkpt><trkpt lat="43.6997577" lon="7.188241"><ele>24.0</ele><time>2026-05-01T15:11:36.273Z</time></trkpt><trkpt lat="43.6996737" lon="7.1882648"><ele>24.0</ele><time>2026-05-01T15:12:14.274Z</time></trkpt><trkpt lat="43.699459" lon="7.1882875"><ele>24.0</ele><time>2026-05-01T15:12:17.273Z</time></trkpt><trkpt lat="43.6993702" lon="7.1882947"><ele>24.0</ele><time>2026-05-01T15:12:18.274Z</time></trkpt><trkpt lat="43.699275" lon="7.1883103"><ele>24.0</ele><time>2026-05-01T15:12:19.273Z</time></trkpt><trkpt lat="43.699176" lon="7.1883199"><ele>24.0</ele><time>2026-05-01T15:12:20.273Z</time></trkpt><trkpt lat="43.6990711" lon="7.1883295"><ele>24.0</ele><time>2026-05-01T15:12:21.273Z</time></trkpt><trkpt lat="43.6989548" lon="7.18834"><ele>24.0</ele><time>2026-05-01T15:12:22.273Z</time></trkpt><trkpt lat="43.6988313" lon="7.1883488"><ele>24.0</ele><time>2026-05-01T15:12:23.273Z</time></trkpt><trkpt lat="43.6987028" lon="7.1883601"><ele>24.0</ele><time>2026-05-01T15:12:24.273Z</time></trkpt><trkpt lat="43.6985739" lon="7.1883704"><ele>24.0</ele><time>2026-05-01T15:12:25.273Z</time></trkpt><trkpt lat="43.6984388" lon="7.1883847"><ele>24.0</ele><time>2026-05-01T15:12:26.273Z</time></trkpt><trkpt lat="43.6983038" lon="7.1883893"><ele>24.0</ele><time>2026-05-01T15:12:27.273Z</time></trkpt><trkpt lat="43.698161" lon="7.1883948"><ele>24.0</ele><time>2026-05-01T15:12:28.273Z</time></trkpt><trkpt lat="43.6980065" lon="7.188414"><ele>24.0</ele><time>2026-05-01T15:12:29.273Z</time></trkpt><trkpt lat="43.6978412" lon="7.1884353"><ele>24.0</ele><time>2026-05-01T15:12:30.273Z</time></trkpt><trkpt lat="43.6976645" lon="7.188453"><ele>22.666666666666668</ele><time>2026-05-01T15:12:31.273Z</time></trkpt><trkpt lat="43.697476" lon="7.1884779"><ele>21.333333333333336</ele><time>2026-05-01T15:12:32.273Z</time></trkpt><trkpt lat="43.6972759" lon="7.1885066"><ele>20.0</ele><time>2026-05-01T15:12:33.274Z</time></trkpt><trkpt lat="43.6970525" lon="7.188536"><ele>19.5</ele><time>2026-05-01T15:12:34.273Z</time></trkpt><trkpt lat="43.6968186" lon="7.1885605"><ele>19.0</ele><time>2026-05-01T15:12:35.273Z</time></trkpt><trkpt lat="43.6963539" lon="7.188638"><ele>19.0</ele><time>2026-05-01T15:12:37.274Z</time></trkpt><trkpt lat="43.6961136" lon="7.1886826"><ele>19.0</ele><time>2026-05-01T15:12:38.273Z</time></trkpt><trkpt lat="43.6958723" lon="7.1887293"><ele>20.0</ele><time>2026-05-01T15:12:39.273Z</time></trkpt><trkpt lat="43.695629" lon="7.1887761"><ele>21.0</ele><time>2026-05-01T15:12:40.273Z</time></trkpt><trkpt lat="43.6953886" lon="7.1888185"><ele>20.0</ele><time>2026-05-01T15:12:41.273Z</time></trkpt><trkpt lat="43.6951517" lon="7.1888602"><ele>19.0</ele><time>2026-05-01T15:12:42.273Z</time></trkpt><trkpt lat="43.6949196" lon="7.1889004"><ele>19.0</ele><time>2026-05-01T15:12:43.273Z</time></trkpt><trkpt lat="43.6946851" lon="7.1889367"><ele>19.0</ele><time>2026-05-01T15:12:44.273Z</time></trkpt><trkpt lat="43.6944516" lon="7.1889776"><ele>19.5</ele><time>2026-05-01T15:12:45.273Z</time></trkpt><trkpt lat="43.6942151" lon="7.1890233"><ele>20.0</ele><time>2026-05-01T15:12:46.273Z</time></trkpt><trkpt lat="43.6939751" lon="7.1890658"><ele>20.0</ele><time>2026-05-01T15:12:47.273Z</time></trkpt><trkpt lat="43.6937361" lon="7.1891105"><ele>20.0</ele><time>2026-05-01T15:12:48.273Z</time></trkpt><trkpt lat="43.6934872" lon="7.1891541"><ele>18.5</ele><time>2026-05-01T15:12:49.273Z</time></trkpt><trkpt lat="43.6932321" lon="7.1891911"><ele>17.0</ele><time>2026-05-01T15:12:50.273Z</time></trkpt><trkpt lat="43.6929693" lon="7.1892364"><ele>16.0</ele><time>2026-05-01T15:12:51.273Z</time></trkpt><trkpt lat="43.6927058" lon="7.1892839"><ele>15.0</ele><time>2026-05-01T15:12:52.273Z</time></trkpt><trkpt lat="43.6924392" lon="7.1893335"><ele>15.0</ele><time>2026-05-01T15:12:53.273Z</time></trkpt><trkpt lat="43.6921723" lon="7.1893807"><ele>15.0</ele><time>2026-05-01T15:12:54.273Z</time></trkpt><trkpt lat="43.6919071" lon="7.1894275"><ele>15.0</ele><time>2026-05-01T15:12:55.273Z</time></trkpt><trkpt lat="43.6916359" lon="7.1894742"><ele>15.0</ele><time>2026-05-01T15:12:56.273Z</time></trkpt><trkpt lat="43.6911014" lon="7.1895642"><ele>14.5</ele><time>2026-05-01T15:12:58.274Z</time></trkpt><trkpt lat="43.6908304" lon="7.189611"><ele>14.0</ele><time>2026-05-01T15:12:59.273Z</time></trkpt><trkpt lat="43.6905644" lon="7.1896647"><ele>14.0</ele><time>2026-05-01T15:13:00.273Z</time></trkpt><trkpt lat="43.6902952" lon="7.1897191"><ele>14.0</ele><time>2026-05-01T15:13:01.273Z</time></trkpt><trkpt lat="43.6900296" lon="7.1897754"><ele>14.0</ele><time>2026-05-01T15:13:02.273Z</time></trkpt><trkpt lat="43.6897619" lon="7.1898376"><ele>14.0</ele><time>2026-05-01T15:13:03.274Z</time></trkpt><trkpt lat="43.6894881" lon="7.1899021"><ele>15.0</ele><time>2026-05-01T15:13:04.273Z</time></trkpt><trkpt lat="43.6892176" lon="7.189967"><ele>16.0</ele><time>2026-05-01T15:13:05.273Z</time></trkpt><trkpt lat="43.688953" lon="7.1900233"><ele>16.0</ele><time>2026-05-01T15:13:06.273Z</time></trkpt><trkpt lat="43.6886884" lon="7.1900907"><ele>16.0</ele><time>2026-05-01T15:13:07.273Z</time></trkpt><trkpt lat="43.6884231" lon="7.1901505"><ele>16.0</ele><time>2026-05-01T15:13:08.274Z</time></trkpt><trkpt lat="43.6881553" lon="7.1902119"><ele>16.0</ele><time>2026-05-01T15:13:09.273Z</time></trkpt><trkpt lat="43.6878908" lon="7.1902891"><ele>14.5</ele><time>2026-05-01T15:13:10.273Z</time></trkpt><trkpt lat="43.6876232" lon="7.1903711"><ele>13.0</ele><time>2026-05-01T15:13:11.273Z</time></trkpt><trkpt lat="43.6873595" lon="7.190458"><ele>13.0</ele><time>2026-05-01T15:13:12.273Z</time></trkpt><trkpt lat="43.687095" lon="7.1905418"><ele>13.0</ele><time>2026-05-01T15:13:13.273Z</time></trkpt><trkpt lat="43.6868345" lon="7.1906153"><ele>14.5</ele><time>2026-05-01T15:13:14.273Z</time></trkpt><trkpt lat="43.6865777" lon="7.1907008"><ele>16.0</ele><time>2026-05-01T15:13:15.273Z</time></trkpt><trkpt lat="43.6863168" lon="7.1907887"><ele>15.0</ele><time>2026-05-01T15:13:16.273Z</time></trkpt><trkpt lat="43.6860597" lon="7.1908698"><ele>14.0</ele><time>2026-05-01T15:13:17.273Z</time></trkpt><trkpt lat="43.6855373" lon="7.1910561"><ele>14.0</ele><time>2026-05-01T15:13:19.273Z</time></trkpt><trkpt lat="43.685276" lon="7.191154"><ele>14.0</ele><time>2026-05-01T15:13:20.273Z</time></trkpt><trkpt lat="43.6850154" lon="7.1912472"><ele>14.0</ele><time>2026-05-01T15:13:21.273Z</time></trkpt><trkpt lat="43.6847568" lon="7.1913415"><ele>14.0</ele><time>2026-05-01T15:13:22.274Z</time></trkpt><trkpt lat="43.6844998" lon="7.1914463"><ele>14.0</ele><time>2026-05-01T15:13:23.273Z</time></trkpt><trkpt lat="43.6842402" lon="7.1915537"><ele>14.0</ele><time>2026-05-01T15:13:24.273Z</time></trkpt><trkpt lat="43.6839802" lon="7.1916633"><ele>14.0</ele><time>2026-05-01T15:13:25.273Z</time></trkpt><trkpt lat="43.6837185" lon="7.1917817"><ele>14.0</ele><time>2026-05-01T15:13:26.273Z</time></trkpt><trkpt lat="43.6834568" lon="7.1918931"><ele>13.0</ele><time>2026-05-01T15:13:27.273Z</time></trkpt><trkpt lat="43.6831923" lon="7.1920048"><ele>12.0</ele><time>2026-05-01T15:13:28.273Z</time></trkpt><trkpt lat="43.6829272" lon="7.1921165"><ele>12.0</ele><time>2026-05-01T15:13:29.273Z</time></trkpt><trkpt lat="43.6826679" lon="7.1922268"><ele>12.0</ele><time>2026-05-01T15:13:30.273Z</time></trkpt><trkpt lat="43.6824029" lon="7.1923489"><ele>13.0</ele><time>2026-05-01T15:13:31.273Z</time></trkpt><trkpt lat="43.6821407" lon="7.1924692"><ele>14.0</ele><time>2026-05-01T15:13:32.273Z</time></trkpt><trkpt lat="43.6818775" lon="7.1925837"><ele>14.0</ele><time>2026-05-01T15:13:33.273Z</time></trkpt><trkpt lat="43.6816156" lon="7.1926901"><ele>14.0</ele><time>2026-05-01T15:13:34.274Z</time></trkpt><trkpt lat="43.6813595" lon="7.192801"><ele>14.0</ele><time>2026-05-01T15:13:35.273Z</time></trkpt><trkpt lat="43.6811086" lon="7.1928932"><ele>14.0</ele><time>2026-05-01T15:13:36.273Z</time></trkpt><trkpt lat="43.6808559" lon="7.1929877"><ele>13.5</ele><time>2026-05-01T15:13:37.273Z</time></trkpt><trkpt lat="43.6806046" lon="7.1930918"><ele>13.0</ele><time>2026-05-01T15:13:38.273Z</time></trkpt><trkpt lat="43.6800955" lon="7.1933056"><ele>13.0</ele><time>2026-05-01T15:13:40.273Z</time></trkpt><trkpt lat="43.6798367" lon="7.1934155"><ele>13.0</ele><time>2026-05-01T15:13:41.273Z</time></trkpt><trkpt lat="43.6795927" lon="7.1935238"><ele>12.5</ele><time>2026-05-01T15:13:42.273Z</time></trkpt><trkpt lat="43.6793495" lon="7.1936307"><ele>12.0</ele><time>2026-05-01T15:13:43.274Z</time></trkpt><trkpt lat="43.6791167" lon="7.1937268"><ele>12.0</ele><time>2026-05-01T15:13:44.273Z</time></trkpt><trkpt lat="43.6788839" lon="7.1938331"><ele>12.0</ele><time>2026-05-01T15:13:45.273Z</time></trkpt><trkpt lat="43.6786575" lon="7.1939457"><ele>11.5</ele><time>2026-05-01T15:13:46.273Z</time></trkpt><trkpt lat="43.6784314" lon="7.1940642"><ele>11.0</ele><time>2026-05-01T15:13:47.273Z</time></trkpt><trkpt lat="43.6782155" lon="7.1941846"><ele>11.0</ele><time>2026-05-01T15:13:48.273Z</time></trkpt><trkpt lat="43.6780042" lon="7.1943022"><ele>11.0</ele><time>2026-05-01T15:13:49.273Z</time></trkpt><trkpt lat="43.6777993" lon="7.1944357"><ele>11.0</ele><time>2026-05-01T15:13:50.273Z</time></trkpt><trkpt lat="43.6775978" lon="7.1945681"><ele>11.0</ele><time>2026-05-01T15:13:51.273Z</time></trkpt><trkpt lat="43.6773984" lon="7.194706"><ele>11.0</ele><time>2026-05-01T15:13:52.273Z</time></trkpt><trkpt lat="43.6772032" lon="7.1948448"><ele>11.0</ele><time>2026-05-01T15:13:53.274Z</time></trkpt><trkpt lat="43.6770054" lon="7.1949954"><ele>11.0</ele><time>2026-05-01T15:13:54.273Z</time></trkpt><trkpt lat="43.6768075" lon="7.1951547"><ele>11.0</ele><time>2026-05-01T15:13:55.273Z</time></trkpt><trkpt lat="43.6766138" lon="7.1953175"><ele>11.0</ele><time>2026-05-01T15:13:56.273Z</time></trkpt><trkpt lat="43.676419" lon="7.1954766"><ele>11.0</ele><time>2026-05-01T15:13:57.273Z</time></trkpt><trkpt lat="43.6762298" lon="7.1956332"><ele>11.0</ele><time>2026-05-01T15:13:58.273Z</time></trkpt><trkpt lat="43.6760371" lon="7.1958063"><ele>11.0</ele><time>2026-05-01T15:13:59.273Z</time></trkpt><trkpt lat="43.6756601" lon="7.196174"><ele>11.0</ele><time>2026-05-01T15:14:01.273Z</time></trkpt><trkpt lat="43.6754755" lon="7.1963716"><ele>11.0</ele><time>2026-05-01T15:14:02.274Z</time></trkpt><trkpt lat="43.675297" lon="7.1965894"><ele>11.5</ele><time>2026-05-01T15:14:03.274Z</time></trkpt><trkpt lat="43.6751236" lon="7.1968075"><ele>12.0</ele><time>2026-05-01T15:14:04.273Z</time></trkpt><trkpt lat="43.6749534" lon="7.1970334"><ele>12.0</ele><time>2026-05-01T15:14:05.273Z</time></trkpt><trkpt lat="43.6747875" lon="7.1972587"><ele>12.0</ele><time>2026-05-01T15:14:06.273Z</time></trkpt><trkpt lat="43.6746259" lon="7.1975144"><ele>12.0</ele><time>2026-05-01T15:14:07.273Z</time></trkpt><trkpt lat="43.6744594" lon="7.1977499"><ele>12.0</ele><time>2026-05-01T15:14:08.274Z</time></trkpt><trkpt lat="43.6742948" lon="7.1979924"><ele>11.5</ele><time>2026-05-01T15:14:09.273Z</time></trkpt><trkpt lat="43.6741283" lon="7.1982273"><ele>11.0</ele><time>2026-05-01T15:14:10.273Z</time></trkpt><trkpt lat="43.6739531" lon="7.1984654"><ele>11.0</ele><time>2026-05-01T15:14:11.273Z</time></trkpt><trkpt lat="43.6737869" lon="7.1987072"><ele>11.0</ele><time>2026-05-01T15:14:12.273Z</time></trkpt><trkpt lat="43.6736158" lon="7.1989396"><ele>11.0</ele><time>2026-05-01T15:14:13.273Z</time></trkpt><trkpt lat="43.6734457" lon="7.1991769"><ele>11.0</ele><time>2026-05-01T15:14:14.274Z</time></trkpt><trkpt lat="43.6732771" lon="7.1994026"><ele>11.0</ele><time>2026-05-01T15:14:15.274Z</time></trkpt><trkpt lat="43.6731159" lon="7.1996303"><ele>11.0</ele><time>2026-05-01T15:14:16.273Z</time></trkpt><trkpt lat="43.6729567" lon="7.1998428"><ele>11.0</ele><time>2026-05-01T15:14:17.273Z</time></trkpt><trkpt lat="43.6728221" lon="7.2000594"><ele>11.0</ele><time>2026-05-01T15:14:18.273Z</time></trkpt><trkpt lat="43.6726872" lon="7.2002766"><ele>11.0</ele><time>2026-05-01T15:14:19.273Z</time></trkpt><trkpt lat="43.6725652" lon="7.2004788"><ele>11.5</ele><time>2026-05-01T15:14:20.273Z</time></trkpt><trkpt lat="43.672278" lon="7.2008658"><ele>12.0</ele><time>2026-05-01T15:14:22.273Z</time></trkpt><trkpt lat="43.6721128" lon="7.2010311"><ele>12.0</ele><time>2026-05-01T15:14:23.273Z</time></trkpt><trkpt lat="43.671943" lon="7.2011724"><ele>12.0</ele><time>2026-05-01T15:14:24.274Z</time></trkpt><trkpt lat="43.6717646" lon="7.2012966"><ele>12.0</ele><time>2026-05-01T15:14:25.273Z</time></trkpt><trkpt lat="43.6715801" lon="7.2014016"><ele>11.666666666666666</ele><time>2026-05-01T15:14:26.273Z</time></trkpt><trkpt lat="43.6713751" lon="7.2014739"><ele>11.333333333333332</ele><time>2026-05-01T15:14:27.273Z</time></trkpt><trkpt lat="43.6711609" lon="7.201526"><ele>11.0</ele><time>2026-05-01T15:14:28.273Z</time></trkpt><trkpt lat="43.6709403" lon="7.2015459"><ele>10.333333333333332</ele><time>2026-05-01T15:14:29.273Z</time></trkpt><trkpt lat="43.6707168" lon="7.20153"><ele>9.666666666666666</ele><time>2026-05-01T15:14:30.273Z</time></trkpt><trkpt lat="43.6704999" lon="7.2014837"><ele>9.0</ele><time>2026-05-01T15:14:31.273Z</time></trkpt><trkpt lat="43.6702839" lon="7.2014098"><ele>9.666666666666666</ele><time>2026-05-01T15:14:32.273Z</time></trkpt><trkpt lat="43.6700797" lon="7.201303"><ele>10.333333333333332</ele><time>2026-05-01T15:14:33.273Z</time></trkpt><trkpt lat="43.669886" lon="7.2011708"><ele>11.0</ele><time>2026-05-01T15:14:34.274Z</time></trkpt><trkpt lat="43.6697098" lon="7.2010053"><ele>11.0</ele><time>2026-05-01T15:14:35.273Z</time></trkpt><trkpt lat="43.6695505" lon="7.2008263"><ele>11.0</ele><time>2026-05-01T15:14:36.273Z</time></trkpt><trkpt lat="43.669411" lon="7.2006258"><ele>11.0</ele><time>2026-05-01T15:14:37.273Z</time></trkpt><trkpt lat="43.669281" lon="7.2004133"><ele>10.666666666666666</ele><time>2026-05-01T15:14:38.274Z</time></trkpt><trkpt lat="43.669165" lon="7.2001915"><ele>10.333333333333334</ele><time>2026-05-01T15:14:39.273Z</time></trkpt><trkpt lat="43.6690686" lon="7.1999572"><ele>10.0</ele><time>2026-05-01T15:14:40.274Z</time></trkpt><trkpt lat="43.6689798" lon="7.1997032"><ele>11.0</ele><time>2026-05-01T15:14:41.273Z</time></trkpt><trkpt lat="43.6687924" lon="7.199148"><ele>12.0</ele><time>2026-05-01T15:14:43.273Z</time></trkpt><trkpt lat="43.6686986" lon="7.1988532"><ele>12.0</ele><time>2026-05-01T15:14:44.273Z</time></trkpt><trkpt lat="43.6686051" lon="7.1985445"><ele>12.0</ele><time>2026-05-01T15:14:45.273Z</time></trkpt><trkpt lat="43.6685158" lon="7.1982299"><ele>11.0</ele><time>2026-05-01T15:14:46.273Z</time></trkpt><trkpt lat="43.6684267" lon="7.197932"><ele>10.0</ele><time>2026-05-01T15:14:47.273Z</time></trkpt><trkpt lat="43.6683337" lon="7.1976407"><ele>10.0</ele><time>2026-05-01T15:14:48.273Z</time></trkpt><trkpt lat="43.6682448" lon="7.1973481"><ele>10.0</ele><time>2026-05-01T15:14:49.273Z</time></trkpt><trkpt lat="43.6681536" lon="7.1970749"><ele>10.0</ele><time>2026-05-01T15:14:50.273Z</time></trkpt><trkpt lat="43.6680663" lon="7.1967931"><ele>10.0</ele><time>2026-05-01T15:14:51.273Z</time></trkpt><trkpt lat="43.6679794" lon="7.1965042"><ele>10.0</ele><time>2026-05-01T15:14:52.274Z</time></trkpt><trkpt lat="43.6678898" lon="7.1962155"><ele>9.5</ele><time>2026-05-01T15:14:53.274Z</time></trkpt><trkpt lat="43.6677984" lon="7.1959256"><ele>9.0</ele><time>2026-05-01T15:14:54.273Z</time></trkpt><trkpt lat="43.6677012" lon="7.1956328"><ele>13.5</ele><time>2026-05-01T15:14:55.273Z</time></trkpt><trkpt lat="43.6676096" lon="7.1953361"><ele>18.0</ele><time>2026-05-01T15:14:56.274Z</time></trkpt><trkpt lat="43.667518" lon="7.1950423"><ele>19.5</ele><time>2026-05-01T15:14:57.273Z</time></trkpt><trkpt lat="43.667432" lon="7.1947462"><ele>21.0</ele><time>2026-05-01T15:14:58.273Z</time></trkpt><trkpt lat="43.6673472" lon="7.1944487"><ele>21.0</ele><time>2026-05-01T15:14:59.273Z</time></trkpt><trkpt lat="43.6672616" lon="7.1941491"><ele>21.0</ele><time>2026-05-01T15:15:00.273Z</time></trkpt><trkpt lat="43.6671746" lon="7.1938366"><ele>21.5</ele><time>2026-05-01T15:15:01.273Z</time></trkpt><trkpt lat="43.6670983" lon="7.1935325"><ele>22.0</ele><time>2026-05-01T15:15:02.273Z</time></trkpt><trkpt lat="43.6669499" lon="7.1929045"><ele>22.0</ele><time>2026-05-01T15:15:04.273Z</time></trkpt><trkpt lat="43.666887" lon="7.192584"><ele>22.0</ele><time>2026-05-01T15:15:05.274Z</time></trkpt><trkpt lat="43.666832" lon="7.1922634"><ele>22.0</ele><time>2026-05-01T15:15:06.273Z</time></trkpt><trkpt lat="43.6667776" lon="7.1919386"><ele>22.0</ele><time>2026-05-01T15:15:07.273Z</time></trkpt><trkpt lat="43.6667289" lon="7.1916159"><ele>22.5</ele><time>2026-05-01T15:15:08.274Z</time></trkpt><trkpt lat="43.6666797" lon="7.1912878"><ele>23.0</ele><time>2026-05-01T15:15:09.274Z</time></trkpt><trkpt lat="43.6666347" lon="7.1909522"><ele>26.0</ele><time>2026-05-01T15:15:10.273Z</time></trkpt><trkpt lat="43.6665988" lon="7.1906227"><ele>29.0</ele><time>2026-05-01T15:15:11.273Z</time></trkpt><trkpt lat="43.6665609" lon="7.1902929"><ele>29.0</ele><time>2026-05-01T15:15:12.273Z</time></trkpt><trkpt lat="43.6665134" lon="7.1899572"><ele>29.0</ele><time>2026-05-01T15:15:13.273Z</time></trkpt><trkpt lat="43.6664625" lon="7.1896236"><ele>31.5</ele><time>2026-05-01T15:15:14.273Z</time></trkpt><trkpt lat="43.6664166" lon="7.1892935"><ele>34.0</ele><time>2026-05-01T15:15:15.273Z</time></trkpt><trkpt lat="43.6663608" lon="7.1889601"><ele>35.5</ele><time>2026-05-01T15:15:16.273Z</time></trkpt><trkpt lat="43.6663023" lon="7.1886242"><ele>37.0</ele><time>2026-05-01T15:15:17.273Z</time></trkpt><trkpt lat="43.666239" lon="7.1882935"><ele>37.0</ele><time>2026-05-01T15:15:18.274Z</time></trkpt><trkpt lat="43.666175" lon="7.1879619"><ele>37.0</ele><time>2026-05-01T15:15:19.273Z</time></trkpt><trkpt lat="43.666099" lon="7.1876349"><ele>35.5</ele><time>2026-05-01T15:15:20.273Z</time></trkpt><trkpt lat="43.6660141" lon="7.1873073"><ele>34.0</ele><time>2026-05-01T15:15:21.273Z</time></trkpt><trkpt lat="43.6659262" lon="7.1869954"><ele>34.0</ele><time>2026-05-01T15:15:22.274Z</time></trkpt><trkpt lat="43.6658373" lon="7.1866699"><ele>34.0</ele><time>2026-05-01T15:15:23.273Z</time></trkpt><trkpt lat="43.6656565" lon="7.1860183"><ele>35.0</ele><time>2026-05-01T15:15:25.273Z</time></trkpt><trkpt lat="43.6655596" lon="7.1857022"><ele>36.0</ele><time>2026-05-01T15:15:26.273Z</time></trkpt><trkpt lat="43.6654713" lon="7.1853927"><ele>36.0</ele><time>2026-05-01T15:15:27.273Z</time></trkpt><trkpt lat="43.6653753" lon="7.1850768"><ele>36.0</ele><time>2026-05-01T15:15:28.273Z</time></trkpt><trkpt lat="43.6652815" lon="7.1847477"><ele>33.5</ele><time>2026-05-01T15:15:29.273Z</time></trkpt><trkpt lat="43.6651929" lon="7.1844271"><ele>31.0</ele><time>2026-05-01T15:15:30.273Z</time></trkpt><trkpt lat="43.6651073" lon="7.1841001"><ele>30.5</ele><time>2026-05-01T15:15:31.273Z</time></trkpt><trkpt lat="43.6650243" lon="7.1837745"><ele>30.0</ele><time>2026-05-01T15:15:32.273Z</time></trkpt><trkpt lat="43.6649403" lon="7.1834364"><ele>28.5</ele><time>2026-05-01T15:15:33.273Z</time></trkpt><trkpt lat="43.6648618" lon="7.1830978"><ele>27.0</ele><time>2026-05-01T15:15:34.273Z</time></trkpt><trkpt lat="43.6647854" lon="7.1827535"><ele>27.0</ele><time>2026-05-01T15:15:35.273Z</time></trkpt><trkpt lat="43.6647103" lon="7.1824326"><ele>27.0</ele><time>2026-05-01T15:15:36.274Z</time></trkpt><trkpt lat="43.6646409" lon="7.1820971"><ele>27.5</ele><time>2026-05-01T15:15:37.273Z</time></trkpt><trkpt lat="43.6645844" lon="7.1817593"><ele>28.0</ele><time>2026-05-01T15:15:38.273Z</time></trkpt><trkpt lat="43.6645268" lon="7.1814174"><ele>29.0</ele><time>2026-05-01T15:15:39.273Z</time></trkpt><trkpt lat="43.6644629" lon="7.1810767"><ele>30.0</ele><time>2026-05-01T15:15:40.273Z</time></trkpt><trkpt lat="43.6643988" lon="7.180741"><ele>27.5</ele><time>2026-05-01T15:15:41.273Z</time></trkpt><trkpt lat="43.6643319" lon="7.1803988"><ele>25.0</ele><time>2026-05-01T15:15:42.274Z</time></trkpt><trkpt lat="43.6642694" lon="7.1800612"><ele>23.5</ele><time>2026-05-01T15:15:43.274Z</time></trkpt><trkpt lat="43.6642061" lon="7.1797157"><ele>22.0</ele><time>2026-05-01T15:15:44.273Z</time></trkpt><trkpt lat="43.6640731" lon="7.1790324"><ele>23.0</ele><time>2026-05-01T15:15:46.273Z</time></trkpt><trkpt lat="43.6640087" lon="7.1786925"><ele>24.0</ele><time>2026-05-01T15:15:47.274Z</time></trkpt><trkpt lat="43.6639481" lon="7.1783526"><ele>25.0</ele><time>2026-05-01T15:15:48.273Z</time></trkpt><trkpt lat="43.6638852" lon="7.1780002"><ele>26.0</ele><time>2026-05-01T15:15:49.273Z</time></trkpt><trkpt lat="43.6638276" lon="7.1776616"><ele>26.5</ele><time>2026-05-01T15:15:50.274Z</time></trkpt><trkpt lat="43.6637695" lon="7.1773305"><ele>27.0</ele><time>2026-05-01T15:15:51.273Z</time></trkpt><trkpt lat="43.6637098" lon="7.1769936"><ele>27.0</ele><time>2026-05-01T15:15:52.273Z</time></trkpt><trkpt lat="43.6636556" lon="7.1766572"><ele>27.0</ele><time>2026-05-01T15:15:53.273Z</time></trkpt><trkpt lat="43.6635965" lon="7.1763262"><ele>23.0</ele><time>2026-05-01T15:15:54.273Z</time></trkpt><trkpt lat="43.6635372" lon="7.1759983"><ele>19.0</ele><time>2026-05-01T15:15:55.273Z</time></trkpt><trkpt lat="43.6634829" lon="7.1756671"><ele>19.0</ele><time>2026-05-01T15:15:56.273Z</time></trkpt><trkpt lat="43.6634343" lon="7.175327"><ele>19.0</ele><time>2026-05-01T15:15:57.273Z</time></trkpt><trkpt lat="43.6633903" lon="7.1749917"><ele>19.0</ele><time>2026-05-01T15:15:58.273Z</time></trkpt><trkpt lat="43.6633413" lon="7.1746599"><ele>19.0</ele><time>2026-05-01T15:15:59.273Z</time></trkpt><trkpt lat="43.6633" lon="7.1743332"><ele>18.5</ele><time>2026-05-01T15:16:00.273Z</time></trkpt><trkpt lat="43.6632557" lon="7.1740128"><ele>18.0</ele><time>2026-05-01T15:16:01.273Z</time></trkpt><trkpt lat="43.6632037" lon="7.1736928"><ele>18.0</ele><time>2026-05-01T15:16:02.273Z</time></trkpt><trkpt lat="43.6631486" lon="7.1733732"><ele>18.0</ele><time>2026-05-01T15:16:03.273Z</time></trkpt><trkpt lat="43.6630922" lon="7.1730574"><ele>16.5</ele><time>2026-05-01T15:16:04.273Z</time></trkpt><trkpt lat="43.6630364" lon="7.1727383"><ele>15.0</ele><time>2026-05-01T15:16:05.273Z</time></trkpt><trkpt lat="43.6629063" lon="7.1721039"><ele>15.0</ele><time>2026-05-01T15:16:07.273Z</time></trkpt><trkpt lat="43.6628313" lon="7.1717978"><ele>15.0</ele><time>2026-05-01T15:16:08.274Z</time></trkpt><trkpt lat="43.6627417" lon="7.1714959"><ele>15.5</ele><time>2026-05-01T15:16:09.274Z</time></trkpt><trkpt lat="43.6626445" lon="7.1712069"><ele>16.0</ele><time>2026-05-01T15:16:10.274Z</time></trkpt><trkpt lat="43.662532" lon="7.1709324"><ele>19.0</ele><time>2026-05-01T15:16:11.273Z</time></trkpt><trkpt lat="43.662422" lon="7.1706515"><ele>22.0</ele><time>2026-05-01T15:16:12.273Z</time></trkpt><trkpt lat="43.6623057" lon="7.1703673"><ele>22.0</ele><time>2026-05-01T15:16:13.273Z</time></trkpt><trkpt lat="43.6621843" lon="7.1700828"><ele>22.0</ele><time>2026-05-01T15:16:14.273Z</time></trkpt><trkpt lat="43.6620677" lon="7.1698053"><ele>21.5</ele><time>2026-05-01T15:16:15.273Z</time></trkpt><trkpt lat="43.6619407" lon="7.1695218"><ele>21.0</ele><time>2026-05-01T15:16:16.273Z</time></trkpt><trkpt lat="43.6618133" lon="7.1692413"><ele>21.0</ele><time>2026-05-01T15:16:17.273Z</time></trkpt><trkpt lat="43.661688" lon="7.1689615"><ele>21.0</ele><time>2026-05-01T15:16:18.273Z</time></trkpt><trkpt lat="43.6615644" lon="7.1686801"><ele>21.0</ele><time>2026-05-01T15:16:19.273Z</time></trkpt><trkpt lat="43.6614347" lon="7.1684071"><ele>21.0</ele><time>2026-05-01T15:16:20.273Z</time></trkpt><trkpt lat="43.6613128" lon="7.1681443"><ele>21.0</ele><time>2026-05-01T15:16:21.273Z</time></trkpt><trkpt lat="43.6611905" lon="7.1678755"><ele>21.0</ele><time>2026-05-01T15:16:22.274Z</time></trkpt><trkpt lat="43.6610808" lon="7.1676016"><ele>21.5</ele><time>2026-05-01T15:16:23.273Z</time></trkpt><trkpt lat="43.6609707" lon="7.1673266"><ele>22.0</ele><time>2026-05-01T15:16:24.273Z</time></trkpt><trkpt lat="43.6608686" lon="7.1670462"><ele>22.0</ele><time>2026-05-01T15:16:25.274Z</time></trkpt><trkpt lat="43.6607775" lon="7.1667561"><ele>22.0</ele><time>2026-05-01T15:16:26.273Z</time></trkpt><trkpt lat="43.6606063" lon="7.16615"><ele>22.0</ele><time>2026-05-01T15:16:28.274Z</time></trkpt><trkpt lat="43.6605321" lon="7.1658556"><ele>22.0</ele><time>2026-05-01T15:16:29.273Z</time></trkpt><trkpt lat="43.6604632" lon="7.1655644"><ele>22.0</ele><time>2026-05-01T15:16:30.273Z</time></trkpt><trkpt lat="43.660413" lon="7.1652714"><ele>22.0</ele><time>2026-05-01T15:16:31.274Z</time></trkpt><trkpt lat="43.6603642" lon="7.1649766"><ele>22.0</ele><time>2026-05-01T15:16:32.273Z</time></trkpt><trkpt lat="43.6603268" lon="7.1646917"><ele>22.0</ele><time>2026-05-01T15:16:33.273Z</time></trkpt><trkpt lat="43.6602969" lon="7.1644051"><ele>19.333333333333332</ele><time>2026-05-01T15:16:34.273Z</time></trkpt><trkpt lat="43.660277" lon="7.1641123"><ele>16.666666666666668</ele><time>2026-05-01T15:16:35.274Z</time></trkpt><trkpt lat="43.6602582" lon="7.1638128"><ele>14.0</ele><time>2026-05-01T15:16:36.273Z</time></trkpt><trkpt lat="43.6602565" lon="7.1635077"><ele>13.0</ele><time>2026-05-01T15:16:37.273Z</time></trkpt><trkpt lat="43.6602518" lon="7.1631969"><ele>12.0</ele><time>2026-05-01T15:16:38.273Z</time></trkpt><trkpt lat="43.6602663" lon="7.1628881"><ele>11.0</ele><time>2026-05-01T15:16:39.273Z</time></trkpt><trkpt lat="43.6602867" lon="7.162575"><ele>14.0</ele><time>2026-05-01T15:16:40.273Z</time></trkpt><trkpt lat="43.660306" lon="7.1622604"><ele>17.0</ele><time>2026-05-01T15:16:41.273Z</time></trkpt><trkpt lat="43.6603313" lon="7.1619518"><ele>17.0</ele><time>2026-05-01T15:16:42.273Z</time></trkpt><trkpt lat="43.6603667" lon="7.1616396"><ele>17.0</ele><time>2026-05-01T15:16:43.274Z</time></trkpt><trkpt lat="43.6604018" lon="7.1613367"><ele>17.0</ele><time>2026-05-01T15:16:44.273Z</time></trkpt><trkpt lat="43.6604347" lon="7.1610372"><ele>17.0</ele><time>2026-05-01T15:16:45.273Z</time></trkpt><trkpt lat="43.6604594" lon="7.160735"><ele>17.0</ele><time>2026-05-01T15:16:46.273Z</time></trkpt><trkpt lat="43.6604909" lon="7.1604371"><ele>17.0</ele><time>2026-05-01T15:16:47.274Z</time></trkpt><trkpt lat="43.6605557" lon="7.1598427"><ele>17.0</ele><time>2026-05-01T15:16:49.273Z</time></trkpt><trkpt lat="43.6605776" lon="7.1595391"><ele>17.0</ele><time>2026-05-01T15:16:50.273Z</time></trkpt><trkpt lat="43.6606007" lon="7.1592357"><ele>17.0</ele><time>2026-05-01T15:16:51.273Z</time></trkpt><trkpt lat="43.6606296" lon="7.1589408"><ele>17.0</ele><time>2026-05-01T15:16:52.274Z</time></trkpt><trkpt lat="43.6606594" lon="7.1586472"><ele>19.0</ele><time>2026-05-01T15:16:53.273Z</time></trkpt><trkpt lat="43.6606865" lon="7.1583573"><ele>21.0</ele><time>2026-05-01T15:16:54.273Z</time></trkpt><trkpt lat="43.6607104" lon="7.1580678"><ele>23.0</ele><time>2026-05-01T15:16:55.273Z</time></trkpt><trkpt lat="43.6607394" lon="7.1577783"><ele>23.0</ele><time>2026-05-01T15:16:56.273Z</time></trkpt><trkpt lat="43.6607575" lon="7.1574893"><ele>23.0</ele><time>2026-05-01T15:16:57.273Z</time></trkpt><trkpt lat="43.6607785" lon="7.1572041"><ele>23.0</ele><time>2026-05-01T15:16:58.273Z</time></trkpt><trkpt lat="43.6608034" lon="7.1569256"><ele>23.0</ele><time>2026-05-01T15:16:59.273Z</time></trkpt><trkpt lat="43.6608382" lon="7.1566374"><ele>23.0</ele><time>2026-05-01T15:17:00.273Z</time></trkpt><trkpt lat="43.6608662" lon="7.1563557"><ele>23.0</ele><time>2026-05-01T15:17:01.274Z</time></trkpt><trkpt lat="43.6608869" lon="7.1560708"><ele>22.333333333333336</ele><time>2026-05-01T15:17:02.273Z</time></trkpt><trkpt lat="43.6608951" lon="7.1557827"><ele>21.666666666666668</ele><time>2026-05-01T15:17:03.273Z</time></trkpt><trkpt lat="43.6608883" lon="7.1555016"><ele>21.0</ele><time>2026-05-01T15:17:04.273Z</time></trkpt><trkpt lat="43.6608846" lon="7.1552242"><ele>20.0</ele><time>2026-05-01T15:17:05.273Z</time></trkpt><trkpt lat="43.6608768" lon="7.1549446"><ele>19.0</ele><time>2026-05-01T15:17:06.273Z</time></trkpt><trkpt lat="43.6608689" lon="7.1546619"><ele>18.0</ele><time>2026-05-01T15:17:07.273Z</time></trkpt><trkpt lat="43.6608564" lon="7.1543865"><ele>13.5</ele><time>2026-05-01T15:17:08.273Z</time></trkpt><trkpt lat="43.6608166" lon="7.1538656"><ele>9.0</ele><time>2026-05-01T15:17:10.273Z</time></trkpt><trkpt lat="43.6607894" lon="7.1536098"><ele>9.0</ele><time>2026-05-01T15:17:11.274Z</time></trkpt><trkpt lat="43.6607561" lon="7.15336"><ele>9.0</ele><time>2026-05-01T15:17:12.273Z</time></trkpt><trkpt lat="43.660715" lon="7.1531188"><ele>9.0</ele><time>2026-05-01T15:17:13.273Z</time></trkpt><trkpt lat="43.6606713" lon="7.1528791"><ele>9.0</ele><time>2026-05-01T15:17:14.273Z</time></trkpt><trkpt lat="43.6606233" lon="7.152644"><ele>9.0</ele><time>2026-05-01T15:17:15.274Z</time></trkpt><trkpt lat="43.66056" lon="7.1524063"><ele>9.0</ele><time>2026-05-01T15:17:16.273Z</time></trkpt><trkpt lat="43.6605018" lon="7.1521763"><ele>9.0</ele><time>2026-05-01T15:17:17.273Z</time></trkpt><trkpt lat="43.6604344" lon="7.1519403"><ele>9.0</ele><time>2026-05-01T15:17:18.273Z</time></trkpt><trkpt lat="43.6603714" lon="7.151707"><ele>9.0</ele><time>2026-05-01T15:17:19.273Z</time></trkpt><trkpt lat="43.6603051" lon="7.1514888"><ele>10.0</ele><time>2026-05-01T15:17:20.273Z</time></trkpt><trkpt lat="43.6602389" lon="7.1512791"><ele>11.0</ele><time>2026-05-01T15:17:21.273Z</time></trkpt><trkpt lat="43.6601813" lon="7.1510862"><ele>12.0</ele><time>2026-05-01T15:17:22.273Z</time></trkpt><trkpt lat="43.6601315" lon="7.1509031"><ele>12.0</ele><time>2026-05-01T15:17:23.274Z</time></trkpt><trkpt lat="43.6600822" lon="7.1507177"><ele>12.0</ele><time>2026-05-01T15:17:24.273Z</time></trkpt><trkpt lat="43.6600206" lon="7.1505493"><ele>12.0</ele><time>2026-05-01T15:17:25.273Z</time></trkpt><trkpt lat="43.6599573" lon="7.1503869"><ele>12.0</ele><time>2026-05-01T15:17:26.273Z</time></trkpt><trkpt lat="43.6598906" lon="7.1502368"><ele>12.666666666666668</ele><time>2026-05-01T15:17:27.273Z</time></trkpt><trkpt lat="43.6598266" lon="7.1500996"><ele>13.333333333333334</ele><time>2026-05-01T15:17:28.273Z</time></trkpt><trkpt lat="43.6597596" lon="7.1499681"><ele>14.0</ele><time>2026-05-01T15:17:29.273Z</time></trkpt><trkpt lat="43.6596219" lon="7.1497058"><ele>14.000000000000002</ele><time>2026-05-01T15:17:31.273Z</time></trkpt><trkpt lat="43.6595601" lon="7.1495934"><ele>14.0</ele><time>2026-05-01T15:17:32.273Z</time></trkpt><trkpt lat="43.6594991" lon="7.1495006"><ele>14.0</ele><time>2026-05-01T15:17:33.273Z</time></trkpt><trkpt lat="43.6594541" lon="7.1494107"><ele>14.0</ele><time>2026-05-01T15:17:34.273Z</time></trkpt><trkpt lat="43.6594144" lon="7.1493289"><ele>14.000000000000002</ele><time>2026-05-01T15:17:35.273Z</time></trkpt><trkpt lat="43.6593808" lon="7.1492538"><ele>14.0</ele><time>2026-05-01T15:17:36.273Z</time></trkpt><trkpt lat="43.659347" lon="7.1490979"><ele>13.333333333333334</ele><time>2026-05-01T15:17:38.273Z</time></trkpt><trkpt lat="43.659352" lon="7.1489645"><ele>12.666666666666668</ele><time>2026-05-01T15:17:40.274Z</time></trkpt><trkpt lat="43.659369" lon="7.148858"><ele>12.0</ele><time>2026-05-01T15:17:42.273Z</time></trkpt><trkpt lat="43.6593864" lon="7.1487719"><ele>11.333333333333334</ele><time>2026-05-01T15:17:45.273Z</time></trkpt><trkpt lat="43.6594223" lon="7.1486933"><ele>10.666666666666668</ele><time>2026-05-01T15:18:25.274Z</time></trkpt><trkpt lat="43.6594238" lon="7.1485004"><ele>10.0</ele><time>2026-05-01T15:18:41.273Z</time></trkpt><trkpt lat="43.6594383" lon="7.1483717"><ele>10.0</ele><time>2026-05-01T15:18:44.273Z</time></trkpt><trkpt lat="43.659448" lon="7.1482129"><ele>10.0</ele><time>2026-05-01T15:18:46.273Z</time></trkpt><trkpt lat="43.6594603" lon="7.1479816"><ele>10.0</ele><time>2026-05-01T15:18:48.273Z</time></trkpt><trkpt lat="43.6594737" lon="7.1478629"><ele>10.0</ele><time>2026-05-01T15:18:49.273Z</time></trkpt><trkpt lat="43.6594908" lon="7.1477528"><ele>10.5</ele><time>2026-05-01T15:18:50.274Z</time></trkpt><trkpt lat="43.6595145" lon="7.1476421"><ele>11.0</ele><time>2026-05-01T15:18:51.274Z</time></trkpt><trkpt lat="43.6595357" lon="7.14752"><ele>11.5</ele><time>2026-05-01T15:18:52.273Z</time></trkpt><trkpt lat="43.6595536" lon="7.1473969"><ele>12.0</ele><time>2026-05-01T15:18:53.273Z</time></trkpt><trkpt lat="43.6595755" lon="7.1472771"><ele>12.499999999999998</ele><time>2026-05-01T15:18:54.273Z</time></trkpt><trkpt lat="43.6595971" lon="7.1471563"><ele>13.0</ele><time>2026-05-01T15:18:55.273Z</time></trkpt><trkpt lat="43.6596202" lon="7.147037"><ele>13.0</ele><time>2026-05-01T15:18:56.273Z</time></trkpt><trkpt lat="43.6596451" lon="7.1469108"><ele>13.0</ele><time>2026-05-01T15:18:57.273Z</time></trkpt><trkpt lat="43.6596786" lon="7.1467806"><ele>13.0</ele><time>2026-05-01T15:18:58.273Z</time></trkpt><trkpt lat="43.6597168" lon="7.1466448"><ele>13.0</ele><time>2026-05-01T15:18:59.273Z</time></trkpt><trkpt lat="43.6597528" lon="7.1464973"><ele>13.0</ele><time>2026-05-01T15:19:00.273Z</time></trkpt><trkpt lat="43.6597894" lon="7.1463566"><ele>13.0</ele><time>2026-05-01T15:19:01.274Z</time></trkpt><trkpt lat="43.6598301" lon="7.1462103"><ele>13.0</ele><time>2026-05-01T15:19:02.273Z</time></trkpt><trkpt lat="43.6598673" lon="7.1460637"><ele>13.0</ele><time>2026-05-01T15:19:03.274Z</time></trkpt><trkpt lat="43.6599072" lon="7.1459226"><ele>13.0</ele><time>2026-05-01T15:19:04.273Z</time></trkpt><trkpt lat="43.6599429" lon="7.1457855"><ele>13.0</ele><time>2026-05-01T15:19:05.273Z</time></trkpt><trkpt lat="43.6599778" lon="7.1456556"><ele>12.75</ele><time>2026-05-01T15:19:06.274Z</time></trkpt><trkpt lat="43.6600144" lon="7.14552"><ele>12.5</ele><time>2026-05-01T15:19:07.274Z</time></trkpt><trkpt lat="43.6600815" lon="7.1452462"><ele>12.25</ele><time>2026-05-01T15:19:09.273Z</time></trkpt><trkpt lat="43.6601133" lon="7.1451159"><ele>12.0</ele><time>2026-05-01T15:19:10.273Z</time></trkpt><trkpt lat="43.6601434" lon="7.1449907"><ele>12.0</ele><time>2026-05-01T15:19:11.273Z</time></trkpt><trkpt lat="43.6601762" lon="7.1448646"><ele>12.0</ele><time>2026-05-01T15:19:12.273Z</time></trkpt><trkpt lat="43.6602034" lon="7.1447426"><ele>12.0</ele><time>2026-05-01T15:19:13.274Z</time></trkpt><trkpt lat="43.6602343" lon="7.1446213"><ele>12.0</ele><time>2026-05-01T15:19:14.273Z</time></trkpt><trkpt lat="43.6602701" lon="7.1445054"><ele>12.0</ele><time>2026-05-01T15:19:15.273Z</time></trkpt><trkpt lat="43.6603055" lon="7.1444011"><ele>13.2</ele><time>2026-05-01T15:19:16.274Z</time></trkpt><trkpt lat="43.6603391" lon="7.1443144"><ele>14.399999999999999</ele><time>2026-05-01T15:19:17.273Z</time></trkpt><trkpt lat="43.660372" lon="7.1442383"><ele>15.600000000000001</ele><time>2026-05-01T15:19:18.273Z</time></trkpt><trkpt lat="43.6604529" lon="7.144098"><ele>16.8</ele><time>2026-05-01T15:19:20.274Z</time></trkpt><trkpt lat="43.6604818" lon="7.1440114"><ele>18.0</ele><time>2026-05-01T15:19:21.273Z</time></trkpt><trkpt lat="43.660501" lon="7.1438476"><ele>18.0</ele><time>2026-05-01T15:19:23.273Z</time></trkpt><trkpt lat="43.6604878" lon="7.1437601"><ele>18.0</ele><time>2026-05-01T15:19:24.274Z</time></trkpt><trkpt lat="43.6604698" lon="7.1435971"><ele>18.0</ele><time>2026-05-01T15:19:26.273Z</time></trkpt><trkpt lat="43.6604639" lon="7.1434541"><ele>18.0</ele><time>2026-05-01T15:19:28.273Z</time></trkpt><trkpt lat="43.6604436" lon="7.1432738"><ele>18.0</ele><time>2026-05-01T15:19:30.273Z</time></trkpt><trkpt lat="43.660437" lon="7.1431821"><ele>17.6</ele><time>2026-05-01T15:19:31.273Z</time></trkpt><trkpt lat="43.6604334" lon="7.1430857"><ele>17.200000000000003</ele><time>2026-05-01T15:19:32.273Z</time></trkpt><trkpt lat="43.6604287" lon="7.1429196"><ele>16.8</ele><time>2026-05-01T15:19:34.273Z</time></trkpt><trkpt lat="43.6604122" lon="7.1427632"><ele>16.400000000000002</ele><time>2026-05-01T15:19:36.273Z</time></trkpt><trkpt lat="43.660408" lon="7.1426244"><ele>16.0</ele><time>2026-05-01T15:19:38.273Z</time></trkpt><trkpt lat="43.6604043" lon="7.1425014"><ele>16.0</ele><time>2026-05-01T15:19:40.274Z</time></trkpt><trkpt lat="43.6603932" lon="7.1423926"><ele>16.0</ele><time>2026-05-01T15:19:42.273Z</time></trkpt><trkpt lat="43.6603864" lon="7.1422822"><ele>16.0</ele><time>2026-05-01T15:19:44.273Z</time></trkpt><trkpt lat="43.6603809" lon="7.1421774"><ele>16.0</ele><time>2026-05-01T15:19:46.273Z</time></trkpt><trkpt lat="43.6603699" lon="7.1420822"><ele>16.0</ele><time>2026-05-01T15:19:49.273Z</time></trkpt><trkpt lat="43.6603275" lon="7.1418249"><ele>15.8</ele><time>2026-05-01T15:20:01.273Z</time></trkpt><trkpt lat="43.6603061" lon="7.1416937"><ele>15.600000000000001</ele><time>2026-05-01T15:20:02.273Z</time></trkpt><trkpt lat="43.6602869" lon="7.1415506"><ele>15.4</ele><time>2026-05-01T15:20:03.273Z</time></trkpt><trkpt lat="43.6602656" lon="7.1414004"><ele>15.2</ele><time>2026-05-01T15:20:04.273Z</time></trkpt><trkpt lat="43.6602515" lon="7.1412602"><ele>15.0</ele><time>2026-05-01T15:20:05.274Z</time></trkpt><trkpt lat="43.6602396" lon="7.1411368"><ele>15.0</ele><time>2026-05-01T15:20:06.273Z</time></trkpt><trkpt lat="43.6602311" lon="7.1410234"><ele>15.0</ele><time>2026-05-01T15:20:07.273Z</time></trkpt><trkpt lat="43.6602211" lon="7.1409226"><ele>15.0</ele><time>2026-05-01T15:20:08.273Z</time></trkpt><trkpt lat="43.6602082" lon="7.1408227"><ele>15.0</ele><time>2026-05-01T15:20:09.273Z</time></trkpt><trkpt lat="43.6601946" lon="7.140713"><ele>15.0</ele><time>2026-05-01T15:20:10.273Z</time></trkpt><trkpt lat="43.660163" lon="7.1404955"><ele>15.0</ele><time>2026-05-01T15:20:12.273Z</time></trkpt><trkpt lat="43.6601468" lon="7.140392"><ele>15.0</ele><time>2026-05-01T15:20:13.273Z</time></trkpt><trkpt lat="43.6601238" lon="7.1402573"><ele>15.0</ele><time>2026-05-01T15:20:14.273Z</time></trkpt><trkpt lat="43.6601011" lon="7.1401119"><ele>15.0</ele><time>2026-05-01T15:20:15.274Z</time></trkpt><trkpt lat="43.6600849" lon="7.1399581"><ele>15.0</ele><time>2026-05-01T15:20:16.273Z</time></trkpt><trkpt lat="43.6600762" lon="7.139825"><ele>15.166666666666666</ele><time>2026-05-01T15:20:17.274Z</time></trkpt><trkpt lat="43.6600646" lon="7.1397016"><ele>15.333333333333332</ele><time>2026-05-01T15:20:18.273Z</time></trkpt><trkpt lat="43.6600506" lon="7.1395758"><ele>15.5</ele><time>2026-05-01T15:20:19.273Z</time></trkpt><trkpt lat="43.6600387" lon="7.1394576"><ele>15.666666666666666</ele><time>2026-05-01T15:20:20.274Z</time></trkpt><trkpt lat="43.6600357" lon="7.1393501"><ele>15.833333333333332</ele><time>2026-05-01T15:20:21.273Z</time></trkpt><trkpt lat="43.6600301" lon="7.1392447"><ele>16.0</ele><time>2026-05-01T15:20:22.273Z</time></trkpt><trkpt lat="43.6600294" lon="7.1391468"><ele>15.999999999999998</ele><time>2026-05-01T15:20:23.273Z</time></trkpt><trkpt lat="43.6600236" lon="7.139053"><ele>16.0</ele><time>2026-05-01T15:20:24.273Z</time></trkpt><trkpt lat="43.6600186" lon="7.1389654"><ele>16.0</ele><time>2026-05-01T15:20:25.273Z</time></trkpt><trkpt lat="43.6600231" lon="7.1388118"><ele>16.0</ele><time>2026-05-01T15:20:27.273Z</time></trkpt><trkpt lat="43.6600188" lon="7.1386721"><ele>15.999999999999998</ele><time>2026-05-01T15:20:29.273Z</time></trkpt><trkpt lat="43.6600215" lon="7.1385712"><ele>16.0</ele><time>2026-05-01T15:20:31.274Z</time></trkpt><trkpt lat="43.6600247" lon="7.1383629"><ele>16.25</ele><time>2026-05-01T15:20:59.274Z</time></trkpt><trkpt lat="43.6600242" lon="7.1380596"><ele>16.5</ele><time>2026-05-01T15:21:03.273Z</time></trkpt><trkpt lat="43.6600267" lon="7.1379514"><ele>16.75</ele><time>2026-05-01T15:21:04.274Z</time></trkpt><trkpt lat="43.6600313" lon="7.1378336"><ele>17.0</ele><time>2026-05-01T15:21:05.273Z</time></trkpt><trkpt lat="43.6600382" lon="7.1377063"><ele>17.0</ele><time>2026-05-01T15:21:06.273Z</time></trkpt><trkpt lat="43.6600611" lon="7.1375782"><ele>17.0</ele><time>2026-05-01T15:21:07.274Z</time></trkpt><trkpt lat="43.6600857" lon="7.1374377"><ele>17.0</ele><time>2026-05-01T15:21:08.273Z</time></trkpt><trkpt lat="43.6601093" lon="7.1372867"><ele>17.0</ele><time>2026-05-01T15:21:09.273Z</time></trkpt><trkpt lat="43.6601314" lon="7.1371401"><ele>17.0</ele><time>2026-05-01T15:21:10.273Z</time></trkpt><trkpt lat="43.6601573" lon="7.1369876"><ele>17.0</ele><time>2026-05-01T15:21:11.273Z</time></trkpt><trkpt lat="43.6601927" lon="7.1368268"><ele>17.0</ele><time>2026-05-01T15:21:12.273Z</time></trkpt><trkpt lat="43.6602285" lon="7.1366705"><ele>17.0</ele><time>2026-05-01T15:21:13.273Z</time></trkpt><trkpt lat="43.6602658" lon="7.1365077"><ele>17.0</ele><time>2026-05-01T15:21:14.273Z</time></trkpt><trkpt lat="43.660304" lon="7.1363471"><ele>18.75</ele><time>2026-05-01T15:21:15.273Z</time></trkpt><trkpt lat="43.6603433" lon="7.1361858"><ele>20.5</ele><time>2026-05-01T15:21:16.273Z</time></trkpt><trkpt lat="43.6603803" lon="7.1360285"><ele>22.25</ele><time>2026-05-01T15:21:17.274Z</time></trkpt><trkpt lat="43.6604222" lon="7.1358795"><ele>24.0</ele><time>2026-05-01T15:21:18.273Z</time></trkpt><trkpt lat="43.6604616" lon="7.1357346"><ele>23.75</ele><time>2026-05-01T15:21:19.274Z</time></trkpt><trkpt lat="43.6605058" lon="7.1355978"><ele>23.5</ele><time>2026-05-01T15:21:20.273Z</time></trkpt><trkpt lat="43.6605937" lon="7.1353066"><ele>23.25</ele><time>2026-05-01T15:21:22.273Z</time></trkpt><trkpt lat="43.6606352" lon="7.1351681"><ele>23.0</ele><time>2026-05-01T15:21:23.274Z</time></trkpt><trkpt lat="43.6606829" lon="7.1350403"><ele>23.0</ele><time>2026-05-01T15:21:24.273Z</time></trkpt><trkpt lat="43.6607303" lon="7.134911"><ele>23.0</ele><time>2026-05-01T15:21:25.273Z</time></trkpt><trkpt lat="43.6607772" lon="7.1347902"><ele>23.0</ele><time>2026-05-01T15:21:26.273Z</time></trkpt><trkpt lat="43.6608322" lon="7.1346696"><ele>23.0</ele><time>2026-05-01T15:21:27.273Z</time></trkpt><trkpt lat="43.6608815" lon="7.1345556"><ele>23.0</ele><time>2026-05-01T15:21:28.273Z</time></trkpt><trkpt lat="43.6609324" lon="7.1344487"><ele>23.0</ele><time>2026-05-01T15:21:29.274Z</time></trkpt><trkpt lat="43.660981" lon="7.1343459"><ele>23.0</ele><time>2026-05-01T15:21:30.273Z</time></trkpt><trkpt lat="43.6610325" lon="7.1342478"><ele>23.0</ele><time>2026-05-01T15:21:31.273Z</time></trkpt><trkpt lat="43.6610889" lon="7.1341435"><ele>23.0</ele><time>2026-05-01T15:21:32.273Z</time></trkpt><trkpt lat="43.6611477" lon="7.1340305"><ele>23.0</ele><time>2026-05-01T15:21:33.273Z</time></trkpt><trkpt lat="43.6612124" lon="7.1339145"><ele>23.0</ele><time>2026-05-01T15:21:34.273Z</time></trkpt><trkpt lat="43.6612752" lon="7.1337968"><ele>23.0</ele><time>2026-05-01T15:21:35.273Z</time></trkpt><trkpt lat="43.6613412" lon="7.1336787"><ele>23.0</ele><time>2026-05-01T15:21:36.273Z</time></trkpt><trkpt lat="43.6614142" lon="7.1335554"><ele>23.0</ele><time>2026-05-01T15:21:37.273Z</time></trkpt><trkpt lat="43.6614897" lon="7.1334327"><ele>23.0</ele><time>2026-05-01T15:21:38.273Z</time></trkpt><trkpt lat="43.6615724" lon="7.1333148"><ele>22.5</ele><time>2026-05-01T15:21:39.273Z</time></trkpt><trkpt lat="43.6616561" lon="7.1332013"><ele>22.0</ele><time>2026-05-01T15:21:40.273Z</time></trkpt><trkpt lat="43.6617379" lon="7.1330882"><ele>21.5</ele><time>2026-05-01T15:21:41.273Z</time></trkpt><trkpt lat="43.6618799" lon="7.1329102"><ele>21.0</ele><time>2026-05-01T15:21:43.273Z</time></trkpt><trkpt lat="43.6619382" lon="7.1328389"><ele>21.333333333333332</ele><time>2026-05-01T15:21:44.273Z</time></trkpt><trkpt lat="43.6620038" lon="7.1327776"><ele>21.666666666666668</ele><time>2026-05-01T15:21:45.273Z</time></trkpt><trkpt lat="43.6620546" lon="7.1327068"><ele>22.0</ele><time>2026-05-01T15:21:46.273Z</time></trkpt><trkpt lat="43.6621" lon="7.1326363"><ele>22.333333333333336</ele><time>2026-05-01T15:21:47.273Z</time></trkpt><trkpt lat="43.6621447" lon="7.1325709"><ele>22.666666666666668</ele><time>2026-05-01T15:21:48.273Z</time></trkpt><trkpt lat="43.66222" lon="7.1324755"><ele>23.0</ele><time>2026-05-01T15:21:50.273Z</time></trkpt><trkpt lat="43.6622707" lon="7.1324118"><ele>23.0</ele><time>2026-05-01T15:21:52.273Z</time></trkpt><trkpt lat="43.6623361" lon="7.1323322"><ele>23.0</ele><time>2026-05-01T15:21:55.273Z</time></trkpt><trkpt lat="43.6624093" lon="7.1322479"><ele>23.0</ele><time>2026-05-01T15:21:58.273Z</time></trkpt><trkpt lat="43.6624827" lon="7.1322115"><ele>23.0</ele><time>2026-05-01T15:22:00.273Z</time></trkpt><trkpt lat="43.6625761" lon="7.1322231"><ele>23.0</ele><time>2026-05-01T15:22:02.273Z</time></trkpt><trkpt lat="43.6628081" lon="7.1321938"><ele>23.0</ele><time>2026-05-01T15:22:06.273Z</time></trkpt><trkpt lat="43.6628805" lon="7.1321879"><ele>23.0</ele><time>2026-05-01T15:22:07.273Z</time></trkpt><trkpt lat="43.662947" lon="7.1322206"><ele>23.0</ele><time>2026-05-01T15:22:08.273Z</time></trkpt><trkpt lat="43.663" lon="7.1322706"><ele>23.0</ele><time>2026-05-01T15:22:09.273Z</time></trkpt><trkpt lat="43.6630333" lon="7.1323466"><ele>23.0</ele><time>2026-05-01T15:22:10.273Z</time></trkpt><trkpt lat="43.6630682" lon="7.1324345"><ele>23.0</ele><time>2026-05-01T15:22:11.273Z</time></trkpt><trkpt lat="43.6631051" lon="7.1325188"><ele>23.0</ele><time>2026-05-01T15:22:12.274Z</time></trkpt><trkpt lat="43.6631486" lon="7.132645"><ele>24.75</ele><time>2026-05-01T15:22:14.273Z</time></trkpt><trkpt lat="43.6631772" lon="7.1327274"><ele>26.5</ele><time>2026-05-01T15:22:16.273Z</time></trkpt><trkpt lat="43.6632142" lon="7.1328135"><ele>28.25</ele><time>2026-05-01T15:22:19.273Z</time></trkpt><trkpt lat="43.66318" lon="7.1326898"><ele>30.0</ele><time>2026-05-01T15:22:25.273Z</time></trkpt><trkpt lat="43.6630541" lon="7.1324082"><ele>28.6</ele><time>2026-05-01T15:22:29.273Z</time></trkpt><trkpt lat="43.6630141" lon="7.1322855"><ele>27.2</ele><time>2026-05-01T15:22:31.273Z</time></trkpt><trkpt lat="43.6629702" lon="7.1321848"><ele>25.799999999999997</ele><time>2026-05-01T15:22:33.273Z</time></trkpt><trkpt lat="43.662911" lon="7.132078"><ele>24.4</ele><time>2026-05-01T15:22:35.273Z</time></trkpt><trkpt lat="43.6628576" lon="7.1319372"><ele>23.0</ele><time>2026-05-01T15:22:37.273Z</time></trkpt><trkpt lat="43.6628506" lon="7.1318451"><ele>23.0</ele><time>2026-05-01T15:22:38.273Z</time></trkpt><trkpt lat="43.6628764" lon="7.1317433"><ele>23.0</ele><time>2026-05-01T15:22:39.273Z</time></trkpt><trkpt lat="43.6629187" lon="7.1316427"><ele>23.0</ele><time>2026-05-01T15:22:40.273Z</time></trkpt><trkpt lat="43.6629561" lon="7.1315605"><ele>23.0</ele><time>2026-05-01T15:22:41.274Z</time></trkpt><trkpt lat="43.6630206" lon="7.1314388"><ele>23.0</ele><time>2026-05-01T15:22:43.273Z</time></trkpt><trkpt lat="43.6630699" lon="7.1313732"><ele>23.0</ele><time>2026-05-01T15:22:45.274Z</time></trkpt><trkpt lat="43.6631356" lon="7.1313141"><ele>22.799999999999997</ele><time>2026-05-01T15:23:02.273Z</time></trkpt><trkpt lat="43.6632644" lon="7.1311505"><ele>22.6</ele><time>2026-05-01T15:23:06.273Z</time></trkpt><trkpt lat="43.6633561" lon="7.1310413"><ele>22.4</ele><time>2026-05-01T15:23:08.273Z</time></trkpt><trkpt lat="43.6634032" lon="7.1309774"><ele>22.200000000000003</ele><time>2026-05-01T15:23:09.273Z</time></trkpt><trkpt lat="43.6634623" lon="7.1309073"><ele>22.0</ele><time>2026-05-01T15:23:10.273Z</time></trkpt><trkpt lat="43.6635303" lon="7.1308261"><ele>22.0</ele><time>2026-05-01T15:23:11.273Z</time></trkpt><trkpt lat="43.6635987" lon="7.1307377"><ele>22.0</ele><time>2026-05-01T15:23:12.273Z</time></trkpt><trkpt lat="43.663673" lon="7.1306499"><ele>22.0</ele><time>2026-05-01T15:23:13.274Z</time></trkpt><trkpt lat="43.6637485" lon="7.1305559"><ele>22.0</ele><time>2026-05-01T15:23:14.273Z</time></trkpt><trkpt lat="43.6638317" lon="7.1304529"><ele>22.0</ele><time>2026-05-01T15:23:15.273Z</time></trkpt><trkpt lat="43.6639221" lon="7.1303315"><ele>22.666666666666664</ele><time>2026-05-01T15:23:16.273Z</time></trkpt><trkpt lat="43.6640176" lon="7.130186"><ele>23.333333333333332</ele><time>2026-05-01T15:23:17.273Z</time></trkpt><trkpt lat="43.664134" lon="7.1300385"><ele>24.0</ele><time>2026-05-01T15:23:18.273Z</time></trkpt><trkpt lat="43.6642586" lon="7.129882"><ele>24.0</ele><time>2026-05-01T15:23:19.273Z</time></trkpt><trkpt lat="43.6643813" lon="7.1297317"><ele>24.0</ele><time>2026-05-01T15:23:20.273Z</time></trkpt><trkpt lat="43.6645055" lon="7.1295836"><ele>24.0</ele><time>2026-05-01T15:23:21.273Z</time></trkpt><trkpt lat="43.6646198" lon="7.129446"><ele>24.666666666666664</ele><time>2026-05-01T15:23:22.273Z</time></trkpt><trkpt lat="43.6647257" lon="7.1293253"><ele>25.333333333333332</ele><time>2026-05-01T15:23:23.273Z</time></trkpt><trkpt lat="43.6649139" lon="7.1291108"><ele>26.0</ele><time>2026-05-01T15:23:25.273Z</time></trkpt><trkpt lat="43.6650016" lon="7.1290108"><ele>26.0</ele><time>2026-05-01T15:23:26.273Z</time></trkpt><trkpt lat="43.665085" lon="7.1289211"><ele>26.0</ele><time>2026-05-01T15:23:27.273Z</time></trkpt><trkpt lat="43.6651721" lon="7.128833"><ele>26.0</ele><time>2026-05-01T15:23:28.273Z</time></trkpt><trkpt lat="43.66527" lon="7.1287416"><ele>26.0</ele><time>2026-05-01T15:23:29.274Z</time></trkpt><trkpt lat="43.665381" lon="7.1286494"><ele>27.5</ele><time>2026-05-01T15:23:30.273Z</time></trkpt><trkpt lat="43.6654941" lon="7.128554"><ele>29.0</ele><time>2026-05-01T15:23:31.273Z</time></trkpt><trkpt lat="43.6655918" lon="7.1284563"><ele>30.5</ele><time>2026-05-01T15:23:32.274Z</time></trkpt><trkpt lat="43.6656848" lon="7.1283665"><ele>32.0</ele><time>2026-05-01T15:23:33.273Z</time></trkpt><trkpt lat="43.6657906" lon="7.1282753"><ele>32.5</ele><time>2026-05-01T15:23:34.273Z</time></trkpt><trkpt lat="43.6659096" lon="7.1281767"><ele>33.0</ele><time>2026-05-01T15:23:35.273Z</time></trkpt><trkpt lat="43.6660395" lon="7.1280784"><ele>33.5</ele><time>2026-05-01T15:23:36.273Z</time></trkpt><trkpt lat="43.6661805" lon="7.1279792"><ele>34.0</ele><time>2026-05-01T15:23:37.273Z</time></trkpt><trkpt lat="43.6663319" lon="7.127879"><ele>34.0</ele><time>2026-05-01T15:23:38.274Z</time></trkpt><trkpt lat="43.6664813" lon="7.1277715"><ele>34.0</ele><time>2026-05-01T15:23:39.273Z</time></trkpt><trkpt lat="43.6666337" lon="7.127665"><ele>34.0</ele><time>2026-05-01T15:23:40.273Z</time></trkpt><trkpt lat="43.6667795" lon="7.1275712"><ele>34.0</ele><time>2026-05-01T15:23:41.273Z</time></trkpt><trkpt lat="43.6669199" lon="7.1274751"><ele>34.0</ele><time>2026-05-01T15:23:42.273Z</time></trkpt><trkpt lat="43.6670524" lon="7.1273756"><ele>34.0</ele><time>2026-05-01T15:23:43.273Z</time></trkpt><trkpt lat="43.6671813" lon="7.1272779"><ele>32.333333333333336</ele><time>2026-05-01T15:23:44.273Z</time></trkpt><trkpt lat="43.6674451" lon="7.1271013"><ele>30.666666666666664</ele><time>2026-05-01T15:23:46.273Z</time></trkpt><trkpt lat="43.6675687" lon="7.1270171"><ele>29.0</ele><time>2026-05-01T15:23:47.273Z</time></trkpt><trkpt lat="43.6676829" lon="7.1269368"><ele>30.0</ele><time>2026-05-01T15:23:48.273Z</time></trkpt><trkpt lat="43.6678004" lon="7.1268518"><ele>31.0</ele><time>2026-05-01T15:23:49.273Z</time></trkpt><trkpt lat="43.6679186" lon="7.1267682"><ele>32.0</ele><time>2026-05-01T15:23:50.274Z</time></trkpt><trkpt lat="43.6680379" lon="7.1266893"><ele>33.0</ele><time>2026-05-01T15:23:51.274Z</time></trkpt><trkpt lat="43.6681566" lon="7.1266169"><ele>33.0</ele><time>2026-05-01T15:23:52.273Z</time></trkpt><trkpt lat="43.6682747" lon="7.126551"><ele>33.0</ele><time>2026-05-01T15:23:53.273Z</time></trkpt><trkpt lat="43.6683941" lon="7.1264894"><ele>33.0</ele><time>2026-05-01T15:23:54.273Z</time></trkpt><trkpt lat="43.6685013" lon="7.1264109"><ele>33.0</ele><time>2026-05-01T15:23:55.273Z</time></trkpt><trkpt lat="43.6686078" lon="7.1263308"><ele>33.0</ele><time>2026-05-01T15:23:56.273Z</time></trkpt><trkpt lat="43.6687107" lon="7.1262448"><ele>33.0</ele><time>2026-05-01T15:23:57.273Z</time></trkpt><trkpt lat="43.668815" lon="7.1261702"><ele>33.0</ele><time>2026-05-01T15:23:58.273Z</time></trkpt><trkpt lat="43.6689285" lon="7.1260881"><ele>33.0</ele><time>2026-05-01T15:23:59.273Z</time></trkpt><trkpt lat="43.669038" lon="7.1260094"><ele>33.0</ele><time>2026-05-01T15:24:00.273Z</time></trkpt><trkpt lat="43.6691436" lon="7.1259376"><ele>33.0</ele><time>2026-05-01T15:24:01.273Z</time></trkpt><trkpt lat="43.6692544" lon="7.1258636"><ele>33.0</ele><time>2026-05-01T15:24:02.273Z</time></trkpt><trkpt lat="43.6693636" lon="7.1257856"><ele>33.0</ele><time>2026-05-01T15:24:03.273Z</time></trkpt><trkpt lat="43.6694706" lon="7.1257267"><ele>33.25</ele><time>2026-05-01T15:24:04.273Z</time></trkpt><trkpt lat="43.6695792" lon="7.1256661"><ele>33.5</ele><time>2026-05-01T15:24:05.273Z</time></trkpt><trkpt lat="43.6697808" lon="7.1255854"><ele>33.75</ele><time>2026-05-01T15:24:07.273Z</time></trkpt><trkpt lat="43.6698797" lon="7.125581"><ele>34.0</ele><time>2026-05-01T15:24:08.273Z</time></trkpt><trkpt lat="43.669965" lon="7.12561"><ele>34.0</ele><time>2026-05-01T15:24:09.273Z</time></trkpt><trkpt lat="43.6700459" lon="7.1256494"><ele>34.0</ele><time>2026-05-01T15:24:10.273Z</time></trkpt><trkpt lat="43.6701245" lon="7.1256889"><ele>34.0</ele><time>2026-05-01T15:24:11.273Z</time></trkpt><trkpt lat="43.6702131" lon="7.125697"><ele>34.0</ele><time>2026-05-01T15:24:12.273Z</time></trkpt><trkpt lat="43.6702951" lon="7.1256625"><ele>34.0</ele><time>2026-05-01T15:24:13.273Z</time></trkpt><trkpt lat="43.6703501" lon="7.1255884"><ele>34.0</ele><time>2026-05-01T15:24:14.274Z</time></trkpt><trkpt lat="43.670374" lon="7.12549"><ele>34.2</ele><time>2026-05-01T15:24:15.273Z</time></trkpt><trkpt lat="43.6703836" lon="7.1253612"><ele>34.4</ele><time>2026-05-01T15:24:16.273Z</time></trkpt><trkpt lat="43.6703896" lon="7.1252218"><ele>34.6</ele><time>2026-05-01T15:24:17.273Z</time></trkpt><trkpt lat="43.670411" lon="7.1251012"><ele>34.8</ele><time>2026-05-01T15:24:18.273Z</time></trkpt><trkpt lat="43.6704665" lon="7.1250004"><ele>35.0</ele><time>2026-05-01T15:24:19.273Z</time></trkpt><trkpt lat="43.6705457" lon="7.1249051"><ele>34.8</ele><time>2026-05-01T15:24:20.274Z</time></trkpt><trkpt lat="43.6706453" lon="7.1248317"><ele>34.6</ele><time>2026-05-01T15:24:21.273Z</time></trkpt><trkpt lat="43.6707497" lon="7.1247792"><ele>34.4</ele><time>2026-05-01T15:24:22.273Z</time></trkpt><trkpt lat="43.6708472" lon="7.1247182"><ele>34.2</ele><time>2026-05-01T15:24:23.273Z</time></trkpt><trkpt lat="43.6709483" lon="7.1246608"><ele>34.0</ele><time>2026-05-01T15:24:24.273Z</time></trkpt><trkpt lat="43.6710521" lon="7.1246025"><ele>34.0</ele><time>2026-05-01T15:24:25.273Z</time></trkpt><trkpt lat="43.671155" lon="7.1245427"><ele>34.0</ele><time>2026-05-01T15:24:26.273Z</time></trkpt><trkpt lat="43.6713679" lon="7.1244265"><ele>34.0</ele><time>2026-05-01T15:24:28.274Z</time></trkpt><trkpt lat="43.6714745" lon="7.124374"><ele>34.0</ele><time>2026-05-01T15:24:29.273Z</time></trkpt><trkpt lat="43.6715839" lon="7.1243285"><ele>34.0</ele><time>2026-05-01T15:24:30.273Z</time></trkpt><trkpt lat="43.6716977" lon="7.124284"><ele>34.0</ele><time>2026-05-01T15:24:31.273Z</time></trkpt><trkpt lat="43.6718081" lon="7.1242392"><ele>34.0</ele><time>2026-05-01T15:24:32.273Z</time></trkpt><trkpt lat="43.6719138" lon="7.1241901"><ele>34.4</ele><time>2026-05-01T15:24:33.273Z</time></trkpt><trkpt lat="43.6720181" lon="7.124142"><ele>34.8</ele><time>2026-05-01T15:24:34.273Z</time></trkpt><trkpt lat="43.6721146" lon="7.1241023"><ele>35.2</ele><time>2026-05-01T15:24:35.274Z</time></trkpt><trkpt lat="43.6722052" lon="7.124069"><ele>35.6</ele><time>2026-05-01T15:24:36.273Z</time></trkpt><trkpt lat="43.672292" lon="7.1240341"><ele>36.0</ele><time>2026-05-01T15:24:37.273Z</time></trkpt><trkpt lat="43.6723786" lon="7.1239949"><ele>36.0</ele><time>2026-05-01T15:24:38.273Z</time></trkpt><trkpt lat="43.6724625" lon="7.1239726"><ele>36.0</ele><time>2026-05-01T15:24:39.273Z</time></trkpt><trkpt lat="43.672544" lon="7.1239566"><ele>36.0</ele><time>2026-05-01T15:24:40.273Z</time></trkpt><trkpt lat="43.6726175" lon="7.1239588"><ele>36.0</ele><time>2026-05-01T15:24:41.273Z</time></trkpt><trkpt lat="43.6726822" lon="7.123968"><ele>36.0</ele><time>2026-05-01T15:24:42.273Z</time></trkpt><trkpt lat="43.6727872" lon="7.1240058"><ele>36.0</ele><time>2026-05-01T15:24:44.274Z</time></trkpt><trkpt lat="43.6729111" lon="7.1240546"><ele>36.0</ele><time>2026-05-01T15:24:46.274Z</time></trkpt><trkpt lat="43.6729887" lon="7.1240801"><ele>36.0</ele><time>2026-05-01T15:24:47.273Z</time></trkpt><trkpt lat="43.6731411" lon="7.1239329"><ele>36.0</ele><time>2026-05-01T15:24:50.273Z</time></trkpt><trkpt lat="43.6731897" lon="7.1238308"><ele>36.0</ele><time>2026-05-01T15:24:51.273Z</time></trkpt><trkpt lat="43.6732504" lon="7.1237224"><ele>36.0</ele><time>2026-05-01T15:24:52.273Z</time></trkpt><trkpt lat="43.6733317" lon="7.1236217"><ele>36.0</ele><time>2026-05-01T15:24:53.273Z</time></trkpt><trkpt lat="43.6734352" lon="7.1235349"><ele>36.0</ele><time>2026-05-01T15:24:54.273Z</time></trkpt><trkpt lat="43.6735481" lon="7.1234684"><ele>36.0</ele><time>2026-05-01T15:24:55.273Z</time></trkpt><trkpt lat="43.6736691" lon="7.1234156"><ele>36.25</ele><time>2026-05-01T15:24:56.273Z</time></trkpt><trkpt lat="43.6738029" lon="7.1233587"><ele>36.5</ele><time>2026-05-01T15:24:57.273Z</time></trkpt><trkpt lat="43.6739253" lon="7.1233019"><ele>36.75</ele><time>2026-05-01T15:24:58.273Z</time></trkpt><trkpt lat="43.6740558" lon="7.1232436"><ele>37.0</ele><time>2026-05-01T15:24:59.273Z</time></trkpt><trkpt lat="43.6741876" lon="7.1231916"><ele>37.5</ele><time>2026-05-01T15:25:00.274Z</time></trkpt><trkpt lat="43.6743225" lon="7.1231341"><ele>38.0</ele><time>2026-05-01T15:25:01.273Z</time></trkpt><trkpt lat="43.6744548" lon="7.1230801"><ele>38.5</ele><time>2026-05-01T15:25:02.272Z</time></trkpt><trkpt lat="43.6745837" lon="7.1230202"><ele>39.0</ele><time>2026-05-01T15:25:03.273Z</time></trkpt><trkpt lat="43.6747222" lon="7.1229649"><ele>39.0</ele><time>2026-05-01T15:25:04.272Z</time></trkpt><trkpt lat="43.6748527" lon="7.1229116"><ele>39.0</ele><time>2026-05-01T15:25:05.273Z</time></trkpt><trkpt lat="43.6749839" lon="7.1228583"><ele>39.0</ele><time>2026-05-01T15:25:06.272Z</time></trkpt><trkpt lat="43.6751167" lon="7.122806"><ele>39.0</ele><time>2026-05-01T15:25:07.272Z</time></trkpt><trkpt lat="43.6752544" lon="7.1227479"><ele>39.333333333333336</ele><time>2026-05-01T15:25:08.272Z</time></trkpt><trkpt lat="43.6755332" lon="7.1226168"><ele>39.66666666666667</ele><time>2026-05-01T15:25:10.272Z</time></trkpt><trkpt lat="43.6756683" lon="7.122556"><ele>40.0</ele><time>2026-05-01T15:25:11.272Z</time></trkpt><trkpt lat="43.6758018" lon="7.122487"><ele>40.0</ele><time>2026-05-01T15:25:12.272Z</time></trkpt><trkpt lat="43.6759302" lon="7.1224135"><ele>40.0</ele><time>2026-05-01T15:25:13.272Z</time></trkpt><trkpt lat="43.6760555" lon="7.1223364"><ele>40.0</ele><time>2026-05-01T15:25:14.272Z</time></trkpt><trkpt lat="43.6761802" lon="7.1222542"><ele>40.0</ele><time>2026-05-01T15:25:15.272Z</time></trkpt><trkpt lat="43.676309" lon="7.1221659"><ele>40.25</ele><time>2026-05-01T15:25:16.273Z</time></trkpt><trkpt lat="43.6764347" lon="7.1220846"><ele>40.5</ele><time>2026-05-01T15:25:17.272Z</time></trkpt><trkpt lat="43.6765579" lon="7.1219999"><ele>40.75</ele><time>2026-05-01T15:25:18.272Z</time></trkpt><trkpt lat="43.6766742" lon="7.1219121"><ele>41.0</ele><time>2026-05-01T15:25:19.273Z</time></trkpt><trkpt lat="43.6767918" lon="7.1218278"><ele>41.0</ele><time>2026-05-01T15:25:20.272Z</time></trkpt><trkpt lat="43.6769097" lon="7.1217389"><ele>41.0</ele><time>2026-05-01T15:25:21.272Z</time></trkpt><trkpt lat="43.6770306" lon="7.1216515"><ele>41.0</ele><time>2026-05-01T15:25:22.273Z</time></trkpt><trkpt lat="43.6771437" lon="7.1215591"><ele>41.0</ele><time>2026-05-01T15:25:23.272Z</time></trkpt><trkpt lat="43.677254" lon="7.121464"><ele>42.0</ele><time>2026-05-01T15:25:24.272Z</time></trkpt><trkpt lat="43.67737" lon="7.121382"><ele>43.0</ele><time>2026-05-01T15:25:25.272Z</time></trkpt><trkpt lat="43.6774792" lon="7.1212916"><ele>44.0</ele><time>2026-05-01T15:25:26.272Z</time></trkpt><trkpt lat="43.6775931" lon="7.121203"><ele>45.0</ele><time>2026-05-01T15:25:27.272Z</time></trkpt><trkpt lat="43.6777107" lon="7.1211195"><ele>44.333333333333336</ele><time>2026-05-01T15:25:28.272Z</time></trkpt><trkpt lat="43.6778216" lon="7.1210269"><ele>43.66666666666667</ele><time>2026-05-01T15:25:29.273Z</time></trkpt><trkpt lat="43.6780438" lon="7.1208568"><ele>43.0</ele><time>2026-05-01T15:25:31.272Z</time></trkpt><trkpt lat="43.6781561" lon="7.1207708"><ele>43.25</ele><time>2026-05-01T15:25:32.272Z</time></trkpt><trkpt lat="43.678268" lon="7.1206819"><ele>43.5</ele><time>2026-05-01T15:25:33.272Z</time></trkpt><trkpt lat="43.6783812" lon="7.1205933"><ele>43.75</ele><time>2026-05-01T15:25:34.272Z</time></trkpt><trkpt lat="43.6784946" lon="7.1205091"><ele>44.0</ele><time>2026-05-01T15:25:35.272Z</time></trkpt><trkpt lat="43.6786053" lon="7.1204241"><ele>44.0</ele><time>2026-05-01T15:25:36.272Z</time></trkpt><trkpt lat="43.6787182" lon="7.1203349"><ele>44.0</ele><time>2026-05-01T15:25:37.272Z</time></trkpt><trkpt lat="43.6788313" lon="7.1202461"><ele>44.0</ele><time>2026-05-01T15:25:38.272Z</time></trkpt><trkpt lat="43.6789477" lon="7.1201461"><ele>44.0</ele><time>2026-05-01T15:25:39.273Z</time></trkpt><trkpt lat="43.6790672" lon="7.1200488"><ele>44.0</ele><time>2026-05-01T15:25:40.272Z</time></trkpt><trkpt lat="43.6791828" lon="7.1199606"><ele>44.0</ele><time>2026-05-01T15:25:41.272Z</time></trkpt><trkpt lat="43.6792939" lon="7.1198685"><ele>44.0</ele><time>2026-05-01T15:25:42.272Z</time></trkpt><trkpt lat="43.679405" lon="7.1197898"><ele>44.0</ele><time>2026-05-01T15:25:43.272Z</time></trkpt><trkpt lat="43.6795134" lon="7.1197069"><ele>44.75</ele><time>2026-05-01T15:25:44.272Z</time></trkpt><trkpt lat="43.6796187" lon="7.1196224"><ele>45.5</ele><time>2026-05-01T15:25:45.272Z</time></trkpt><trkpt lat="43.6797282" lon="7.119535"><ele>46.25</ele><time>2026-05-01T15:25:46.272Z</time></trkpt><trkpt lat="43.6798409" lon="7.119447"><ele>47.0</ele><time>2026-05-01T15:25:47.272Z</time></trkpt><trkpt lat="43.6799499" lon="7.1193643"><ele>47.0</ele><time>2026-05-01T15:25:48.272Z</time></trkpt><trkpt lat="43.6800582" lon="7.1192671"><ele>47.0</ele><time>2026-05-01T15:25:49.272Z</time></trkpt><trkpt lat="43.6801638" lon="7.11919"><ele>47.0</ele><time>2026-05-01T15:25:50.272Z</time></trkpt><trkpt lat="43.68037" lon="7.1190256"><ele>47.400000000000006</ele><time>2026-05-01T15:25:52.272Z</time></trkpt><trkpt lat="43.6804747" lon="7.1189498"><ele>47.800000000000004</ele><time>2026-05-01T15:25:53.272Z</time></trkpt><trkpt lat="43.6805725" lon="7.1188725"><ele>48.2</ele><time>2026-05-01T15:25:54.272Z</time></trkpt><trkpt lat="43.6806613" lon="7.1188073"><ele>48.6</ele><time>2026-05-01T15:25:55.273Z</time></trkpt><trkpt lat="43.6807516" lon="7.118744"><ele>49.0</ele><time>2026-05-01T15:25:56.273Z</time></trkpt><trkpt lat="43.6808234" lon="7.1186841"><ele>48.99999999999999</ele><time>2026-05-01T15:25:57.272Z</time></trkpt><trkpt lat="43.6809004" lon="7.1186365"><ele>49.0</ele><time>2026-05-01T15:25:58.272Z</time></trkpt><trkpt lat="43.6809698" lon="7.1186056"><ele>49.0</ele><time>2026-05-01T15:25:59.272Z</time></trkpt><trkpt lat="43.681042" lon="7.1185673"><ele>49.0</ele><time>2026-05-01T15:26:00.272Z</time></trkpt><trkpt lat="43.6811112" lon="7.1185185"><ele>48.99999999999999</ele><time>2026-05-01T15:26:01.272Z</time></trkpt><trkpt lat="43.6811821" lon="7.1184404"><ele>49.0</ele><time>2026-05-01T15:26:02.272Z</time></trkpt><trkpt lat="43.6812549" lon="7.1183469"><ele>49.0</ele><time>2026-05-01T15:26:03.272Z</time></trkpt><trkpt lat="43.6813303" lon="7.1182528"><ele>49.0</ele><time>2026-05-01T15:26:04.272Z</time></trkpt><trkpt lat="43.6814162" lon="7.1181637"><ele>49.0</ele><time>2026-05-01T15:26:05.272Z</time></trkpt><trkpt lat="43.6815067" lon="7.1180751"><ele>49.0</ele><time>2026-05-01T15:26:06.272Z</time></trkpt><trkpt lat="43.6815891" lon="7.1179864"><ele>49.0</ele><time>2026-05-01T15:26:07.272Z</time></trkpt><trkpt lat="43.6816659" lon="7.1179015"><ele>49.5</ele><time>2026-05-01T15:26:08.272Z</time></trkpt><trkpt lat="43.6817511" lon="7.1178114"><ele>50.0</ele><time>2026-05-01T15:26:09.272Z</time></trkpt><trkpt lat="43.6818375" lon="7.1177214"><ele>50.5</ele><time>2026-05-01T15:26:10.272Z</time></trkpt><trkpt lat="43.6819187" lon="7.1176316"><ele>51.0</ele><time>2026-05-01T15:26:11.273Z</time></trkpt><trkpt lat="43.682083" lon="7.1174529"><ele>51.666666666666664</ele><time>2026-05-01T15:26:13.273Z</time></trkpt><trkpt lat="43.6821598" lon="7.1173706"><ele>52.33333333333333</ele><time>2026-05-01T15:26:14.272Z</time></trkpt><trkpt lat="43.6822284" lon="7.1172886"><ele>53.0</ele><time>2026-05-01T15:26:15.272Z</time></trkpt><trkpt lat="43.682292" lon="7.1172175"><ele>53.666666666666664</ele><time>2026-05-01T15:26:16.272Z</time></trkpt><trkpt lat="43.6823516" lon="7.1171541"><ele>54.33333333333333</ele><time>2026-05-01T15:26:17.273Z</time></trkpt><trkpt lat="43.6824089" lon="7.1170774"><ele>55.0</ele><time>2026-05-01T15:26:18.272Z</time></trkpt><trkpt lat="43.6824729" lon="7.1169908"><ele>55.0</ele><time>2026-05-01T15:26:19.272Z</time></trkpt><trkpt lat="43.6825373" lon="7.1168949"><ele>55.0</ele><time>2026-05-01T15:26:20.272Z</time></trkpt><trkpt lat="43.6826091" lon="7.1168023"><ele>55.0</ele><time>2026-05-01T15:26:21.272Z</time></trkpt><trkpt lat="43.6826782" lon="7.1167081"><ele>55.0</ele><time>2026-05-01T15:26:22.272Z</time></trkpt><trkpt lat="43.6827528" lon="7.1166022"><ele>55.0</ele><time>2026-05-01T15:26:23.273Z</time></trkpt><trkpt lat="43.6828355" lon="7.1164932"><ele>55.25</ele><time>2026-05-01T15:26:24.272Z</time></trkpt><trkpt lat="43.6829168" lon="7.116371"><ele>55.5</ele><time>2026-05-01T15:26:25.272Z</time></trkpt><trkpt lat="43.6830029" lon="7.1162558"><ele>55.75</ele><time>2026-05-01T15:26:26.272Z</time></trkpt><trkpt lat="43.6830807" lon="7.1161392"><ele>56.0</ele><time>2026-05-01T15:26:27.272Z</time></trkpt><trkpt lat="43.6831555" lon="7.1160257"><ele>56.0</ele><time>2026-05-01T15:26:28.272Z</time></trkpt><trkpt lat="43.6832281" lon="7.1159125"><ele>55.99999999999999</ele><time>2026-05-01T15:26:29.272Z</time></trkpt><trkpt lat="43.6832969" lon="7.1158023"><ele>55.99999999999999</ele><time>2026-05-01T15:26:30.272Z</time></trkpt><trkpt lat="43.683365" lon="7.1156942"><ele>56.0</ele><time>2026-05-01T15:26:31.272Z</time></trkpt><trkpt lat="43.6834332" lon="7.1155895"><ele>56.0</ele><time>2026-05-01T15:26:32.272Z</time></trkpt><trkpt lat="43.6835639" lon="7.115425"><ele>55.50000000000001</ele><time>2026-05-01T15:26:34.273Z</time></trkpt><trkpt lat="43.6836312" lon="7.1153726"><ele>55.0</ele><time>2026-05-01T15:26:35.272Z</time></trkpt><trkpt lat="43.683688" lon="7.1153105"><ele>54.5</ele><time>2026-05-01T15:26:36.272Z</time></trkpt><trkpt lat="43.6837192" lon="7.1152325"><ele>54.0</ele><time>2026-05-01T15:26:37.272Z</time></trkpt><trkpt lat="43.6837261" lon="7.1150527"><ele>53.50000000000001</ele><time>2026-05-01T15:26:39.273Z</time></trkpt><trkpt lat="43.6837236" lon="7.1149514"><ele>53.0</ele><time>2026-05-01T15:26:40.272Z</time></trkpt><trkpt lat="43.68373" lon="7.1148369"><ele>55.2</ele><time>2026-05-01T15:26:41.272Z</time></trkpt><trkpt lat="43.6837453" lon="7.1147197"><ele>57.4</ele><time>2026-05-01T15:26:42.272Z</time></trkpt><trkpt lat="43.6837762" lon="7.1145909"><ele>59.60000000000001</ele><time>2026-05-01T15:26:43.273Z</time></trkpt><trkpt lat="43.6838145" lon="7.1144435"><ele>61.800000000000004</ele><time>2026-05-01T15:26:44.273Z</time></trkpt><trkpt lat="43.6838544" lon="7.1142782"><ele>64.0</ele><time>2026-05-01T15:26:45.272Z</time></trkpt><trkpt lat="43.6838896" lon="7.1140989"><ele>65.5</ele><time>2026-05-01T15:26:46.272Z</time></trkpt><trkpt lat="43.683923" lon="7.1139191"><ele>67.0</ele><time>2026-05-01T15:26:47.272Z</time></trkpt><trkpt lat="43.6839471" lon="7.1137189"><ele>68.5</ele><time>2026-05-01T15:26:48.272Z</time></trkpt><trkpt lat="43.6839672" lon="7.1135086"><ele>70.0</ele><time>2026-05-01T15:26:49.272Z</time></trkpt><trkpt lat="43.6839894" lon="7.1132805"><ele>72.33333333333333</ele><time>2026-05-01T15:26:50.272Z</time></trkpt><trkpt lat="43.6840062" lon="7.1130546"><ele>74.66666666666667</ele><time>2026-05-01T15:26:51.272Z</time></trkpt><trkpt lat="43.6840228" lon="7.1128284"><ele>77.0</ele><time>2026-05-01T15:26:52.272Z</time></trkpt><trkpt lat="43.6840348" lon="7.1126111"><ele>79.66666666666667</ele><time>2026-05-01T15:26:53.272Z</time></trkpt><trkpt lat="43.6840691" lon="7.1122229"><ele>82.33333333333333</ele><time>2026-05-01T15:26:55.272Z</time></trkpt><trkpt lat="43.6840876" lon="7.1120273"><ele>85.0</ele><time>2026-05-01T15:26:56.272Z</time></trkpt><trkpt lat="43.6840988" lon="7.1118373"><ele>85.0</ele><time>2026-05-01T15:26:57.272Z</time></trkpt><trkpt lat="43.6840963" lon="7.1116621"><ele>85.0</ele><time>2026-05-01T15:26:58.272Z</time></trkpt><trkpt lat="43.6840785" lon="7.1115025"><ele>85.0</ele><time>2026-05-01T15:26:59.272Z</time></trkpt><trkpt lat="43.6840349" lon="7.1113575"><ele>85.0</ele><time>2026-05-01T15:27:00.272Z</time></trkpt><trkpt lat="43.6839898" lon="7.1112387"><ele>86.0</ele><time>2026-05-01T15:27:01.273Z</time></trkpt><trkpt lat="43.6839403" lon="7.1111459"><ele>87.0</ele><time>2026-05-01T15:27:02.272Z</time></trkpt><trkpt lat="43.6838967" lon="7.1110767"><ele>88.0</ele><time>2026-05-01T15:27:03.272Z</time></trkpt><trkpt lat="43.683849" lon="7.1109737"><ele>89.0</ele><time>2026-05-01T15:27:05.272Z</time></trkpt><trkpt lat="43.6838616" lon="7.1108538"><ele>90.0</ele><time>2026-05-01T15:27:07.272Z</time></trkpt><trkpt lat="43.6839067" lon="7.1107746"><ele>91.0</ele><time>2026-05-01T15:27:08.273Z</time></trkpt><trkpt lat="43.6839646" lon="7.110678"><ele>91.25</ele><time>2026-05-01T15:27:09.272Z</time></trkpt><trkpt lat="43.6840335" lon="7.1105647"><ele>91.5</ele><time>2026-05-01T15:27:10.272Z</time></trkpt><trkpt lat="43.6840991" lon="7.1104347"><ele>91.75</ele><time>2026-05-01T15:27:11.272Z</time></trkpt><trkpt lat="43.6841646" lon="7.1103023"><ele>92.0</ele><time>2026-05-01T15:27:12.272Z</time></trkpt><trkpt lat="43.684228" lon="7.1101723"><ele>92.0</ele><time>2026-05-01T15:27:13.272Z</time></trkpt><trkpt lat="43.6842741" lon="7.1100346"><ele>92.0</ele><time>2026-05-01T15:27:14.272Z</time></trkpt><trkpt lat="43.6843466" lon="7.1097787"><ele>92.0</ele><time>2026-05-01T15:27:16.272Z</time></trkpt><trkpt lat="43.6843774" lon="7.1096712"><ele>92.0</ele><time>2026-05-01T15:27:17.273Z</time></trkpt><trkpt lat="43.6844114" lon="7.1095685"><ele>91.5</ele><time>2026-05-01T15:27:18.272Z</time></trkpt><trkpt lat="43.6844437" lon="7.1094694"><ele>91.0</ele><time>2026-05-01T15:27:19.272Z</time></trkpt><trkpt lat="43.6844723" lon="7.1093861"><ele>90.5</ele><time>2026-05-01T15:27:20.272Z</time></trkpt><trkpt lat="43.6844936" lon="7.1092879"><ele>90.0</ele><time>2026-05-01T15:27:21.272Z</time></trkpt><trkpt lat="43.6845127" lon="7.1091777"><ele>89.5</ele><time>2026-05-01T15:27:22.272Z</time></trkpt><trkpt lat="43.6845386" lon="7.1090638"><ele>89.0</ele><time>2026-05-01T15:27:23.272Z</time></trkpt><trkpt lat="43.6845652" lon="7.1089342"><ele>89.0</ele><time>2026-05-01T15:27:24.272Z</time></trkpt><trkpt lat="43.6846001" lon="7.1088037"><ele>89.0</ele><time>2026-05-01T15:27:25.272Z</time></trkpt><trkpt lat="43.6846384" lon="7.1086645"><ele>89.0</ele><time>2026-05-01T15:27:26.272Z</time></trkpt><trkpt lat="43.6846766" lon="7.1085146"><ele>89.0</ele><time>2026-05-01T15:27:27.272Z</time></trkpt><trkpt lat="43.6847264" lon="7.1083647"><ele>89.0</ele><time>2026-05-01T15:27:28.273Z</time></trkpt><trkpt lat="43.6847723" lon="7.108206"><ele>89.0</ele><time>2026-05-01T15:27:29.273Z</time></trkpt><trkpt lat="43.6848223" lon="7.1080491"><ele>89.0</ele><time>2026-05-01T15:27:30.272Z</time></trkpt><trkpt lat="43.6848651" lon="7.1078962"><ele>89.0</ele><time>2026-05-01T15:27:31.272Z</time></trkpt><trkpt lat="43.684899" lon="7.1077407"><ele>89.0</ele><time>2026-05-01T15:27:32.272Z</time></trkpt><trkpt lat="43.6849363" lon="7.1075763"><ele>86.66666666666667</ele><time>2026-05-01T15:27:33.272Z</time></trkpt><trkpt lat="43.6849833" lon="7.1074093"><ele>84.33333333333333</ele><time>2026-05-01T15:27:34.272Z</time></trkpt><trkpt lat="43.6850221" lon="7.1072546"><ele>82.0</ele><time>2026-05-01T15:27:35.272Z</time></trkpt><trkpt lat="43.6851163" lon="7.1069623"><ele>82.0</ele><time>2026-05-01T15:27:37.272Z</time></trkpt><trkpt lat="43.6851742" lon="7.1068168"><ele>82.0</ele><time>2026-05-01T15:27:38.272Z</time></trkpt><trkpt lat="43.6852264" lon="7.1066704"><ele>82.0</ele><time>2026-05-01T15:27:39.272Z</time></trkpt><trkpt lat="43.6852858" lon="7.1065177"><ele>82.0</ele><time>2026-05-01T15:27:40.272Z</time></trkpt><trkpt lat="43.6853472" lon="7.1063654"><ele>82.75</ele><time>2026-05-01T15:27:41.272Z</time></trkpt><trkpt lat="43.6854092" lon="7.106215"><ele>83.5</ele><time>2026-05-01T15:27:42.272Z</time></trkpt><trkpt lat="43.6854698" lon="7.1060832"><ele>84.25</ele><time>2026-05-01T15:27:43.272Z</time></trkpt><trkpt lat="43.6855383" lon="7.1059563"><ele>85.0</ele><time>2026-05-01T15:27:44.272Z</time></trkpt><trkpt lat="43.6856024" lon="7.1058242"><ele>83.25</ele><time>2026-05-01T15:27:45.273Z</time></trkpt><trkpt lat="43.6856725" lon="7.105682"><ele>81.5</ele><time>2026-05-01T15:27:46.273Z</time></trkpt><trkpt lat="43.6857358" lon="7.105526"><ele>79.75</ele><time>2026-05-01T15:27:47.272Z</time></trkpt><trkpt lat="43.6857928" lon="7.1053779"><ele>78.0</ele><time>2026-05-01T15:27:48.272Z</time></trkpt><trkpt lat="43.6858568" lon="7.1052322"><ele>78.0</ele><time>2026-05-01T15:27:49.272Z</time></trkpt><trkpt lat="43.6859169" lon="7.1050924"><ele>78.0</ele><time>2026-05-01T15:27:50.272Z</time></trkpt><trkpt lat="43.6859738" lon="7.1049644"><ele>78.0</ele><time>2026-05-01T15:27:51.272Z</time></trkpt><trkpt lat="43.6860329" lon="7.1048383"><ele>78.0</ele><time>2026-05-01T15:27:52.272Z</time></trkpt><trkpt lat="43.686091" lon="7.1047182"><ele>78.0</ele><time>2026-05-01T15:27:53.272Z</time></trkpt><trkpt lat="43.6861451" lon="7.1045903"><ele>80.5</ele><time>2026-05-01T15:27:54.272Z</time></trkpt><trkpt lat="43.6861933" lon="7.1044463"><ele>83.0</ele><time>2026-05-01T15:27:55.272Z</time></trkpt><trkpt lat="43.6862236" lon="7.1042901"><ele>85.5</ele><time>2026-05-01T15:27:56.272Z</time></trkpt><trkpt lat="43.6862657" lon="7.1039946"><ele>88.0</ele><time>2026-05-01T15:27:58.272Z</time></trkpt><trkpt lat="43.6862718" lon="7.1038368"><ele>88.2</ele><time>2026-05-01T15:27:59.273Z</time></trkpt><trkpt lat="43.6862688" lon="7.1036808"><ele>88.4</ele><time>2026-05-01T15:28:00.272Z</time></trkpt><trkpt lat="43.686267" lon="7.1035246"><ele>88.60000000000001</ele><time>2026-05-01T15:28:01.272Z</time></trkpt><trkpt lat="43.6862563" lon="7.1033806"><ele>88.80000000000001</ele><time>2026-05-01T15:28:02.272Z</time></trkpt><trkpt lat="43.6862515" lon="7.1032304"><ele>89.0</ele><time>2026-05-01T15:28:03.272Z</time></trkpt><trkpt lat="43.686241" lon="7.1030952"><ele>89.0</ele><time>2026-05-01T15:28:04.272Z</time></trkpt><trkpt lat="43.6862206" lon="7.1029684"><ele>89.0</ele><time>2026-05-01T15:28:05.272Z</time></trkpt><trkpt lat="43.6862105" lon="7.1028457"><ele>89.0</ele><time>2026-05-01T15:28:06.272Z</time></trkpt><trkpt lat="43.6861964" lon="7.102726"><ele>89.0</ele><time>2026-05-01T15:28:07.273Z</time></trkpt><trkpt lat="43.6861828" lon="7.102607"><ele>89.0</ele><time>2026-05-01T15:28:08.272Z</time></trkpt><trkpt lat="43.6861654" lon="7.1024758"><ele>88.75</ele><time>2026-05-01T15:28:09.272Z</time></trkpt><trkpt lat="43.686138" lon="7.1023364"><ele>88.5</ele><time>2026-05-01T15:28:10.272Z</time></trkpt><trkpt lat="43.6861092" lon="7.1021878"><ele>88.25</ele><time>2026-05-01T15:28:11.272Z</time></trkpt><trkpt lat="43.6860794" lon="7.1020332"><ele>88.0</ele><time>2026-05-01T15:28:12.272Z</time></trkpt><trkpt lat="43.6860567" lon="7.1018603"><ele>85.5</ele><time>2026-05-01T15:28:13.272Z</time></trkpt><trkpt lat="43.6860362" lon="7.1016892"><ele>83.0</ele><time>2026-05-01T15:28:14.272Z</time></trkpt><trkpt lat="43.6860128" lon="7.10152"><ele>80.5</ele><time>2026-05-01T15:28:15.272Z</time></trkpt><trkpt lat="43.685987" lon="7.1013512"><ele>78.0</ele><time>2026-05-01T15:28:16.272Z</time></trkpt><trkpt lat="43.6859601" lon="7.1011852"><ele>78.0</ele><time>2026-05-01T15:28:17.272Z</time></trkpt><trkpt lat="43.6859061" lon="7.1008508"><ele>78.0</ele><time>2026-05-01T15:28:19.272Z</time></trkpt><trkpt lat="43.6858844" lon="7.1006882"><ele>78.0</ele><time>2026-05-01T15:28:20.272Z</time></trkpt><trkpt lat="43.6858631" lon="7.1005386"><ele>78.0</ele><time>2026-05-01T15:28:21.272Z</time></trkpt><trkpt lat="43.6858434" lon="7.100391"><ele>78.0</ele><time>2026-05-01T15:28:22.272Z</time></trkpt><trkpt lat="43.6858189" lon="7.1002415"><ele>78.0</ele><time>2026-05-01T15:28:23.272Z</time></trkpt><trkpt lat="43.685795" lon="7.1000923"><ele>78.0</ele><time>2026-05-01T15:28:24.272Z</time></trkpt><trkpt lat="43.6857746" lon="7.0999208"><ele>78.2</ele><time>2026-05-01T15:28:25.273Z</time></trkpt><trkpt lat="43.6857587" lon="7.0997585"><ele>78.4</ele><time>2026-05-01T15:28:26.272Z</time></trkpt><trkpt lat="43.6857373" lon="7.0996102"><ele>78.60000000000001</ele><time>2026-05-01T15:28:27.272Z</time></trkpt><trkpt lat="43.6857096" lon="7.0994659"><ele>78.8</ele><time>2026-05-01T15:28:28.272Z</time></trkpt><trkpt lat="43.6856837" lon="7.0993307"><ele>79.0</ele><time>2026-05-01T15:28:29.273Z</time></trkpt><trkpt lat="43.6856554" lon="7.0991867"><ele>79.0</ele><time>2026-05-01T15:28:30.272Z</time></trkpt><trkpt lat="43.6856304" lon="7.099034"><ele>79.0</ele><time>2026-05-01T15:28:31.272Z</time></trkpt><trkpt lat="43.6856113" lon="7.0988816"><ele>79.0</ele><time>2026-05-01T15:28:32.272Z</time></trkpt><trkpt lat="43.6855892" lon="7.0987205"><ele>79.0</ele><time>2026-05-01T15:28:33.272Z</time></trkpt><trkpt lat="43.6855664" lon="7.0985602"><ele>79.0</ele><time>2026-05-01T15:28:34.272Z</time></trkpt><trkpt lat="43.6855402" lon="7.098394"><ele>79.0</ele><time>2026-05-01T15:28:35.272Z</time></trkpt><trkpt lat="43.6855165" lon="7.0982372"><ele>79.0</ele><time>2026-05-01T15:28:36.272Z</time></trkpt><trkpt lat="43.6854878" lon="7.0980865"><ele>79.0</ele><time>2026-05-01T15:28:37.273Z</time></trkpt><trkpt lat="43.6854648" lon="7.0979287"><ele>80.0</ele><time>2026-05-01T15:28:38.273Z</time></trkpt><trkpt lat="43.6854262" lon="7.097605"><ele>81.0</ele><time>2026-05-01T15:28:40.272Z</time></trkpt><trkpt lat="43.685405" lon="7.0974317"><ele>82.0</ele><time>2026-05-01T15:28:41.272Z</time></trkpt><trkpt lat="43.6853784" lon="7.097248"><ele>82.5</ele><time>2026-05-01T15:28:42.272Z</time></trkpt><trkpt lat="43.685349" lon="7.0970658"><ele>83.0</ele><time>2026-05-01T15:28:43.272Z</time></trkpt><trkpt lat="43.6853104" lon="7.0968945"><ele>83.5</ele><time>2026-05-01T15:28:44.272Z</time></trkpt><trkpt lat="43.6852617" lon="7.0967297"><ele>84.0</ele><time>2026-05-01T15:28:45.272Z</time></trkpt><trkpt lat="43.6852067" lon="7.0965705"><ele>80.5</ele><time>2026-05-01T15:28:46.272Z</time></trkpt><trkpt lat="43.6851422" lon="7.096426"><ele>77.0</ele><time>2026-05-01T15:28:47.272Z</time></trkpt><trkpt lat="43.6850746" lon="7.0962923"><ele>73.5</ele><time>2026-05-01T15:28:48.272Z</time></trkpt><trkpt lat="43.6850023" lon="7.0961651"><ele>70.0</ele><time>2026-05-01T15:28:49.272Z</time></trkpt><trkpt lat="43.6849215" lon="7.0960525"><ele>70.0</ele><time>2026-05-01T15:28:50.272Z</time></trkpt><trkpt lat="43.6848376" lon="7.0959203"><ele>70.0</ele><time>2026-05-01T15:28:51.272Z</time></trkpt><trkpt lat="43.68476" lon="7.0957797"><ele>70.0</ele><time>2026-05-01T15:28:52.272Z</time></trkpt><trkpt lat="43.6846796" lon="7.095644"><ele>70.0</ele><time>2026-05-01T15:28:53.272Z</time></trkpt><trkpt lat="43.6846055" lon="7.0955188"><ele>70.0</ele><time>2026-05-01T15:28:54.272Z</time></trkpt><trkpt lat="43.6845221" lon="7.0953885"><ele>70.0</ele><time>2026-05-01T15:28:55.272Z</time></trkpt><trkpt lat="43.6844378" lon="7.0952556"><ele>70.0</ele><time>2026-05-01T15:28:56.272Z</time></trkpt><trkpt lat="43.6843761" lon="7.0951158"><ele>70.0</ele><time>2026-05-01T15:28:57.272Z</time></trkpt><trkpt lat="43.684332" lon="7.0949799"><ele>64.33333333333333</ele><time>2026-05-01T15:28:58.272Z</time></trkpt><trkpt lat="43.6843252" lon="7.0948097"><ele>58.66666666666667</ele><time>2026-05-01T15:28:59.272Z</time></trkpt><trkpt lat="43.6843539" lon="7.0944518"><ele>53.0</ele><time>2026-05-01T15:29:01.272Z</time></trkpt><trkpt lat="43.6843519" lon="7.0942837"><ele>53.0</ele><time>2026-05-01T15:29:02.272Z</time></trkpt><trkpt lat="43.684337" lon="7.0941354"><ele>53.0</ele><time>2026-05-01T15:29:03.272Z</time></trkpt><trkpt lat="43.6843" lon="7.0939957"><ele>53.0</ele><time>2026-05-01T15:29:04.273Z</time></trkpt><trkpt lat="43.6842379" lon="7.0938684"><ele>53.0</ele><time>2026-05-01T15:29:05.272Z</time></trkpt><trkpt lat="43.6841602" lon="7.0937476"><ele>53.0</ele><time>2026-05-01T15:29:06.272Z</time></trkpt><trkpt lat="43.6840817" lon="7.0936187"><ele>52.75</ele><time>2026-05-01T15:29:07.272Z</time></trkpt><trkpt lat="43.6839995" lon="7.0934729"><ele>52.5</ele><time>2026-05-01T15:29:08.273Z</time></trkpt><trkpt lat="43.6839145" lon="7.0933363"><ele>52.25</ele><time>2026-05-01T15:29:09.273Z</time></trkpt><trkpt lat="43.6838372" lon="7.093192"><ele>52.0</ele><time>2026-05-01T15:29:10.272Z</time></trkpt><trkpt lat="43.6837722" lon="7.093038"><ele>50.75</ele><time>2026-05-01T15:29:11.272Z</time></trkpt><trkpt lat="43.6837197" lon="7.0928789"><ele>49.5</ele><time>2026-05-01T15:29:12.272Z</time></trkpt><trkpt lat="43.6836695" lon="7.0927243"><ele>48.25</ele><time>2026-05-01T15:29:13.272Z</time></trkpt><trkpt lat="43.6836208" lon="7.0925608"><ele>47.0</ele><time>2026-05-01T15:29:14.272Z</time></trkpt><trkpt lat="43.6835707" lon="7.0924064"><ele>47.0</ele><time>2026-05-01T15:29:15.272Z</time></trkpt><trkpt lat="43.6835078" lon="7.092256"><ele>47.0</ele><time>2026-05-01T15:29:16.273Z</time></trkpt><trkpt lat="43.6834489" lon="7.0921085"><ele>47.0</ele><time>2026-05-01T15:29:17.272Z</time></trkpt><trkpt lat="43.6833735" lon="7.091956"><ele>47.0</ele><time>2026-05-01T15:29:18.272Z</time></trkpt><trkpt lat="43.6833194" lon="7.0917851"><ele>47.0</ele><time>2026-05-01T15:29:19.272Z</time></trkpt><trkpt lat="43.6832645" lon="7.0916565"><ele>47.0</ele><time>2026-05-01T15:29:20.273Z</time></trkpt><trkpt lat="43.6832003" lon="7.0914381"><ele>47.0</ele><time>2026-05-01T15:29:23.272Z</time></trkpt><trkpt lat="43.6831532" lon="7.0913176"><ele>47.0</ele><time>2026-05-01T15:29:34.273Z</time></trkpt><trkpt lat="43.6831153" lon="7.0912284"><ele>46.6</ele><time>2026-05-01T15:29:35.272Z</time></trkpt><trkpt lat="43.6830637" lon="7.0911186"><ele>46.2</ele><time>2026-05-01T15:29:36.273Z</time></trkpt><trkpt lat="43.6830054" lon="7.0909949"><ele>45.8</ele><time>2026-05-01T15:29:37.273Z</time></trkpt><trkpt lat="43.6829414" lon="7.0908855"><ele>45.4</ele><time>2026-05-01T15:29:38.273Z</time></trkpt><trkpt lat="43.6828772" lon="7.0907642"><ele>45.0</ele><time>2026-05-01T15:29:39.272Z</time></trkpt><trkpt lat="43.682815" lon="7.0906313"><ele>42.666666666666664</ele><time>2026-05-01T15:29:40.272Z</time></trkpt><trkpt lat="43.6827587" lon="7.0904925"><ele>40.33333333333333</ele><time>2026-05-01T15:29:41.272Z</time></trkpt><trkpt lat="43.6826999" lon="7.0901625"><ele>38.0</ele><time>2026-05-01T15:29:43.273Z</time></trkpt><trkpt lat="43.6826954" lon="7.0899947"><ele>36.5</ele><time>2026-05-01T15:29:44.272Z</time></trkpt><trkpt lat="43.6827052" lon="7.0898301"><ele>35.0</ele><time>2026-05-01T15:29:45.272Z</time></trkpt><trkpt lat="43.6827251" lon="7.0896859"><ele>33.5</ele><time>2026-05-01T15:29:46.272Z</time></trkpt><trkpt lat="43.6827673" lon="7.0895378"><ele>32.0</ele><time>2026-05-01T15:29:47.272Z</time></trkpt><trkpt lat="43.6828212" lon="7.0893886"><ele>36.25</ele><time>2026-05-01T15:29:48.272Z</time></trkpt><trkpt lat="43.6828779" lon="7.0892453"><ele>40.5</ele><time>2026-05-01T15:29:49.272Z</time></trkpt><trkpt lat="43.6829474" lon="7.0891038"><ele>44.75</ele><time>2026-05-01T15:29:50.272Z</time></trkpt><trkpt lat="43.6830187" lon="7.0889632"><ele>49.0</ele><time>2026-05-01T15:29:51.273Z</time></trkpt><trkpt lat="43.6830906" lon="7.0888217"><ele>49.0</ele><time>2026-05-01T15:29:52.272Z</time></trkpt><trkpt lat="43.6831473" lon="7.0886796"><ele>49.0</ele><time>2026-05-01T15:29:53.272Z</time></trkpt><trkpt lat="43.6831972" lon="7.0885158"><ele>49.0</ele><time>2026-05-01T15:29:54.273Z</time></trkpt><trkpt lat="43.6832317" lon="7.0883565"><ele>49.0</ele><time>2026-05-01T15:29:55.272Z</time></trkpt><trkpt lat="43.6832605" lon="7.0881995"><ele>48.400000000000006</ele><time>2026-05-01T15:29:56.272Z</time></trkpt><trkpt lat="43.6832886" lon="7.0880548"><ele>47.8</ele><time>2026-05-01T15:29:57.272Z</time></trkpt><trkpt lat="43.6833046" lon="7.0879123"><ele>47.2</ele><time>2026-05-01T15:29:58.272Z</time></trkpt><trkpt lat="43.6832935" lon="7.0877826"><ele>46.599999999999994</ele><time>2026-05-01T15:29:59.272Z</time></trkpt><trkpt lat="43.6832608" lon="7.0876337"><ele>46.0</ele><time>2026-05-01T15:30:00.272Z</time></trkpt><trkpt lat="43.6832148" lon="7.087476"><ele>45.66666666666667</ele><time>2026-05-01T15:30:01.272Z</time></trkpt><trkpt lat="43.6831597" lon="7.0873353"><ele>45.333333333333336</ele><time>2026-05-01T15:30:02.272Z</time></trkpt><trkpt lat="43.6830307" lon="7.0870509"><ele>45.0</ele><time>2026-05-01T15:30:04.272Z</time></trkpt><trkpt lat="43.682958" lon="7.0869131"><ele>45.0</ele><time>2026-05-01T15:30:05.273Z</time></trkpt><trkpt lat="43.6828817" lon="7.086772"><ele>45.0</ele><time>2026-05-01T15:30:06.273Z</time></trkpt><trkpt lat="43.6827857" lon="7.0866386"><ele>45.0</ele><time>2026-05-01T15:30:07.272Z</time></trkpt><trkpt lat="43.6826987" lon="7.0864957"><ele>45.0</ele><time>2026-05-01T15:30:08.272Z</time></trkpt><trkpt lat="43.6826002" lon="7.0863756"><ele>43.0</ele><time>2026-05-01T15:30:09.272Z</time></trkpt><trkpt lat="43.6825176" lon="7.0862608"><ele>41.0</ele><time>2026-05-01T15:30:10.272Z</time></trkpt><trkpt lat="43.6824468" lon="7.0861413"><ele>39.0</ele><time>2026-05-01T15:30:11.272Z</time></trkpt><trkpt lat="43.6823745" lon="7.0860145"><ele>37.0</ele><time>2026-05-01T15:30:12.272Z</time></trkpt><trkpt lat="43.6823234" lon="7.0858705"><ele>37.75</ele><time>2026-05-01T15:30:13.273Z</time></trkpt><trkpt lat="43.682293" lon="7.0857028"><ele>38.5</ele><time>2026-05-01T15:30:14.272Z</time></trkpt><trkpt lat="43.6822916" lon="7.085516"><ele>39.25</ele><time>2026-05-01T15:30:15.272Z</time></trkpt><trkpt lat="43.6823106" lon="7.0853208"><ele>40.0</ele><time>2026-05-01T15:30:16.272Z</time></trkpt><trkpt lat="43.6823299" lon="7.0851277"><ele>40.0</ele><time>2026-05-01T15:30:17.272Z</time></trkpt><trkpt lat="43.6823495" lon="7.084945"><ele>40.0</ele><time>2026-05-01T15:30:18.273Z</time></trkpt><trkpt lat="43.6823408" lon="7.0847613"><ele>40.0</ele><time>2026-05-01T15:30:19.272Z</time></trkpt><trkpt lat="43.6823035" lon="7.0845748"><ele>40.0</ele><time>2026-05-01T15:30:20.272Z</time></trkpt><trkpt lat="43.6822422" lon="7.0843965"><ele>42.0</ele><time>2026-05-01T15:30:21.272Z</time></trkpt><trkpt lat="43.6821664" lon="7.0842212"><ele>44.0</ele><time>2026-05-01T15:30:22.272Z</time></trkpt><trkpt lat="43.6820924" lon="7.0840546"><ele>46.0</ele><time>2026-05-01T15:30:23.272Z</time></trkpt><trkpt lat="43.6819595" lon="7.0837571"><ele>44.8</ele><time>2026-05-01T15:30:25.272Z</time></trkpt><trkpt lat="43.6818907" lon="7.0836481"><ele>43.599999999999994</ele><time>2026-05-01T15:30:26.272Z</time></trkpt><trkpt lat="43.6818325" lon="7.083551"><ele>42.4</ele><time>2026-05-01T15:30:27.272Z</time></trkpt><trkpt lat="43.6817495" lon="7.0834589"><ele>41.2</ele><time>2026-05-01T15:30:28.272Z</time></trkpt><trkpt lat="43.6816596" lon="7.0833657"><ele>40.0</ele><time>2026-05-01T15:30:29.272Z</time></trkpt><trkpt lat="43.6815433" lon="7.08329"><ele>41.25</ele><time>2026-05-01T15:30:30.272Z</time></trkpt><trkpt lat="43.6814106" lon="7.0832268"><ele>42.5</ele><time>2026-05-01T15:30:31.272Z</time></trkpt><trkpt lat="43.6812753" lon="7.0831761"><ele>43.75</ele><time>2026-05-01T15:30:32.272Z</time></trkpt><trkpt lat="43.6811333" lon="7.0831241"><ele>45.0</ele><time>2026-05-01T15:30:33.272Z</time></trkpt><trkpt lat="43.6809912" lon="7.0830625"><ele>45.0</ele><time>2026-05-01T15:30:34.272Z</time></trkpt><trkpt lat="43.6808606" lon="7.0829974"><ele>45.0</ele><time>2026-05-01T15:30:35.272Z</time></trkpt><trkpt lat="43.6807416" lon="7.0829373"><ele>45.0</ele><time>2026-05-01T15:30:36.272Z</time></trkpt><trkpt lat="43.6806355" lon="7.0828772"><ele>45.0</ele><time>2026-05-01T15:30:37.272Z</time></trkpt><trkpt lat="43.6805336" lon="7.0827934"><ele>45.0</ele><time>2026-05-01T15:30:38.272Z</time></trkpt><trkpt lat="43.6804441" lon="7.0826773"><ele>45.0</ele><time>2026-05-01T15:30:39.272Z</time></trkpt><trkpt lat="43.680358" lon="7.0825497"><ele>45.0</ele><time>2026-05-01T15:30:40.272Z</time></trkpt><trkpt lat="43.680276" lon="7.0824271"><ele>45.0</ele><time>2026-05-01T15:30:41.272Z</time></trkpt><trkpt lat="43.6802063" lon="7.0823073"><ele>43.666666666666664</ele><time>2026-05-01T15:30:42.272Z</time></trkpt><trkpt lat="43.6801573" lon="7.082168"><ele>42.33333333333333</ele><time>2026-05-01T15:30:43.272Z</time></trkpt><trkpt lat="43.6801332" lon="7.0820113"><ele>41.0</ele><time>2026-05-01T15:30:44.273Z</time></trkpt><trkpt lat="43.6801671" lon="7.0816519"><ele>42.25</ele><time>2026-05-01T15:30:46.272Z</time></trkpt><trkpt lat="43.6801794" lon="7.0814632"><ele>43.5</ele><time>2026-05-01T15:30:47.272Z</time></trkpt><trkpt lat="43.6801933" lon="7.0812602"><ele>44.75</ele><time>2026-05-01T15:30:48.272Z</time></trkpt><trkpt lat="43.6802011" lon="7.0810719"><ele>46.0</ele><time>2026-05-01T15:30:49.273Z</time></trkpt><trkpt lat="43.6802048" lon="7.0808751"><ele>47.25</ele><time>2026-05-01T15:30:50.272Z</time></trkpt><trkpt lat="43.6802042" lon="7.080685"><ele>48.5</ele><time>2026-05-01T15:30:51.272Z</time></trkpt><trkpt lat="43.6802021" lon="7.0805002"><ele>49.75</ele><time>2026-05-01T15:30:52.272Z</time></trkpt><trkpt lat="43.6801926" lon="7.080314"><ele>51.0</ele><time>2026-05-01T15:30:53.272Z</time></trkpt><trkpt lat="43.6801826" lon="7.0801203"><ele>51.0</ele><time>2026-05-01T15:30:54.273Z</time></trkpt><trkpt lat="43.6801656" lon="7.0799413"><ele>51.0</ele><time>2026-05-01T15:30:55.272Z</time></trkpt><trkpt lat="43.6801485" lon="7.0797704"><ele>51.0</ele><time>2026-05-01T15:30:56.272Z</time></trkpt><trkpt lat="43.680138" lon="7.0796041"><ele>51.0</ele><time>2026-05-01T15:30:57.272Z</time></trkpt><trkpt lat="43.6801489" lon="7.079433"><ele>50.75</ele><time>2026-05-01T15:30:58.272Z</time></trkpt><trkpt lat="43.6802018" lon="7.0792625"><ele>50.5</ele><time>2026-05-01T15:30:59.272Z</time></trkpt><trkpt lat="43.6802741" lon="7.0790958"><ele>50.25</ele><time>2026-05-01T15:31:00.272Z</time></trkpt><trkpt lat="43.6803646" lon="7.0789267"><ele>50.0</ele><time>2026-05-01T15:31:01.272Z</time></trkpt><trkpt lat="43.6804464" lon="7.0787471"><ele>47.333333333333336</ele><time>2026-05-01T15:31:02.272Z</time></trkpt><trkpt lat="43.6805247" lon="7.0785767"><ele>44.66666666666667</ele><time>2026-05-01T15:31:03.272Z</time></trkpt><trkpt lat="43.6805921" lon="7.0783807"><ele>42.0</ele><time>2026-05-01T15:31:04.272Z</time></trkpt><trkpt lat="43.6806601" lon="7.0781836"><ele>50.33333333333333</ele><time>2026-05-01T15:31:05.272Z</time></trkpt><trkpt lat="43.6807989" lon="7.0778193"><ele>58.666666666666664</ele><time>2026-05-01T15:31:07.272Z</time></trkpt><trkpt lat="43.6808847" lon="7.0776484"><ele>67.0</ele><time>2026-05-01T15:31:08.272Z</time></trkpt><trkpt lat="43.6809788" lon="7.0774956"><ele>64.0</ele><time>2026-05-01T15:31:09.272Z</time></trkpt><trkpt lat="43.681083" lon="7.0773473"><ele>61.0</ele><time>2026-05-01T15:31:10.272Z</time></trkpt><trkpt lat="43.6811899" lon="7.0772148"><ele>58.0</ele><time>2026-05-01T15:31:11.273Z</time></trkpt><trkpt lat="43.681308" lon="7.0770901"><ele>55.0</ele><time>2026-05-01T15:31:12.272Z</time></trkpt><trkpt lat="43.681431" lon="7.0769671"><ele>55.0</ele><time>2026-05-01T15:31:13.272Z</time></trkpt><trkpt lat="43.6815502" lon="7.0768544"><ele>55.0</ele><time>2026-05-01T15:31:14.272Z</time></trkpt><trkpt lat="43.681681" lon="7.0767404"><ele>55.0</ele><time>2026-05-01T15:31:15.272Z</time></trkpt><trkpt lat="43.68181" lon="7.0766213"><ele>53.75</ele><time>2026-05-01T15:31:16.272Z</time></trkpt><trkpt lat="43.6819278" lon="7.0765037"><ele>52.5</ele><time>2026-05-01T15:31:17.272Z</time></trkpt><trkpt lat="43.6820355" lon="7.0763857"><ele>51.25</ele><time>2026-05-01T15:31:18.272Z</time></trkpt><trkpt lat="43.6821374" lon="7.0762456"><ele>50.0</ele><time>2026-05-01T15:31:19.273Z</time></trkpt><trkpt lat="43.6822336" lon="7.0760816"><ele>50.0</ele><time>2026-05-01T15:31:20.272Z</time></trkpt><trkpt lat="43.6823209" lon="7.0759032"><ele>50.0</ele><time>2026-05-01T15:31:21.272Z</time></trkpt><trkpt lat="43.682405" lon="7.0757136"><ele>50.0</ele><time>2026-05-01T15:31:22.272Z</time></trkpt><trkpt lat="43.6824921" lon="7.0755229"><ele>50.25</ele><time>2026-05-01T15:31:23.272Z</time></trkpt><trkpt lat="43.6825832" lon="7.0753575"><ele>50.5</ele><time>2026-05-01T15:31:24.273Z</time></trkpt><trkpt lat="43.6826676" lon="7.0751908"><ele>50.75</ele><time>2026-05-01T15:31:25.272Z</time></trkpt><trkpt lat="43.6827478" lon="7.0750295"><ele>51.0</ele><time>2026-05-01T15:31:26.272Z</time></trkpt><trkpt lat="43.6829096" lon="7.0747525"><ele>51.0</ele><time>2026-05-01T15:31:28.272Z</time></trkpt><trkpt lat="43.6829985" lon="7.0746184"><ele>51.0</ele><time>2026-05-01T15:31:29.273Z</time></trkpt><trkpt lat="43.683088" lon="7.074486"><ele>51.0</ele><time>2026-05-01T15:31:30.272Z</time></trkpt><trkpt lat="43.6831625" lon="7.0743473"><ele>51.0</ele><time>2026-05-01T15:31:31.272Z</time></trkpt><trkpt lat="43.6832226" lon="7.0742069"><ele>53.0</ele><time>2026-05-01T15:31:32.272Z</time></trkpt><trkpt lat="43.6832731" lon="7.0740782"><ele>55.0</ele><time>2026-05-01T15:31:33.272Z</time></trkpt><trkpt lat="43.6833166" lon="7.0739655"><ele>56.99999999999999</ele><time>2026-05-01T15:31:34.272Z</time></trkpt><trkpt lat="43.6833701" lon="7.0738694"><ele>59.0</ele><time>2026-05-01T15:31:35.273Z</time></trkpt><trkpt lat="43.6834234" lon="7.0737811"><ele>61.0</ele><time>2026-05-01T15:31:36.272Z</time></trkpt><trkpt lat="43.6834918" lon="7.0736969"><ele>61.0</ele><time>2026-05-01T15:31:37.272Z</time></trkpt><trkpt lat="43.6835735" lon="7.0736065"><ele>61.0</ele><time>2026-05-01T15:31:38.272Z</time></trkpt><trkpt lat="43.683672" lon="7.0735207"><ele>61.0</ele><time>2026-05-01T15:31:39.272Z</time></trkpt><trkpt lat="43.6837778" lon="7.0734417"><ele>61.0</ele><time>2026-05-01T15:31:40.272Z</time></trkpt><trkpt lat="43.6838887" lon="7.0733673"><ele>62.0</ele><time>2026-05-01T15:31:41.272Z</time></trkpt><trkpt lat="43.6840046" lon="7.0732759"><ele>63.0</ele><time>2026-05-01T15:31:42.272Z</time></trkpt><trkpt lat="43.684107" lon="7.0731761"><ele>64.0</ele><time>2026-05-01T15:31:43.272Z</time></trkpt><trkpt lat="43.6842046" lon="7.0730663"><ele>65.0</ele><time>2026-05-01T15:31:44.272Z</time></trkpt><trkpt lat="43.6843014" lon="7.0729504"><ele>65.0</ele><time>2026-05-01T15:31:45.272Z</time></trkpt><trkpt lat="43.6844069" lon="7.0728401"><ele>65.0</ele><time>2026-05-01T15:31:46.272Z</time></trkpt><trkpt lat="43.6845238" lon="7.0727187"><ele>65.0</ele><time>2026-05-01T15:31:47.272Z</time></trkpt><trkpt lat="43.6847895" lon="7.0724946"><ele>67.66666666666667</ele><time>2026-05-01T15:31:49.272Z</time></trkpt><trkpt lat="43.6849257" lon="7.0723794"><ele>70.33333333333333</ele><time>2026-05-01T15:31:50.272Z</time></trkpt><trkpt lat="43.6850581" lon="7.0722903"><ele>73.0</ele><time>2026-05-01T15:31:51.272Z</time></trkpt><trkpt lat="43.6851826" lon="7.0721927"><ele>69.0</ele><time>2026-05-01T15:31:52.272Z</time></trkpt><trkpt lat="43.6852982" lon="7.0721001"><ele>65.0</ele><time>2026-05-01T15:31:53.272Z</time></trkpt><trkpt lat="43.6854093" lon="7.0720394"><ele>61.0</ele><time>2026-05-01T15:31:54.272Z</time></trkpt><trkpt lat="43.6855387" lon="7.0719907"><ele>57.0</ele><time>2026-05-01T15:31:55.272Z</time></trkpt><trkpt lat="43.6856679" lon="7.0719664"><ele>57.0</ele><time>2026-05-01T15:31:56.272Z</time></trkpt><trkpt lat="43.6857949" lon="7.0719582"><ele>57.0</ele><time>2026-05-01T15:31:57.272Z</time></trkpt><trkpt lat="43.6859169" lon="7.0719845"><ele>57.0</ele><time>2026-05-01T15:31:58.272Z</time></trkpt><trkpt lat="43.6860269" lon="7.0720167"><ele>57.0</ele><time>2026-05-01T15:31:59.272Z</time></trkpt><trkpt lat="43.6861262" lon="7.072065"><ele>54.8</ele><time>2026-05-01T15:32:00.272Z</time></trkpt><trkpt lat="43.6862262" lon="7.0721036"><ele>52.6</ele><time>2026-05-01T15:32:01.272Z</time></trkpt><trkpt lat="43.6863232" lon="7.0721391"><ele>50.4</ele><time>2026-05-01T15:32:02.272Z</time></trkpt><trkpt lat="43.686399" lon="7.0721688"><ele>48.199999999999996</ele><time>2026-05-01T15:32:03.272Z</time></trkpt><trkpt lat="43.6864983" lon="7.0722051"><ele>46.0</ele><time>2026-05-01T15:32:05.272Z</time></trkpt><trkpt lat="43.6865773" lon="7.0722348"><ele>46.0</ele><time>2026-05-01T15:35:52.272Z</time></trkpt><trkpt lat="43.6868006" lon="7.0722718"><ele>46.0</ele><time>2026-05-01T15:35:55.272Z</time></trkpt><trkpt lat="43.6868952" lon="7.0722922"><ele>46.0</ele><time>2026-05-01T15:35:56.272Z</time></trkpt><trkpt lat="43.6870053" lon="7.0723274"><ele>46.0</ele><time>2026-05-01T15:35:57.272Z</time></trkpt><trkpt lat="43.68713" lon="7.072364"><ele>45.5</ele><time>2026-05-01T15:35:58.272Z</time></trkpt><trkpt lat="43.6872577" lon="7.0723977"><ele>45.0</ele><time>2026-05-01T15:35:59.272Z</time></trkpt><trkpt lat="43.6873851" lon="7.0724321"><ele>44.5</ele><time>2026-05-01T15:36:00.272Z</time></trkpt><trkpt lat="43.6875118" lon="7.0724731"><ele>44.0</ele><time>2026-05-01T15:36:01.272Z</time></trkpt><trkpt lat="43.6876417" lon="7.0725139"><ele>44.75</ele><time>2026-05-01T15:36:02.273Z</time></trkpt><trkpt lat="43.6877635" lon="7.0725443"><ele>45.5</ele><time>2026-05-01T15:36:03.272Z</time></trkpt><trkpt lat="43.6878897" lon="7.0725792"><ele>46.25</ele><time>2026-05-01T15:36:04.272Z</time></trkpt><trkpt lat="43.6880094" lon="7.0726114"><ele>47.0</ele><time>2026-05-01T15:36:05.272Z</time></trkpt><trkpt lat="43.6881374" lon="7.0726487"><ele>47.0</ele><time>2026-05-01T15:36:06.273Z</time></trkpt><trkpt lat="43.6882648" lon="7.0726827"><ele>47.0</ele><time>2026-05-01T15:36:07.273Z</time></trkpt><trkpt lat="43.6883984" lon="7.0727142"><ele>47.0</ele><time>2026-05-01T15:36:08.272Z</time></trkpt><trkpt lat="43.6885129" lon="7.0727521"><ele>47.0</ele><time>2026-05-01T15:36:09.272Z</time></trkpt><trkpt lat="43.6886293" lon="7.0728394"><ele>47.75</ele><time>2026-05-01T15:36:10.272Z</time></trkpt><trkpt lat="43.6887239" lon="7.0729174"><ele>48.5</ele><time>2026-05-01T15:36:11.272Z</time></trkpt><trkpt lat="43.6888158" lon="7.0729958"><ele>49.25</ele><time>2026-05-01T15:36:12.273Z</time></trkpt><trkpt lat="43.6889094" lon="7.0730743"><ele>50.0</ele><time>2026-05-01T15:36:13.273Z</time></trkpt><trkpt lat="43.6890873" lon="7.0731734"><ele>50.0</ele><time>2026-05-01T15:36:15.272Z</time></trkpt><trkpt lat="43.6891755" lon="7.0731778"><ele>50.0</ele><time>2026-05-01T15:36:16.272Z</time></trkpt><trkpt lat="43.689271" lon="7.0731546"><ele>50.0</ele><time>2026-05-01T15:36:17.272Z</time></trkpt><trkpt lat="43.689353" lon="7.0730925"><ele>50.0</ele><time>2026-05-01T15:36:18.273Z</time></trkpt><trkpt lat="43.6894152" lon="7.0730223"><ele>50.0</ele><time>2026-05-01T15:36:19.272Z</time></trkpt><trkpt lat="43.6894855" lon="7.072927"><ele>55.8</ele><time>2026-05-01T15:36:21.272Z</time></trkpt><trkpt lat="43.6895252" lon="7.0727947"><ele>61.6</ele><time>2026-05-01T15:36:49.272Z</time></trkpt><trkpt lat="43.689578" lon="7.0725922"><ele>67.4</ele><time>2026-05-01T15:36:51.272Z</time></trkpt><trkpt lat="43.6896063" lon="7.0724827"><ele>73.2</ele><time>2026-05-01T15:36:52.272Z</time></trkpt><trkpt lat="43.6896368" lon="7.0723593"><ele>79.0</ele><time>2026-05-01T15:36:53.272Z</time></trkpt><trkpt lat="43.6896647" lon="7.0722293"><ele>79.0</ele><time>2026-05-01T15:36:54.272Z</time></trkpt><trkpt lat="43.6896825" lon="7.0720843"><ele>79.0</ele><time>2026-05-01T15:36:55.272Z</time></trkpt><trkpt lat="43.6896852" lon="7.0719112"><ele>79.0</ele><time>2026-05-01T15:36:56.272Z</time></trkpt><trkpt lat="43.6896777" lon="7.0717238"><ele>79.0</ele><time>2026-05-01T15:36:57.272Z</time></trkpt><trkpt lat="43.6896597" lon="7.0715227"><ele>78.66666666666666</ele><time>2026-05-01T15:36:58.272Z</time></trkpt><trkpt lat="43.6896405" lon="7.0713184"><ele>78.33333333333333</ele><time>2026-05-01T15:36:59.272Z</time></trkpt><trkpt lat="43.6896177" lon="7.0711124"><ele>78.0</ele><time>2026-05-01T15:37:00.272Z</time></trkpt><trkpt lat="43.6895977" lon="7.0709069"><ele>79.33333333333333</ele><time>2026-05-01T15:37:01.273Z</time></trkpt><trkpt lat="43.6895742" lon="7.0706886"><ele>80.66666666666666</ele><time>2026-05-01T15:37:02.272Z</time></trkpt><trkpt lat="43.6895572" lon="7.0704809"><ele>82.0</ele><time>2026-05-01T15:37:03.273Z</time></trkpt><trkpt lat="43.6895493" lon="7.0702755"><ele>82.0</ele><time>2026-05-01T15:37:04.272Z</time></trkpt><trkpt lat="43.6895435" lon="7.0700713"><ele>82.0</ele><time>2026-05-01T15:37:05.272Z</time></trkpt><trkpt lat="43.6895341" lon="7.0698954"><ele>82.0</ele><time>2026-05-01T15:37:06.272Z</time></trkpt><trkpt lat="43.6895215" lon="7.0697258"><ele>82.0</ele><time>2026-05-01T15:37:07.272Z</time></trkpt><trkpt lat="43.689509" lon="7.0695649"><ele>81.0</ele><time>2026-05-01T15:37:08.272Z</time></trkpt><trkpt lat="43.6895113" lon="7.0694005"><ele>80.0</ele><time>2026-05-01T15:37:09.272Z</time></trkpt><trkpt lat="43.6895335" lon="7.0692363"><ele>79.0</ele><time>2026-05-01T15:37:10.272Z</time></trkpt><trkpt lat="43.6896376" lon="7.0689001"><ele>79.0</ele><time>2026-05-01T15:37:12.272Z</time></trkpt><trkpt lat="43.6897066" lon="7.0687256"><ele>79.0</ele><time>2026-05-01T15:37:13.272Z</time></trkpt><trkpt lat="43.6897762" lon="7.068556"><ele>79.0</ele><time>2026-05-01T15:37:14.272Z</time></trkpt><trkpt lat="43.6898367" lon="7.0683933"><ele>79.0</ele><time>2026-05-01T15:37:15.272Z</time></trkpt><trkpt lat="43.6898932" lon="7.0682406"><ele>77.4</ele><time>2026-05-01T15:37:16.272Z</time></trkpt><trkpt lat="43.689945" lon="7.0681004"><ele>75.80000000000001</ele><time>2026-05-01T15:37:17.272Z</time></trkpt><trkpt lat="43.6899846" lon="7.0679658"><ele>74.19999999999999</ele><time>2026-05-01T15:37:18.272Z</time></trkpt><trkpt lat="43.689988" lon="7.0678262"><ele>72.6</ele><time>2026-05-01T15:37:19.272Z</time></trkpt><trkpt lat="43.6899738" lon="7.0676915"><ele>71.0</ele><time>2026-05-01T15:37:20.272Z</time></trkpt><trkpt lat="43.6899278" lon="7.0675474"><ele>67.75</ele><time>2026-05-01T15:37:21.272Z</time></trkpt><trkpt lat="43.6898704" lon="7.067403"><ele>64.5</ele><time>2026-05-01T15:37:22.272Z</time></trkpt><trkpt lat="43.6897956" lon="7.0672635"><ele>61.25</ele><time>2026-05-01T15:37:23.272Z</time></trkpt><trkpt lat="43.6897498" lon="7.0671313"><ele>58.0</ele><time>2026-05-01T15:37:24.272Z</time></trkpt><trkpt lat="43.6897389" lon="7.0669868"><ele>58.0</ele><time>2026-05-01T15:37:25.272Z</time></trkpt><trkpt lat="43.6897673" lon="7.0668481"><ele>58.0</ele><time>2026-05-01T15:37:26.272Z</time></trkpt><trkpt lat="43.6898273" lon="7.0667431"><ele>58.0</ele><time>2026-05-01T15:37:27.272Z</time></trkpt><trkpt lat="43.6899237" lon="7.0666926"><ele>58.0</ele><time>2026-05-01T15:37:28.272Z</time></trkpt><trkpt lat="43.6900411" lon="7.0666832"><ele>58.0</ele><time>2026-05-01T15:37:29.273Z</time></trkpt><trkpt lat="43.6901616" lon="7.0667216"><ele>64.5</ele><time>2026-05-01T15:37:30.272Z</time></trkpt><trkpt lat="43.690299" lon="7.0667589"><ele>71.0</ele><time>2026-05-01T15:37:31.272Z</time></trkpt><trkpt lat="43.690615" lon="7.066776"><ele>71.0</ele><time>2026-05-01T15:37:33.272Z</time></trkpt><trkpt lat="43.6907797" lon="7.0667749"><ele>71.0</ele><time>2026-05-01T15:37:34.272Z</time></trkpt><trkpt lat="43.6909514" lon="7.0667551"><ele>71.0</ele><time>2026-05-01T15:37:35.272Z</time></trkpt><trkpt lat="43.6911245" lon="7.0667337"><ele>69.66666666666667</ele><time>2026-05-01T15:37:36.272Z</time></trkpt><trkpt lat="43.6913013" lon="7.0667042"><ele>68.33333333333333</ele><time>2026-05-01T15:37:37.272Z</time></trkpt><trkpt lat="43.6914828" lon="7.0666566"><ele>67.0</ele><time>2026-05-01T15:37:38.272Z</time></trkpt><trkpt lat="43.6916561" lon="7.0666013"><ele>67.0</ele><time>2026-05-01T15:37:39.272Z</time></trkpt><trkpt lat="43.6918256" lon="7.0665539"><ele>67.0</ele><time>2026-05-01T15:37:40.272Z</time></trkpt><trkpt lat="43.6919894" lon="7.0665236"><ele>67.0</ele><time>2026-05-01T15:37:41.273Z</time></trkpt><trkpt lat="43.6921505" lon="7.0665076"><ele>67.0</ele><time>2026-05-01T15:37:42.272Z</time></trkpt><trkpt lat="43.6922995" lon="7.0664918"><ele>67.0</ele><time>2026-05-01T15:37:43.272Z</time></trkpt><trkpt lat="43.6924366" lon="7.0664484"><ele>67.0</ele><time>2026-05-01T15:37:44.272Z</time></trkpt><trkpt lat="43.6925599" lon="7.0664208"><ele>67.0</ele><time>2026-05-01T15:37:45.272Z</time></trkpt><trkpt lat="43.692678" lon="7.0663934"><ele>66.25</ele><time>2026-05-01T15:37:46.272Z</time></trkpt><trkpt lat="43.6927877" lon="7.0663962"><ele>65.5</ele><time>2026-05-01T15:37:47.272Z</time></trkpt><trkpt lat="43.6928932" lon="7.0664327"><ele>64.75</ele><time>2026-05-01T15:37:48.272Z</time></trkpt><trkpt lat="43.6930106" lon="7.0664618"><ele>64.0</ele><time>2026-05-01T15:37:49.272Z</time></trkpt><trkpt lat="43.6931336" lon="7.066462"><ele>64.0</ele><time>2026-05-01T15:37:50.272Z</time></trkpt><trkpt lat="43.6932663" lon="7.0664406"><ele>64.0</ele><time>2026-05-01T15:37:51.272Z</time></trkpt><trkpt lat="43.6933951" lon="7.0663957"><ele>64.0</ele><time>2026-05-01T15:37:52.272Z</time></trkpt><trkpt lat="43.6936329" lon="7.0663021"><ele>73.0</ele><time>2026-05-01T15:37:54.272Z</time></trkpt><trkpt lat="43.6937378" lon="7.0662312"><ele>82.0</ele><time>2026-05-01T15:37:55.272Z</time></trkpt><trkpt lat="43.6938257" lon="7.0661274"><ele>91.0</ele><time>2026-05-01T15:37:56.272Z</time></trkpt><trkpt lat="43.6938951" lon="7.0660044"><ele>100.0</ele><time>2026-05-01T15:37:57.272Z</time></trkpt><trkpt lat="43.6939491" lon="7.0658415"><ele>96.5</ele><time>2026-05-01T15:37:58.272Z</time></trkpt><trkpt lat="43.6939863" lon="7.0656445"><ele>93.0</ele><time>2026-05-01T15:37:59.272Z</time></trkpt><trkpt lat="43.6940138" lon="7.0654539"><ele>89.5</ele><time>2026-05-01T15:38:00.273Z</time></trkpt><trkpt lat="43.6940454" lon="7.0652569"><ele>86.0</ele><time>2026-05-01T15:38:01.271Z</time></trkpt><trkpt lat="43.6940731" lon="7.0650739"><ele>85.0</ele><time>2026-05-01T15:38:02.271Z</time></trkpt><trkpt lat="43.6940855" lon="7.0648615"><ele>84.0</ele><time>2026-05-01T15:38:03.271Z</time></trkpt><trkpt lat="43.6940919" lon="7.0646536"><ele>83.0</ele><time>2026-05-01T15:38:04.271Z</time></trkpt><trkpt lat="43.6940899" lon="7.0644367"><ele>83.0</ele><time>2026-05-01T15:38:05.271Z</time></trkpt><trkpt lat="43.6940877" lon="7.0642106"><ele>83.0</ele><time>2026-05-01T15:38:06.272Z</time></trkpt><trkpt lat="43.6940813" lon="7.0639924"><ele>83.0</ele><time>2026-05-01T15:38:07.271Z</time></trkpt><trkpt lat="43.6940728" lon="7.0637773"><ele>82.33333333333334</ele><time>2026-05-01T15:38:08.271Z</time></trkpt><trkpt lat="43.6940631" lon="7.0635634"><ele>81.66666666666667</ele><time>2026-05-01T15:38:09.271Z</time></trkpt><trkpt lat="43.6940497" lon="7.0633503"><ele>81.0</ele><time>2026-05-01T15:38:10.271Z</time></trkpt><trkpt lat="43.6940371" lon="7.0631496"><ele>78.66666666666667</ele><time>2026-05-01T15:38:11.272Z</time></trkpt><trkpt lat="43.6940344" lon="7.0629514"><ele>76.33333333333334</ele><time>2026-05-01T15:38:12.271Z</time></trkpt><trkpt lat="43.6940522" lon="7.0627436"><ele>74.0</ele><time>2026-05-01T15:38:13.271Z</time></trkpt><trkpt lat="43.6941203" lon="7.0623438"><ele>74.4</ele><time>2026-05-01T15:38:15.272Z</time></trkpt><trkpt lat="43.6941557" lon="7.0621765"><ele>74.80000000000001</ele><time>2026-05-01T15:38:16.272Z</time></trkpt><trkpt lat="43.694203" lon="7.0620365"><ele>75.19999999999999</ele><time>2026-05-01T15:38:17.271Z</time></trkpt><trkpt lat="43.6942805" lon="7.0619388"><ele>75.6</ele><time>2026-05-01T15:38:18.271Z</time></trkpt><trkpt lat="43.6943673" lon="7.0618725"><ele>76.0</ele><time>2026-05-01T15:38:19.271Z</time></trkpt><trkpt lat="43.6944613" lon="7.0618284"><ele>76.0</ele><time>2026-05-01T15:38:20.271Z</time></trkpt><trkpt lat="43.6945659" lon="7.0618377"><ele>76.0</ele><time>2026-05-01T15:38:21.271Z</time></trkpt><trkpt lat="43.6946499" lon="7.0619113"><ele>76.0</ele><time>2026-05-01T15:38:22.272Z</time></trkpt><trkpt lat="43.6947071" lon="7.0620162"><ele>76.0</ele><time>2026-05-01T15:38:23.271Z</time></trkpt><trkpt lat="43.6947463" lon="7.0621347"><ele>76.0</ele><time>2026-05-01T15:38:24.271Z</time></trkpt><trkpt lat="43.6947698" lon="7.0623117"><ele>75.66666666666666</ele><time>2026-05-01T15:38:25.272Z</time></trkpt><trkpt lat="43.6947665" lon="7.06254"><ele>75.33333333333333</ele><time>2026-05-01T15:38:26.271Z</time></trkpt><trkpt lat="43.6947745" lon="7.0627598"><ele>75.0</ele><time>2026-05-01T15:38:27.271Z</time></trkpt><trkpt lat="43.6948005" lon="7.062956"><ele>75.0</ele><time>2026-05-01T15:38:28.271Z</time></trkpt><trkpt lat="43.6948488" lon="7.0631402"><ele>75.0</ele><time>2026-05-01T15:38:29.271Z</time></trkpt><trkpt lat="43.694922" lon="7.0632868"><ele>75.0</ele><time>2026-05-01T15:38:30.271Z</time></trkpt><trkpt lat="43.6950419" lon="7.0633863"><ele>75.0</ele><time>2026-05-01T15:38:31.271Z</time></trkpt><trkpt lat="43.6951691" lon="7.0634201"><ele>76.0</ele><time>2026-05-01T15:38:32.271Z</time></trkpt><trkpt lat="43.6953024" lon="7.0634458"><ele>77.0</ele><time>2026-05-01T15:38:33.271Z</time></trkpt><trkpt lat="43.6954336" lon="7.0634617"><ele>78.0</ele><time>2026-05-01T15:38:34.271Z</time></trkpt><trkpt lat="43.6957341" lon="7.0634754"><ele>78.0</ele><time>2026-05-01T15:38:36.271Z</time></trkpt><trkpt lat="43.695896" lon="7.0634629"><ele>78.0</ele><time>2026-05-01T15:38:37.271Z</time></trkpt><trkpt lat="43.6960582" lon="7.0634287"><ele>78.0</ele><time>2026-05-01T15:38:38.272Z</time></trkpt><trkpt lat="43.6962165" lon="7.0634065"><ele>78.75</ele><time>2026-05-01T15:38:39.271Z</time></trkpt><trkpt lat="43.6963699" lon="7.0634041"><ele>79.5</ele><time>2026-05-01T15:38:40.271Z</time></trkpt><trkpt lat="43.6965148" lon="7.0634023"><ele>80.25</ele><time>2026-05-01T15:38:41.271Z</time></trkpt><trkpt lat="43.696654" lon="7.0633945"><ele>81.0</ele><time>2026-05-01T15:38:42.271Z</time></trkpt><trkpt lat="43.6967871" lon="7.0633787"><ele>81.5</ele><time>2026-05-01T15:38:43.271Z</time></trkpt><trkpt lat="43.696922" lon="7.0633388"><ele>82.0</ele><time>2026-05-01T15:38:44.271Z</time></trkpt><trkpt lat="43.6970349" lon="7.0632549"><ele>82.5</ele><time>2026-05-01T15:38:45.271Z</time></trkpt><trkpt lat="43.6971425" lon="7.0631391"><ele>83.0</ele><time>2026-05-01T15:38:46.271Z</time></trkpt><trkpt lat="43.6972526" lon="7.0629842"><ele>83.0</ele><time>2026-05-01T15:38:47.271Z</time></trkpt><trkpt lat="43.6973568" lon="7.0628159"><ele>83.0</ele><time>2026-05-01T15:38:48.271Z</time></trkpt><trkpt lat="43.6974482" lon="7.0626482"><ele>83.0</ele><time>2026-05-01T15:38:49.271Z</time></trkpt><trkpt lat="43.6975281" lon="7.0624739"><ele>81.5</ele><time>2026-05-01T15:38:50.271Z</time></trkpt><trkpt lat="43.6975922" lon="7.062297"><ele>80.0</ele><time>2026-05-01T15:38:51.271Z</time></trkpt><trkpt lat="43.697664" lon="7.0621241"><ele>78.5</ele><time>2026-05-01T15:38:52.271Z</time></trkpt><trkpt lat="43.6977214" lon="7.0619474"><ele>77.0</ele><time>2026-05-01T15:38:53.271Z</time></trkpt><trkpt lat="43.6977615" lon="7.0617673"><ele>109.0</ele><time>2026-05-01T15:38:54.271Z</time></trkpt><trkpt lat="43.6977829" lon="7.0615659"><ele>141.0</ele><time>2026-05-01T15:38:55.271Z</time></trkpt><trkpt lat="43.6977578" lon="7.0611378"><ele>130.66666666666666</ele><time>2026-05-01T15:38:57.271Z</time></trkpt><trkpt lat="43.6977121" lon="7.0609248"><ele>120.33333333333333</ele><time>2026-05-01T15:38:58.271Z</time></trkpt><trkpt lat="43.6976438" lon="7.0607201"><ele>110.0</ele><time>2026-05-01T15:38:59.271Z</time></trkpt><trkpt lat="43.6975798" lon="7.060539"><ele>110.0</ele><time>2026-05-01T15:39:00.271Z</time></trkpt><trkpt lat="43.6974992" lon="7.0603853"><ele>110.0</ele><time>2026-05-01T15:39:01.272Z</time></trkpt><trkpt lat="43.6973924" lon="7.0602372"><ele>110.0</ele><time>2026-05-01T15:39:02.271Z</time></trkpt><trkpt lat="43.6972718" lon="7.0601184"><ele>110.0</ele><time>2026-05-01T15:39:03.272Z</time></trkpt><trkpt lat="43.6971385" lon="7.0600127"><ele>112.6</ele><time>2026-05-01T15:39:04.271Z</time></trkpt><trkpt lat="43.6970101" lon="7.0599319"><ele>115.2</ele><time>2026-05-01T15:39:05.271Z</time></trkpt><trkpt lat="43.6968958" lon="7.0598559"><ele>117.80000000000001</ele><time>2026-05-01T15:39:06.271Z</time></trkpt><trkpt lat="43.6968071" lon="7.0597858"><ele>120.4</ele><time>2026-05-01T15:39:07.271Z</time></trkpt><trkpt lat="43.6967485" lon="7.059718"><ele>123.0</ele><time>2026-05-01T15:39:08.271Z</time></trkpt><trkpt lat="43.6967563" lon="7.0595195"><ele>115.33333333333334</ele><time>2026-05-01T15:39:10.271Z</time></trkpt><trkpt lat="43.6968164" lon="7.0593644"><ele>107.66666666666667</ele><time>2026-05-01T15:39:11.271Z</time></trkpt><trkpt lat="43.6968888" lon="7.0591665"><ele>100.0</ele><time>2026-05-01T15:39:12.271Z</time></trkpt><trkpt lat="43.6969669" lon="7.0589501"><ele>100.0</ele><time>2026-05-01T15:39:13.271Z</time></trkpt><trkpt lat="43.6970451" lon="7.0587451"><ele>100.0</ele><time>2026-05-01T15:39:14.271Z</time></trkpt><trkpt lat="43.6971381" lon="7.0585528"><ele>100.0</ele><time>2026-05-01T15:39:15.271Z</time></trkpt><trkpt lat="43.6972344" lon="7.058357"><ele>94.5</ele><time>2026-05-01T15:39:16.272Z</time></trkpt><trkpt lat="43.697428" lon="7.0579722"><ele>89.0</ele><time>2026-05-01T15:39:18.271Z</time></trkpt><trkpt lat="43.6975238" lon="7.0577874"><ele>89.0</ele><time>2026-05-01T15:39:19.271Z</time></trkpt><trkpt lat="43.6976116" lon="7.0576097"><ele>89.0</ele><time>2026-05-01T15:39:20.271Z</time></trkpt><trkpt lat="43.6976829" lon="7.0574514"><ele>89.0</ele><time>2026-05-01T15:39:21.271Z</time></trkpt><trkpt lat="43.6977462" lon="7.057271"><ele>89.0</ele><time>2026-05-01T15:39:22.271Z</time></trkpt><trkpt lat="43.6977729" lon="7.0570831"><ele>89.0</ele><time>2026-05-01T15:39:23.271Z</time></trkpt><trkpt lat="43.6977638" lon="7.0568838"><ele>89.0</ele><time>2026-05-01T15:39:24.271Z</time></trkpt><trkpt lat="43.6977448" lon="7.0566661"><ele>89.0</ele><time>2026-05-01T15:39:25.271Z</time></trkpt><trkpt lat="43.6977165" lon="7.0564414"><ele>91.33333333333334</ele><time>2026-05-01T15:39:26.271Z</time></trkpt><trkpt lat="43.6976687" lon="7.056241"><ele>93.66666666666667</ele><time>2026-05-01T15:39:27.271Z</time></trkpt><trkpt lat="43.6975951" lon="7.0560376"><ele>96.0</ele><time>2026-05-01T15:39:28.271Z</time></trkpt><trkpt lat="43.6974941" lon="7.0558203"><ele>102.0</ele><time>2026-05-01T15:39:29.271Z</time></trkpt><trkpt lat="43.6973906" lon="7.0556027"><ele>108.0</ele><time>2026-05-01T15:39:30.271Z</time></trkpt><trkpt lat="43.6972883" lon="7.0553738"><ele>114.0</ele><time>2026-05-01T15:39:31.271Z</time></trkpt><trkpt lat="43.6972018" lon="7.0551502"><ele>118.33333333333334</ele><time>2026-05-01T15:39:32.271Z</time></trkpt><trkpt lat="43.6971282" lon="7.0549143"><ele>122.66666666666667</ele><time>2026-05-01T15:39:33.271Z</time></trkpt><trkpt lat="43.6970515" lon="7.0546752"><ele>127.0</ele><time>2026-05-01T15:39:34.271Z</time></trkpt><trkpt lat="43.6969615" lon="7.054435"><ele>114.66666666666667</ele><time>2026-05-01T15:39:35.271Z</time></trkpt><trkpt lat="43.6968673" lon="7.0542255"><ele>102.33333333333334</ele><time>2026-05-01T15:39:36.271Z</time></trkpt><trkpt lat="43.696779" lon="7.05405"><ele>90.0</ele><time>2026-05-01T15:39:37.271Z</time></trkpt><trkpt lat="43.696622" lon="7.0537399"><ele>89.16666666666667</ele><time>2026-05-01T15:39:39.272Z</time></trkpt><trkpt lat="43.6965607" lon="7.0536097"><ele>88.33333333333333</ele><time>2026-05-01T15:39:40.271Z</time></trkpt><trkpt lat="43.6965322" lon="7.0535125"><ele>87.5</ele><time>2026-05-01T15:39:41.271Z</time></trkpt><trkpt lat="43.6965079" lon="7.0534063"><ele>86.66666666666666</ele><time>2026-05-01T15:39:42.272Z</time></trkpt><trkpt lat="43.6965124" lon="7.0533005"><ele>85.83333333333333</ele><time>2026-05-01T15:39:43.272Z</time></trkpt><trkpt lat="43.6965489" lon="7.053213"><ele>85.0</ele><time>2026-05-01T15:39:44.271Z</time></trkpt><trkpt lat="43.696606" lon="7.0531343"><ele>84.6</ele><time>2026-05-01T15:39:45.271Z</time></trkpt><trkpt lat="43.6966762" lon="7.0530967"><ele>84.2</ele><time>2026-05-01T15:39:46.271Z</time></trkpt><trkpt lat="43.6967624" lon="7.0530979"><ele>83.80000000000001</ele><time>2026-05-01T15:39:47.271Z</time></trkpt><trkpt lat="43.6968886" lon="7.0531547"><ele>83.4</ele><time>2026-05-01T15:39:48.271Z</time></trkpt><trkpt lat="43.6970338" lon="7.0532164"><ele>83.0</ele><time>2026-05-01T15:39:49.271Z</time></trkpt><trkpt lat="43.6972135" lon="7.0532502"><ele>83.0</ele><time>2026-05-01T15:39:50.271Z</time></trkpt><trkpt lat="43.6973979" lon="7.0532385"><ele>83.0</ele><time>2026-05-01T15:39:51.271Z</time></trkpt><trkpt lat="43.6975744" lon="7.053196"><ele>83.0</ele><time>2026-05-01T15:39:52.271Z</time></trkpt><trkpt lat="43.6977317" lon="7.0531306"><ele>90.5</ele><time>2026-05-01T15:39:53.271Z</time></trkpt><trkpt lat="43.6978691" lon="7.0530398"><ele>98.0</ele><time>2026-05-01T15:39:54.271Z</time></trkpt><trkpt lat="43.6979861" lon="7.0529433"><ele>105.5</ele><time>2026-05-01T15:39:55.271Z</time></trkpt><trkpt lat="43.6980844" lon="7.0528047"><ele>113.0</ele><time>2026-05-01T15:39:56.271Z</time></trkpt><trkpt lat="43.6981608" lon="7.052645"><ele>113.0</ele><time>2026-05-01T15:39:57.271Z</time></trkpt><trkpt lat="43.6982194" lon="7.0524661"><ele>113.0</ele><time>2026-05-01T15:39:58.271Z</time></trkpt><trkpt lat="43.6982597" lon="7.0520765"><ele>113.0</ele><time>2026-05-01T15:40:00.272Z</time></trkpt><trkpt lat="43.698255" lon="7.0518947"><ele>114.33333333333333</ele><time>2026-05-01T15:40:01.271Z</time></trkpt><trkpt lat="43.6982152" lon="7.0517115"><ele>115.66666666666666</ele><time>2026-05-01T15:40:02.272Z</time></trkpt><trkpt lat="43.698129" lon="7.0515468"><ele>117.0</ele><time>2026-05-01T15:40:03.271Z</time></trkpt><trkpt lat="43.6980203" lon="7.0513742"><ele>110.33333333333334</ele><time>2026-05-01T15:40:04.272Z</time></trkpt><trkpt lat="43.697891" lon="7.0512301"><ele>103.66666666666667</ele><time>2026-05-01T15:40:05.271Z</time></trkpt><trkpt lat="43.6977552" lon="7.0511179"><ele>97.0</ele><time>2026-05-01T15:40:06.272Z</time></trkpt><trkpt lat="43.6976124" lon="7.0510438"><ele>97.0</ele><time>2026-05-01T15:40:07.271Z</time></trkpt><trkpt lat="43.6974901" lon="7.0509925"><ele>97.0</ele><time>2026-05-01T15:40:08.272Z</time></trkpt><trkpt lat="43.6973832" lon="7.0509369"><ele>97.0</ele><time>2026-05-01T15:40:09.271Z</time></trkpt><trkpt lat="43.6973029" lon="7.0508509"><ele>97.0</ele><time>2026-05-01T15:40:10.272Z</time></trkpt><trkpt lat="43.6972586" lon="7.0507269"><ele>97.0</ele><time>2026-05-01T15:40:11.271Z</time></trkpt><trkpt lat="43.6972462" lon="7.0505869"><ele>96.75</ele><time>2026-05-01T15:40:12.271Z</time></trkpt><trkpt lat="43.6972676" lon="7.0504519"><ele>96.5</ele><time>2026-05-01T15:40:13.271Z</time></trkpt><trkpt lat="43.6973331" lon="7.0503177"><ele>96.25</ele><time>2026-05-01T15:40:14.271Z</time></trkpt><trkpt lat="43.6974324" lon="7.0501921"><ele>96.0</ele><time>2026-05-01T15:40:15.271Z</time></trkpt><trkpt lat="43.697539" lon="7.0500649"><ele>96.5</ele><time>2026-05-01T15:40:16.271Z</time></trkpt><trkpt lat="43.6976388" lon="7.0499173"><ele>97.0</ele><time>2026-05-01T15:40:17.271Z</time></trkpt><trkpt lat="43.6977314" lon="7.0497583"><ele>97.5</ele><time>2026-05-01T15:40:18.271Z</time></trkpt><trkpt lat="43.6978223" lon="7.0495882"><ele>98.0</ele><time>2026-05-01T15:40:19.271Z</time></trkpt><trkpt lat="43.6979731" lon="7.0491966"><ele>101.66666666666666</ele><time>2026-05-01T15:40:21.271Z</time></trkpt><trkpt lat="43.6980167" lon="7.0489605"><ele>105.33333333333334</ele><time>2026-05-01T15:40:22.271Z</time></trkpt><trkpt lat="43.6980316" lon="7.0487121"><ele>109.0</ele><time>2026-05-01T15:40:23.271Z</time></trkpt><trkpt lat="43.6980511" lon="7.0484503"><ele>108.33333333333334</ele><time>2026-05-01T15:40:24.272Z</time></trkpt><trkpt lat="43.6980639" lon="7.0481944"><ele>107.66666666666666</ele><time>2026-05-01T15:40:25.271Z</time></trkpt><trkpt lat="43.6980847" lon="7.0479413"><ele>107.0</ele><time>2026-05-01T15:40:26.271Z</time></trkpt><trkpt lat="43.6981195" lon="7.0476968"><ele>104.0</ele><time>2026-05-01T15:40:27.271Z</time></trkpt><trkpt lat="43.6981827" lon="7.0474527"><ele>101.0</ele><time>2026-05-01T15:40:28.271Z</time></trkpt><trkpt lat="43.698255" lon="7.047226"><ele>98.0</ele><time>2026-05-01T15:40:29.271Z</time></trkpt><trkpt lat="43.6983489" lon="7.0470046"><ele>98.0</ele><time>2026-05-01T15:40:30.271Z</time></trkpt><trkpt lat="43.6984576" lon="7.0467948"><ele>98.0</ele><time>2026-05-01T15:40:31.271Z</time></trkpt><trkpt lat="43.6985654" lon="7.0465832"><ele>98.0</ele><time>2026-05-01T15:40:32.271Z</time></trkpt><trkpt lat="43.6986657" lon="7.0463769"><ele>97.33333333333333</ele><time>2026-05-01T15:40:33.271Z</time></trkpt><trkpt lat="43.6987384" lon="7.0461582"><ele>96.66666666666666</ele><time>2026-05-01T15:40:34.271Z</time></trkpt><trkpt lat="43.6987889" lon="7.0459288"><ele>96.0</ele><time>2026-05-01T15:40:35.271Z</time></trkpt><trkpt lat="43.6988322" lon="7.0457275"><ele>96.0</ele><time>2026-05-01T15:40:36.271Z</time></trkpt><trkpt lat="43.6988978" lon="7.0455467"><ele>96.0</ele><time>2026-05-01T15:40:37.271Z</time></trkpt><trkpt lat="43.6989831" lon="7.0453795"><ele>96.0</ele><time>2026-05-01T15:40:38.271Z</time></trkpt><trkpt lat="43.6990939" lon="7.0452083"><ele>96.0</ele><time>2026-05-01T15:40:39.271Z</time></trkpt><trkpt lat="43.6992113" lon="7.0450167"><ele>96.0</ele><time>2026-05-01T15:40:40.271Z</time></trkpt><trkpt lat="43.6994225" lon="7.0446509"><ele>103.33333333333334</ele><time>2026-05-01T15:40:42.271Z</time></trkpt><trkpt lat="43.6995302" lon="7.0444675"><ele>110.66666666666667</ele><time>2026-05-01T15:40:43.271Z</time></trkpt><trkpt lat="43.6996165" lon="7.0442818"><ele>118.0</ele><time>2026-05-01T15:40:44.271Z</time></trkpt><trkpt lat="43.6996634" lon="7.0440467"><ele>119.33333333333334</ele><time>2026-05-01T15:40:45.271Z</time></trkpt><trkpt lat="43.699702" lon="7.0437833"><ele>120.66666666666666</ele><time>2026-05-01T15:40:46.271Z</time></trkpt><trkpt lat="43.6997405" lon="7.0435197"><ele>122.0</ele><time>2026-05-01T15:40:47.271Z</time></trkpt><trkpt lat="43.6997873" lon="7.0432617"><ele>122.0</ele><time>2026-05-01T15:40:48.271Z</time></trkpt><trkpt lat="43.6998313" lon="7.0430104"><ele>122.0</ele><time>2026-05-01T15:40:49.271Z</time></trkpt><trkpt lat="43.6998643" lon="7.0427598"><ele>122.0</ele><time>2026-05-01T15:40:50.271Z</time></trkpt><trkpt lat="43.699892" lon="7.0425294"><ele>121.0</ele><time>2026-05-01T15:40:51.271Z</time></trkpt><trkpt lat="43.6998966" lon="7.0423168"><ele>120.0</ele><time>2026-05-01T15:40:52.272Z</time></trkpt><trkpt lat="43.6998576" lon="7.0421095"><ele>119.0</ele><time>2026-05-01T15:40:53.272Z</time></trkpt><trkpt lat="43.699798" lon="7.0418992"><ele>119.0</ele><time>2026-05-01T15:40:54.271Z</time></trkpt><trkpt lat="43.6997366" lon="7.041702"><ele>119.0</ele><time>2026-05-01T15:40:55.271Z</time></trkpt><trkpt lat="43.6996894" lon="7.041504"><ele>119.0</ele><time>2026-05-01T15:40:56.271Z</time></trkpt><trkpt lat="43.6996563" lon="7.0413083"><ele>118.0</ele><time>2026-05-01T15:40:57.271Z</time></trkpt><trkpt lat="43.69964" lon="7.0411273"><ele>117.0</ele><time>2026-05-01T15:40:58.271Z</time></trkpt><trkpt lat="43.6996466" lon="7.0409607"><ele>116.0</ele><time>2026-05-01T15:40:59.271Z</time></trkpt><trkpt lat="43.6997063" lon="7.0408389"><ele>115.0</ele><time>2026-05-01T15:41:00.272Z</time></trkpt><trkpt lat="43.6997921" lon="7.0406751"><ele>110.0</ele><time>2026-05-01T15:41:01.271Z</time></trkpt><trkpt lat="43.7000067" lon="7.0403028"><ele>105.0</ele><time>2026-05-01T15:41:03.271Z</time></trkpt><trkpt lat="43.7001108" lon="7.0401176"><ele>107.33333333333334</ele><time>2026-05-01T15:41:04.271Z</time></trkpt><trkpt lat="43.7002282" lon="7.039932"><ele>109.66666666666667</ele><time>2026-05-01T15:41:05.271Z</time></trkpt><trkpt lat="43.7003293" lon="7.0397399"><ele>112.0</ele><time>2026-05-01T15:41:06.271Z</time></trkpt><trkpt lat="43.7004287" lon="7.0395319"><ele>113.0</ele><time>2026-05-01T15:41:07.271Z</time></trkpt><trkpt lat="43.7005114" lon="7.0393232"><ele>114.0</ele><time>2026-05-01T15:41:08.271Z</time></trkpt><trkpt lat="43.700575" lon="7.0391053"><ele>115.0</ele><time>2026-05-01T15:41:09.271Z</time></trkpt><trkpt lat="43.7006252" lon="7.0388837"><ele>115.33333333333334</ele><time>2026-05-01T15:41:10.271Z</time></trkpt><trkpt lat="43.7006673" lon="7.0386346"><ele>115.66666666666666</ele><time>2026-05-01T15:41:11.271Z</time></trkpt><trkpt lat="43.7006932" lon="7.0383836"><ele>116.0</ele><time>2026-05-01T15:41:12.271Z</time></trkpt><trkpt lat="43.7007061" lon="7.0381343"><ele>118.0</ele><time>2026-05-01T15:41:13.271Z</time></trkpt><trkpt lat="43.700731" lon="7.0379047"><ele>120.0</ele><time>2026-05-01T15:41:14.271Z</time></trkpt><trkpt lat="43.7007677" lon="7.0376646"><ele>122.0</ele><time>2026-05-01T15:41:15.271Z</time></trkpt><trkpt lat="43.7008133" lon="7.037442"><ele>122.0</ele><time>2026-05-01T15:41:16.271Z</time></trkpt><trkpt lat="43.7008458" lon="7.0372253"><ele>122.0</ele><time>2026-05-01T15:41:17.272Z</time></trkpt><trkpt lat="43.7008652" lon="7.0370022"><ele>122.0</ele><time>2026-05-01T15:41:18.272Z</time></trkpt><trkpt lat="43.7008411" lon="7.0367951"><ele>120.5</ele><time>2026-05-01T15:41:19.271Z</time></trkpt><trkpt lat="43.7007926" lon="7.0365893"><ele>119.0</ele><time>2026-05-01T15:41:20.271Z</time></trkpt><trkpt lat="43.700731" lon="7.036428"><ele>117.5</ele><time>2026-05-01T15:41:21.271Z</time></trkpt><trkpt lat="43.7006872" lon="7.0362716"><ele>116.0</ele><time>2026-05-01T15:41:22.271Z</time></trkpt><trkpt lat="43.700694" lon="7.035947"><ele>116.75</ele><time>2026-05-01T15:41:24.271Z</time></trkpt><trkpt lat="43.7007468" lon="7.035778"><ele>117.5</ele><time>2026-05-01T15:41:25.271Z</time></trkpt><trkpt lat="43.7008116" lon="7.035612"><ele>118.25</ele><time>2026-05-01T15:41:26.271Z</time></trkpt><trkpt lat="43.7009066" lon="7.0354526"><ele>119.0</ele><time>2026-05-01T15:41:27.271Z</time></trkpt><trkpt lat="43.7009971" lon="7.0352815"><ele>119.0</ele><time>2026-05-01T15:41:28.271Z</time></trkpt><trkpt lat="43.701057" lon="7.0351015"><ele>119.0</ele><time>2026-05-01T15:41:29.271Z</time></trkpt><trkpt lat="43.7010978" lon="7.0349076"><ele>119.0</ele><time>2026-05-01T15:41:30.271Z</time></trkpt><trkpt lat="43.7011263" lon="7.0347159"><ele>119.0</ele><time>2026-05-01T15:41:31.271Z</time></trkpt><trkpt lat="43.7011317" lon="7.0345087"><ele>131.0</ele><time>2026-05-01T15:41:32.271Z</time></trkpt><trkpt lat="43.7011261" lon="7.034293"><ele>143.0</ele><time>2026-05-01T15:41:33.271Z</time></trkpt><trkpt lat="43.7011183" lon="7.0340666"><ele>155.0</ele><time>2026-05-01T15:41:34.272Z</time></trkpt><trkpt lat="43.7011142" lon="7.0338655"><ele>155.0</ele><time>2026-05-01T15:41:35.271Z</time></trkpt><trkpt lat="43.7010994" lon="7.0336654"><ele>155.0</ele><time>2026-05-01T15:41:36.272Z</time></trkpt><trkpt lat="43.7010634" lon="7.0334597"><ele>155.0</ele><time>2026-05-01T15:41:37.271Z</time></trkpt><trkpt lat="43.7010066" lon="7.0332434"><ele>144.33333333333331</ele><time>2026-05-01T15:41:38.271Z</time></trkpt><trkpt lat="43.7009556" lon="7.0329993"><ele>133.66666666666666</ele><time>2026-05-01T15:41:39.271Z</time></trkpt><trkpt lat="43.7009139" lon="7.0327444"><ele>123.0</ele><time>2026-05-01T15:41:40.271Z</time></trkpt><trkpt lat="43.7008649" lon="7.0324883"><ele>123.66666666666666</ele><time>2026-05-01T15:41:41.271Z</time></trkpt><trkpt lat="43.7008164" lon="7.0322393"><ele>124.33333333333333</ele><time>2026-05-01T15:41:42.271Z</time></trkpt><trkpt lat="43.7007698" lon="7.0319907"><ele>125.0</ele><time>2026-05-01T15:41:43.271Z</time></trkpt><trkpt lat="43.7006962" lon="7.0315176"><ele>126.66666666666666</ele><time>2026-05-01T15:41:45.271Z</time></trkpt><trkpt lat="43.7006584" lon="7.0313106"><ele>128.33333333333334</ele><time>2026-05-01T15:41:46.271Z</time></trkpt><trkpt lat="43.7006289" lon="7.0310992"><ele>130.0</ele><time>2026-05-01T15:41:47.271Z</time></trkpt><trkpt lat="43.7005962" lon="7.0308801"><ele>131.25</ele><time>2026-05-01T15:41:48.271Z</time></trkpt><trkpt lat="43.7005597" lon="7.0306863"><ele>132.5</ele><time>2026-05-01T15:41:49.271Z</time></trkpt><trkpt lat="43.7005056" lon="7.0305204"><ele>133.75</ele><time>2026-05-01T15:41:50.272Z</time></trkpt><trkpt lat="43.7004479" lon="7.030351"><ele>135.0</ele><time>2026-05-01T15:41:51.271Z</time></trkpt><trkpt lat="43.7003975" lon="7.0301662"><ele>135.0</ele><time>2026-05-01T15:41:52.271Z</time></trkpt><trkpt lat="43.7003648" lon="7.029986"><ele>135.0</ele><time>2026-05-01T15:41:53.271Z</time></trkpt><trkpt lat="43.7003428" lon="7.0298186"><ele>135.0</ele><time>2026-05-01T15:41:54.271Z</time></trkpt><trkpt lat="43.7003222" lon="7.0296641"><ele>135.0</ele><time>2026-05-01T15:41:55.271Z</time></trkpt><trkpt lat="43.7003117" lon="7.0295134"><ele>135.6</ele><time>2026-05-01T15:41:56.271Z</time></trkpt><trkpt lat="43.7003106" lon="7.0293748"><ele>136.2</ele><time>2026-05-01T15:41:57.271Z</time></trkpt><trkpt lat="43.7003191" lon="7.0292344"><ele>136.8</ele><time>2026-05-01T15:41:58.271Z</time></trkpt><trkpt lat="43.7003362" lon="7.0290847"><ele>137.4</ele><time>2026-05-01T15:41:59.272Z</time></trkpt><trkpt lat="43.7003598" lon="7.0289353"><ele>138.0</ele><time>2026-05-01T15:42:00.271Z</time></trkpt><trkpt lat="43.7003846" lon="7.0287853"><ele>139.25</ele><time>2026-05-01T15:42:01.271Z</time></trkpt><trkpt lat="43.7003938" lon="7.0286539"><ele>140.5</ele><time>2026-05-01T15:42:02.271Z</time></trkpt><trkpt lat="43.7003953" lon="7.0285235"><ele>141.75</ele><time>2026-05-01T15:42:03.271Z</time></trkpt><trkpt lat="43.7003783" lon="7.0284073"><ele>143.0</ele><time>2026-05-01T15:42:04.271Z</time></trkpt><trkpt lat="43.7003008" lon="7.0281751"><ele>137.0</ele><time>2026-05-01T15:42:06.271Z</time></trkpt><trkpt lat="43.7002326" lon="7.0280328"><ele>131.0</ele><time>2026-05-01T15:42:07.271Z</time></trkpt><trkpt lat="43.7001319" lon="7.02786"><ele>125.0</ele><time>2026-05-01T15:42:08.271Z</time></trkpt><trkpt lat="43.7000083" lon="7.027674"><ele>125.0</ele><time>2026-05-01T15:42:09.272Z</time></trkpt><trkpt lat="43.6998701" lon="7.0275044"><ele>125.0</ele><time>2026-05-01T15:42:10.271Z</time></trkpt><trkpt lat="43.6997319" lon="7.027329"><ele>125.0</ele><time>2026-05-01T15:42:11.271Z</time></trkpt><trkpt lat="43.6995838" lon="7.0271534"><ele>125.0</ele><time>2026-05-01T15:42:12.271Z</time></trkpt><trkpt lat="43.6994327" lon="7.0269734"><ele>125.0</ele><time>2026-05-01T15:42:13.271Z</time></trkpt><trkpt lat="43.6992916" lon="7.0268031"><ele>125.0</ele><time>2026-05-01T15:42:14.271Z</time></trkpt><trkpt lat="43.6991583" lon="7.0266301"><ele>128.66666666666666</ele><time>2026-05-01T15:42:15.271Z</time></trkpt><trkpt lat="43.6990437" lon="7.0264423"><ele>132.33333333333334</ele><time>2026-05-01T15:42:16.271Z</time></trkpt><trkpt lat="43.6989445" lon="7.026246"><ele>136.0</ele><time>2026-05-01T15:42:17.271Z</time></trkpt><trkpt lat="43.6988601" lon="7.0260474"><ele>136.0</ele><time>2026-05-01T15:42:18.271Z</time></trkpt><trkpt lat="43.698785" lon="7.025852"><ele>136.0</ele><time>2026-05-01T15:42:19.272Z</time></trkpt><trkpt lat="43.6987154" lon="7.0256494"><ele>136.0</ele><time>2026-05-01T15:42:20.271Z</time></trkpt><trkpt lat="43.6986509" lon="7.025441"><ele>134.33333333333334</ele><time>2026-05-01T15:42:21.271Z</time></trkpt><trkpt lat="43.6985851" lon="7.025223"><ele>132.66666666666666</ele><time>2026-05-01T15:42:22.271Z</time></trkpt><trkpt lat="43.6985173" lon="7.0249938"><ele>131.0</ele><time>2026-05-01T15:42:23.272Z</time></trkpt><trkpt lat="43.6984508" lon="7.0247591"><ele>131.0</ele><time>2026-05-01T15:42:24.271Z</time></trkpt><trkpt lat="43.6983827" lon="7.0245326"><ele>131.0</ele><time>2026-05-01T15:42:25.271Z</time></trkpt><trkpt lat="43.6982381" lon="7.0240774"><ele>131.0</ele><time>2026-05-01T15:42:27.271Z</time></trkpt><trkpt lat="43.6981892" lon="7.0238472"><ele>131.0</ele><time>2026-05-01T15:42:28.272Z</time></trkpt><trkpt lat="43.6981483" lon="7.0236158"><ele>131.0</ele><time>2026-05-01T15:42:29.271Z</time></trkpt><trkpt lat="43.6981186" lon="7.0233914"><ele>130.33333333333331</ele><time>2026-05-01T15:42:30.271Z</time></trkpt><trkpt lat="43.6981232" lon="7.0231632"><ele>129.66666666666666</ele><time>2026-05-01T15:42:31.271Z</time></trkpt><trkpt lat="43.6981538" lon="7.0229396"><ele>129.0</ele><time>2026-05-01T15:42:32.271Z</time></trkpt><trkpt lat="43.698215" lon="7.0226982"><ele>131.33333333333334</ele><time>2026-05-01T15:42:33.271Z</time></trkpt><trkpt lat="43.6982719" lon="7.0224648"><ele>133.66666666666669</ele><time>2026-05-01T15:42:34.271Z</time></trkpt><trkpt lat="43.6983214" lon="7.0222463"><ele>136.0</ele><time>2026-05-01T15:42:35.271Z</time></trkpt><trkpt lat="43.6983481" lon="7.0220158"><ele>136.0</ele><time>2026-05-01T15:42:36.271Z</time></trkpt><trkpt lat="43.6983394" lon="7.0217762"><ele>136.0</ele><time>2026-05-01T15:42:37.271Z</time></trkpt><trkpt lat="43.6983013" lon="7.0215243"><ele>136.0</ele><time>2026-05-01T15:42:38.271Z</time></trkpt><trkpt lat="43.6982508" lon="7.0212472"><ele>138.33333333333334</ele><time>2026-05-01T15:42:39.271Z</time></trkpt><trkpt lat="43.6981996" lon="7.020989"><ele>140.66666666666666</ele><time>2026-05-01T15:42:40.271Z</time></trkpt><trkpt lat="43.6981324" lon="7.0207476"><ele>143.0</ele><time>2026-05-01T15:42:41.271Z</time></trkpt><trkpt lat="43.6980794" lon="7.0204983"><ele>145.0</ele><time>2026-05-01T15:42:42.271Z</time></trkpt><trkpt lat="43.6980372" lon="7.0202471"><ele>147.0</ele><time>2026-05-01T15:42:43.271Z</time></trkpt><trkpt lat="43.698005" lon="7.0199954"><ele>149.0</ele><time>2026-05-01T15:42:44.271Z</time></trkpt><trkpt lat="43.6979864" lon="7.0197338"><ele>149.0</ele><time>2026-05-01T15:42:45.271Z</time></trkpt><trkpt lat="43.6979568" lon="7.0194717"><ele>149.0</ele><time>2026-05-01T15:42:46.271Z</time></trkpt><trkpt lat="43.6978826" lon="7.0189631"><ele>149.66666666666666</ele><time>2026-05-01T15:42:48.271Z</time></trkpt><trkpt lat="43.6978406" lon="7.0187273"><ele>150.33333333333334</ele><time>2026-05-01T15:42:49.272Z</time></trkpt><trkpt lat="43.697801" lon="7.0185172"><ele>151.0</ele><time>2026-05-01T15:42:50.271Z</time></trkpt><trkpt lat="43.6977805" lon="7.0182928"><ele>149.66666666666669</ele><time>2026-05-01T15:42:51.271Z</time></trkpt><trkpt lat="43.6977726" lon="7.0180618"><ele>148.33333333333334</ele><time>2026-05-01T15:42:52.272Z</time></trkpt><trkpt lat="43.6977944" lon="7.0178357"><ele>147.0</ele><time>2026-05-01T15:42:53.272Z</time></trkpt><trkpt lat="43.6978396" lon="7.0176347"><ele>145.0</ele><time>2026-05-01T15:42:54.271Z</time></trkpt><trkpt lat="43.6979031" lon="7.0174389"><ele>143.0</ele><time>2026-05-01T15:42:55.272Z</time></trkpt><trkpt lat="43.6979815" lon="7.0172564"><ele>141.0</ele><time>2026-05-01T15:42:56.271Z</time></trkpt><trkpt lat="43.6980732" lon="7.0170763"><ele>141.0</ele><time>2026-05-01T15:42:57.272Z</time></trkpt><trkpt lat="43.6981618" lon="7.0169091"><ele>141.0</ele><time>2026-05-01T15:42:58.271Z</time></trkpt><trkpt lat="43.6982271" lon="7.0167258"><ele>141.0</ele><time>2026-05-01T15:42:59.271Z</time></trkpt><trkpt lat="43.6982654" lon="7.0165308"><ele>141.0</ele><time>2026-05-01T15:43:00.271Z</time></trkpt><trkpt lat="43.6982911" lon="7.0163038"><ele>141.0</ele><time>2026-05-01T15:43:01.271Z</time></trkpt><trkpt lat="43.6982986" lon="7.0160571"><ele>141.0</ele><time>2026-05-01T15:43:02.271Z</time></trkpt><trkpt lat="43.6983003" lon="7.0158144"><ele>141.0</ele><time>2026-05-01T15:43:03.271Z</time></trkpt><trkpt lat="43.6983047" lon="7.0155721"><ele>141.0</ele><time>2026-05-01T15:43:04.271Z</time></trkpt><trkpt lat="43.6983101" lon="7.0153395"><ele>141.0</ele><time>2026-05-01T15:43:05.272Z</time></trkpt><trkpt lat="43.6983184" lon="7.0151036"><ele>141.0</ele><time>2026-05-01T15:43:06.271Z</time></trkpt><trkpt lat="43.6983357" lon="7.0148649"><ele>140.5</ele><time>2026-05-01T15:43:07.271Z</time></trkpt><trkpt lat="43.6983869" lon="7.0144025"><ele>140.0</ele><time>2026-05-01T15:43:09.271Z</time></trkpt><trkpt lat="43.6983964" lon="7.0141828"><ele>140.33333333333331</ele><time>2026-05-01T15:43:10.271Z</time></trkpt><trkpt lat="43.6984049" lon="7.0139554"><ele>140.66666666666666</ele><time>2026-05-01T15:43:11.271Z</time></trkpt><trkpt lat="43.6984004" lon="7.0137389"><ele>141.0</ele><time>2026-05-01T15:43:12.271Z</time></trkpt><trkpt lat="43.6983961" lon="7.0135239"><ele>141.0</ele><time>2026-05-01T15:43:13.271Z</time></trkpt><trkpt lat="43.6984047" lon="7.0133224"><ele>141.0</ele><time>2026-05-01T15:43:14.271Z</time></trkpt><trkpt lat="43.6984315" lon="7.0131161"><ele>141.0</ele><time>2026-05-01T15:43:15.271Z</time></trkpt><trkpt lat="43.6984781" lon="7.0129165"><ele>141.0</ele><time>2026-05-01T15:43:16.271Z</time></trkpt><trkpt lat="43.69853" lon="7.0127127"><ele>148.33333333333334</ele><time>2026-05-01T15:43:17.271Z</time></trkpt><trkpt lat="43.6985875" lon="7.0124889"><ele>155.66666666666669</ele><time>2026-05-01T15:43:18.271Z</time></trkpt><trkpt lat="43.6986375" lon="7.0122601"><ele>163.0</ele><time>2026-05-01T15:43:19.271Z</time></trkpt><trkpt lat="43.6986863" lon="7.0120265"><ele>163.0</ele><time>2026-05-01T15:43:20.271Z</time></trkpt><trkpt lat="43.6987395" lon="7.0117967"><ele>163.0</ele><time>2026-05-01T15:43:21.271Z</time></trkpt><trkpt lat="43.698791" lon="7.0115625"><ele>163.0</ele><time>2026-05-01T15:43:22.271Z</time></trkpt><trkpt lat="43.6988449" lon="7.0113293"><ele>161.66666666666669</ele><time>2026-05-01T15:43:23.271Z</time></trkpt><trkpt lat="43.6988995" lon="7.0111053"><ele>160.33333333333334</ele><time>2026-05-01T15:43:24.271Z</time></trkpt><trkpt lat="43.6989472" lon="7.0108853"><ele>159.0</ele><time>2026-05-01T15:43:25.271Z</time></trkpt><trkpt lat="43.6989684" lon="7.010672"><ele>157.66666666666666</ele><time>2026-05-01T15:43:26.271Z</time></trkpt><trkpt lat="43.6989738" lon="7.0104575"><ele>156.33333333333331</ele><time>2026-05-01T15:43:27.271Z</time></trkpt><trkpt lat="43.6989539" lon="7.0102488"><ele>155.0</ele><time>2026-05-01T15:43:28.271Z</time></trkpt><trkpt lat="43.69888" lon="7.0098475"><ele>154.5</ele><time>2026-05-01T15:43:30.271Z</time></trkpt><trkpt lat="43.6988581" lon="7.0096463"><ele>154.0</ele><time>2026-05-01T15:43:31.271Z</time></trkpt><trkpt lat="43.6988669" lon="7.0094429"><ele>153.5</ele><time>2026-05-01T15:43:32.271Z</time></trkpt><trkpt lat="43.6988941" lon="7.0092464"><ele>153.0</ele><time>2026-05-01T15:43:33.271Z</time></trkpt><trkpt lat="43.6989453" lon="7.0090618"><ele>151.0</ele><time>2026-05-01T15:43:34.271Z</time></trkpt><trkpt lat="43.699018" lon="7.0088698"><ele>149.0</ele><time>2026-05-01T15:43:35.271Z</time></trkpt><trkpt lat="43.6990913" lon="7.0086919"><ele>147.0</ele><time>2026-05-01T15:43:36.272Z</time></trkpt><trkpt lat="43.6991744" lon="7.0085"><ele>144.66666666666666</ele><time>2026-05-01T15:43:37.272Z</time></trkpt><trkpt lat="43.6992682" lon="7.0083177"><ele>142.33333333333331</ele><time>2026-05-01T15:43:38.271Z</time></trkpt><trkpt lat="43.6993737" lon="7.0081661"><ele>140.0</ele><time>2026-05-01T15:43:39.271Z</time></trkpt><trkpt lat="43.6994805" lon="7.0080379"><ele>143.5</ele><time>2026-05-01T15:43:40.271Z</time></trkpt><trkpt lat="43.6996002" lon="7.0079209"><ele>147.0</ele><time>2026-05-01T15:43:41.271Z</time></trkpt><trkpt lat="43.6997291" lon="7.0078169"><ele>150.5</ele><time>2026-05-01T15:43:42.271Z</time></trkpt><trkpt lat="43.6998549" lon="7.0076958"><ele>154.0</ele><time>2026-05-01T15:43:43.271Z</time></trkpt><trkpt lat="43.6999636" lon="7.0075562"><ele>151.66666666666669</ele><time>2026-05-01T15:43:44.271Z</time></trkpt><trkpt lat="43.7000609" lon="7.0073822"><ele>149.33333333333334</ele><time>2026-05-01T15:43:45.272Z</time></trkpt><trkpt lat="43.7001399" lon="7.0071904"><ele>147.0</ele><time>2026-05-01T15:43:46.271Z</time></trkpt><trkpt lat="43.7002077" lon="7.0069861"><ele>150.66666666666666</ele><time>2026-05-01T15:43:47.271Z</time></trkpt><trkpt lat="43.7002809" lon="7.0067762"><ele>154.33333333333331</ele><time>2026-05-01T15:43:48.271Z</time></trkpt><trkpt lat="43.7003702" lon="7.0065749"><ele>158.0</ele><time>2026-05-01T15:43:49.272Z</time></trkpt><trkpt lat="43.700574" lon="7.0062053"><ele>158.0</ele><time>2026-05-01T15:43:51.271Z</time></trkpt><trkpt lat="43.7006854" lon="7.00602"><ele>158.0</ele><time>2026-05-01T15:43:52.271Z</time></trkpt><trkpt lat="43.7007992" lon="7.005847"><ele>158.0</ele><time>2026-05-01T15:43:53.271Z</time></trkpt><trkpt lat="43.7009095" lon="7.0056714"><ele>159.66666666666666</ele><time>2026-05-01T15:43:54.271Z</time></trkpt><trkpt lat="43.7010223" lon="7.0054934"><ele>161.33333333333334</ele><time>2026-05-01T15:43:55.271Z</time></trkpt><trkpt lat="43.7011361" lon="7.0053126"><ele>163.0</ele><time>2026-05-01T15:43:56.271Z</time></trkpt><trkpt lat="43.7012454" lon="7.0051406"><ele>159.33333333333334</ele><time>2026-05-01T15:43:57.271Z</time></trkpt><trkpt lat="43.7013607" lon="7.0049698"><ele>155.66666666666666</ele><time>2026-05-01T15:43:58.271Z</time></trkpt><trkpt lat="43.7014685" lon="7.0047872"><ele>152.0</ele><time>2026-05-01T15:43:59.271Z</time></trkpt><trkpt lat="43.7015754" lon="7.0046153"><ele>152.0</ele><time>2026-05-01T15:44:00.271Z</time></trkpt><trkpt lat="43.7016817" lon="7.0044362"><ele>152.0</ele><time>2026-05-01T15:44:01.271Z</time></trkpt><trkpt lat="43.7017804" lon="7.0042474"><ele>152.0</ele><time>2026-05-01T15:44:02.271Z</time></trkpt><trkpt lat="43.7018718" lon="7.0040475"><ele>154.66666666666666</ele><time>2026-05-01T15:44:03.271Z</time></trkpt><trkpt lat="43.7019677" lon="7.0038458"><ele>157.33333333333334</ele><time>2026-05-01T15:44:04.271Z</time></trkpt><trkpt lat="43.702061" lon="7.0036432"><ele>160.0</ele><time>2026-05-01T15:44:05.271Z</time></trkpt><trkpt lat="43.7021648" lon="7.0034549"><ele>157.0</ele><time>2026-05-01T15:44:06.272Z</time></trkpt><trkpt lat="43.7022746" lon="7.0032865"><ele>154.0</ele><time>2026-05-01T15:44:07.271Z</time></trkpt><trkpt lat="43.7023843" lon="7.0031254"><ele>151.0</ele><time>2026-05-01T15:44:08.271Z</time></trkpt><trkpt lat="43.702485" lon="7.0029777"><ele>151.0</ele><time>2026-05-01T15:44:09.271Z</time></trkpt><trkpt lat="43.7025892" lon="7.002851"><ele>151.0</ele><time>2026-05-01T15:44:10.271Z</time></trkpt><trkpt lat="43.7028274" lon="7.0026426"><ele>151.0</ele><time>2026-05-01T15:44:12.272Z</time></trkpt><trkpt lat="43.7029571" lon="7.0025693"><ele>152.0</ele><time>2026-05-01T15:44:13.271Z</time></trkpt><trkpt lat="43.7030848" lon="7.0025053"><ele>153.0</ele><time>2026-05-01T15:44:14.271Z</time></trkpt><trkpt lat="43.7032053" lon="7.0024062"><ele>154.0</ele><time>2026-05-01T15:44:15.271Z</time></trkpt><trkpt lat="43.7033005" lon="7.0022524"><ele>155.0</ele><time>2026-05-01T15:44:16.271Z</time></trkpt><trkpt lat="43.7033647" lon="7.0020768"><ele>155.0</ele><time>2026-05-01T15:44:17.272Z</time></trkpt><trkpt lat="43.7034145" lon="7.0018731"><ele>155.0</ele><time>2026-05-01T15:44:18.271Z</time></trkpt><trkpt lat="43.7034661" lon="7.0016768"><ele>155.0</ele><time>2026-05-01T15:44:19.271Z</time></trkpt><trkpt lat="43.7035211" lon="7.0014827"><ele>155.25</ele><time>2026-05-01T15:44:20.271Z</time></trkpt><trkpt lat="43.7035936" lon="7.0013"><ele>155.5</ele><time>2026-05-01T15:44:21.271Z</time></trkpt><trkpt lat="43.7036824" lon="7.0011306"><ele>155.75</ele><time>2026-05-01T15:44:22.271Z</time></trkpt><trkpt lat="43.7037888" lon="7.0009956"><ele>156.0</ele><time>2026-05-01T15:44:23.271Z</time></trkpt><trkpt lat="43.7039105" lon="7.0008937"><ele>157.0</ele><time>2026-05-01T15:44:24.272Z</time></trkpt><trkpt lat="43.7040442" lon="7.000822"><ele>158.0</ele><time>2026-05-01T15:44:25.271Z</time></trkpt><trkpt lat="43.7041875" lon="7.0007964"><ele>159.0</ele><time>2026-05-01T15:44:26.271Z</time></trkpt><trkpt lat="43.704331" lon="7.000816"><ele>160.0</ele><time>2026-05-01T15:44:27.271Z</time></trkpt><trkpt lat="43.7044794" lon="7.0008563"><ele>160.0</ele><time>2026-05-01T15:44:28.271Z</time></trkpt><trkpt lat="43.704639" lon="7.0008927"><ele>160.0</ele><time>2026-05-01T15:44:29.271Z</time></trkpt><trkpt lat="43.7048012" lon="7.000933"><ele>160.0</ele><time>2026-05-01T15:44:30.271Z</time></trkpt><trkpt lat="43.7049473" lon="7.0009636"><ele>160.0</ele><time>2026-05-01T15:44:31.271Z</time></trkpt><trkpt lat="43.7051994" lon="7.0008993"><ele>160.0</ele><time>2026-05-01T15:44:33.271Z</time></trkpt><trkpt lat="43.7052933" lon="7.0007877"><ele>160.0</ele><time>2026-05-01T15:44:34.271Z</time></trkpt><trkpt lat="43.7053717" lon="7.0006202"><ele>160.0</ele><time>2026-05-01T15:44:35.271Z</time></trkpt><trkpt lat="43.7054463" lon="7.0004426"><ele>160.0</ele><time>2026-05-01T15:44:36.271Z</time></trkpt><trkpt lat="43.705526" lon="7.0003074"><ele>160.0</ele><time>2026-05-01T15:44:37.271Z</time></trkpt><trkpt lat="43.7056298" lon="7.0002013"><ele>160.0</ele><time>2026-05-01T15:44:38.271Z</time></trkpt><trkpt lat="43.7057541" lon="7.0001226"><ele>160.0</ele><time>2026-05-01T15:44:39.271Z</time></trkpt><trkpt lat="43.7058939" lon="7.00008"><ele>160.0</ele><time>2026-05-01T15:44:40.271Z</time></trkpt><trkpt lat="43.7060367" lon="7.0000454"><ele>160.0</ele><time>2026-05-01T15:44:41.271Z</time></trkpt><trkpt lat="43.7061749" lon="6.999992"><ele>160.0</ele><time>2026-05-01T15:44:42.271Z</time></trkpt><trkpt lat="43.7063046" lon="6.9999009"><ele>165.33333333333334</ele><time>2026-05-01T15:44:43.271Z</time></trkpt><trkpt lat="43.706433" lon="6.9997686"><ele>170.66666666666666</ele><time>2026-05-01T15:44:44.271Z</time></trkpt><trkpt lat="43.7065574" lon="6.9996238"><ele>176.0</ele><time>2026-05-01T15:44:45.271Z</time></trkpt><trkpt lat="43.7066746" lon="6.9994977"><ele>176.0</ele><time>2026-05-01T15:44:46.271Z</time></trkpt><trkpt lat="43.7067872" lon="6.9993795"><ele>176.0</ele><time>2026-05-01T15:44:47.271Z</time></trkpt><trkpt lat="43.706883" lon="6.9992438"><ele>176.0</ele><time>2026-05-01T15:44:48.271Z</time></trkpt><trkpt lat="43.7069648" lon="6.9990867"><ele>176.0</ele><time>2026-05-01T15:44:49.271Z</time></trkpt><trkpt lat="43.7070275" lon="6.9989363"><ele>176.0</ele><time>2026-05-01T15:44:50.271Z</time></trkpt><trkpt lat="43.7070617" lon="6.9987524"><ele>176.0</ele><time>2026-05-01T15:44:51.271Z</time></trkpt><trkpt lat="43.7070925" lon="6.9985621"><ele>176.0</ele><time>2026-05-01T15:44:52.271Z</time></trkpt><trkpt lat="43.7071925" lon="6.9982172"><ele>176.0</ele><time>2026-05-01T15:44:54.271Z</time></trkpt><trkpt lat="43.7072655" lon="6.9980597"><ele>176.0</ele><time>2026-05-01T15:44:55.271Z</time></trkpt><trkpt lat="43.7073461" lon="6.9978916"><ele>176.0</ele><time>2026-05-01T15:44:56.271Z</time></trkpt><trkpt lat="43.7074244" lon="6.9977389"><ele>176.0</ele><time>2026-05-01T15:44:57.271Z</time></trkpt><trkpt lat="43.7074968" lon="6.9975877"><ele>173.75</ele><time>2026-05-01T15:44:58.272Z</time></trkpt><trkpt lat="43.7075737" lon="6.9974594"><ele>171.5</ele><time>2026-05-01T15:44:59.271Z</time></trkpt><trkpt lat="43.7076587" lon="6.9973295"><ele>169.25</ele><time>2026-05-01T15:45:00.271Z</time></trkpt><trkpt lat="43.7077603" lon="6.9972147"><ele>167.0</ele><time>2026-05-01T15:45:01.271Z</time></trkpt><trkpt lat="43.7078796" lon="6.9971089"><ele>174.66666666666666</ele><time>2026-05-01T15:45:02.271Z</time></trkpt><trkpt lat="43.7080218" lon="6.9970059"><ele>182.33333333333334</ele><time>2026-05-01T15:45:03.271Z</time></trkpt><trkpt lat="43.7081656" lon="6.9969056"><ele>190.0</ele><time>2026-05-01T15:45:04.271Z</time></trkpt><trkpt lat="43.7083036" lon="6.996792"><ele>190.0</ele><time>2026-05-01T15:45:05.271Z</time></trkpt><trkpt lat="43.7084293" lon="6.9966741"><ele>190.0</ele><time>2026-05-01T15:45:06.272Z</time></trkpt><trkpt lat="43.7085449" lon="6.9965521"><ele>190.0</ele><time>2026-05-01T15:45:07.271Z</time></trkpt><trkpt lat="43.7086485" lon="6.9964228"><ele>190.0</ele><time>2026-05-01T15:45:08.271Z</time></trkpt><trkpt lat="43.7087434" lon="6.9962828"><ele>189.0</ele><time>2026-05-01T15:45:09.271Z</time></trkpt><trkpt lat="43.7088407" lon="6.9961255"><ele>188.0</ele><time>2026-05-01T15:45:10.271Z</time></trkpt><trkpt lat="43.7089371" lon="6.99596"><ele>187.0</ele><time>2026-05-01T15:45:11.272Z</time></trkpt><trkpt lat="43.7090316" lon="6.9958023"><ele>182.33333333333334</ele><time>2026-05-01T15:45:12.271Z</time></trkpt><trkpt lat="43.7091352" lon="6.9956771"><ele>177.66666666666666</ele><time>2026-05-01T15:45:13.271Z</time></trkpt><trkpt lat="43.7093328" lon="6.9954669"><ele>173.0</ele><time>2026-05-01T15:45:15.271Z</time></trkpt><trkpt lat="43.709401" lon="6.9953367"><ele>175.5</ele><time>2026-05-01T15:45:16.271Z</time></trkpt><trkpt lat="43.7094565" lon="6.995182"><ele>178.0</ele><time>2026-05-01T15:45:17.272Z</time></trkpt><trkpt lat="43.7094996" lon="6.9950085"><ele>180.5</ele><time>2026-05-01T15:45:18.271Z</time></trkpt><trkpt lat="43.7095473" lon="6.99483"><ele>183.0</ele><time>2026-05-01T15:45:19.271Z</time></trkpt><trkpt lat="43.709612" lon="6.9946595"><ele>183.0</ele><time>2026-05-01T15:45:20.272Z</time></trkpt><trkpt lat="43.7096916" lon="6.9945087"><ele>183.0</ele><time>2026-05-01T15:45:21.271Z</time></trkpt><trkpt lat="43.7097871" lon="6.9943892"><ele>183.0</ele><time>2026-05-01T15:45:22.271Z</time></trkpt><trkpt lat="43.7098999" lon="6.994289"><ele>183.0</ele><time>2026-05-01T15:45:23.271Z</time></trkpt><trkpt lat="43.7100229" lon="6.9941922"><ele>181.75</ele><time>2026-05-01T15:45:24.271Z</time></trkpt><trkpt lat="43.7101525" lon="6.994122"><ele>180.5</ele><time>2026-05-01T15:45:25.272Z</time></trkpt><trkpt lat="43.7102833" lon="6.9940721"><ele>179.25</ele><time>2026-05-01T15:45:26.271Z</time></trkpt><trkpt lat="43.7104125" lon="6.9940335"><ele>178.0</ele><time>2026-05-01T15:45:27.271Z</time></trkpt><trkpt lat="43.7105359" lon="6.9939895"><ele>178.0</ele><time>2026-05-01T15:45:28.271Z</time></trkpt><trkpt lat="43.7106683" lon="6.9939799"><ele>178.0</ele><time>2026-05-01T15:45:29.271Z</time></trkpt><trkpt lat="43.7108039" lon="6.9939847"><ele>178.0</ele><time>2026-05-01T15:45:30.272Z</time></trkpt><trkpt lat="43.710951" lon="6.9939885"><ele>178.0</ele><time>2026-05-01T15:45:31.271Z</time></trkpt><trkpt lat="43.7111115" lon="6.9940021"><ele>182.0</ele><time>2026-05-01T15:45:32.271Z</time></trkpt><trkpt lat="43.7112661" lon="6.9940144"><ele>186.0</ele><time>2026-05-01T15:45:33.272Z</time></trkpt><trkpt lat="43.7114182" lon="6.9940165"><ele>190.0</ele><time>2026-05-01T15:45:34.271Z</time></trkpt><trkpt lat="43.7117134" lon="6.9939989"><ele>190.0</ele><time>2026-05-01T15:45:36.271Z</time></trkpt><trkpt lat="43.7118529" lon="6.9939654"><ele>190.0</ele><time>2026-05-01T15:45:37.271Z</time></trkpt><trkpt lat="43.7119853" lon="6.9939255"><ele>190.0</ele><time>2026-05-01T15:45:38.271Z</time></trkpt><trkpt lat="43.7121187" lon="6.9938786"><ele>190.0</ele><time>2026-05-01T15:45:39.271Z</time></trkpt><trkpt lat="43.7122461" lon="6.9938001"><ele>193.25</ele><time>2026-05-01T15:45:40.272Z</time></trkpt><trkpt lat="43.7123663" lon="6.9937022"><ele>196.5</ele><time>2026-05-01T15:45:41.271Z</time></trkpt><trkpt lat="43.7124942" lon="6.9936198"><ele>199.75</ele><time>2026-05-01T15:45:42.271Z</time></trkpt><trkpt lat="43.7126253" lon="6.9935525"><ele>203.0</ele><time>2026-05-01T15:45:43.271Z</time></trkpt><trkpt lat="43.7127561" lon="6.993494"><ele>200.75</ele><time>2026-05-01T15:45:44.271Z</time></trkpt><trkpt lat="43.7128917" lon="6.9934706"><ele>198.5</ele><time>2026-05-01T15:45:45.271Z</time></trkpt><trkpt lat="43.7130331" lon="6.9934326"><ele>196.25</ele><time>2026-05-01T15:45:46.272Z</time></trkpt><trkpt lat="43.7131776" lon="6.9933725"><ele>194.0</ele><time>2026-05-01T15:45:47.271Z</time></trkpt><trkpt lat="43.7133135" lon="6.9932746"><ele>194.0</ele><time>2026-05-01T15:45:48.271Z</time></trkpt><trkpt lat="43.7134436" lon="6.9931767"><ele>194.0</ele><time>2026-05-01T15:45:49.271Z</time></trkpt><trkpt lat="43.7135623" lon="6.9930848"><ele>194.0</ele><time>2026-05-01T15:45:50.271Z</time></trkpt><trkpt lat="43.7136708" lon="6.9929944"><ele>194.0</ele><time>2026-05-01T15:45:51.271Z</time></trkpt><trkpt lat="43.7137724" lon="6.992872"><ele>194.75</ele><time>2026-05-01T15:45:52.272Z</time></trkpt><trkpt lat="43.7138627" lon="6.9927349"><ele>195.5</ele><time>2026-05-01T15:45:53.271Z</time></trkpt><trkpt lat="43.7139435" lon="6.9925788"><ele>196.25</ele><time>2026-05-01T15:45:54.271Z</time></trkpt><trkpt lat="43.714021" lon="6.9924203"><ele>197.0</ele><time>2026-05-01T15:45:55.271Z</time></trkpt><trkpt lat="43.714171" lon="6.9921012"><ele>197.0</ele><time>2026-05-01T15:45:57.271Z</time></trkpt><trkpt lat="43.714257" lon="6.9919821"><ele>197.0</ele><time>2026-05-01T15:45:58.271Z</time></trkpt><trkpt lat="43.7143565" lon="6.9918843"><ele>197.0</ele><time>2026-05-01T15:45:59.271Z</time></trkpt><trkpt lat="43.7144665" lon="6.9918323"><ele>197.0</ele><time>2026-05-01T15:46:00.271Z</time></trkpt><trkpt lat="43.714579" lon="6.9918064"><ele>199.0</ele><time>2026-05-01T15:46:01.271Z</time></trkpt><trkpt lat="43.7146974" lon="6.9918091"><ele>201.0</ele><time>2026-05-01T15:46:02.271Z</time></trkpt><trkpt lat="43.7148116" lon="6.991866"><ele>203.0</ele><time>2026-05-01T15:46:03.271Z</time></trkpt><trkpt lat="43.7149235" lon="6.9919728"><ele>205.0</ele><time>2026-05-01T15:46:04.271Z</time></trkpt><trkpt lat="43.7150389" lon="6.9920956"><ele>205.0</ele><time>2026-05-01T15:46:05.271Z</time></trkpt><trkpt lat="43.7151456" lon="6.9921941"><ele>205.0</ele><time>2026-05-01T15:46:06.271Z</time></trkpt><trkpt lat="43.7152595" lon="6.9922636"><ele>205.0</ele><time>2026-05-01T15:46:07.271Z</time></trkpt><trkpt lat="43.7153785" lon="6.9922867"><ele>205.0</ele><time>2026-05-01T15:46:08.271Z</time></trkpt><trkpt lat="43.7155135" lon="6.9922911"><ele>203.75</ele><time>2026-05-01T15:46:09.272Z</time></trkpt><trkpt lat="43.7156481" lon="6.9923095"><ele>202.5</ele><time>2026-05-01T15:46:10.271Z</time></trkpt><trkpt lat="43.7157652" lon="6.9923272"><ele>201.25</ele><time>2026-05-01T15:46:11.272Z</time></trkpt><trkpt lat="43.7158813" lon="6.9923685"><ele>200.0</ele><time>2026-05-01T15:46:12.272Z</time></trkpt><trkpt lat="43.7159977" lon="6.9924278"><ele>200.0</ele><time>2026-05-01T15:46:13.271Z</time></trkpt><trkpt lat="43.7161164" lon="6.9924705"><ele>200.0</ele><time>2026-05-01T15:46:14.271Z</time></trkpt><trkpt lat="43.7162302" lon="6.992474"><ele>200.0</ele><time>2026-05-01T15:46:15.271Z</time></trkpt><trkpt lat="43.7163379" lon="6.9924598"><ele>200.0</ele><time>2026-05-01T15:46:16.271Z</time></trkpt><trkpt lat="43.7165601" lon="6.9923412"><ele>200.0</ele><time>2026-05-01T15:46:18.271Z</time></trkpt><trkpt lat="43.7166699" lon="6.9922389"><ele>200.0</ele><time>2026-05-01T15:46:19.271Z</time></trkpt><trkpt lat="43.7167826" lon="6.9921399"><ele>200.0</ele><time>2026-05-01T15:46:20.271Z</time></trkpt><trkpt lat="43.7168892" lon="6.9920407"><ele>200.0</ele><time>2026-05-01T15:46:21.271Z</time></trkpt><trkpt lat="43.7169822" lon="6.9919573"><ele>201.00000000000003</ele><time>2026-05-01T15:46:22.271Z</time></trkpt><trkpt lat="43.7170688" lon="6.9919104"><ele>202.0</ele><time>2026-05-01T15:46:23.271Z</time></trkpt><trkpt lat="43.7171595" lon="6.9918873"><ele>203.0</ele><time>2026-05-01T15:46:24.271Z</time></trkpt><trkpt lat="43.7172428" lon="6.9918964"><ele>204.0</ele><time>2026-05-01T15:46:25.271Z</time></trkpt><trkpt lat="43.7173192" lon="6.99192"><ele>205.00000000000003</ele><time>2026-05-01T15:46:26.271Z</time></trkpt><trkpt lat="43.717397" lon="6.9919532"><ele>206.0</ele><time>2026-05-01T15:46:28.271Z</time></trkpt><trkpt lat="43.7174394" lon="6.9920782"><ele>206.0</ele><time>2026-05-01T15:46:36.271Z</time></trkpt><trkpt lat="43.7174876" lon="6.9921576"><ele>206.0</ele><time>2026-05-01T15:46:37.271Z</time></trkpt><trkpt lat="43.7176151" lon="6.9922912"><ele>206.0</ele><time>2026-05-01T15:46:39.271Z</time></trkpt><trkpt lat="43.7176931" lon="6.9923277"><ele>206.0</ele><time>2026-05-01T15:46:40.271Z</time></trkpt><trkpt lat="43.7177821" lon="6.9923376"><ele>206.0</ele><time>2026-05-01T15:46:41.271Z</time></trkpt><trkpt lat="43.7178802" lon="6.9923391"><ele>204.8</ele><time>2026-05-01T15:46:42.271Z</time></trkpt><trkpt lat="43.7179694" lon="6.9923719"><ele>203.60000000000002</ele><time>2026-05-01T15:46:43.271Z</time></trkpt><trkpt lat="43.7180491" lon="6.9924266"><ele>202.4</ele><time>2026-05-01T15:46:44.271Z</time></trkpt><trkpt lat="43.7181227" lon="6.9924998"><ele>201.2</ele><time>2026-05-01T15:46:45.271Z</time></trkpt><trkpt lat="43.7181856" lon="6.9925933"><ele>200.0</ele><time>2026-05-01T15:46:46.272Z</time></trkpt><trkpt lat="43.7182587" lon="6.992698"><ele>203.0</ele><time>2026-05-01T15:46:47.271Z</time></trkpt><trkpt lat="43.7183367" lon="6.9928029"><ele>206.0</ele><time>2026-05-01T15:46:48.271Z</time></trkpt><trkpt lat="43.718417" lon="6.9929025"><ele>209.0</ele><time>2026-05-01T15:46:49.271Z</time></trkpt><trkpt lat="43.7185029" lon="6.9930037"><ele>212.0</ele><time>2026-05-01T15:46:50.271Z</time></trkpt><trkpt lat="43.7185982" lon="6.9930842"><ele>215.0</ele><time>2026-05-01T15:46:51.271Z</time></trkpt><trkpt lat="43.7187019" lon="6.9931488"><ele>215.0</ele><time>2026-05-01T15:46:52.271Z</time></trkpt><trkpt lat="43.718805" lon="6.9932054"><ele>215.0</ele><time>2026-05-01T15:46:53.272Z</time></trkpt><trkpt lat="43.7189107" lon="6.9932433"><ele>215.0</ele><time>2026-05-01T15:46:54.271Z</time></trkpt><trkpt lat="43.7190147" lon="6.9932621"><ele>215.0</ele><time>2026-05-01T15:46:55.271Z</time></trkpt><trkpt lat="43.7191135" lon="6.9932594"><ele>215.0</ele><time>2026-05-01T15:46:56.271Z</time></trkpt><trkpt lat="43.7192092" lon="6.9932564"><ele>215.0</ele><time>2026-05-01T15:46:57.271Z</time></trkpt><trkpt lat="43.7193042" lon="6.9932598"><ele>215.0</ele><time>2026-05-01T15:46:58.271Z</time></trkpt><trkpt lat="43.7194963" lon="6.9932752"><ele>215.0</ele><time>2026-05-01T15:47:00.271Z</time></trkpt><trkpt lat="43.7196007" lon="6.9933092"><ele>215.0</ele><time>2026-05-01T15:47:01.272Z</time></trkpt><trkpt lat="43.7196922" lon="6.9933514"><ele>215.4</ele><time>2026-05-01T15:47:02.271Z</time></trkpt><trkpt lat="43.719782" lon="6.9933622"><ele>215.8</ele><time>2026-05-01T15:47:03.271Z</time></trkpt><trkpt lat="43.7198791" lon="6.9933524"><ele>216.2</ele><time>2026-05-01T15:47:04.271Z</time></trkpt><trkpt lat="43.7199807" lon="6.9933395"><ele>216.6</ele><time>2026-05-01T15:47:05.271Z</time></trkpt><trkpt lat="43.7200783" lon="6.9933298"><ele>217.0</ele><time>2026-05-01T15:47:06.271Z</time></trkpt><trkpt lat="43.7201656" lon="6.9933569"><ele>221.39999999999998</ele><time>2026-05-01T15:47:07.272Z</time></trkpt><trkpt lat="43.7202364" lon="6.9934039"><ele>225.79999999999998</ele><time>2026-05-01T15:47:08.271Z</time></trkpt><trkpt lat="43.7202898" lon="6.9934872"><ele>230.2</ele><time>2026-05-01T15:47:09.271Z</time></trkpt><trkpt lat="43.720316" lon="6.9936088"><ele>234.6</ele><time>2026-05-01T15:47:10.271Z</time></trkpt><trkpt lat="43.720315" lon="6.9937514"><ele>239.0</ele><time>2026-05-01T15:47:11.271Z</time></trkpt><trkpt lat="43.7202958" lon="6.9939067"><ele>239.0</ele><time>2026-05-01T15:47:12.271Z</time></trkpt><trkpt lat="43.7202599" lon="6.994074"><ele>238.99999999999997</ele><time>2026-05-01T15:47:13.271Z</time></trkpt><trkpt lat="43.7202318" lon="6.9942314"><ele>238.99999999999997</ele><time>2026-05-01T15:47:14.271Z</time></trkpt><trkpt lat="43.7202349" lon="6.9943699"><ele>239.0</ele><time>2026-05-01T15:47:15.271Z</time></trkpt><trkpt lat="43.7202583" lon="6.9944758"><ele>239.0</ele><time>2026-05-01T15:47:16.271Z</time></trkpt><trkpt lat="43.7203056" lon="6.9945596"><ele>245.5</ele><time>2026-05-01T15:47:17.271Z</time></trkpt><trkpt lat="43.720373" lon="6.9946072"><ele>252.0</ele><time>2026-05-01T15:47:18.271Z</time></trkpt><trkpt lat="43.7204571" lon="6.9946036"><ele>258.5</ele><time>2026-05-01T15:47:19.271Z</time></trkpt><trkpt lat="43.720611" lon="6.9944304"><ele>265.0</ele><time>2026-05-01T15:47:21.271Z</time></trkpt><trkpt lat="43.7206969" lon="6.9942622"><ele>256.3333333333333</ele><time>2026-05-01T15:47:22.271Z</time></trkpt><trkpt lat="43.7207922" lon="6.9940691"><ele>247.66666666666669</ele><time>2026-05-01T15:47:23.271Z</time></trkpt><trkpt lat="43.7208761" lon="6.9938976"><ele>239.0</ele><time>2026-05-01T15:47:24.271Z</time></trkpt><trkpt lat="43.7209706" lon="6.9937575"><ele>239.0</ele><time>2026-05-01T15:47:25.271Z</time></trkpt><trkpt lat="43.7210579" lon="6.9936527"><ele>238.99999999999997</ele><time>2026-05-01T15:47:26.271Z</time></trkpt><trkpt lat="43.721144" lon="6.9935768"><ele>238.99999999999997</ele><time>2026-05-01T15:47:27.272Z</time></trkpt><trkpt lat="43.7212334" lon="6.993514"><ele>239.0</ele><time>2026-05-01T15:47:28.271Z</time></trkpt><trkpt lat="43.7213344" lon="6.9934812"><ele>239.0</ele><time>2026-05-01T15:47:29.271Z</time></trkpt><trkpt lat="43.7214477" lon="6.9934927"><ele>239.5</ele><time>2026-05-01T15:47:30.271Z</time></trkpt><trkpt lat="43.7215655" lon="6.99354"><ele>240.0</ele><time>2026-05-01T15:47:31.271Z</time></trkpt><trkpt lat="43.7216845" lon="6.9936259"><ele>240.5</ele><time>2026-05-01T15:47:32.271Z</time></trkpt><trkpt lat="43.7218051" lon="6.9937295"><ele>241.0</ele><time>2026-05-01T15:47:33.271Z</time></trkpt><trkpt lat="43.7219342" lon="6.9938349"><ele>241.0</ele><time>2026-05-01T15:47:34.271Z</time></trkpt><trkpt lat="43.7220666" lon="6.9939631"><ele>241.0</ele><time>2026-05-01T15:47:35.271Z</time></trkpt><trkpt lat="43.7221958" lon="6.9940778"><ele>241.0</ele><time>2026-05-01T15:47:36.271Z</time></trkpt><trkpt lat="43.7223257" lon="6.9941948"><ele>246.75</ele><time>2026-05-01T15:47:37.271Z</time></trkpt><trkpt lat="43.7224545" lon="6.9943062"><ele>252.5</ele><time>2026-05-01T15:47:38.271Z</time></trkpt><trkpt lat="43.7225756" lon="6.9944094"><ele>258.25</ele><time>2026-05-01T15:47:39.271Z</time></trkpt><trkpt lat="43.7226891" lon="6.9945218"><ele>264.0</ele><time>2026-05-01T15:47:40.271Z</time></trkpt><trkpt lat="43.7229055" lon="6.9946859"><ele>264.0</ele><time>2026-05-01T15:47:42.271Z</time></trkpt><trkpt lat="43.7230197" lon="6.9947375"><ele>264.0</ele><time>2026-05-01T15:47:43.271Z</time></trkpt><trkpt lat="43.7231427" lon="6.9947548"><ele>264.0</ele><time>2026-05-01T15:47:44.271Z</time></trkpt><trkpt lat="43.7232888" lon="6.9947373"><ele>264.0</ele><time>2026-05-01T15:47:45.271Z</time></trkpt><trkpt lat="43.7234451" lon="6.9947086"><ele>262.25</ele><time>2026-05-01T15:47:46.271Z</time></trkpt><trkpt lat="43.7235957" lon="6.9946851"><ele>260.5</ele><time>2026-05-01T15:47:47.271Z</time></trkpt><trkpt lat="43.7237357" lon="6.9946711"><ele>258.75</ele><time>2026-05-01T15:47:48.271Z</time></trkpt><trkpt lat="43.7238757" lon="6.9946666"><ele>257.0</ele><time>2026-05-01T15:47:49.271Z</time></trkpt><trkpt lat="43.7240101" lon="6.9946865"><ele>257.0</ele><time>2026-05-01T15:47:50.272Z</time></trkpt><trkpt lat="43.7241313" lon="6.994737"><ele>257.0</ele><time>2026-05-01T15:47:51.271Z</time></trkpt><trkpt lat="43.7242407" lon="6.9948341"><ele>257.0</ele><time>2026-05-01T15:47:52.271Z</time></trkpt><trkpt lat="43.724332" lon="6.9949634"><ele>257.0</ele><time>2026-05-01T15:47:53.271Z</time></trkpt><trkpt lat="43.7244295" lon="6.9951113"><ele>258.0</ele><time>2026-05-01T15:47:54.271Z</time></trkpt><trkpt lat="43.7245255" lon="6.9952476"><ele>259.0</ele><time>2026-05-01T15:47:55.271Z</time></trkpt><trkpt lat="43.72465" lon="6.9953894"><ele>260.0</ele><time>2026-05-01T15:47:56.271Z</time></trkpt><trkpt lat="43.7247775" lon="6.995507"><ele>260.0</ele><time>2026-05-01T15:47:57.271Z</time></trkpt><trkpt lat="43.72491" lon="6.9956267"><ele>260.0</ele><time>2026-05-01T15:47:58.271Z</time></trkpt><trkpt lat="43.7250375" lon="6.9957628"><ele>260.0</ele><time>2026-05-01T15:47:59.272Z</time></trkpt><trkpt lat="43.7251641" lon="6.9959012"><ele>262.0</ele><time>2026-05-01T15:48:00.271Z</time></trkpt><trkpt lat="43.7252756" lon="6.9960492"><ele>264.0</ele><time>2026-05-01T15:48:01.271Z</time></trkpt><trkpt lat="43.7254651" lon="6.996367"><ele>264.0</ele><time>2026-05-01T15:48:03.271Z</time></trkpt><trkpt lat="43.7255667" lon="6.9965167"><ele>264.0</ele><time>2026-05-01T15:48:04.271Z</time></trkpt><trkpt lat="43.7256732" lon="6.9966526"><ele>264.0</ele><time>2026-05-01T15:48:05.272Z</time></trkpt><trkpt lat="43.7257846" lon="6.9967711"><ele>264.0</ele><time>2026-05-01T15:48:06.271Z</time></trkpt><trkpt lat="43.7259056" lon="6.9968823"><ele>271.25</ele><time>2026-05-01T15:48:07.271Z</time></trkpt><trkpt lat="43.7260362" lon="6.9969839"><ele>278.5</ele><time>2026-05-01T15:48:08.271Z</time></trkpt><trkpt lat="43.726173" lon="6.9970598"><ele>285.75</ele><time>2026-05-01T15:48:09.271Z</time></trkpt><trkpt lat="43.7263104" lon="6.9971151"><ele>293.0</ele><time>2026-05-01T15:48:10.271Z</time></trkpt><trkpt lat="43.7264373" lon="6.9971561"><ele>293.0</ele><time>2026-05-01T15:48:11.271Z</time></trkpt><trkpt lat="43.7265604" lon="6.9971722"><ele>293.0</ele><time>2026-05-01T15:48:12.271Z</time></trkpt><trkpt lat="43.7266744" lon="6.9971908"><ele>293.0</ele><time>2026-05-01T15:48:13.271Z</time></trkpt><trkpt lat="43.7267763" lon="6.9972084"><ele>293.0</ele><time>2026-05-01T15:48:14.272Z</time></trkpt><trkpt lat="43.7268724" lon="6.9972536"><ele>293.0</ele><time>2026-05-01T15:48:15.271Z</time></trkpt><trkpt lat="43.7269658" lon="6.9973164"><ele>297.0</ele><time>2026-05-01T15:48:16.271Z</time></trkpt><trkpt lat="43.7270662" lon="6.9973717"><ele>301.0</ele><time>2026-05-01T15:48:17.271Z</time></trkpt><trkpt lat="43.7271865" lon="6.9973967"><ele>305.0</ele><time>2026-05-01T15:48:18.271Z</time></trkpt><trkpt lat="43.7273026" lon="6.9973886"><ele>309.0</ele><time>2026-05-01T15:48:19.271Z</time></trkpt><trkpt lat="43.7274142" lon="6.9973401"><ele>309.0</ele><time>2026-05-01T15:48:20.272Z</time></trkpt><trkpt lat="43.7275154" lon="6.9972437"><ele>309.0</ele><time>2026-05-01T15:48:21.272Z</time></trkpt><trkpt lat="43.7276082" lon="6.9971258"><ele>309.0</ele><time>2026-05-01T15:48:22.271Z</time></trkpt><trkpt lat="43.7278109" lon="6.99696"><ele>314.0</ele><time>2026-05-01T15:48:24.271Z</time></trkpt><trkpt lat="43.7279296" lon="6.9969257"><ele>319.0</ele><time>2026-05-01T15:48:25.271Z</time></trkpt><trkpt lat="43.7280616" lon="6.9969167"><ele>324.0</ele><time>2026-05-01T15:48:26.271Z</time></trkpt><trkpt lat="43.7282174" lon="6.9969549"><ele>329.0</ele><time>2026-05-01T15:48:27.271Z</time></trkpt><trkpt lat="43.728378" lon="6.9970045"><ele>329.0</ele><time>2026-05-01T15:48:28.271Z</time></trkpt><trkpt lat="43.7285348" lon="6.9970419"><ele>329.0</ele><time>2026-05-01T15:48:29.271Z</time></trkpt><trkpt lat="43.7286847" lon="6.9970656"><ele>329.0</ele><time>2026-05-01T15:48:30.272Z</time></trkpt><trkpt lat="43.7288269" lon="6.9970847"><ele>322.75</ele><time>2026-05-01T15:48:31.271Z</time></trkpt><trkpt lat="43.7289641" lon="6.9971093"><ele>316.5</ele><time>2026-05-01T15:48:32.272Z</time></trkpt><trkpt lat="43.7290987" lon="6.9971535"><ele>310.25</ele><time>2026-05-01T15:48:33.271Z</time></trkpt><trkpt lat="43.7292366" lon="6.9972027"><ele>304.0</ele><time>2026-05-01T15:48:34.271Z</time></trkpt><trkpt lat="43.7293774" lon="6.9972521"><ele>297.25</ele><time>2026-05-01T15:48:35.271Z</time></trkpt><trkpt lat="43.7295157" lon="6.9973067"><ele>290.5</ele><time>2026-05-01T15:48:36.271Z</time></trkpt><trkpt lat="43.7296551" lon="6.9973662"><ele>283.75</ele><time>2026-05-01T15:48:37.271Z</time></trkpt><trkpt lat="43.7297893" lon="6.9974273"><ele>277.0</ele><time>2026-05-01T15:48:38.272Z</time></trkpt><trkpt lat="43.7299297" lon="6.9974825"><ele>285.5</ele><time>2026-05-01T15:48:39.271Z</time></trkpt><trkpt lat="43.7300702" lon="6.9975472"><ele>294.0</ele><time>2026-05-01T15:48:40.271Z</time></trkpt><trkpt lat="43.7302087" lon="6.9976014"><ele>302.5</ele><time>2026-05-01T15:48:41.271Z</time></trkpt><trkpt lat="43.7303483" lon="6.9976483"><ele>311.0</ele><time>2026-05-01T15:48:42.271Z</time></trkpt><trkpt lat="43.7304781" lon="6.9977172"><ele>311.0</ele><time>2026-05-01T15:48:43.271Z</time></trkpt><trkpt lat="43.7307031" lon="6.9979305"><ele>311.0</ele><time>2026-05-01T15:48:45.271Z</time></trkpt><trkpt lat="43.7308237" lon="6.998041"><ele>311.0</ele><time>2026-05-01T15:48:46.272Z</time></trkpt><trkpt lat="43.7309561" lon="6.9981301"><ele>305.5</ele><time>2026-05-01T15:48:47.271Z</time></trkpt><trkpt lat="43.7311051" lon="6.9982331"><ele>300.0</ele><time>2026-05-01T15:48:48.272Z</time></trkpt><trkpt lat="43.7312351" lon="6.9983078"><ele>294.5</ele><time>2026-05-01T15:48:49.271Z</time></trkpt><trkpt lat="43.7313571" lon="6.9983824"><ele>289.0</ele><time>2026-05-01T15:48:50.271Z</time></trkpt><trkpt lat="43.7314902" lon="6.9984331"><ele>301.25</ele><time>2026-05-01T15:48:51.271Z</time></trkpt><trkpt lat="43.7316287" lon="6.9984685"><ele>313.5</ele><time>2026-05-01T15:48:52.272Z</time></trkpt><trkpt lat="43.7317688" lon="6.9985041"><ele>325.75</ele><time>2026-05-01T15:48:53.271Z</time></trkpt><trkpt lat="43.731904" lon="6.9985678"><ele>338.0</ele><time>2026-05-01T15:48:54.271Z</time></trkpt><trkpt lat="43.7320374" lon="6.9986479"><ele>338.0</ele><time>2026-05-01T15:48:55.271Z</time></trkpt><trkpt lat="43.7321824" lon="6.998724"><ele>338.0</ele><time>2026-05-01T15:48:56.271Z</time></trkpt><trkpt lat="43.7323319" lon="6.998787"><ele>338.0</ele><time>2026-05-01T15:48:57.271Z</time></trkpt><trkpt lat="43.7324909" lon="6.9988495"><ele>338.0</ele><time>2026-05-01T15:48:58.271Z</time></trkpt><trkpt lat="43.7326411" lon="6.9989046"><ele>338.0</ele><time>2026-05-01T15:48:59.271Z</time></trkpt><trkpt lat="43.7327925" lon="6.9989618"><ele>338.0</ele><time>2026-05-01T15:49:00.271Z</time></trkpt><trkpt lat="43.7329432" lon="6.9990043"><ele>343.33333333333337</ele><time>2026-05-01T15:49:01.271Z</time></trkpt><trkpt lat="43.7330965" lon="6.9990269"><ele>348.6666666666667</ele><time>2026-05-01T15:49:02.271Z</time></trkpt><trkpt lat="43.7332482" lon="6.9990432"><ele>354.0</ele><time>2026-05-01T15:49:03.271Z</time></trkpt><trkpt lat="43.7333952" lon="6.99906"><ele>354.0</ele><time>2026-05-01T15:49:04.271Z</time></trkpt><trkpt lat="43.7336774" lon="6.9990234"><ele>354.0</ele><time>2026-05-01T15:49:06.271Z</time></trkpt><trkpt lat="43.7338014" lon="6.9989918"><ele>354.0</ele><time>2026-05-01T15:49:07.271Z</time></trkpt><trkpt lat="43.7339327" lon="6.9989759"><ele>354.0</ele><time>2026-05-01T15:49:08.271Z</time></trkpt><trkpt lat="43.7340645" lon="6.998987"><ele>354.0</ele><time>2026-05-01T15:49:09.271Z</time></trkpt><trkpt lat="43.7342007" lon="6.9990144"><ele>354.0</ele><time>2026-05-01T15:49:10.271Z</time></trkpt><trkpt lat="43.7343401" lon="6.9990275"><ele>354.0</ele><time>2026-05-01T15:49:11.271Z</time></trkpt><trkpt lat="43.73448" lon="6.9990269"><ele>354.0</ele><time>2026-05-01T15:49:12.271Z</time></trkpt><trkpt lat="43.7346266" lon="6.9990097"><ele>354.0</ele><time>2026-05-01T15:49:13.271Z</time></trkpt><trkpt lat="43.7347606" lon="6.998993"><ele>354.0</ele><time>2026-05-01T15:49:14.272Z</time></trkpt><trkpt lat="43.7348911" lon="6.9989686"><ele>354.0</ele><time>2026-05-01T15:49:15.271Z</time></trkpt><trkpt lat="43.7350158" lon="6.9989174"><ele>354.0</ele><time>2026-05-01T15:49:16.271Z</time></trkpt><trkpt lat="43.7351358" lon="6.9988557"><ele>354.0</ele><time>2026-05-01T15:49:17.271Z</time></trkpt><trkpt lat="43.7352434" lon="6.9987935"><ele>354.0</ele><time>2026-05-01T15:49:18.271Z</time></trkpt><trkpt lat="43.7353521" lon="6.99876"><ele>354.0</ele><time>2026-05-01T15:49:19.272Z</time></trkpt><trkpt lat="43.7354581" lon="6.998763"><ele>354.0</ele><time>2026-05-01T15:49:20.271Z</time></trkpt><trkpt lat="43.7355733" lon="6.9988119"><ele>354.0</ele><time>2026-05-01T15:49:21.272Z</time></trkpt><trkpt lat="43.7356826" lon="6.9989011"><ele>354.0</ele><time>2026-05-01T15:49:22.271Z</time></trkpt><trkpt lat="43.7357851" lon="6.9990107"><ele>354.0</ele><time>2026-05-01T15:49:23.271Z</time></trkpt><trkpt lat="43.7358729" lon="6.9991304"><ele>354.0</ele><time>2026-05-01T15:49:24.271Z</time></trkpt><trkpt lat="43.735957" lon="6.9992467"><ele>354.0</ele><time>2026-05-01T15:49:25.271Z</time></trkpt><trkpt lat="43.7361332" lon="6.9994799"><ele>354.0</ele><time>2026-05-01T15:49:27.271Z</time></trkpt><trkpt lat="43.7362216" lon="6.9995968"><ele>354.0</ele><time>2026-05-01T15:49:28.271Z</time></trkpt><trkpt lat="43.7363096" lon="6.9997139"><ele>354.0</ele><time>2026-05-01T15:49:29.271Z</time></trkpt><trkpt lat="43.7395367" lon="7.00044"><ele>354.0</ele><time>2026-05-01T15:49:49.273Z</time></trkpt><trkpt lat="43.739774" lon="7.0004415"><ele>354.0</ele><time>2026-05-01T15:49:51.274Z</time></trkpt><trkpt lat="43.7399366" lon="7.0004889"><ele>354.0</ele><time>2026-05-01T15:49:52.273Z</time></trkpt><trkpt lat="43.740103" lon="7.0004816"><ele>354.0</ele><time>2026-05-01T15:49:53.273Z</time></trkpt><trkpt lat="43.7402563" lon="7.0004419"><ele>354.0</ele><time>2026-05-01T15:49:54.274Z</time></trkpt><trkpt lat="43.7403898" lon="7.0004201"><ele>354.0</ele><time>2026-05-01T15:49:55.273Z</time></trkpt><trkpt lat="43.740517" lon="7.0004095"><ele>354.0</ele><time>2026-05-01T15:49:56.273Z</time></trkpt><trkpt lat="43.7406287" lon="7.0004245"><ele>367.0</ele><time>2026-05-01T15:49:57.273Z</time></trkpt><trkpt lat="43.7407211" lon="7.0004534"><ele>380.0</ele><time>2026-05-01T15:49:58.274Z</time></trkpt><trkpt lat="43.7408231" lon="7.0004876"><ele>393.0</ele><time>2026-05-01T15:49:59.273Z</time></trkpt><trkpt lat="43.740925" lon="7.0004876"><ele>406.0</ele><time>2026-05-01T15:50:00.274Z</time></trkpt><trkpt lat="43.7410287" lon="7.0004413"><ele>419.0</ele><time>2026-05-01T15:50:01.273Z</time></trkpt><trkpt lat="43.7411417" lon="7.0003983"><ele>419.0</ele><time>2026-05-01T15:50:02.273Z</time></trkpt><trkpt lat="43.7412714" lon="7.0003769"><ele>419.0</ele><time>2026-05-01T15:50:03.273Z</time></trkpt><trkpt lat="43.7413934" lon="7.0003438"><ele>419.0</ele><time>2026-05-01T15:50:04.273Z</time></trkpt><trkpt lat="43.741513" lon="7.0003228"><ele>419.0</ele><time>2026-05-01T15:50:05.273Z</time></trkpt><trkpt lat="43.7416229" lon="7.0002929"><ele>419.0</ele><time>2026-05-01T15:50:06.273Z</time></trkpt><trkpt lat="43.7417186" lon="7.0002354"><ele>419.0</ele><time>2026-05-01T15:50:07.273Z</time></trkpt><trkpt lat="43.7417949" lon="7.0001441"><ele>419.0</ele><time>2026-05-01T15:50:08.274Z</time></trkpt><trkpt lat="43.7418705" lon="7.0000795"><ele>419.0</ele><time>2026-05-01T15:50:09.273Z</time></trkpt><trkpt lat="43.7419436" lon="7.0000147"><ele>419.0</ele><time>2026-05-01T15:50:10.273Z</time></trkpt><trkpt lat="43.7421709" lon="6.9998202"><ele>421.25</ele><time>2026-05-01T15:50:12.273Z</time></trkpt><trkpt lat="43.7422798" lon="6.9997517"><ele>423.5</ele><time>2026-05-01T15:50:13.273Z</time></trkpt><trkpt lat="43.7424003" lon="6.9997388"><ele>425.75</ele><time>2026-05-01T15:50:14.273Z</time></trkpt><trkpt lat="43.7425082" lon="6.9996782"><ele>428.0</ele><time>2026-05-01T15:50:15.273Z</time></trkpt><trkpt lat="43.7425936" lon="6.9995974"><ele>428.0</ele><time>2026-05-01T15:50:16.273Z</time></trkpt><trkpt lat="43.7426606" lon="6.9994853"><ele>427.99999999999994</ele><time>2026-05-01T15:50:17.273Z</time></trkpt><trkpt lat="43.7427154" lon="6.9993883"><ele>427.99999999999994</ele><time>2026-05-01T15:50:18.273Z</time></trkpt><trkpt lat="43.7427668" lon="6.9992775"><ele>428.0</ele><time>2026-05-01T15:50:19.273Z</time></trkpt><trkpt lat="43.7428287" lon="6.9991887"><ele>428.0</ele><time>2026-05-01T15:50:20.273Z</time></trkpt><trkpt lat="43.7429232" lon="6.9991191"><ele>421.5</ele><time>2026-05-01T15:50:21.273Z</time></trkpt><trkpt lat="43.7430173" lon="6.9991032"><ele>415.0</ele><time>2026-05-01T15:50:22.273Z</time></trkpt><trkpt lat="43.7431307" lon="6.9991066"><ele>408.5</ele><time>2026-05-01T15:50:23.274Z</time></trkpt><trkpt lat="43.7432589" lon="6.9991164"><ele>402.0</ele><time>2026-05-01T15:50:24.273Z</time></trkpt><trkpt lat="43.7433997" lon="6.9991058"><ele>402.0</ele><time>2026-05-01T15:50:25.273Z</time></trkpt><trkpt lat="43.7435366" lon="6.9990803"><ele>402.0</ele><time>2026-05-01T15:50:26.273Z</time></trkpt><trkpt lat="43.7436586" lon="6.999067"><ele>402.0</ele><time>2026-05-01T15:50:27.273Z</time></trkpt><trkpt lat="43.7437629" lon="6.9990769"><ele>402.0</ele><time>2026-05-01T15:50:28.273Z</time></trkpt><trkpt lat="43.7438605" lon="6.9991178"><ele>405.75</ele><time>2026-05-01T15:50:29.273Z</time></trkpt><trkpt lat="43.743957" lon="6.9991668"><ele>409.5</ele><time>2026-05-01T15:50:30.273Z</time></trkpt><trkpt lat="43.7440624" lon="6.9991895"><ele>413.25</ele><time>2026-05-01T15:50:31.273Z</time></trkpt><trkpt lat="43.7442985" lon="6.9991413"><ele>417.0</ele><time>2026-05-01T15:50:33.273Z</time></trkpt><trkpt lat="43.7444295" lon="6.999127"><ele>417.25</ele><time>2026-05-01T15:50:34.273Z</time></trkpt><trkpt lat="43.744568" lon="6.9991278"><ele>417.5</ele><time>2026-05-01T15:50:35.273Z</time></trkpt><trkpt lat="43.7447164" lon="6.9991084"><ele>417.75</ele><time>2026-05-01T15:50:36.273Z</time></trkpt><trkpt lat="43.744864" lon="6.9990784"><ele>418.0</ele><time>2026-05-01T15:50:37.273Z</time></trkpt><trkpt lat="43.7450164" lon="6.9990318"><ele>418.0</ele><time>2026-05-01T15:50:38.273Z</time></trkpt><trkpt lat="43.745178" lon="6.9989546"><ele>418.0</ele><time>2026-05-01T15:50:39.273Z</time></trkpt><trkpt lat="43.745352" lon="6.9988773"><ele>418.0</ele><time>2026-05-01T15:50:40.273Z</time></trkpt><trkpt lat="43.7455131" lon="6.9988239"><ele>418.0</ele><time>2026-05-01T15:50:41.273Z</time></trkpt><trkpt lat="43.7456693" lon="6.9987884"><ele>418.0</ele><time>2026-05-01T15:50:42.273Z</time></trkpt><trkpt lat="43.7458143" lon="6.9987578"><ele>418.0</ele><time>2026-05-01T15:50:43.273Z</time></trkpt><trkpt lat="43.7459539" lon="6.9987309"><ele>418.0</ele><time>2026-05-01T15:50:44.273Z</time></trkpt><trkpt lat="43.7460893" lon="6.9986881"><ele>417.75</ele><time>2026-05-01T15:50:45.274Z</time></trkpt><trkpt lat="43.7462148" lon="6.9986128"><ele>417.5</ele><time>2026-05-01T15:50:46.273Z</time></trkpt><trkpt lat="43.7463326" lon="6.9985403"><ele>417.25</ele><time>2026-05-01T15:50:47.273Z</time></trkpt><trkpt lat="43.7464484" lon="6.9984893"><ele>417.0</ele><time>2026-05-01T15:50:48.273Z</time></trkpt><trkpt lat="43.7465694" lon="6.9984389"><ele>417.0</ele><time>2026-05-01T15:50:49.273Z</time></trkpt><trkpt lat="43.7466961" lon="6.9983862"><ele>417.0</ele><time>2026-05-01T15:50:50.274Z</time></trkpt><trkpt lat="43.746823" lon="6.9983209"><ele>417.0</ele><time>2026-05-01T15:50:51.273Z</time></trkpt><trkpt lat="43.746951" lon="6.9982546"><ele>417.0</ele><time>2026-05-01T15:50:52.273Z</time></trkpt><trkpt lat="43.7472033" lon="6.9981377"><ele>413.75</ele><time>2026-05-01T15:50:54.274Z</time></trkpt><trkpt lat="43.7473313" lon="6.9980797"><ele>410.5</ele><time>2026-05-01T15:50:55.273Z</time></trkpt><trkpt lat="43.7474582" lon="6.9980214"><ele>407.25</ele><time>2026-05-01T15:50:56.273Z</time></trkpt><trkpt lat="43.7475892" lon="6.9979673"><ele>404.0</ele><time>2026-05-01T15:50:57.273Z</time></trkpt><trkpt lat="43.7476527" lon="6.9978674"><ele>405.79999999999995</ele><time>2026-05-01T15:50:58.273Z</time></trkpt><trkpt lat="43.7477459" lon="6.9977443"><ele>407.59999999999997</ele><time>2026-05-01T15:50:59.273Z</time></trkpt><trkpt lat="43.7478226" lon="6.9976674"><ele>409.4</ele><time>2026-05-01T15:51:00.273Z</time></trkpt><trkpt lat="43.747881" lon="6.9975374"><ele>411.2</ele><time>2026-05-01T15:51:01.273Z</time></trkpt><trkpt lat="43.7479376" lon="6.9974144"><ele>413.0</ele><time>2026-05-01T15:51:02.273Z</time></trkpt><trkpt lat="43.747981" lon="6.9972681"><ele>413.0</ele><time>2026-05-01T15:51:03.273Z</time></trkpt><trkpt lat="43.7480089" lon="6.9971086"><ele>413.0</ele><time>2026-05-01T15:51:04.273Z</time></trkpt><trkpt lat="43.7480336" lon="6.9969489"><ele>413.0</ele><time>2026-05-01T15:51:05.273Z</time></trkpt><trkpt lat="43.7480612" lon="6.9967912"><ele>413.0</ele><time>2026-05-01T15:51:06.273Z</time></trkpt><trkpt lat="43.748106" lon="6.9966562"><ele>414.79999999999995</ele><time>2026-05-01T15:51:07.273Z</time></trkpt><trkpt lat="43.7481713" lon="6.996545"><ele>416.6</ele><time>2026-05-01T15:51:08.274Z</time></trkpt><trkpt lat="43.7482496" lon="6.9964519"><ele>418.4</ele><time>2026-05-01T15:51:09.273Z</time></trkpt><trkpt lat="43.7483492" lon="6.9963939"><ele>420.20000000000005</ele><time>2026-05-01T15:51:10.273Z</time></trkpt><trkpt lat="43.7484539" lon="6.9963416"><ele>422.0</ele><time>2026-05-01T15:51:11.273Z</time></trkpt><trkpt lat="43.7485633" lon="6.9963459"><ele>422.66666666666663</ele><time>2026-05-01T15:51:12.273Z</time></trkpt><trkpt lat="43.7486905" lon="6.9963852"><ele>423.33333333333337</ele><time>2026-05-01T15:51:13.274Z</time></trkpt><trkpt lat="43.7489654" lon="6.9964782"><ele>424.0</ele><time>2026-05-01T15:51:15.273Z</time></trkpt><trkpt lat="43.7491132" lon="6.9964783"><ele>424.0</ele><time>2026-05-01T15:51:16.273Z</time></trkpt><trkpt lat="43.7492447" lon="6.9965236"><ele>424.0</ele><time>2026-05-01T15:51:17.273Z</time></trkpt><trkpt lat="43.7493886" lon="6.9965617"><ele>424.0</ele><time>2026-05-01T15:51:18.274Z</time></trkpt><trkpt lat="43.7495311" lon="6.9965754"><ele>424.0</ele><time>2026-05-01T15:51:19.273Z</time></trkpt><trkpt lat="43.7496811" lon="6.9965693"><ele>425.0</ele><time>2026-05-01T15:51:20.274Z</time></trkpt><trkpt lat="43.7498336" lon="6.9965306"><ele>426.0</ele><time>2026-05-01T15:51:21.273Z</time></trkpt><trkpt lat="43.7499638" lon="6.9964973"><ele>427.0</ele><time>2026-05-01T15:51:22.273Z</time></trkpt><trkpt lat="43.7500857" lon="6.9964737"><ele>428.0</ele><time>2026-05-01T15:51:23.273Z</time></trkpt><trkpt lat="43.7502052" lon="6.9964475"><ele>429.59999999999997</ele><time>2026-05-01T15:51:24.274Z</time></trkpt><trkpt lat="43.750323" lon="6.9964242"><ele>431.19999999999993</ele><time>2026-05-01T15:51:25.273Z</time></trkpt><trkpt lat="43.750433" lon="6.9964002"><ele>432.8</ele><time>2026-05-01T15:51:26.273Z</time></trkpt><trkpt lat="43.7505313" lon="6.9963629"><ele>434.4</ele><time>2026-05-01T15:51:27.273Z</time></trkpt><trkpt lat="43.7506082" lon="6.9962755"><ele>436.0</ele><time>2026-05-01T15:51:28.274Z</time></trkpt><trkpt lat="43.7506685" lon="6.9961587"><ele>436.0</ele><time>2026-05-01T15:51:29.274Z</time></trkpt><trkpt lat="43.7507105" lon="6.996023"><ele>436.0</ele><time>2026-05-01T15:51:30.273Z</time></trkpt><trkpt lat="43.7507373" lon="6.9958718"><ele>436.0</ele><time>2026-05-01T15:51:31.273Z</time></trkpt><trkpt lat="43.7507399" lon="6.9956955"><ele>436.0</ele><time>2026-05-01T15:51:32.273Z</time></trkpt><trkpt lat="43.7507205" lon="6.9955373"><ele>438.33333333333337</ele><time>2026-05-01T15:51:33.274Z</time></trkpt><trkpt lat="43.7506754" lon="6.9953755"><ele>440.66666666666663</ele><time>2026-05-01T15:51:34.273Z</time></trkpt><trkpt lat="43.7505781" lon="6.9950624"><ele>443.0</ele><time>2026-05-01T15:51:36.273Z</time></trkpt><trkpt lat="43.7505492" lon="6.9948941"><ele>444.5</ele><time>2026-05-01T15:51:37.273Z</time></trkpt><trkpt lat="43.7505424" lon="6.9947124"><ele>446.0</ele><time>2026-05-01T15:51:38.273Z</time></trkpt><trkpt lat="43.7505629" lon="6.9945203"><ele>447.5</ele><time>2026-05-01T15:51:39.273Z</time></trkpt><trkpt lat="43.7505919" lon="6.9943274"><ele>449.0</ele><time>2026-05-01T15:51:40.273Z</time></trkpt><trkpt lat="43.7506144" lon="6.9941362"><ele>449.0</ele><time>2026-05-01T15:51:41.273Z</time></trkpt><trkpt lat="43.7506385" lon="6.9939564"><ele>449.0</ele><time>2026-05-01T15:51:42.273Z</time></trkpt><trkpt lat="43.7506693" lon="6.993789"><ele>449.0</ele><time>2026-05-01T15:51:43.273Z</time></trkpt><trkpt lat="43.750717" lon="6.9936546"><ele>449.0</ele><time>2026-05-01T15:51:44.273Z</time></trkpt><trkpt lat="43.7507905" lon="6.9935376"><ele>449.0</ele><time>2026-05-01T15:51:45.273Z</time></trkpt><trkpt lat="43.7508687" lon="6.9934419"><ele>449.0</ele><time>2026-05-01T15:51:46.273Z</time></trkpt><trkpt lat="43.7509563" lon="6.9933753"><ele>449.0</ele><time>2026-05-01T15:51:47.273Z</time></trkpt><trkpt lat="43.7510591" lon="6.993342"><ele>449.0</ele><time>2026-05-01T15:51:48.273Z</time></trkpt><trkpt lat="43.7511774" lon="6.9933456"><ele>449.0</ele><time>2026-05-01T15:51:49.273Z</time></trkpt><trkpt lat="43.7513063" lon="6.9933687"><ele>450.75</ele><time>2026-05-01T15:51:50.273Z</time></trkpt><trkpt lat="43.7514464" lon="6.9933938"><ele>452.5</ele><time>2026-05-01T15:51:51.273Z</time></trkpt><trkpt lat="43.7515785" lon="6.9934353"><ele>454.25</ele><time>2026-05-01T15:51:52.273Z</time></trkpt><trkpt lat="43.7517012" lon="6.9934693"><ele>456.0</ele><time>2026-05-01T15:51:53.273Z</time></trkpt><trkpt lat="43.7518337" lon="6.9934751"><ele>456.0</ele><time>2026-05-01T15:51:54.273Z</time></trkpt><trkpt lat="43.7519519" lon="6.993467"><ele>456.0</ele><time>2026-05-01T15:51:55.273Z</time></trkpt><trkpt lat="43.7521474" lon="6.9933259"><ele>456.0</ele><time>2026-05-01T15:51:57.273Z</time></trkpt><trkpt lat="43.7522283" lon="6.9931917"><ele>456.0</ele><time>2026-05-01T15:51:58.274Z</time></trkpt><trkpt lat="43.7522846" lon="6.9930436"><ele>456.0</ele><time>2026-05-01T15:51:59.273Z</time></trkpt><trkpt lat="43.7523341" lon="6.9928706"><ele>456.0</ele><time>2026-05-01T15:52:00.273Z</time></trkpt><trkpt lat="43.7523985" lon="6.9927102"><ele>456.0</ele><time>2026-05-01T15:52:01.273Z</time></trkpt><trkpt lat="43.7524925" lon="6.9925454"><ele>455.25</ele><time>2026-05-01T15:52:02.273Z</time></trkpt><trkpt lat="43.7525958" lon="6.9923899"><ele>454.5</ele><time>2026-05-01T15:52:03.273Z</time></trkpt><trkpt lat="43.7526873" lon="6.9922378"><ele>453.75</ele><time>2026-05-01T15:52:04.273Z</time></trkpt><trkpt lat="43.7527772" lon="6.9920859"><ele>453.0</ele><time>2026-05-01T15:52:05.273Z</time></trkpt><trkpt lat="43.752868" lon="6.9919361"><ele>453.0</ele><time>2026-05-01T15:52:06.273Z</time></trkpt><trkpt lat="43.7529729" lon="6.9917972"><ele>453.0</ele><time>2026-05-01T15:52:07.273Z</time></trkpt><trkpt lat="43.7530861" lon="6.9916698"><ele>453.0</ele><time>2026-05-01T15:52:08.274Z</time></trkpt><trkpt lat="43.753206" lon="6.9915735"><ele>453.0</ele><time>2026-05-01T15:52:09.273Z</time></trkpt><trkpt lat="43.7533359" lon="6.9914899"><ele>454.5</ele><time>2026-05-01T15:52:10.273Z</time></trkpt><trkpt lat="43.7534619" lon="6.9913962"><ele>456.0</ele><time>2026-05-01T15:52:11.273Z</time></trkpt><trkpt lat="43.753594" lon="6.9913028"><ele>457.5</ele><time>2026-05-01T15:52:12.274Z</time></trkpt><trkpt lat="43.7537277" lon="6.991208"><ele>459.0</ele><time>2026-05-01T15:52:13.273Z</time></trkpt><trkpt lat="43.7538437" lon="6.9911064"><ele>459.0</ele><time>2026-05-01T15:52:14.273Z</time></trkpt><trkpt lat="43.7539647" lon="6.9910222"><ele>459.0</ele><time>2026-05-01T15:52:15.273Z</time></trkpt><trkpt lat="43.7540978" lon="6.9909615"><ele>459.0</ele><time>2026-05-01T15:52:16.273Z</time></trkpt><trkpt lat="43.7543799" lon="6.9909177"><ele>458.33333333333337</ele><time>2026-05-01T15:52:18.273Z</time></trkpt><trkpt lat="43.7545423" lon="6.9909317"><ele>457.6666666666667</ele><time>2026-05-01T15:52:19.273Z</time></trkpt><trkpt lat="43.7547195" lon="6.9909189"><ele>457.0</ele><time>2026-05-01T15:52:20.273Z</time></trkpt><trkpt lat="43.7548895" lon="6.9908854"><ele>457.0</ele><time>2026-05-01T15:52:21.273Z</time></trkpt><trkpt lat="43.7550477" lon="6.9908463"><ele>457.0</ele><time>2026-05-01T15:52:22.273Z</time></trkpt><trkpt lat="43.7551845" lon="6.9907865"><ele>457.0</ele><time>2026-05-01T15:52:23.273Z</time></trkpt><trkpt lat="43.7553052" lon="6.9906907"><ele>457.0</ele><time>2026-05-01T15:52:24.273Z</time></trkpt><trkpt lat="43.7554221" lon="6.990563"><ele>458.75</ele><time>2026-05-01T15:52:25.273Z</time></trkpt><trkpt lat="43.7555288" lon="6.9904389"><ele>460.5</ele><time>2026-05-01T15:52:26.273Z</time></trkpt><trkpt lat="43.7556455" lon="6.9903188"><ele>462.25</ele><time>2026-05-01T15:52:27.273Z</time></trkpt><trkpt lat="43.7557805" lon="6.9902061"><ele>464.0</ele><time>2026-05-01T15:52:28.273Z</time></trkpt><trkpt lat="43.7559274" lon="6.9901226"><ele>464.66666666666663</ele><time>2026-05-01T15:52:29.273Z</time></trkpt><trkpt lat="43.756092" lon="6.9900927"><ele>465.33333333333337</ele><time>2026-05-01T15:52:30.273Z</time></trkpt><trkpt lat="43.7562664" lon="6.9900813"><ele>466.0</ele><time>2026-05-01T15:52:31.273Z</time></trkpt><trkpt lat="43.7564367" lon="6.9900787"><ele>466.0</ele><time>2026-05-01T15:52:32.273Z</time></trkpt><trkpt lat="43.7566034" lon="6.9900607"><ele>466.0</ele><time>2026-05-01T15:52:33.273Z</time></trkpt><trkpt lat="43.7567815" lon="6.9900361"><ele>466.0</ele><time>2026-05-01T15:52:34.273Z</time></trkpt><trkpt lat="43.7569516" lon="6.9900517"><ele>467.0</ele><time>2026-05-01T15:52:35.274Z</time></trkpt><trkpt lat="43.7571171" lon="6.9900762"><ele>468.0</ele><time>2026-05-01T15:52:36.273Z</time></trkpt><trkpt lat="43.757288" lon="6.9900942"><ele>469.0</ele><time>2026-05-01T15:52:37.273Z</time></trkpt><trkpt lat="43.75763" lon="6.9901233"><ele>468.6666666666667</ele><time>2026-05-01T15:52:39.273Z</time></trkpt><trkpt lat="43.7578061" lon="6.9901106"><ele>468.33333333333337</ele><time>2026-05-01T15:52:40.273Z</time></trkpt><trkpt lat="43.7579822" lon="6.9901205"><ele>468.0</ele><time>2026-05-01T15:52:41.273Z</time></trkpt><trkpt lat="43.7581313" lon="6.9901457"><ele>468.0</ele><time>2026-05-01T15:52:42.273Z</time></trkpt><trkpt lat="43.758292" lon="6.9901769"><ele>468.0</ele><time>2026-05-01T15:52:43.273Z</time></trkpt><trkpt lat="43.7584566" lon="6.9901876"><ele>468.0</ele><time>2026-05-01T15:52:44.273Z</time></trkpt><trkpt lat="43.7586198" lon="6.9901903"><ele>467.0</ele><time>2026-05-01T15:52:45.273Z</time></trkpt><trkpt lat="43.7587755" lon="6.9901986"><ele>466.0</ele><time>2026-05-01T15:52:46.273Z</time></trkpt><trkpt lat="43.7589364" lon="6.9902074"><ele>465.0</ele><time>2026-05-01T15:52:47.273Z</time></trkpt><trkpt lat="43.7591126" lon="6.9901785"><ele>465.0</ele><time>2026-05-01T15:52:48.273Z</time></trkpt><trkpt lat="43.7592812" lon="6.9901538"><ele>465.0</ele><time>2026-05-01T15:52:49.273Z</time></trkpt><trkpt lat="43.7594366" lon="6.9901611"><ele>465.0</ele><time>2026-05-01T15:52:50.273Z</time></trkpt><trkpt lat="43.7595759" lon="6.9901856"><ele>465.0</ele><time>2026-05-01T15:52:51.273Z</time></trkpt><trkpt lat="43.7597095" lon="6.9902084"><ele>465.0</ele><time>2026-05-01T15:52:52.273Z</time></trkpt><trkpt lat="43.7598366" lon="6.990223"><ele>465.0</ele><time>2026-05-01T15:52:53.273Z</time></trkpt><trkpt lat="43.7599712" lon="6.9902209"><ele>465.0</ele><time>2026-05-01T15:52:54.273Z</time></trkpt><trkpt lat="43.7601021" lon="6.9901875"><ele>466.0</ele><time>2026-05-01T15:52:55.273Z</time></trkpt><trkpt lat="43.7602312" lon="6.9901284"><ele>467.0</ele><time>2026-05-01T15:52:56.273Z</time></trkpt><trkpt lat="43.7603586" lon="6.9900514"><ele>468.0</ele><time>2026-05-01T15:52:57.273Z</time></trkpt><trkpt lat="43.7604708" lon="6.9899762"><ele>469.0</ele><time>2026-05-01T15:52:58.273Z</time></trkpt><trkpt lat="43.7606505" lon="6.9898167"><ele>469.0</ele><time>2026-05-01T15:53:00.273Z</time></trkpt><trkpt lat="43.7607153" lon="6.9897017"><ele>469.0</ele><time>2026-05-01T15:53:01.273Z</time></trkpt><trkpt lat="43.7607614" lon="6.9895815"><ele>469.0</ele><time>2026-05-01T15:53:02.274Z</time></trkpt><trkpt lat="43.7607955" lon="6.9894603"><ele>469.0</ele><time>2026-05-01T15:53:03.273Z</time></trkpt><trkpt lat="43.7608248" lon="6.9893422"><ele>469.0</ele><time>2026-05-01T15:53:04.273Z</time></trkpt><trkpt lat="43.7608489" lon="6.9892346"><ele>470.42857142857144</ele><time>2026-05-01T15:53:05.273Z</time></trkpt><trkpt lat="43.7608727" lon="6.9891254"><ele>471.8571428571429</ele><time>2026-05-01T15:53:06.273Z</time></trkpt><trkpt lat="43.7609006" lon="6.9890254"><ele>473.2857142857143</ele><time>2026-05-01T15:53:07.273Z</time></trkpt><trkpt lat="43.7609442" lon="6.9889383"><ele>474.7142857142857</ele><time>2026-05-01T15:53:08.273Z</time></trkpt><trkpt lat="43.7610018" lon="6.988874"><ele>476.14285714285717</ele><time>2026-05-01T15:53:09.273Z</time></trkpt><trkpt lat="43.7610659" lon="6.9888493"><ele>477.57142857142856</ele><time>2026-05-01T15:53:10.273Z</time></trkpt><trkpt lat="43.76113" lon="6.988865"><ele>479.0</ele><time>2026-05-01T15:53:11.273Z</time></trkpt><trkpt lat="43.7612023" lon="6.9888897"><ele>478.99999999999994</ele><time>2026-05-01T15:53:12.273Z</time></trkpt><trkpt lat="43.7612789" lon="6.9889266"><ele>479.0</ele><time>2026-05-01T15:53:13.274Z</time></trkpt><trkpt lat="43.7613579" lon="6.9889623"><ele>479.0</ele><time>2026-05-01T15:53:14.273Z</time></trkpt><trkpt lat="43.7614358" lon="6.9889685"><ele>479.0</ele><time>2026-05-01T15:53:15.273Z</time></trkpt><trkpt lat="43.7615093" lon="6.9889474"><ele>478.99999999999994</ele><time>2026-05-01T15:53:16.274Z</time></trkpt><trkpt lat="43.7615736" lon="6.9888803"><ele>479.0</ele><time>2026-05-01T15:53:17.273Z</time></trkpt><trkpt lat="43.7616351" lon="6.9887711"><ele>479.0</ele><time>2026-05-01T15:53:18.273Z</time></trkpt><trkpt lat="43.7616994" lon="6.9886292"><ele>479.0</ele><time>2026-05-01T15:53:19.273Z</time></trkpt><trkpt lat="43.7618503" lon="6.9883177"><ele>479.0</ele><time>2026-05-01T15:53:21.273Z</time></trkpt><trkpt lat="43.7619493" lon="6.9881823"><ele>481.5</ele><time>2026-05-01T15:53:22.273Z</time></trkpt><trkpt lat="43.7620626" lon="6.9880568"><ele>484.0</ele><time>2026-05-01T15:53:23.273Z</time></trkpt><trkpt lat="43.7621818" lon="6.9879628"><ele>486.5</ele><time>2026-05-01T15:53:24.273Z</time></trkpt><trkpt lat="43.7623102" lon="6.9878985"><ele>489.0</ele><time>2026-05-01T15:53:25.273Z</time></trkpt><trkpt lat="43.762436" lon="6.9878469"><ele>489.0</ele><time>2026-05-01T15:53:26.274Z</time></trkpt><trkpt lat="43.762558" lon="6.9877737"><ele>489.0</ele><time>2026-05-01T15:53:27.273Z</time></trkpt><trkpt lat="43.7626731" lon="6.9876835"><ele>489.0</ele><time>2026-05-01T15:53:28.273Z</time></trkpt><trkpt lat="43.7627806" lon="6.9876019"><ele>489.0</ele><time>2026-05-01T15:53:29.273Z</time></trkpt><trkpt lat="43.7628923" lon="6.9875625"><ele>491.25</ele><time>2026-05-01T15:53:30.273Z</time></trkpt><trkpt lat="43.7630067" lon="6.9875701"><ele>493.5</ele><time>2026-05-01T15:53:31.273Z</time></trkpt><trkpt lat="43.7631221" lon="6.9876205"><ele>495.75</ele><time>2026-05-01T15:53:32.273Z</time></trkpt><trkpt lat="43.7632384" lon="6.9876987"><ele>498.0</ele><time>2026-05-01T15:53:33.273Z</time></trkpt><trkpt lat="43.763345" lon="6.9877938"><ele>498.0</ele><time>2026-05-01T15:53:34.274Z</time></trkpt><trkpt lat="43.7634569" lon="6.9878958"><ele>498.0</ele><time>2026-05-01T15:53:35.274Z</time></trkpt><trkpt lat="43.7635774" lon="6.9879513"><ele>498.0</ele><time>2026-05-01T15:53:36.273Z</time></trkpt><trkpt lat="43.7637056" lon="6.9879742"><ele>498.0</ele><time>2026-05-01T15:53:37.273Z</time></trkpt><trkpt lat="43.7638362" lon="6.9879849"><ele>500.33333333333337</ele><time>2026-05-01T15:53:38.274Z</time></trkpt><trkpt lat="43.7639638" lon="6.9879587"><ele>502.6666666666667</ele><time>2026-05-01T15:53:39.273Z</time></trkpt><trkpt lat="43.7640901" lon="6.9878981"><ele>505.0</ele><time>2026-05-01T15:53:40.273Z</time></trkpt><trkpt lat="43.7643199" lon="6.9876979"><ele>503.0</ele><time>2026-05-01T15:53:42.273Z</time></trkpt><trkpt lat="43.764415" lon="6.9875414"><ele>501.0</ele><time>2026-05-01T15:53:43.274Z</time></trkpt><trkpt lat="43.7645152" lon="6.9873881"><ele>499.0</ele><time>2026-05-01T15:53:44.273Z</time></trkpt><trkpt lat="43.7646285" lon="6.9872665"><ele>497.0</ele><time>2026-05-01T15:53:45.273Z</time></trkpt><trkpt lat="43.7647504" lon="6.98717"><ele>497.0</ele><time>2026-05-01T15:53:46.273Z</time></trkpt><trkpt lat="43.7648828" lon="6.9870972"><ele>497.0</ele><time>2026-05-01T15:53:47.274Z</time></trkpt><trkpt lat="43.7650211" lon="6.9870522"><ele>497.0</ele><time>2026-05-01T15:53:48.273Z</time></trkpt><trkpt lat="43.7651733" lon="6.9870167"><ele>497.0</ele><time>2026-05-01T15:53:49.273Z</time></trkpt><trkpt lat="43.7653261" lon="6.9870024"><ele>500.66666666666663</ele><time>2026-05-01T15:53:50.274Z</time></trkpt><trkpt lat="43.7654768" lon="6.9870139"><ele>504.33333333333337</ele><time>2026-05-01T15:53:51.273Z</time></trkpt><trkpt lat="43.7656328" lon="6.9870551"><ele>508.0</ele><time>2026-05-01T15:53:52.274Z</time></trkpt><trkpt lat="43.7657837" lon="6.9870984"><ele>508.0</ele><time>2026-05-01T15:53:53.273Z</time></trkpt><trkpt lat="43.7659297" lon="6.9871441"><ele>508.0</ele><time>2026-05-01T15:53:54.273Z</time></trkpt><trkpt lat="43.7660754" lon="6.9871828"><ele>508.0</ele><time>2026-05-01T15:53:55.273Z</time></trkpt><trkpt lat="43.766224" lon="6.9872025"><ele>508.0</ele><time>2026-05-01T15:53:56.273Z</time></trkpt><trkpt lat="43.7663639" lon="6.9871976"><ele>509.75</ele><time>2026-05-01T15:53:57.273Z</time></trkpt><trkpt lat="43.7664976" lon="6.9871589"><ele>511.5</ele><time>2026-05-01T15:53:58.273Z</time></trkpt><trkpt lat="43.7666363" lon="6.987102"><ele>513.25</ele><time>2026-05-01T15:53:59.273Z</time></trkpt><trkpt lat="43.7667759" lon="6.9870466"><ele>515.0</ele><time>2026-05-01T15:54:00.273Z</time></trkpt><trkpt lat="43.7669098" lon="6.9869831"><ele>514.0</ele><time>2026-05-01T15:54:01.273Z</time></trkpt><trkpt lat="43.7671215" lon="6.9867922"><ele>513.0</ele><time>2026-05-01T15:54:03.274Z</time></trkpt><trkpt lat="43.7671951" lon="6.9866506"><ele>512.0</ele><time>2026-05-01T15:54:04.273Z</time></trkpt><trkpt lat="43.7672691" lon="6.9864992"><ele>512.0</ele><time>2026-05-01T15:54:05.273Z</time></trkpt><trkpt lat="43.7673492" lon="6.9863574"><ele>512.0</ele><time>2026-05-01T15:54:06.273Z</time></trkpt><trkpt lat="43.7674574" lon="6.9862599"><ele>512.0</ele><time>2026-05-01T15:54:07.273Z</time></trkpt><trkpt lat="43.7675821" lon="6.9861877"><ele>512.0</ele><time>2026-05-01T15:54:08.273Z</time></trkpt><trkpt lat="43.7677119" lon="6.9861119"><ele>512.0</ele><time>2026-05-01T15:54:09.274Z</time></trkpt><trkpt lat="43.7678412" lon="6.986016"><ele>512.0</ele><time>2026-05-01T15:54:10.273Z</time></trkpt><trkpt lat="43.7679609" lon="6.9858997"><ele>512.0</ele><time>2026-05-01T15:54:11.273Z</time></trkpt><trkpt lat="43.7680581" lon="6.985756"><ele>512.0</ele><time>2026-05-01T15:54:12.273Z</time></trkpt><trkpt lat="43.7681496" lon="6.9855924"><ele>512.0</ele><time>2026-05-01T15:54:13.273Z</time></trkpt><trkpt lat="43.7682385" lon="6.9854549"><ele>512.0</ele><time>2026-05-01T15:54:14.274Z</time></trkpt><trkpt lat="43.7683419" lon="6.9853474"><ele>512.0</ele><time>2026-05-01T15:54:15.273Z</time></trkpt><trkpt lat="43.7684675" lon="6.9852753"><ele>512.0</ele><time>2026-05-01T15:54:16.274Z</time></trkpt><trkpt lat="43.768596" lon="6.9852047"><ele>511.25</ele><time>2026-05-01T15:54:17.273Z</time></trkpt><trkpt lat="43.7687227" lon="6.9851117"><ele>510.5</ele><time>2026-05-01T15:54:18.273Z</time></trkpt><trkpt lat="43.7688535" lon="6.98502"><ele>509.75</ele><time>2026-05-01T15:54:19.273Z</time></trkpt><trkpt lat="43.7689858" lon="6.9849364"><ele>509.0</ele><time>2026-05-01T15:54:20.273Z</time></trkpt><trkpt lat="43.7691201" lon="6.9848798"><ele>509.0</ele><time>2026-05-01T15:54:21.274Z</time></trkpt><trkpt lat="43.7692554" lon="6.9848469"><ele>509.0</ele><time>2026-05-01T15:54:22.273Z</time></trkpt><trkpt lat="43.7695151" lon="6.9848616"><ele>509.0</ele><time>2026-05-01T15:54:24.273Z</time></trkpt><trkpt lat="43.7696475" lon="6.9848803"><ele>510.5</ele><time>2026-05-01T15:54:25.273Z</time></trkpt><trkpt lat="43.7697871" lon="6.9848928"><ele>512.0</ele><time>2026-05-01T15:54:26.273Z</time></trkpt><trkpt lat="43.7699213" lon="6.9849102"><ele>513.5</ele><time>2026-05-01T15:54:27.273Z</time></trkpt><trkpt lat="43.7700426" lon="6.9849524"><ele>515.0</ele><time>2026-05-01T15:54:28.273Z</time></trkpt><trkpt lat="43.770173" lon="6.9850329"><ele>522.25</ele><time>2026-05-01T15:54:29.273Z</time></trkpt><trkpt lat="43.7702861" lon="6.985132"><ele>529.5</ele><time>2026-05-01T15:54:30.273Z</time></trkpt><trkpt lat="43.7704112" lon="6.9851852"><ele>536.75</ele><time>2026-05-01T15:54:31.273Z</time></trkpt><trkpt lat="43.7705446" lon="6.9851815"><ele>544.0</ele><time>2026-05-01T15:54:32.273Z</time></trkpt><trkpt lat="43.7706639" lon="6.9851118"><ele>544.0</ele><time>2026-05-01T15:54:33.273Z</time></trkpt><trkpt lat="43.7707747" lon="6.9850246"><ele>544.0</ele><time>2026-05-01T15:54:34.273Z</time></trkpt><trkpt lat="43.7708747" lon="6.9849513"><ele>544.0</ele><time>2026-05-01T15:54:35.273Z</time></trkpt><trkpt lat="43.7709735" lon="6.9849201"><ele>544.0</ele><time>2026-05-01T15:54:36.273Z</time></trkpt><trkpt lat="43.7710883" lon="6.9849376"><ele>540.25</ele><time>2026-05-01T15:54:37.273Z</time></trkpt><trkpt lat="43.7712011" lon="6.9849959"><ele>536.5</ele><time>2026-05-01T15:54:38.273Z</time></trkpt><trkpt lat="43.7713119" lon="6.9850879"><ele>532.75</ele><time>2026-05-01T15:54:39.273Z</time></trkpt><trkpt lat="43.7714312" lon="6.9852075"><ele>529.0</ele><time>2026-05-01T15:54:40.273Z</time></trkpt><trkpt lat="43.7715492" lon="6.9853295"><ele>529.0</ele><time>2026-05-01T15:54:41.273Z</time></trkpt><trkpt lat="43.7716619" lon="6.985461"><ele>529.0</ele><time>2026-05-01T15:54:42.273Z</time></trkpt><trkpt lat="43.7717597" lon="6.9855713"><ele>529.0</ele><time>2026-05-01T15:54:43.273Z</time></trkpt><trkpt lat="43.7719947" lon="6.9857048"><ele>530.25</ele><time>2026-05-01T15:54:45.273Z</time></trkpt><trkpt lat="43.7721199" lon="6.9857234"><ele>531.5</ele><time>2026-05-01T15:54:46.273Z</time></trkpt><trkpt lat="43.7722551" lon="6.9857229"><ele>532.75</ele><time>2026-05-01T15:54:47.273Z</time></trkpt><trkpt lat="43.7723959" lon="6.9856969"><ele>534.0</ele><time>2026-05-01T15:54:48.273Z</time></trkpt><trkpt lat="43.7725387" lon="6.9856536"><ele>534.0</ele><time>2026-05-01T15:54:49.273Z</time></trkpt><trkpt lat="43.7726687" lon="6.985581"><ele>534.0</ele><time>2026-05-01T15:54:50.273Z</time></trkpt><trkpt lat="43.7727921" lon="6.985479"><ele>534.0</ele><time>2026-05-01T15:54:51.273Z</time></trkpt><trkpt lat="43.772913" lon="6.9853674"><ele>534.0</ele><time>2026-05-01T15:54:52.273Z</time></trkpt><trkpt lat="43.77304" lon="6.9852441"><ele>530.0</ele><time>2026-05-01T15:54:53.273Z</time></trkpt><trkpt lat="43.7731715" lon="6.9851118"><ele>526.0</ele><time>2026-05-01T15:54:54.274Z</time></trkpt><trkpt lat="43.7733008" lon="6.9849647"><ele>522.0</ele><time>2026-05-01T15:54:55.273Z</time></trkpt><trkpt lat="43.7734296" lon="6.9848011"><ele>531.3333333333334</ele><time>2026-05-01T15:54:56.274Z</time></trkpt><trkpt lat="43.7735629" lon="6.9846247"><ele>540.6666666666667</ele><time>2026-05-01T15:54:57.273Z</time></trkpt><trkpt lat="43.7736977" lon="6.9844455"><ele>550.0</ele><time>2026-05-01T15:54:58.273Z</time></trkpt><trkpt lat="43.7738091" lon="6.9842384"><ele>543.3333333333334</ele><time>2026-05-01T15:54:59.273Z</time></trkpt><trkpt lat="43.773907" lon="6.9840307"><ele>536.6666666666666</ele><time>2026-05-01T15:55:00.273Z</time></trkpt><trkpt lat="43.7740022" lon="6.9838459"><ele>530.0</ele><time>2026-05-01T15:55:01.273Z</time></trkpt><trkpt lat="43.7741236" lon="6.9837106"><ele>530.0</ele><time>2026-05-01T15:55:02.273Z</time></trkpt><trkpt lat="43.7742582" lon="6.9835868"><ele>530.0</ele><time>2026-05-01T15:55:03.273Z</time></trkpt><trkpt lat="43.7743796" lon="6.983465"><ele>530.0</ele><time>2026-05-01T15:55:04.273Z</time></trkpt><trkpt lat="43.7745591" lon="6.9831022"><ele>536.0</ele><time>2026-05-01T15:55:06.273Z</time></trkpt><trkpt lat="43.774637" lon="6.9828981"><ele>542.0</ele><time>2026-05-01T15:55:07.273Z</time></trkpt><trkpt lat="43.7747381" lon="6.9827296"><ele>548.0</ele><time>2026-05-01T15:55:08.273Z</time></trkpt><trkpt lat="43.7748685" lon="6.9825617"><ele>552.3333333333333</ele><time>2026-05-01T15:55:09.273Z</time></trkpt><trkpt lat="43.775007" lon="6.9823908"><ele>556.6666666666666</ele><time>2026-05-01T15:55:10.273Z</time></trkpt><trkpt lat="43.7751378" lon="6.9822175"><ele>561.0</ele><time>2026-05-01T15:55:11.273Z</time></trkpt><trkpt lat="43.7752454" lon="6.9820153"><ele>561.0</ele><time>2026-05-01T15:55:12.273Z</time></trkpt><trkpt lat="43.7753344" lon="6.9818043"><ele>561.0</ele><time>2026-05-01T15:55:13.273Z</time></trkpt><trkpt lat="43.7754147" lon="6.9815922"><ele>561.0</ele><time>2026-05-01T15:55:14.273Z</time></trkpt><trkpt lat="43.7755058" lon="6.9813767"><ele>556.0</ele><time>2026-05-01T15:55:15.273Z</time></trkpt><trkpt lat="43.7756123" lon="6.9811659"><ele>551.0</ele><time>2026-05-01T15:55:16.273Z</time></trkpt><trkpt lat="43.7757353" lon="6.9809644"><ele>546.0</ele><time>2026-05-01T15:55:17.273Z</time></trkpt><trkpt lat="43.7758716" lon="6.9807783"><ele>549.0</ele><time>2026-05-01T15:55:18.273Z</time></trkpt><trkpt lat="43.7760133" lon="6.9806119"><ele>552.0</ele><time>2026-05-01T15:55:19.273Z</time></trkpt><trkpt lat="43.7761701" lon="6.9804768"><ele>555.0</ele><time>2026-05-01T15:55:20.273Z</time></trkpt><trkpt lat="43.7763417" lon="6.9803462"><ele>555.0</ele><time>2026-05-01T15:55:21.274Z</time></trkpt><trkpt lat="43.7765095" lon="6.9802342"><ele>555.0</ele><time>2026-05-01T15:55:22.273Z</time></trkpt><trkpt lat="43.7766875" lon="6.9801337"><ele>555.0</ele><time>2026-05-01T15:55:23.273Z</time></trkpt><trkpt lat="43.7768674" lon="6.9800512"><ele>559.5</ele><time>2026-05-01T15:55:24.273Z</time></trkpt><trkpt lat="43.7770386" lon="6.9799568"><ele>564.0</ele><time>2026-05-01T15:55:25.274Z</time></trkpt><trkpt lat="43.7773137" lon="6.9796805"><ele>564.0</ele><time>2026-05-01T15:55:27.273Z</time></trkpt><trkpt lat="43.7774245" lon="6.9795059"><ele>564.0</ele><time>2026-05-01T15:55:28.273Z</time></trkpt><trkpt lat="43.7775333" lon="6.9793278"><ele>564.0</ele><time>2026-05-01T15:55:29.274Z</time></trkpt><trkpt lat="43.7776375" lon="6.9791371"><ele>563.6666666666666</ele><time>2026-05-01T15:55:30.273Z</time></trkpt><trkpt lat="43.7777405" lon="6.9789537"><ele>563.3333333333333</ele><time>2026-05-01T15:55:31.273Z</time></trkpt><trkpt lat="43.7778509" lon="6.9787907"><ele>563.0</ele><time>2026-05-01T15:55:32.273Z</time></trkpt><trkpt lat="43.7779801" lon="6.9786642"><ele>563.0</ele><time>2026-05-01T15:55:33.273Z</time></trkpt><trkpt lat="43.7781238" lon="6.9785604"><ele>563.0</ele><time>2026-05-01T15:55:34.273Z</time></trkpt><trkpt lat="43.7782717" lon="6.9784397"><ele>563.0</ele><time>2026-05-01T15:55:35.273Z</time></trkpt><trkpt lat="43.7784077" lon="6.9782968"><ele>562.3333333333333</ele><time>2026-05-01T15:55:36.273Z</time></trkpt><trkpt lat="43.7785274" lon="6.9781335"><ele>561.6666666666666</ele><time>2026-05-01T15:55:37.273Z</time></trkpt><trkpt lat="43.778647" lon="6.9779904"><ele>561.0</ele><time>2026-05-01T15:55:38.273Z</time></trkpt><trkpt lat="43.7787791" lon="6.9778858"><ele>561.0</ele><time>2026-05-01T15:55:39.274Z</time></trkpt><trkpt lat="43.7789162" lon="6.9778027"><ele>561.0</ele><time>2026-05-01T15:55:40.273Z</time></trkpt><trkpt lat="43.7790602" lon="6.9777452"><ele>561.0</ele><time>2026-05-01T15:55:41.273Z</time></trkpt><trkpt lat="43.7792015" lon="6.9777386"><ele>561.0</ele><time>2026-05-01T15:55:42.273Z</time></trkpt><trkpt lat="43.7793469" lon="6.9777684"><ele>563.0</ele><time>2026-05-01T15:55:43.273Z</time></trkpt><trkpt lat="43.7794913" lon="6.9778145"><ele>565.0</ele><time>2026-05-01T15:55:44.273Z</time></trkpt><trkpt lat="43.7796432" lon="6.9778578"><ele>567.0</ele><time>2026-05-01T15:55:45.273Z</time></trkpt><trkpt lat="43.7797962" lon="6.9778548"><ele>567.0</ele><time>2026-05-01T15:55:46.273Z</time></trkpt><trkpt lat="43.7800715" lon="6.9776483"><ele>567.0</ele><time>2026-05-01T15:55:48.273Z</time></trkpt><trkpt lat="43.7802168" lon="6.9775133"><ele>563.3333333333334</ele><time>2026-05-01T15:55:49.273Z</time></trkpt><trkpt lat="43.7803612" lon="6.9773937"><ele>559.6666666666667</ele><time>2026-05-01T15:55:50.273Z</time></trkpt><trkpt lat="43.780511" lon="6.9773077"><ele>556.0</ele><time>2026-05-01T15:55:51.273Z</time></trkpt><trkpt lat="43.780668" lon="6.9772559"><ele>556.0</ele><time>2026-05-01T15:55:52.273Z</time></trkpt><trkpt lat="43.7808274" lon="6.9772245"><ele>556.0</ele><time>2026-05-01T15:55:53.273Z</time></trkpt><trkpt lat="43.7809883" lon="6.9772219"><ele>556.0</ele><time>2026-05-01T15:55:54.273Z</time></trkpt><trkpt lat="43.7811465" lon="6.9772445"><ele>560.0</ele><time>2026-05-01T15:55:55.273Z</time></trkpt><trkpt lat="43.781301" lon="6.9772524"><ele>564.0</ele><time>2026-05-01T15:55:56.273Z</time></trkpt><trkpt lat="43.7814492" lon="6.977241"><ele>568.0</ele><time>2026-05-01T15:55:57.273Z</time></trkpt><trkpt lat="43.7815975" lon="6.9772119"><ele>568.0</ele><time>2026-05-01T15:55:58.274Z</time></trkpt><trkpt lat="43.7817294" lon="6.97714"><ele>568.0</ele><time>2026-05-01T15:55:59.273Z</time></trkpt><trkpt lat="43.7818672" lon="6.9770225"><ele>568.0</ele><time>2026-05-01T15:56:00.273Z</time></trkpt><trkpt lat="43.7820046" lon="6.9768918"><ele>566.0</ele><time>2026-05-01T15:56:01.273Z</time></trkpt><trkpt lat="43.782149" lon="6.9767498"><ele>564.0</ele><time>2026-05-01T15:56:02.274Z</time></trkpt><trkpt lat="43.7822991" lon="6.9766192"><ele>562.0</ele><time>2026-05-01T15:56:03.273Z</time></trkpt><trkpt lat="43.7824515" lon="6.9765074"><ele>562.0</ele><time>2026-05-01T15:56:04.273Z</time></trkpt><trkpt lat="43.7826025" lon="6.9763881"><ele>562.0</ele><time>2026-05-01T15:56:05.273Z</time></trkpt><trkpt lat="43.7827408" lon="6.9762594"><ele>562.0</ele><time>2026-05-01T15:56:06.273Z</time></trkpt><trkpt lat="43.7828733" lon="6.9761153"><ele>559.5</ele><time>2026-05-01T15:56:07.274Z</time></trkpt><trkpt lat="43.7831382" lon="6.9758645"><ele>557.0</ele><time>2026-05-01T15:56:09.273Z</time></trkpt><trkpt lat="43.7832882" lon="6.9757806"><ele>557.0</ele><time>2026-05-01T15:56:10.274Z</time></trkpt><trkpt lat="43.7834487" lon="6.9757503"><ele>557.0</ele><time>2026-05-01T15:56:11.273Z</time></trkpt><trkpt lat="43.7836187" lon="6.9757087"><ele>557.0</ele><time>2026-05-01T15:56:12.273Z</time></trkpt><trkpt lat="43.7837972" lon="6.9756568"><ele>563.3333333333333</ele><time>2026-05-01T15:56:13.273Z</time></trkpt><trkpt lat="43.7839704" lon="6.9755656"><ele>569.6666666666666</ele><time>2026-05-01T15:56:14.273Z</time></trkpt><trkpt lat="43.7841465" lon="6.9754605"><ele>576.0</ele><time>2026-05-01T15:56:15.273Z</time></trkpt><trkpt lat="43.7843272" lon="6.9753435"><ele>580.3333333333334</ele><time>2026-05-01T15:56:16.273Z</time></trkpt><trkpt lat="43.7845018" lon="6.9752443"><ele>584.6666666666667</ele><time>2026-05-01T15:56:17.273Z</time></trkpt><trkpt lat="43.7846734" lon="6.9751588"><ele>589.0</ele><time>2026-05-01T15:56:18.273Z</time></trkpt><trkpt lat="43.7848479" lon="6.9750723"><ele>587.6666666666667</ele><time>2026-05-01T15:56:19.273Z</time></trkpt><trkpt lat="43.7850163" lon="6.9749516"><ele>586.3333333333334</ele><time>2026-05-01T15:56:20.273Z</time></trkpt><trkpt lat="43.7851734" lon="6.9748124"><ele>585.0</ele><time>2026-05-01T15:56:21.273Z</time></trkpt><trkpt lat="43.7853234" lon="6.9746761"><ele>585.0</ele><time>2026-05-01T15:56:22.273Z</time></trkpt><trkpt lat="43.7854762" lon="6.9745466"><ele>585.0</ele><time>2026-05-01T15:56:23.273Z</time></trkpt><trkpt lat="43.7856346" lon="6.974457"><ele>585.0</ele><time>2026-05-01T15:56:24.273Z</time></trkpt><trkpt lat="43.7858055" lon="6.9743918"><ele>585.0</ele><time>2026-05-01T15:56:25.274Z</time></trkpt><trkpt lat="43.7859843" lon="6.9743625"><ele>585.0</ele><time>2026-05-01T15:56:26.273Z</time></trkpt><trkpt lat="43.7861659" lon="6.9743338"><ele>585.0</ele><time>2026-05-01T15:56:27.273Z</time></trkpt><trkpt lat="43.786339" lon="6.9742753"><ele>579.0</ele><time>2026-05-01T15:56:28.273Z</time></trkpt><trkpt lat="43.7866672" lon="6.9740738"><ele>573.0</ele><time>2026-05-01T15:56:30.273Z</time></trkpt><trkpt lat="43.7868359" lon="6.9740071"><ele>582.0</ele><time>2026-05-01T15:56:31.273Z</time></trkpt><trkpt lat="43.787005" lon="6.9739384"><ele>591.0</ele><time>2026-05-01T15:56:32.273Z</time></trkpt><trkpt lat="43.7871706" lon="6.9738477"><ele>600.0</ele><time>2026-05-01T15:56:33.273Z</time></trkpt><trkpt lat="43.7873357" lon="6.9737363"><ele>600.0</ele><time>2026-05-01T15:56:34.273Z</time></trkpt><trkpt lat="43.7875029" lon="6.973625"><ele>600.0</ele><time>2026-05-01T15:56:35.273Z</time></trkpt><trkpt lat="43.7876578" lon="6.9735072"><ele>600.0</ele><time>2026-05-01T15:56:36.273Z</time></trkpt><trkpt lat="43.7878008" lon="6.9733614"><ele>602.3333333333334</ele><time>2026-05-01T15:56:37.273Z</time></trkpt><trkpt lat="43.7879369" lon="6.9732041"><ele>604.6666666666667</ele><time>2026-05-01T15:56:38.274Z</time></trkpt><trkpt lat="43.7880616" lon="6.9730558"><ele>607.0</ele><time>2026-05-01T15:56:39.273Z</time></trkpt><trkpt lat="43.7881823" lon="6.9729095"><ele>607.0</ele><time>2026-05-01T15:56:40.274Z</time></trkpt><trkpt lat="43.7882893" lon="6.9727542"><ele>607.0</ele><time>2026-05-01T15:56:41.273Z</time></trkpt><trkpt lat="43.7883885" lon="6.9725889"><ele>607.0</ele><time>2026-05-01T15:56:42.273Z</time></trkpt><trkpt lat="43.7884611" lon="6.9723846"><ele>609.6666666666667</ele><time>2026-05-01T15:56:43.274Z</time></trkpt><trkpt lat="43.7885132" lon="6.9721542"><ele>612.3333333333334</ele><time>2026-05-01T15:56:44.273Z</time></trkpt><trkpt lat="43.7885473" lon="6.9719088"><ele>615.0</ele><time>2026-05-01T15:56:45.273Z</time></trkpt><trkpt lat="43.7885758" lon="6.9716665"><ele>615.0</ele><time>2026-05-01T15:56:46.273Z</time></trkpt><trkpt lat="43.7886129" lon="6.9714424"><ele>615.0</ele><time>2026-05-01T15:56:47.274Z</time></trkpt><trkpt lat="43.7886594" lon="6.9712491"><ele>615.0</ele><time>2026-05-01T15:56:48.273Z</time></trkpt><trkpt lat="43.7887306" lon="6.9710776"><ele>606.6666666666666</ele><time>2026-05-01T15:56:49.273Z</time></trkpt><trkpt lat="43.7889411" lon="6.9708024"><ele>598.3333333333333</ele><time>2026-05-01T15:56:51.273Z</time></trkpt><trkpt lat="43.7890731" lon="6.9707206"><ele>590.0</ele><time>2026-05-01T15:56:52.273Z</time></trkpt><trkpt lat="43.7892042" lon="6.9706786"><ele>590.0</ele><time>2026-05-01T15:56:53.273Z</time></trkpt><trkpt lat="43.7893373" lon="6.9706726"><ele>590.0</ele><time>2026-05-01T15:56:54.273Z</time></trkpt><trkpt lat="43.7894675" lon="6.9707011"><ele>590.0</ele><time>2026-05-01T15:56:55.273Z</time></trkpt><trkpt lat="43.7895843" lon="6.970724"><ele>590.0</ele><time>2026-05-01T15:56:56.273Z</time></trkpt><trkpt lat="43.7897132" lon="6.9707044"><ele>594.25</ele><time>2026-05-01T15:56:57.273Z</time></trkpt><trkpt lat="43.7898436" lon="6.9706454"><ele>598.5</ele><time>2026-05-01T15:56:58.273Z</time></trkpt><trkpt lat="43.789969" lon="6.9705593"><ele>602.75</ele><time>2026-05-01T15:56:59.273Z</time></trkpt><trkpt lat="43.7900623" lon="6.9704389"><ele>607.0</ele><time>2026-05-01T15:57:00.274Z</time></trkpt><trkpt lat="43.7901337" lon="6.9703101"><ele>606.6</ele><time>2026-05-01T15:57:01.273Z</time></trkpt><trkpt lat="43.7901914" lon="6.9701735"><ele>606.2</ele><time>2026-05-01T15:57:02.274Z</time></trkpt><trkpt lat="43.790258" lon="6.9700528"><ele>605.8</ele><time>2026-05-01T15:57:03.273Z</time></trkpt><trkpt lat="43.7903337" lon="6.9699737"><ele>605.4</ele><time>2026-05-01T15:57:04.273Z</time></trkpt><trkpt lat="43.790415" lon="6.9699562"><ele>605.0</ele><time>2026-05-01T15:57:05.273Z</time></trkpt><trkpt lat="43.7904912" lon="6.9699991"><ele>605.0</ele><time>2026-05-01T15:57:06.273Z</time></trkpt><trkpt lat="43.7905341" lon="6.9700726"><ele>605.0</ele><time>2026-05-01T15:57:07.273Z</time></trkpt><trkpt lat="43.7905588" lon="6.9701744"><ele>605.0</ele><time>2026-05-01T15:57:08.273Z</time></trkpt><trkpt lat="43.7905427" lon="6.9703075"><ele>605.0</ele><time>2026-05-01T15:57:09.274Z</time></trkpt><trkpt lat="43.7904929" lon="6.9704806"><ele>605.0</ele><time>2026-05-01T15:57:10.274Z</time></trkpt><trkpt lat="43.7903816" lon="6.9709021"><ele>608.25</ele><time>2026-05-01T15:57:12.274Z</time></trkpt><trkpt lat="43.7903856" lon="6.9710971"><ele>611.5</ele><time>2026-05-01T15:57:13.273Z</time></trkpt><trkpt lat="43.7904303" lon="6.9712766"><ele>614.75</ele><time>2026-05-01T15:57:14.273Z</time></trkpt><trkpt lat="43.7905002" lon="6.9714294"><ele>618.0</ele><time>2026-05-01T15:57:15.273Z</time></trkpt><trkpt lat="43.7905972" lon="6.9715453"><ele>618.0</ele><time>2026-05-01T15:57:16.274Z</time></trkpt><trkpt lat="43.7907268" lon="6.9716204"><ele>618.0</ele><time>2026-05-01T15:57:17.273Z</time></trkpt><trkpt lat="43.7908637" lon="6.9716813"><ele>618.0</ele><time>2026-05-01T15:57:18.273Z</time></trkpt><trkpt lat="43.7910032" lon="6.9717498"><ele>618.0</ele><time>2026-05-01T15:57:19.273Z</time></trkpt><trkpt lat="43.7911322" lon="6.9718237"><ele>619.25</ele><time>2026-05-01T15:57:20.274Z</time></trkpt><trkpt lat="43.7912424" lon="6.9718959"><ele>620.5</ele><time>2026-05-01T15:57:21.274Z</time></trkpt><trkpt lat="43.791345" lon="6.9720014"><ele>621.75</ele><time>2026-05-01T15:57:22.273Z</time></trkpt><trkpt lat="43.7914121" lon="6.9721368"><ele>623.0</ele><time>2026-05-01T15:57:23.273Z</time></trkpt><trkpt lat="43.7914644" lon="6.972319"><ele>623.0</ele><time>2026-05-01T15:57:24.273Z</time></trkpt><trkpt lat="43.7915086" lon="6.9725077"><ele>623.0</ele><time>2026-05-01T15:57:25.273Z</time></trkpt><trkpt lat="43.7915701" lon="6.9726584"><ele>623.0</ele><time>2026-05-01T15:57:26.274Z</time></trkpt><trkpt lat="43.791669" lon="6.9727711"><ele>623.0</ele><time>2026-05-01T15:57:27.273Z</time></trkpt><trkpt lat="43.7917889" lon="6.9728425"><ele>625.0</ele><time>2026-05-01T15:57:28.273Z</time></trkpt><trkpt lat="43.7919061" lon="6.9729003"><ele>627.0</ele><time>2026-05-01T15:57:29.273Z</time></trkpt><trkpt lat="43.7920151" lon="6.972986"><ele>629.0</ele><time>2026-05-01T15:57:30.273Z</time></trkpt><trkpt lat="43.7920961" lon="6.9731166"><ele>631.0</ele><time>2026-05-01T15:57:31.273Z</time></trkpt><trkpt lat="43.7922282" lon="6.9734298"><ele>634.25</ele><time>2026-05-01T15:57:33.273Z</time></trkpt><trkpt lat="43.7923028" lon="6.9735754"><ele>637.5</ele><time>2026-05-01T15:57:34.273Z</time></trkpt><trkpt lat="43.7923665" lon="6.9737177"><ele>640.75</ele><time>2026-05-01T15:57:35.273Z</time></trkpt><trkpt lat="43.7924412" lon="6.973843"><ele>644.0</ele><time>2026-05-01T15:57:36.273Z</time></trkpt><trkpt lat="43.7925272" lon="6.9739425"><ele>644.0</ele><time>2026-05-01T15:57:37.273Z</time></trkpt><trkpt lat="43.7926219" lon="6.9740294"><ele>644.0</ele><time>2026-05-01T15:57:38.274Z</time></trkpt><trkpt lat="43.7927308" lon="6.9741192"><ele>644.0</ele><time>2026-05-01T15:57:39.273Z</time></trkpt><trkpt lat="43.7928463" lon="6.9741882"><ele>644.0</ele><time>2026-05-01T15:57:40.273Z</time></trkpt><trkpt lat="43.7929567" lon="6.9742586"><ele>645.75</ele><time>2026-05-01T15:57:41.273Z</time></trkpt><trkpt lat="43.793058" lon="6.9743303"><ele>647.5</ele><time>2026-05-01T15:57:42.274Z</time></trkpt><trkpt lat="43.7931695" lon="6.9744024"><ele>649.25</ele><time>2026-05-01T15:57:43.274Z</time></trkpt><trkpt lat="43.793293" lon="6.9744599"><ele>651.0</ele><time>2026-05-01T15:57:44.273Z</time></trkpt><trkpt lat="43.7934154" lon="6.9745193"><ele>650.5999999999999</ele><time>2026-05-01T15:57:45.273Z</time></trkpt><trkpt lat="43.7935279" lon="6.9745764"><ele>650.2</ele><time>2026-05-01T15:57:46.273Z</time></trkpt><trkpt lat="43.7936306" lon="6.9746202"><ele>649.8</ele><time>2026-05-01T15:57:47.273Z</time></trkpt><trkpt lat="43.793735" lon="6.9746275"><ele>649.4000000000001</ele><time>2026-05-01T15:57:48.273Z</time></trkpt><trkpt lat="43.7938342" lon="6.9745999"><ele>649.0</ele><time>2026-05-01T15:57:49.274Z</time></trkpt><trkpt lat="43.7939261" lon="6.9745376"><ele>649.0</ele><time>2026-05-01T15:57:50.273Z</time></trkpt><trkpt lat="43.7940134" lon="6.9744382"><ele>649.0</ele><time>2026-05-01T15:57:51.273Z</time></trkpt><trkpt lat="43.7940753" lon="6.9743242"><ele>649.0</ele><time>2026-05-01T15:57:52.273Z</time></trkpt><trkpt lat="43.7941096" lon="6.9740656"><ele>649.0</ele><time>2026-05-01T15:57:54.273Z</time></trkpt><trkpt lat="43.7940863" lon="6.9739043"><ele>649.5</ele><time>2026-05-01T15:57:55.273Z</time></trkpt><trkpt lat="43.7940563" lon="6.9737464"><ele>650.0</ele><time>2026-05-01T15:57:56.273Z</time></trkpt><trkpt lat="43.7940312" lon="6.9735874"><ele>650.5</ele><time>2026-05-01T15:57:57.273Z</time></trkpt><trkpt lat="43.7940087" lon="6.9734286"><ele>651.0</ele><time>2026-05-01T15:57:58.273Z</time></trkpt><trkpt lat="43.7939993" lon="6.9732609"><ele>651.75</ele><time>2026-05-01T15:57:59.273Z</time></trkpt><trkpt lat="43.7940052" lon="6.9730935"><ele>652.5</ele><time>2026-05-01T15:58:00.273Z</time></trkpt><trkpt lat="43.7940217" lon="6.9729298"><ele>653.25</ele><time>2026-05-01T15:58:01.273Z</time></trkpt><trkpt lat="43.794047" lon="6.9727601"><ele>654.0</ele><time>2026-05-01T15:58:02.273Z</time></trkpt><trkpt lat="43.7940788" lon="6.9725781"><ele>653.75</ele><time>2026-05-01T15:58:03.273Z</time></trkpt><trkpt lat="43.7941138" lon="6.9723951"><ele>653.5</ele><time>2026-05-01T15:58:04.273Z</time></trkpt><trkpt lat="43.7941372" lon="6.9722334"><ele>653.25</ele><time>2026-05-01T15:58:05.273Z</time></trkpt><trkpt lat="43.7941633" lon="6.972059"><ele>653.0</ele><time>2026-05-01T15:58:06.273Z</time></trkpt><trkpt lat="43.7941908" lon="6.9718806"><ele>653.0</ele><time>2026-05-01T15:58:07.274Z</time></trkpt><trkpt lat="43.794226" lon="6.9717068"><ele>653.0</ele><time>2026-05-01T15:58:08.273Z</time></trkpt><trkpt lat="43.7942817" lon="6.9715465"><ele>653.0</ele><time>2026-05-01T15:58:09.273Z</time></trkpt><trkpt lat="43.7943561" lon="6.9714163"><ele>653.0</ele><time>2026-05-01T15:58:10.273Z</time></trkpt><trkpt lat="43.79444" lon="6.9712882"><ele>657.25</ele><time>2026-05-01T15:58:11.274Z</time></trkpt><trkpt lat="43.7944995" lon="6.9711538"><ele>661.5</ele><time>2026-05-01T15:58:12.273Z</time></trkpt><trkpt lat="43.794526" lon="6.9710026"><ele>665.75</ele><time>2026-05-01T15:58:13.273Z</time></trkpt><trkpt lat="43.7945063" lon="6.9707072"><ele>670.0</ele><time>2026-05-01T15:58:15.273Z</time></trkpt><trkpt lat="43.7945089" lon="6.9705576"><ele>670.0</ele><time>2026-05-01T15:58:16.273Z</time></trkpt><trkpt lat="43.7945358" lon="6.9703995"><ele>670.0</ele><time>2026-05-01T15:58:17.273Z</time></trkpt><trkpt lat="43.7945763" lon="6.9702464"><ele>670.0</ele><time>2026-05-01T15:58:18.273Z</time></trkpt><trkpt lat="43.7946334" lon="6.9701081"><ele>670.0</ele><time>2026-05-01T15:58:19.273Z</time></trkpt><trkpt lat="43.7947013" lon="6.9699906"><ele>670.0</ele><time>2026-05-01T15:58:20.273Z</time></trkpt><trkpt lat="43.7947645" lon="6.9698867"><ele>670.0</ele><time>2026-05-01T15:58:21.273Z</time></trkpt><trkpt lat="43.7948071" lon="6.9697531"><ele>670.0</ele><time>2026-05-01T15:58:22.273Z</time></trkpt><trkpt lat="43.7948219" lon="6.9695996"><ele>670.0</ele><time>2026-05-01T15:58:23.273Z</time></trkpt><trkpt lat="43.7947902" lon="6.9694655"><ele>670.0</ele><time>2026-05-01T15:58:24.273Z</time></trkpt><trkpt lat="43.7947314" lon="6.969367"><ele>670.0</ele><time>2026-05-01T15:58:25.273Z</time></trkpt><trkpt lat="43.794651" lon="6.969279"><ele>670.0</ele><time>2026-05-01T15:58:26.273Z</time></trkpt><trkpt lat="43.7945333" lon="6.9692316"><ele>670.0</ele><time>2026-05-01T15:58:27.274Z</time></trkpt><trkpt lat="43.7944071" lon="6.9691811"><ele>670.0</ele><time>2026-05-01T15:58:28.273Z</time></trkpt><trkpt lat="43.7943076" lon="6.9691261"><ele>668.8333333333334</ele><time>2026-05-01T15:58:29.273Z</time></trkpt><trkpt lat="43.794232" lon="6.9690496"><ele>667.6666666666667</ele><time>2026-05-01T15:58:30.273Z</time></trkpt><trkpt lat="43.794179" lon="6.9689406"><ele>666.5</ele><time>2026-05-01T15:58:31.273Z</time></trkpt><trkpt lat="43.7941454" lon="6.9688146"><ele>665.3333333333334</ele><time>2026-05-01T15:58:32.274Z</time></trkpt><trkpt lat="43.7941386" lon="6.9686966"><ele>664.1666666666666</ele><time>2026-05-01T15:58:33.273Z</time></trkpt><trkpt lat="43.7941575" lon="6.9686069"><ele>663.0</ele><time>2026-05-01T15:58:34.273Z</time></trkpt><trkpt lat="43.7942424" lon="6.9684618"><ele>664.8</ele><time>2026-05-01T15:58:36.273Z</time></trkpt><trkpt lat="43.7942686" lon="6.9683525"><ele>666.5999999999999</ele><time>2026-05-01T15:58:37.273Z</time></trkpt><trkpt lat="43.7942743" lon="6.9682135"><ele>668.4000000000001</ele><time>2026-05-01T15:58:38.273Z</time></trkpt><trkpt lat="43.7942721" lon="6.9680529"><ele>670.2</ele><time>2026-05-01T15:58:39.273Z</time></trkpt><trkpt lat="43.7942547" lon="6.9678853"><ele>672.0</ele><time>2026-05-01T15:58:40.273Z</time></trkpt><trkpt lat="43.7942288" lon="6.9677185"><ele>672.0</ele><time>2026-05-01T15:58:41.273Z</time></trkpt><trkpt lat="43.7942088" lon="6.9675464"><ele>672.0</ele><time>2026-05-01T15:58:42.273Z</time></trkpt><trkpt lat="43.794193" lon="6.9673818"><ele>672.0</ele><time>2026-05-01T15:58:43.273Z</time></trkpt><trkpt lat="43.7941796" lon="6.9672126"><ele>672.0</ele><time>2026-05-01T15:58:44.273Z</time></trkpt><trkpt lat="43.7941664" lon="6.9670346"><ele>673.0</ele><time>2026-05-01T15:58:45.273Z</time></trkpt><trkpt lat="43.794149" lon="6.9668583"><ele>674.0</ele><time>2026-05-01T15:58:46.273Z</time></trkpt><trkpt lat="43.794154" lon="6.9666453"><ele>675.0</ele><time>2026-05-01T15:58:47.273Z</time></trkpt><trkpt lat="43.7941668" lon="6.966435"><ele>676.0</ele><time>2026-05-01T15:58:48.273Z</time></trkpt><trkpt lat="43.7941905" lon="6.9662458"><ele>678.0</ele><time>2026-05-01T15:58:49.273Z</time></trkpt><trkpt lat="43.7942196" lon="6.9660476"><ele>680.0</ele><time>2026-05-01T15:58:50.273Z</time></trkpt><trkpt lat="43.7942586" lon="6.9658449"><ele>682.0</ele><time>2026-05-01T15:58:51.273Z</time></trkpt><trkpt lat="43.7943128" lon="6.9656426"><ele>695.3333333333334</ele><time>2026-05-01T15:58:52.273Z</time></trkpt><trkpt lat="43.7943736" lon="6.9654429"><ele>708.6666666666666</ele><time>2026-05-01T15:58:53.273Z</time></trkpt><trkpt lat="43.7944383" lon="6.9652528"><ele>722.0</ele><time>2026-05-01T15:58:54.273Z</time></trkpt><trkpt lat="43.794493" lon="6.9650628"><ele>721.3333333333333</ele><time>2026-05-01T15:58:55.273Z</time></trkpt><trkpt lat="43.7945428" lon="6.964716"><ele>720.6666666666666</ele><time>2026-05-01T15:58:57.273Z</time></trkpt><trkpt lat="43.7945035" lon="6.9645395"><ele>720.0</ele><time>2026-05-01T15:58:58.273Z</time></trkpt><trkpt lat="43.7944316" lon="6.9643777"><ele>720.0</ele><time>2026-05-01T15:58:59.273Z</time></trkpt><trkpt lat="43.7943628" lon="6.9642326"><ele>720.0</ele><time>2026-05-01T15:59:00.273Z</time></trkpt><trkpt lat="43.7943272" lon="6.964062"><ele>720.0</ele><time>2026-05-01T15:59:01.273Z</time></trkpt><trkpt lat="43.7943268" lon="6.9638723"><ele>720.0</ele><time>2026-05-01T15:59:02.274Z</time></trkpt><trkpt lat="43.7943567" lon="6.963673"><ele>721.0</ele><time>2026-05-01T15:59:03.273Z</time></trkpt><trkpt lat="43.7944215" lon="6.9634721"><ele>722.0</ele><time>2026-05-01T15:59:04.273Z</time></trkpt><trkpt lat="43.7945096" lon="6.9632798"><ele>723.0</ele><time>2026-05-01T15:59:05.273Z</time></trkpt><trkpt lat="43.7945961" lon="6.9631016"><ele>723.0</ele><time>2026-05-01T15:59:06.273Z</time></trkpt><trkpt lat="43.7946754" lon="6.9629163"><ele>723.0</ele><time>2026-05-01T15:59:07.274Z</time></trkpt><trkpt lat="43.7947371" lon="6.9627264"><ele>723.0</ele><time>2026-05-01T15:59:08.273Z</time></trkpt><trkpt lat="43.7947772" lon="6.9625163"><ele>722.3333333333334</ele><time>2026-05-01T15:59:09.273Z</time></trkpt><trkpt lat="43.7948065" lon="6.9623073"><ele>721.6666666666667</ele><time>2026-05-01T15:59:10.273Z</time></trkpt><trkpt lat="43.7948297" lon="6.9620885"><ele>721.0</ele><time>2026-05-01T15:59:11.273Z</time></trkpt><trkpt lat="43.7948468" lon="6.9618824"><ele>721.0</ele><time>2026-05-01T15:59:12.273Z</time></trkpt><trkpt lat="43.7948682" lon="6.9616694"><ele>721.0</ele><time>2026-05-01T15:59:13.273Z</time></trkpt><trkpt lat="43.7948681" lon="6.9614528"><ele>721.0</ele><time>2026-05-01T15:59:14.274Z</time></trkpt><trkpt lat="43.7948254" lon="6.9612441"><ele>721.0</ele><time>2026-05-01T15:59:15.273Z</time></trkpt><trkpt lat="43.7947769" lon="6.9610664"><ele>721.0</ele><time>2026-05-01T15:59:16.273Z</time></trkpt><trkpt lat="43.7947508" lon="6.9607634"><ele>721.0</ele><time>2026-05-01T15:59:18.273Z</time></trkpt><trkpt lat="43.7948172" lon="6.9606237"><ele>721.25</ele><time>2026-05-01T15:59:19.274Z</time></trkpt><trkpt lat="43.7949169" lon="6.9605025"><ele>721.5</ele><time>2026-05-01T15:59:20.273Z</time></trkpt><trkpt lat="43.7950338" lon="6.9603757"><ele>721.75</ele><time>2026-05-01T15:59:21.273Z</time></trkpt><trkpt lat="43.7951452" lon="6.9602333"><ele>722.0</ele><time>2026-05-01T15:59:22.273Z</time></trkpt><trkpt lat="43.7952417" lon="6.9600751"><ele>730.5</ele><time>2026-05-01T15:59:23.273Z</time></trkpt><trkpt lat="43.79531" lon="6.9599001"><ele>739.0</ele><time>2026-05-01T15:59:24.273Z</time></trkpt><trkpt lat="43.7953479" lon="6.9596929"><ele>747.5</ele><time>2026-05-01T15:59:25.273Z</time></trkpt><trkpt lat="43.7953711" lon="6.959487"><ele>756.0</ele><time>2026-05-01T15:59:26.273Z</time></trkpt><trkpt lat="43.7954177" lon="6.9593004"><ele>752.0</ele><time>2026-05-01T15:59:27.273Z</time></trkpt><trkpt lat="43.7955014" lon="6.959133"><ele>748.0</ele><time>2026-05-01T15:59:28.273Z</time></trkpt><trkpt lat="43.7956111" lon="6.9589933"><ele>744.0</ele><time>2026-05-01T15:59:29.273Z</time></trkpt><trkpt lat="43.7957343" lon="6.9588471"><ele>744.0</ele><time>2026-05-01T15:59:30.273Z</time></trkpt><trkpt lat="43.7958626" lon="6.9587188"><ele>744.0</ele><time>2026-05-01T15:59:31.273Z</time></trkpt><trkpt lat="43.7959819" lon="6.958584"><ele>744.0</ele><time>2026-05-01T15:59:32.273Z</time></trkpt><trkpt lat="43.7960964" lon="6.958473"><ele>753.25</ele><time>2026-05-01T15:59:33.273Z</time></trkpt><trkpt lat="43.7961833" lon="6.9583342"><ele>762.5</ele><time>2026-05-01T15:59:34.273Z</time></trkpt><trkpt lat="43.7962472" lon="6.9581676"><ele>771.75</ele><time>2026-05-01T15:59:35.273Z</time></trkpt><trkpt lat="43.7962873" lon="6.9579873"><ele>781.0</ele><time>2026-05-01T15:59:36.273Z</time></trkpt><trkpt lat="43.7963158" lon="6.9577941"><ele>776.6666666666666</ele><time>2026-05-01T15:59:37.273Z</time></trkpt><trkpt lat="43.7963857" lon="6.9574097"><ele>772.3333333333333</ele><time>2026-05-01T15:59:39.273Z</time></trkpt><trkpt lat="43.7964285" lon="6.9572005"><ele>768.0</ele><time>2026-05-01T15:59:40.273Z</time></trkpt><trkpt lat="43.7964877" lon="6.9569972"><ele>768.0</ele><time>2026-05-01T15:59:41.273Z</time></trkpt><trkpt lat="43.7965505" lon="6.9568019"><ele>768.0</ele><time>2026-05-01T15:59:42.273Z</time></trkpt><trkpt lat="43.7966098" lon="6.9566032"><ele>768.0</ele><time>2026-05-01T15:59:43.273Z</time></trkpt><trkpt lat="43.7966591" lon="6.9564126"><ele>764.0</ele><time>2026-05-01T15:59:44.273Z</time></trkpt><trkpt lat="43.7966905" lon="6.9562032"><ele>760.0</ele><time>2026-05-01T15:59:45.273Z</time></trkpt><trkpt lat="43.7967132" lon="6.9559611"><ele>756.0</ele><time>2026-05-01T15:59:46.274Z</time></trkpt><trkpt lat="43.7967184" lon="6.9557269"><ele>755.3333333333334</ele><time>2026-05-01T15:59:47.273Z</time></trkpt><trkpt lat="43.7967081" lon="6.955484"><ele>754.6666666666667</ele><time>2026-05-01T15:59:48.273Z</time></trkpt><trkpt lat="43.7966652" lon="6.9552415"><ele>754.0</ele><time>2026-05-01T15:59:49.273Z</time></trkpt><trkpt lat="43.7966045" lon="6.9550094"><ele>757.0</ele><time>2026-05-01T15:59:50.274Z</time></trkpt><trkpt lat="43.7965325" lon="6.9547874"><ele>760.0</ele><time>2026-05-01T15:59:51.273Z</time></trkpt><trkpt lat="43.7964726" lon="6.9545695"><ele>763.0</ele><time>2026-05-01T15:59:52.273Z</time></trkpt><trkpt lat="43.7963975" lon="6.9543469"><ele>769.3333333333334</ele><time>2026-05-01T15:59:53.273Z</time></trkpt><trkpt lat="43.796298" lon="6.9541512"><ele>775.6666666666667</ele><time>2026-05-01T15:59:54.274Z</time></trkpt><trkpt lat="43.7962043" lon="6.9539596"><ele>782.0</ele><time>2026-05-01T15:59:55.273Z</time></trkpt><trkpt lat="43.7961214" lon="6.953769"><ele>782.0</ele><time>2026-05-01T15:59:56.273Z</time></trkpt><trkpt lat="43.7960637" lon="6.9535523"><ele>782.0</ele><time>2026-05-01T15:59:57.273Z</time></trkpt><trkpt lat="43.7960168" lon="6.9533422"><ele>782.0</ele><time>2026-05-01T15:59:58.273Z</time></trkpt><trkpt lat="43.7959423" lon="6.9529463"><ele>779.0</ele><time>2026-05-01T16:00:00.273Z</time></trkpt><trkpt lat="43.7958922" lon="6.9527835"><ele>776.0</ele><time>2026-05-01T16:00:01.273Z</time></trkpt><trkpt lat="43.7958237" lon="6.9526682"><ele>773.0</ele><time>2026-05-01T16:00:02.273Z</time></trkpt><trkpt lat="43.79576" lon="6.9525741"><ele>770.0</ele><time>2026-05-01T16:00:03.273Z</time></trkpt><trkpt lat="43.7957079" lon="6.9524887"><ele>767.0</ele><time>2026-05-01T16:00:04.273Z</time></trkpt><trkpt lat="43.795675" lon="6.9524021"><ele>767.0</ele><time>2026-05-01T16:00:05.273Z</time></trkpt><trkpt lat="43.7956929" lon="6.9522682"><ele>767.0</ele><time>2026-05-01T16:00:07.274Z</time></trkpt><trkpt lat="43.7957851" lon="6.9522828"><ele>767.0</ele><time>2026-05-01T16:00:09.273Z</time></trkpt><trkpt lat="43.7958462" lon="6.952382"><ele>767.0</ele><time>2026-05-01T16:00:10.273Z</time></trkpt><trkpt lat="43.7959168" lon="6.9525352"><ele>767.0</ele><time>2026-05-01T16:00:11.273Z</time></trkpt><trkpt lat="43.795989" lon="6.9527118"><ele>778.3333333333333</ele><time>2026-05-01T16:00:12.273Z</time></trkpt><trkpt lat="43.7960699" lon="6.9528819"><ele>789.6666666666666</ele><time>2026-05-01T16:00:13.273Z</time></trkpt><trkpt lat="43.7961541" lon="6.9530604"><ele>801.0</ele><time>2026-05-01T16:00:14.273Z</time></trkpt><trkpt lat="43.7962326" lon="6.9532447"><ele>794.6666666666667</ele><time>2026-05-01T16:00:15.273Z</time></trkpt><trkpt lat="43.7963114" lon="6.9534304"><ele>788.3333333333334</ele><time>2026-05-01T16:00:16.273Z</time></trkpt><trkpt lat="43.796398" lon="6.9536309"><ele>782.0</ele><time>2026-05-01T16:00:17.274Z</time></trkpt><trkpt lat="43.7964867" lon="6.9538471"><ele>782.0</ele><time>2026-05-01T16:00:18.273Z</time></trkpt><trkpt lat="43.7965812" lon="6.9540392"><ele>782.0</ele><time>2026-05-01T16:00:19.273Z</time></trkpt><trkpt lat="43.7968062" lon="6.954348"><ele>791.0</ele><time>2026-05-01T16:00:21.273Z</time></trkpt><trkpt lat="43.796901" lon="6.9545097"><ele>800.0</ele><time>2026-05-01T16:00:22.274Z</time></trkpt><trkpt lat="43.7969623" lon="6.954657"><ele>809.0</ele><time>2026-05-01T16:00:23.273Z</time></trkpt><trkpt lat="43.7970025" lon="6.9547762"><ele>818.0</ele><time>2026-05-01T16:00:24.273Z</time></trkpt><trkpt lat="43.7970359" lon="6.9548617"><ele>827.0</ele><time>2026-05-01T16:00:25.274Z</time></trkpt><trkpt lat="43.7971162" lon="6.9549452"><ele>827.0</ele><time>2026-05-01T16:00:27.273Z</time></trkpt><trkpt lat="43.7971431" lon="6.9548537"><ele>827.0</ele><time>2026-05-01T16:00:29.273Z</time></trkpt><trkpt lat="43.7971136" lon="6.954737"><ele>827.0</ele><time>2026-05-01T16:00:30.273Z</time></trkpt><trkpt lat="43.7970449" lon="6.9545655"><ele>827.0</ele><time>2026-05-01T16:00:31.273Z</time></trkpt><trkpt lat="43.7969454" lon="6.9543786"><ele>833.3333333333334</ele><time>2026-05-01T16:00:32.273Z</time></trkpt><trkpt lat="43.7968421" lon="6.9541695"><ele>839.6666666666667</ele><time>2026-05-01T16:00:33.273Z</time></trkpt><trkpt lat="43.7967565" lon="6.9539634"><ele>846.0</ele><time>2026-05-01T16:00:34.273Z</time></trkpt><trkpt lat="43.796691" lon="6.9537674"><ele>831.0</ele><time>2026-05-01T16:00:35.273Z</time></trkpt><trkpt lat="43.796646" lon="6.9535431"><ele>816.0</ele><time>2026-05-01T16:00:36.274Z</time></trkpt><trkpt lat="43.7966199" lon="6.9533103"><ele>801.0</ele><time>2026-05-01T16:00:37.273Z</time></trkpt><trkpt lat="43.796579" lon="6.9530917"><ele>801.0</ele><time>2026-05-01T16:00:38.273Z</time></trkpt><trkpt lat="43.7965218" lon="6.9528712"><ele>801.0</ele><time>2026-05-01T16:00:39.273Z</time></trkpt><trkpt lat="43.7964693" lon="6.9526667"><ele>801.0</ele><time>2026-05-01T16:00:40.273Z</time></trkpt><trkpt lat="43.7964783" lon="6.9523128"><ele>800.75</ele><time>2026-05-01T16:00:42.273Z</time></trkpt><trkpt lat="43.79654" lon="6.9521391"><ele>800.5</ele><time>2026-05-01T16:00:43.273Z</time></trkpt><trkpt lat="43.7966091" lon="6.9519625"><ele>800.25</ele><time>2026-05-01T16:00:44.274Z</time></trkpt><trkpt lat="43.7966574" lon="6.9517874"><ele>800.0</ele><time>2026-05-01T16:00:45.273Z</time></trkpt><trkpt lat="43.7966821" lon="6.9516043"><ele>800.0</ele><time>2026-05-01T16:00:46.273Z</time></trkpt><trkpt lat="43.796689" lon="6.9514118"><ele>800.0</ele><time>2026-05-01T16:00:47.273Z</time></trkpt><trkpt lat="43.7966814" lon="6.9512212"><ele>800.0</ele><time>2026-05-01T16:00:48.273Z</time></trkpt><trkpt lat="43.7966711" lon="6.9510344"><ele>800.0</ele><time>2026-05-01T16:00:49.274Z</time></trkpt><trkpt lat="43.7966656" lon="6.9508489"><ele>800.0</ele><time>2026-05-01T16:00:50.273Z</time></trkpt><trkpt lat="43.7966598" lon="6.9506716"><ele>800.0</ele><time>2026-05-01T16:00:51.273Z</time></trkpt><trkpt lat="43.7966677" lon="6.9505068"><ele>800.0</ele><time>2026-05-01T16:00:52.273Z</time></trkpt><trkpt lat="43.7966844" lon="6.9503433"><ele>800.0</ele><time>2026-05-01T16:00:53.273Z</time></trkpt><trkpt lat="43.7967071" lon="6.95018"><ele>801.25</ele><time>2026-05-01T16:00:54.273Z</time></trkpt><trkpt lat="43.7967417" lon="6.9500201"><ele>802.5</ele><time>2026-05-01T16:00:55.273Z</time></trkpt><trkpt lat="43.7967919" lon="6.9498468"><ele>803.75</ele><time>2026-05-01T16:00:56.273Z</time></trkpt><trkpt lat="43.7968394" lon="6.9496612"><ele>805.0</ele><time>2026-05-01T16:00:57.273Z</time></trkpt><trkpt lat="43.7968796" lon="6.9494725"><ele>811.25</ele><time>2026-05-01T16:00:58.273Z</time></trkpt><trkpt lat="43.7969003" lon="6.9492836"><ele>817.5</ele><time>2026-05-01T16:00:59.273Z</time></trkpt><trkpt lat="43.7969072" lon="6.9490845"><ele>823.75</ele><time>2026-05-01T16:01:00.273Z</time></trkpt><trkpt lat="43.7968991" lon="6.9488856"><ele>830.0</ele><time>2026-05-01T16:01:01.273Z</time></trkpt><trkpt lat="43.7968645" lon="6.9484871"><ele>833.25</ele><time>2026-05-01T16:01:03.274Z</time></trkpt><trkpt lat="43.7968431" lon="6.9482876"><ele>836.5</ele><time>2026-05-01T16:01:04.273Z</time></trkpt><trkpt lat="43.7968229" lon="6.9481048"><ele>839.75</ele><time>2026-05-01T16:01:05.273Z</time></trkpt><trkpt lat="43.7968063" lon="6.9479256"><ele>843.0</ele><time>2026-05-01T16:01:06.273Z</time></trkpt><trkpt lat="43.7967805" lon="6.9477563"><ele>838.0</ele><time>2026-05-01T16:01:07.273Z</time></trkpt><trkpt lat="43.7967596" lon="6.9475964"><ele>833.0</ele><time>2026-05-01T16:01:08.273Z</time></trkpt><trkpt lat="43.7967413" lon="6.9474267"><ele>828.0</ele><time>2026-05-01T16:01:09.273Z</time></trkpt><trkpt lat="43.7967128" lon="6.9472488"><ele>823.0</ele><time>2026-05-01T16:01:10.273Z</time></trkpt><trkpt lat="43.7966855" lon="6.9470635"><ele>823.0</ele><time>2026-05-01T16:01:11.273Z</time></trkpt><trkpt lat="43.7966456" lon="6.9468783"><ele>823.0</ele><time>2026-05-01T16:01:12.273Z</time></trkpt><trkpt lat="43.7965899" lon="6.9467141"><ele>823.0</ele><time>2026-05-01T16:01:13.273Z</time></trkpt><trkpt lat="43.7965249" lon="6.9465521"><ele>823.0</ele><time>2026-05-01T16:01:14.273Z</time></trkpt><trkpt lat="43.7964534" lon="6.9464042"><ele>826.25</ele><time>2026-05-01T16:01:15.273Z</time></trkpt><trkpt lat="43.7963951" lon="6.9462641"><ele>829.5</ele><time>2026-05-01T16:01:16.274Z</time></trkpt><trkpt lat="43.7963353" lon="6.9461263"><ele>832.75</ele><time>2026-05-01T16:01:17.273Z</time></trkpt><trkpt lat="43.7962785" lon="6.9459868"><ele>836.0</ele><time>2026-05-01T16:01:18.274Z</time></trkpt><trkpt lat="43.7962264" lon="6.945849"><ele>838.1999999999999</ele><time>2026-05-01T16:01:19.273Z</time></trkpt><trkpt lat="43.7961854" lon="6.9457318"><ele>840.4</ele><time>2026-05-01T16:01:20.273Z</time></trkpt><trkpt lat="43.7961498" lon="6.9456168"><ele>842.6</ele><time>2026-05-01T16:01:21.274Z</time></trkpt><trkpt lat="43.796119" lon="6.9455063"><ele>844.8</ele><time>2026-05-01T16:01:22.273Z</time></trkpt><trkpt lat="43.796085" lon="6.9452873"><ele>847.0</ele><time>2026-05-01T16:01:24.273Z</time></trkpt><trkpt lat="43.796075" lon="6.9451706"><ele>849.2</ele><time>2026-05-01T16:01:25.273Z</time></trkpt><trkpt lat="43.7960626" lon="6.9450418"><ele>851.4000000000001</ele><time>2026-05-01T16:01:26.273Z</time></trkpt><trkpt lat="43.7960633" lon="6.9448994"><ele>853.5999999999999</ele><time>2026-05-01T16:01:27.273Z</time></trkpt><trkpt lat="43.7960698" lon="6.9447522"><ele>855.8</ele><time>2026-05-01T16:01:28.273Z</time></trkpt><trkpt lat="43.7960792" lon="6.9446104"><ele>858.0</ele><time>2026-05-01T16:01:29.273Z</time></trkpt><trkpt lat="43.7960931" lon="6.9444637"><ele>858.0</ele><time>2026-05-01T16:01:30.274Z</time></trkpt><trkpt lat="43.7961094" lon="6.9443164"><ele>858.0</ele><time>2026-05-01T16:01:31.273Z</time></trkpt><trkpt lat="43.7961283" lon="6.9441724"><ele>858.0</ele><time>2026-05-01T16:01:32.274Z</time></trkpt><trkpt lat="43.7961513" lon="6.9440236"><ele>858.0</ele><time>2026-05-01T16:01:33.273Z</time></trkpt><trkpt lat="43.796182" lon="6.9438814"><ele>858.0</ele><time>2026-05-01T16:01:34.273Z</time></trkpt><trkpt lat="43.7962156" lon="6.9437456"><ele>858.0</ele><time>2026-05-01T16:01:35.273Z</time></trkpt><trkpt lat="43.7962468" lon="6.9436103"><ele>858.0</ele><time>2026-05-01T16:01:36.273Z</time></trkpt><trkpt lat="43.7962724" lon="6.943464"><ele>858.0</ele><time>2026-05-01T16:01:37.273Z</time></trkpt><trkpt lat="43.7963195" lon="6.9433174"><ele>858.0</ele><time>2026-05-01T16:01:38.273Z</time></trkpt><trkpt lat="43.7963664" lon="6.9431822"><ele>858.0</ele><time>2026-05-01T16:01:39.273Z</time></trkpt><trkpt lat="43.7964127" lon="6.9430495"><ele>857.25</ele><time>2026-05-01T16:01:40.273Z</time></trkpt><trkpt lat="43.7964687" lon="6.9429167"><ele>856.5</ele><time>2026-05-01T16:01:41.274Z</time></trkpt><trkpt lat="43.7965187" lon="6.9427889"><ele>855.75</ele><time>2026-05-01T16:01:42.273Z</time></trkpt><trkpt lat="43.7965505" lon="6.9426526"><ele>855.0</ele><time>2026-05-01T16:01:43.273Z</time></trkpt><trkpt lat="43.7965965" lon="6.9423819"><ele>854.1666666666666</ele><time>2026-05-01T16:01:45.273Z</time></trkpt><trkpt lat="43.796617" lon="6.9422459"><ele>853.3333333333333</ele><time>2026-05-01T16:01:46.273Z</time></trkpt><trkpt lat="43.796647" lon="6.9421197"><ele>852.5</ele><time>2026-05-01T16:01:47.274Z</time></trkpt><trkpt lat="43.7966758" lon="6.942019"><ele>851.6666666666666</ele><time>2026-05-01T16:01:48.273Z</time></trkpt><trkpt lat="43.7967015" lon="6.9419348"><ele>850.8333333333333</ele><time>2026-05-01T16:01:49.273Z</time></trkpt><trkpt lat="43.7967304" lon="6.9418376"><ele>850.0</ele><time>2026-05-01T16:01:50.273Z</time></trkpt><trkpt lat="43.7967715" lon="6.9417278"><ele>848.2</ele><time>2026-05-01T16:01:51.274Z</time></trkpt><trkpt lat="43.7968273" lon="6.9416046"><ele>846.4</ele><time>2026-05-01T16:01:52.274Z</time></trkpt><trkpt lat="43.7968923" lon="6.9414789"><ele>844.5999999999999</ele><time>2026-05-01T16:01:53.273Z</time></trkpt><trkpt lat="43.7969548" lon="6.9413469"><ele>842.8</ele><time>2026-05-01T16:01:54.273Z</time></trkpt><trkpt lat="43.7970059" lon="6.9412033"><ele>841.0</ele><time>2026-05-01T16:01:55.273Z</time></trkpt><trkpt lat="43.7970433" lon="6.9410448"><ele>846.5999999999999</ele><time>2026-05-01T16:01:56.273Z</time></trkpt><trkpt lat="43.7970815" lon="6.940881"><ele>852.2</ele><time>2026-05-01T16:01:57.273Z</time></trkpt><trkpt lat="43.7971153" lon="6.9407342"><ele>857.8000000000001</ele><time>2026-05-01T16:01:58.273Z</time></trkpt><trkpt lat="43.7971477" lon="6.9405935"><ele>863.4000000000001</ele><time>2026-05-01T16:01:59.273Z</time></trkpt><trkpt lat="43.7971687" lon="6.9404482"><ele>869.0</ele><time>2026-05-01T16:02:00.273Z</time></trkpt><trkpt lat="43.7971746" lon="6.9402874"><ele>869.0</ele><time>2026-05-01T16:02:01.273Z</time></trkpt><trkpt lat="43.7971713" lon="6.9401273"><ele>869.0</ele><time>2026-05-01T16:02:02.273Z</time></trkpt><trkpt lat="43.7971609" lon="6.9399709"><ele>869.0</ele><time>2026-05-01T16:02:03.273Z</time></trkpt><trkpt lat="43.7971491" lon="6.939818"><ele>869.0</ele><time>2026-05-01T16:02:04.274Z</time></trkpt><trkpt lat="43.7971201" lon="6.9395035"><ele>867.5</ele><time>2026-05-01T16:02:06.273Z</time></trkpt><trkpt lat="43.7970959" lon="6.9393358"><ele>866.0</ele><time>2026-05-01T16:02:07.273Z</time></trkpt><trkpt lat="43.7970737" lon="6.9391727"><ele>864.5</ele><time>2026-05-01T16:02:08.273Z</time></trkpt><trkpt lat="43.7970625" lon="6.9390184"><ele>863.0</ele><time>2026-05-01T16:02:09.274Z</time></trkpt><trkpt lat="43.7970759" lon="6.9388695"><ele>863.0</ele><time>2026-05-01T16:02:10.273Z</time></trkpt><trkpt lat="43.7971264" lon="6.9387381"><ele>863.0</ele><time>2026-05-01T16:02:11.273Z</time></trkpt><trkpt lat="43.7972078" lon="6.9386241"><ele>863.0</ele><time>2026-05-01T16:02:12.273Z</time></trkpt><trkpt lat="43.7973079" lon="6.9385414"><ele>863.0</ele><time>2026-05-01T16:02:13.273Z</time></trkpt><trkpt lat="43.7974102" lon="6.938498"><ele>863.0</ele><time>2026-05-01T16:02:14.273Z</time></trkpt><trkpt lat="43.7975179" lon="6.9384845"><ele>863.0</ele><time>2026-05-01T16:02:15.273Z</time></trkpt><trkpt lat="43.7976178" lon="6.9385167"><ele>863.0</ele><time>2026-05-01T16:02:16.273Z</time></trkpt><trkpt lat="43.7977046" lon="6.9386056"><ele>863.0</ele><time>2026-05-01T16:02:17.273Z</time></trkpt><trkpt lat="43.7977623" lon="6.9387128"><ele>863.0</ele><time>2026-05-01T16:02:18.274Z</time></trkpt><trkpt lat="43.7977919" lon="6.9388593"><ele>863.0</ele><time>2026-05-01T16:02:19.273Z</time></trkpt><trkpt lat="43.7978083" lon="6.939035"><ele>868.5</ele><time>2026-05-01T16:02:20.273Z</time></trkpt><trkpt lat="43.7978145" lon="6.939212"><ele>874.0</ele><time>2026-05-01T16:02:21.273Z</time></trkpt><trkpt lat="43.7978242" lon="6.9393774"><ele>879.5</ele><time>2026-05-01T16:02:22.273Z</time></trkpt><trkpt lat="43.7978286" lon="6.9395447"><ele>885.0</ele><time>2026-05-01T16:02:23.273Z</time></trkpt><trkpt lat="43.7978235" lon="6.9396944"><ele>886.6666666666667</ele><time>2026-05-01T16:02:24.273Z</time></trkpt><trkpt lat="43.797802" lon="6.9398481"><ele>888.3333333333334</ele><time>2026-05-01T16:02:25.273Z</time></trkpt><trkpt lat="43.7976889" lon="6.940138"><ele>890.0</ele><time>2026-05-01T16:02:27.273Z</time></trkpt><trkpt lat="43.7976325" lon="6.9402829"><ele>886.25</ele><time>2026-05-01T16:02:28.273Z</time></trkpt><trkpt lat="43.7975837" lon="6.9404214"><ele>882.5</ele><time>2026-05-01T16:02:29.273Z</time></trkpt><trkpt lat="43.7975518" lon="6.9405761"><ele>878.75</ele><time>2026-05-01T16:02:30.273Z</time></trkpt><trkpt lat="43.7975392" lon="6.9407559"><ele>875.0</ele><time>2026-05-01T16:02:31.273Z</time></trkpt><trkpt lat="43.7975367" lon="6.9409519"><ele>875.0</ele><time>2026-05-01T16:02:32.273Z</time></trkpt><trkpt lat="43.7975363" lon="6.9411515"><ele>875.0</ele><time>2026-05-01T16:02:33.273Z</time></trkpt><trkpt lat="43.7975153" lon="6.9413393"><ele>875.0</ele><time>2026-05-01T16:02:34.273Z</time></trkpt><trkpt lat="43.7974771" lon="6.9415168"><ele>875.0</ele><time>2026-05-01T16:02:35.273Z</time></trkpt><trkpt lat="43.7974383" lon="6.9417034"><ele>876.5</ele><time>2026-05-01T16:02:36.273Z</time></trkpt><trkpt lat="43.7974089" lon="6.9418898"><ele>878.0</ele><time>2026-05-01T16:02:37.273Z</time></trkpt><trkpt lat="43.7973918" lon="6.9420704"><ele>879.5</ele><time>2026-05-01T16:02:38.273Z</time></trkpt><trkpt lat="43.7973727" lon="6.942243"><ele>881.0</ele><time>2026-05-01T16:02:39.273Z</time></trkpt><trkpt lat="43.7973565" lon="6.9424126"><ele>881.75</ele><time>2026-05-01T16:02:40.273Z</time></trkpt><trkpt lat="43.7973535" lon="6.9425971"><ele>882.5</ele><time>2026-05-01T16:02:41.273Z</time></trkpt><trkpt lat="43.7973703" lon="6.9427964"><ele>883.25</ele><time>2026-05-01T16:02:42.273Z</time></trkpt><trkpt lat="43.7974037" lon="6.9429838"><ele>884.0</ele><time>2026-05-01T16:02:43.274Z</time></trkpt><trkpt lat="43.7974326" lon="6.9431615"><ele>884.0</ele><time>2026-05-01T16:02:44.273Z</time></trkpt><trkpt lat="43.7974594" lon="6.9433431"><ele>884.0</ele><time>2026-05-01T16:02:45.273Z</time></trkpt><trkpt lat="43.7974689" lon="6.9435129"><ele>884.0</ele><time>2026-05-01T16:02:46.273Z</time></trkpt><trkpt lat="43.7974408" lon="6.943792"><ele>884.2</ele><time>2026-05-01T16:02:48.273Z</time></trkpt><trkpt lat="43.797432" lon="6.9439044"><ele>884.4000000000001</ele><time>2026-05-01T16:02:49.273Z</time></trkpt><trkpt lat="43.7974324" lon="6.9440119"><ele>884.6</ele><time>2026-05-01T16:02:50.273Z</time></trkpt><trkpt lat="43.7974563" lon="6.9441028"><ele>884.8</ele><time>2026-05-01T16:02:51.273Z</time></trkpt><trkpt lat="43.7975497" lon="6.9441338"><ele>885.0</ele><time>2026-05-01T16:02:53.273Z</time></trkpt><trkpt lat="43.7976194" lon="6.9439614"><ele>885.0</ele><time>2026-05-01T16:02:55.273Z</time></trkpt><trkpt lat="43.7976171" lon="6.9437923"><ele>885.0</ele><time>2026-05-01T16:02:56.273Z</time></trkpt><trkpt lat="43.7976016" lon="6.9435576"><ele>885.0</ele><time>2026-05-01T16:02:57.273Z</time></trkpt><trkpt lat="43.797604" lon="6.9433186"><ele>884.75</ele><time>2026-05-01T16:02:58.274Z</time></trkpt><trkpt lat="43.7976154" lon="6.9431022"><ele>884.5</ele><time>2026-05-01T16:02:59.273Z</time></trkpt><trkpt lat="43.7976256" lon="6.9429171"><ele>884.25</ele><time>2026-05-01T16:03:00.273Z</time></trkpt><trkpt lat="43.7976303" lon="6.9427248"><ele>884.0</ele><time>2026-05-01T16:03:01.273Z</time></trkpt><trkpt lat="43.7976328" lon="6.9425381"><ele>883.25</ele><time>2026-05-01T16:03:02.273Z</time></trkpt><trkpt lat="43.7976537" lon="6.9423617"><ele>882.5</ele><time>2026-05-01T16:03:03.273Z</time></trkpt><trkpt lat="43.7977087" lon="6.9422152"><ele>881.75</ele><time>2026-05-01T16:03:04.273Z</time></trkpt><trkpt lat="43.7977959" lon="6.9421077"><ele>881.0</ele><time>2026-05-01T16:03:05.274Z</time></trkpt><trkpt lat="43.7979052" lon="6.942028"><ele>889.0</ele><time>2026-05-01T16:03:06.273Z</time></trkpt><trkpt lat="43.7980217" lon="6.9419319"><ele>897.0</ele><time>2026-05-01T16:03:07.273Z</time></trkpt><trkpt lat="43.7981751" lon="6.9415905"><ele>905.0</ele><time>2026-05-01T16:03:09.273Z</time></trkpt><trkpt lat="43.7982245" lon="6.9413931"><ele>905.0</ele><time>2026-05-01T16:03:10.273Z</time></trkpt><trkpt lat="43.7982882" lon="6.9411941"><ele>905.0</ele><time>2026-05-01T16:03:11.273Z</time></trkpt><trkpt lat="43.7983699" lon="6.9410152"><ele>905.0</ele><time>2026-05-01T16:03:12.273Z</time></trkpt><trkpt lat="43.7984684" lon="6.940831"><ele>915.6666666666667</ele><time>2026-05-01T16:03:13.273Z</time></trkpt><trkpt lat="43.7985706" lon="6.9406509"><ele>926.3333333333333</ele><time>2026-05-01T16:03:14.273Z</time></trkpt><trkpt lat="43.7986609" lon="6.940448"><ele>937.0</ele><time>2026-05-01T16:03:15.273Z</time></trkpt><trkpt lat="43.7987415" lon="6.9402337"><ele>934.0</ele><time>2026-05-01T16:03:16.273Z</time></trkpt><trkpt lat="43.7988217" lon="6.9400192"><ele>931.0</ele><time>2026-05-01T16:03:17.273Z</time></trkpt><trkpt lat="43.7988985" lon="6.9398181"><ele>928.0</ele><time>2026-05-01T16:03:18.273Z</time></trkpt><trkpt lat="43.7989677" lon="6.9396122"><ele>928.0</ele><time>2026-05-01T16:03:19.274Z</time></trkpt><trkpt lat="43.7990111" lon="6.9394073"><ele>928.0</ele><time>2026-05-01T16:03:20.273Z</time></trkpt><trkpt lat="43.7990332" lon="6.9392196"><ele>928.0</ele><time>2026-05-01T16:03:21.273Z</time></trkpt><trkpt lat="43.7990117" lon="6.9390146"><ele>928.0</ele><time>2026-05-01T16:03:22.273Z</time></trkpt><trkpt lat="43.7989463" lon="6.9388155"><ele>928.0</ele><time>2026-05-01T16:03:23.273Z</time></trkpt><trkpt lat="43.7988721" lon="6.9386112"><ele>928.0</ele><time>2026-05-01T16:03:24.273Z</time></trkpt><trkpt lat="43.7987939" lon="6.9384008"><ele>928.0</ele><time>2026-05-01T16:03:25.273Z</time></trkpt><trkpt lat="43.7987264" lon="6.9381796"><ele>931.0</ele><time>2026-05-01T16:03:26.273Z</time></trkpt><trkpt lat="43.7986555" lon="6.9379682"><ele>934.0</ele><time>2026-05-01T16:03:27.273Z</time></trkpt><trkpt lat="43.7985926" lon="6.9377503"><ele>937.0</ele><time>2026-05-01T16:03:28.273Z</time></trkpt><trkpt lat="43.7985101" lon="6.937328"><ele>941.6666666666666</ele><time>2026-05-01T16:03:30.273Z</time></trkpt><trkpt lat="43.7985074" lon="6.9371006"><ele>946.3333333333333</ele><time>2026-05-01T16:03:31.273Z</time></trkpt><trkpt lat="43.7984927" lon="6.9368684"><ele>951.0</ele><time>2026-05-01T16:03:32.273Z</time></trkpt><trkpt lat="43.7984636" lon="6.9366356"><ele>939.3333333333333</ele><time>2026-05-01T16:03:33.273Z</time></trkpt><trkpt lat="43.7984268" lon="6.936414"><ele>927.6666666666666</ele><time>2026-05-01T16:03:34.273Z</time></trkpt><trkpt lat="43.7983717" lon="6.9362192"><ele>916.0</ele><time>2026-05-01T16:03:35.273Z</time></trkpt><trkpt lat="43.7983249" lon="6.9360181"><ele>919.6666666666666</ele><time>2026-05-01T16:03:36.273Z</time></trkpt><trkpt lat="43.7983033" lon="6.935816"><ele>923.3333333333333</ele><time>2026-05-01T16:03:37.273Z</time></trkpt><trkpt lat="43.7983126" lon="6.935597"><ele>927.0</ele><time>2026-05-01T16:03:38.273Z</time></trkpt><trkpt lat="43.7983322" lon="6.9353648"><ele>927.0</ele><time>2026-05-01T16:03:39.273Z</time></trkpt><trkpt lat="43.7983509" lon="6.9351367"><ele>927.0</ele><time>2026-05-01T16:03:40.273Z</time></trkpt><trkpt lat="43.798365" lon="6.9349131"><ele>927.0</ele><time>2026-05-01T16:03:41.273Z</time></trkpt><trkpt lat="43.7983736" lon="6.9346931"><ele>929.0</ele><time>2026-05-01T16:03:42.273Z</time></trkpt><trkpt lat="43.7983558" lon="6.9344758"><ele>931.0</ele><time>2026-05-01T16:03:43.273Z</time></trkpt><trkpt lat="43.7983071" lon="6.9342693"><ele>933.0</ele><time>2026-05-01T16:03:44.273Z</time></trkpt><trkpt lat="43.7982445" lon="6.9340583"><ele>940.0</ele><time>2026-05-01T16:03:45.273Z</time></trkpt><trkpt lat="43.7981806" lon="6.9338371"><ele>947.0</ele><time>2026-05-01T16:03:46.273Z</time></trkpt><trkpt lat="43.7981162" lon="6.9335999"><ele>954.0</ele><time>2026-05-01T16:03:47.273Z</time></trkpt><trkpt lat="43.7980519" lon="6.9333757"><ele>960.0</ele><time>2026-05-01T16:03:48.273Z</time></trkpt><trkpt lat="43.7980038" lon="6.9331476"><ele>966.0</ele><time>2026-05-01T16:03:49.273Z</time></trkpt><trkpt lat="43.7978944" lon="6.9327108"><ele>971.0</ele><time>2026-05-01T16:03:51.273Z</time></trkpt><trkpt lat="43.7978101" lon="6.9325154"><ele>976.0</ele><time>2026-05-01T16:03:52.273Z</time></trkpt><trkpt lat="43.797713" lon="6.9323357"><ele>981.0</ele><time>2026-05-01T16:03:53.273Z</time></trkpt><trkpt lat="43.7976175" lon="6.9321547"><ele>972.6666666666667</ele><time>2026-05-01T16:03:54.273Z</time></trkpt><trkpt lat="43.7975364" lon="6.9319728"><ele>964.3333333333334</ele><time>2026-05-01T16:03:55.273Z</time></trkpt><trkpt lat="43.797498" lon="6.9317546"><ele>956.0</ele><time>2026-05-01T16:03:56.273Z</time></trkpt><trkpt lat="43.7974929" lon="6.9315229"><ele>956.0</ele><time>2026-05-01T16:03:57.273Z</time></trkpt><trkpt lat="43.7974969" lon="6.9312678"><ele>956.0</ele><time>2026-05-01T16:03:58.274Z</time></trkpt><trkpt lat="43.7974915" lon="6.9310078"><ele>956.0</ele><time>2026-05-01T16:03:59.273Z</time></trkpt><trkpt lat="43.797468" lon="6.9307474"><ele>959.3333333333334</ele><time>2026-05-01T16:04:00.273Z</time></trkpt><trkpt lat="43.7974145" lon="6.9305112"><ele>962.6666666666667</ele><time>2026-05-01T16:04:01.273Z</time></trkpt><trkpt lat="43.797338" lon="6.9302727"><ele>966.0</ele><time>2026-05-01T16:04:02.273Z</time></trkpt><trkpt lat="43.7972471" lon="6.9300579"><ele>970.3333333333333</ele><time>2026-05-01T16:04:03.273Z</time></trkpt><trkpt lat="43.7971556" lon="6.9298309"><ele>974.6666666666666</ele><time>2026-05-01T16:04:04.273Z</time></trkpt><trkpt lat="43.7970837" lon="6.9295968"><ele>979.0</ele><time>2026-05-01T16:04:05.273Z</time></trkpt><trkpt lat="43.7970071" lon="6.9293755"><ele>983.3333333333333</ele><time>2026-05-01T16:04:06.273Z</time></trkpt><trkpt lat="43.7969182" lon="6.9291944"><ele>987.6666666666667</ele><time>2026-05-01T16:04:07.273Z</time></trkpt><trkpt lat="43.7968257" lon="6.929022"><ele>992.0</ele><time>2026-05-01T16:04:08.273Z</time></trkpt><trkpt lat="43.7967383" lon="6.9288577"><ele>983.3333333333334</ele><time>2026-05-01T16:04:09.273Z</time></trkpt><trkpt lat="43.7966703" lon="6.9286872"><ele>974.6666666666667</ele><time>2026-05-01T16:04:10.273Z</time></trkpt><trkpt lat="43.7966234" lon="6.9282859"><ele>966.0</ele><time>2026-05-01T16:04:12.273Z</time></trkpt><trkpt lat="43.7966359" lon="6.9280642"><ele>966.0</ele><time>2026-05-01T16:04:13.273Z</time></trkpt><trkpt lat="43.7966641" lon="6.9278328"><ele>966.0</ele><time>2026-05-01T16:04:14.273Z</time></trkpt><trkpt lat="43.7967186" lon="6.9276008"><ele>966.0</ele><time>2026-05-01T16:04:15.273Z</time></trkpt><trkpt lat="43.7967879" lon="6.9273983"><ele>978.6666666666667</ele><time>2026-05-01T16:04:16.274Z</time></trkpt><trkpt lat="43.7968784" lon="6.9272057"><ele>991.3333333333334</ele><time>2026-05-01T16:04:17.274Z</time></trkpt><trkpt lat="43.7969795" lon="6.9270553"><ele>1004.0</ele><time>2026-05-01T16:04:18.273Z</time></trkpt><trkpt lat="43.7970911" lon="6.926904"><ele>1005.0</ele><time>2026-05-01T16:04:19.273Z</time></trkpt><trkpt lat="43.7971846" lon="6.9267227"><ele>1006.0</ele><time>2026-05-01T16:04:20.273Z</time></trkpt><trkpt lat="43.7972345" lon="6.9265137"><ele>1007.0</ele><time>2026-05-01T16:04:21.273Z</time></trkpt><trkpt lat="43.7972466" lon="6.9262789"><ele>1007.0</ele><time>2026-05-01T16:04:22.273Z</time></trkpt><trkpt lat="43.7972176" lon="6.9260252"><ele>1007.0</ele><time>2026-05-01T16:04:23.273Z</time></trkpt><trkpt lat="43.7971659" lon="6.9257655"><ele>1007.0</ele><time>2026-05-01T16:04:24.273Z</time></trkpt><trkpt lat="43.7971148" lon="6.9254955"><ele>1009.6666666666667</ele><time>2026-05-01T16:04:25.273Z</time></trkpt><trkpt lat="43.797074" lon="6.9252254"><ele>1012.3333333333333</ele><time>2026-05-01T16:04:26.273Z</time></trkpt><trkpt lat="43.7970239" lon="6.9249665"><ele>1015.0</ele><time>2026-05-01T16:04:27.274Z</time></trkpt><trkpt lat="43.7969762" lon="6.9247049"><ele>1020.3333333333333</ele><time>2026-05-01T16:04:28.273Z</time></trkpt><trkpt lat="43.7969282" lon="6.924444"><ele>1025.6666666666667</ele><time>2026-05-01T16:04:29.273Z</time></trkpt><trkpt lat="43.7968882" lon="6.9241849"><ele>1031.0</ele><time>2026-05-01T16:04:30.273Z</time></trkpt><trkpt lat="43.7968492" lon="6.9239422"><ele>1007.5</ele><time>2026-05-01T16:04:31.273Z</time></trkpt><trkpt lat="43.7967925" lon="6.9234226"><ele>984.0</ele><time>2026-05-01T16:04:33.273Z</time></trkpt><trkpt lat="43.7967685" lon="6.9231614"><ele>984.0</ele><time>2026-05-01T16:04:34.273Z</time></trkpt><trkpt lat="43.7967411" lon="6.9228936"><ele>984.0</ele><time>2026-05-01T16:04:35.273Z</time></trkpt><trkpt lat="43.7967284" lon="6.9226308"><ele>984.0</ele><time>2026-05-01T16:04:36.273Z</time></trkpt><trkpt lat="43.796725" lon="6.9223981"><ele>986.5</ele><time>2026-05-01T16:04:37.273Z</time></trkpt><trkpt lat="43.7967167" lon="6.9222087"><ele>989.0</ele><time>2026-05-01T16:04:38.273Z</time></trkpt><trkpt lat="43.7967039" lon="6.9220383"><ele>991.5</ele><time>2026-05-01T16:04:39.273Z</time></trkpt><trkpt lat="43.7966944" lon="6.9218913"><ele>994.0</ele><time>2026-05-01T16:04:40.273Z</time></trkpt><trkpt lat="43.7967074" lon="6.9217573"><ele>993.8000000000001</ele><time>2026-05-01T16:04:41.273Z</time></trkpt><trkpt lat="43.7967603" lon="6.9216303"><ele>993.6000000000001</ele><time>2026-05-01T16:04:42.273Z</time></trkpt><trkpt lat="43.7967918" lon="6.921535"><ele>993.4</ele><time>2026-05-01T16:04:43.273Z</time></trkpt><trkpt lat="43.79682" lon="6.9214266"><ele>993.2</ele><time>2026-05-01T16:04:44.273Z</time></trkpt><trkpt lat="43.7968178" lon="6.9213"><ele>993.0</ele><time>2026-05-01T16:04:45.274Z</time></trkpt><trkpt lat="43.7968048" lon="6.9211697"><ele>993.0</ele><time>2026-05-01T16:04:46.274Z</time></trkpt><trkpt lat="43.7967695" lon="6.9210373"><ele>993.0</ele><time>2026-05-01T16:04:47.273Z</time></trkpt><trkpt lat="43.7967035" lon="6.9209222"><ele>993.0</ele><time>2026-05-01T16:04:48.273Z</time></trkpt><trkpt lat="43.7966305" lon="6.920837"><ele>993.0</ele><time>2026-05-01T16:04:49.273Z</time></trkpt><trkpt lat="43.7965457" lon="6.9207947"><ele>993.0</ele><time>2026-05-01T16:04:50.273Z</time></trkpt><trkpt lat="43.7964423" lon="6.9208266"><ele>999.5</ele><time>2026-05-01T16:04:51.273Z</time></trkpt><trkpt lat="43.7963472" lon="6.9208348"><ele>1006.0</ele><time>2026-05-01T16:04:52.273Z</time></trkpt><trkpt lat="43.7961809" lon="6.9206907"><ele>1012.5</ele><time>2026-05-01T16:04:54.273Z</time></trkpt><trkpt lat="43.7961254" lon="6.9205736"><ele>1019.0</ele><time>2026-05-01T16:04:55.273Z</time></trkpt><trkpt lat="43.7961029" lon="6.9204461"><ele>1019.0</ele><time>2026-05-01T16:04:56.273Z</time></trkpt><trkpt lat="43.7961118" lon="6.9203061"><ele>1019.0000000000001</ele><time>2026-05-01T16:04:57.273Z</time></trkpt><trkpt lat="43.7961453" lon="6.920153"><ele>1019.0000000000001</ele><time>2026-05-01T16:04:58.273Z</time></trkpt><trkpt lat="43.7961877" lon="6.9200071"><ele>1019.0</ele><time>2026-05-01T16:04:59.273Z</time></trkpt><trkpt lat="43.7962461" lon="6.9198648"><ele>1019.0</ele><time>2026-05-01T16:05:00.273Z</time></trkpt><trkpt lat="43.7962911" lon="6.9197228"><ele>1023.8000000000001</ele><time>2026-05-01T16:05:01.273Z</time></trkpt><trkpt lat="43.7963045" lon="6.9195673"><ele>1028.6000000000001</ele><time>2026-05-01T16:05:02.273Z</time></trkpt><trkpt lat="43.7963149" lon="6.9194158"><ele>1033.4</ele><time>2026-05-01T16:05:03.273Z</time></trkpt><trkpt lat="43.7963282" lon="6.9192551"><ele>1038.2</ele><time>2026-05-01T16:05:04.273Z</time></trkpt><trkpt lat="43.7963069" lon="6.9191076"><ele>1043.0</ele><time>2026-05-01T16:05:05.273Z</time></trkpt><trkpt lat="43.7962653" lon="6.9189642"><ele>1043.8</ele><time>2026-05-01T16:05:06.273Z</time></trkpt><trkpt lat="43.7962426" lon="6.9188265"><ele>1044.6</ele><time>2026-05-01T16:05:07.273Z</time></trkpt><trkpt lat="43.7962581" lon="6.9186916"><ele>1045.4</ele><time>2026-05-01T16:05:08.273Z</time></trkpt><trkpt lat="43.7963176" lon="6.9185601"><ele>1046.2</ele><time>2026-05-01T16:05:09.274Z</time></trkpt><trkpt lat="43.7963959" lon="6.9184078"><ele>1047.0</ele><time>2026-05-01T16:05:10.273Z</time></trkpt><trkpt lat="43.7964653" lon="6.9182507"><ele>1047.0</ele><time>2026-05-01T16:05:11.273Z</time></trkpt><trkpt lat="43.7965141" lon="6.9180847"><ele>1047.0</ele><time>2026-05-01T16:05:12.273Z</time></trkpt><trkpt lat="43.7965312" lon="6.9179194"><ele>1047.0</ele><time>2026-05-01T16:05:13.274Z</time></trkpt><trkpt lat="43.7965951" lon="6.9176028"><ele>1048.2</ele><time>2026-05-01T16:05:15.273Z</time></trkpt><trkpt lat="43.7966211" lon="6.9174634"><ele>1049.4</ele><time>2026-05-01T16:05:16.273Z</time></trkpt><trkpt lat="43.7966058" lon="6.9173301"><ele>1050.6</ele><time>2026-05-01T16:05:17.273Z</time></trkpt><trkpt lat="43.7965779" lon="6.917199"><ele>1051.8</ele><time>2026-05-01T16:05:18.273Z</time></trkpt><trkpt lat="43.7965486" lon="6.917051"><ele>1053.0</ele><time>2026-05-01T16:05:19.274Z</time></trkpt><trkpt lat="43.7965443" lon="6.9169068"><ele>1053.0</ele><time>2026-05-01T16:05:20.273Z</time></trkpt><trkpt lat="43.7964962" lon="6.9168199"><ele>1053.0</ele><time>2026-05-01T16:05:21.273Z</time></trkpt><trkpt lat="43.796464" lon="6.9167325"><ele>1053.0</ele><time>2026-05-01T16:05:22.274Z</time></trkpt><trkpt lat="43.7964637" lon="6.9166035"><ele>1053.0</ele><time>2026-05-01T16:05:23.273Z</time></trkpt><trkpt lat="43.7964696" lon="6.9164667"><ele>1053.0</ele><time>2026-05-01T16:05:24.274Z</time></trkpt><trkpt lat="43.7964568" lon="6.9163093"><ele>1058.25</ele><time>2026-05-01T16:05:25.273Z</time></trkpt><trkpt lat="43.7963963" lon="6.9161512"><ele>1063.5</ele><time>2026-05-01T16:05:26.274Z</time></trkpt><trkpt lat="43.7963118" lon="6.915991"><ele>1068.75</ele><time>2026-05-01T16:05:27.273Z</time></trkpt><trkpt lat="43.7962221" lon="6.9158383"><ele>1074.0</ele><time>2026-05-01T16:05:28.273Z</time></trkpt><trkpt lat="43.7961366" lon="6.9156813"><ele>1077.25</ele><time>2026-05-01T16:05:29.273Z</time></trkpt><trkpt lat="43.7960874" lon="6.9155169"><ele>1080.5</ele><time>2026-05-01T16:05:30.273Z</time></trkpt><trkpt lat="43.7960545" lon="6.915339"><ele>1083.75</ele><time>2026-05-01T16:05:31.273Z</time></trkpt><trkpt lat="43.7960545" lon="6.9151452"><ele>1087.0</ele><time>2026-05-01T16:05:32.273Z</time></trkpt><trkpt lat="43.7960845" lon="6.9149484"><ele>1087.0</ele><time>2026-05-01T16:05:33.273Z</time></trkpt><trkpt lat="43.7961084" lon="6.9147448"><ele>1087.0</ele><time>2026-05-01T16:05:34.274Z</time></trkpt><trkpt lat="43.7961276" lon="6.9143573"><ele>1087.0</ele><time>2026-05-01T16:05:36.273Z</time></trkpt><trkpt lat="43.7961946" lon="6.9142289"><ele>1082.25</ele><time>2026-05-01T16:05:37.273Z</time></trkpt><trkpt lat="43.7962893" lon="6.9141096"><ele>1077.5</ele><time>2026-05-01T16:05:38.273Z</time></trkpt><trkpt lat="43.7964184" lon="6.9140188"><ele>1072.75</ele><time>2026-05-01T16:05:39.273Z</time></trkpt><trkpt lat="43.7965555" lon="6.9139351"><ele>1068.0</ele><time>2026-05-01T16:05:40.273Z</time></trkpt><trkpt lat="43.796663" lon="6.9137963"><ele>1068.0</ele><time>2026-05-01T16:05:41.273Z</time></trkpt><trkpt lat="43.7967364" lon="6.9136403"><ele>1068.0</ele><time>2026-05-01T16:05:42.273Z</time></trkpt><trkpt lat="43.7967884" lon="6.9134547"><ele>1068.0</ele><time>2026-05-01T16:05:43.273Z</time></trkpt><trkpt lat="43.7968196" lon="6.9132467"><ele>1068.0</ele><time>2026-05-01T16:05:44.273Z</time></trkpt><trkpt lat="43.796826" lon="6.9130129"><ele>1063.6666666666667</ele><time>2026-05-01T16:05:45.274Z</time></trkpt><trkpt lat="43.7968116" lon="6.912761"><ele>1059.3333333333335</ele><time>2026-05-01T16:05:46.274Z</time></trkpt><trkpt lat="43.7967971" lon="6.9125128"><ele>1055.0</ele><time>2026-05-01T16:05:47.273Z</time></trkpt><trkpt lat="43.7967746" lon="6.9122699"><ele>1055.0</ele><time>2026-05-01T16:05:48.273Z</time></trkpt><trkpt lat="43.796744" lon="6.9120456"><ele>1055.0</ele><time>2026-05-01T16:05:49.273Z</time></trkpt><trkpt lat="43.7967066" lon="6.911827"><ele>1055.0</ele><time>2026-05-01T16:05:50.273Z</time></trkpt><trkpt lat="43.7966631" lon="6.9116185"><ele>1057.0</ele><time>2026-05-01T16:05:51.273Z</time></trkpt><trkpt lat="43.7966219" lon="6.9114145"><ele>1059.0</ele><time>2026-05-01T16:05:52.273Z</time></trkpt><trkpt lat="43.7965981" lon="6.9112045"><ele>1061.0</ele><time>2026-05-01T16:05:53.273Z</time></trkpt><trkpt lat="43.7965792" lon="6.9109843"><ele>1062.5</ele><time>2026-05-01T16:05:54.273Z</time></trkpt><trkpt lat="43.7965995" lon="6.9107483"><ele>1064.0</ele><time>2026-05-01T16:05:55.273Z</time></trkpt><trkpt lat="43.796705" lon="6.910292"><ele>1064.6666666666667</ele><time>2026-05-01T16:05:57.273Z</time></trkpt><trkpt lat="43.7967467" lon="6.9100541"><ele>1065.3333333333333</ele><time>2026-05-01T16:05:58.273Z</time></trkpt><trkpt lat="43.7967575" lon="6.9097962"><ele>1066.0</ele><time>2026-05-01T16:05:59.273Z</time></trkpt><trkpt lat="43.7967526" lon="6.9095494"><ele>1066.0</ele><time>2026-05-01T16:06:00.273Z</time></trkpt><trkpt lat="43.7967405" lon="6.9093054"><ele>1066.0</ele><time>2026-05-01T16:06:01.273Z</time></trkpt><trkpt lat="43.7967308" lon="6.9090916"><ele>1066.0</ele><time>2026-05-01T16:06:02.273Z</time></trkpt><trkpt lat="43.7967193" lon="6.9089068"><ele>1066.6666666666665</ele><time>2026-05-01T16:06:03.274Z</time></trkpt><trkpt lat="43.7967174" lon="6.9087572"><ele>1067.3333333333333</ele><time>2026-05-01T16:06:04.274Z</time></trkpt><trkpt lat="43.7967465" lon="6.9086468"><ele>1068.0</ele><time>2026-05-01T16:06:05.273Z</time></trkpt><trkpt lat="43.7968022" lon="6.9085687"><ele>1068.6666666666667</ele><time>2026-05-01T16:06:06.273Z</time></trkpt><trkpt lat="43.7968716" lon="6.9085214"><ele>1069.3333333333335</ele><time>2026-05-01T16:06:07.273Z</time></trkpt><trkpt lat="43.7969511" lon="6.9085384"><ele>1070.0</ele><time>2026-05-01T16:06:08.273Z</time></trkpt><trkpt lat="43.7970436" lon="6.9086221"><ele>1074.3333333333335</ele><time>2026-05-01T16:06:09.273Z</time></trkpt><trkpt lat="43.7971499" lon="6.9087621"><ele>1078.6666666666667</ele><time>2026-05-01T16:06:10.274Z</time></trkpt><trkpt lat="43.7972625" lon="6.9089718"><ele>1083.0</ele><time>2026-05-01T16:06:11.273Z</time></trkpt><trkpt lat="43.797371" lon="6.909214"><ele>1085.6666666666667</ele><time>2026-05-01T16:06:12.274Z</time></trkpt><trkpt lat="43.7974717" lon="6.9094361"><ele>1088.3333333333335</ele><time>2026-05-01T16:06:13.274Z</time></trkpt><trkpt lat="43.7976072" lon="6.9095882"><ele>1091.0</ele><time>2026-05-01T16:06:14.273Z</time></trkpt><trkpt lat="43.7977746" lon="6.9096968"><ele>1096.0</ele><time>2026-05-01T16:06:15.273Z</time></trkpt><trkpt lat="43.7979668" lon="6.9097437"><ele>1101.0</ele><time>2026-05-01T16:06:16.273Z</time></trkpt><trkpt lat="43.7983798" lon="6.9097056"><ele>1105.0</ele><time>2026-05-01T16:06:18.274Z</time></trkpt><trkpt lat="43.7985904" lon="6.9096555"><ele>1109.0</ele><time>2026-05-01T16:06:19.273Z</time></trkpt><trkpt lat="43.7988015" lon="6.9095839"><ele>1113.0</ele><time>2026-05-01T16:06:20.273Z</time></trkpt><trkpt lat="43.7990207" lon="6.9095236"><ele>1113.0</ele><time>2026-05-01T16:06:21.273Z</time></trkpt><trkpt lat="43.7992435" lon="6.9094837"><ele>1113.0</ele><time>2026-05-01T16:06:22.273Z</time></trkpt><trkpt lat="43.7994518" lon="6.9094493"><ele>1113.0</ele><time>2026-05-01T16:06:23.273Z</time></trkpt><trkpt lat="43.7996526" lon="6.9094289"><ele>1118.0</ele><time>2026-05-01T16:06:24.273Z</time></trkpt><trkpt lat="43.7998499" lon="6.9094084"><ele>1123.0</ele><time>2026-05-01T16:06:25.273Z</time></trkpt><trkpt lat="43.8000398" lon="6.9093814"><ele>1128.0</ele><time>2026-05-01T16:06:26.273Z</time></trkpt><trkpt lat="43.80022" lon="6.9092895"><ele>1123.6666666666667</ele><time>2026-05-01T16:06:27.273Z</time></trkpt><trkpt lat="43.8003812" lon="6.9091463"><ele>1119.3333333333335</ele><time>2026-05-01T16:06:28.273Z</time></trkpt><trkpt lat="43.8005371" lon="6.9089751"><ele>1115.0</ele><time>2026-05-01T16:06:29.273Z</time></trkpt><trkpt lat="43.8006805" lon="6.908779"><ele>1115.0</ele><time>2026-05-01T16:06:30.273Z</time></trkpt><trkpt lat="43.8008255" lon="6.908595"><ele>1115.0</ele><time>2026-05-01T16:06:31.273Z</time></trkpt><trkpt lat="43.800954" lon="6.9084173"><ele>1115.0</ele><time>2026-05-01T16:06:32.273Z</time></trkpt><trkpt lat="43.8010712" lon="6.9082257"><ele>1121.6666666666667</ele><time>2026-05-01T16:06:33.273Z</time></trkpt><trkpt lat="43.8011803" lon="6.9080314"><ele>1128.3333333333333</ele><time>2026-05-01T16:06:34.273Z</time></trkpt><trkpt lat="43.8012875" lon="6.9078454"><ele>1135.0</ele><time>2026-05-01T16:06:35.274Z</time></trkpt><trkpt lat="43.8013747" lon="6.9076635"><ele>1128.0</ele><time>2026-05-01T16:06:36.273Z</time></trkpt><trkpt lat="43.8014482" lon="6.9074458"><ele>1121.0</ele><time>2026-05-01T16:06:37.273Z</time></trkpt><trkpt lat="43.8015439" lon="6.9069592"><ele>1118.6666666666667</ele><time>2026-05-01T16:06:39.274Z</time></trkpt><trkpt lat="43.8015612" lon="6.906739"><ele>1116.3333333333333</ele><time>2026-05-01T16:06:40.274Z</time></trkpt><trkpt lat="43.8015433" lon="6.9065281"><ele>1114.0</ele><time>2026-05-01T16:06:41.273Z</time></trkpt><trkpt lat="43.8014993" lon="6.9063273"><ele>1114.0</ele><time>2026-05-01T16:06:42.274Z</time></trkpt><trkpt lat="43.8014123" lon="6.9061355"><ele>1114.0</ele><time>2026-05-01T16:06:43.273Z</time></trkpt><trkpt lat="43.8013212" lon="6.905938"><ele>1114.0</ele><time>2026-05-01T16:06:44.273Z</time></trkpt><trkpt lat="43.8012273" lon="6.9057167"><ele>1116.3333333333333</ele><time>2026-05-01T16:06:45.273Z</time></trkpt><trkpt lat="43.8011372" lon="6.9055022"><ele>1118.6666666666667</ele><time>2026-05-01T16:06:46.273Z</time></trkpt><trkpt lat="43.8010708" lon="6.9052746"><ele>1121.0</ele><time>2026-05-01T16:06:47.273Z</time></trkpt><trkpt lat="43.8010134" lon="6.9050598"><ele>1122.0</ele><time>2026-05-01T16:06:48.274Z</time></trkpt><trkpt lat="43.8009832" lon="6.904857"><ele>1123.0</ele><time>2026-05-01T16:06:49.273Z</time></trkpt><trkpt lat="43.8009721" lon="6.9046436"><ele>1124.0</ele><time>2026-05-01T16:06:50.274Z</time></trkpt><trkpt lat="43.8009629" lon="6.9044234"><ele>1124.0</ele><time>2026-05-01T16:06:51.273Z</time></trkpt><trkpt lat="43.8009583" lon="6.9042026"><ele>1124.0</ele><time>2026-05-01T16:06:52.273Z</time></trkpt><trkpt lat="43.8009552" lon="6.9039908"><ele>1124.0</ele><time>2026-05-01T16:06:53.274Z</time></trkpt><trkpt lat="43.8009649" lon="6.9037846"><ele>1125.25</ele><time>2026-05-01T16:06:54.273Z</time></trkpt><trkpt lat="43.8009994" lon="6.9035924"><ele>1126.5</ele><time>2026-05-01T16:06:55.274Z</time></trkpt><trkpt lat="43.8010594" lon="6.9034638"><ele>1127.75</ele><time>2026-05-01T16:06:56.273Z</time></trkpt><trkpt lat="43.8011478" lon="6.9033828"><ele>1129.0</ele><time>2026-05-01T16:06:57.274Z</time></trkpt><trkpt lat="43.8012636" lon="6.9033517"><ele>1129.0</ele><time>2026-05-01T16:06:58.273Z</time></trkpt><trkpt lat="43.8015519" lon="6.9033343"><ele>1129.0</ele><time>2026-05-01T16:07:00.273Z</time></trkpt><trkpt lat="43.8016836" lon="6.9032728"><ele>1129.0</ele><time>2026-05-01T16:07:01.273Z</time></trkpt><trkpt lat="43.8017966" lon="6.9031708"><ele>1141.0</ele><time>2026-05-01T16:07:02.273Z</time></trkpt><trkpt lat="43.801877" lon="6.9030194"><ele>1153.0</ele><time>2026-05-01T16:07:03.274Z</time></trkpt><trkpt lat="43.8019268" lon="6.9028177"><ele>1165.0</ele><time>2026-05-01T16:07:04.273Z</time></trkpt><trkpt lat="43.8019614" lon="6.9025912"><ele>1161.25</ele><time>2026-05-01T16:07:05.273Z</time></trkpt><trkpt lat="43.8019794" lon="6.902381"><ele>1157.5</ele><time>2026-05-01T16:07:06.273Z</time></trkpt><trkpt lat="43.8020158" lon="6.9021932"><ele>1153.75</ele><time>2026-05-01T16:07:07.273Z</time></trkpt><trkpt lat="43.8020886" lon="6.9020236"><ele>1150.0</ele><time>2026-05-01T16:07:08.273Z</time></trkpt><trkpt lat="43.8022037" lon="6.9018613"><ele>1144.3333333333333</ele><time>2026-05-01T16:07:09.274Z</time></trkpt><trkpt lat="43.8023278" lon="6.9016982"><ele>1138.6666666666667</ele><time>2026-05-01T16:07:10.273Z</time></trkpt><trkpt lat="43.8024478" lon="6.9015233"><ele>1133.0</ele><time>2026-05-01T16:07:11.274Z</time></trkpt><trkpt lat="43.8025637" lon="6.9013439"><ele>1135.6666666666667</ele><time>2026-05-01T16:07:12.273Z</time></trkpt><trkpt lat="43.8026687" lon="6.9011535"><ele>1138.3333333333333</ele><time>2026-05-01T16:07:13.273Z</time></trkpt><trkpt lat="43.8027559" lon="6.9009538"><ele>1141.0</ele><time>2026-05-01T16:07:14.273Z</time></trkpt><trkpt lat="43.8028168" lon="6.9007307"><ele>1141.0</ele><time>2026-05-01T16:07:15.273Z</time></trkpt><trkpt lat="43.8028483" lon="6.9004944"><ele>1141.0</ele><time>2026-05-01T16:07:16.274Z</time></trkpt><trkpt lat="43.8028656" lon="6.9002535"><ele>1141.0</ele><time>2026-05-01T16:07:17.273Z</time></trkpt><trkpt lat="43.8028816" lon="6.900018"><ele>1135.5</ele><time>2026-05-01T16:07:18.273Z</time></trkpt><trkpt lat="43.8028967" lon="6.8997839"><ele>1130.0</ele><time>2026-05-01T16:07:19.273Z</time></trkpt><trkpt lat="43.8029315" lon="6.8993141"><ele>1128.6666666666667</ele><time>2026-05-01T16:07:21.273Z</time></trkpt><trkpt lat="43.8029556" lon="6.8990787"><ele>1127.3333333333333</ele><time>2026-05-01T16:07:22.273Z</time></trkpt><trkpt lat="43.8029693" lon="6.8988218"><ele>1126.0</ele><time>2026-05-01T16:07:23.273Z</time></trkpt><trkpt lat="43.8030006" lon="6.898569"><ele>1126.3333333333333</ele><time>2026-05-01T16:07:24.273Z</time></trkpt><trkpt lat="43.8030435" lon="6.8983142"><ele>1126.6666666666667</ele><time>2026-05-01T16:07:25.273Z</time></trkpt><trkpt lat="43.8030983" lon="6.8980486"><ele>1127.0</ele><time>2026-05-01T16:07:26.273Z</time></trkpt><trkpt lat="43.8031611" lon="6.8977937"><ele>1128.0</ele><time>2026-05-01T16:07:27.273Z</time></trkpt><trkpt lat="43.8032402" lon="6.8975382"><ele>1129.0</ele><time>2026-05-01T16:07:28.273Z</time></trkpt><trkpt lat="43.8033485" lon="6.8972987"><ele>1130.0</ele><time>2026-05-01T16:07:29.273Z</time></trkpt><trkpt lat="43.8034689" lon="6.8970663"><ele>1128.6666666666667</ele><time>2026-05-01T16:07:30.273Z</time></trkpt><trkpt lat="43.8036154" lon="6.8968434"><ele>1127.3333333333333</ele><time>2026-05-01T16:07:31.273Z</time></trkpt><trkpt lat="43.8037747" lon="6.8966217"><ele>1126.0</ele><time>2026-05-01T16:07:32.274Z</time></trkpt><trkpt lat="43.8039448" lon="6.8964"><ele>1126.0</ele><time>2026-05-01T16:07:33.273Z</time></trkpt><trkpt lat="43.8041173" lon="6.8961822"><ele>1126.0</ele><time>2026-05-01T16:07:34.273Z</time></trkpt><trkpt lat="43.8042831" lon="6.8959507"><ele>1125.0</ele><time>2026-05-01T16:07:35.273Z</time></trkpt><trkpt lat="43.8044521" lon="6.8957181"><ele>1124.0</ele><time>2026-05-01T16:07:36.273Z</time></trkpt><trkpt lat="43.8046224" lon="6.8955023"><ele>1124.0</ele><time>2026-05-01T16:07:37.273Z</time></trkpt><trkpt lat="43.8047882" lon="6.8952829"><ele>1124.0</ele><time>2026-05-01T16:07:38.273Z</time></trkpt><trkpt lat="43.8049478" lon="6.8950603"><ele>1124.5</ele><time>2026-05-01T16:07:39.273Z</time></trkpt><trkpt lat="43.8051142" lon="6.8948393"><ele>1125.0</ele><time>2026-05-01T16:07:40.273Z</time></trkpt><trkpt lat="43.8054425" lon="6.8944049"><ele>1125.3333333333333</ele><time>2026-05-01T16:07:42.273Z</time></trkpt><trkpt lat="43.8056032" lon="6.8941972"><ele>1125.6666666666665</ele><time>2026-05-01T16:07:43.273Z</time></trkpt><trkpt lat="43.8057644" lon="6.8939879"><ele>1126.0</ele><time>2026-05-01T16:07:44.273Z</time></trkpt><trkpt lat="43.8059201" lon="6.893784"><ele>1126.0</ele><time>2026-05-01T16:07:45.273Z</time></trkpt><trkpt lat="43.8060764" lon="6.8935865"><ele>1126.0</ele><time>2026-05-01T16:07:46.273Z</time></trkpt><trkpt lat="43.8062293" lon="6.8933969"><ele>1126.0</ele><time>2026-05-01T16:07:47.273Z</time></trkpt><trkpt lat="43.8063825" lon="6.8931985"><ele>1125.6666666666665</ele><time>2026-05-01T16:07:48.273Z</time></trkpt><trkpt lat="43.8065326" lon="6.8929965"><ele>1125.3333333333333</ele><time>2026-05-01T16:07:49.273Z</time></trkpt><trkpt lat="43.8066803" lon="6.8927952"><ele>1125.0</ele><time>2026-05-01T16:07:50.273Z</time></trkpt><trkpt lat="43.8068339" lon="6.8925969"><ele>1125.6666666666667</ele><time>2026-05-01T16:07:51.273Z</time></trkpt><trkpt lat="43.8069812" lon="6.8924047"><ele>1126.3333333333335</ele><time>2026-05-01T16:07:52.273Z</time></trkpt><trkpt lat="43.8071087" lon="6.892208"><ele>1127.0</ele><time>2026-05-01T16:07:53.273Z</time></trkpt><trkpt lat="43.8072169" lon="6.8919787"><ele>1127.3333333333335</ele><time>2026-05-01T16:07:54.273Z</time></trkpt><trkpt lat="43.8072978" lon="6.8917399"><ele>1127.6666666666667</ele><time>2026-05-01T16:07:55.273Z</time></trkpt><trkpt lat="43.8073496" lon="6.8914749"><ele>1128.0</ele><time>2026-05-01T16:07:56.273Z</time></trkpt><trkpt lat="43.8073907" lon="6.8912108"><ele>1128.0</ele><time>2026-05-01T16:07:57.273Z</time></trkpt><trkpt lat="43.8074242" lon="6.8909399"><ele>1128.0</ele><time>2026-05-01T16:07:58.273Z</time></trkpt><trkpt lat="43.8074631" lon="6.8906674"><ele>1128.0</ele><time>2026-05-01T16:07:59.273Z</time></trkpt><trkpt lat="43.8075001" lon="6.8904058"><ele>1127.5</ele><time>2026-05-01T16:08:00.273Z</time></trkpt><trkpt lat="43.8075381" lon="6.8901444"><ele>1127.0</ele><time>2026-05-01T16:08:01.273Z</time></trkpt><trkpt lat="43.8076204" lon="6.8896261"><ele>1128.3333333333335</ele><time>2026-05-01T16:08:03.273Z</time></trkpt><trkpt lat="43.8076616" lon="6.8893658"><ele>1129.6666666666667</ele><time>2026-05-01T16:08:04.273Z</time></trkpt><trkpt lat="43.8077027" lon="6.8890939"><ele>1131.0</ele><time>2026-05-01T16:08:05.273Z</time></trkpt><trkpt lat="43.8077416" lon="6.8888217"><ele>1131.3333333333333</ele><time>2026-05-01T16:08:06.273Z</time></trkpt><trkpt lat="43.8077842" lon="6.888554"><ele>1131.6666666666665</ele><time>2026-05-01T16:08:07.274Z</time></trkpt><trkpt lat="43.8078233" lon="6.8882795"><ele>1132.0</ele><time>2026-05-01T16:08:08.273Z</time></trkpt><trkpt lat="43.8078689" lon="6.8879984"><ele>1132.6666666666665</ele><time>2026-05-01T16:08:09.273Z</time></trkpt><trkpt lat="43.8079193" lon="6.8877227"><ele>1133.3333333333333</ele><time>2026-05-01T16:08:10.273Z</time></trkpt><trkpt lat="43.8079709" lon="6.8874426"><ele>1134.0</ele><time>2026-05-01T16:08:11.273Z</time></trkpt><trkpt lat="43.8080266" lon="6.8871612"><ele>1136.0</ele><time>2026-05-01T16:08:12.273Z</time></trkpt><trkpt lat="43.8080886" lon="6.8868842"><ele>1138.0</ele><time>2026-05-01T16:08:13.274Z</time></trkpt><trkpt lat="43.808146" lon="6.8866107"><ele>1140.0</ele><time>2026-05-01T16:08:14.273Z</time></trkpt><trkpt lat="43.8082032" lon="6.8863423"><ele>1140.6666666666667</ele><time>2026-05-01T16:08:15.273Z</time></trkpt><trkpt lat="43.8082614" lon="6.8860715"><ele>1141.3333333333335</ele><time>2026-05-01T16:08:16.273Z</time></trkpt><trkpt lat="43.8083281" lon="6.8858167"><ele>1142.0</ele><time>2026-05-01T16:08:17.273Z</time></trkpt><trkpt lat="43.8084088" lon="6.8855631"><ele>1142.0</ele><time>2026-05-01T16:08:18.273Z</time></trkpt><trkpt lat="43.8084863" lon="6.8853153"><ele>1142.0</ele><time>2026-05-01T16:08:19.273Z</time></trkpt><trkpt lat="43.8085574" lon="6.8850687"><ele>1142.0</ele><time>2026-05-01T16:08:20.273Z</time></trkpt><trkpt lat="43.8086202" lon="6.8848185"><ele>1142.0</ele><time>2026-05-01T16:08:21.274Z</time></trkpt><trkpt lat="43.8086775" lon="6.8845685"><ele>1142.0</ele><time>2026-05-01T16:08:22.273Z</time></trkpt><trkpt lat="43.8087464" lon="6.8840931"><ele>1141.0</ele><time>2026-05-01T16:08:24.273Z</time></trkpt><trkpt lat="43.8087775" lon="6.8838626"><ele>1140.0</ele><time>2026-05-01T16:08:25.273Z</time></trkpt><trkpt lat="43.8088065" lon="6.8836602"><ele>1139.0</ele><time>2026-05-01T16:08:26.273Z</time></trkpt><trkpt lat="43.8088439" lon="6.8834659"><ele>1139.0</ele><time>2026-05-01T16:08:27.274Z</time></trkpt><trkpt lat="43.8088906" lon="6.8832997"><ele>1139.0</ele><time>2026-05-01T16:08:28.273Z</time></trkpt><trkpt lat="43.8089355" lon="6.8831453"><ele>1139.0</ele><time>2026-05-01T16:08:29.273Z</time></trkpt><trkpt lat="43.8089653" lon="6.8829776"><ele>1139.0</ele><time>2026-05-01T16:08:30.273Z</time></trkpt><trkpt lat="43.8089741" lon="6.8827985"><ele>1139.0</ele><time>2026-05-01T16:08:31.273Z</time></trkpt><trkpt lat="43.8089749" lon="6.8826014"><ele>1139.0</ele><time>2026-05-01T16:08:32.273Z</time></trkpt><trkpt lat="43.8089935" lon="6.8823804"><ele>1139.0</ele><time>2026-05-01T16:08:33.273Z</time></trkpt><trkpt lat="43.8090195" lon="6.8821434"><ele>1139.0</ele><time>2026-05-01T16:08:34.273Z</time></trkpt><trkpt lat="43.8090453" lon="6.8818966"><ele>1139.0</ele><time>2026-05-01T16:08:35.273Z</time></trkpt><trkpt lat="43.8090744" lon="6.8816319"><ele>1139.0</ele><time>2026-05-01T16:08:36.273Z</time></trkpt><trkpt lat="43.8090926" lon="6.8813603"><ele>1139.3333333333335</ele><time>2026-05-01T16:08:37.273Z</time></trkpt><trkpt lat="43.8090971" lon="6.881074"><ele>1139.6666666666667</ele><time>2026-05-01T16:08:38.273Z</time></trkpt><trkpt lat="43.8090956" lon="6.8807899"><ele>1140.0</ele><time>2026-05-01T16:08:39.273Z</time></trkpt><trkpt lat="43.8090835" lon="6.8805029"><ele>1139.3333333333333</ele><time>2026-05-01T16:08:40.273Z</time></trkpt><trkpt lat="43.8090712" lon="6.8802099"><ele>1138.6666666666665</ele><time>2026-05-01T16:08:41.274Z</time></trkpt><trkpt lat="43.8090544" lon="6.8799119"><ele>1138.0</ele><time>2026-05-01T16:08:42.273Z</time></trkpt><trkpt lat="43.8090413" lon="6.8796134"><ele>1138.0</ele><time>2026-05-01T16:08:43.273Z</time></trkpt><trkpt lat="43.8090204" lon="6.8790218"><ele>1138.0</ele><time>2026-05-01T16:08:45.273Z</time></trkpt><trkpt lat="43.8090085" lon="6.8787273"><ele>1138.0</ele><time>2026-05-01T16:08:46.273Z</time></trkpt><trkpt lat="43.8089996" lon="6.878437"><ele>1138.0</ele><time>2026-05-01T16:08:47.273Z</time></trkpt><trkpt lat="43.8089926" lon="6.8781501"><ele>1138.0</ele><time>2026-05-01T16:08:48.273Z</time></trkpt><trkpt lat="43.8089803" lon="6.8778738"><ele>1138.6666666666665</ele><time>2026-05-01T16:08:49.273Z</time></trkpt><trkpt lat="43.8089714" lon="6.8776041"><ele>1139.3333333333333</ele><time>2026-05-01T16:08:50.273Z</time></trkpt><trkpt lat="43.8089559" lon="6.8773322"><ele>1140.0</ele><time>2026-05-01T16:08:51.274Z</time></trkpt><trkpt lat="43.8089314" lon="6.8770613"><ele>1140.3333333333333</ele><time>2026-05-01T16:08:52.273Z</time></trkpt><trkpt lat="43.8088969" lon="6.8767956"><ele>1140.6666666666665</ele><time>2026-05-01T16:08:53.273Z</time></trkpt><trkpt lat="43.8088525" lon="6.8765373"><ele>1141.0</ele><time>2026-05-01T16:08:54.273Z</time></trkpt><trkpt lat="43.8087923" lon="6.8762755"><ele>1141.0</ele><time>2026-05-01T16:08:55.273Z</time></trkpt><trkpt lat="43.8087114" lon="6.8760291"><ele>1141.0</ele><time>2026-05-01T16:08:56.273Z</time></trkpt><trkpt lat="43.8086148" lon="6.875791"><ele>1141.0</ele><time>2026-05-01T16:08:57.273Z</time></trkpt><trkpt lat="43.808533" lon="6.8755401"><ele>1142.3333333333333</ele><time>2026-05-01T16:08:58.274Z</time></trkpt><trkpt lat="43.8084611" lon="6.8752789"><ele>1143.6666666666667</ele><time>2026-05-01T16:08:59.273Z</time></trkpt><trkpt lat="43.8083988" lon="6.8750068"><ele>1145.0</ele><time>2026-05-01T16:09:00.273Z</time></trkpt><trkpt lat="43.8083546" lon="6.8747272"><ele>1145.3333333333335</ele><time>2026-05-01T16:09:01.274Z</time></trkpt><trkpt lat="43.8083092" lon="6.8744503"><ele>1145.6666666666667</ele><time>2026-05-01T16:09:02.273Z</time></trkpt><trkpt lat="43.8082745" lon="6.8741746"><ele>1146.0</ele><time>2026-05-01T16:09:03.274Z</time></trkpt><trkpt lat="43.8082426" lon="6.8738866"><ele>1150.5</ele><time>2026-05-01T16:09:04.273Z</time></trkpt><trkpt lat="43.8082101" lon="6.8733229"><ele>1155.0</ele><time>2026-05-01T16:09:06.273Z</time></trkpt><trkpt lat="43.8081937" lon="6.8730379"><ele>1155.0</ele><time>2026-05-01T16:09:07.273Z</time></trkpt><trkpt lat="43.8081757" lon="6.8727643"><ele>1155.0</ele><time>2026-05-01T16:09:08.273Z</time></trkpt><trkpt lat="43.8081451" lon="6.8724984"><ele>1155.0</ele><time>2026-05-01T16:09:09.273Z</time></trkpt><trkpt lat="43.808105" lon="6.8722366"><ele>1157.0</ele><time>2026-05-01T16:09:10.273Z</time></trkpt><trkpt lat="43.8080641" lon="6.8719857"><ele>1159.0</ele><time>2026-05-01T16:09:11.273Z</time></trkpt><trkpt lat="43.8080311" lon="6.8717437"><ele>1161.0</ele><time>2026-05-01T16:09:12.274Z</time></trkpt><trkpt lat="43.8080147" lon="6.8715176"><ele>1161.3333333333333</ele><time>2026-05-01T16:09:13.273Z</time></trkpt><trkpt lat="43.8080239" lon="6.8712798"><ele>1161.6666666666665</ele><time>2026-05-01T16:09:14.274Z</time></trkpt><trkpt lat="43.8080615" lon="6.8710304"><ele>1162.0</ele><time>2026-05-01T16:09:15.273Z</time></trkpt><trkpt lat="43.8080995" lon="6.8707645"><ele>1162.0</ele><time>2026-05-01T16:09:16.273Z</time></trkpt><trkpt lat="43.8081337" lon="6.870498"><ele>1162.0</ele><time>2026-05-01T16:09:17.274Z</time></trkpt><trkpt lat="43.8081649" lon="6.8702452"><ele>1162.0</ele><time>2026-05-01T16:09:18.273Z</time></trkpt><trkpt lat="43.8082149" lon="6.8699805"><ele>1162.3333333333333</ele><time>2026-05-01T16:09:19.273Z</time></trkpt><trkpt lat="43.8082682" lon="6.869721"><ele>1162.6666666666667</ele><time>2026-05-01T16:09:20.273Z</time></trkpt><trkpt lat="43.8083211" lon="6.8694614"><ele>1163.0</ele><time>2026-05-01T16:09:21.273Z</time></trkpt><trkpt lat="43.8083585" lon="6.8691943"><ele>1163.3333333333335</ele><time>2026-05-01T16:09:22.273Z</time></trkpt><trkpt lat="43.8083931" lon="6.8689214"><ele>1163.6666666666667</ele><time>2026-05-01T16:09:23.273Z</time></trkpt><trkpt lat="43.8084125" lon="6.8686504"><ele>1164.0</ele><time>2026-05-01T16:09:24.273Z</time></trkpt><trkpt lat="43.808419" lon="6.8683841"><ele>1165.5</ele><time>2026-05-01T16:09:25.273Z</time></trkpt><trkpt lat="43.8083708" lon="6.8678599"><ele>1167.0</ele><time>2026-05-01T16:09:27.273Z</time></trkpt><trkpt lat="43.8083365" lon="6.8676108"><ele>1167.3333333333333</ele><time>2026-05-01T16:09:28.273Z</time></trkpt><trkpt lat="43.808328" lon="6.8673538"><ele>1167.6666666666665</ele><time>2026-05-01T16:09:29.273Z</time></trkpt><trkpt lat="43.808349" lon="6.8670998"><ele>1168.0</ele><time>2026-05-01T16:09:30.273Z</time></trkpt><trkpt lat="43.8084018" lon="6.8668572"><ele>1167.6666666666665</ele><time>2026-05-01T16:09:31.273Z</time></trkpt><trkpt lat="43.8084912" lon="6.86663"><ele>1167.3333333333333</ele><time>2026-05-01T16:09:32.273Z</time></trkpt><trkpt lat="43.8085957" lon="6.8664032"><ele>1167.0</ele><time>2026-05-01T16:09:33.273Z</time></trkpt><trkpt lat="43.8087022" lon="6.8661856"><ele>1169.6666666666667</ele><time>2026-05-01T16:09:34.273Z</time></trkpt><trkpt lat="43.808809" lon="6.8659671"><ele>1172.3333333333335</ele><time>2026-05-01T16:09:35.273Z</time></trkpt><trkpt lat="43.8089189" lon="6.8657751"><ele>1175.0</ele><time>2026-05-01T16:09:36.273Z</time></trkpt><trkpt lat="43.8090056" lon="6.865579"><ele>1175.0</ele><time>2026-05-01T16:09:37.273Z</time></trkpt><trkpt lat="43.8090637" lon="6.8653533"><ele>1175.0</ele><time>2026-05-01T16:09:38.273Z</time></trkpt><trkpt lat="43.8090852" lon="6.8651282"><ele>1175.0</ele><time>2026-05-01T16:09:39.273Z</time></trkpt><trkpt lat="43.8090743" lon="6.8648782"><ele>1175.0</ele><time>2026-05-01T16:09:40.274Z</time></trkpt><trkpt lat="43.8090565" lon="6.8646102"><ele>1175.0</ele><time>2026-05-01T16:09:41.273Z</time></trkpt><trkpt lat="43.8090575" lon="6.8643252"><ele>1175.0</ele><time>2026-05-01T16:09:42.273Z</time></trkpt><trkpt lat="43.8090687" lon="6.8640459"><ele>1177.0</ele><time>2026-05-01T16:09:43.273Z</time></trkpt><trkpt lat="43.8090776" lon="6.8637589"><ele>1179.0</ele><time>2026-05-01T16:09:44.274Z</time></trkpt><trkpt lat="43.8090655" lon="6.8634731"><ele>1181.0</ele><time>2026-05-01T16:09:45.273Z</time></trkpt><trkpt lat="43.80903" lon="6.8631932"><ele>1185.5</ele><time>2026-05-01T16:09:46.273Z</time></trkpt><trkpt lat="43.8089003" lon="6.8626143"><ele>1190.0</ele><time>2026-05-01T16:09:48.273Z</time></trkpt><trkpt lat="43.8088371" lon="6.8623289"><ele>1190.0</ele><time>2026-05-01T16:09:49.273Z</time></trkpt><trkpt lat="43.8087749" lon="6.8620434"><ele>1190.0</ele><time>2026-05-01T16:09:50.273Z</time></trkpt><trkpt lat="43.8087205" lon="6.8617695"><ele>1190.0</ele><time>2026-05-01T16:09:51.274Z</time></trkpt><trkpt lat="43.8086614" lon="6.8615074"><ele>1191.0</ele><time>2026-05-01T16:09:52.273Z</time></trkpt><trkpt lat="43.808593" lon="6.8612458"><ele>1192.0</ele><time>2026-05-01T16:09:53.273Z</time></trkpt><trkpt lat="43.8085015" lon="6.8609909"><ele>1193.0</ele><time>2026-05-01T16:09:54.273Z</time></trkpt><trkpt lat="43.8084042" lon="6.8607428"><ele>1193.0</ele><time>2026-05-01T16:09:55.273Z</time></trkpt><trkpt lat="43.8083126" lon="6.8604974"><ele>1193.0</ele><time>2026-05-01T16:09:56.273Z</time></trkpt><trkpt lat="43.8082393" lon="6.8602402"><ele>1193.0</ele><time>2026-05-01T16:09:57.274Z</time></trkpt><trkpt lat="43.8081877" lon="6.8599836"><ele>1193.0</ele><time>2026-05-01T16:09:58.273Z</time></trkpt><trkpt lat="43.8081285" lon="6.8597366"><ele>1193.0</ele><time>2026-05-01T16:09:59.273Z</time></trkpt><trkpt lat="43.8080634" lon="6.859515"><ele>1193.0</ele><time>2026-05-01T16:10:00.273Z</time></trkpt><trkpt lat="43.8079747" lon="6.8593145"><ele>1193.3333333333335</ele><time>2026-05-01T16:10:01.273Z</time></trkpt><trkpt lat="43.807867" lon="6.8591069"><ele>1193.6666666666667</ele><time>2026-05-01T16:10:02.273Z</time></trkpt><trkpt lat="43.8077504" lon="6.8589036"><ele>1194.0</ele><time>2026-05-01T16:10:03.273Z</time></trkpt><trkpt lat="43.8076416" lon="6.8587073"><ele>1192.6666666666667</ele><time>2026-05-01T16:10:04.273Z</time></trkpt><trkpt lat="43.8075275" lon="6.8585079"><ele>1191.3333333333335</ele><time>2026-05-01T16:10:05.273Z</time></trkpt><trkpt lat="43.8074079" lon="6.8583053"><ele>1190.0</ele><time>2026-05-01T16:10:06.273Z</time></trkpt><trkpt lat="43.8072931" lon="6.8580972"><ele>1189.5</ele><time>2026-05-01T16:10:07.273Z</time></trkpt><trkpt lat="43.8070723" lon="6.8576736"><ele>1189.0</ele><time>2026-05-01T16:10:09.273Z</time></trkpt><trkpt lat="43.8069527" lon="6.8574633"><ele>1189.0</ele><time>2026-05-01T16:10:10.273Z</time></trkpt><trkpt lat="43.8068385" lon="6.857251"><ele>1189.0</ele><time>2026-05-01T16:10:11.273Z</time></trkpt><trkpt lat="43.8067298" lon="6.8570333"><ele>1189.0</ele><time>2026-05-01T16:10:12.273Z</time></trkpt><trkpt lat="43.8066157" lon="6.8568303"><ele>1187.3333333333333</ele><time>2026-05-01T16:10:13.273Z</time></trkpt><trkpt lat="43.8065003" lon="6.856606"><ele>1185.6666666666667</ele><time>2026-05-01T16:10:14.273Z</time></trkpt><trkpt lat="43.8063867" lon="6.8563953"><ele>1184.0</ele><time>2026-05-01T16:10:15.273Z</time></trkpt><trkpt lat="43.8062884" lon="6.8561834"><ele>1184.0</ele><time>2026-05-01T16:10:16.273Z</time></trkpt><trkpt lat="43.8061909" lon="6.8559667"><ele>1184.0</ele><time>2026-05-01T16:10:17.274Z</time></trkpt><trkpt lat="43.8060945" lon="6.8557439"><ele>1184.0</ele><time>2026-05-01T16:10:18.273Z</time></trkpt><trkpt lat="43.8060002" lon="6.8555186"><ele>1183.6666666666667</ele><time>2026-05-01T16:10:19.273Z</time></trkpt><trkpt lat="43.8059078" lon="6.8552957"><ele>1183.3333333333333</ele><time>2026-05-01T16:10:20.274Z</time></trkpt><trkpt lat="43.8058082" lon="6.8550718"><ele>1183.0</ele><time>2026-05-01T16:10:21.273Z</time></trkpt><trkpt lat="43.8057018" lon="6.8548464"><ele>1183.0</ele><time>2026-05-01T16:10:22.273Z</time></trkpt><trkpt lat="43.8055937" lon="6.8546143"><ele>1183.0</ele><time>2026-05-01T16:10:23.273Z</time></trkpt><trkpt lat="43.8054883" lon="6.8543858"><ele>1183.0</ele><time>2026-05-01T16:10:24.274Z</time></trkpt><trkpt lat="43.805383" lon="6.8541497"><ele>1183.3333333333333</ele><time>2026-05-01T16:10:25.273Z</time></trkpt><trkpt lat="43.8052765" lon="6.8539173"><ele>1183.6666666666667</ele><time>2026-05-01T16:10:26.273Z</time></trkpt><trkpt lat="43.8051717" lon="6.8536878"><ele>1184.0</ele><time>2026-05-01T16:10:27.273Z</time></trkpt><trkpt lat="43.8050717" lon="6.8534694"><ele>1182.0</ele><time>2026-05-01T16:10:28.273Z</time></trkpt><trkpt lat="43.8048839" lon="6.8530324"><ele>1180.0</ele><time>2026-05-01T16:10:30.273Z</time></trkpt><trkpt lat="43.8047959" lon="6.8528032"><ele>1179.0</ele><time>2026-05-01T16:10:31.273Z</time></trkpt><trkpt lat="43.8047131" lon="6.8525623"><ele>1178.0</ele><time>2026-05-01T16:10:32.273Z</time></trkpt><trkpt lat="43.8046258" lon="6.8523053"><ele>1177.0</ele><time>2026-05-01T16:10:33.274Z</time></trkpt><trkpt lat="43.8045379" lon="6.8520502"><ele>1177.0</ele><time>2026-05-01T16:10:34.274Z</time></trkpt><trkpt lat="43.8044516" lon="6.8517917"><ele>1177.0</ele><time>2026-05-01T16:10:35.274Z</time></trkpt><trkpt lat="43.8043684" lon="6.8515204"><ele>1177.0</ele><time>2026-05-01T16:10:36.273Z</time></trkpt><trkpt lat="43.8042841" lon="6.8512537"><ele>1176.3333333333333</ele><time>2026-05-01T16:10:37.274Z</time></trkpt><trkpt lat="43.8041978" lon="6.8509898"><ele>1175.6666666666667</ele><time>2026-05-01T16:10:38.273Z</time></trkpt><trkpt lat="43.8041118" lon="6.8507275"><ele>1175.0</ele><time>2026-05-01T16:10:39.273Z</time></trkpt><trkpt lat="43.8040233" lon="6.8504663"><ele>1175.0</ele><time>2026-05-01T16:10:40.273Z</time></trkpt><trkpt lat="43.8039364" lon="6.8502048"><ele>1175.0</ele><time>2026-05-01T16:10:41.273Z</time></trkpt><trkpt lat="43.8038497" lon="6.8499417"><ele>1175.0</ele><time>2026-05-01T16:10:42.273Z</time></trkpt><trkpt lat="43.8037644" lon="6.8496826"><ele>1174.6666666666667</ele><time>2026-05-01T16:10:43.273Z</time></trkpt><trkpt lat="43.8036752" lon="6.8494188"><ele>1174.3333333333333</ele><time>2026-05-01T16:10:44.273Z</time></trkpt><trkpt lat="43.8035863" lon="6.8491627"><ele>1174.0</ele><time>2026-05-01T16:10:45.273Z</time></trkpt><trkpt lat="43.803498" lon="6.8488983"><ele>1173.3333333333333</ele><time>2026-05-01T16:10:46.273Z</time></trkpt><trkpt lat="43.8034144" lon="6.8486345"><ele>1172.6666666666667</ele><time>2026-05-01T16:10:47.273Z</time></trkpt><trkpt lat="43.8033268" lon="6.8483736"><ele>1172.0</ele><time>2026-05-01T16:10:48.273Z</time></trkpt><trkpt lat="43.8032328" lon="6.8481147"><ele>1172.5</ele><time>2026-05-01T16:10:49.273Z</time></trkpt><trkpt lat="43.8030371" lon="6.8475938"><ele>1173.0</ele><time>2026-05-01T16:10:51.273Z</time></trkpt><trkpt lat="43.8029436" lon="6.8473314"><ele>1173.0</ele><time>2026-05-01T16:10:52.274Z</time></trkpt><trkpt lat="43.8028541" lon="6.847059"><ele>1173.0</ele><time>2026-05-01T16:10:53.273Z</time></trkpt><trkpt lat="43.8027675" lon="6.8467841"><ele>1173.0</ele><time>2026-05-01T16:10:54.273Z</time></trkpt><trkpt lat="43.8026834" lon="6.8465087"><ele>1172.3333333333333</ele><time>2026-05-01T16:10:55.274Z</time></trkpt><trkpt lat="43.8026112" lon="6.8462339"><ele>1171.6666666666665</ele><time>2026-05-01T16:10:56.273Z</time></trkpt><trkpt lat="43.8025414" lon="6.8459572"><ele>1171.0</ele><time>2026-05-01T16:10:57.273Z</time></trkpt><trkpt lat="43.8024839" lon="6.8456717"><ele>1171.0</ele><time>2026-05-01T16:10:58.274Z</time></trkpt><trkpt lat="43.8024404" lon="6.8453839"><ele>1171.0</ele><time>2026-05-01T16:10:59.273Z</time></trkpt><trkpt lat="43.8024132" lon="6.8450962"><ele>1171.0</ele><time>2026-05-01T16:11:00.273Z</time></trkpt><trkpt lat="43.8023867" lon="6.8448086"><ele>1171.6666666666665</ele><time>2026-05-01T16:11:01.273Z</time></trkpt><trkpt lat="43.8023601" lon="6.8445172"><ele>1172.3333333333333</ele><time>2026-05-01T16:11:02.274Z</time></trkpt><trkpt lat="43.8023342" lon="6.8442185"><ele>1173.0</ele><time>2026-05-01T16:11:03.273Z</time></trkpt><trkpt lat="43.8023048" lon="6.8439171"><ele>1173.0</ele><time>2026-05-01T16:11:04.273Z</time></trkpt><trkpt lat="43.8022791" lon="6.8436196"><ele>1173.0</ele><time>2026-05-01T16:11:05.273Z</time></trkpt><trkpt lat="43.802249" lon="6.8433246"><ele>1173.0</ele><time>2026-05-01T16:11:06.274Z</time></trkpt><trkpt lat="43.8022246" lon="6.8430269"><ele>1173.0</ele><time>2026-05-01T16:11:07.273Z</time></trkpt><trkpt lat="43.8022025" lon="6.8427317"><ele>1173.0</ele><time>2026-05-01T16:11:08.273Z</time></trkpt><trkpt lat="43.8021823" lon="6.8424505"><ele>1173.0</ele><time>2026-05-01T16:11:09.274Z</time></trkpt><trkpt lat="43.802154" lon="6.842182"><ele>1176.0</ele><time>2026-05-01T16:11:10.273Z</time></trkpt><trkpt lat="43.8020845" lon="6.8416567"><ele>1179.0</ele><time>2026-05-01T16:11:12.273Z</time></trkpt><trkpt lat="43.8020384" lon="6.8413906"><ele>1179.0</ele><time>2026-05-01T16:11:13.273Z</time></trkpt><trkpt lat="43.8019804" lon="6.8411157"><ele>1179.0</ele><time>2026-05-01T16:11:14.273Z</time></trkpt><trkpt lat="43.8019088" lon="6.8408461"><ele>1179.0</ele><time>2026-05-01T16:11:15.273Z</time></trkpt><trkpt lat="43.8018321" lon="6.8405775"><ele>1178.6666666666667</ele><time>2026-05-01T16:11:16.273Z</time></trkpt><trkpt lat="43.8017557" lon="6.8403178"><ele>1178.3333333333335</ele><time>2026-05-01T16:11:17.273Z</time></trkpt><trkpt lat="43.8016785" lon="6.8400665"><ele>1178.0</ele><time>2026-05-01T16:11:18.273Z</time></trkpt><trkpt lat="43.8015923" lon="6.8398185"><ele>1177.3333333333335</ele><time>2026-05-01T16:11:19.273Z</time></trkpt><trkpt lat="43.8015026" lon="6.8395867"><ele>1176.6666666666667</ele><time>2026-05-01T16:11:20.273Z</time></trkpt><trkpt lat="43.801421" lon="6.8393577"><ele>1176.0</ele><time>2026-05-01T16:11:21.273Z</time></trkpt><trkpt lat="43.8013338" lon="6.8391425"><ele>1174.3333333333333</ele><time>2026-05-01T16:11:22.273Z</time></trkpt><trkpt lat="43.80124" lon="6.8389346"><ele>1172.6666666666665</ele><time>2026-05-01T16:11:23.273Z</time></trkpt><trkpt lat="43.8011434" lon="6.8387479"><ele>1171.0</ele><time>2026-05-01T16:11:24.273Z</time></trkpt><trkpt lat="43.8010554" lon="6.8385746"><ele>1170.5</ele><time>2026-05-01T16:11:25.273Z</time></trkpt><trkpt lat="43.8009676" lon="6.8384255"><ele>1170.0</ele><time>2026-05-01T16:11:26.273Z</time></trkpt><trkpt lat="43.800871" lon="6.8383183"><ele>1169.5</ele><time>2026-05-01T16:11:27.273Z</time></trkpt><trkpt lat="43.8007738" lon="6.8382468"><ele>1169.0</ele><time>2026-05-01T16:11:28.273Z</time></trkpt><trkpt lat="43.8007011" lon="6.8381822"><ele>1169.0</ele><time>2026-05-01T16:11:29.274Z</time></trkpt><trkpt lat="43.8006459" lon="6.8381215"><ele>1169.0</ele><time>2026-05-01T16:11:30.273Z</time></trkpt><trkpt lat="43.8005917" lon="6.8379897"><ele>1169.0</ele><time>2026-05-01T16:11:32.273Z</time></trkpt><trkpt lat="43.800518" lon="6.8377511"><ele>1169.0</ele><time>2026-05-01T16:11:35.273Z</time></trkpt><trkpt lat="43.8004983" lon="6.837634"><ele>1168.1666666666667</ele><time>2026-05-01T16:11:36.273Z</time></trkpt><trkpt lat="43.8005016" lon="6.8375007"><ele>1167.3333333333335</ele><time>2026-05-01T16:11:37.273Z</time></trkpt><trkpt lat="43.800524" lon="6.8373836"><ele>1166.5</ele><time>2026-05-01T16:11:38.274Z</time></trkpt><trkpt lat="43.8005508" lon="6.8372895"><ele>1165.6666666666667</ele><time>2026-05-01T16:11:39.273Z</time></trkpt><trkpt lat="43.8005822" lon="6.837187"><ele>1164.8333333333333</ele><time>2026-05-01T16:11:41.273Z</time></trkpt><trkpt lat="43.8005803" lon="6.8370924"><ele>1164.0</ele><time>2026-05-01T16:11:45.273Z</time></trkpt><trkpt lat="43.8005075" lon="6.8369473"><ele>1164.0</ele><time>2026-05-01T16:17:17.273Z</time></trkpt><trkpt lat="43.8004722" lon="6.8368446"><ele>1164.0</ele><time>2026-05-01T16:17:18.273Z</time></trkpt><trkpt lat="43.8004311" lon="6.836731"><ele>1164.0</ele><time>2026-05-01T16:17:19.273Z</time></trkpt><trkpt lat="43.8003876" lon="6.8366053"><ele>1164.0</ele><time>2026-05-01T16:17:20.273Z</time></trkpt><trkpt lat="43.8003405" lon="6.83647"><ele>1164.0</ele><time>2026-05-01T16:17:21.273Z</time></trkpt><trkpt lat="43.8002383" lon="6.8361551"><ele>1163.5</ele><time>2026-05-01T16:17:23.273Z</time></trkpt><trkpt lat="43.8001891" lon="6.8359866"><ele>1163.0</ele><time>2026-05-01T16:17:24.273Z</time></trkpt><trkpt lat="43.8001305" lon="6.8358087"><ele>1162.5</ele><time>2026-05-01T16:17:25.273Z</time></trkpt><trkpt lat="43.8000734" lon="6.8356206"><ele>1162.0</ele><time>2026-05-01T16:17:26.273Z</time></trkpt><trkpt lat="43.8000223" lon="6.835441"><ele>1162.6666666666665</ele><time>2026-05-01T16:17:27.273Z</time></trkpt><trkpt lat="43.7999676" lon="6.8352556"><ele>1163.3333333333333</ele><time>2026-05-01T16:17:28.273Z</time></trkpt><trkpt lat="43.7999055" lon="6.8350589"><ele>1164.0</ele><time>2026-05-01T16:17:29.274Z</time></trkpt><trkpt lat="43.7998362" lon="6.834866"><ele>1164.0</ele><time>2026-05-01T16:17:30.273Z</time></trkpt><trkpt lat="43.7997683" lon="6.8346691"><ele>1164.0</ele><time>2026-05-01T16:17:31.274Z</time></trkpt><trkpt lat="43.7996957" lon="6.8344873"><ele>1164.0</ele><time>2026-05-01T16:17:32.273Z</time></trkpt><trkpt lat="43.7996264" lon="6.8343128"><ele>1163.3333333333333</ele><time>2026-05-01T16:17:33.273Z</time></trkpt><trkpt lat="43.7995584" lon="6.8341326"><ele>1162.6666666666665</ele><time>2026-05-01T16:17:34.273Z</time></trkpt><trkpt lat="43.7994928" lon="6.8339479"><ele>1162.0</ele><time>2026-05-01T16:17:35.273Z</time></trkpt><trkpt lat="43.7994203" lon="6.8337591"><ele>1162.0</ele><time>2026-05-01T16:17:36.273Z</time></trkpt><trkpt lat="43.7993532" lon="6.8335511"><ele>1162.0</ele><time>2026-05-01T16:17:37.273Z</time></trkpt><trkpt lat="43.7992922" lon="6.833342"><ele>1162.0</ele><time>2026-05-01T16:17:38.274Z</time></trkpt><trkpt lat="43.7992388" lon="6.8331241"><ele>1163.0</ele><time>2026-05-01T16:17:39.274Z</time></trkpt><trkpt lat="43.7991864" lon="6.8328996"><ele>1164.0</ele><time>2026-05-01T16:17:40.273Z</time></trkpt><trkpt lat="43.7991409" lon="6.8326694"><ele>1165.0</ele><time>2026-05-01T16:17:41.273Z</time></trkpt><trkpt lat="43.7990962" lon="6.8324373"><ele>1165.0</ele><time>2026-05-01T16:17:42.273Z</time></trkpt><trkpt lat="43.7990188" lon="6.8319939"><ele>1165.0</ele><time>2026-05-01T16:17:44.273Z</time></trkpt><trkpt lat="43.7989995" lon="6.8317813"><ele>1163.6666666666665</ele><time>2026-05-01T16:17:45.274Z</time></trkpt><trkpt lat="43.7990028" lon="6.83156"><ele>1162.3333333333333</ele><time>2026-05-01T16:17:46.273Z</time></trkpt><trkpt lat="43.7990308" lon="6.8313482"><ele>1161.0</ele><time>2026-05-01T16:17:47.273Z</time></trkpt><trkpt lat="43.7990785" lon="6.8311374"><ele>1161.0</ele><time>2026-05-01T16:17:48.273Z</time></trkpt><trkpt lat="43.7991517" lon="6.8309308"><ele>1161.0</ele><time>2026-05-01T16:17:49.273Z</time></trkpt><trkpt lat="43.7992468" lon="6.8307269"><ele>1161.0</ele><time>2026-05-01T16:17:50.274Z</time></trkpt><trkpt lat="43.7993468" lon="6.8305384"><ele>1161.0</ele><time>2026-05-01T16:17:51.273Z</time></trkpt><trkpt lat="43.7994582" lon="6.8303505"><ele>1161.0</ele><time>2026-05-01T16:17:52.273Z</time></trkpt><trkpt lat="43.7995883" lon="6.8301677"><ele>1161.0</ele><time>2026-05-01T16:17:53.273Z</time></trkpt><trkpt lat="43.7997329" lon="6.8300039"><ele>1160.3333333333333</ele><time>2026-05-01T16:17:54.273Z</time></trkpt><trkpt lat="43.7998757" lon="6.8298445"><ele>1159.6666666666665</ele><time>2026-05-01T16:17:55.273Z</time></trkpt><trkpt lat="43.8000035" lon="6.8296811"><ele>1159.0</ele><time>2026-05-01T16:17:56.273Z</time></trkpt><trkpt lat="43.8001222" lon="6.8295183"><ele>1157.3333333333333</ele><time>2026-05-01T16:17:57.273Z</time></trkpt><trkpt lat="43.8002238" lon="6.8293552"><ele>1155.6666666666667</ele><time>2026-05-01T16:17:58.274Z</time></trkpt><trkpt lat="43.8003119" lon="6.8291796"><ele>1154.0</ele><time>2026-05-01T16:17:59.273Z</time></trkpt><trkpt lat="43.8003832" lon="6.8289911"><ele>1153.3333333333335</ele><time>2026-05-01T16:18:00.273Z</time></trkpt><trkpt lat="43.8004469" lon="6.8287816"><ele>1152.6666666666667</ele><time>2026-05-01T16:18:01.273Z</time></trkpt><trkpt lat="43.8004886" lon="6.8285448"><ele>1152.0</ele><time>2026-05-01T16:18:02.274Z</time></trkpt><trkpt lat="43.800535" lon="6.8282969"><ele>1150.5</ele><time>2026-05-01T16:18:03.273Z</time></trkpt><trkpt lat="43.8006328" lon="6.8277543"><ele>1149.0</ele><time>2026-05-01T16:18:05.274Z</time></trkpt><trkpt lat="43.8006853" lon="6.8274905"><ele>1149.0</ele><time>2026-05-01T16:18:06.274Z</time></trkpt><trkpt lat="43.8007437" lon="6.8272236"><ele>1149.0</ele><time>2026-05-01T16:18:07.273Z</time></trkpt><trkpt lat="43.8008133" lon="6.826975"><ele>1149.0</ele><time>2026-05-01T16:18:08.273Z</time></trkpt><trkpt lat="43.8009043" lon="6.8267316"><ele>1150.3333333333333</ele><time>2026-05-01T16:18:09.273Z</time></trkpt><trkpt lat="43.8010012" lon="6.8265021"><ele>1151.6666666666665</ele><time>2026-05-01T16:18:10.273Z</time></trkpt><trkpt lat="43.8010831" lon="6.8262583"><ele>1153.0</ele><time>2026-05-01T16:18:11.273Z</time></trkpt><trkpt lat="43.8011554" lon="6.8260046"><ele>1152.3333333333333</ele><time>2026-05-01T16:18:12.274Z</time></trkpt><trkpt lat="43.8012191" lon="6.8257366"><ele>1151.6666666666667</ele><time>2026-05-01T16:18:13.273Z</time></trkpt><trkpt lat="43.8012802" lon="6.8254845"><ele>1151.0</ele><time>2026-05-01T16:18:14.273Z</time></trkpt><trkpt lat="43.801338" lon="6.8252348"><ele>1150.6666666666667</ele><time>2026-05-01T16:18:15.273Z</time></trkpt><trkpt lat="43.8014001" lon="6.8249847"><ele>1150.3333333333333</ele><time>2026-05-01T16:18:16.274Z</time></trkpt><trkpt lat="43.8014614" lon="6.8247519"><ele>1150.0</ele><time>2026-05-01T16:18:17.273Z</time></trkpt><trkpt lat="43.8015121" lon="6.8245211"><ele>1150.3333333333333</ele><time>2026-05-01T16:18:18.274Z</time></trkpt><trkpt lat="43.801535" lon="6.824293"><ele>1150.6666666666667</ele><time>2026-05-01T16:18:19.274Z</time></trkpt><trkpt lat="43.8015368" lon="6.8240576"><ele>1151.0</ele><time>2026-05-01T16:18:20.273Z</time></trkpt><trkpt lat="43.8015119" lon="6.8238032"><ele>1151.0</ele><time>2026-05-01T16:18:21.273Z</time></trkpt><trkpt lat="43.8014729" lon="6.8235369"><ele>1151.0</ele><time>2026-05-01T16:18:22.273Z</time></trkpt><trkpt lat="43.8014323" lon="6.8232589"><ele>1151.0</ele><time>2026-05-01T16:18:23.273Z</time></trkpt><trkpt lat="43.8013872" lon="6.8229746"><ele>1153.0</ele><time>2026-05-01T16:18:24.273Z</time></trkpt><trkpt lat="43.8012777" lon="6.8223971"><ele>1155.0</ele><time>2026-05-01T16:18:26.273Z</time></trkpt><trkpt lat="43.8012216" lon="6.8221089"><ele>1155.0</ele><time>2026-05-01T16:18:27.274Z</time></trkpt><trkpt lat="43.8011712" lon="6.8218234"><ele>1155.0</ele><time>2026-05-01T16:18:28.273Z</time></trkpt><trkpt lat="43.8011137" lon="6.8215353"><ele>1155.0</ele><time>2026-05-01T16:18:29.274Z</time></trkpt><trkpt lat="43.8010555" lon="6.8212426"><ele>1152.0</ele><time>2026-05-01T16:18:30.273Z</time></trkpt><trkpt lat="43.801" lon="6.8209538"><ele>1149.0</ele><time>2026-05-01T16:18:31.273Z</time></trkpt><trkpt lat="43.8009449" lon="6.8206609"><ele>1146.0</ele><time>2026-05-01T16:18:32.273Z</time></trkpt><trkpt lat="43.8008876" lon="6.820367"><ele>1144.3333333333333</ele><time>2026-05-01T16:18:33.273Z</time></trkpt><trkpt lat="43.8008322" lon="6.8200791"><ele>1142.6666666666665</ele><time>2026-05-01T16:18:34.273Z</time></trkpt><trkpt lat="43.8007779" lon="6.8197894"><ele>1141.0</ele><time>2026-05-01T16:18:35.273Z</time></trkpt><trkpt lat="43.8007289" lon="6.8195121"><ele>1141.3333333333333</ele><time>2026-05-01T16:18:36.273Z</time></trkpt><trkpt lat="43.8006794" lon="6.8192498"><ele>1141.6666666666667</ele><time>2026-05-01T16:18:37.273Z</time></trkpt><trkpt lat="43.8006318" lon="6.8189911"><ele>1142.0</ele><time>2026-05-01T16:18:38.273Z</time></trkpt><trkpt lat="43.8005804" lon="6.8187353"><ele>1142.3333333333335</ele><time>2026-05-01T16:18:39.273Z</time></trkpt><trkpt lat="43.800532" lon="6.818471"><ele>1142.6666666666667</ele><time>2026-05-01T16:18:40.273Z</time></trkpt><trkpt lat="43.8004853" lon="6.8181969"><ele>1143.0</ele><time>2026-05-01T16:18:41.273Z</time></trkpt><trkpt lat="43.8004347" lon="6.8179228"><ele>1143.0</ele><time>2026-05-01T16:18:42.273Z</time></trkpt><trkpt lat="43.8003762" lon="6.8176631"><ele>1143.0</ele><time>2026-05-01T16:18:43.273Z</time></trkpt><trkpt lat="43.8003239" lon="6.8173973"><ele>1143.0</ele><time>2026-05-01T16:18:44.273Z</time></trkpt><trkpt lat="43.8002687" lon="6.8171246"><ele>1138.5</ele><time>2026-05-01T16:18:45.273Z</time></trkpt><trkpt lat="43.800163" lon="6.8165712"><ele>1134.0</ele><time>2026-05-01T16:18:47.273Z</time></trkpt><trkpt lat="43.8001115" lon="6.8162927"><ele>1134.0</ele><time>2026-05-01T16:18:48.273Z</time></trkpt><trkpt lat="43.8000612" lon="6.8160227"><ele>1134.0</ele><time>2026-05-01T16:18:49.273Z</time></trkpt><trkpt lat="43.8000098" lon="6.8157485"><ele>1134.0</ele><time>2026-05-01T16:18:50.273Z</time></trkpt><trkpt lat="43.7999628" lon="6.8154747"><ele>1134.0</ele><time>2026-05-01T16:18:51.273Z</time></trkpt><trkpt lat="43.7999189" lon="6.8152083"><ele>1134.0</ele><time>2026-05-01T16:18:52.273Z</time></trkpt><trkpt lat="43.7998719" lon="6.8149331"><ele>1134.0</ele><time>2026-05-01T16:18:53.273Z</time></trkpt><trkpt lat="43.7998416" lon="6.8146517"><ele>1133.6666666666667</ele><time>2026-05-01T16:18:54.273Z</time></trkpt><trkpt lat="43.7998307" lon="6.8143601"><ele>1133.3333333333335</ele><time>2026-05-01T16:18:55.273Z</time></trkpt><trkpt lat="43.7998304" lon="6.814071"><ele>1133.0</ele><time>2026-05-01T16:18:56.274Z</time></trkpt><trkpt lat="43.7998343" lon="6.8137816"><ele>1134.3333333333335</ele><time>2026-05-01T16:18:57.274Z</time></trkpt><trkpt lat="43.7998329" lon="6.813491"><ele>1135.6666666666667</ele><time>2026-05-01T16:18:58.273Z</time></trkpt><trkpt lat="43.7998265" lon="6.813208"><ele>1137.0</ele><time>2026-05-01T16:18:59.274Z</time></trkpt><trkpt lat="43.7998255" lon="6.8129149"><ele>1137.3333333333333</ele><time>2026-05-01T16:19:00.273Z</time></trkpt><trkpt lat="43.7998217" lon="6.8126309"><ele>1137.6666666666665</ele><time>2026-05-01T16:19:01.273Z</time></trkpt><trkpt lat="43.7998206" lon="6.812354"><ele>1138.0</ele><time>2026-05-01T16:19:02.274Z</time></trkpt><trkpt lat="43.7998097" lon="6.8120779"><ele>1139.0</ele><time>2026-05-01T16:19:03.274Z</time></trkpt><trkpt lat="43.7998004" lon="6.811805"><ele>1140.0</ele><time>2026-05-01T16:19:04.273Z</time></trkpt><trkpt lat="43.799806" lon="6.8115406"><ele>1141.0</ele><time>2026-05-01T16:19:05.274Z</time></trkpt><trkpt lat="43.7998037" lon="6.8112809"><ele>1141.5</ele><time>2026-05-01T16:19:06.273Z</time></trkpt><trkpt lat="43.7997963" lon="6.8107461"><ele>1142.0</ele><time>2026-05-01T16:19:08.273Z</time></trkpt><trkpt lat="43.7997872" lon="6.8104743"><ele>1142.0</ele><time>2026-05-01T16:19:09.273Z</time></trkpt><trkpt lat="43.7997801" lon="6.8101983"><ele>1142.0</ele><time>2026-05-01T16:19:10.273Z</time></trkpt><trkpt lat="43.7997837" lon="6.8099204"><ele>1142.0</ele><time>2026-05-01T16:19:11.273Z</time></trkpt><trkpt lat="43.7997753" lon="6.8096458"><ele>1142.0</ele><time>2026-05-01T16:19:12.273Z</time></trkpt><trkpt lat="43.7997844" lon="6.8093738"><ele>1142.0</ele><time>2026-05-01T16:19:13.273Z</time></trkpt><trkpt lat="43.7997838" lon="6.8091124"><ele>1142.0</ele><time>2026-05-01T16:19:14.274Z</time></trkpt><trkpt lat="43.799781" lon="6.8088475"><ele>1142.0</ele><time>2026-05-01T16:19:15.273Z</time></trkpt><trkpt lat="43.7997844" lon="6.8085799"><ele>1142.0</ele><time>2026-05-01T16:19:16.273Z</time></trkpt><trkpt lat="43.7997882" lon="6.8083145"><ele>1142.0</ele><time>2026-05-01T16:19:17.274Z</time></trkpt><trkpt lat="43.7998001" lon="6.808058"><ele>1143.3333333333335</ele><time>2026-05-01T16:19:18.273Z</time></trkpt><trkpt lat="43.7998217" lon="6.8078047"><ele>1144.6666666666667</ele><time>2026-05-01T16:19:19.273Z</time></trkpt><trkpt lat="43.7998501" lon="6.807536"><ele>1146.0</ele><time>2026-05-01T16:19:20.273Z</time></trkpt><trkpt lat="43.7998832" lon="6.8072812"><ele>1147.0</ele><time>2026-05-01T16:19:21.273Z</time></trkpt><trkpt lat="43.7999208" lon="6.8070244"><ele>1148.0</ele><time>2026-05-01T16:19:22.273Z</time></trkpt><trkpt lat="43.799951" lon="6.8067704"><ele>1149.0</ele><time>2026-05-01T16:19:23.273Z</time></trkpt><trkpt lat="43.7999687" lon="6.8065072"><ele>1149.6666666666667</ele><time>2026-05-01T16:19:24.273Z</time></trkpt><trkpt lat="43.7999708" lon="6.8062524"><ele>1150.3333333333335</ele><time>2026-05-01T16:19:25.273Z</time></trkpt><trkpt lat="43.7999456" lon="6.8060024"><ele>1151.0</ele><time>2026-05-01T16:19:26.273Z</time></trkpt><trkpt lat="43.7998972" lon="6.8057518"><ele>1152.5</ele><time>2026-05-01T16:19:27.273Z</time></trkpt><trkpt lat="43.7997547" lon="6.8052547"><ele>1154.0</ele><time>2026-05-01T16:19:29.273Z</time></trkpt><trkpt lat="43.7996701" lon="6.8050259"><ele>1156.3333333333335</ele><time>2026-05-01T16:19:30.273Z</time></trkpt><trkpt lat="43.7995894" lon="6.8047997"><ele>1158.6666666666667</ele><time>2026-05-01T16:19:31.273Z</time></trkpt><trkpt lat="43.7995041" lon="6.8045968"><ele>1161.0</ele><time>2026-05-01T16:19:32.273Z</time></trkpt><trkpt lat="43.7994291" lon="6.8044107"><ele>1161.75</ele><time>2026-05-01T16:19:33.273Z</time></trkpt><trkpt lat="43.7993625" lon="6.8042281"><ele>1162.5</ele><time>2026-05-01T16:19:34.273Z</time></trkpt><trkpt lat="43.7992889" lon="6.8040462"><ele>1163.25</ele><time>2026-05-01T16:19:35.273Z</time></trkpt><trkpt lat="43.7992291" lon="6.8038732"><ele>1164.0</ele><time>2026-05-01T16:19:36.273Z</time></trkpt><trkpt lat="43.7991736" lon="6.8037018"><ele>1161.0</ele><time>2026-05-01T16:19:37.273Z</time></trkpt><trkpt lat="43.7991171" lon="6.8035284"><ele>1158.0</ele><time>2026-05-01T16:19:38.273Z</time></trkpt><trkpt lat="43.799066" lon="6.8033412"><ele>1155.0</ele><time>2026-05-01T16:19:39.274Z</time></trkpt><trkpt lat="43.7990147" lon="6.8031516"><ele>1152.0</ele><time>2026-05-01T16:19:40.273Z</time></trkpt><trkpt lat="43.7989782" lon="6.8029586"><ele>1151.75</ele><time>2026-05-01T16:19:41.273Z</time></trkpt><trkpt lat="43.7989508" lon="6.8027622"><ele>1151.5</ele><time>2026-05-01T16:19:42.273Z</time></trkpt><trkpt lat="43.798929" lon="6.8025628"><ele>1151.25</ele><time>2026-05-01T16:19:43.273Z</time></trkpt><trkpt lat="43.7989077" lon="6.8023715"><ele>1151.0</ele><time>2026-05-01T16:19:44.273Z</time></trkpt><trkpt lat="43.7988875" lon="6.8021885"><ele>1151.5</ele><time>2026-05-01T16:19:45.273Z</time></trkpt><trkpt lat="43.7988628" lon="6.8020061"><ele>1152.0</ele><time>2026-05-01T16:19:46.273Z</time></trkpt><trkpt lat="43.7988298" lon="6.8018311"><ele>1152.5</ele><time>2026-05-01T16:19:47.273Z</time></trkpt><trkpt lat="43.7987924" lon="6.8016696"><ele>1153.0</ele><time>2026-05-01T16:19:48.273Z</time></trkpt><trkpt lat="43.7987027" lon="6.8013661"><ele>1153.5</ele><time>2026-05-01T16:19:50.273Z</time></trkpt><trkpt lat="43.7986354" lon="6.8012267"><ele>1154.0</ele><time>2026-05-01T16:19:51.273Z</time></trkpt><trkpt lat="43.7985612" lon="6.8010918"><ele>1154.5</ele><time>2026-05-01T16:19:52.273Z</time></trkpt><trkpt lat="43.7984866" lon="6.8009491"><ele>1155.0</ele><time>2026-05-01T16:19:53.273Z</time></trkpt><trkpt lat="43.7984115" lon="6.8008"><ele>1153.0</ele><time>2026-05-01T16:19:54.273Z</time></trkpt><trkpt lat="43.7983353" lon="6.8006406"><ele>1151.0</ele><time>2026-05-01T16:19:55.273Z</time></trkpt><trkpt lat="43.7982692" lon="6.8004735"><ele>1149.0</ele><time>2026-05-01T16:19:56.274Z</time></trkpt><trkpt lat="43.7982126" lon="6.8002977"><ele>1147.0</ele><time>2026-05-01T16:19:57.273Z</time></trkpt><trkpt lat="43.7981678" lon="6.8001182"><ele>1147.0</ele><time>2026-05-01T16:19:58.273Z</time></trkpt><trkpt lat="43.79813" lon="6.7999423"><ele>1147.0</ele><time>2026-05-01T16:19:59.273Z</time></trkpt><trkpt lat="43.7981074" lon="6.7997688"><ele>1147.0</ele><time>2026-05-01T16:20:00.273Z</time></trkpt><trkpt lat="43.7980822" lon="6.7995894"><ele>1147.0</ele><time>2026-05-01T16:20:01.274Z</time></trkpt><trkpt lat="43.7980505" lon="6.7994051"><ele>1147.25</ele><time>2026-05-01T16:20:02.273Z</time></trkpt><trkpt lat="43.7980246" lon="6.799228"><ele>1147.5</ele><time>2026-05-01T16:20:03.273Z</time></trkpt><trkpt lat="43.7979951" lon="6.7990436"><ele>1147.75</ele><time>2026-05-01T16:20:04.274Z</time></trkpt><trkpt lat="43.7979697" lon="6.7988415"><ele>1148.0</ele><time>2026-05-01T16:20:05.274Z</time></trkpt><trkpt lat="43.7979473" lon="6.7986321"><ele>1147.0</ele><time>2026-05-01T16:20:06.273Z</time></trkpt><trkpt lat="43.7979342" lon="6.7984021"><ele>1146.0</ele><time>2026-05-01T16:20:07.274Z</time></trkpt><trkpt lat="43.797925" lon="6.7981525"><ele>1145.0</ele><time>2026-05-01T16:20:08.273Z</time></trkpt><trkpt lat="43.7979229" lon="6.7978756"><ele>1144.0</ele><time>2026-05-01T16:20:09.273Z</time></trkpt><trkpt lat="43.7979106" lon="6.7972742"><ele>1143.0</ele><time>2026-05-01T16:20:11.273Z</time></trkpt><trkpt lat="43.7979146" lon="6.7969746"><ele>1143.0</ele><time>2026-05-01T16:20:12.273Z</time></trkpt><trkpt lat="43.7979227" lon="6.7966563"><ele>1143.0</ele><time>2026-05-01T16:20:13.273Z</time></trkpt><trkpt lat="43.7979267" lon="6.7963259"><ele>1143.0</ele><time>2026-05-01T16:20:14.273Z</time></trkpt><trkpt lat="43.7979344" lon="6.7959862"><ele>1143.0</ele><time>2026-05-01T16:20:15.273Z</time></trkpt><trkpt lat="43.7979293" lon="6.7956574"><ele>1143.0</ele><time>2026-05-01T16:20:16.273Z</time></trkpt><trkpt lat="43.7979236" lon="6.795333"><ele>1143.0</ele><time>2026-05-01T16:20:17.274Z</time></trkpt><trkpt lat="43.7979214" lon="6.7950084"><ele>1144.5</ele><time>2026-05-01T16:20:18.273Z</time></trkpt><trkpt lat="43.797921" lon="6.7946773"><ele>1146.0</ele><time>2026-05-01T16:20:19.273Z</time></trkpt><trkpt lat="43.7979077" lon="6.7943567"><ele>1145.5</ele><time>2026-05-01T16:20:20.273Z</time></trkpt><trkpt lat="43.7978846" lon="6.7940335"><ele>1145.0</ele><time>2026-05-01T16:20:21.273Z</time></trkpt><trkpt lat="43.7978552" lon="6.7937151"><ele>1146.0</ele><time>2026-05-01T16:20:22.273Z</time></trkpt><trkpt lat="43.7978275" lon="6.7934002"><ele>1147.0</ele><time>2026-05-01T16:20:23.273Z</time></trkpt><trkpt lat="43.7978021" lon="6.7930796"><ele>1147.0</ele><time>2026-05-01T16:20:24.273Z</time></trkpt><trkpt lat="43.7977819" lon="6.7927721"><ele>1147.0</ele><time>2026-05-01T16:20:25.273Z</time></trkpt><trkpt lat="43.7977682" lon="6.7924764"><ele>1147.0</ele><time>2026-05-01T16:20:26.273Z</time></trkpt><trkpt lat="43.7977741" lon="6.7921788"><ele>1147.3333333333333</ele><time>2026-05-01T16:20:27.274Z</time></trkpt><trkpt lat="43.7977825" lon="6.7918798"><ele>1147.6666666666667</ele><time>2026-05-01T16:20:28.273Z</time></trkpt><trkpt lat="43.7977981" lon="6.7915878"><ele>1148.0</ele><time>2026-05-01T16:20:29.273Z</time></trkpt><trkpt lat="43.797818" lon="6.7913009"><ele>1145.5</ele><time>2026-05-01T16:20:30.273Z</time></trkpt><trkpt lat="43.7978095" lon="6.7907313"><ele>1143.0</ele><time>2026-05-01T16:20:32.273Z</time></trkpt><trkpt lat="43.7977907" lon="6.7904355"><ele>1142.6666666666667</ele><time>2026-05-01T16:20:33.273Z</time></trkpt><trkpt lat="43.7977683" lon="6.7901406"><ele>1142.3333333333335</ele><time>2026-05-01T16:20:34.273Z</time></trkpt><trkpt lat="43.7977356" lon="6.7898388"><ele>1142.0</ele><time>2026-05-01T16:20:35.273Z</time></trkpt><trkpt lat="43.7976988" lon="6.7895346"><ele>1139.0</ele><time>2026-05-01T16:20:36.273Z</time></trkpt><trkpt lat="43.797655" lon="6.7892345"><ele>1136.0</ele><time>2026-05-01T16:20:37.274Z</time></trkpt><trkpt lat="43.7976242" lon="6.7889308"><ele>1133.0</ele><time>2026-05-01T16:20:38.273Z</time></trkpt><trkpt lat="43.7975904" lon="6.7886228"><ele>1133.5</ele><time>2026-05-01T16:20:39.273Z</time></trkpt><trkpt lat="43.7975584" lon="6.7883089"><ele>1134.0</ele><time>2026-05-01T16:20:40.273Z</time></trkpt><trkpt lat="43.7975253" lon="6.7879982"><ele>1134.0</ele><time>2026-05-01T16:20:41.273Z</time></trkpt><trkpt lat="43.7974984" lon="6.7876924"><ele>1134.0</ele><time>2026-05-01T16:20:42.273Z</time></trkpt><trkpt lat="43.7974703" lon="6.7873803"><ele>1134.0</ele><time>2026-05-01T16:20:43.274Z</time></trkpt><trkpt lat="43.7974398" lon="6.7870674"><ele>1134.5</ele><time>2026-05-01T16:20:44.273Z</time></trkpt><trkpt lat="43.797414" lon="6.7867542"><ele>1135.0</ele><time>2026-05-01T16:20:45.273Z</time></trkpt><trkpt lat="43.7973861" lon="6.7864412"><ele>1135.0</ele><time>2026-05-01T16:20:46.273Z</time></trkpt><trkpt lat="43.7973536" lon="6.7861394"><ele>1135.0</ele><time>2026-05-01T16:20:47.273Z</time></trkpt><trkpt lat="43.797321" lon="6.785839"><ele>1135.0</ele><time>2026-05-01T16:20:48.273Z</time></trkpt><trkpt lat="43.7972906" lon="6.7855474"><ele>1134.6666666666665</ele><time>2026-05-01T16:20:49.273Z</time></trkpt><trkpt lat="43.797269" lon="6.7852501"><ele>1134.3333333333333</ele><time>2026-05-01T16:20:50.273Z</time></trkpt><trkpt lat="43.7972424" lon="6.7849459"><ele>1134.0</ele><time>2026-05-01T16:20:51.273Z</time></trkpt><trkpt lat="43.7971824" lon="6.7843113"><ele>1133.6666666666667</ele><time>2026-05-01T16:20:53.273Z</time></trkpt><trkpt lat="43.7971495" lon="6.7840073"><ele>1133.3333333333335</ele><time>2026-05-01T16:20:54.274Z</time></trkpt><trkpt lat="43.7971149" lon="6.7836998"><ele>1133.0</ele><time>2026-05-01T16:20:55.273Z</time></trkpt><trkpt lat="43.7970674" lon="6.7833915"><ele>1132.0</ele><time>2026-05-01T16:20:56.273Z</time></trkpt><trkpt lat="43.7970041" lon="6.7830878"><ele>1131.0</ele><time>2026-05-01T16:20:57.273Z</time></trkpt><trkpt lat="43.7969296" lon="6.7827818"><ele>1131.5</ele><time>2026-05-01T16:20:58.274Z</time></trkpt><trkpt lat="43.7968521" lon="6.7824769"><ele>1132.0</ele><time>2026-05-01T16:20:59.273Z</time></trkpt><trkpt lat="43.7967796" lon="6.7821736"><ele>1127.0</ele><time>2026-05-01T16:21:00.273Z</time></trkpt><trkpt lat="43.7967111" lon="6.7818657"><ele>1122.0</ele><time>2026-05-01T16:21:01.273Z</time></trkpt><trkpt lat="43.7966372" lon="6.7815587"><ele>1122.0</ele><time>2026-05-01T16:21:02.274Z</time></trkpt><trkpt lat="43.7965694" lon="6.7812564"><ele>1122.0</ele><time>2026-05-01T16:21:03.273Z</time></trkpt><trkpt lat="43.796497" lon="6.7809593"><ele>1123.0</ele><time>2026-05-01T16:21:04.273Z</time></trkpt><trkpt lat="43.7964317" lon="6.7806629"><ele>1124.0</ele><time>2026-05-01T16:21:05.273Z</time></trkpt><trkpt lat="43.7963602" lon="6.7803604"><ele>1124.5</ele><time>2026-05-01T16:21:06.273Z</time></trkpt><trkpt lat="43.7962913" lon="6.7800525"><ele>1125.0</ele><time>2026-05-01T16:21:07.273Z</time></trkpt><trkpt lat="43.7962227" lon="6.7797453"><ele>1125.0</ele><time>2026-05-01T16:21:08.273Z</time></trkpt><trkpt lat="43.7961586" lon="6.7794385"><ele>1125.0</ele><time>2026-05-01T16:21:09.273Z</time></trkpt><trkpt lat="43.7960881" lon="6.779129"><ele>1127.5</ele><time>2026-05-01T16:21:10.273Z</time></trkpt><trkpt lat="43.7960151" lon="6.7788172"><ele>1130.0</ele><time>2026-05-01T16:21:11.274Z</time></trkpt><trkpt lat="43.7959355" lon="6.7785096"><ele>1117.0</ele><time>2026-05-01T16:21:12.273Z</time></trkpt><trkpt lat="43.7957564" lon="6.7779107"><ele>1118.0</ele><time>2026-05-01T16:21:14.273Z</time></trkpt><trkpt lat="43.7956526" lon="6.7776236"><ele>1119.0</ele><time>2026-05-01T16:21:15.273Z</time></trkpt><trkpt lat="43.7955419" lon="6.7773467"><ele>1119.0</ele><time>2026-05-01T16:21:16.273Z</time></trkpt><trkpt lat="43.7954254" lon="6.7770745"><ele>1119.0</ele><time>2026-05-01T16:21:17.273Z</time></trkpt><trkpt lat="43.7952981" lon="6.776814"><ele>1114.0</ele><time>2026-05-01T16:21:18.273Z</time></trkpt><trkpt lat="43.7951618" lon="6.7765788"><ele>1109.0</ele><time>2026-05-01T16:21:19.274Z</time></trkpt><trkpt lat="43.7950293" lon="6.7763603"><ele>1104.0</ele><time>2026-05-01T16:21:20.273Z</time></trkpt><trkpt lat="43.7949085" lon="6.7761484"><ele>1106.0</ele><time>2026-05-01T16:21:21.273Z</time></trkpt><trkpt lat="43.7948132" lon="6.7759186"><ele>1108.0</ele><time>2026-05-01T16:21:22.273Z</time></trkpt><trkpt lat="43.7947438" lon="6.775658"><ele>1110.0</ele><time>2026-05-01T16:21:23.274Z</time></trkpt><trkpt lat="43.7946899" lon="6.7753742"><ele>1111.0</ele><time>2026-05-01T16:21:24.274Z</time></trkpt><trkpt lat="43.794642" lon="6.7750747"><ele>1112.0</ele><time>2026-05-01T16:21:25.273Z</time></trkpt><trkpt lat="43.7945988" lon="6.7747738"><ele>1113.0</ele><time>2026-05-01T16:21:26.273Z</time></trkpt><trkpt lat="43.794542" lon="6.7744682"><ele>1114.0</ele><time>2026-05-01T16:21:27.273Z</time></trkpt><trkpt lat="43.794468" lon="6.7741635"><ele>1115.0</ele><time>2026-05-01T16:21:28.273Z</time></trkpt><trkpt lat="43.7944014" lon="6.7738562"><ele>1111.6666666666667</ele><time>2026-05-01T16:21:29.273Z</time></trkpt><trkpt lat="43.7943342" lon="6.7735699"><ele>1108.3333333333333</ele><time>2026-05-01T16:21:30.273Z</time></trkpt><trkpt lat="43.7942852" lon="6.77329"><ele>1105.0</ele><time>2026-05-01T16:21:31.273Z</time></trkpt><trkpt lat="43.7942475" lon="6.7730022"><ele>1105.0</ele><time>2026-05-01T16:21:32.273Z</time></trkpt><trkpt lat="43.7942247" lon="6.7727101"><ele>1105.0</ele><time>2026-05-01T16:21:33.273Z</time></trkpt><trkpt lat="43.7941914" lon="6.7721243"><ele>1104.6666666666665</ele><time>2026-05-01T16:21:35.274Z</time></trkpt><trkpt lat="43.7941808" lon="6.7718133"><ele>1104.3333333333333</ele><time>2026-05-01T16:21:36.273Z</time></trkpt><trkpt lat="43.79419" lon="6.7715063"><ele>1104.0</ele><time>2026-05-01T16:21:37.274Z</time></trkpt><trkpt lat="43.794215" lon="6.7711887"><ele>1103.0</ele><time>2026-05-01T16:21:38.273Z</time></trkpt><trkpt lat="43.7942531" lon="6.7708791"><ele>1102.0</ele><time>2026-05-01T16:21:39.273Z</time></trkpt><trkpt lat="43.7942844" lon="6.7705562"><ele>1102.0</ele><time>2026-05-01T16:21:40.273Z</time></trkpt><trkpt lat="43.7943131" lon="6.7702447"><ele>1102.0</ele><time>2026-05-01T16:21:41.273Z</time></trkpt><trkpt lat="43.7943528" lon="6.7699383"><ele>1105.0</ele><time>2026-05-01T16:21:42.274Z</time></trkpt><trkpt lat="43.7943917" lon="6.7696385"><ele>1108.0</ele><time>2026-05-01T16:21:43.273Z</time></trkpt><trkpt lat="43.7944148" lon="6.7693597"><ele>1111.0</ele><time>2026-05-01T16:21:44.273Z</time></trkpt><trkpt lat="43.7944231" lon="6.7690857"><ele>1111.0</ele><time>2026-05-01T16:21:45.273Z</time></trkpt><trkpt lat="43.7944191" lon="6.7688204"><ele>1111.0</ele><time>2026-05-01T16:21:46.273Z</time></trkpt><trkpt lat="43.7944176" lon="6.7685591"><ele>1111.0</ele><time>2026-05-01T16:21:47.273Z</time></trkpt><trkpt lat="43.7944221" lon="6.7682926"><ele>1110.0</ele><time>2026-05-01T16:21:48.273Z</time></trkpt><trkpt lat="43.7944388" lon="6.7680162"><ele>1109.0</ele><time>2026-05-01T16:21:49.273Z</time></trkpt><trkpt lat="43.7944711" lon="6.7677479"><ele>1108.0</ele><time>2026-05-01T16:21:50.273Z</time></trkpt><trkpt lat="43.7945055" lon="6.7674815"><ele>1107.6666666666665</ele><time>2026-05-01T16:21:51.273Z</time></trkpt><trkpt lat="43.7945542" lon="6.7672149"><ele>1107.3333333333333</ele><time>2026-05-01T16:21:52.273Z</time></trkpt><trkpt lat="43.7945953" lon="6.7669377"><ele>1107.0</ele><time>2026-05-01T16:21:53.273Z</time></trkpt><trkpt lat="43.7946347" lon="6.7666723"><ele>1107.0</ele><time>2026-05-01T16:21:54.274Z</time></trkpt><trkpt lat="43.7947001" lon="6.7661515"><ele>1107.0</ele><time>2026-05-01T16:21:56.274Z</time></trkpt><trkpt lat="43.7947231" lon="6.765905"><ele>1106.3333333333333</ele><time>2026-05-01T16:21:57.273Z</time></trkpt><trkpt lat="43.794743" lon="6.7656664"><ele>1105.6666666666665</ele><time>2026-05-01T16:21:58.273Z</time></trkpt><trkpt lat="43.7947564" lon="6.7654364"><ele>1105.0</ele><time>2026-05-01T16:21:59.273Z</time></trkpt><trkpt lat="43.7947711" lon="6.7652072"><ele>1103.6666666666665</ele><time>2026-05-01T16:22:00.273Z</time></trkpt><trkpt lat="43.7947978" lon="6.7649764"><ele>1102.3333333333333</ele><time>2026-05-01T16:22:01.273Z</time></trkpt><trkpt lat="43.7948354" lon="6.7647465"><ele>1101.0</ele><time>2026-05-01T16:22:02.274Z</time></trkpt><trkpt lat="43.7948901" lon="6.7645194"><ele>1099.6666666666667</ele><time>2026-05-01T16:22:03.274Z</time></trkpt><trkpt lat="43.7949512" lon="6.7642808"><ele>1098.3333333333335</ele><time>2026-05-01T16:22:04.273Z</time></trkpt><trkpt lat="43.7950175" lon="6.7640436"><ele>1097.0</ele><time>2026-05-01T16:22:05.273Z</time></trkpt><trkpt lat="43.7950756" lon="6.7638087"><ele>1097.0</ele><time>2026-05-01T16:22:06.273Z</time></trkpt><trkpt lat="43.7951329" lon="6.7635747"><ele>1097.0</ele><time>2026-05-01T16:22:07.273Z</time></trkpt><trkpt lat="43.7951939" lon="6.7633331"><ele>1097.0</ele><time>2026-05-01T16:22:08.273Z</time></trkpt><trkpt lat="43.7952335" lon="6.7631079"><ele>1102.0</ele><time>2026-05-01T16:22:09.273Z</time></trkpt><trkpt lat="43.7952581" lon="6.7628857"><ele>1107.0</ele><time>2026-05-01T16:22:10.273Z</time></trkpt><trkpt lat="43.7952662" lon="6.7626491"><ele>1112.0</ele><time>2026-05-01T16:22:11.273Z</time></trkpt><trkpt lat="43.7952731" lon="6.7624171"><ele>1112.0</ele><time>2026-05-01T16:22:12.273Z</time></trkpt><trkpt lat="43.7952663" lon="6.762191"><ele>1112.0</ele><time>2026-05-01T16:22:13.273Z</time></trkpt><trkpt lat="43.7952428" lon="6.7619606"><ele>1112.0</ele><time>2026-05-01T16:22:14.273Z</time></trkpt><trkpt lat="43.7952106" lon="6.7617291"><ele>1106.5</ele><time>2026-05-01T16:22:15.273Z</time></trkpt><trkpt lat="43.7951414" lon="6.7612615"><ele>1101.0</ele><time>2026-05-01T16:22:17.273Z</time></trkpt><trkpt lat="43.7951042" lon="6.7610298"><ele>1101.0</ele><time>2026-05-01T16:22:18.273Z</time></trkpt><trkpt lat="43.7950745" lon="6.7607984"><ele>1101.0</ele><time>2026-05-01T16:22:19.273Z</time></trkpt><trkpt lat="43.7950431" lon="6.7605696"><ele>1101.0</ele><time>2026-05-01T16:22:20.273Z</time></trkpt><trkpt lat="43.7950022" lon="6.7603429"><ele>1101.3333333333333</ele><time>2026-05-01T16:22:21.273Z</time></trkpt><trkpt lat="43.7949613" lon="6.7601201"><ele>1101.6666666666665</ele><time>2026-05-01T16:22:22.274Z</time></trkpt><trkpt lat="43.79492" lon="6.759905"><ele>1102.0</ele><time>2026-05-01T16:22:23.273Z</time></trkpt><trkpt lat="43.7948862" lon="6.7596924"><ele>1102.0</ele><time>2026-05-01T16:22:24.274Z</time></trkpt><trkpt lat="43.7948653" lon="6.7594727"><ele>1102.0</ele><time>2026-05-01T16:22:25.273Z</time></trkpt><trkpt lat="43.7948613" lon="6.7592422"><ele>1102.0</ele><time>2026-05-01T16:22:26.274Z</time></trkpt><trkpt lat="43.7948728" lon="6.7590103"><ele>1102.3333333333333</ele><time>2026-05-01T16:22:27.273Z</time></trkpt><trkpt lat="43.7948967" lon="6.7587703"><ele>1102.6666666666667</ele><time>2026-05-01T16:22:28.273Z</time></trkpt><trkpt lat="43.7949342" lon="6.7585329"><ele>1103.0</ele><time>2026-05-01T16:22:29.273Z</time></trkpt><trkpt lat="43.7949837" lon="6.7583022"><ele>1103.3333333333335</ele><time>2026-05-01T16:22:30.273Z</time></trkpt><trkpt lat="43.795035" lon="6.7580698"><ele>1103.6666666666667</ele><time>2026-05-01T16:22:31.273Z</time></trkpt><trkpt lat="43.7950833" lon="6.7578393"><ele>1104.0</ele><time>2026-05-01T16:22:32.273Z</time></trkpt><trkpt lat="43.7951096" lon="6.7576019"><ele>1104.0</ele><time>2026-05-01T16:22:33.273Z</time></trkpt><trkpt lat="43.7951109" lon="6.7573625"><ele>1104.0</ele><time>2026-05-01T16:22:34.274Z</time></trkpt><trkpt lat="43.7950877" lon="6.7571252"><ele>1104.0</ele><time>2026-05-01T16:22:35.274Z</time></trkpt><trkpt lat="43.7950523" lon="6.7568947"><ele>1105.0</ele><time>2026-05-01T16:22:36.273Z</time></trkpt><trkpt lat="43.7949802" lon="6.7564169"><ele>1106.0</ele><time>2026-05-01T16:22:38.273Z</time></trkpt><trkpt lat="43.79494" lon="6.7561736"><ele>1105.3333333333335</ele><time>2026-05-01T16:22:39.273Z</time></trkpt><trkpt lat="43.7949074" lon="6.7559287"><ele>1104.6666666666667</ele><time>2026-05-01T16:22:40.273Z</time></trkpt><trkpt lat="43.7948945" lon="6.755679"><ele>1104.0</ele><time>2026-05-01T16:22:41.273Z</time></trkpt><trkpt lat="43.7949071" lon="6.7554352"><ele>1103.6666666666667</ele><time>2026-05-01T16:22:42.274Z</time></trkpt><trkpt lat="43.7949411" lon="6.7551913"><ele>1103.3333333333335</ele><time>2026-05-01T16:22:43.273Z</time></trkpt><trkpt lat="43.7949932" lon="6.7549367"><ele>1103.0</ele><time>2026-05-01T16:22:44.273Z</time></trkpt><trkpt lat="43.7950541" lon="6.7546802"><ele>1103.0</ele><time>2026-05-01T16:22:45.273Z</time></trkpt><trkpt lat="43.7951181" lon="6.7544239"><ele>1103.0</ele><time>2026-05-01T16:22:46.273Z</time></trkpt><trkpt lat="43.7951751" lon="6.7541619"><ele>1103.0</ele><time>2026-05-01T16:22:47.274Z</time></trkpt><trkpt lat="43.7952378" lon="6.7539078"><ele>1105.6666666666667</ele><time>2026-05-01T16:22:48.273Z</time></trkpt><trkpt lat="43.7953093" lon="6.7536601"><ele>1108.3333333333333</ele><time>2026-05-01T16:22:49.273Z</time></trkpt><trkpt lat="43.7953863" lon="6.7534264"><ele>1111.0</ele><time>2026-05-01T16:22:50.273Z</time></trkpt><trkpt lat="43.7954601" lon="6.7532006"><ele>1111.0</ele><time>2026-05-01T16:22:51.273Z</time></trkpt><trkpt lat="43.7955093" lon="6.7529656"><ele>1111.0</ele><time>2026-05-01T16:22:52.274Z</time></trkpt><trkpt lat="43.7955296" lon="6.7527366"><ele>1111.0</ele><time>2026-05-01T16:22:53.273Z</time></trkpt><trkpt lat="43.7955234" lon="6.7525128"><ele>1110.6666666666665</ele><time>2026-05-01T16:22:54.273Z</time></trkpt><trkpt lat="43.7955013" lon="6.7522731"><ele>1110.3333333333333</ele><time>2026-05-01T16:22:55.273Z</time></trkpt><trkpt lat="43.7954795" lon="6.7520249"><ele>1110.0</ele><time>2026-05-01T16:22:56.273Z</time></trkpt><trkpt lat="43.7954695" lon="6.7517644"><ele>1109.5</ele><time>2026-05-01T16:22:57.273Z</time></trkpt><trkpt lat="43.7954292" lon="6.7512389"><ele>1109.0</ele><time>2026-05-01T16:22:59.273Z</time></trkpt><trkpt lat="43.7954122" lon="6.7509846"><ele>1108.0</ele><time>2026-05-01T16:23:00.273Z</time></trkpt><trkpt lat="43.7954083" lon="6.7507154"><ele>1107.0</ele><time>2026-05-01T16:23:01.274Z</time></trkpt><trkpt lat="43.7954187" lon="6.7504477"><ele>1106.0</ele><time>2026-05-01T16:23:02.273Z</time></trkpt><trkpt lat="43.7954497" lon="6.7501873"><ele>1103.6666666666667</ele><time>2026-05-01T16:23:03.274Z</time></trkpt><trkpt lat="43.7954903" lon="6.7499248"><ele>1101.3333333333333</ele><time>2026-05-01T16:23:04.273Z</time></trkpt><trkpt lat="43.7955253" lon="6.7496504"><ele>1099.0</ele><time>2026-05-01T16:23:05.274Z</time></trkpt><trkpt lat="43.7955518" lon="6.7493805"><ele>1097.0</ele><time>2026-05-01T16:23:06.273Z</time></trkpt><trkpt lat="43.7955665" lon="6.7491139"><ele>1095.0</ele><time>2026-05-01T16:23:07.273Z</time></trkpt><trkpt lat="43.7955596" lon="6.7488368"><ele>1093.0</ele><time>2026-05-01T16:23:08.273Z</time></trkpt><trkpt lat="43.7955381" lon="6.7485556"><ele>1092.0</ele><time>2026-05-01T16:23:09.273Z</time></trkpt><trkpt lat="43.7954983" lon="6.7482859"><ele>1091.0</ele><time>2026-05-01T16:23:10.273Z</time></trkpt><trkpt lat="43.7954505" lon="6.7480233"><ele>1090.0</ele><time>2026-05-01T16:23:11.273Z</time></trkpt><trkpt lat="43.795409" lon="6.7477589"><ele>1089.6666666666665</ele><time>2026-05-01T16:23:12.273Z</time></trkpt><trkpt lat="43.7953898" lon="6.7474956"><ele>1089.3333333333333</ele><time>2026-05-01T16:23:13.273Z</time></trkpt><trkpt lat="43.795412" lon="6.747236"><ele>1089.0</ele><time>2026-05-01T16:23:14.274Z</time></trkpt><trkpt lat="43.7954476" lon="6.7469868"><ele>1089.0</ele><time>2026-05-01T16:23:15.273Z</time></trkpt><trkpt lat="43.7955059" lon="6.7467446"><ele>1089.0</ele><time>2026-05-01T16:23:16.273Z</time></trkpt><trkpt lat="43.7955719" lon="6.7464865"><ele>1089.0</ele><time>2026-05-01T16:23:17.273Z</time></trkpt><trkpt lat="43.7956286" lon="6.7462297"><ele>1088.0</ele><time>2026-05-01T16:23:18.273Z</time></trkpt><trkpt lat="43.7956943" lon="6.7457116"><ele>1087.0</ele><time>2026-05-01T16:23:20.273Z</time></trkpt><trkpt lat="43.7957192" lon="6.7454413"><ele>1086.6666666666665</ele><time>2026-05-01T16:23:21.273Z</time></trkpt><trkpt lat="43.7957338" lon="6.7451683"><ele>1086.3333333333333</ele><time>2026-05-01T16:23:22.273Z</time></trkpt><trkpt lat="43.7957524" lon="6.7448945"><ele>1086.0</ele><time>2026-05-01T16:23:23.274Z</time></trkpt><trkpt lat="43.7957661" lon="6.7446271"><ele>1085.0</ele><time>2026-05-01T16:23:24.273Z</time></trkpt><trkpt lat="43.7957761" lon="6.7443581"><ele>1084.0</ele><time>2026-05-01T16:23:25.273Z</time></trkpt><trkpt lat="43.7957832" lon="6.7440957"><ele>1083.0</ele><time>2026-05-01T16:23:26.273Z</time></trkpt><trkpt lat="43.7957947" lon="6.7438289"><ele>1083.0</ele><time>2026-05-01T16:23:27.273Z</time></trkpt><trkpt lat="43.7958125" lon="6.7435625"><ele>1083.0</ele><time>2026-05-01T16:23:28.273Z</time></trkpt><trkpt lat="43.7958341" lon="6.7433042"><ele>1083.0</ele><time>2026-05-01T16:23:29.273Z</time></trkpt><trkpt lat="43.7958657" lon="6.7430533"><ele>1082.3333333333333</ele><time>2026-05-01T16:23:30.273Z</time></trkpt><trkpt lat="43.7959059" lon="6.7427982"><ele>1081.6666666666665</ele><time>2026-05-01T16:23:31.273Z</time></trkpt><trkpt lat="43.7959525" lon="6.7425435"><ele>1081.0</ele><time>2026-05-01T16:23:32.273Z</time></trkpt><trkpt lat="43.7959998" lon="6.7422825"><ele>1083.0</ele><time>2026-05-01T16:23:33.273Z</time></trkpt><trkpt lat="43.7960569" lon="6.7420193"><ele>1085.0</ele><time>2026-05-01T16:23:34.273Z</time></trkpt><trkpt lat="43.796111" lon="6.7417612"><ele>1087.0</ele><time>2026-05-01T16:23:35.273Z</time></trkpt><trkpt lat="43.7961678" lon="6.7415027"><ele>1087.0</ele><time>2026-05-01T16:23:36.273Z</time></trkpt><trkpt lat="43.7962353" lon="6.741258"><ele>1087.0</ele><time>2026-05-01T16:23:37.273Z</time></trkpt><trkpt lat="43.7963067" lon="6.7410163"><ele>1087.0</ele><time>2026-05-01T16:23:38.274Z</time></trkpt><trkpt lat="43.7963745" lon="6.7407655"><ele>1087.0</ele><time>2026-05-01T16:23:39.273Z</time></trkpt><trkpt lat="43.7965213" lon="6.7402609"><ele>1087.0</ele><time>2026-05-01T16:23:41.273Z</time></trkpt><trkpt lat="43.7965991" lon="6.7400072"><ele>1086.0</ele><time>2026-05-01T16:23:42.273Z</time></trkpt><trkpt lat="43.7966684" lon="6.7397521"><ele>1085.0</ele><time>2026-05-01T16:23:43.273Z</time></trkpt><trkpt lat="43.7967365" lon="6.7395022"><ele>1084.0</ele><time>2026-05-01T16:23:44.274Z</time></trkpt><trkpt lat="43.7968034" lon="6.7392648"><ele>1088.0</ele><time>2026-05-01T16:23:45.273Z</time></trkpt><trkpt lat="43.7968669" lon="6.7390225"><ele>1092.0</ele><time>2026-05-01T16:23:46.273Z</time></trkpt><trkpt lat="43.7969224" lon="6.7387806"><ele>1096.0</ele><time>2026-05-01T16:23:47.273Z</time></trkpt><trkpt lat="43.7969719" lon="6.7385574"><ele>1095.0</ele><time>2026-05-01T16:23:48.273Z</time></trkpt><trkpt lat="43.7970208" lon="6.7383382"><ele>1094.0</ele><time>2026-05-01T16:23:49.273Z</time></trkpt><trkpt lat="43.7970585" lon="6.7381136"><ele>1093.0</ele><time>2026-05-01T16:23:50.273Z</time></trkpt><trkpt lat="43.797093" lon="6.7378781"><ele>1092.3333333333333</ele><time>2026-05-01T16:23:51.274Z</time></trkpt><trkpt lat="43.7971215" lon="6.7376341"><ele>1091.6666666666667</ele><time>2026-05-01T16:23:52.273Z</time></trkpt><trkpt lat="43.7971466" lon="6.7373905"><ele>1091.0</ele><time>2026-05-01T16:23:53.273Z</time></trkpt><trkpt lat="43.7971697" lon="6.7371527"><ele>1091.0</ele><time>2026-05-01T16:23:54.273Z</time></trkpt><trkpt lat="43.7971902" lon="6.7369173"><ele>1091.0</ele><time>2026-05-01T16:23:55.273Z</time></trkpt><trkpt lat="43.7972186" lon="6.7366782"><ele>1091.0</ele><time>2026-05-01T16:23:56.274Z</time></trkpt><trkpt lat="43.7972428" lon="6.7364294"><ele>1091.3333333333335</ele><time>2026-05-01T16:23:57.273Z</time></trkpt><trkpt lat="43.7972635" lon="6.7361777"><ele>1091.6666666666667</ele><time>2026-05-01T16:23:58.273Z</time></trkpt><trkpt lat="43.7972771" lon="6.7359323"><ele>1092.0</ele><time>2026-05-01T16:23:59.273Z</time></trkpt><trkpt lat="43.7972796" lon="6.7356878"><ele>1093.0</ele><time>2026-05-01T16:24:00.273Z</time></trkpt><trkpt lat="43.7972198" lon="6.7352499"><ele>1094.0</ele><time>2026-05-01T16:24:02.273Z</time></trkpt><trkpt lat="43.7971753" lon="6.735046"><ele>1094.0</ele><time>2026-05-01T16:24:03.273Z</time></trkpt><trkpt lat="43.7971371" lon="6.7348393"><ele>1094.0</ele><time>2026-05-01T16:24:04.273Z</time></trkpt><trkpt lat="43.7970984" lon="6.7346417"><ele>1094.0</ele><time>2026-05-01T16:24:05.273Z</time></trkpt><trkpt lat="43.797077" lon="6.7344341"><ele>1093.6666666666667</ele><time>2026-05-01T16:24:06.273Z</time></trkpt><trkpt lat="43.7970729" lon="6.7342269"><ele>1093.3333333333333</ele><time>2026-05-01T16:24:07.273Z</time></trkpt><trkpt lat="43.7970835" lon="6.7340155"><ele>1093.0</ele><time>2026-05-01T16:24:08.273Z</time></trkpt><trkpt lat="43.7970999" lon="6.7338045"><ele>1093.0</ele><time>2026-05-01T16:24:09.273Z</time></trkpt><trkpt lat="43.7971292" lon="6.7335834"><ele>1093.0</ele><time>2026-05-01T16:24:10.273Z</time></trkpt><trkpt lat="43.7971625" lon="6.7333521"><ele>1093.0</ele><time>2026-05-01T16:24:11.273Z</time></trkpt><trkpt lat="43.7972035" lon="6.7331123"><ele>1093.0</ele><time>2026-05-01T16:24:12.273Z</time></trkpt><trkpt lat="43.7972501" lon="6.7328624"><ele>1093.0</ele><time>2026-05-01T16:24:13.273Z</time></trkpt><trkpt lat="43.7972951" lon="6.7326015"><ele>1093.0</ele><time>2026-05-01T16:24:14.273Z</time></trkpt><trkpt lat="43.7973493" lon="6.7323429"><ele>1093.0</ele><time>2026-05-01T16:24:15.273Z</time></trkpt><trkpt lat="43.7974078" lon="6.7320706"><ele>1093.0</ele><time>2026-05-01T16:24:16.273Z</time></trkpt><trkpt lat="43.7974637" lon="6.7317888"><ele>1093.0</ele><time>2026-05-01T16:24:17.273Z</time></trkpt><trkpt lat="43.7975184" lon="6.7314988"><ele>1092.6666666666665</ele><time>2026-05-01T16:24:18.273Z</time></trkpt><trkpt lat="43.7975695" lon="6.7312099"><ele>1092.3333333333333</ele><time>2026-05-01T16:24:19.273Z</time></trkpt><trkpt lat="43.7976038" lon="6.7309226"><ele>1092.0</ele><time>2026-05-01T16:24:20.273Z</time></trkpt><trkpt lat="43.7976294" lon="6.7306165"><ele>1096.5</ele><time>2026-05-01T16:24:21.273Z</time></trkpt><trkpt lat="43.7976738" lon="6.7300274"><ele>1101.0</ele><time>2026-05-01T16:24:23.274Z</time></trkpt><trkpt lat="43.7976938" lon="6.7297357"><ele>1101.0</ele><time>2026-05-01T16:24:24.274Z</time></trkpt><trkpt lat="43.7977104" lon="6.7294407"><ele>1101.0</ele><time>2026-05-01T16:24:25.274Z</time></trkpt><trkpt lat="43.7977259" lon="6.7291357"><ele>1101.0</ele><time>2026-05-01T16:24:26.273Z</time></trkpt><trkpt lat="43.7977333" lon="6.7288292"><ele>1101.0</ele><time>2026-05-01T16:24:27.273Z</time></trkpt><trkpt lat="43.7977395" lon="6.728531"><ele>1101.0</ele><time>2026-05-01T16:24:28.273Z</time></trkpt><trkpt lat="43.7977475" lon="6.7282299"><ele>1101.0</ele><time>2026-05-01T16:24:29.273Z</time></trkpt><trkpt lat="43.7977516" lon="6.7279254"><ele>1100.3333333333333</ele><time>2026-05-01T16:24:30.273Z</time></trkpt><trkpt lat="43.7977572" lon="6.7276163"><ele>1099.6666666666665</ele><time>2026-05-01T16:24:31.273Z</time></trkpt><trkpt lat="43.7977554" lon="6.7273161"><ele>1099.0</ele><time>2026-05-01T16:24:32.273Z</time></trkpt><trkpt lat="43.7977607" lon="6.7270205"><ele>1098.3333333333333</ele><time>2026-05-01T16:24:33.273Z</time></trkpt><trkpt lat="43.7977469" lon="6.7267356"><ele>1097.6666666666667</ele><time>2026-05-01T16:24:34.274Z</time></trkpt><trkpt lat="43.7977139" lon="6.7264549"><ele>1097.0</ele><time>2026-05-01T16:24:35.273Z</time></trkpt><trkpt lat="43.79766" lon="6.7261906"><ele>1093.6666666666667</ele><time>2026-05-01T16:24:36.273Z</time></trkpt><trkpt lat="43.7975956" lon="6.725934"><ele>1090.3333333333333</ele><time>2026-05-01T16:24:37.273Z</time></trkpt><trkpt lat="43.7975396" lon="6.72567"><ele>1087.0</ele><time>2026-05-01T16:24:38.273Z</time></trkpt><trkpt lat="43.7974939" lon="6.7253989"><ele>1087.3333333333333</ele><time>2026-05-01T16:24:39.273Z</time></trkpt><trkpt lat="43.797453" lon="6.7251216"><ele>1087.6666666666667</ele><time>2026-05-01T16:24:40.273Z</time></trkpt><trkpt lat="43.7974252" lon="6.7248313"><ele>1088.0</ele><time>2026-05-01T16:24:41.273Z</time></trkpt><trkpt lat="43.7973988" lon="6.7245446"><ele>1088.5</ele><time>2026-05-01T16:24:42.273Z</time></trkpt><trkpt lat="43.7973548" lon="6.7239609"><ele>1089.0</ele><time>2026-05-01T16:24:44.273Z</time></trkpt><trkpt lat="43.7973188" lon="6.7236673"><ele>1089.6666666666667</ele><time>2026-05-01T16:24:45.273Z</time></trkpt><trkpt lat="43.7972687" lon="6.7233742"><ele>1090.3333333333335</ele><time>2026-05-01T16:24:46.274Z</time></trkpt><trkpt lat="43.7972048" lon="6.7230836"><ele>1091.0</ele><time>2026-05-01T16:24:47.273Z</time></trkpt><trkpt lat="43.7971465" lon="6.7228009"><ele>1092.6666666666667</ele><time>2026-05-01T16:24:48.273Z</time></trkpt><trkpt lat="43.7970954" lon="6.7225217"><ele>1094.3333333333333</ele><time>2026-05-01T16:24:49.274Z</time></trkpt><trkpt lat="43.7970493" lon="6.7222338"><ele>1096.0</ele><time>2026-05-01T16:24:50.273Z</time></trkpt><trkpt lat="43.7970165" lon="6.7219482"><ele>1096.3333333333333</ele><time>2026-05-01T16:24:51.273Z</time></trkpt><trkpt lat="43.7969924" lon="6.721672"><ele>1096.6666666666667</ele><time>2026-05-01T16:24:52.274Z</time></trkpt><trkpt lat="43.7969895" lon="6.7213951"><ele>1097.0</ele><time>2026-05-01T16:24:53.274Z</time></trkpt><trkpt lat="43.7969812" lon="6.7211111"><ele>1095.3333333333335</ele><time>2026-05-01T16:24:54.273Z</time></trkpt><trkpt lat="43.796968" lon="6.7208202"><ele>1093.6666666666667</ele><time>2026-05-01T16:24:55.273Z</time></trkpt><trkpt lat="43.7969494" lon="6.7205257"><ele>1092.0</ele><time>2026-05-01T16:24:56.273Z</time></trkpt><trkpt lat="43.7969226" lon="6.7202417"><ele>1091.0</ele><time>2026-05-01T16:24:57.273Z</time></trkpt><trkpt lat="43.7968953" lon="6.7199441"><ele>1090.0</ele><time>2026-05-01T16:24:58.273Z</time></trkpt><trkpt lat="43.7968732" lon="6.7196486"><ele>1089.0</ele><time>2026-05-01T16:24:59.274Z</time></trkpt><trkpt lat="43.7968358" lon="6.7193568"><ele>1086.6666666666667</ele><time>2026-05-01T16:25:00.273Z</time></trkpt><trkpt lat="43.796777" lon="6.7190797"><ele>1084.3333333333335</ele><time>2026-05-01T16:25:01.273Z</time></trkpt><trkpt lat="43.7967012" lon="6.7187986"><ele>1082.0</ele><time>2026-05-01T16:25:02.273Z</time></trkpt><trkpt lat="43.7966167" lon="6.7185217"><ele>1082.0</ele><time>2026-05-01T16:25:03.273Z</time></trkpt><trkpt lat="43.7964469" lon="6.7179711"><ele>1082.0</ele><time>2026-05-01T16:25:05.273Z</time></trkpt><trkpt lat="43.7963832" lon="6.7176905"><ele>1082.0</ele><time>2026-05-01T16:25:06.273Z</time></trkpt><trkpt lat="43.796333" lon="6.7174136"><ele>1082.0</ele><time>2026-05-01T16:25:07.273Z</time></trkpt><trkpt lat="43.7963067" lon="6.7171449"><ele>1082.0</ele><time>2026-05-01T16:25:08.273Z</time></trkpt><trkpt lat="43.7963082" lon="6.7168761"><ele>1082.0</ele><time>2026-05-01T16:25:09.273Z</time></trkpt><trkpt lat="43.796319" lon="6.7165954"><ele>1082.0</ele><time>2026-05-01T16:25:10.273Z</time></trkpt><trkpt lat="43.7963213" lon="6.7163195"><ele>1082.0</ele><time>2026-05-01T16:25:11.273Z</time></trkpt><trkpt lat="43.7963163" lon="6.7160352"><ele>1082.0</ele><time>2026-05-01T16:25:12.273Z</time></trkpt><trkpt lat="43.7963093" lon="6.7157469"><ele>1082.0</ele><time>2026-05-01T16:25:13.273Z</time></trkpt><trkpt lat="43.7963025" lon="6.7154558"><ele>1082.0</ele><time>2026-05-01T16:25:14.273Z</time></trkpt><trkpt lat="43.7962965" lon="6.715166"><ele>1081.3333333333335</ele><time>2026-05-01T16:25:15.273Z</time></trkpt><trkpt lat="43.7962927" lon="6.714889"><ele>1080.6666666666667</ele><time>2026-05-01T16:25:16.273Z</time></trkpt><trkpt lat="43.7962851" lon="6.7146142"><ele>1080.0</ele><time>2026-05-01T16:25:17.273Z</time></trkpt><trkpt lat="43.7962735" lon="6.7143382"><ele>1079.3333333333333</ele><time>2026-05-01T16:25:18.273Z</time></trkpt><trkpt lat="43.7962551" lon="6.7140514"><ele>1078.6666666666665</ele><time>2026-05-01T16:25:19.273Z</time></trkpt><trkpt lat="43.7962216" lon="6.7137728"><ele>1078.0</ele><time>2026-05-01T16:25:20.273Z</time></trkpt><trkpt lat="43.7961729" lon="6.7135011"><ele>1077.6666666666665</ele><time>2026-05-01T16:25:21.273Z</time></trkpt><trkpt lat="43.796109" lon="6.7132324"><ele>1077.3333333333333</ele><time>2026-05-01T16:25:22.273Z</time></trkpt><trkpt lat="43.7960382" lon="6.7129658"><ele>1077.0</ele><time>2026-05-01T16:25:23.273Z</time></trkpt><trkpt lat="43.7959625" lon="6.7126963"><ele>1076.0</ele><time>2026-05-01T16:25:24.273Z</time></trkpt><trkpt lat="43.7958395" lon="6.7121425"><ele>1075.0</ele><time>2026-05-01T16:25:26.273Z</time></trkpt><trkpt lat="43.7957846" lon="6.711868"><ele>1075.0</ele><time>2026-05-01T16:25:27.273Z</time></trkpt><trkpt lat="43.7957372" lon="6.7115904"><ele>1075.0</ele><time>2026-05-01T16:25:28.273Z</time></trkpt><trkpt lat="43.7956876" lon="6.711312"><ele>1075.0</ele><time>2026-05-01T16:25:29.273Z</time></trkpt><trkpt lat="43.7956354" lon="6.7110336"><ele>1075.0</ele><time>2026-05-01T16:25:30.273Z</time></trkpt><trkpt lat="43.7955729" lon="6.710766"><ele>1075.0</ele><time>2026-05-01T16:25:31.273Z</time></trkpt><trkpt lat="43.7954888" lon="6.7105091"><ele>1075.0</ele><time>2026-05-01T16:25:32.273Z</time></trkpt><trkpt lat="43.7953808" lon="6.7102631"><ele>1075.6666666666665</ele><time>2026-05-01T16:25:33.273Z</time></trkpt><trkpt lat="43.7952641" lon="6.7100274"><ele>1076.3333333333333</ele><time>2026-05-01T16:25:34.273Z</time></trkpt><trkpt lat="43.7951437" lon="6.7098114"><ele>1077.0</ele><time>2026-05-01T16:25:35.273Z</time></trkpt><trkpt lat="43.7950399" lon="6.709577"><ele>1077.0</ele><time>2026-05-01T16:25:36.273Z</time></trkpt><trkpt lat="43.79496" lon="6.7093206"><ele>1077.0</ele><time>2026-05-01T16:25:37.274Z</time></trkpt><trkpt lat="43.794911" lon="6.7090538"><ele>1077.0</ele><time>2026-05-01T16:25:38.273Z</time></trkpt><trkpt lat="43.7948916" lon="6.7087865"><ele>1077.3333333333333</ele><time>2026-05-01T16:25:39.273Z</time></trkpt><trkpt lat="43.7948856" lon="6.7085125"><ele>1077.6666666666665</ele><time>2026-05-01T16:25:40.273Z</time></trkpt><trkpt lat="43.7948733" lon="6.7082364"><ele>1078.0</ele><time>2026-05-01T16:25:41.273Z</time></trkpt><trkpt lat="43.7948607" lon="6.7079506"><ele>1077.6666666666665</ele><time>2026-05-01T16:25:42.273Z</time></trkpt><trkpt lat="43.7948528" lon="6.7076638"><ele>1077.3333333333333</ele><time>2026-05-01T16:25:43.273Z</time></trkpt><trkpt lat="43.7948437" lon="6.7073801"><ele>1077.0</ele><time>2026-05-01T16:25:44.273Z</time></trkpt><trkpt lat="43.7948428" lon="6.7071025"><ele>1077.0</ele><time>2026-05-01T16:25:45.273Z</time></trkpt><trkpt lat="43.794867" lon="6.7065536"><ele>1077.0</ele><time>2026-05-01T16:25:47.273Z</time></trkpt><trkpt lat="43.7948913" lon="6.7062841"><ele>1077.3333333333333</ele><time>2026-05-01T16:25:48.273Z</time></trkpt><trkpt lat="43.7949145" lon="6.7060178"><ele>1077.6666666666665</ele><time>2026-05-01T16:25:49.273Z</time></trkpt><trkpt lat="43.7949317" lon="6.7057379"><ele>1078.0</ele><time>2026-05-01T16:25:50.273Z</time></trkpt><trkpt lat="43.7949426" lon="6.7054553"><ele>1078.3333333333333</ele><time>2026-05-01T16:25:51.273Z</time></trkpt><trkpt lat="43.7949404" lon="6.7051727"><ele>1078.6666666666667</ele><time>2026-05-01T16:25:52.273Z</time></trkpt><trkpt lat="43.7949305" lon="6.7048836"><ele>1079.0</ele><time>2026-05-01T16:25:53.273Z</time></trkpt><trkpt lat="43.7949157" lon="6.7045952"><ele>1079.3333333333335</ele><time>2026-05-01T16:25:54.273Z</time></trkpt><trkpt lat="43.7948954" lon="6.7043067"><ele>1079.6666666666667</ele><time>2026-05-01T16:25:55.273Z</time></trkpt><trkpt lat="43.7948748" lon="6.7040114"><ele>1080.0</ele><time>2026-05-01T16:25:56.273Z</time></trkpt><trkpt lat="43.7948437" lon="6.7037264"><ele>1079.6666666666667</ele><time>2026-05-01T16:25:57.273Z</time></trkpt><trkpt lat="43.7948007" lon="6.7034506"><ele>1079.3333333333335</ele><time>2026-05-01T16:25:58.274Z</time></trkpt><trkpt lat="43.7947454" lon="6.7031877"><ele>1079.0</ele><time>2026-05-01T16:25:59.273Z</time></trkpt><trkpt lat="43.7946817" lon="6.702921"><ele>1079.6666666666667</ele><time>2026-05-01T16:26:00.273Z</time></trkpt><trkpt lat="43.7946198" lon="6.7026431"><ele>1080.3333333333333</ele><time>2026-05-01T16:26:01.273Z</time></trkpt><trkpt lat="43.794569" lon="6.7023659"><ele>1081.0</ele><time>2026-05-01T16:26:02.273Z</time></trkpt><trkpt lat="43.7945322" lon="6.7020842"><ele>1081.6666666666665</ele><time>2026-05-01T16:26:03.273Z</time></trkpt><trkpt lat="43.7945022" lon="6.7018006"><ele>1082.3333333333333</ele><time>2026-05-01T16:26:04.274Z</time></trkpt><trkpt lat="43.7944768" lon="6.7015224"><ele>1083.0</ele><time>2026-05-01T16:26:05.273Z</time></trkpt><trkpt lat="43.7944668" lon="6.7012398"><ele>1084.0</ele><time>2026-05-01T16:26:06.273Z</time></trkpt><trkpt lat="43.7944558" lon="6.7006677"><ele>1085.0</ele><time>2026-05-01T16:26:08.273Z</time></trkpt><trkpt lat="43.7944531" lon="6.7003814"><ele>1085.3333333333335</ele><time>2026-05-01T16:26:09.273Z</time></trkpt><trkpt lat="43.7944575" lon="6.7000919"><ele>1085.6666666666667</ele><time>2026-05-01T16:26:10.274Z</time></trkpt><trkpt lat="43.7944624" lon="6.6998066"><ele>1086.0</ele><time>2026-05-01T16:26:11.273Z</time></trkpt><trkpt lat="43.794457" lon="6.6995261"><ele>1086.0</ele><time>2026-05-01T16:26:12.274Z</time></trkpt><trkpt lat="43.794439" lon="6.6992474"><ele>1086.0</ele><time>2026-05-01T16:26:13.273Z</time></trkpt><trkpt lat="43.794412" lon="6.6989585"><ele>1086.0</ele><time>2026-05-01T16:26:14.273Z</time></trkpt><trkpt lat="43.7943874" lon="6.6986711"><ele>1084.6666666666667</ele><time>2026-05-01T16:26:15.273Z</time></trkpt><trkpt lat="43.7943754" lon="6.6983737"><ele>1083.3333333333335</ele><time>2026-05-01T16:26:16.273Z</time></trkpt><trkpt lat="43.7943753" lon="6.6980725"><ele>1082.0</ele><time>2026-05-01T16:26:17.273Z</time></trkpt><trkpt lat="43.7943841" lon="6.6977683"><ele>1081.3333333333335</ele><time>2026-05-01T16:26:18.273Z</time></trkpt><trkpt lat="43.7943973" lon="6.6974629"><ele>1080.6666666666667</ele><time>2026-05-01T16:26:19.273Z</time></trkpt><trkpt lat="43.7943968" lon="6.6971473"><ele>1080.0</ele><time>2026-05-01T16:26:20.273Z</time></trkpt><trkpt lat="43.7943822" lon="6.6968274"><ele>1080.0</ele><time>2026-05-01T16:26:21.273Z</time></trkpt><trkpt lat="43.7943569" lon="6.6965086"><ele>1080.0</ele><time>2026-05-01T16:26:22.273Z</time></trkpt><trkpt lat="43.7943249" lon="6.6961899"><ele>1077.5</ele><time>2026-05-01T16:26:23.273Z</time></trkpt><trkpt lat="43.7942898" lon="6.6958703"><ele>1075.0</ele><time>2026-05-01T16:26:24.273Z</time></trkpt><trkpt lat="43.794252" lon="6.6955531"><ele>1074.5</ele><time>2026-05-01T16:26:25.273Z</time></trkpt><trkpt lat="43.7942179" lon="6.6952352"><ele>1074.0</ele><time>2026-05-01T16:26:26.274Z</time></trkpt><trkpt lat="43.7941894" lon="6.6949186"><ele>1075.0</ele><time>2026-05-01T16:26:27.273Z</time></trkpt><trkpt lat="43.7941549" lon="6.6943005"><ele>1076.0</ele><time>2026-05-01T16:26:29.274Z</time></trkpt><trkpt lat="43.7941351" lon="6.6939963"><ele>1076.0</ele><time>2026-05-01T16:26:30.273Z</time></trkpt><trkpt lat="43.794104" lon="6.693693"><ele>1076.0</ele><time>2026-05-01T16:26:31.273Z</time></trkpt><trkpt lat="43.7940566" lon="6.6933898"><ele>1076.0</ele><time>2026-05-01T16:26:32.273Z</time></trkpt><trkpt lat="43.7939852" lon="6.6930948"><ele>1076.0</ele><time>2026-05-01T16:26:33.273Z</time></trkpt><trkpt lat="43.7938918" lon="6.6928109"><ele>1076.0</ele><time>2026-05-01T16:26:34.273Z</time></trkpt><trkpt lat="43.7937926" lon="6.69253"><ele>1076.6666666666667</ele><time>2026-05-01T16:26:35.274Z</time></trkpt><trkpt lat="43.7937097" lon="6.6922377"><ele>1077.3333333333333</ele><time>2026-05-01T16:26:36.273Z</time></trkpt><trkpt lat="43.793613" lon="6.6919597"><ele>1078.0</ele><time>2026-05-01T16:26:37.273Z</time></trkpt><trkpt lat="43.7935308" lon="6.6916822"><ele>1076.0</ele><time>2026-05-01T16:26:38.273Z</time></trkpt><trkpt lat="43.7934656" lon="6.6914051"><ele>1074.0</ele><time>2026-05-01T16:26:39.273Z</time></trkpt><trkpt lat="43.7934142" lon="6.6911195"><ele>1072.0</ele><time>2026-05-01T16:26:40.273Z</time></trkpt><trkpt lat="43.7933726" lon="6.6908251"><ele>1072.0</ele><time>2026-05-01T16:26:41.273Z</time></trkpt><trkpt lat="43.7933344" lon="6.6905286"><ele>1072.0</ele><time>2026-05-01T16:26:42.273Z</time></trkpt><trkpt lat="43.7932975" lon="6.6902375"><ele>1072.0</ele><time>2026-05-01T16:26:43.273Z</time></trkpt><trkpt lat="43.793263" lon="6.6899433"><ele>1072.0</ele><time>2026-05-01T16:26:44.273Z</time></trkpt><trkpt lat="43.7932307" lon="6.6896369"><ele>1072.0</ele><time>2026-05-01T16:26:45.273Z</time></trkpt><trkpt lat="43.7932195" lon="6.6893238"><ele>1071.3333333333333</ele><time>2026-05-01T16:26:46.273Z</time></trkpt><trkpt lat="43.7932326" lon="6.6890138"><ele>1070.6666666666667</ele><time>2026-05-01T16:26:47.273Z</time></trkpt><trkpt lat="43.7932615" lon="6.6887162"><ele>1070.0</ele><time>2026-05-01T16:26:48.274Z</time></trkpt><trkpt lat="43.7933723" lon="6.6881375"><ele>1069.0</ele><time>2026-05-01T16:26:50.273Z</time></trkpt><trkpt lat="43.7934462" lon="6.6878598"><ele>1068.0</ele><time>2026-05-01T16:26:51.273Z</time></trkpt><trkpt lat="43.7935242" lon="6.6875741"><ele>1067.0</ele><time>2026-05-01T16:26:52.273Z</time></trkpt><trkpt lat="43.7936016" lon="6.6872897"><ele>1072.3333333333335</ele><time>2026-05-01T16:26:53.273Z</time></trkpt><trkpt lat="43.7936696" lon="6.6870001"><ele>1077.6666666666667</ele><time>2026-05-01T16:26:54.273Z</time></trkpt><trkpt lat="43.7937202" lon="6.6867121"><ele>1083.0</ele><time>2026-05-01T16:26:55.274Z</time></trkpt><trkpt lat="43.7937497" lon="6.6864218"><ele>1083.6666666666667</ele><time>2026-05-01T16:26:56.273Z</time></trkpt><trkpt lat="43.7937703" lon="6.6861186"><ele>1084.3333333333335</ele><time>2026-05-01T16:26:57.273Z</time></trkpt><trkpt lat="43.7937788" lon="6.685821"><ele>1085.0</ele><time>2026-05-01T16:26:58.274Z</time></trkpt><trkpt lat="43.7937762" lon="6.6855254"><ele>1085.3333333333335</ele><time>2026-05-01T16:26:59.273Z</time></trkpt><trkpt lat="43.7937822" lon="6.6852252"><ele>1085.6666666666667</ele><time>2026-05-01T16:27:00.273Z</time></trkpt><trkpt lat="43.7938012" lon="6.6849177"><ele>1086.0</ele><time>2026-05-01T16:27:01.273Z</time></trkpt><trkpt lat="43.7938174" lon="6.6846178"><ele>1085.6666666666667</ele><time>2026-05-01T16:27:02.273Z</time></trkpt><trkpt lat="43.7938367" lon="6.6843194"><ele>1085.3333333333335</ele><time>2026-05-01T16:27:03.273Z</time></trkpt><trkpt lat="43.7938656" lon="6.6840232"><ele>1085.0</ele><time>2026-05-01T16:27:04.273Z</time></trkpt><trkpt lat="43.7938794" lon="6.6836996"><ele>1084.5</ele><time>2026-05-01T16:27:05.274Z</time></trkpt><trkpt lat="43.7938839" lon="6.6833759"><ele>1084.0</ele><time>2026-05-01T16:27:06.273Z</time></trkpt><trkpt lat="43.7938891" lon="6.683062"><ele>1083.3333333333333</ele><time>2026-05-01T16:27:07.273Z</time></trkpt><trkpt lat="43.7939017" lon="6.6827559"><ele>1082.6666666666667</ele><time>2026-05-01T16:27:08.273Z</time></trkpt><trkpt lat="43.793919" lon="6.6824504"><ele>1082.0</ele><time>2026-05-01T16:27:09.273Z</time></trkpt><trkpt lat="43.7939551" lon="6.6818246"><ele>1079.5</ele><time>2026-05-01T16:27:11.273Z</time></trkpt><trkpt lat="43.7939613" lon="6.6815038"><ele>1077.0</ele><time>2026-05-01T16:27:12.274Z</time></trkpt><trkpt lat="43.793961" lon="6.6811907"><ele>1077.3333333333333</ele><time>2026-05-01T16:27:13.273Z</time></trkpt><trkpt lat="43.7939553" lon="6.6808907"><ele>1077.6666666666665</ele><time>2026-05-01T16:27:14.273Z</time></trkpt><trkpt lat="43.7939488" lon="6.6806004"><ele>1078.0</ele><time>2026-05-01T16:27:15.273Z</time></trkpt><trkpt lat="43.7939417" lon="6.6803341"><ele>1076.6666666666665</ele><time>2026-05-01T16:27:16.273Z</time></trkpt><trkpt lat="43.7939359" lon="6.6800727"><ele>1075.3333333333333</ele><time>2026-05-01T16:27:17.274Z</time></trkpt><trkpt lat="43.7939224" lon="6.6798187"><ele>1074.0</ele><time>2026-05-01T16:27:18.273Z</time></trkpt><trkpt lat="43.7939025" lon="6.6795835"><ele>1072.5</ele><time>2026-05-01T16:27:19.273Z</time></trkpt><trkpt lat="43.7938692" lon="6.6793811"><ele>1071.0</ele><time>2026-05-01T16:27:20.273Z</time></trkpt><trkpt lat="43.7938332" lon="6.6791966"><ele>1069.5</ele><time>2026-05-01T16:27:21.273Z</time></trkpt><trkpt lat="43.7937871" lon="6.679017"><ele>1068.0</ele><time>2026-05-01T16:27:22.273Z</time></trkpt><trkpt lat="43.7937279" lon="6.6788437"><ele>1068.0</ele><time>2026-05-01T16:27:23.273Z</time></trkpt><trkpt lat="43.7936654" lon="6.6786879"><ele>1068.0</ele><time>2026-05-01T16:27:24.273Z</time></trkpt><trkpt lat="43.7936106" lon="6.6785333"><ele>1068.0</ele><time>2026-05-01T16:27:25.273Z</time></trkpt><trkpt lat="43.7935541" lon="6.6783809"><ele>1068.0</ele><time>2026-05-01T16:27:26.273Z</time></trkpt><trkpt lat="43.7934935" lon="6.6782247"><ele>1068.0</ele><time>2026-05-01T16:27:27.273Z</time></trkpt><trkpt lat="43.7934376" lon="6.678075"><ele>1068.0</ele><time>2026-05-01T16:27:28.273Z</time></trkpt><trkpt lat="43.7933735" lon="6.6779153"><ele>1068.0</ele><time>2026-05-01T16:27:29.273Z</time></trkpt><trkpt lat="43.7933117" lon="6.6777453"><ele>1068.0</ele><time>2026-05-01T16:27:30.274Z</time></trkpt><trkpt lat="43.7931978" lon="6.6773649"><ele>1068.0</ele><time>2026-05-01T16:27:32.273Z</time></trkpt><trkpt lat="43.7931325" lon="6.6771595"><ele>1068.0</ele><time>2026-05-01T16:27:33.273Z</time></trkpt><trkpt lat="43.7930684" lon="6.6769603"><ele>1068.0</ele><time>2026-05-01T16:27:34.273Z</time></trkpt><trkpt lat="43.7930049" lon="6.6767517"><ele>1069.3333333333333</ele><time>2026-05-01T16:27:35.273Z</time></trkpt><trkpt lat="43.7929419" lon="6.6765257"><ele>1070.6666666666665</ele><time>2026-05-01T16:27:36.273Z</time></trkpt><trkpt lat="43.7928804" lon="6.676309"><ele>1072.0</ele><time>2026-05-01T16:27:37.274Z</time></trkpt><trkpt lat="43.7928196" lon="6.676089"><ele>1073.6666666666665</ele><time>2026-05-01T16:27:38.273Z</time></trkpt><trkpt lat="43.7927637" lon="6.6758818"><ele>1075.3333333333333</ele><time>2026-05-01T16:27:39.273Z</time></trkpt><trkpt lat="43.792706" lon="6.6756587"><ele>1077.0</ele><time>2026-05-01T16:27:40.273Z</time></trkpt><trkpt lat="43.7926494" lon="6.6754274"><ele>1072.3333333333333</ele><time>2026-05-01T16:27:41.273Z</time></trkpt><trkpt lat="43.7925963" lon="6.6751845"><ele>1067.6666666666665</ele><time>2026-05-01T16:27:42.273Z</time></trkpt><trkpt lat="43.792555" lon="6.6749217"><ele>1063.0</ele><time>2026-05-01T16:27:43.273Z</time></trkpt><trkpt lat="43.7925221" lon="6.6746495"><ele>1063.3333333333333</ele><time>2026-05-01T16:27:44.273Z</time></trkpt><trkpt lat="43.7924925" lon="6.6743792"><ele>1063.6666666666667</ele><time>2026-05-01T16:27:45.273Z</time></trkpt><trkpt lat="43.7924581" lon="6.6741019"><ele>1064.0</ele><time>2026-05-01T16:27:46.274Z</time></trkpt><trkpt lat="43.7924155" lon="6.6738139"><ele>1064.3333333333335</ele><time>2026-05-01T16:27:47.273Z</time></trkpt><trkpt lat="43.7923674" lon="6.6735163"><ele>1064.6666666666667</ele><time>2026-05-01T16:27:48.273Z</time></trkpt><trkpt lat="43.7923217" lon="6.6732127"><ele>1065.0</ele><time>2026-05-01T16:27:49.274Z</time></trkpt><trkpt lat="43.7922776" lon="6.6728977"><ele>1066.5</ele><time>2026-05-01T16:27:50.273Z</time></trkpt><trkpt lat="43.7922291" lon="6.6725802"><ele>1068.0</ele><time>2026-05-01T16:27:51.273Z</time></trkpt><trkpt lat="43.7921366" lon="6.6719214"><ele>1068.0</ele><time>2026-05-01T16:27:53.274Z</time></trkpt><trkpt lat="43.792102" lon="6.6715909"><ele>1068.0</ele><time>2026-05-01T16:27:54.273Z</time></trkpt><trkpt lat="43.7920643" lon="6.6712668"><ele>1068.5</ele><time>2026-05-01T16:27:55.273Z</time></trkpt><trkpt lat="43.7920213" lon="6.6709425"><ele>1069.0</ele><time>2026-05-01T16:27:56.273Z</time></trkpt><trkpt lat="43.7919719" lon="6.6706293"><ele>1069.0</ele><time>2026-05-01T16:27:57.273Z</time></trkpt><trkpt lat="43.7919116" lon="6.670314"><ele>1069.0</ele><time>2026-05-01T16:27:58.273Z</time></trkpt><trkpt lat="43.7918383" lon="6.6700018"><ele>1060.5</ele><time>2026-05-01T16:27:59.273Z</time></trkpt><trkpt lat="43.7917749" lon="6.6696969"><ele>1052.0</ele><time>2026-05-01T16:28:00.274Z</time></trkpt><trkpt lat="43.7917086" lon="6.6693908"><ele>1052.0</ele><time>2026-05-01T16:28:01.273Z</time></trkpt><trkpt lat="43.7916509" lon="6.6690898"><ele>1052.0</ele><time>2026-05-01T16:28:02.273Z</time></trkpt><trkpt lat="43.7916" lon="6.6687835"><ele>1053.0</ele><time>2026-05-01T16:28:03.273Z</time></trkpt><trkpt lat="43.7915651" lon="6.6684819"><ele>1054.0</ele><time>2026-05-01T16:28:04.274Z</time></trkpt><trkpt lat="43.7915327" lon="6.668173"><ele>1055.0</ele><time>2026-05-01T16:28:05.273Z</time></trkpt><trkpt lat="43.7915113" lon="6.6678622"><ele>1055.6666666666667</ele><time>2026-05-01T16:28:06.273Z</time></trkpt><trkpt lat="43.7914932" lon="6.667573"><ele>1056.3333333333333</ele><time>2026-05-01T16:28:07.274Z</time></trkpt><trkpt lat="43.791484" lon="6.667287"><ele>1057.0</ele><time>2026-05-01T16:28:08.273Z</time></trkpt><trkpt lat="43.7914809" lon="6.6669974"><ele>1056.0</ele><time>2026-05-01T16:28:09.273Z</time></trkpt><trkpt lat="43.7914835" lon="6.6667191"><ele>1055.0</ele><time>2026-05-01T16:28:10.273Z</time></trkpt><trkpt lat="43.7914982" lon="6.6664389"><ele>1054.0</ele><time>2026-05-01T16:28:11.273Z</time></trkpt><trkpt lat="43.7915336" lon="6.6661633"><ele>1050.5</ele><time>2026-05-01T16:28:12.273Z</time></trkpt><trkpt lat="43.7916323" lon="6.6656157"><ele>1047.0</ele><time>2026-05-01T16:28:14.273Z</time></trkpt><trkpt lat="43.7916812" lon="6.6653494"><ele>1047.0</ele><time>2026-05-01T16:28:15.273Z</time></trkpt><trkpt lat="43.7917269" lon="6.6650828"><ele>1047.0</ele><time>2026-05-01T16:28:16.273Z</time></trkpt><trkpt lat="43.7917726" lon="6.6648172"><ele>1047.0</ele><time>2026-05-01T16:28:17.273Z</time></trkpt><trkpt lat="43.7918118" lon="6.6645611"><ele>1051.3333333333333</ele><time>2026-05-01T16:28:18.273Z</time></trkpt><trkpt lat="43.7918524" lon="6.6643178"><ele>1055.6666666666665</ele><time>2026-05-01T16:28:19.273Z</time></trkpt><trkpt lat="43.7918987" lon="6.6640618"><ele>1060.0</ele><time>2026-05-01T16:28:20.273Z</time></trkpt><trkpt lat="43.7919463" lon="6.6638144"><ele>1058.0</ele><time>2026-05-01T16:28:21.273Z</time></trkpt><trkpt lat="43.7919952" lon="6.6635846"><ele>1056.0</ele><time>2026-05-01T16:28:22.273Z</time></trkpt><trkpt lat="43.7920622" lon="6.6633686"><ele>1054.0</ele><time>2026-05-01T16:28:23.273Z</time></trkpt><trkpt lat="43.7921509" lon="6.6631774"><ele>1054.0</ele><time>2026-05-01T16:28:24.273Z</time></trkpt><trkpt lat="43.7922494" lon="6.6629839"><ele>1054.0</ele><time>2026-05-01T16:28:25.274Z</time></trkpt><trkpt lat="43.7923507" lon="6.6627805"><ele>1054.0</ele><time>2026-05-01T16:28:26.273Z</time></trkpt><trkpt lat="43.7924416" lon="6.6625886"><ele>1051.6666666666665</ele><time>2026-05-01T16:28:27.273Z</time></trkpt><trkpt lat="43.7925261" lon="6.6623909"><ele>1049.3333333333333</ele><time>2026-05-01T16:28:28.273Z</time></trkpt><trkpt lat="43.7926101" lon="6.6622106"><ele>1047.0</ele><time>2026-05-01T16:28:29.273Z</time></trkpt><trkpt lat="43.7926906" lon="6.6620307"><ele>1047.25</ele><time>2026-05-01T16:28:30.274Z</time></trkpt><trkpt lat="43.7927642" lon="6.6618613"><ele>1047.5</ele><time>2026-05-01T16:28:31.273Z</time></trkpt><trkpt lat="43.7928386" lon="6.6616961"><ele>1047.75</ele><time>2026-05-01T16:28:32.274Z</time></trkpt><trkpt lat="43.7929057" lon="6.6615348"><ele>1048.0</ele><time>2026-05-01T16:28:33.273Z</time></trkpt><trkpt lat="43.7930559" lon="6.6612202"><ele>1048.0</ele><time>2026-05-01T16:28:35.273Z</time></trkpt><trkpt lat="43.7931331" lon="6.6610633"><ele>1048.0</ele><time>2026-05-01T16:28:36.273Z</time></trkpt><trkpt lat="43.7932155" lon="6.660903"><ele>1048.0</ele><time>2026-05-01T16:28:37.273Z</time></trkpt><trkpt lat="43.7932987" lon="6.6607456"><ele>1048.0</ele><time>2026-05-01T16:28:38.273Z</time></trkpt><trkpt lat="43.7933716" lon="6.6605841"><ele>1048.0</ele><time>2026-05-01T16:28:39.273Z</time></trkpt><trkpt lat="43.7934466" lon="6.6604256"><ele>1048.0</ele><time>2026-05-01T16:28:40.273Z</time></trkpt><trkpt lat="43.7935203" lon="6.660272"><ele>1048.0</ele><time>2026-05-01T16:28:41.273Z</time></trkpt><trkpt lat="43.7935963" lon="6.6601148"><ele>1048.0</ele><time>2026-05-01T16:28:42.273Z</time></trkpt><trkpt lat="43.7936823" lon="6.659978"><ele>1050.0</ele><time>2026-05-01T16:28:43.274Z</time></trkpt><trkpt lat="43.7937757" lon="6.659853"><ele>1052.0</ele><time>2026-05-01T16:28:44.273Z</time></trkpt><trkpt lat="43.7938741" lon="6.6597296"><ele>1054.0</ele><time>2026-05-01T16:28:45.273Z</time></trkpt><trkpt lat="43.7939733" lon="6.65961"><ele>1056.0</ele><time>2026-05-01T16:28:46.273Z</time></trkpt><trkpt lat="43.794075" lon="6.6594917"><ele>1055.5</ele><time>2026-05-01T16:28:47.273Z</time></trkpt><trkpt lat="43.7941839" lon="6.6593864"><ele>1055.0</ele><time>2026-05-01T16:28:48.273Z</time></trkpt><trkpt lat="43.7942865" lon="6.6592795"><ele>1054.5</ele><time>2026-05-01T16:28:49.273Z</time></trkpt><trkpt lat="43.7943824" lon="6.6591717"><ele>1054.0</ele><time>2026-05-01T16:28:50.273Z</time></trkpt><trkpt lat="43.794482" lon="6.6590721"><ele>1055.25</ele><time>2026-05-01T16:28:51.273Z</time></trkpt><trkpt lat="43.7945785" lon="6.6589847"><ele>1056.5</ele><time>2026-05-01T16:28:52.273Z</time></trkpt><trkpt lat="43.794667" lon="6.6588985"><ele>1057.75</ele><time>2026-05-01T16:28:53.273Z</time></trkpt><trkpt lat="43.7947473" lon="6.6588112"><ele>1059.0</ele><time>2026-05-01T16:28:54.273Z</time></trkpt><trkpt lat="43.7948934" lon="6.6586449"><ele>1058.8</ele><time>2026-05-01T16:28:56.273Z</time></trkpt><trkpt lat="43.7949418" lon="6.6585395"><ele>1058.6000000000001</ele><time>2026-05-01T16:28:57.273Z</time></trkpt><trkpt lat="43.7949594" lon="6.6584148"><ele>1058.4</ele><time>2026-05-01T16:28:58.273Z</time></trkpt><trkpt lat="43.7949398" lon="6.6582783"><ele>1058.2</ele><time>2026-05-01T16:28:59.274Z</time></trkpt><trkpt lat="43.794884" lon="6.6581675"><ele>1058.0</ele><time>2026-05-01T16:29:00.273Z</time></trkpt><trkpt lat="43.7947977" lon="6.6580766"><ele>1058.0</ele><time>2026-05-01T16:29:01.273Z</time></trkpt><trkpt lat="43.7946916" lon="6.6580412"><ele>1058.0</ele><time>2026-05-01T16:29:02.273Z</time></trkpt><trkpt lat="43.7945894" lon="6.6580452"><ele>1058.0</ele><time>2026-05-01T16:29:03.273Z</time></trkpt><trkpt lat="43.7944902" lon="6.658077"><ele>1058.0</ele><time>2026-05-01T16:29:04.273Z</time></trkpt><trkpt lat="43.7944015" lon="6.6581034"><ele>1058.0</ele><time>2026-05-01T16:29:05.273Z</time></trkpt><trkpt lat="43.7943274" lon="6.6581309"><ele>1057.8333333333335</ele><time>2026-05-01T16:29:06.274Z</time></trkpt><trkpt lat="43.7942643" lon="6.6581551"><ele>1057.6666666666667</ele><time>2026-05-01T16:29:07.273Z</time></trkpt><trkpt lat="43.7941799" lon="6.6581501"><ele>1057.5</ele><time>2026-05-01T16:29:09.273Z</time></trkpt><trkpt lat="43.7941285" lon="6.6580835"><ele>1057.3333333333333</ele><time>2026-05-01T16:29:12.273Z</time></trkpt><trkpt lat="43.7940751" lon="6.6580371"><ele>1057.1666666666665</ele><time>2026-05-01T16:29:14.273Z</time></trkpt><trkpt lat="43.7939393" lon="6.6580228"><ele>1057.0</ele><time>2026-05-01T16:29:16.273Z</time></trkpt><trkpt lat="43.7937373" lon="6.6580668"><ele>1057.0</ele><time>2026-05-01T16:29:18.273Z</time></trkpt><trkpt lat="43.7936213" lon="6.6580932"><ele>1057.0</ele><time>2026-05-01T16:29:19.273Z</time></trkpt><trkpt lat="43.793506" lon="6.6580894"><ele>1057.0</ele><time>2026-05-01T16:29:20.273Z</time></trkpt><trkpt lat="43.7933871" lon="6.6580689"><ele>1057.0</ele><time>2026-05-01T16:29:21.274Z</time></trkpt><trkpt lat="43.7932641" lon="6.6580208"><ele>1057.25</ele><time>2026-05-01T16:29:22.273Z</time></trkpt><trkpt lat="43.7931465" lon="6.6579465"><ele>1057.5</ele><time>2026-05-01T16:29:23.273Z</time></trkpt><trkpt lat="43.7930355" lon="6.6578395"><ele>1057.75</ele><time>2026-05-01T16:29:24.273Z</time></trkpt><trkpt lat="43.7929216" lon="6.6577084"><ele>1058.0</ele><time>2026-05-01T16:29:25.273Z</time></trkpt><trkpt lat="43.7928177" lon="6.6575679"><ele>1057.6666666666667</ele><time>2026-05-01T16:29:26.273Z</time></trkpt><trkpt lat="43.7927271" lon="6.6574037"><ele>1057.3333333333333</ele><time>2026-05-01T16:29:27.273Z</time></trkpt><trkpt lat="43.792641" lon="6.6572174"><ele>1057.0</ele><time>2026-05-01T16:29:28.273Z</time></trkpt><trkpt lat="43.7925535" lon="6.6570357"><ele>1060.0</ele><time>2026-05-01T16:29:29.273Z</time></trkpt><trkpt lat="43.7924697" lon="6.6568533"><ele>1063.0</ele><time>2026-05-01T16:29:30.273Z</time></trkpt><trkpt lat="43.7923844" lon="6.6566632"><ele>1066.0</ele><time>2026-05-01T16:29:31.274Z</time></trkpt><trkpt lat="43.7923027" lon="6.656468"><ele>1066.0</ele><time>2026-05-01T16:29:32.273Z</time></trkpt><trkpt lat="43.7922106" lon="6.656284"><ele>1066.0</ele><time>2026-05-01T16:29:33.274Z</time></trkpt><trkpt lat="43.7921133" lon="6.6561034"><ele>1066.0</ele><time>2026-05-01T16:29:34.273Z</time></trkpt><trkpt lat="43.7920304" lon="6.6559146"><ele>1067.0</ele><time>2026-05-01T16:29:35.273Z</time></trkpt><trkpt lat="43.7919462" lon="6.6557202"><ele>1068.0</ele><time>2026-05-01T16:29:36.273Z</time></trkpt><trkpt lat="43.7918644" lon="6.6555234"><ele>1069.0</ele><time>2026-05-01T16:29:37.273Z</time></trkpt><trkpt lat="43.7917295" lon="6.6550922"><ele>1064.6666666666665</ele><time>2026-05-01T16:29:39.273Z</time></trkpt><trkpt lat="43.7916979" lon="6.6548544"><ele>1060.3333333333333</ele><time>2026-05-01T16:29:40.273Z</time></trkpt><trkpt lat="43.791694" lon="6.6546134"><ele>1056.0</ele><time>2026-05-01T16:29:41.273Z</time></trkpt><trkpt lat="43.7917065" lon="6.6543764"><ele>1056.0</ele><time>2026-05-01T16:29:42.273Z</time></trkpt><trkpt lat="43.7917146" lon="6.6541514"><ele>1056.0</ele><time>2026-05-01T16:29:43.273Z</time></trkpt><trkpt lat="43.791706" lon="6.6539243"><ele>1056.0</ele><time>2026-05-01T16:29:44.274Z</time></trkpt><trkpt lat="43.7916772" lon="6.6537004"><ele>1056.3333333333333</ele><time>2026-05-01T16:29:45.273Z</time></trkpt><trkpt lat="43.7916261" lon="6.6534916"><ele>1056.6666666666665</ele><time>2026-05-01T16:29:46.273Z</time></trkpt><trkpt lat="43.791567" lon="6.6532819"><ele>1057.0</ele><time>2026-05-01T16:29:47.273Z</time></trkpt><trkpt lat="43.7915033" lon="6.6530707"><ele>1057.0</ele><time>2026-05-01T16:29:48.273Z</time></trkpt><trkpt lat="43.7914401" lon="6.6528565"><ele>1057.0</ele><time>2026-05-01T16:29:49.273Z</time></trkpt><trkpt lat="43.7913949" lon="6.6526407"><ele>1057.0</ele><time>2026-05-01T16:29:50.273Z</time></trkpt><trkpt lat="43.7913615" lon="6.6524182"><ele>1057.3333333333333</ele><time>2026-05-01T16:29:51.273Z</time></trkpt><trkpt lat="43.7913315" lon="6.6522013"><ele>1057.6666666666667</ele><time>2026-05-01T16:29:52.273Z</time></trkpt><trkpt lat="43.7913169" lon="6.6519835"><ele>1058.0</ele><time>2026-05-01T16:29:53.273Z</time></trkpt><trkpt lat="43.7913048" lon="6.6517745"><ele>1057.0</ele><time>2026-05-01T16:29:54.273Z</time></trkpt><trkpt lat="43.7912921" lon="6.6515622"><ele>1056.0</ele><time>2026-05-01T16:29:55.273Z</time></trkpt><trkpt lat="43.7912872" lon="6.6513518"><ele>1055.0</ele><time>2026-05-01T16:29:56.273Z</time></trkpt><trkpt lat="43.7912823" lon="6.6511475"><ele>1054.0</ele><time>2026-05-01T16:29:57.273Z</time></trkpt><trkpt lat="43.7912657" lon="6.6509363"><ele>1053.0</ele><time>2026-05-01T16:29:58.273Z</time></trkpt><trkpt lat="43.7911338" lon="6.6505512"><ele>1053.0</ele><time>2026-05-01T16:30:00.273Z</time></trkpt><trkpt lat="43.7910163" lon="6.6503838"><ele>1053.0</ele><time>2026-05-01T16:30:01.273Z</time></trkpt><trkpt lat="43.7908771" lon="6.6502568"><ele>1053.0</ele><time>2026-05-01T16:30:02.274Z</time></trkpt><trkpt lat="43.790708" lon="6.6501601"><ele>1050.6666666666667</ele><time>2026-05-01T16:30:03.273Z</time></trkpt><trkpt lat="43.7905285" lon="6.6500641"><ele>1048.3333333333335</ele><time>2026-05-01T16:30:04.273Z</time></trkpt><trkpt lat="43.7903587" lon="6.6499579"><ele>1046.0</ele><time>2026-05-01T16:30:05.273Z</time></trkpt><trkpt lat="43.790195" lon="6.6498468"><ele>1047.0</ele><time>2026-05-01T16:30:06.274Z</time></trkpt><trkpt lat="43.7900397" lon="6.6497338"><ele>1048.0</ele><time>2026-05-01T16:30:07.273Z</time></trkpt><trkpt lat="43.789889" lon="6.6496236"><ele>1049.0</ele><time>2026-05-01T16:30:08.273Z</time></trkpt><trkpt lat="43.7897315" lon="6.6495373"><ele>1049.0</ele><time>2026-05-01T16:30:09.273Z</time></trkpt><trkpt lat="43.7895795" lon="6.6494873"><ele>1049.0</ele><time>2026-05-01T16:30:10.274Z</time></trkpt><trkpt lat="43.7894207" lon="6.6494656"><ele>1049.0</ele><time>2026-05-01T16:30:11.273Z</time></trkpt><trkpt lat="43.7892426" lon="6.6494987"><ele>1048.6666666666667</ele><time>2026-05-01T16:30:12.273Z</time></trkpt><trkpt lat="43.7890586" lon="6.6495588"><ele>1048.3333333333333</ele><time>2026-05-01T16:30:13.273Z</time></trkpt><trkpt lat="43.7888757" lon="6.6496243"><ele>1048.0</ele><time>2026-05-01T16:30:14.274Z</time></trkpt><trkpt lat="43.7886966" lon="6.6496929"><ele>1048.0</ele><time>2026-05-01T16:30:15.273Z</time></trkpt><trkpt lat="43.7885223" lon="6.6497529"><ele>1048.0</ele><time>2026-05-01T16:30:16.273Z</time></trkpt><trkpt lat="43.7883349" lon="6.6498156"><ele>1048.0</ele><time>2026-05-01T16:30:17.273Z</time></trkpt><trkpt lat="43.78815" lon="6.6498668"><ele>1044.5</ele><time>2026-05-01T16:30:18.273Z</time></trkpt><trkpt lat="43.7879682" lon="6.6499225"><ele>1041.0</ele><time>2026-05-01T16:30:19.273Z</time></trkpt><trkpt lat="43.7876255" lon="6.6499994"><ele>1040.3333333333333</ele><time>2026-05-01T16:30:21.273Z</time></trkpt><trkpt lat="43.7874693" lon="6.6500229"><ele>1039.6666666666665</ele><time>2026-05-01T16:30:22.273Z</time></trkpt><trkpt lat="43.7873138" lon="6.6500243"><ele>1039.0</ele><time>2026-05-01T16:30:23.274Z</time></trkpt><trkpt lat="43.7871485" lon="6.6499818"><ele>1039.0</ele><time>2026-05-01T16:30:24.274Z</time></trkpt><trkpt lat="43.7869894" lon="6.6499125"><ele>1039.0</ele><time>2026-05-01T16:30:25.273Z</time></trkpt><trkpt lat="43.7868297" lon="6.6498119"><ele>1039.0</ele><time>2026-05-01T16:30:26.273Z</time></trkpt><trkpt lat="43.7866685" lon="6.6496986"><ele>1039.3333333333333</ele><time>2026-05-01T16:30:27.273Z</time></trkpt><trkpt lat="43.7865167" lon="6.6495866"><ele>1039.6666666666667</ele><time>2026-05-01T16:30:28.273Z</time></trkpt><trkpt lat="43.7863611" lon="6.6494729"><ele>1040.0</ele><time>2026-05-01T16:30:29.273Z</time></trkpt><trkpt lat="43.7862097" lon="6.649377"><ele>1040.0</ele><time>2026-05-01T16:30:30.273Z</time></trkpt><trkpt lat="43.7860556" lon="6.6492876"><ele>1040.0</ele><time>2026-05-01T16:30:31.273Z</time></trkpt><trkpt lat="43.7859096" lon="6.6491966"><ele>1040.0</ele><time>2026-05-01T16:30:32.274Z</time></trkpt><trkpt lat="43.7857648" lon="6.6490898"><ele>1039.0</ele><time>2026-05-01T16:30:33.273Z</time></trkpt><trkpt lat="43.7856217" lon="6.6489631"><ele>1038.0</ele><time>2026-05-01T16:30:34.274Z</time></trkpt><trkpt lat="43.7854705" lon="6.6488054"><ele>1037.0</ele><time>2026-05-01T16:30:35.273Z</time></trkpt><trkpt lat="43.7853135" lon="6.6486248"><ele>1038.0</ele><time>2026-05-01T16:30:36.273Z</time></trkpt><trkpt lat="43.7851512" lon="6.6484162"><ele>1039.0</ele><time>2026-05-01T16:30:37.273Z</time></trkpt><trkpt lat="43.7849711" lon="6.6481912"><ele>1039.0</ele><time>2026-05-01T16:30:38.273Z</time></trkpt><trkpt lat="43.7847965" lon="6.647955"><ele>1039.0</ele><time>2026-05-01T16:30:39.273Z</time></trkpt><trkpt lat="43.7846283" lon="6.6477175"><ele>1040.0</ele><time>2026-05-01T16:30:40.273Z</time></trkpt><trkpt lat="43.7842927" lon="6.6472783"><ele>1040.0</ele><time>2026-05-01T16:30:42.273Z</time></trkpt><trkpt lat="43.7841295" lon="6.6470673"><ele>1040.0</ele><time>2026-05-01T16:30:43.273Z</time></trkpt><trkpt lat="43.7839807" lon="6.646845"><ele>1040.0</ele><time>2026-05-01T16:30:44.273Z</time></trkpt><trkpt lat="43.7838519" lon="6.6466129"><ele>1039.0</ele><time>2026-05-01T16:30:45.273Z</time></trkpt><trkpt lat="43.7837188" lon="6.6463859"><ele>1038.0</ele><time>2026-05-01T16:30:46.273Z</time></trkpt><trkpt lat="43.7835847" lon="6.646156"><ele>1037.0</ele><time>2026-05-01T16:30:47.273Z</time></trkpt><trkpt lat="43.7834603" lon="6.6459162"><ele>1037.0</ele><time>2026-05-01T16:30:48.273Z</time></trkpt><trkpt lat="43.783337" lon="6.6456823"><ele>1037.0</ele><time>2026-05-01T16:30:49.273Z</time></trkpt><trkpt lat="43.7832064" lon="6.6454552"><ele>1037.0</ele><time>2026-05-01T16:30:50.273Z</time></trkpt><trkpt lat="43.7830688" lon="6.6452541"><ele>1037.6666666666667</ele><time>2026-05-01T16:30:51.273Z</time></trkpt><trkpt lat="43.7829148" lon="6.6450822"><ele>1038.3333333333333</ele><time>2026-05-01T16:30:52.273Z</time></trkpt><trkpt lat="43.7827502" lon="6.6449291"><ele>1039.0</ele><time>2026-05-01T16:30:53.273Z</time></trkpt><trkpt lat="43.782583" lon="6.6447883"><ele>1038.3333333333333</ele><time>2026-05-01T16:30:54.273Z</time></trkpt><trkpt lat="43.7824278" lon="6.6446387"><ele>1037.6666666666667</ele><time>2026-05-01T16:30:55.273Z</time></trkpt><trkpt lat="43.7822702" lon="6.6444904"><ele>1037.0</ele><time>2026-05-01T16:30:56.273Z</time></trkpt><trkpt lat="43.7821224" lon="6.6443376"><ele>1037.0</ele><time>2026-05-01T16:30:57.273Z</time></trkpt><trkpt lat="43.7819774" lon="6.6441769"><ele>1037.0</ele><time>2026-05-01T16:30:58.273Z</time></trkpt><trkpt lat="43.7818389" lon="6.6440195"><ele>1037.0</ele><time>2026-05-01T16:30:59.273Z</time></trkpt><trkpt lat="43.7817066" lon="6.6438633"><ele>1037.5</ele><time>2026-05-01T16:31:00.273Z</time></trkpt><trkpt lat="43.7815716" lon="6.6437167"><ele>1038.0</ele><time>2026-05-01T16:31:01.273Z</time></trkpt><trkpt lat="43.7812887" lon="6.6434752"><ele>1038.0</ele><time>2026-05-01T16:31:03.274Z</time></trkpt><trkpt lat="43.781132" lon="6.6434186"><ele>1038.0</ele><time>2026-05-01T16:31:04.274Z</time></trkpt><trkpt lat="43.7809737" lon="6.6433881"><ele>1038.0</ele><time>2026-05-01T16:31:05.273Z</time></trkpt><trkpt lat="43.7808088" lon="6.6433476"><ele>1036.0</ele><time>2026-05-01T16:31:06.273Z</time></trkpt><trkpt lat="43.7806434" lon="6.6432935"><ele>1034.0</ele><time>2026-05-01T16:31:07.273Z</time></trkpt><trkpt lat="43.7804855" lon="6.643215"><ele>1032.0</ele><time>2026-05-01T16:31:08.273Z</time></trkpt><trkpt lat="43.7803355" lon="6.6431015"><ele>1032.0</ele><time>2026-05-01T16:31:09.273Z</time></trkpt><trkpt lat="43.7801883" lon="6.642975"><ele>1032.0</ele><time>2026-05-01T16:31:10.274Z</time></trkpt><trkpt lat="43.7800511" lon="6.6428463"><ele>1032.0</ele><time>2026-05-01T16:31:11.273Z</time></trkpt><trkpt lat="43.7799209" lon="6.6427272"><ele>1031.25</ele><time>2026-05-01T16:31:12.273Z</time></trkpt><trkpt lat="43.7798027" lon="6.6426121"><ele>1030.5</ele><time>2026-05-01T16:31:13.273Z</time></trkpt><trkpt lat="43.7796932" lon="6.6425071"><ele>1029.75</ele><time>2026-05-01T16:31:14.273Z</time></trkpt><trkpt lat="43.779595" lon="6.6424171"><ele>1029.0</ele><time>2026-05-01T16:31:15.273Z</time></trkpt><trkpt lat="43.7795133" lon="6.6423467"><ele>1029.0</ele><time>2026-05-01T16:31:16.273Z</time></trkpt><trkpt lat="43.7794509" lon="6.6422818"><ele>1029.0</ele><time>2026-05-01T16:31:17.273Z</time></trkpt><trkpt lat="43.7794021" lon="6.6421464"><ele>1029.0</ele><time>2026-05-01T16:31:19.273Z</time></trkpt><trkpt lat="43.7794332" lon="6.6420569"><ele>1029.0</ele><time>2026-05-01T16:31:20.273Z</time></trkpt><trkpt lat="43.7794907" lon="6.6419588"><ele>1029.0</ele><time>2026-05-01T16:31:21.273Z</time></trkpt><trkpt lat="43.779574" lon="6.6418505"><ele>1029.3333333333333</ele><time>2026-05-01T16:31:22.274Z</time></trkpt><trkpt lat="43.7797802" lon="6.6416048"><ele>1029.6666666666665</ele><time>2026-05-01T16:31:24.273Z</time></trkpt><trkpt lat="43.7798955" lon="6.6414693"><ele>1030.0</ele><time>2026-05-01T16:31:25.273Z</time></trkpt><trkpt lat="43.7800079" lon="6.6413235"><ele>1030.0</ele><time>2026-05-01T16:31:26.273Z</time></trkpt><trkpt lat="43.7801219" lon="6.6411675"><ele>1030.0</ele><time>2026-05-01T16:31:27.273Z</time></trkpt><trkpt lat="43.780241" lon="6.6410119"><ele>1030.0</ele><time>2026-05-01T16:31:28.274Z</time></trkpt><trkpt lat="43.7803625" lon="6.6408481"><ele>1030.6666666666665</ele><time>2026-05-01T16:31:29.273Z</time></trkpt><trkpt lat="43.7804933" lon="6.640685"><ele>1031.3333333333333</ele><time>2026-05-01T16:31:30.273Z</time></trkpt><trkpt lat="43.7806257" lon="6.6405094"><ele>1032.0</ele><time>2026-05-01T16:31:31.273Z</time></trkpt><trkpt lat="43.7807534" lon="6.6403219"><ele>1032.6666666666667</ele><time>2026-05-01T16:31:32.273Z</time></trkpt><trkpt lat="43.7808895" lon="6.6401339"><ele>1033.3333333333335</ele><time>2026-05-01T16:31:33.273Z</time></trkpt><trkpt lat="43.781031" lon="6.6399448"><ele>1034.0</ele><time>2026-05-01T16:31:34.274Z</time></trkpt><trkpt lat="43.7811743" lon="6.6397653"><ele>1034.6666666666667</ele><time>2026-05-01T16:31:35.273Z</time></trkpt><trkpt lat="43.7813097" lon="6.6395842"><ele>1035.3333333333333</ele><time>2026-05-01T16:31:36.273Z</time></trkpt><trkpt lat="43.7814385" lon="6.6394053"><ele>1036.0</ele><time>2026-05-01T16:31:37.273Z</time></trkpt><trkpt lat="43.7815715" lon="6.6392204"><ele>1036.6666666666665</ele><time>2026-05-01T16:31:38.273Z</time></trkpt><trkpt lat="43.7817009" lon="6.6390156"><ele>1037.3333333333333</ele><time>2026-05-01T16:31:39.273Z</time></trkpt><trkpt lat="43.7818232" lon="6.6388036"><ele>1038.0</ele><time>2026-05-01T16:31:40.273Z</time></trkpt><trkpt lat="43.7819287" lon="6.638579"><ele>1039.0</ele><time>2026-05-01T16:31:41.273Z</time></trkpt><trkpt lat="43.7820226" lon="6.6383446"><ele>1040.0</ele><time>2026-05-01T16:31:42.273Z</time></trkpt><trkpt lat="43.7821031" lon="6.6381135"><ele>1041.0</ele><time>2026-05-01T16:31:43.274Z</time></trkpt><trkpt lat="43.7823063" lon="6.6376811"><ele>1041.0</ele><time>2026-05-01T16:31:45.273Z</time></trkpt><trkpt lat="43.7824326" lon="6.637487"><ele>1041.0</ele><time>2026-05-01T16:31:46.274Z</time></trkpt><trkpt lat="43.7825768" lon="6.6373126"><ele>1041.0</ele><time>2026-05-01T16:31:47.273Z</time></trkpt><trkpt lat="43.7827353" lon="6.6371679"><ele>1041.6666666666667</ele><time>2026-05-01T16:31:48.273Z</time></trkpt><trkpt lat="43.7829133" lon="6.6370603"><ele>1042.3333333333335</ele><time>2026-05-01T16:31:49.273Z</time></trkpt><trkpt lat="43.7831008" lon="6.6369621"><ele>1043.0</ele><time>2026-05-01T16:31:50.273Z</time></trkpt><trkpt lat="43.7832952" lon="6.6368515"><ele>1043.0</ele><time>2026-05-01T16:31:51.273Z</time></trkpt><trkpt lat="43.7834922" lon="6.6367312"><ele>1043.0</ele><time>2026-05-01T16:31:52.274Z</time></trkpt><trkpt lat="43.7836892" lon="6.6366002"><ele>1043.0</ele><time>2026-05-01T16:31:53.273Z</time></trkpt><trkpt lat="43.7838833" lon="6.6364749"><ele>1045.6666666666667</ele><time>2026-05-01T16:31:54.273Z</time></trkpt><trkpt lat="43.7840714" lon="6.6363531"><ele>1048.3333333333333</ele><time>2026-05-01T16:31:55.273Z</time></trkpt><trkpt lat="43.7842584" lon="6.6362257"><ele>1051.0</ele><time>2026-05-01T16:31:56.273Z</time></trkpt><trkpt lat="43.7844444" lon="6.6361036"><ele>1051.3333333333333</ele><time>2026-05-01T16:31:57.274Z</time></trkpt><trkpt lat="43.7846287" lon="6.6359851"><ele>1051.6666666666667</ele><time>2026-05-01T16:31:58.273Z</time></trkpt><trkpt lat="43.7848175" lon="6.6358671"><ele>1052.0</ele><time>2026-05-01T16:31:59.274Z</time></trkpt><trkpt lat="43.7850097" lon="6.6357669"><ele>1052.3333333333335</ele><time>2026-05-01T16:32:00.273Z</time></trkpt><trkpt lat="43.7851968" lon="6.6356722"><ele>1052.6666666666667</ele><time>2026-05-01T16:32:01.273Z</time></trkpt><trkpt lat="43.7853894" lon="6.6355972"><ele>1053.0</ele><time>2026-05-01T16:32:02.273Z</time></trkpt><trkpt lat="43.7855864" lon="6.6355529"><ele>1053.0</ele><time>2026-05-01T16:32:03.273Z</time></trkpt><trkpt lat="43.7857751" lon="6.6355265"><ele>1053.0</ele><time>2026-05-01T16:32:04.273Z</time></trkpt><trkpt lat="43.7861674" lon="6.6355788"><ele>1053.0</ele><time>2026-05-01T16:32:06.273Z</time></trkpt><trkpt lat="43.7863834" lon="6.6356695"><ele>1053.0</ele><time>2026-05-01T16:32:07.274Z</time></trkpt><trkpt lat="43.7865857" lon="6.6357778"><ele>1053.0</ele><time>2026-05-01T16:32:08.273Z</time></trkpt><trkpt lat="43.7867855" lon="6.6358875"><ele>1053.6666666666667</ele><time>2026-05-01T16:32:09.274Z</time></trkpt><trkpt lat="43.786982" lon="6.6359775"><ele>1054.3333333333335</ele><time>2026-05-01T16:32:10.273Z</time></trkpt><trkpt lat="43.7871764" lon="6.636068"><ele>1055.0</ele><time>2026-05-01T16:32:11.273Z</time></trkpt><trkpt lat="43.7873578" lon="6.6361539"><ele>1055.0</ele><time>2026-05-01T16:32:12.273Z</time></trkpt><trkpt lat="43.7875313" lon="6.6362371"><ele>1055.0</ele><time>2026-05-01T16:32:13.273Z</time></trkpt><trkpt lat="43.7877048" lon="6.6362791"><ele>1055.0</ele><time>2026-05-01T16:32:14.273Z</time></trkpt><trkpt lat="43.7878767" lon="6.6362759"><ele>1054.6666666666667</ele><time>2026-05-01T16:32:15.273Z</time></trkpt><trkpt lat="43.7880343" lon="6.6362229"><ele>1054.3333333333333</ele><time>2026-05-01T16:32:16.274Z</time></trkpt><trkpt lat="43.7881762" lon="6.6361304"><ele>1054.0</ele><time>2026-05-01T16:32:17.273Z</time></trkpt><trkpt lat="43.7883093" lon="6.6359746"><ele>1055.3333333333333</ele><time>2026-05-01T16:32:18.273Z</time></trkpt><trkpt lat="43.7884321" lon="6.6357925"><ele>1056.6666666666667</ele><time>2026-05-01T16:32:19.273Z</time></trkpt><trkpt lat="43.7885327" lon="6.6355899"><ele>1058.0</ele><time>2026-05-01T16:32:20.274Z</time></trkpt><trkpt lat="43.7886356" lon="6.6354095"><ele>1060.6666666666667</ele><time>2026-05-01T16:32:21.273Z</time></trkpt><trkpt lat="43.7887556" lon="6.6352609"><ele>1063.3333333333333</ele><time>2026-05-01T16:32:22.273Z</time></trkpt><trkpt lat="43.7888956" lon="6.6351455"><ele>1066.0</ele><time>2026-05-01T16:32:23.273Z</time></trkpt><trkpt lat="43.7890494" lon="6.6350845"><ele>1066.0</ele><time>2026-05-01T16:32:24.273Z</time></trkpt><trkpt lat="43.7892134" lon="6.6350932"><ele>1066.0</ele><time>2026-05-01T16:32:25.273Z</time></trkpt><trkpt lat="43.78956" lon="6.6352396"><ele>1064.3333333333333</ele><time>2026-05-01T16:32:27.274Z</time></trkpt><trkpt lat="43.7897437" lon="6.6353219"><ele>1062.6666666666667</ele><time>2026-05-01T16:32:28.273Z</time></trkpt><trkpt lat="43.7899377" lon="6.635389"><ele>1061.0</ele><time>2026-05-01T16:32:29.273Z</time></trkpt><trkpt lat="43.7901425" lon="6.6354579"><ele>1063.0</ele><time>2026-05-01T16:32:30.273Z</time></trkpt><trkpt lat="43.7903442" lon="6.6355443"><ele>1065.0</ele><time>2026-05-01T16:32:31.273Z</time></trkpt><trkpt lat="43.7905415" lon="6.6356238"><ele>1067.0</ele><time>2026-05-01T16:32:32.274Z</time></trkpt><trkpt lat="43.7907277" lon="6.6357028"><ele>1067.0</ele><time>2026-05-01T16:32:33.273Z</time></trkpt><trkpt lat="43.7909134" lon="6.635778"><ele>1067.0</ele><time>2026-05-01T16:32:34.273Z</time></trkpt><trkpt lat="43.7910921" lon="6.6358514"><ele>1067.0</ele><time>2026-05-01T16:32:35.274Z</time></trkpt><trkpt lat="43.7912654" lon="6.6359258"><ele>1068.6666666666667</ele><time>2026-05-01T16:32:36.273Z</time></trkpt><trkpt lat="43.7914404" lon="6.6359543"><ele>1070.3333333333333</ele><time>2026-05-01T16:32:37.273Z</time></trkpt><trkpt lat="43.7916244" lon="6.6359471"><ele>1072.0</ele><time>2026-05-01T16:32:38.273Z</time></trkpt><trkpt lat="43.7918092" lon="6.6359123"><ele>1071.3333333333333</ele><time>2026-05-01T16:32:39.273Z</time></trkpt><trkpt lat="43.7919887" lon="6.6358444"><ele>1070.6666666666667</ele><time>2026-05-01T16:32:40.273Z</time></trkpt><trkpt lat="43.792173" lon="6.6357478"><ele>1070.0</ele><time>2026-05-01T16:32:41.273Z</time></trkpt><trkpt lat="43.7923588" lon="6.6356563"><ele>1070.0</ele><time>2026-05-01T16:32:42.273Z</time></trkpt><trkpt lat="43.7925526" lon="6.6355587"><ele>1070.0</ele><time>2026-05-01T16:32:43.273Z</time></trkpt><trkpt lat="43.7927467" lon="6.635468"><ele>1070.0</ele><time>2026-05-01T16:32:44.273Z</time></trkpt><trkpt lat="43.7929517" lon="6.6353783"><ele>1071.0</ele><time>2026-05-01T16:32:45.273Z</time></trkpt><trkpt lat="43.7931544" lon="6.6352946"><ele>1072.0</ele><time>2026-05-01T16:32:46.273Z</time></trkpt><trkpt lat="43.7935516" lon="6.6351203"><ele>1073.0</ele><time>2026-05-01T16:32:48.274Z</time></trkpt><trkpt lat="43.7937519" lon="6.6350238"><ele>1074.0</ele><time>2026-05-01T16:32:49.273Z</time></trkpt><trkpt lat="43.7939502" lon="6.6349298"><ele>1075.0</ele><time>2026-05-01T16:32:50.273Z</time></trkpt><trkpt lat="43.7941452" lon="6.6348287"><ele>1075.0</ele><time>2026-05-01T16:32:51.274Z</time></trkpt><trkpt lat="43.7943297" lon="6.6347339"><ele>1075.0</ele><time>2026-05-01T16:32:52.273Z</time></trkpt><trkpt lat="43.7945106" lon="6.6346181"><ele>1075.0</ele><time>2026-05-01T16:32:53.273Z</time></trkpt><trkpt lat="43.7946764" lon="6.634478"><ele>1077.6666666666665</ele><time>2026-05-01T16:32:54.273Z</time></trkpt><trkpt lat="43.7948294" lon="6.6343127"><ele>1080.3333333333333</ele><time>2026-05-01T16:32:55.274Z</time></trkpt><trkpt lat="43.7949771" lon="6.6341219"><ele>1083.0</ele><time>2026-05-01T16:32:56.273Z</time></trkpt><trkpt lat="43.795119" lon="6.6339268"><ele>1083.3333333333333</ele><time>2026-05-01T16:32:57.273Z</time></trkpt><trkpt lat="43.7952648" lon="6.6337224"><ele>1083.6666666666665</ele><time>2026-05-01T16:32:58.273Z</time></trkpt><trkpt lat="43.7954148" lon="6.6335317"><ele>1084.0</ele><time>2026-05-01T16:32:59.273Z</time></trkpt><trkpt lat="43.7955645" lon="6.633327"><ele>1084.0</ele><time>2026-05-01T16:33:00.273Z</time></trkpt><trkpt lat="43.7957162" lon="6.6331243"><ele>1084.0</ele><time>2026-05-01T16:33:01.273Z</time></trkpt><trkpt lat="43.7958682" lon="6.6329106"><ele>1084.0</ele><time>2026-05-01T16:33:02.273Z</time></trkpt><trkpt lat="43.7960157" lon="6.6327044"><ele>1082.6666666666665</ele><time>2026-05-01T16:33:03.273Z</time></trkpt><trkpt lat="43.7961678" lon="6.6325038"><ele>1081.3333333333333</ele><time>2026-05-01T16:33:04.273Z</time></trkpt><trkpt lat="43.7963221" lon="6.632304"><ele>1080.0</ele><time>2026-05-01T16:33:05.273Z</time></trkpt><trkpt lat="43.7964684" lon="6.6321071"><ele>1080.5</ele><time>2026-05-01T16:33:06.274Z</time></trkpt><trkpt lat="43.7966135" lon="6.6319064"><ele>1081.0</ele><time>2026-05-01T16:33:07.273Z</time></trkpt><trkpt lat="43.7968913" lon="6.6314739"><ele>1081.6666666666665</ele><time>2026-05-01T16:33:09.273Z</time></trkpt><trkpt lat="43.7969973" lon="6.63124"><ele>1082.3333333333333</ele><time>2026-05-01T16:33:10.273Z</time></trkpt><trkpt lat="43.7970876" lon="6.6309773"><ele>1083.0</ele><time>2026-05-01T16:33:11.273Z</time></trkpt><trkpt lat="43.7971657" lon="6.6307059"><ele>1083.6666666666667</ele><time>2026-05-01T16:33:12.273Z</time></trkpt><trkpt lat="43.7972245" lon="6.6304157"><ele>1084.3333333333335</ele><time>2026-05-01T16:33:13.273Z</time></trkpt><trkpt lat="43.7972585" lon="6.630123"><ele>1085.0</ele><time>2026-05-01T16:33:14.273Z</time></trkpt><trkpt lat="43.797276" lon="6.629831"><ele>1086.0</ele><time>2026-05-01T16:33:15.274Z</time></trkpt><trkpt lat="43.797282" lon="6.6295315"><ele>1087.0</ele><time>2026-05-01T16:33:16.273Z</time></trkpt><trkpt lat="43.7972823" lon="6.6292385"><ele>1088.0</ele><time>2026-05-01T16:33:17.273Z</time></trkpt><trkpt lat="43.7972824" lon="6.6289312"><ele>1087.6666666666667</ele><time>2026-05-01T16:33:18.274Z</time></trkpt><trkpt lat="43.797288" lon="6.6286301"><ele>1087.3333333333333</ele><time>2026-05-01T16:33:19.273Z</time></trkpt><trkpt lat="43.7972917" lon="6.6283312"><ele>1087.0</ele><time>2026-05-01T16:33:20.274Z</time></trkpt><trkpt lat="43.7973035" lon="6.6280303"><ele>1089.6666666666665</ele><time>2026-05-01T16:33:21.273Z</time></trkpt><trkpt lat="43.7973138" lon="6.6277372"><ele>1092.3333333333333</ele><time>2026-05-01T16:33:22.273Z</time></trkpt><trkpt lat="43.7973286" lon="6.62744"><ele>1095.0</ele><time>2026-05-01T16:33:23.273Z</time></trkpt><trkpt lat="43.7973394" lon="6.6271404"><ele>1096.0</ele><time>2026-05-01T16:33:24.273Z</time></trkpt><trkpt lat="43.7973495" lon="6.6268454"><ele>1097.0</ele><time>2026-05-01T16:33:25.273Z</time></trkpt><trkpt lat="43.797361" lon="6.6265551"><ele>1098.0</ele><time>2026-05-01T16:33:26.274Z</time></trkpt><trkpt lat="43.7973656" lon="6.6262622"><ele>1100.0</ele><time>2026-05-01T16:33:27.273Z</time></trkpt><trkpt lat="43.7973733" lon="6.6259675"><ele>1102.0</ele><time>2026-05-01T16:33:28.273Z</time></trkpt><trkpt lat="43.7973857" lon="6.6253955"><ele>1102.0</ele><time>2026-05-01T16:33:30.273Z</time></trkpt><trkpt lat="43.7973955" lon="6.6251334"><ele>1102.0</ele><time>2026-05-01T16:33:31.273Z</time></trkpt><trkpt lat="43.797404" lon="6.6248869"><ele>1102.0</ele><time>2026-05-01T16:33:32.274Z</time></trkpt><trkpt lat="43.7974123" lon="6.624654"><ele>1101.0</ele><time>2026-05-01T16:33:33.273Z</time></trkpt><trkpt lat="43.7974318" lon="6.6244432"><ele>1100.0</ele><time>2026-05-01T16:33:34.274Z</time></trkpt><trkpt lat="43.7974878" lon="6.6242624"><ele>1099.0</ele><time>2026-05-01T16:33:35.273Z</time></trkpt><trkpt lat="43.7975679" lon="6.6241048"><ele>1098.0</ele><time>2026-05-01T16:33:36.273Z</time></trkpt><trkpt lat="43.7976757" lon="6.6239634"><ele>1099.3333333333333</ele><time>2026-05-01T16:33:37.273Z</time></trkpt><trkpt lat="43.7978043" lon="6.62383"><ele>1100.6666666666665</ele><time>2026-05-01T16:33:38.273Z</time></trkpt><trkpt lat="43.7979493" lon="6.6237128"><ele>1102.0</ele><time>2026-05-01T16:33:39.274Z</time></trkpt><trkpt lat="43.7980941" lon="6.6235787"><ele>1102.0</ele><time>2026-05-01T16:33:40.273Z</time></trkpt><trkpt lat="43.798238" lon="6.6234357"><ele>1102.0</ele><time>2026-05-01T16:33:41.274Z</time></trkpt><trkpt lat="43.7983866" lon="6.6233026"><ele>1102.0</ele><time>2026-05-01T16:33:42.273Z</time></trkpt><trkpt lat="43.7985261" lon="6.6231784"><ele>1104.75</ele><time>2026-05-01T16:33:43.273Z</time></trkpt><trkpt lat="43.7986614" lon="6.6230689"><ele>1107.5</ele><time>2026-05-01T16:33:44.273Z</time></trkpt><trkpt lat="43.7987919" lon="6.6229881"><ele>1110.25</ele><time>2026-05-01T16:33:45.273Z</time></trkpt><trkpt lat="43.7989178" lon="6.6229579"><ele>1113.0</ele><time>2026-05-01T16:33:46.273Z</time></trkpt><trkpt lat="43.7990505" lon="6.6229878"><ele>1113.0</ele><time>2026-05-01T16:33:47.273Z</time></trkpt><trkpt lat="43.7991747" lon="6.623085"><ele>1113.0</ele><time>2026-05-01T16:33:48.273Z</time></trkpt><trkpt lat="43.7992899" lon="6.6232266"><ele>1113.0</ele><time>2026-05-01T16:33:49.273Z</time></trkpt><trkpt lat="43.7995464" lon="6.6234111"><ele>1112.75</ele><time>2026-05-01T16:33:51.273Z</time></trkpt><trkpt lat="43.799695" lon="6.6234172"><ele>1112.5</ele><time>2026-05-01T16:33:52.273Z</time></trkpt><trkpt lat="43.7998295" lon="6.6233551"><ele>1112.25</ele><time>2026-05-01T16:33:53.273Z</time></trkpt><trkpt lat="43.7999558" lon="6.6232494"><ele>1112.0</ele><time>2026-05-01T16:33:54.274Z</time></trkpt><trkpt lat="43.8000814" lon="6.6231307"><ele>1113.6666666666667</ele><time>2026-05-01T16:33:55.273Z</time></trkpt><trkpt lat="43.8002135" lon="6.6230396"><ele>1115.3333333333333</ele><time>2026-05-01T16:33:56.273Z</time></trkpt><trkpt lat="43.8003623" lon="6.6230091"><ele>1117.0</ele><time>2026-05-01T16:33:57.273Z</time></trkpt><trkpt lat="43.8005143" lon="6.6230568"><ele>1117.0</ele><time>2026-05-01T16:33:58.274Z</time></trkpt><trkpt lat="43.8006599" lon="6.6231229"><ele>1117.0</ele><time>2026-05-01T16:33:59.273Z</time></trkpt><trkpt lat="43.8008039" lon="6.6231865"><ele>1117.0</ele><time>2026-05-01T16:34:00.273Z</time></trkpt><trkpt lat="43.800961" lon="6.6232047"><ele>1120.6666666666665</ele><time>2026-05-01T16:34:01.273Z</time></trkpt><trkpt lat="43.80112" lon="6.6231624"><ele>1124.3333333333333</ele><time>2026-05-01T16:34:02.273Z</time></trkpt><trkpt lat="43.8012693" lon="6.6230797"><ele>1128.0</ele><time>2026-05-01T16:34:03.274Z</time></trkpt><trkpt lat="43.8014032" lon="6.6229518"><ele>1124.0</ele><time>2026-05-01T16:34:04.274Z</time></trkpt><trkpt lat="43.8015123" lon="6.6227861"><ele>1120.0</ele><time>2026-05-01T16:34:05.273Z</time></trkpt><trkpt lat="43.8015888" lon="6.6225857"><ele>1116.0</ele><time>2026-05-01T16:34:06.273Z</time></trkpt><trkpt lat="43.801628" lon="6.6223595"><ele>1116.0</ele><time>2026-05-01T16:34:07.273Z</time></trkpt><trkpt lat="43.8016355" lon="6.6221432"><ele>1116.0</ele><time>2026-05-01T16:34:08.273Z</time></trkpt><trkpt lat="43.8016053" lon="6.6219107"><ele>1116.0</ele><time>2026-05-01T16:34:09.273Z</time></trkpt><trkpt lat="43.8015475" lon="6.6216938"><ele>1116.5</ele><time>2026-05-01T16:34:10.273Z</time></trkpt><trkpt lat="43.8013257" lon="6.6213535"><ele>1117.0</ele><time>2026-05-01T16:34:12.273Z</time></trkpt><trkpt lat="43.801166" lon="6.6212242"><ele>1114.0</ele><time>2026-05-01T16:34:13.273Z</time></trkpt><trkpt lat="43.8010069" lon="6.6211063"><ele>1111.0</ele><time>2026-05-01T16:34:14.273Z</time></trkpt><trkpt lat="43.8008666" lon="6.6209609"><ele>1108.0</ele><time>2026-05-01T16:34:15.273Z</time></trkpt><trkpt lat="43.8007531" lon="6.6207849"><ele>1108.0</ele><time>2026-05-01T16:34:16.273Z</time></trkpt><trkpt lat="43.8006754" lon="6.6205929"><ele>1108.0</ele><time>2026-05-01T16:34:17.274Z</time></trkpt><trkpt lat="43.8006435" lon="6.6203862"><ele>1108.0</ele><time>2026-05-01T16:34:18.273Z</time></trkpt><trkpt lat="43.8006592" lon="6.6201789"><ele>1108.0</ele><time>2026-05-01T16:34:19.273Z</time></trkpt><trkpt lat="43.8007322" lon="6.6199604"><ele>1108.0</ele><time>2026-05-01T16:34:20.273Z</time></trkpt><trkpt lat="43.8008377" lon="6.6197508"><ele>1108.0</ele><time>2026-05-01T16:34:21.273Z</time></trkpt><trkpt lat="43.8009485" lon="6.619546"><ele>1108.3333333333333</ele><time>2026-05-01T16:34:22.273Z</time></trkpt><trkpt lat="43.8010473" lon="6.6193553"><ele>1108.6666666666667</ele><time>2026-05-01T16:34:23.273Z</time></trkpt><trkpt lat="43.8011385" lon="6.6191809"><ele>1109.0</ele><time>2026-05-01T16:34:24.273Z</time></trkpt><trkpt lat="43.8012513" lon="6.6190263"><ele>1109.0</ele><time>2026-05-01T16:34:25.274Z</time></trkpt><trkpt lat="43.8013835" lon="6.6189186"><ele>1109.0</ele><time>2026-05-01T16:34:26.273Z</time></trkpt><trkpt lat="43.8015296" lon="6.6188927"><ele>1109.0</ele><time>2026-05-01T16:34:27.273Z</time></trkpt><trkpt lat="43.8016883" lon="6.618948"><ele>1109.0</ele><time>2026-05-01T16:34:28.273Z</time></trkpt><trkpt lat="43.801831" lon="6.6190589"><ele>1109.0</ele><time>2026-05-01T16:34:29.273Z</time></trkpt><trkpt lat="43.8019603" lon="6.6191812"><ele>1109.0</ele><time>2026-05-01T16:34:30.273Z</time></trkpt><trkpt lat="43.8020935" lon="6.6192722"><ele>1110.6666666666667</ele><time>2026-05-01T16:34:31.273Z</time></trkpt><trkpt lat="43.8023429" lon="6.6192242"><ele>1112.3333333333333</ele><time>2026-05-01T16:34:33.273Z</time></trkpt><trkpt lat="43.8024311" lon="6.6190981"><ele>1114.0</ele><time>2026-05-01T16:34:34.273Z</time></trkpt><trkpt lat="43.802509" lon="6.6189176"><ele>1114.0</ele><time>2026-05-01T16:34:35.273Z</time></trkpt><trkpt lat="43.8025801" lon="6.6187065"><ele>1114.0</ele><time>2026-05-01T16:34:36.273Z</time></trkpt><trkpt lat="43.8026487" lon="6.6185092"><ele>1114.0</ele><time>2026-05-01T16:34:37.273Z</time></trkpt><trkpt lat="43.8027065" lon="6.6183132"><ele>1110.6666666666665</ele><time>2026-05-01T16:34:38.273Z</time></trkpt><trkpt lat="43.8027331" lon="6.6181167"><ele>1107.3333333333333</ele><time>2026-05-01T16:34:39.273Z</time></trkpt><trkpt lat="43.8027159" lon="6.6179017"><ele>1104.0</ele><time>2026-05-01T16:34:40.273Z</time></trkpt><trkpt lat="43.8026606" lon="6.6176935"><ele>1104.0</ele><time>2026-05-01T16:34:41.273Z</time></trkpt><trkpt lat="43.8025616" lon="6.6175051"><ele>1104.0</ele><time>2026-05-01T16:34:42.273Z</time></trkpt><trkpt lat="43.8024619" lon="6.6173095"><ele>1104.0</ele><time>2026-05-01T16:34:43.273Z</time></trkpt><trkpt lat="43.8023737" lon="6.6171035"><ele>1105.6666666666667</ele><time>2026-05-01T16:34:44.273Z</time></trkpt><trkpt lat="43.8023098" lon="6.6168761"><ele>1107.3333333333335</ele><time>2026-05-01T16:34:45.273Z</time></trkpt><trkpt lat="43.8022925" lon="6.6166181"><ele>1109.0</ele><time>2026-05-01T16:34:46.273Z</time></trkpt><trkpt lat="43.8023208" lon="6.6163554"><ele>1108.0</ele><time>2026-05-01T16:34:47.273Z</time></trkpt><trkpt lat="43.8023587" lon="6.616124"><ele>1107.0</ele><time>2026-05-01T16:34:48.274Z</time></trkpt><trkpt lat="43.8024083" lon="6.6158877"><ele>1106.0</ele><time>2026-05-01T16:34:49.273Z</time></trkpt><trkpt lat="43.8024697" lon="6.6156481"><ele>1106.0</ele><time>2026-05-01T16:34:50.273Z</time></trkpt><trkpt lat="43.8025394" lon="6.6154139"><ele>1106.0</ele><time>2026-05-01T16:34:51.273Z</time></trkpt><trkpt lat="43.8026183" lon="6.6151765"><ele>1106.0</ele><time>2026-05-01T16:34:52.273Z</time></trkpt><trkpt lat="43.8027949" lon="6.6147125"><ele>1106.6666666666667</ele><time>2026-05-01T16:34:54.273Z</time></trkpt><trkpt lat="43.8028797" lon="6.6145001"><ele>1107.3333333333333</ele><time>2026-05-01T16:34:55.273Z</time></trkpt><trkpt lat="43.8029565" lon="6.6142813"><ele>1108.0</ele><time>2026-05-01T16:34:56.273Z</time></trkpt><trkpt lat="43.8030217" lon="6.6140671"><ele>1108.0</ele><time>2026-05-01T16:34:57.274Z</time></trkpt><trkpt lat="43.8030907" lon="6.6138596"><ele>1108.0</ele><time>2026-05-01T16:34:58.273Z</time></trkpt><trkpt lat="43.8031658" lon="6.6136644"><ele>1108.0</ele><time>2026-05-01T16:34:59.273Z</time></trkpt><trkpt lat="43.8032541" lon="6.6134717"><ele>1104.3333333333333</ele><time>2026-05-01T16:35:00.273Z</time></trkpt><trkpt lat="43.803326" lon="6.6132836"><ele>1100.6666666666667</ele><time>2026-05-01T16:35:01.273Z</time></trkpt><trkpt lat="43.8033596" lon="6.6130752"><ele>1097.0</ele><time>2026-05-01T16:35:02.273Z</time></trkpt><trkpt lat="43.803362" lon="6.612869"><ele>1094.3333333333335</ele><time>2026-05-01T16:35:03.273Z</time></trkpt><trkpt lat="43.8033404" lon="6.612667"><ele>1091.6666666666667</ele><time>2026-05-01T16:35:04.273Z</time></trkpt><trkpt lat="43.8033234" lon="6.6124522"><ele>1089.0</ele><time>2026-05-01T16:35:05.273Z</time></trkpt><trkpt lat="43.8033156" lon="6.6122274"><ele>1089.0</ele><time>2026-05-01T16:35:06.274Z</time></trkpt><trkpt lat="43.8033102" lon="6.612008"><ele>1089.0</ele><time>2026-05-01T16:35:07.274Z</time></trkpt><trkpt lat="43.8033149" lon="6.6117949"><ele>1089.0</ele><time>2026-05-01T16:35:08.273Z</time></trkpt><trkpt lat="43.8033401" lon="6.6115709"><ele>1088.3333333333333</ele><time>2026-05-01T16:35:09.273Z</time></trkpt><trkpt lat="43.803379" lon="6.6113514"><ele>1087.6666666666665</ele><time>2026-05-01T16:35:10.273Z</time></trkpt><trkpt lat="43.8034183" lon="6.61114"><ele>1087.0</ele><time>2026-05-01T16:35:11.273Z</time></trkpt><trkpt lat="43.8034419" lon="6.6109113"><ele>1086.5</ele><time>2026-05-01T16:35:12.273Z</time></trkpt><trkpt lat="43.8034379" lon="6.6106805"><ele>1086.0</ele><time>2026-05-01T16:35:13.273Z</time></trkpt><trkpt lat="43.8033199" lon="6.6102145"><ele>1086.0</ele><time>2026-05-01T16:35:15.273Z</time></trkpt><trkpt lat="43.8032398" lon="6.6099785"><ele>1086.0</ele><time>2026-05-01T16:35:16.274Z</time></trkpt><trkpt lat="43.8031649" lon="6.6097378"><ele>1086.0</ele><time>2026-05-01T16:35:17.273Z</time></trkpt><trkpt lat="43.8030943" lon="6.6095051"><ele>1088.3333333333333</ele><time>2026-05-01T16:35:18.273Z</time></trkpt><trkpt lat="43.8030324" lon="6.6092796"><ele>1090.6666666666665</ele><time>2026-05-01T16:35:19.273Z</time></trkpt><trkpt lat="43.8029631" lon="6.6090658"><ele>1093.0</ele><time>2026-05-01T16:35:20.273Z</time></trkpt><trkpt lat="43.8028946" lon="6.6088634"><ele>1093.3333333333333</ele><time>2026-05-01T16:35:21.273Z</time></trkpt><trkpt lat="43.8028297" lon="6.6086581"><ele>1093.6666666666667</ele><time>2026-05-01T16:35:22.273Z</time></trkpt><trkpt lat="43.8027774" lon="6.6084642"><ele>1094.0</ele><time>2026-05-01T16:35:23.273Z</time></trkpt><trkpt lat="43.8027455" lon="6.6082603"><ele>1094.0</ele><time>2026-05-01T16:35:24.273Z</time></trkpt><trkpt lat="43.8027566" lon="6.6080436"><ele>1094.0</ele><time>2026-05-01T16:35:25.273Z</time></trkpt><trkpt lat="43.8027905" lon="6.607819"><ele>1094.0</ele><time>2026-05-01T16:35:26.273Z</time></trkpt><trkpt lat="43.8028111" lon="6.6075754"><ele>1092.6666666666667</ele><time>2026-05-01T16:35:27.273Z</time></trkpt><trkpt lat="43.8028036" lon="6.6073284"><ele>1091.3333333333333</ele><time>2026-05-01T16:35:28.273Z</time></trkpt><trkpt lat="43.8027606" lon="6.6070908"><ele>1090.0</ele><time>2026-05-01T16:35:29.273Z</time></trkpt><trkpt lat="43.8026819" lon="6.6068736"><ele>1080.6666666666665</ele><time>2026-05-01T16:35:30.273Z</time></trkpt><trkpt lat="43.802587" lon="6.6066786"><ele>1071.3333333333333</ele><time>2026-05-01T16:35:31.273Z</time></trkpt><trkpt lat="43.8025101" lon="6.6064869"><ele>1062.0</ele><time>2026-05-01T16:35:32.273Z</time></trkpt><trkpt lat="43.8024604" lon="6.6062832"><ele>1061.5</ele><time>2026-05-01T16:35:33.273Z</time></trkpt><trkpt lat="43.8024477" lon="6.6060626"><ele>1061.0</ele><time>2026-05-01T16:35:34.273Z</time></trkpt><trkpt lat="43.8025034" lon="6.6055878"><ele>1061.0</ele><time>2026-05-01T16:35:36.274Z</time></trkpt><trkpt lat="43.8025382" lon="6.6053356"><ele>1061.0</ele><time>2026-05-01T16:35:37.273Z</time></trkpt><trkpt lat="43.8025682" lon="6.6050757"><ele>1061.0</ele><time>2026-05-01T16:35:38.273Z</time></trkpt><trkpt lat="43.8025875" lon="6.6048142"><ele>1061.6666666666667</ele><time>2026-05-01T16:35:39.273Z</time></trkpt><trkpt lat="43.8026149" lon="6.604557"><ele>1062.3333333333333</ele><time>2026-05-01T16:35:40.273Z</time></trkpt><trkpt lat="43.8026519" lon="6.6042854"><ele>1063.0</ele><time>2026-05-01T16:35:41.273Z</time></trkpt><trkpt lat="43.8026859" lon="6.6040236"><ele>1063.0</ele><time>2026-05-01T16:35:42.273Z</time></trkpt><trkpt lat="43.8027301" lon="6.6037697"><ele>1063.0</ele><time>2026-05-01T16:35:43.273Z</time></trkpt><trkpt lat="43.8027816" lon="6.6035149"><ele>1063.0</ele><time>2026-05-01T16:35:44.273Z</time></trkpt><trkpt lat="43.8028316" lon="6.6032596"><ele>1061.0</ele><time>2026-05-01T16:35:45.273Z</time></trkpt><trkpt lat="43.8028847" lon="6.6029922"><ele>1059.0</ele><time>2026-05-01T16:35:46.274Z</time></trkpt><trkpt lat="43.8029359" lon="6.6027217"><ele>1057.0</ele><time>2026-05-01T16:35:47.273Z</time></trkpt><trkpt lat="43.8029923" lon="6.6024574"><ele>1054.0</ele><time>2026-05-01T16:35:48.273Z</time></trkpt><trkpt lat="43.8030516" lon="6.6021902"><ele>1051.0</ele><time>2026-05-01T16:35:49.273Z</time></trkpt><trkpt lat="43.8031114" lon="6.6019195"><ele>1048.0</ele><time>2026-05-01T16:35:50.273Z</time></trkpt><trkpt lat="43.8031666" lon="6.6016623"><ele>1047.0</ele><time>2026-05-01T16:35:51.273Z</time></trkpt><trkpt lat="43.8032239" lon="6.6014036"><ele>1046.0</ele><time>2026-05-01T16:35:52.273Z</time></trkpt><trkpt lat="43.8032859" lon="6.6011503"><ele>1045.0</ele><time>2026-05-01T16:35:53.273Z</time></trkpt><trkpt lat="43.8033495" lon="6.6008829"><ele>1041.0</ele><time>2026-05-01T16:35:54.274Z</time></trkpt><trkpt lat="43.8034116" lon="6.600627"><ele>1037.0</ele><time>2026-05-01T16:35:55.273Z</time></trkpt><trkpt lat="43.8035194" lon="6.6000771"><ele>1037.0</ele><time>2026-05-01T16:35:57.273Z</time></trkpt><trkpt lat="43.803563" lon="6.5997952"><ele>1037.0</ele><time>2026-05-01T16:35:58.273Z</time></trkpt><trkpt lat="43.8035977" lon="6.5995113"><ele>1037.0</ele><time>2026-05-01T16:35:59.273Z</time></trkpt><trkpt lat="43.8036371" lon="6.5992261"><ele>1037.3333333333335</ele><time>2026-05-01T16:36:00.273Z</time></trkpt><trkpt lat="43.8036755" lon="6.5989482"><ele>1037.6666666666667</ele><time>2026-05-01T16:36:01.273Z</time></trkpt><trkpt lat="43.8037157" lon="6.5986796"><ele>1038.0</ele><time>2026-05-01T16:36:02.273Z</time></trkpt><trkpt lat="43.8037736" lon="6.5984186"><ele>1038.0</ele><time>2026-05-01T16:36:03.273Z</time></trkpt><trkpt lat="43.8038428" lon="6.5981693"><ele>1038.0</ele><time>2026-05-01T16:36:04.274Z</time></trkpt><trkpt lat="43.8039102" lon="6.5979098"><ele>1038.0</ele><time>2026-05-01T16:36:05.273Z</time></trkpt><trkpt lat="43.8039818" lon="6.5976457"><ele>1035.3333333333333</ele><time>2026-05-01T16:36:06.273Z</time></trkpt><trkpt lat="43.8040487" lon="6.597389"><ele>1032.6666666666665</ele><time>2026-05-01T16:36:07.273Z</time></trkpt><trkpt lat="43.8041138" lon="6.5971455"><ele>1030.0</ele><time>2026-05-01T16:36:08.273Z</time></trkpt><trkpt lat="43.8041697" lon="6.5968859"><ele>1027.0</ele><time>2026-05-01T16:36:09.273Z</time></trkpt><trkpt lat="43.8042048" lon="6.5966325"><ele>1024.0</ele><time>2026-05-01T16:36:10.273Z</time></trkpt><trkpt lat="43.8042325" lon="6.5963746"><ele>1021.0</ele><time>2026-05-01T16:36:11.273Z</time></trkpt><trkpt lat="43.8042597" lon="6.5961253"><ele>1018.6666666666666</ele><time>2026-05-01T16:36:12.273Z</time></trkpt><trkpt lat="43.8042935" lon="6.5958691"><ele>1016.3333333333333</ele><time>2026-05-01T16:36:13.273Z</time></trkpt><trkpt lat="43.8043433" lon="6.5956195"><ele>1014.0</ele><time>2026-05-01T16:36:14.274Z</time></trkpt><trkpt lat="43.8043953" lon="6.5954054"><ele>1012.0</ele><time>2026-05-01T16:36:15.273Z</time></trkpt><trkpt lat="43.8044439" lon="6.5952192"><ele>1010.0</ele><time>2026-05-01T16:36:16.273Z</time></trkpt><trkpt lat="43.8045355" lon="6.5949165"><ele>1008.0</ele><time>2026-05-01T16:36:18.273Z</time></trkpt><trkpt lat="43.8045858" lon="6.5948066"><ele>1008.0</ele><time>2026-05-01T16:36:19.273Z</time></trkpt><trkpt lat="43.8046563" lon="6.594737"><ele>1008.0</ele><time>2026-05-01T16:36:20.274Z</time></trkpt><trkpt lat="43.8047469" lon="6.5947113"><ele>1008.0</ele><time>2026-05-01T16:36:21.273Z</time></trkpt><trkpt lat="43.8048411" lon="6.5947446"><ele>1008.0</ele><time>2026-05-01T16:36:22.273Z</time></trkpt><trkpt lat="43.8049323" lon="6.5948405"><ele>1008.0</ele><time>2026-05-01T16:36:23.273Z</time></trkpt><trkpt lat="43.8050199" lon="6.5950032"><ele>1008.0</ele><time>2026-05-01T16:36:24.273Z</time></trkpt><trkpt lat="43.805096" lon="6.5951964"><ele>1008.0</ele><time>2026-05-01T16:36:25.273Z</time></trkpt><trkpt lat="43.8051391" lon="6.5953755"><ele>1008.0</ele><time>2026-05-01T16:36:26.273Z</time></trkpt><trkpt lat="43.8051382" lon="6.5955559"><ele>1008.0</ele><time>2026-05-01T16:36:27.273Z</time></trkpt><trkpt lat="43.8051076" lon="6.5957279"><ele>1009.0</ele><time>2026-05-01T16:36:28.273Z</time></trkpt><trkpt lat="43.8050657" lon="6.5959077"><ele>1010.0</ele><time>2026-05-01T16:36:29.273Z</time></trkpt><trkpt lat="43.8050349" lon="6.596095"><ele>1011.0</ele><time>2026-05-01T16:36:30.273Z</time></trkpt><trkpt lat="43.8050153" lon="6.5962993"><ele>1012.0</ele><time>2026-05-01T16:36:31.273Z</time></trkpt><trkpt lat="43.8050134" lon="6.5965052"><ele>1012.0</ele><time>2026-05-01T16:36:32.273Z</time></trkpt><trkpt lat="43.8050264" lon="6.5967087"><ele>1012.0</ele><time>2026-05-01T16:36:33.273Z</time></trkpt><trkpt lat="43.8050501" lon="6.5969082"><ele>1012.0</ele><time>2026-05-01T16:36:34.273Z</time></trkpt><trkpt lat="43.8050855" lon="6.5970997"><ele>1012.0</ele><time>2026-05-01T16:36:35.273Z</time></trkpt><trkpt lat="43.8051385" lon="6.5972757"><ele>1006.0</ele><time>2026-05-01T16:36:36.273Z</time></trkpt><trkpt lat="43.8052038" lon="6.5974376"><ele>1000.0</ele><time>2026-05-01T16:36:37.273Z</time></trkpt><trkpt lat="43.805354" lon="6.5977374"><ele>994.0</ele><time>2026-05-01T16:36:39.273Z</time></trkpt><trkpt lat="43.8054403" lon="6.5978463"><ele>994.0</ele><time>2026-05-01T16:36:40.273Z</time></trkpt><trkpt lat="43.8055321" lon="6.5979056"><ele>994.0</ele><time>2026-05-01T16:36:41.273Z</time></trkpt><trkpt lat="43.8056407" lon="6.5979194"><ele>994.0</ele><time>2026-05-01T16:36:42.273Z</time></trkpt><trkpt lat="43.805759" lon="6.5978736"><ele>994.0</ele><time>2026-05-01T16:36:43.274Z</time></trkpt><trkpt lat="43.8058673" lon="6.5977592"><ele>994.0</ele><time>2026-05-01T16:36:44.273Z</time></trkpt><trkpt lat="43.8059704" lon="6.5976122"><ele>994.0</ele><time>2026-05-01T16:36:45.273Z</time></trkpt><trkpt lat="43.8060665" lon="6.5975004"><ele>994.0</ele><time>2026-05-01T16:36:46.273Z</time></trkpt><trkpt lat="43.8061584" lon="6.5974453"><ele>994.0</ele><time>2026-05-01T16:36:47.274Z</time></trkpt><trkpt lat="43.8062358" lon="6.5974451"><ele>990.4000000000001</ele><time>2026-05-01T16:36:48.273Z</time></trkpt><trkpt lat="43.8062963" lon="6.5974879"><ele>986.8000000000001</ele><time>2026-05-01T16:36:49.273Z</time></trkpt><trkpt lat="43.8063285" lon="6.5975793"><ele>983.1999999999999</ele><time>2026-05-01T16:36:50.273Z</time></trkpt><trkpt lat="43.8063268" lon="6.5977084"><ele>979.5999999999999</ele><time>2026-05-01T16:36:51.273Z</time></trkpt><trkpt lat="43.8062893" lon="6.5978637"><ele>976.0</ele><time>2026-05-01T16:36:52.273Z</time></trkpt><trkpt lat="43.8062185" lon="6.5980254"><ele>975.3333333333333</ele><time>2026-05-01T16:36:53.273Z</time></trkpt><trkpt lat="43.8061001" lon="6.5981647"><ele>974.6666666666667</ele><time>2026-05-01T16:36:54.273Z</time></trkpt><trkpt lat="43.8059542" lon="6.5982807"><ele>974.0</ele><time>2026-05-01T16:36:55.274Z</time></trkpt><trkpt lat="43.8058144" lon="6.5984026"><ele>977.3333333333334</ele><time>2026-05-01T16:36:56.273Z</time></trkpt><trkpt lat="43.8057045" lon="6.5985513"><ele>980.6666666666667</ele><time>2026-05-01T16:36:57.273Z</time></trkpt><trkpt lat="43.8056327" lon="6.598728"><ele>984.0</ele><time>2026-05-01T16:36:58.273Z</time></trkpt><trkpt lat="43.8055834" lon="6.5991015"><ele>984.0</ele><time>2026-05-01T16:37:00.273Z</time></trkpt><trkpt lat="43.8055815" lon="6.5992742"><ele>984.0000000000001</ele><time>2026-05-01T16:37:01.274Z</time></trkpt><trkpt lat="43.8055804" lon="6.5994252"><ele>984.0000000000001</ele><time>2026-05-01T16:37:02.273Z</time></trkpt><trkpt lat="43.8055817" lon="6.5995618"><ele>984.0</ele><time>2026-05-01T16:37:03.273Z</time></trkpt><trkpt lat="43.8056076" lon="6.5996777"><ele>984.0</ele><time>2026-05-01T16:37:04.274Z</time></trkpt><trkpt lat="43.8056558" lon="6.5997486"><ele>984.4000000000001</ele><time>2026-05-01T16:37:05.273Z</time></trkpt><trkpt lat="43.8057238" lon="6.5997895"><ele>984.8000000000001</ele><time>2026-05-01T16:37:06.273Z</time></trkpt><trkpt lat="43.8058116" lon="6.5997806"><ele>985.1999999999999</ele><time>2026-05-01T16:37:07.273Z</time></trkpt><trkpt lat="43.8059092" lon="6.5997018"><ele>985.5999999999999</ele><time>2026-05-01T16:37:08.273Z</time></trkpt><trkpt lat="43.8060077" lon="6.5995528"><ele>986.0</ele><time>2026-05-01T16:37:09.273Z</time></trkpt><trkpt lat="43.8061131" lon="6.5993525"><ele>986.0</ele><time>2026-05-01T16:37:10.273Z</time></trkpt><trkpt lat="43.8062301" lon="6.5991649"><ele>986.0</ele><time>2026-05-01T16:37:11.273Z</time></trkpt><trkpt lat="43.8063578" lon="6.5989962"><ele>986.0</ele><time>2026-05-01T16:37:12.273Z</time></trkpt><trkpt lat="43.8065058" lon="6.5988665"><ele>986.0</ele><time>2026-05-01T16:37:13.273Z</time></trkpt><trkpt lat="43.8066562" lon="6.5987646"><ele>986.0</ele><time>2026-05-01T16:37:14.273Z</time></trkpt><trkpt lat="43.8068115" lon="6.5986908"><ele>986.0</ele><time>2026-05-01T16:37:15.273Z</time></trkpt><trkpt lat="43.8069448" lon="6.5985894"><ele>984.0</ele><time>2026-05-01T16:37:16.273Z</time></trkpt><trkpt lat="43.8070695" lon="6.5984561"><ele>982.0</ele><time>2026-05-01T16:37:17.273Z</time></trkpt><trkpt lat="43.8071826" lon="6.598297"><ele>980.0</ele><time>2026-05-01T16:37:18.273Z</time></trkpt><trkpt lat="43.8072936" lon="6.5981098"><ele>972.0</ele><time>2026-05-01T16:37:19.273Z</time></trkpt><trkpt lat="43.8074925" lon="6.5977263"><ele>964.0</ele><time>2026-05-01T16:37:21.274Z</time></trkpt><trkpt lat="43.8075686" lon="6.5975334"><ele>964.0</ele><time>2026-05-01T16:37:22.273Z</time></trkpt><trkpt lat="43.8076448" lon="6.597351"><ele>964.0</ele><time>2026-05-01T16:37:23.273Z</time></trkpt><trkpt lat="43.8077138" lon="6.5971827"><ele>964.0</ele><time>2026-05-01T16:37:24.273Z</time></trkpt><trkpt lat="43.8077765" lon="6.5970449"><ele>964.0</ele><time>2026-05-01T16:37:25.273Z</time></trkpt><trkpt lat="43.8078405" lon="6.5969402"><ele>963.4000000000001</ele><time>2026-05-01T16:37:26.273Z</time></trkpt><trkpt lat="43.8079107" lon="6.596882"><ele>962.8000000000001</ele><time>2026-05-01T16:37:27.273Z</time></trkpt><trkpt lat="43.8079874" lon="6.5968814"><ele>962.1999999999999</ele><time>2026-05-01T16:37:28.273Z</time></trkpt><trkpt lat="43.8080584" lon="6.5969323"><ele>961.5999999999999</ele><time>2026-05-01T16:37:29.273Z</time></trkpt><trkpt lat="43.8081312" lon="6.5970416"><ele>961.0</ele><time>2026-05-01T16:37:30.274Z</time></trkpt><trkpt lat="43.8082067" lon="6.5971907"><ele>961.0</ele><time>2026-05-01T16:37:31.273Z</time></trkpt><trkpt lat="43.8083029" lon="6.597352"><ele>961.0</ele><time>2026-05-01T16:37:32.273Z</time></trkpt><trkpt lat="43.8084154" lon="6.5974975"><ele>961.0</ele><time>2026-05-01T16:37:33.273Z</time></trkpt><trkpt lat="43.8085364" lon="6.5976288"><ele>958.0</ele><time>2026-05-01T16:37:34.273Z</time></trkpt><trkpt lat="43.8086582" lon="6.5977755"><ele>955.0</ele><time>2026-05-01T16:37:35.273Z</time></trkpt><trkpt lat="43.8087693" lon="6.5979406"><ele>952.0</ele><time>2026-05-01T16:37:36.273Z</time></trkpt><trkpt lat="43.8088606" lon="6.5981235"><ele>952.0</ele><time>2026-05-01T16:37:37.273Z</time></trkpt><trkpt lat="43.8089214" lon="6.5983251"><ele>952.0</ele><time>2026-05-01T16:37:38.273Z</time></trkpt><trkpt lat="43.8089792" lon="6.5985196"><ele>952.0</ele><time>2026-05-01T16:37:39.273Z</time></trkpt><trkpt lat="43.8090392" lon="6.5987005"><ele>950.3333333333333</ele><time>2026-05-01T16:37:40.273Z</time></trkpt><trkpt lat="43.8091922" lon="6.5990162"><ele>948.6666666666667</ele><time>2026-05-01T16:37:42.273Z</time></trkpt><trkpt lat="43.809293" lon="6.5991421"><ele>947.0</ele><time>2026-05-01T16:37:43.273Z</time></trkpt><trkpt lat="43.8094163" lon="6.5992344"><ele>947.0</ele><time>2026-05-01T16:37:44.273Z</time></trkpt><trkpt lat="43.8095577" lon="6.5992875"><ele>947.0</ele><time>2026-05-01T16:37:45.273Z</time></trkpt><trkpt lat="43.8097103" lon="6.5992992"><ele>947.0</ele><time>2026-05-01T16:37:46.273Z</time></trkpt><trkpt lat="43.8098688" lon="6.5992591"><ele>947.0</ele><time>2026-05-01T16:37:47.273Z</time></trkpt><trkpt lat="43.8100129" lon="6.599167"><ele>947.0</ele><time>2026-05-01T16:37:48.274Z</time></trkpt><trkpt lat="43.8101562" lon="6.5990631"><ele>947.0</ele><time>2026-05-01T16:37:49.273Z</time></trkpt><trkpt lat="43.8103002" lon="6.5989775"><ele>947.0</ele><time>2026-05-01T16:37:50.273Z</time></trkpt><trkpt lat="43.8104409" lon="6.5988926"><ele>947.0</ele><time>2026-05-01T16:37:51.273Z</time></trkpt><trkpt lat="43.810567" lon="6.5988365"><ele>947.0</ele><time>2026-05-01T16:37:52.273Z</time></trkpt><trkpt lat="43.8106814" lon="6.5987697"><ele>947.0</ele><time>2026-05-01T16:37:53.273Z</time></trkpt><trkpt lat="43.810797" lon="6.5987274"><ele>947.0</ele><time>2026-05-01T16:37:54.273Z</time></trkpt><trkpt lat="43.8109209" lon="6.5986812"><ele>947.0</ele><time>2026-05-01T16:37:55.273Z</time></trkpt><trkpt lat="43.8110501" lon="6.5986253"><ele>947.0</ele><time>2026-05-01T16:37:56.273Z</time></trkpt><trkpt lat="43.8111772" lon="6.5985785"><ele>947.0</ele><time>2026-05-01T16:37:57.273Z</time></trkpt><trkpt lat="43.8113025" lon="6.5985117"><ele>947.5</ele><time>2026-05-01T16:37:58.273Z</time></trkpt><trkpt lat="43.8114219" lon="6.5984501"><ele>948.0</ele><time>2026-05-01T16:37:59.273Z</time></trkpt><trkpt lat="43.8115375" lon="6.5983942"><ele>948.5</ele><time>2026-05-01T16:38:00.273Z</time></trkpt><trkpt lat="43.8116596" lon="6.5983334"><ele>949.0</ele><time>2026-05-01T16:38:01.273Z</time></trkpt><trkpt lat="43.8118806" lon="6.5981966"><ele>949.5</ele><time>2026-05-01T16:38:03.273Z</time></trkpt><trkpt lat="43.8119919" lon="6.5981244"><ele>950.0</ele><time>2026-05-01T16:38:04.273Z</time></trkpt><trkpt lat="43.8121079" lon="6.5980608"><ele>950.5</ele><time>2026-05-01T16:38:05.273Z</time></trkpt><trkpt lat="43.8122278" lon="6.5979912"><ele>951.0</ele><time>2026-05-01T16:38:06.273Z</time></trkpt><trkpt lat="43.8123495" lon="6.5979239"><ele>951.0</ele><time>2026-05-01T16:38:07.273Z</time></trkpt><trkpt lat="43.8124717" lon="6.5978602"><ele>951.0</ele><time>2026-05-01T16:38:08.273Z</time></trkpt><trkpt lat="43.8126025" lon="6.597789"><ele>951.0</ele><time>2026-05-01T16:38:09.273Z</time></trkpt><trkpt lat="43.8127425" lon="6.5977173"><ele>951.0</ele><time>2026-05-01T16:38:10.273Z</time></trkpt><trkpt lat="43.81289" lon="6.5976343"><ele>953.6666666666667</ele><time>2026-05-01T16:38:11.274Z</time></trkpt><trkpt lat="43.813039" lon="6.59755"><ele>956.3333333333334</ele><time>2026-05-01T16:38:12.273Z</time></trkpt><trkpt lat="43.8131941" lon="6.5974742"><ele>959.0</ele><time>2026-05-01T16:38:13.273Z</time></trkpt><trkpt lat="43.8133567" lon="6.5973896"><ele>959.6666666666667</ele><time>2026-05-01T16:38:14.273Z</time></trkpt><trkpt lat="43.8135167" lon="6.5973071"><ele>960.3333333333333</ele><time>2026-05-01T16:38:15.273Z</time></trkpt><trkpt lat="43.8136751" lon="6.5971951"><ele>961.0</ele><time>2026-05-01T16:38:16.273Z</time></trkpt><trkpt lat="43.8138329" lon="6.5970574"><ele>963.0</ele><time>2026-05-01T16:38:17.273Z</time></trkpt><trkpt lat="43.8139889" lon="6.5969149"><ele>965.0</ele><time>2026-05-01T16:38:18.273Z</time></trkpt><trkpt lat="43.8141496" lon="6.5967617"><ele>967.0</ele><time>2026-05-01T16:38:19.273Z</time></trkpt><trkpt lat="43.8143097" lon="6.5966125"><ele>967.0</ele><time>2026-05-01T16:38:20.273Z</time></trkpt><trkpt lat="43.8144597" lon="6.5964641"><ele>967.0</ele><time>2026-05-01T16:38:21.273Z</time></trkpt><trkpt lat="43.8146167" lon="6.5963178"><ele>967.0</ele><time>2026-05-01T16:38:22.273Z</time></trkpt><trkpt lat="43.81494" lon="6.5959963"><ele>970.6666666666666</ele><time>2026-05-01T16:38:24.273Z</time></trkpt><trkpt lat="43.8151001" lon="6.5958471"><ele>974.3333333333333</ele><time>2026-05-01T16:38:25.273Z</time></trkpt><trkpt lat="43.8152628" lon="6.5957038"><ele>978.0</ele><time>2026-05-01T16:38:26.273Z</time></trkpt><trkpt lat="43.8154273" lon="6.5955658"><ele>978.0</ele><time>2026-05-01T16:38:27.273Z</time></trkpt><trkpt lat="43.8155855" lon="6.5954437"><ele>978.0</ele><time>2026-05-01T16:38:28.273Z</time></trkpt><trkpt lat="43.8157373" lon="6.5953446"><ele>978.0</ele><time>2026-05-01T16:38:29.273Z</time></trkpt><trkpt lat="43.8158841" lon="6.5952558"><ele>978.75</ele><time>2026-05-01T16:38:30.273Z</time></trkpt><trkpt lat="43.8160218" lon="6.5951603"><ele>979.5</ele><time>2026-05-01T16:38:31.273Z</time></trkpt><trkpt lat="43.8161231" lon="6.5950554"><ele>980.25</ele><time>2026-05-01T16:38:32.273Z</time></trkpt><trkpt lat="43.816191" lon="6.5949264"><ele>981.0</ele><time>2026-05-01T16:38:33.273Z</time></trkpt><trkpt lat="43.8162237" lon="6.5947678"><ele>981.0</ele><time>2026-05-01T16:38:34.273Z</time></trkpt><trkpt lat="43.8162132" lon="6.594609"><ele>981.0</ele><time>2026-05-01T16:38:35.273Z</time></trkpt><trkpt lat="43.8161481" lon="6.5944767"><ele>981.0</ele><time>2026-05-01T16:38:36.274Z</time></trkpt><trkpt lat="43.8160528" lon="6.5943874"><ele>981.0</ele><time>2026-05-01T16:38:37.273Z</time></trkpt><trkpt lat="43.8159366" lon="6.5943616"><ele>982.0</ele><time>2026-05-01T16:38:38.273Z</time></trkpt><trkpt lat="43.815809" lon="6.5944085"><ele>983.0</ele><time>2026-05-01T16:38:39.273Z</time></trkpt><trkpt lat="43.8156897" lon="6.5945243"><ele>984.0</ele><time>2026-05-01T16:38:40.273Z</time></trkpt><trkpt lat="43.8155723" lon="6.5946714"><ele>985.0</ele><time>2026-05-01T16:38:41.274Z</time></trkpt><trkpt lat="43.8154526" lon="6.594819"><ele>985.0</ele><time>2026-05-01T16:38:42.273Z</time></trkpt><trkpt lat="43.8153172" lon="6.5949398"><ele>985.0</ele><time>2026-05-01T16:38:43.273Z</time></trkpt><trkpt lat="43.8150432" lon="6.5950694"><ele>989.3333333333333</ele><time>2026-05-01T16:38:45.273Z</time></trkpt><trkpt lat="43.8148927" lon="6.5950817"><ele>993.6666666666667</ele><time>2026-05-01T16:38:46.273Z</time></trkpt><trkpt lat="43.8147402" lon="6.5950811"><ele>998.0</ele><time>2026-05-01T16:38:47.273Z</time></trkpt><trkpt lat="43.8145838" lon="6.5950529"><ele>998.0</ele><time>2026-05-01T16:38:48.273Z</time></trkpt><trkpt lat="43.8144236" lon="6.5950139"><ele>998.0</ele><time>2026-05-01T16:38:49.273Z</time></trkpt><trkpt lat="43.8142585" lon="6.5949727"><ele>998.0</ele><time>2026-05-01T16:38:50.273Z</time></trkpt><trkpt lat="43.8141011" lon="6.5949263"><ele>998.6666666666667</ele><time>2026-05-01T16:38:51.273Z</time></trkpt><trkpt lat="43.8139527" lon="6.5948769"><ele>999.3333333333333</ele><time>2026-05-01T16:38:52.273Z</time></trkpt><trkpt lat="43.8138172" lon="6.5947849"><ele>1000.0</ele><time>2026-05-01T16:38:53.273Z</time></trkpt><trkpt lat="43.8137161" lon="6.594636"><ele>1005.0</ele><time>2026-05-01T16:38:54.273Z</time></trkpt><trkpt lat="43.8136488" lon="6.5944497"><ele>1010.0</ele><time>2026-05-01T16:38:55.273Z</time></trkpt><trkpt lat="43.8136047" lon="6.5942504"><ele>1015.0</ele><time>2026-05-01T16:38:56.273Z</time></trkpt><trkpt lat="43.8135981" lon="6.5940601"><ele>1020.0</ele><time>2026-05-01T16:38:57.273Z</time></trkpt><trkpt lat="43.8136299" lon="6.5938689"><ele>1020.0</ele><time>2026-05-01T16:38:58.273Z</time></trkpt><trkpt lat="43.8136882" lon="6.5936814"><ele>1020.0</ele><time>2026-05-01T16:38:59.273Z</time></trkpt><trkpt lat="43.8137578" lon="6.5934847"><ele>1020.0</ele><time>2026-05-01T16:39:00.273Z</time></trkpt><trkpt lat="43.8138241" lon="6.5933089"><ele>1020.0</ele><time>2026-05-01T16:39:01.273Z</time></trkpt><trkpt lat="43.8138977" lon="6.5931558"><ele>1019.6666666666667</ele><time>2026-05-01T16:39:02.274Z</time></trkpt><trkpt lat="43.8139888" lon="6.593027"><ele>1019.3333333333334</ele><time>2026-05-01T16:39:03.273Z</time></trkpt><trkpt lat="43.814111" lon="6.5929278"><ele>1019.0</ele><time>2026-05-01T16:39:04.273Z</time></trkpt><trkpt lat="43.814417" lon="6.5929309"><ele>1018.3333333333334</ele><time>2026-05-01T16:39:06.273Z</time></trkpt><trkpt lat="43.8146014" lon="6.592963"><ele>1017.6666666666667</ele><time>2026-05-01T16:39:07.273Z</time></trkpt><trkpt lat="43.8147757" lon="6.5929668"><ele>1017.0</ele><time>2026-05-01T16:39:08.273Z</time></trkpt><trkpt lat="43.8149371" lon="6.5929695"><ele>1017.0</ele><time>2026-05-01T16:39:09.273Z</time></trkpt><trkpt lat="43.8150962" lon="6.5929699"><ele>1017.0</ele><time>2026-05-01T16:39:10.273Z</time></trkpt><trkpt lat="43.8152396" lon="6.5929728"><ele>1017.0</ele><time>2026-05-01T16:39:11.273Z</time></trkpt><trkpt lat="43.8153851" lon="6.5929808"><ele>1017.0</ele><time>2026-05-01T16:39:12.273Z</time></trkpt><trkpt lat="43.8155295" lon="6.5929754"><ele>1016.5</ele><time>2026-05-01T16:39:13.273Z</time></trkpt><trkpt lat="43.8156612" lon="6.5929315"><ele>1016.0</ele><time>2026-05-01T16:39:14.273Z</time></trkpt><trkpt lat="43.8157847" lon="6.5928497"><ele>1015.5</ele><time>2026-05-01T16:39:15.274Z</time></trkpt><trkpt lat="43.815897" lon="6.5927387"><ele>1015.0</ele><time>2026-05-01T16:39:16.273Z</time></trkpt><trkpt lat="43.8160043" lon="6.5925949"><ele>1018.0</ele><time>2026-05-01T16:39:17.273Z</time></trkpt><trkpt lat="43.816113" lon="6.5924333"><ele>1021.0</ele><time>2026-05-01T16:39:18.273Z</time></trkpt><trkpt lat="43.8162216" lon="6.5922541"><ele>1024.0</ele><time>2026-05-01T16:39:19.273Z</time></trkpt><trkpt lat="43.8163318" lon="6.5920694"><ele>1025.6666666666665</ele><time>2026-05-01T16:39:20.273Z</time></trkpt><trkpt lat="43.8164399" lon="6.591886"><ele>1027.3333333333333</ele><time>2026-05-01T16:39:21.273Z</time></trkpt><trkpt lat="43.8165419" lon="6.5917005"><ele>1029.0</ele><time>2026-05-01T16:39:22.274Z</time></trkpt><trkpt lat="43.8166384" lon="6.5915028"><ele>1029.0</ele><time>2026-05-01T16:39:23.273Z</time></trkpt><trkpt lat="43.8167377" lon="6.5913022"><ele>1029.0</ele><time>2026-05-01T16:39:24.274Z</time></trkpt><trkpt lat="43.8168314" lon="6.5910843"><ele>1029.0</ele><time>2026-05-01T16:39:25.273Z</time></trkpt><trkpt lat="43.816962" lon="6.5906241"><ele>1030.3333333333333</ele><time>2026-05-01T16:39:27.273Z</time></trkpt><trkpt lat="43.8170178" lon="6.5903949"><ele>1031.6666666666665</ele><time>2026-05-01T16:39:28.273Z</time></trkpt><trkpt lat="43.8170841" lon="6.5901741"><ele>1033.0</ele><time>2026-05-01T16:39:29.273Z</time></trkpt><trkpt lat="43.8171713" lon="6.5899581"><ele>1033.0</ele><time>2026-05-01T16:39:30.273Z</time></trkpt><trkpt lat="43.8172735" lon="6.5897455"><ele>1033.0</ele><time>2026-05-01T16:39:31.273Z</time></trkpt><trkpt lat="43.8173713" lon="6.5895333"><ele>1033.0</ele><time>2026-05-01T16:39:32.272Z</time></trkpt><trkpt lat="43.8174707" lon="6.5893362"><ele>1035.3333333333333</ele><time>2026-05-01T16:39:33.274Z</time></trkpt><trkpt lat="43.8175739" lon="6.5891478"><ele>1037.6666666666667</ele><time>2026-05-01T16:39:34.273Z</time></trkpt><trkpt lat="43.8176937" lon="6.5889865"><ele>1040.0</ele><time>2026-05-01T16:39:35.273Z</time></trkpt><trkpt lat="43.8178233" lon="6.5888567"><ele>1040.0</ele><time>2026-05-01T16:39:36.273Z</time></trkpt><trkpt lat="43.8179347" lon="6.5887195"><ele>1040.0</ele><time>2026-05-01T16:39:37.273Z</time></trkpt><trkpt lat="43.8180234" lon="6.5885292"><ele>1040.0</ele><time>2026-05-01T16:39:38.273Z</time></trkpt><trkpt lat="43.8181082" lon="6.5883252"><ele>1044.6666666666667</ele><time>2026-05-01T16:39:39.273Z</time></trkpt><trkpt lat="43.8181966" lon="6.5881303"><ele>1049.3333333333333</ele><time>2026-05-01T16:39:40.273Z</time></trkpt><trkpt lat="43.8182825" lon="6.5879242"><ele>1054.0</ele><time>2026-05-01T16:39:41.273Z</time></trkpt><trkpt lat="43.8183638" lon="6.587708"><ele>1057.3333333333333</ele><time>2026-05-01T16:39:42.274Z</time></trkpt><trkpt lat="43.8184478" lon="6.5874936"><ele>1060.6666666666667</ele><time>2026-05-01T16:39:43.273Z</time></trkpt><trkpt lat="43.8185278" lon="6.5872874"><ele>1064.0</ele><time>2026-05-01T16:39:44.273Z</time></trkpt><trkpt lat="43.8186154" lon="6.5870921"><ele>1065.5</ele><time>2026-05-01T16:39:45.273Z</time></trkpt><trkpt lat="43.8187028" lon="6.5869065"><ele>1067.0</ele><time>2026-05-01T16:39:46.273Z</time></trkpt><trkpt lat="43.8189253" lon="6.5865599"><ele>1067.0</ele><time>2026-05-01T16:39:48.273Z</time></trkpt><trkpt lat="43.8190614" lon="6.5864057"><ele>1067.0</ele><time>2026-05-01T16:39:49.273Z</time></trkpt><trkpt lat="43.8192001" lon="6.5862518"><ele>1067.0</ele><time>2026-05-01T16:39:50.274Z</time></trkpt><trkpt lat="43.8193508" lon="6.5860948"><ele>1064.0</ele><time>2026-05-01T16:39:51.274Z</time></trkpt><trkpt lat="43.8195051" lon="6.5859288"><ele>1061.0</ele><time>2026-05-01T16:39:52.273Z</time></trkpt><trkpt lat="43.8196519" lon="6.585758"><ele>1058.0</ele><time>2026-05-01T16:39:53.273Z</time></trkpt><trkpt lat="43.8197995" lon="6.585604"><ele>1058.0</ele><time>2026-05-01T16:39:54.273Z</time></trkpt><trkpt lat="43.8199445" lon="6.5854675"><ele>1058.0</ele><time>2026-05-01T16:39:55.273Z</time></trkpt><trkpt lat="43.8200985" lon="6.5853505"><ele>1058.0</ele><time>2026-05-01T16:39:56.273Z</time></trkpt><trkpt lat="43.8202648" lon="6.5852619"><ele>1054.6666666666667</ele><time>2026-05-01T16:39:57.273Z</time></trkpt><trkpt lat="43.8204475" lon="6.5851998"><ele>1051.3333333333333</ele><time>2026-05-01T16:39:58.273Z</time></trkpt><trkpt lat="43.8206357" lon="6.5851514"><ele>1048.0</ele><time>2026-05-01T16:39:59.273Z</time></trkpt><trkpt lat="43.8208291" lon="6.5851071"><ele>1048.6666666666665</ele><time>2026-05-01T16:40:00.273Z</time></trkpt><trkpt lat="43.8210228" lon="6.5850551"><ele>1049.3333333333333</ele><time>2026-05-01T16:40:01.273Z</time></trkpt><trkpt lat="43.8212131" lon="6.5850034"><ele>1050.0</ele><time>2026-05-01T16:40:02.273Z</time></trkpt><trkpt lat="43.8214043" lon="6.5849568"><ele>1050.0</ele><time>2026-05-01T16:40:03.273Z</time></trkpt><trkpt lat="43.821581" lon="6.5848983"><ele>1050.0</ele><time>2026-05-01T16:40:04.273Z</time></trkpt><trkpt lat="43.8217366" lon="6.5847996"><ele>1050.0</ele><time>2026-05-01T16:40:05.273Z</time></trkpt><trkpt lat="43.8218674" lon="6.5846546"><ele>1060.5</ele><time>2026-05-01T16:40:06.273Z</time></trkpt><trkpt lat="43.8219653" lon="6.5844513"><ele>1071.0</ele><time>2026-05-01T16:40:07.273Z</time></trkpt><trkpt lat="43.822072" lon="6.5839728"><ele>1071.0</ele><time>2026-05-01T16:40:09.273Z</time></trkpt><trkpt lat="43.8220756" lon="6.5837177"><ele>1071.0</ele><time>2026-05-01T16:40:10.273Z</time></trkpt><trkpt lat="43.8220393" lon="6.5834543"><ele>1071.0</ele><time>2026-05-01T16:40:11.273Z</time></trkpt><trkpt lat="43.8219928" lon="6.5832"><ele>1069.3333333333333</ele><time>2026-05-01T16:40:12.273Z</time></trkpt><trkpt lat="43.8219706" lon="6.5829461"><ele>1067.6666666666665</ele><time>2026-05-01T16:40:13.273Z</time></trkpt><trkpt lat="43.8219823" lon="6.5827014"><ele>1066.0</ele><time>2026-05-01T16:40:14.273Z</time></trkpt><trkpt lat="43.8220264" lon="6.5824587"><ele>1063.0</ele><time>2026-05-01T16:40:15.273Z</time></trkpt><trkpt lat="43.8221198" lon="6.5822221"><ele>1060.0</ele><time>2026-05-01T16:40:16.273Z</time></trkpt><trkpt lat="43.8222365" lon="6.5820148"><ele>1057.0</ele><time>2026-05-01T16:40:17.273Z</time></trkpt><trkpt lat="43.822384" lon="6.5818407"><ele>1050.3333333333333</ele><time>2026-05-01T16:40:18.273Z</time></trkpt><trkpt lat="43.822555" lon="6.5817182"><ele>1043.6666666666667</ele><time>2026-05-01T16:40:19.273Z</time></trkpt><trkpt lat="43.8227374" lon="6.5816388"><ele>1037.0</ele><time>2026-05-01T16:40:20.273Z</time></trkpt><trkpt lat="43.8229293" lon="6.5816312"><ele>1037.0</ele><time>2026-05-01T16:40:21.273Z</time></trkpt><trkpt lat="43.8231202" lon="6.5816477"><ele>1037.0</ele><time>2026-05-01T16:40:22.273Z</time></trkpt><trkpt lat="43.8233093" lon="6.5816496"><ele>1037.0</ele><time>2026-05-01T16:40:23.274Z</time></trkpt><trkpt lat="43.823483" lon="6.5816204"><ele>1040.3333333333335</ele><time>2026-05-01T16:40:24.273Z</time></trkpt><trkpt lat="43.8236483" lon="6.5815354"><ele>1043.6666666666667</ele><time>2026-05-01T16:40:25.273Z</time></trkpt><trkpt lat="43.8237853" lon="6.581379"><ele>1047.0</ele><time>2026-05-01T16:40:26.273Z</time></trkpt><trkpt lat="43.8238914" lon="6.5811675"><ele>1047.0</ele><time>2026-05-01T16:40:27.273Z</time></trkpt><trkpt lat="43.8239712" lon="6.5809183"><ele>1047.0</ele><time>2026-05-01T16:40:28.274Z</time></trkpt><trkpt lat="43.8241088" lon="6.5804014"><ele>1045.3333333333333</ele><time>2026-05-01T16:40:30.273Z</time></trkpt><trkpt lat="43.8241707" lon="6.5801338"><ele>1043.6666666666665</ele><time>2026-05-01T16:40:31.273Z</time></trkpt><trkpt lat="43.8242368" lon="6.5798638"><ele>1042.0</ele><time>2026-05-01T16:40:32.273Z</time></trkpt><trkpt lat="43.8243037" lon="6.5795889"><ele>1046.0</ele><time>2026-05-01T16:40:33.273Z</time></trkpt><trkpt lat="43.8243656" lon="6.5793225"><ele>1050.0</ele><time>2026-05-01T16:40:34.274Z</time></trkpt><trkpt lat="43.8244329" lon="6.5790671"><ele>1054.0</ele><time>2026-05-01T16:40:35.273Z</time></trkpt><trkpt lat="43.8244957" lon="6.5788175"><ele>1051.0</ele><time>2026-05-01T16:40:36.273Z</time></trkpt><trkpt lat="43.8245601" lon="6.5785799"><ele>1048.0</ele><time>2026-05-01T16:40:37.273Z</time></trkpt><trkpt lat="43.8246575" lon="6.578365"><ele>1045.0</ele><time>2026-05-01T16:40:38.273Z</time></trkpt><trkpt lat="43.8247759" lon="6.5781615"><ele>1045.0</ele><time>2026-05-01T16:40:39.273Z</time></trkpt><trkpt lat="43.8249145" lon="6.5779831"><ele>1045.0</ele><time>2026-05-01T16:40:40.273Z</time></trkpt><trkpt lat="43.8250476" lon="6.5778185"><ele>1045.0</ele><time>2026-05-01T16:40:41.274Z</time></trkpt><trkpt lat="43.825164" lon="6.5776384"><ele>1050.0</ele><time>2026-05-01T16:40:42.273Z</time></trkpt><trkpt lat="43.8252308" lon="6.5774303"><ele>1055.0</ele><time>2026-05-01T16:40:43.273Z</time></trkpt><trkpt lat="43.8252617" lon="6.5772034"><ele>1060.0</ele><time>2026-05-01T16:40:44.273Z</time></trkpt><trkpt lat="43.8252572" lon="6.5769836"><ele>1060.0</ele><time>2026-05-01T16:40:45.273Z</time></trkpt><trkpt lat="43.8252181" lon="6.5767701"><ele>1060.0</ele><time>2026-05-01T16:40:46.273Z</time></trkpt><trkpt lat="43.8251402" lon="6.5765481"><ele>1060.0</ele><time>2026-05-01T16:40:47.273Z</time></trkpt><trkpt lat="43.825021" lon="6.5763436"><ele>1050.0</ele><time>2026-05-01T16:40:48.273Z</time></trkpt><trkpt lat="43.8248695" lon="6.5761789"><ele>1040.0</ele><time>2026-05-01T16:40:49.273Z</time></trkpt><trkpt lat="43.8245536" lon="6.5759359"><ele>1040.0</ele><time>2026-05-01T16:40:51.273Z</time></trkpt><trkpt lat="43.8244015" lon="6.5758161"><ele>1040.0</ele><time>2026-05-01T16:40:52.273Z</time></trkpt><trkpt lat="43.8242559" lon="6.575686"><ele>1040.0</ele><time>2026-05-01T16:40:53.273Z</time></trkpt><trkpt lat="43.8241222" lon="6.5755486"><ele>1037.3333333333335</ele><time>2026-05-01T16:40:54.273Z</time></trkpt><trkpt lat="43.8240104" lon="6.5753719"><ele>1034.6666666666667</ele><time>2026-05-01T16:40:55.273Z</time></trkpt><trkpt lat="43.8239324" lon="6.5751597"><ele>1032.0</ele><time>2026-05-01T16:40:56.274Z</time></trkpt><trkpt lat="43.8238927" lon="6.5749316"><ele>1032.0</ele><time>2026-05-01T16:40:57.273Z</time></trkpt><trkpt lat="43.8239119" lon="6.5746753"><ele>1032.0</ele><time>2026-05-01T16:40:58.274Z</time></trkpt><trkpt lat="43.823964" lon="6.5744069"><ele>1032.0</ele><time>2026-05-01T16:40:59.273Z</time></trkpt><trkpt lat="43.8240169" lon="6.5741264"><ele>1030.6666666666667</ele><time>2026-05-01T16:41:00.273Z</time></trkpt><trkpt lat="43.8240561" lon="6.5738325"><ele>1029.3333333333335</ele><time>2026-05-01T16:41:01.273Z</time></trkpt><trkpt lat="43.8240893" lon="6.5735366"><ele>1028.0</ele><time>2026-05-01T16:41:02.273Z</time></trkpt><trkpt lat="43.8241218" lon="6.5732477"><ele>1026.3333333333335</ele><time>2026-05-01T16:41:03.273Z</time></trkpt><trkpt lat="43.8241598" lon="6.5729693"><ele>1024.6666666666667</ele><time>2026-05-01T16:41:04.273Z</time></trkpt><trkpt lat="43.8241995" lon="6.5726884"><ele>1023.0</ele><time>2026-05-01T16:41:05.273Z</time></trkpt><trkpt lat="43.8242352" lon="6.5724039"><ele>1024.6666666666667</ele><time>2026-05-01T16:41:06.273Z</time></trkpt><trkpt lat="43.8242731" lon="6.572115"><ele>1026.3333333333335</ele><time>2026-05-01T16:41:07.273Z</time></trkpt><trkpt lat="43.8243108" lon="6.5718337"><ele>1028.0</ele><time>2026-05-01T16:41:08.273Z</time></trkpt><trkpt lat="43.8243467" lon="6.5715571"><ele>1028.0</ele><time>2026-05-01T16:41:09.273Z</time></trkpt><trkpt lat="43.8243826" lon="6.5712797"><ele>1028.0</ele><time>2026-05-01T16:41:10.273Z</time></trkpt><trkpt lat="43.8244497" lon="6.5707379"><ele>1026.0</ele><time>2026-05-01T16:41:12.273Z</time></trkpt><trkpt lat="43.8244886" lon="6.5704634"><ele>1024.0</ele><time>2026-05-01T16:41:13.273Z</time></trkpt><trkpt lat="43.8245209" lon="6.5701872"><ele>1022.0</ele><time>2026-05-01T16:41:14.273Z</time></trkpt><trkpt lat="43.824547" lon="6.5699233"><ele>1019.3333333333334</ele><time>2026-05-01T16:41:15.273Z</time></trkpt><trkpt lat="43.824564" lon="6.5696584"><ele>1016.6666666666667</ele><time>2026-05-01T16:41:16.273Z</time></trkpt><trkpt lat="43.824583" lon="6.5693965"><ele>1014.0</ele><time>2026-05-01T16:41:17.273Z</time></trkpt><trkpt lat="43.8245958" lon="6.5691296"><ele>1011.0</ele><time>2026-05-01T16:41:18.274Z</time></trkpt><trkpt lat="43.824609" lon="6.5688631"><ele>1008.0</ele><time>2026-05-01T16:41:19.273Z</time></trkpt><trkpt lat="43.8246321" lon="6.5685968"><ele>1005.0</ele><time>2026-05-01T16:41:20.273Z</time></trkpt><trkpt lat="43.8246512" lon="6.5683333"><ele>1003.0</ele><time>2026-05-01T16:41:21.274Z</time></trkpt><trkpt lat="43.8246753" lon="6.5680672"><ele>1001.0</ele><time>2026-05-01T16:41:22.273Z</time></trkpt><trkpt lat="43.8246959" lon="6.5678067"><ele>999.0</ele><time>2026-05-01T16:41:23.273Z</time></trkpt><trkpt lat="43.8247315" lon="6.5675589"><ele>999.0</ele><time>2026-05-01T16:41:24.273Z</time></trkpt><trkpt lat="43.8247977" lon="6.5673173"><ele>999.0</ele><time>2026-05-01T16:41:25.273Z</time></trkpt><trkpt lat="43.8248851" lon="6.5670937"><ele>999.0</ele><time>2026-05-01T16:41:26.273Z</time></trkpt><trkpt lat="43.8249816" lon="6.5668678"><ele>996.3333333333333</ele><time>2026-05-01T16:41:27.273Z</time></trkpt><trkpt lat="43.8250865" lon="6.5666553"><ele>993.6666666666666</ele><time>2026-05-01T16:41:28.273Z</time></trkpt><trkpt lat="43.8251907" lon="6.5664715"><ele>991.0</ele><time>2026-05-01T16:41:29.274Z</time></trkpt><trkpt lat="43.8252944" lon="6.5662962"><ele>990.6666666666666</ele><time>2026-05-01T16:41:30.274Z</time></trkpt><trkpt lat="43.8254219" lon="6.5661807"><ele>990.3333333333333</ele><time>2026-05-01T16:41:31.274Z</time></trkpt><trkpt lat="43.8257057" lon="6.5661552"><ele>990.0</ele><time>2026-05-01T16:41:33.273Z</time></trkpt><trkpt lat="43.8258526" lon="6.5662343"><ele>981.6666666666667</ele><time>2026-05-01T16:41:34.273Z</time></trkpt><trkpt lat="43.8259837" lon="6.5663858"><ele>973.3333333333334</ele><time>2026-05-01T16:41:35.273Z</time></trkpt><trkpt lat="43.8260881" lon="6.5665676"><ele>965.0</ele><time>2026-05-01T16:41:36.273Z</time></trkpt><trkpt lat="43.8261599" lon="6.5667871"><ele>965.0</ele><time>2026-05-01T16:41:37.273Z</time></trkpt><trkpt lat="43.826222" lon="6.567007"><ele>965.0</ele><time>2026-05-01T16:41:38.273Z</time></trkpt><trkpt lat="43.8262944" lon="6.5672201"><ele>965.0</ele><time>2026-05-01T16:41:39.273Z</time></trkpt><trkpt lat="43.8263835" lon="6.5673953"><ele>967.0</ele><time>2026-05-01T16:41:40.273Z</time></trkpt><trkpt lat="43.8264897" lon="6.5675172"><ele>969.0</ele><time>2026-05-01T16:41:41.273Z</time></trkpt><trkpt lat="43.8266197" lon="6.5675945"><ele>971.0</ele><time>2026-05-01T16:41:42.274Z</time></trkpt><trkpt lat="43.8267782" lon="6.5676254"><ele>973.0</ele><time>2026-05-01T16:41:43.273Z</time></trkpt><trkpt lat="43.8269414" lon="6.5675878"><ele>974.3333333333333</ele><time>2026-05-01T16:41:44.273Z</time></trkpt><trkpt lat="43.8270848" lon="6.5674896"><ele>975.6666666666667</ele><time>2026-05-01T16:41:45.274Z</time></trkpt><trkpt lat="43.827204" lon="6.567344"><ele>977.0</ele><time>2026-05-01T16:41:46.273Z</time></trkpt><trkpt lat="43.8272911" lon="6.5671427"><ele>972.3333333333334</ele><time>2026-05-01T16:41:47.273Z</time></trkpt><trkpt lat="43.8273415" lon="6.566912"><ele>967.6666666666667</ele><time>2026-05-01T16:41:48.273Z</time></trkpt><trkpt lat="43.8273794" lon="6.5666476"><ele>963.0</ele><time>2026-05-01T16:41:49.273Z</time></trkpt><trkpt lat="43.8274248" lon="6.5663652"><ele>961.6666666666667</ele><time>2026-05-01T16:41:50.273Z</time></trkpt><trkpt lat="43.8274761" lon="6.5660924"><ele>960.3333333333334</ele><time>2026-05-01T16:41:51.273Z</time></trkpt><trkpt lat="43.8275221" lon="6.5658351"><ele>959.0</ele><time>2026-05-01T16:41:52.273Z</time></trkpt><trkpt lat="43.8276309" lon="6.5653573"><ele>960.3333333333334</ele><time>2026-05-01T16:41:54.274Z</time></trkpt><trkpt lat="43.8277172" lon="6.5651446"><ele>961.6666666666667</ele><time>2026-05-01T16:41:55.273Z</time></trkpt><trkpt lat="43.8278343" lon="6.5649516"><ele>963.0</ele><time>2026-05-01T16:41:56.273Z</time></trkpt><trkpt lat="43.8279768" lon="6.5647883"><ele>963.0</ele><time>2026-05-01T16:41:57.274Z</time></trkpt><trkpt lat="43.8281412" lon="6.5646365"><ele>963.0</ele><time>2026-05-01T16:41:58.273Z</time></trkpt><trkpt lat="43.8283053" lon="6.5644848"><ele>963.0</ele><time>2026-05-01T16:41:59.273Z</time></trkpt><trkpt lat="43.8284711" lon="6.5643225"><ele>959.3333333333333</ele><time>2026-05-01T16:42:00.273Z</time></trkpt><trkpt lat="43.8286456" lon="6.564164"><ele>955.6666666666666</ele><time>2026-05-01T16:42:01.273Z</time></trkpt><trkpt lat="43.8288213" lon="6.5639966"><ele>952.0</ele><time>2026-05-01T16:42:02.274Z</time></trkpt><trkpt lat="43.8289997" lon="6.5638264"><ele>948.3333333333333</ele><time>2026-05-01T16:42:03.273Z</time></trkpt><trkpt lat="43.8291754" lon="6.5636506"><ele>944.6666666666667</ele><time>2026-05-01T16:42:04.273Z</time></trkpt><trkpt lat="43.8293547" lon="6.5634741"><ele>941.0</ele><time>2026-05-01T16:42:05.274Z</time></trkpt><trkpt lat="43.8295284" lon="6.5633107"><ele>941.0</ele><time>2026-05-01T16:42:06.273Z</time></trkpt><trkpt lat="43.8297014" lon="6.5631515"><ele>941.0</ele><time>2026-05-01T16:42:07.274Z</time></trkpt><trkpt lat="43.8298653" lon="6.562993"><ele>941.0</ele><time>2026-05-01T16:42:08.273Z</time></trkpt><trkpt lat="43.8300204" lon="6.5628368"><ele>938.3333333333334</ele><time>2026-05-01T16:42:09.273Z</time></trkpt><trkpt lat="43.83016" lon="6.5626699"><ele>935.6666666666667</ele><time>2026-05-01T16:42:10.273Z</time></trkpt><trkpt lat="43.8302819" lon="6.5624796"><ele>933.0</ele><time>2026-05-01T16:42:11.273Z</time></trkpt><trkpt lat="43.8303784" lon="6.5622602"><ele>931.5</ele><time>2026-05-01T16:42:12.273Z</time></trkpt><trkpt lat="43.8304323" lon="6.5620311"><ele>930.0</ele><time>2026-05-01T16:42:13.273Z</time></trkpt><trkpt lat="43.8304782" lon="6.5615767"><ele>930.0</ele><time>2026-05-01T16:42:15.273Z</time></trkpt><trkpt lat="43.8304764" lon="6.5613523"><ele>930.0</ele><time>2026-05-01T16:42:16.273Z</time></trkpt><trkpt lat="43.8304665" lon="6.5611314"><ele>930.0</ele><time>2026-05-01T16:42:17.273Z</time></trkpt><trkpt lat="43.8304511" lon="6.5609224"><ele>930.5</ele><time>2026-05-01T16:42:18.274Z</time></trkpt><trkpt lat="43.8304347" lon="6.5607312"><ele>931.0</ele><time>2026-05-01T16:42:19.273Z</time></trkpt><trkpt lat="43.8304299" lon="6.5605437"><ele>931.5</ele><time>2026-05-01T16:42:20.273Z</time></trkpt><trkpt lat="43.8304116" lon="6.5603534"><ele>932.0</ele><time>2026-05-01T16:42:21.273Z</time></trkpt><trkpt lat="43.8303999" lon="6.5601657"><ele>934.0</ele><time>2026-05-01T16:42:22.273Z</time></trkpt><trkpt lat="43.8303897" lon="6.5599917"><ele>936.0</ele><time>2026-05-01T16:42:23.273Z</time></trkpt><trkpt lat="43.8303783" lon="6.5598214"><ele>938.0</ele><time>2026-05-01T16:42:24.274Z</time></trkpt><trkpt lat="43.8303692" lon="6.5596508"><ele>940.0</ele><time>2026-05-01T16:42:25.274Z</time></trkpt><trkpt lat="43.8303535" lon="6.5594862"><ele>941.5</ele><time>2026-05-01T16:42:26.273Z</time></trkpt><trkpt lat="43.8303409" lon="6.5593157"><ele>943.0</ele><time>2026-05-01T16:42:27.274Z</time></trkpt><trkpt lat="43.8303392" lon="6.5591381"><ele>944.5</ele><time>2026-05-01T16:42:28.273Z</time></trkpt><trkpt lat="43.8303332" lon="6.5589613"><ele>946.0</ele><time>2026-05-01T16:42:29.273Z</time></trkpt><trkpt lat="43.8303484" lon="6.5587902"><ele>944.75</ele><time>2026-05-01T16:42:30.274Z</time></trkpt><trkpt lat="43.8303721" lon="6.5586212"><ele>943.5</ele><time>2026-05-01T16:42:31.273Z</time></trkpt><trkpt lat="43.8304008" lon="6.5584602"><ele>942.25</ele><time>2026-05-01T16:42:32.273Z</time></trkpt><trkpt lat="43.8304267" lon="6.5582997"><ele>941.0</ele><time>2026-05-01T16:42:33.273Z</time></trkpt><trkpt lat="43.8304519" lon="6.5581258"><ele>939.0</ele><time>2026-05-01T16:42:34.273Z</time></trkpt><trkpt lat="43.8304923" lon="6.5577863"><ele>937.0</ele><time>2026-05-01T16:42:36.273Z</time></trkpt><trkpt lat="43.8305" lon="6.5576098"><ele>935.0</ele><time>2026-05-01T16:42:37.274Z</time></trkpt><trkpt lat="43.8305101" lon="6.5574486"><ele>935.0</ele><time>2026-05-01T16:42:38.273Z</time></trkpt><trkpt lat="43.8305271" lon="6.5572956"><ele>935.0</ele><time>2026-05-01T16:42:39.273Z</time></trkpt><trkpt lat="43.8305427" lon="6.5571328"><ele>935.0</ele><time>2026-05-01T16:42:40.273Z</time></trkpt><trkpt lat="43.8305624" lon="6.556961"><ele>935.0</ele><time>2026-05-01T16:42:41.273Z</time></trkpt><trkpt lat="43.8305901" lon="6.5567876"><ele>934.0</ele><time>2026-05-01T16:42:42.273Z</time></trkpt><trkpt lat="43.8306267" lon="6.5566211"><ele>933.0</ele><time>2026-05-01T16:42:43.273Z</time></trkpt><trkpt lat="43.8306673" lon="6.5564545"><ele>932.0</ele><time>2026-05-01T16:42:44.273Z</time></trkpt><trkpt lat="43.8307155" lon="6.5562851"><ele>931.0</ele><time>2026-05-01T16:42:45.273Z</time></trkpt><trkpt lat="43.8307573" lon="6.5561134"><ele>929.5</ele><time>2026-05-01T16:42:46.274Z</time></trkpt><trkpt lat="43.8308019" lon="6.5559415"><ele>928.0</ele><time>2026-05-01T16:42:47.273Z</time></trkpt><trkpt lat="43.8308466" lon="6.5557648"><ele>926.5</ele><time>2026-05-01T16:42:48.274Z</time></trkpt><trkpt lat="43.8308943" lon="6.5555867"><ele>925.0</ele><time>2026-05-01T16:42:49.273Z</time></trkpt><trkpt lat="43.8309459" lon="6.5554095"><ele>928.25</ele><time>2026-05-01T16:42:50.273Z</time></trkpt><trkpt lat="43.8309965" lon="6.5552369"><ele>931.5</ele><time>2026-05-01T16:42:51.274Z</time></trkpt><trkpt lat="43.8310484" lon="6.5550554"><ele>934.75</ele><time>2026-05-01T16:42:52.273Z</time></trkpt><trkpt lat="43.8310981" lon="6.5548672"><ele>938.0</ele><time>2026-05-01T16:42:53.273Z</time></trkpt><trkpt lat="43.8311438" lon="6.5546817"><ele>936.3333333333334</ele><time>2026-05-01T16:42:54.273Z</time></trkpt><trkpt lat="43.831189" lon="6.5544964"><ele>934.6666666666667</ele><time>2026-05-01T16:42:55.273Z</time></trkpt><trkpt lat="43.8312718" lon="6.5541174"><ele>933.0</ele><time>2026-05-01T16:42:57.273Z</time></trkpt><trkpt lat="43.8313001" lon="6.55392"><ele>933.0</ele><time>2026-05-01T16:42:58.273Z</time></trkpt><trkpt lat="43.8313266" lon="6.5537203"><ele>933.0</ele><time>2026-05-01T16:42:59.273Z</time></trkpt><trkpt lat="43.8313343" lon="6.5535159"><ele>933.0</ele><time>2026-05-01T16:43:00.273Z</time></trkpt><trkpt lat="43.8313389" lon="6.5532848"><ele>933.0</ele><time>2026-05-01T16:43:01.273Z</time></trkpt><trkpt lat="43.8313277" lon="6.5530556"><ele>933.0</ele><time>2026-05-01T16:43:02.273Z</time></trkpt><trkpt lat="43.8313086" lon="6.5528277"><ele>933.0</ele><time>2026-05-01T16:43:03.274Z</time></trkpt><trkpt lat="43.8312729" lon="6.5526006"><ele>933.5</ele><time>2026-05-01T16:43:04.273Z</time></trkpt><trkpt lat="43.8312415" lon="6.5523878"><ele>934.0</ele><time>2026-05-01T16:43:05.273Z</time></trkpt><trkpt lat="43.8312191" lon="6.5521815"><ele>934.5</ele><time>2026-05-01T16:43:06.273Z</time></trkpt><trkpt lat="43.8312141" lon="6.5520013"><ele>935.0</ele><time>2026-05-01T16:43:07.274Z</time></trkpt><trkpt lat="43.8312307" lon="6.5518274"><ele>932.75</ele><time>2026-05-01T16:43:08.274Z</time></trkpt><trkpt lat="43.8312774" lon="6.5516668"><ele>930.5</ele><time>2026-05-01T16:43:09.273Z</time></trkpt><trkpt lat="43.8313632" lon="6.5515143"><ele>928.25</ele><time>2026-05-01T16:43:10.273Z</time></trkpt><trkpt lat="43.8314685" lon="6.5513518"><ele>926.0</ele><time>2026-05-01T16:43:11.273Z</time></trkpt><trkpt lat="43.8315765" lon="6.5511777"><ele>925.0</ele><time>2026-05-01T16:43:12.273Z</time></trkpt><trkpt lat="43.8316896" lon="6.5510163"><ele>924.0</ele><time>2026-05-01T16:43:13.273Z</time></trkpt><trkpt lat="43.831828" lon="6.5508773"><ele>923.0</ele><time>2026-05-01T16:43:14.273Z</time></trkpt><trkpt lat="43.8319902" lon="6.5507598"><ele>923.0</ele><time>2026-05-01T16:43:15.273Z</time></trkpt><trkpt lat="43.8323297" lon="6.5505126"><ele>923.0</ele><time>2026-05-01T16:43:17.273Z</time></trkpt><trkpt lat="43.8325062" lon="6.5503764"><ele>921.6666666666667</ele><time>2026-05-01T16:43:18.274Z</time></trkpt><trkpt lat="43.832688" lon="6.5502405"><ele>920.3333333333333</ele><time>2026-05-01T16:43:19.273Z</time></trkpt><trkpt lat="43.832855" lon="6.5500998"><ele>919.0</ele><time>2026-05-01T16:43:20.273Z</time></trkpt><trkpt lat="43.8330082" lon="6.549924"><ele>919.0</ele><time>2026-05-01T16:43:21.273Z</time></trkpt><trkpt lat="43.8331458" lon="6.5497322"><ele>919.0</ele><time>2026-05-01T16:43:22.274Z</time></trkpt><trkpt lat="43.8332839" lon="6.5495461"><ele>919.0</ele><time>2026-05-01T16:43:23.273Z</time></trkpt><trkpt lat="43.8334425" lon="6.5493871"><ele>915.6666666666666</ele><time>2026-05-01T16:43:24.273Z</time></trkpt><trkpt lat="43.8336036" lon="6.5492374"><ele>912.3333333333333</ele><time>2026-05-01T16:43:25.273Z</time></trkpt><trkpt lat="43.8337675" lon="6.5491337"><ele>909.0</ele><time>2026-05-01T16:43:26.273Z</time></trkpt><trkpt lat="43.833927" lon="6.5490645"><ele>909.0</ele><time>2026-05-01T16:43:27.273Z</time></trkpt><trkpt lat="43.8340772" lon="6.5490417"><ele>909.0</ele><time>2026-05-01T16:43:28.273Z</time></trkpt><trkpt lat="43.834202" lon="6.5490211"><ele>909.0</ele><time>2026-05-01T16:43:29.273Z</time></trkpt><trkpt lat="43.8343153" lon="6.5489782"><ele>909.0</ele><time>2026-05-01T16:43:30.273Z</time></trkpt><trkpt lat="43.8344115" lon="6.5488871"><ele>909.3333333333333</ele><time>2026-05-01T16:43:31.273Z</time></trkpt><trkpt lat="43.8344948" lon="6.548722"><ele>909.6666666666666</ele><time>2026-05-01T16:43:32.273Z</time></trkpt><trkpt lat="43.8345748" lon="6.5485007"><ele>910.0</ele><time>2026-05-01T16:43:33.273Z</time></trkpt><trkpt lat="43.8346597" lon="6.5482679"><ele>910.0</ele><time>2026-05-01T16:43:34.273Z</time></trkpt><trkpt lat="43.8347575" lon="6.5480447"><ele>910.0</ele><time>2026-05-01T16:43:35.273Z</time></trkpt><trkpt lat="43.8348636" lon="6.5478375"><ele>910.0</ele><time>2026-05-01T16:43:36.273Z</time></trkpt><trkpt lat="43.8351028" lon="6.5475073"><ele>904.3333333333333</ele><time>2026-05-01T16:43:38.273Z</time></trkpt><trkpt lat="43.835246" lon="6.5473989"><ele>898.6666666666667</ele><time>2026-05-01T16:43:39.273Z</time></trkpt><trkpt lat="43.8353925" lon="6.5473138"><ele>893.0</ele><time>2026-05-01T16:43:40.274Z</time></trkpt><trkpt lat="43.8355458" lon="6.5472541"><ele>893.0</ele><time>2026-05-01T16:43:41.273Z</time></trkpt><trkpt lat="43.8357072" lon="6.5472427"><ele>893.0</ele><time>2026-05-01T16:43:42.273Z</time></trkpt><trkpt lat="43.8358724" lon="6.5472642"><ele>893.0</ele><time>2026-05-01T16:43:43.273Z</time></trkpt><trkpt lat="43.8360164" lon="6.5472911"><ele>889.5</ele><time>2026-05-01T16:43:44.273Z</time></trkpt><trkpt lat="43.8361388" lon="6.547267"><ele>886.0</ele><time>2026-05-01T16:43:45.273Z</time></trkpt><trkpt lat="43.836233" lon="6.5471922"><ele>882.5</ele><time>2026-05-01T16:43:46.273Z</time></trkpt><trkpt lat="43.8363016" lon="6.5470788"><ele>879.0</ele><time>2026-05-01T16:43:47.273Z</time></trkpt><trkpt lat="43.8363396" lon="6.5469227"><ele>879.0</ele><time>2026-05-01T16:43:48.273Z</time></trkpt><trkpt lat="43.836369" lon="6.5467458"><ele>879.0</ele><time>2026-05-01T16:43:49.273Z</time></trkpt><trkpt lat="43.8364442" lon="6.5465964"><ele>879.0</ele><time>2026-05-01T16:43:50.273Z</time></trkpt><trkpt lat="43.8365528" lon="6.5464757"><ele>879.0</ele><time>2026-05-01T16:43:51.273Z</time></trkpt><trkpt lat="43.8366859" lon="6.5463948"><ele>882.6666666666667</ele><time>2026-05-01T16:43:52.274Z</time></trkpt><trkpt lat="43.8368335" lon="6.5463577"><ele>886.3333333333334</ele><time>2026-05-01T16:43:53.273Z</time></trkpt><trkpt lat="43.8369981" lon="6.5463569"><ele>890.0</ele><time>2026-05-01T16:43:54.273Z</time></trkpt><trkpt lat="43.8371694" lon="6.5463597"><ele>890.0</ele><time>2026-05-01T16:43:55.273Z</time></trkpt><trkpt lat="43.837338" lon="6.546353"><ele>890.0</ele><time>2026-05-01T16:43:56.273Z</time></trkpt><trkpt lat="43.837502" lon="6.5463093"><ele>890.0</ele><time>2026-05-01T16:43:57.273Z</time></trkpt><trkpt lat="43.8377908" lon="6.5461148"><ele>883.3333333333334</ele><time>2026-05-01T16:43:59.273Z</time></trkpt><trkpt lat="43.83793" lon="6.5459998"><ele>876.6666666666667</ele><time>2026-05-01T16:44:00.273Z</time></trkpt><trkpt lat="43.8380681" lon="6.5458922"><ele>870.0</ele><time>2026-05-01T16:44:01.273Z</time></trkpt><trkpt lat="43.8382029" lon="6.5457816"><ele>870.0</ele><time>2026-05-01T16:44:02.273Z</time></trkpt><trkpt lat="43.838331" lon="6.5456917"><ele>870.0</ele><time>2026-05-01T16:44:03.274Z</time></trkpt><trkpt lat="43.8384631" lon="6.5456167"><ele>870.0</ele><time>2026-05-01T16:44:04.273Z</time></trkpt><trkpt lat="43.8386079" lon="6.5455596"><ele>870.0</ele><time>2026-05-01T16:44:05.273Z</time></trkpt><trkpt lat="43.8387566" lon="6.5454902"><ele>863.3333333333333</ele><time>2026-05-01T16:44:06.273Z</time></trkpt><trkpt lat="43.8389039" lon="6.5454075"><ele>856.6666666666666</ele><time>2026-05-01T16:44:07.273Z</time></trkpt><trkpt lat="43.8390318" lon="6.5452842"><ele>850.0</ele><time>2026-05-01T16:44:08.273Z</time></trkpt><trkpt lat="43.8391667" lon="6.5451697"><ele>850.0</ele><time>2026-05-01T16:44:09.273Z</time></trkpt><trkpt lat="43.8392971" lon="6.5450451"><ele>850.0</ele><time>2026-05-01T16:44:10.273Z</time></trkpt><trkpt lat="43.839428" lon="6.544939"><ele>850.0</ele><time>2026-05-01T16:44:11.273Z</time></trkpt><trkpt lat="43.8395673" lon="6.5448766"><ele>852.0</ele><time>2026-05-01T16:44:12.273Z</time></trkpt><trkpt lat="43.8397136" lon="6.5448376"><ele>854.0</ele><time>2026-05-01T16:44:13.273Z</time></trkpt><trkpt lat="43.8398563" lon="6.5448244"><ele>856.0</ele><time>2026-05-01T16:44:14.273Z</time></trkpt><trkpt lat="43.8399895" lon="6.5448256"><ele>858.0</ele><time>2026-05-01T16:44:15.273Z</time></trkpt><trkpt lat="43.8401241" lon="6.5448534"><ele>852.3333333333333</ele><time>2026-05-01T16:44:16.273Z</time></trkpt><trkpt lat="43.8402538" lon="6.5449058"><ele>846.6666666666666</ele><time>2026-05-01T16:44:17.274Z</time></trkpt><trkpt lat="43.8403803" lon="6.5449807"><ele>841.0</ele><time>2026-05-01T16:44:18.273Z</time></trkpt><trkpt lat="43.8406245" lon="6.5451582"><ele>841.0</ele><time>2026-05-01T16:44:20.273Z</time></trkpt><trkpt lat="43.840751" lon="6.545261"><ele>841.0</ele><time>2026-05-01T16:44:21.273Z</time></trkpt><trkpt lat="43.8408744" lon="6.5453637"><ele>841.0</ele><time>2026-05-01T16:44:22.273Z</time></trkpt><trkpt lat="43.8409935" lon="6.5454447"><ele>841.0</ele><time>2026-05-01T16:44:23.274Z</time></trkpt><trkpt lat="43.8411131" lon="6.5455111"><ele>841.0</ele><time>2026-05-01T16:44:24.273Z</time></trkpt><trkpt lat="43.841238" lon="6.5455291"><ele>841.0</ele><time>2026-05-01T16:44:25.273Z</time></trkpt><trkpt lat="43.8413604" lon="6.5455446"><ele>841.0</ele><time>2026-05-01T16:44:26.273Z</time></trkpt><trkpt lat="43.8414761" lon="6.5455769"><ele>841.0</ele><time>2026-05-01T16:44:27.273Z</time></trkpt><trkpt lat="43.8415858" lon="6.5456391"><ele>841.0</ele><time>2026-05-01T16:44:28.273Z</time></trkpt><trkpt lat="43.8416669" lon="6.545729"><ele>841.0</ele><time>2026-05-01T16:44:29.273Z</time></trkpt><trkpt lat="43.8417352" lon="6.5458757"><ele>841.0</ele><time>2026-05-01T16:44:30.273Z</time></trkpt><trkpt lat="43.8417772" lon="6.5460506"><ele>841.0</ele><time>2026-05-01T16:44:31.273Z</time></trkpt><trkpt lat="43.8418254" lon="6.5462449"><ele>838.5</ele><time>2026-05-01T16:44:32.273Z</time></trkpt><trkpt lat="43.8418931" lon="6.5464241"><ele>836.0</ele><time>2026-05-01T16:44:33.273Z</time></trkpt><trkpt lat="43.8419688" lon="6.5465895"><ele>833.5</ele><time>2026-05-01T16:44:34.273Z</time></trkpt><trkpt lat="43.8420661" lon="6.5467332"><ele>831.0</ele><time>2026-05-01T16:44:35.273Z</time></trkpt><trkpt lat="43.8421541" lon="6.546876"><ele>831.0</ele><time>2026-05-01T16:44:36.274Z</time></trkpt><trkpt lat="43.8422137" lon="6.5470255"><ele>831.0</ele><time>2026-05-01T16:44:37.273Z</time></trkpt><trkpt lat="43.8422578" lon="6.5471591"><ele>831.0</ele><time>2026-05-01T16:44:38.274Z</time></trkpt><trkpt lat="43.8423143" lon="6.5472468"><ele>831.0</ele><time>2026-05-01T16:44:39.273Z</time></trkpt><trkpt lat="43.842466" lon="6.5472701"><ele>833.25</ele><time>2026-05-01T16:44:41.273Z</time></trkpt><trkpt lat="43.8425425" lon="6.5472161"><ele>835.5</ele><time>2026-05-01T16:44:42.273Z</time></trkpt><trkpt lat="43.8426116" lon="6.5471121"><ele>837.75</ele><time>2026-05-01T16:44:43.273Z</time></trkpt><trkpt lat="43.8426604" lon="6.5469609"><ele>840.0</ele><time>2026-05-01T16:44:44.273Z</time></trkpt><trkpt lat="43.8426816" lon="6.5467657"><ele>838.75</ele><time>2026-05-01T16:44:45.273Z</time></trkpt><trkpt lat="43.8426923" lon="6.5465521"><ele>837.5</ele><time>2026-05-01T16:44:46.273Z</time></trkpt><trkpt lat="43.8427117" lon="6.546342"><ele>836.25</ele><time>2026-05-01T16:44:47.273Z</time></trkpt><trkpt lat="43.8427343" lon="6.5461475"><ele>835.0</ele><time>2026-05-01T16:44:48.273Z</time></trkpt><trkpt lat="43.8427648" lon="6.5459787"><ele>835.0</ele><time>2026-05-01T16:44:49.274Z</time></trkpt><trkpt lat="43.8428021" lon="6.5458085"><ele>835.0</ele><time>2026-05-01T16:44:50.273Z</time></trkpt><trkpt lat="43.8428608" lon="6.545648"><ele>835.0</ele><time>2026-05-01T16:44:51.273Z</time></trkpt><trkpt lat="43.8429333" lon="6.5454885"><ele>835.0</ele><time>2026-05-01T16:44:52.273Z</time></trkpt><trkpt lat="43.8430078" lon="6.5453398"><ele>831.0</ele><time>2026-05-01T16:44:53.274Z</time></trkpt><trkpt lat="43.8430905" lon="6.5451997"><ele>827.0</ele><time>2026-05-01T16:44:54.274Z</time></trkpt><trkpt lat="43.8431945" lon="6.545085"><ele>823.0</ele><time>2026-05-01T16:44:55.274Z</time></trkpt><trkpt lat="43.843293" lon="6.5449792"><ele>819.0</ele><time>2026-05-01T16:44:56.274Z</time></trkpt><trkpt lat="43.8433758" lon="6.5448476"><ele>819.0</ele><time>2026-05-01T16:44:57.274Z</time></trkpt><trkpt lat="43.8434353" lon="6.5446771"><ele>819.0</ele><time>2026-05-01T16:44:58.274Z</time></trkpt><trkpt lat="43.8434687" lon="6.544483"><ele>819.0</ele><time>2026-05-01T16:44:59.275Z</time></trkpt><trkpt lat="43.8434896" lon="6.5442924"><ele>819.0</ele><time>2026-05-01T16:45:00.275Z</time></trkpt><trkpt lat="43.8435139" lon="6.5439082"><ele>819.5</ele><time>2026-05-01T16:45:02.275Z</time></trkpt><trkpt lat="43.843517" lon="6.543722"><ele>820.0</ele><time>2026-05-01T16:45:03.275Z</time></trkpt><trkpt lat="43.8435305" lon="6.543546"><ele>820.5</ele><time>2026-05-01T16:45:04.275Z</time></trkpt><trkpt lat="43.8435754" lon="6.5433775"><ele>821.0</ele><time>2026-05-01T16:45:05.274Z</time></trkpt><trkpt lat="43.8436598" lon="6.5432323"><ele>821.0</ele><time>2026-05-01T16:45:06.274Z</time></trkpt><trkpt lat="43.8437549" lon="6.5430813"><ele>821.0</ele><time>2026-05-01T16:45:07.275Z</time></trkpt><trkpt lat="43.8438351" lon="6.5429071"><ele>821.0</ele><time>2026-05-01T16:45:08.274Z</time></trkpt><trkpt lat="43.8439063" lon="6.5427046"><ele>816.6666666666667</ele><time>2026-05-01T16:45:09.274Z</time></trkpt><trkpt lat="43.8439726" lon="6.5424931"><ele>812.3333333333333</ele><time>2026-05-01T16:45:10.274Z</time></trkpt><trkpt lat="43.8440346" lon="6.5422911"><ele>808.0</ele><time>2026-05-01T16:45:11.274Z</time></trkpt><trkpt lat="43.8440872" lon="6.5420986"><ele>806.25</ele><time>2026-05-01T16:45:12.274Z</time></trkpt><trkpt lat="43.8441121" lon="6.5418965"><ele>804.5</ele><time>2026-05-01T16:45:13.274Z</time></trkpt><trkpt lat="43.8441073" lon="6.541696"><ele>802.75</ele><time>2026-05-01T16:45:14.274Z</time></trkpt><trkpt lat="43.8440678" lon="6.5414994"><ele>801.0</ele><time>2026-05-01T16:45:15.274Z</time></trkpt><trkpt lat="43.8440231" lon="6.5413119"><ele>800.0</ele><time>2026-05-01T16:45:16.274Z</time></trkpt><trkpt lat="43.843984" lon="6.541133"><ele>799.0</ele><time>2026-05-01T16:45:17.274Z</time></trkpt><trkpt lat="43.8439542" lon="6.5409651"><ele>798.0</ele><time>2026-05-01T16:45:18.274Z</time></trkpt><trkpt lat="43.8439376" lon="6.5407907"><ele>797.0</ele><time>2026-05-01T16:45:19.274Z</time></trkpt><trkpt lat="43.8439293" lon="6.5405956"><ele>797.0</ele><time>2026-05-01T16:45:20.274Z</time></trkpt><trkpt lat="43.8439218" lon="6.5403999"><ele>797.0</ele><time>2026-05-01T16:45:21.274Z</time></trkpt><trkpt lat="43.8438925" lon="6.5400013"><ele>797.0</ele><time>2026-05-01T16:45:23.274Z</time></trkpt><trkpt lat="43.8438446" lon="6.5398317"><ele>794.75</ele><time>2026-05-01T16:45:24.274Z</time></trkpt><trkpt lat="43.8437713" lon="6.5396709"><ele>792.5</ele><time>2026-05-01T16:45:25.274Z</time></trkpt><trkpt lat="43.8436917" lon="6.5395279"><ele>790.25</ele><time>2026-05-01T16:45:26.274Z</time></trkpt><trkpt lat="43.8436027" lon="6.5393972"><ele>788.0</ele><time>2026-05-01T16:45:27.274Z</time></trkpt><trkpt lat="43.8435029" lon="6.5392821"><ele>786.75</ele><time>2026-05-01T16:45:28.274Z</time></trkpt><trkpt lat="43.8433898" lon="6.5391819"><ele>785.5</ele><time>2026-05-01T16:45:29.274Z</time></trkpt><trkpt lat="43.8432606" lon="6.5391105"><ele>784.25</ele><time>2026-05-01T16:45:30.274Z</time></trkpt><trkpt lat="43.8431338" lon="6.5390547"><ele>783.0</ele><time>2026-05-01T16:45:31.274Z</time></trkpt><trkpt lat="43.8430084" lon="6.539011"><ele>783.0</ele><time>2026-05-01T16:45:32.274Z</time></trkpt><trkpt lat="43.8428831" lon="6.5389931"><ele>783.0</ele><time>2026-05-01T16:45:33.274Z</time></trkpt><trkpt lat="43.8427596" lon="6.5390097"><ele>783.0</ele><time>2026-05-01T16:45:34.274Z</time></trkpt><trkpt lat="43.8426496" lon="6.5390752"><ele>783.0</ele><time>2026-05-01T16:45:35.274Z</time></trkpt><trkpt lat="43.8425581" lon="6.5391862"><ele>781.2</ele><time>2026-05-01T16:45:36.274Z</time></trkpt><trkpt lat="43.8424793" lon="6.5393134"><ele>779.4</ele><time>2026-05-01T16:45:37.274Z</time></trkpt><trkpt lat="43.8424062" lon="6.539416"><ele>777.6</ele><time>2026-05-01T16:45:38.274Z</time></trkpt><trkpt lat="43.8423286" lon="6.5394771"><ele>775.8000000000001</ele><time>2026-05-01T16:45:39.274Z</time></trkpt><trkpt lat="43.8422468" lon="6.5394959"><ele>774.0</ele><time>2026-05-01T16:45:40.274Z</time></trkpt><trkpt lat="43.8421697" lon="6.5394715"><ele>774.0</ele><time>2026-05-01T16:45:41.274Z</time></trkpt><trkpt lat="43.8421089" lon="6.5393892"><ele>774.0</ele><time>2026-05-01T16:45:42.274Z</time></trkpt><trkpt lat="43.8420517" lon="6.5390838"><ele>774.0</ele><time>2026-05-01T16:45:44.274Z</time></trkpt><trkpt lat="43.8420479" lon="6.5388756"><ele>774.6666666666667</ele><time>2026-05-01T16:45:45.274Z</time></trkpt><trkpt lat="43.8420493" lon="6.5386504"><ele>775.3333333333334</ele><time>2026-05-01T16:45:46.274Z</time></trkpt><trkpt lat="43.8420456" lon="6.5384352"><ele>776.0</ele><time>2026-05-01T16:45:47.274Z</time></trkpt><trkpt lat="43.8420451" lon="6.5382355"><ele>776.0</ele><time>2026-05-01T16:45:48.274Z</time></trkpt><trkpt lat="43.8420608" lon="6.5380321"><ele>776.0</ele><time>2026-05-01T16:45:49.274Z</time></trkpt><trkpt lat="43.8420988" lon="6.537828"><ele>776.0</ele><time>2026-05-01T16:45:50.274Z</time></trkpt><trkpt lat="43.842147" lon="6.5376242"><ele>774.6666666666667</ele><time>2026-05-01T16:45:51.274Z</time></trkpt><trkpt lat="43.8421967" lon="6.5374249"><ele>773.3333333333333</ele><time>2026-05-01T16:45:52.274Z</time></trkpt><trkpt lat="43.8422466" lon="6.5372251"><ele>772.0</ele><time>2026-05-01T16:45:53.274Z</time></trkpt><trkpt lat="43.8422991" lon="6.5370218"><ele>768.0</ele><time>2026-05-01T16:45:54.274Z</time></trkpt><trkpt lat="43.8423439" lon="6.5368111"><ele>764.0</ele><time>2026-05-01T16:45:55.274Z</time></trkpt><trkpt lat="43.8423945" lon="6.5366054"><ele>760.0</ele><time>2026-05-01T16:45:56.274Z</time></trkpt><trkpt lat="43.8424436" lon="6.5364042"><ele>761.0</ele><time>2026-05-01T16:45:57.274Z</time></trkpt><trkpt lat="43.8425042" lon="6.5362028"><ele>762.0</ele><time>2026-05-01T16:45:58.274Z</time></trkpt><trkpt lat="43.8425882" lon="6.5360085"><ele>763.0</ele><time>2026-05-01T16:45:59.274Z</time></trkpt><trkpt lat="43.8426842" lon="6.5358323"><ele>763.0</ele><time>2026-05-01T16:46:00.274Z</time></trkpt><trkpt lat="43.8427947" lon="6.5356677"><ele>763.0</ele><time>2026-05-01T16:46:01.274Z</time></trkpt><trkpt lat="43.842911" lon="6.5354944"><ele>763.0</ele><time>2026-05-01T16:46:02.274Z</time></trkpt><trkpt lat="43.8430299" lon="6.5353273"><ele>755.5</ele><time>2026-05-01T16:46:03.275Z</time></trkpt><trkpt lat="43.8432765" lon="6.534993"><ele>748.0</ele><time>2026-05-01T16:46:05.274Z</time></trkpt><trkpt lat="43.8434015" lon="6.534831"><ele>746.0</ele><time>2026-05-01T16:46:06.274Z</time></trkpt><trkpt lat="43.84352" lon="6.5346773"><ele>744.0</ele><time>2026-05-01T16:46:07.274Z</time></trkpt><trkpt lat="43.8436259" lon="6.534522"><ele>742.0</ele><time>2026-05-01T16:46:08.274Z</time></trkpt><trkpt lat="43.8437023" lon="6.5343714"><ele>740.0</ele><time>2026-05-01T16:46:09.274Z</time></trkpt><trkpt lat="43.84375" lon="6.5342154"><ele>739.0</ele><time>2026-05-01T16:46:10.274Z</time></trkpt><trkpt lat="43.8437662" lon="6.5340375"><ele>738.0</ele><time>2026-05-01T16:46:11.274Z</time></trkpt><trkpt lat="43.843748" lon="6.5338424"><ele>737.0</ele><time>2026-05-01T16:46:12.275Z</time></trkpt><trkpt lat="43.8437002" lon="6.5336419"><ele>736.0</ele><time>2026-05-01T16:46:13.274Z</time></trkpt><trkpt lat="43.843642" lon="6.5334273"><ele>735.6666666666667</ele><time>2026-05-01T16:46:14.275Z</time></trkpt><trkpt lat="43.8435857" lon="6.533224"><ele>735.3333333333334</ele><time>2026-05-01T16:46:15.274Z</time></trkpt><trkpt lat="43.8435305" lon="6.5330108"><ele>735.0</ele><time>2026-05-01T16:46:16.274Z</time></trkpt><trkpt lat="43.8434786" lon="6.5328041"><ele>735.5</ele><time>2026-05-01T16:46:17.274Z</time></trkpt><trkpt lat="43.8434242" lon="6.5326091"><ele>736.0</ele><time>2026-05-01T16:46:18.274Z</time></trkpt><trkpt lat="43.8433702" lon="6.532418"><ele>736.5</ele><time>2026-05-01T16:46:19.274Z</time></trkpt><trkpt lat="43.8433242" lon="6.5322363"><ele>737.0</ele><time>2026-05-01T16:46:20.274Z</time></trkpt><trkpt lat="43.843285" lon="6.5320461"><ele>737.0</ele><time>2026-05-01T16:46:21.274Z</time></trkpt><trkpt lat="43.8432443" lon="6.5318512"><ele>737.0</ele><time>2026-05-01T16:46:22.275Z</time></trkpt><trkpt lat="43.8432001" lon="6.5316565"><ele>737.0</ele><time>2026-05-01T16:46:23.274Z</time></trkpt><trkpt lat="43.8431564" lon="6.5314579"><ele>737.0</ele><time>2026-05-01T16:46:24.274Z</time></trkpt><trkpt lat="43.8430623" lon="6.5310429"><ele>736.3333333333333</ele><time>2026-05-01T16:46:26.274Z</time></trkpt><trkpt lat="43.8430067" lon="6.5308244"><ele>735.6666666666666</ele><time>2026-05-01T16:46:27.274Z</time></trkpt><trkpt lat="43.84295" lon="6.5306055"><ele>735.0</ele><time>2026-05-01T16:46:28.275Z</time></trkpt><trkpt lat="43.8428976" lon="6.5303784"><ele>734.3333333333334</ele><time>2026-05-01T16:46:29.274Z</time></trkpt><trkpt lat="43.8428371" lon="6.5301376"><ele>733.6666666666667</ele><time>2026-05-01T16:46:30.274Z</time></trkpt><trkpt lat="43.8427766" lon="6.5298904"><ele>733.0</ele><time>2026-05-01T16:46:31.275Z</time></trkpt><trkpt lat="43.8427191" lon="6.5296412"><ele>732.6666666666667</ele><time>2026-05-01T16:46:32.274Z</time></trkpt><trkpt lat="43.8426608" lon="6.5293796"><ele>732.3333333333334</ele><time>2026-05-01T16:46:33.274Z</time></trkpt><trkpt lat="43.8425996" lon="6.5291222"><ele>732.0</ele><time>2026-05-01T16:46:34.274Z</time></trkpt><trkpt lat="43.8425339" lon="6.5288743"><ele>731.3333333333334</ele><time>2026-05-01T16:46:35.274Z</time></trkpt><trkpt lat="43.8424714" lon="6.5286342"><ele>730.6666666666667</ele><time>2026-05-01T16:46:36.275Z</time></trkpt><trkpt lat="43.842413" lon="6.5283947"><ele>730.0</ele><time>2026-05-01T16:46:37.274Z</time></trkpt><trkpt lat="43.8423549" lon="6.5281597"><ele>730.0</ele><time>2026-05-01T16:46:38.274Z</time></trkpt><trkpt lat="43.842298" lon="6.5279348"><ele>730.0</ele><time>2026-05-01T16:46:39.274Z</time></trkpt><trkpt lat="43.84224" lon="6.5277045"><ele>730.0</ele><time>2026-05-01T16:46:40.274Z</time></trkpt><trkpt lat="43.8421845" lon="6.5274673"><ele>730.0</ele><time>2026-05-01T16:46:41.274Z</time></trkpt><trkpt lat="43.8421332" lon="6.5272388"><ele>730.0</ele><time>2026-05-01T16:46:42.274Z</time></trkpt><trkpt lat="43.842087" lon="6.5270151"><ele>730.0</ele><time>2026-05-01T16:46:43.274Z</time></trkpt><trkpt lat="43.8420616" lon="6.5267813"><ele>729.5</ele><time>2026-05-01T16:46:44.274Z</time></trkpt><trkpt lat="43.842059" lon="6.5265544"><ele>729.0</ele><time>2026-05-01T16:46:45.274Z</time></trkpt><trkpt lat="43.8421307" lon="6.526106"><ele>730.3333333333334</ele><time>2026-05-01T16:46:47.274Z</time></trkpt><trkpt lat="43.8421983" lon="6.5258928"><ele>731.6666666666667</ele><time>2026-05-01T16:46:48.274Z</time></trkpt><trkpt lat="43.842281" lon="6.5256663"><ele>733.0</ele><time>2026-05-01T16:46:49.275Z</time></trkpt><trkpt lat="43.8423724" lon="6.5254554"><ele>731.3333333333334</ele><time>2026-05-01T16:46:50.274Z</time></trkpt><trkpt lat="43.8424709" lon="6.5252408"><ele>729.6666666666666</ele><time>2026-05-01T16:46:51.274Z</time></trkpt><trkpt lat="43.8425647" lon="6.525027"><ele>728.0</ele><time>2026-05-01T16:46:52.274Z</time></trkpt><trkpt lat="43.842645" lon="6.524797"><ele>728.0</ele><time>2026-05-01T16:46:53.274Z</time></trkpt><trkpt lat="43.8427062" lon="6.5245635"><ele>728.0</ele><time>2026-05-01T16:46:54.274Z</time></trkpt><trkpt lat="43.8427572" lon="6.5243286"><ele>728.0</ele><time>2026-05-01T16:46:55.274Z</time></trkpt><trkpt lat="43.8428116" lon="6.5240849"><ele>728.3333333333333</ele><time>2026-05-01T16:46:56.274Z</time></trkpt><trkpt lat="43.8428791" lon="6.5238347"><ele>728.6666666666666</ele><time>2026-05-01T16:46:57.275Z</time></trkpt><trkpt lat="43.8429596" lon="6.5235693"><ele>729.0</ele><time>2026-05-01T16:46:58.275Z</time></trkpt><trkpt lat="43.8430313" lon="6.523317"><ele>729.6666666666666</ele><time>2026-05-01T16:46:59.274Z</time></trkpt><trkpt lat="43.8430991" lon="6.5230621"><ele>730.3333333333333</ele><time>2026-05-01T16:47:00.274Z</time></trkpt><trkpt lat="43.8431621" lon="6.5228148"><ele>731.0</ele><time>2026-05-01T16:47:01.274Z</time></trkpt><trkpt lat="43.8432282" lon="6.5225678"><ele>730.3333333333333</ele><time>2026-05-01T16:47:02.274Z</time></trkpt><trkpt lat="43.8433061" lon="6.5223238"><ele>729.6666666666666</ele><time>2026-05-01T16:47:03.275Z</time></trkpt><trkpt lat="43.8433796" lon="6.5220784"><ele>729.0</ele><time>2026-05-01T16:47:04.274Z</time></trkpt><trkpt lat="43.8434732" lon="6.5218522"><ele>729.0</ele><time>2026-05-01T16:47:05.274Z</time></trkpt><trkpt lat="43.843579" lon="6.5216206"><ele>729.0</ele><time>2026-05-01T16:47:06.274Z</time></trkpt><trkpt lat="43.843839" lon="6.5211977"><ele>732.6666666666666</ele><time>2026-05-01T16:47:08.274Z</time></trkpt><trkpt lat="43.8439671" lon="6.5209817"><ele>736.3333333333333</ele><time>2026-05-01T16:47:09.274Z</time></trkpt><trkpt lat="43.8440895" lon="6.5207741"><ele>740.0</ele><time>2026-05-01T16:47:10.274Z</time></trkpt><trkpt lat="43.8441899" lon="6.5205414"><ele>735.6666666666666</ele><time>2026-05-01T16:47:11.274Z</time></trkpt><trkpt lat="43.8442664" lon="6.5202886"><ele>731.3333333333334</ele><time>2026-05-01T16:47:12.274Z</time></trkpt><trkpt lat="43.8443133" lon="6.5200271"><ele>727.0</ele><time>2026-05-01T16:47:13.274Z</time></trkpt><trkpt lat="43.8443746" lon="6.5197684"><ele>727.3333333333334</ele><time>2026-05-01T16:47:14.274Z</time></trkpt><trkpt lat="43.8444516" lon="6.5195116"><ele>727.6666666666666</ele><time>2026-05-01T16:47:15.274Z</time></trkpt><trkpt lat="43.8445189" lon="6.5192517"><ele>728.0</ele><time>2026-05-01T16:47:16.274Z</time></trkpt><trkpt lat="43.8445832" lon="6.5190049"><ele>728.0</ele><time>2026-05-01T16:47:17.274Z</time></trkpt><trkpt lat="43.844654" lon="6.5187537"><ele>728.0</ele><time>2026-05-01T16:47:18.274Z</time></trkpt><trkpt lat="43.8447257" lon="6.5185017"><ele>728.0</ele><time>2026-05-01T16:47:19.274Z</time></trkpt><trkpt lat="43.8447883" lon="6.5182641"><ele>731.6666666666666</ele><time>2026-05-01T16:47:20.274Z</time></trkpt><trkpt lat="43.844848" lon="6.518044"><ele>735.3333333333334</ele><time>2026-05-01T16:47:21.274Z</time></trkpt><trkpt lat="43.8449083" lon="6.517842"><ele>739.0</ele><time>2026-05-01T16:47:22.274Z</time></trkpt><trkpt lat="43.8449738" lon="6.5176468"><ele>735.0</ele><time>2026-05-01T16:47:23.274Z</time></trkpt><trkpt lat="43.8450328" lon="6.5174575"><ele>731.0</ele><time>2026-05-01T16:47:24.274Z</time></trkpt><trkpt lat="43.8450861" lon="6.5172626"><ele>727.0</ele><time>2026-05-01T16:47:25.275Z</time></trkpt><trkpt lat="43.8451266" lon="6.517077"><ele>723.0</ele><time>2026-05-01T16:47:26.274Z</time></trkpt><trkpt lat="43.8451495" lon="6.5168761"><ele>723.0</ele><time>2026-05-01T16:47:27.274Z</time></trkpt><trkpt lat="43.8451714" lon="6.5164916"><ele>723.0</ele><time>2026-05-01T16:47:29.274Z</time></trkpt><trkpt lat="43.8451783" lon="6.5163016"><ele>723.0</ele><time>2026-05-01T16:47:30.274Z</time></trkpt><trkpt lat="43.8451763" lon="6.5161183"><ele>723.0</ele><time>2026-05-01T16:47:31.274Z</time></trkpt><trkpt lat="43.8451692" lon="6.515931"><ele>723.0</ele><time>2026-05-01T16:47:32.274Z</time></trkpt><trkpt lat="43.8451635" lon="6.5157456"><ele>723.0</ele><time>2026-05-01T16:47:33.274Z</time></trkpt><trkpt lat="43.8451506" lon="6.5155624"><ele>723.0</ele><time>2026-05-01T16:47:34.274Z</time></trkpt><trkpt lat="43.8451504" lon="6.5153741"><ele>723.0</ele><time>2026-05-01T16:47:35.274Z</time></trkpt><trkpt lat="43.8451554" lon="6.515201"><ele>723.0</ele><time>2026-05-01T16:47:36.274Z</time></trkpt><trkpt lat="43.8451669" lon="6.5150348"><ele>723.0</ele><time>2026-05-01T16:47:37.274Z</time></trkpt><trkpt lat="43.8451937" lon="6.5148908"><ele>723.0</ele><time>2026-05-01T16:47:38.275Z</time></trkpt><trkpt lat="43.8452375" lon="6.514764"><ele>723.0</ele><time>2026-05-01T16:47:39.274Z</time></trkpt><trkpt lat="43.8452998" lon="6.5146425"><ele>723.0</ele><time>2026-05-01T16:47:40.274Z</time></trkpt><trkpt lat="43.8453808" lon="6.5145229"><ele>723.0</ele><time>2026-05-01T16:47:41.275Z</time></trkpt><trkpt lat="43.8454693" lon="6.5144119"><ele>723.0</ele><time>2026-05-01T16:47:42.274Z</time></trkpt><trkpt lat="43.8455614" lon="6.5143103"><ele>723.0</ele><time>2026-05-01T16:47:43.274Z</time></trkpt><trkpt lat="43.8456499" lon="6.5142076"><ele>723.0</ele><time>2026-05-01T16:47:44.274Z</time></trkpt><trkpt lat="43.8457232" lon="6.5140978"><ele>723.0</ele><time>2026-05-01T16:47:45.274Z</time></trkpt><trkpt lat="43.8457833" lon="6.5139738"><ele>723.0</ele><time>2026-05-01T16:47:46.274Z</time></trkpt><trkpt lat="43.8458293" lon="6.5138442"><ele>723.0</ele><time>2026-05-01T16:47:47.274Z</time></trkpt><trkpt lat="43.8458561" lon="6.5137284"><ele>723.0</ele><time>2026-05-01T16:47:48.275Z</time></trkpt><trkpt lat="43.8458938" lon="6.5135282"><ele>723.0</ele><time>2026-05-01T16:47:50.274Z</time></trkpt><trkpt lat="43.8459098" lon="6.5134373"><ele>723.0</ele><time>2026-05-01T16:47:51.274Z</time></trkpt><trkpt lat="43.8459476" lon="6.5132585"><ele>723.0</ele><time>2026-05-01T16:47:53.274Z</time></trkpt><trkpt lat="43.8459623" lon="6.5131445"><ele>723.0</ele><time>2026-05-01T16:47:54.274Z</time></trkpt><trkpt lat="43.8459816" lon="6.5130275"><ele>723.8</ele><time>2026-05-01T16:47:55.274Z</time></trkpt><trkpt lat="43.8459999" lon="6.5129243"><ele>724.5999999999999</ele><time>2026-05-01T16:47:56.274Z</time></trkpt><trkpt lat="43.8460167" lon="6.5128209"><ele>725.4000000000001</ele><time>2026-05-01T16:47:57.274Z</time></trkpt><trkpt lat="43.8460464" lon="6.5127297"><ele>726.2</ele><time>2026-05-01T16:47:58.274Z</time></trkpt><trkpt lat="43.8461277" lon="6.5126163"><ele>727.0</ele><time>2026-05-01T16:48:00.274Z</time></trkpt><trkpt lat="43.8462443" lon="6.5125645"><ele>727.0</ele><time>2026-05-01T16:48:02.274Z</time></trkpt><trkpt lat="43.8463158" lon="6.5125601"><ele>727.0</ele><time>2026-05-01T16:48:03.274Z</time></trkpt><trkpt lat="43.8463925" lon="6.512576"><ele>727.0</ele><time>2026-05-01T16:48:04.274Z</time></trkpt><trkpt lat="43.8464664" lon="6.512599"><ele>727.0</ele><time>2026-05-01T16:48:05.275Z</time></trkpt><trkpt lat="43.8465341" lon="6.5126066"><ele>727.0</ele><time>2026-05-01T16:48:06.274Z</time></trkpt><trkpt lat="43.8465989" lon="6.512593"><ele>727.0</ele><time>2026-05-01T16:48:07.274Z</time></trkpt><trkpt lat="43.8467134" lon="6.5125327"><ele>728.5</ele><time>2026-05-01T16:48:09.274Z</time></trkpt><trkpt lat="43.8468938" lon="6.5123731"><ele>730.0</ele><time>2026-05-01T16:48:12.274Z</time></trkpt><trkpt lat="43.8469576" lon="6.5122964"><ele>731.5</ele><time>2026-05-01T16:48:13.274Z</time></trkpt><trkpt lat="43.8470257" lon="6.5122267"><ele>733.0</ele><time>2026-05-01T16:48:14.274Z</time></trkpt><trkpt lat="43.8471057" lon="6.5121763"><ele>733.0</ele><time>2026-05-01T16:48:15.274Z</time></trkpt><trkpt lat="43.8471864" lon="6.5121464"><ele>733.0</ele><time>2026-05-01T16:48:16.274Z</time></trkpt><trkpt lat="43.8472642" lon="6.5121083"><ele>733.0</ele><time>2026-05-01T16:48:17.274Z</time></trkpt><trkpt lat="43.8473383" lon="6.5120741"><ele>733.0</ele><time>2026-05-01T16:48:18.274Z</time></trkpt><trkpt lat="43.847417" lon="6.5120457"><ele>733.0</ele><time>2026-05-01T16:48:19.275Z</time></trkpt><trkpt lat="43.8474917" lon="6.5120209"><ele>733.0</ele><time>2026-05-01T16:48:20.274Z</time></trkpt><trkpt lat="43.8475633" lon="6.5119998"><ele>734.3333333333334</ele><time>2026-05-01T16:48:21.274Z</time></trkpt><trkpt lat="43.8476343" lon="6.5119824"><ele>735.6666666666667</ele><time>2026-05-01T16:48:22.274Z</time></trkpt><trkpt lat="43.8477007" lon="6.5119779"><ele>737.0</ele><time>2026-05-01T16:48:23.275Z</time></trkpt><trkpt lat="43.8477855" lon="6.5118758"><ele>738.3333333333334</ele><time>2026-05-01T16:48:25.274Z</time></trkpt><trkpt lat="43.8478187" lon="6.5117755"><ele>739.6666666666666</ele><time>2026-05-01T16:48:26.274Z</time></trkpt><trkpt lat="43.8478514" lon="6.5116739"><ele>741.0</ele><time>2026-05-01T16:48:27.274Z</time></trkpt><trkpt lat="43.8478844" lon="6.5115546"><ele>741.0</ele><time>2026-05-01T16:48:28.274Z</time></trkpt><trkpt lat="43.8479171" lon="6.5114303"><ele>741.0</ele><time>2026-05-01T16:48:29.274Z</time></trkpt><trkpt lat="43.84795" lon="6.5113076"><ele>741.0</ele><time>2026-05-01T16:48:30.274Z</time></trkpt><trkpt lat="43.8480235" lon="6.5110698"><ele>741.0</ele><time>2026-05-01T16:48:32.274Z</time></trkpt><trkpt lat="43.8480584" lon="6.5109593"><ele>739.8333333333334</ele><time>2026-05-01T16:48:33.274Z</time></trkpt><trkpt lat="43.8480965" lon="6.5108597"><ele>738.6666666666666</ele><time>2026-05-01T16:48:34.274Z</time></trkpt><trkpt lat="43.8481485" lon="6.5107624"><ele>737.5</ele><time>2026-05-01T16:48:35.274Z</time></trkpt><trkpt lat="43.8482004" lon="6.5106611"><ele>736.3333333333333</ele><time>2026-05-01T16:48:36.274Z</time></trkpt><trkpt lat="43.8482554" lon="6.5105618"><ele>735.1666666666666</ele><time>2026-05-01T16:48:37.274Z</time></trkpt><trkpt lat="43.8483056" lon="6.5104507"><ele>734.0</ele><time>2026-05-01T16:48:38.274Z</time></trkpt><trkpt lat="43.8483598" lon="6.5103381"><ele>733.4000000000001</ele><time>2026-05-01T16:48:39.274Z</time></trkpt><trkpt lat="43.8484147" lon="6.5102236"><ele>732.8</ele><time>2026-05-01T16:48:40.274Z</time></trkpt><trkpt lat="43.8484672" lon="6.5101044"><ele>732.2</ele><time>2026-05-01T16:48:41.275Z</time></trkpt><trkpt lat="43.8485189" lon="6.5099755"><ele>731.5999999999999</ele><time>2026-05-01T16:48:42.274Z</time></trkpt><trkpt lat="43.8485738" lon="6.5098559"><ele>731.0</ele><time>2026-05-01T16:48:43.274Z</time></trkpt><trkpt lat="43.8486254" lon="6.5097536"><ele>732.4</ele><time>2026-05-01T16:48:44.274Z</time></trkpt><trkpt lat="43.8486828" lon="6.5096591"><ele>733.8</ele><time>2026-05-01T16:48:45.275Z</time></trkpt><trkpt lat="43.8487445" lon="6.5095509"><ele>735.1999999999999</ele><time>2026-05-01T16:48:46.274Z</time></trkpt><trkpt lat="43.8488084" lon="6.5094395"><ele>736.5999999999999</ele><time>2026-05-01T16:48:47.274Z</time></trkpt><trkpt lat="43.8488869" lon="6.5093393"><ele>738.0</ele><time>2026-05-01T16:48:48.274Z</time></trkpt><trkpt lat="43.8489769" lon="6.5092431"><ele>738.0</ele><time>2026-05-01T16:48:49.274Z</time></trkpt><trkpt lat="43.8490653" lon="6.5091527"><ele>738.0</ele><time>2026-05-01T16:48:50.274Z</time></trkpt><trkpt lat="43.8491638" lon="6.5090793"><ele>738.0</ele><time>2026-05-01T16:48:51.274Z</time></trkpt><trkpt lat="43.849371" lon="6.5089663"><ele>738.0</ele><time>2026-05-01T16:48:53.275Z</time></trkpt><trkpt lat="43.8494721" lon="6.508906"><ele>738.4</ele><time>2026-05-01T16:48:54.274Z</time></trkpt><trkpt lat="43.8495722" lon="6.5088665"><ele>738.8</ele><time>2026-05-01T16:48:55.275Z</time></trkpt><trkpt lat="43.8496714" lon="6.5088227"><ele>739.2</ele><time>2026-05-01T16:48:56.274Z</time></trkpt><trkpt lat="43.8497684" lon="6.5087794"><ele>739.6</ele><time>2026-05-01T16:48:57.274Z</time></trkpt><trkpt lat="43.8498665" lon="6.5087254"><ele>740.0</ele><time>2026-05-01T16:48:58.274Z</time></trkpt><trkpt lat="43.8499726" lon="6.5086627"><ele>740.0</ele><time>2026-05-01T16:48:59.274Z</time></trkpt><trkpt lat="43.8500857" lon="6.5086004"><ele>740.0</ele><time>2026-05-01T16:49:00.274Z</time></trkpt><trkpt lat="43.8502027" lon="6.508533"><ele>740.0</ele><time>2026-05-01T16:49:01.274Z</time></trkpt><trkpt lat="43.850323" lon="6.5084643"><ele>740.0</ele><time>2026-05-01T16:49:02.274Z</time></trkpt><trkpt lat="43.8504461" lon="6.5084023"><ele>741.5</ele><time>2026-05-01T16:49:03.274Z</time></trkpt><trkpt lat="43.8505743" lon="6.5083388"><ele>743.0</ele><time>2026-05-01T16:49:04.274Z</time></trkpt><trkpt lat="43.8507079" lon="6.5082698"><ele>744.5</ele><time>2026-05-01T16:49:05.274Z</time></trkpt><trkpt lat="43.8508382" lon="6.5082037"><ele>746.0</ele><time>2026-05-01T16:49:06.274Z</time></trkpt><trkpt lat="43.8509504" lon="6.5081481"><ele>746.1999999999999</ele><time>2026-05-01T16:49:07.274Z</time></trkpt><trkpt lat="43.8510584" lon="6.508106"><ele>746.4</ele><time>2026-05-01T16:49:08.274Z</time></trkpt><trkpt lat="43.8511614" lon="6.5080727"><ele>746.6</ele><time>2026-05-01T16:49:09.274Z</time></trkpt><trkpt lat="43.8512599" lon="6.5080589"><ele>746.8</ele><time>2026-05-01T16:49:10.274Z</time></trkpt><trkpt lat="43.8513582" lon="6.5080583"><ele>747.0</ele><time>2026-05-01T16:49:11.275Z</time></trkpt><trkpt lat="43.8514478" lon="6.5080784"><ele>747.0</ele><time>2026-05-01T16:49:12.274Z</time></trkpt><trkpt lat="43.8515981" lon="6.508079"><ele>747.0</ele><time>2026-05-01T16:49:14.274Z</time></trkpt><trkpt lat="43.8516589" lon="6.5080308"><ele>747.0</ele><time>2026-05-01T16:49:15.274Z</time></trkpt><trkpt lat="43.8517062" lon="6.5079437"><ele>747.0</ele><time>2026-05-01T16:49:16.274Z</time></trkpt><trkpt lat="43.8517425" lon="6.5078267"><ele>747.0</ele><time>2026-05-01T16:49:17.274Z</time></trkpt><trkpt lat="43.8517892" lon="6.5077009"><ele>746.5</ele><time>2026-05-01T16:49:18.274Z</time></trkpt><trkpt lat="43.8518539" lon="6.5075819"><ele>746.0</ele><time>2026-05-01T16:49:19.274Z</time></trkpt><trkpt lat="43.8519278" lon="6.5074676"><ele>745.5</ele><time>2026-05-01T16:49:20.274Z</time></trkpt><trkpt lat="43.8519965" lon="6.5073373"><ele>745.0</ele><time>2026-05-01T16:49:21.274Z</time></trkpt><trkpt lat="43.8520675" lon="6.5072042"><ele>745.0</ele><time>2026-05-01T16:49:22.274Z</time></trkpt><trkpt lat="43.8521405" lon="6.5070734"><ele>745.0</ele><time>2026-05-01T16:49:23.274Z</time></trkpt><trkpt lat="43.8522206" lon="6.5069131"><ele>745.0</ele><time>2026-05-01T16:49:24.274Z</time></trkpt><trkpt lat="43.8522976" lon="6.506743"><ele>745.0</ele><time>2026-05-01T16:49:25.275Z</time></trkpt><trkpt lat="43.8523787" lon="6.5065619"><ele>745.0</ele><time>2026-05-01T16:49:26.274Z</time></trkpt><trkpt lat="43.8524589" lon="6.506379"><ele>745.0</ele><time>2026-05-01T16:49:27.275Z</time></trkpt><trkpt lat="43.8525378" lon="6.5061951"><ele>745.0</ele><time>2026-05-01T16:49:28.274Z</time></trkpt><trkpt lat="43.8526165" lon="6.506014"><ele>743.6666666666667</ele><time>2026-05-01T16:49:29.274Z</time></trkpt><trkpt lat="43.8527008" lon="6.5058261"><ele>742.3333333333334</ele><time>2026-05-01T16:49:30.274Z</time></trkpt><trkpt lat="43.852788" lon="6.5056255"><ele>741.0</ele><time>2026-05-01T16:49:31.275Z</time></trkpt><trkpt lat="43.852877" lon="6.5054179"><ele>741.0</ele><time>2026-05-01T16:49:32.274Z</time></trkpt><trkpt lat="43.8529801" lon="6.5051916"><ele>741.0</ele><time>2026-05-01T16:49:33.274Z</time></trkpt><trkpt lat="43.8531836" lon="6.5047654"><ele>741.0</ele><time>2026-05-01T16:49:35.274Z</time></trkpt><trkpt lat="43.8532782" lon="6.5045456"><ele>741.0</ele><time>2026-05-01T16:49:36.275Z</time></trkpt><trkpt lat="43.8533669" lon="6.5043385"><ele>741.0</ele><time>2026-05-01T16:49:37.274Z</time></trkpt><trkpt lat="43.8534571" lon="6.5041321"><ele>741.0</ele><time>2026-05-01T16:49:38.274Z</time></trkpt><trkpt lat="43.8535515" lon="6.5039166"><ele>741.0</ele><time>2026-05-01T16:49:39.274Z</time></trkpt><trkpt lat="43.8536479" lon="6.5037026"><ele>741.0</ele><time>2026-05-01T16:49:40.274Z</time></trkpt><trkpt lat="43.8537456" lon="6.5034803"><ele>741.3333333333334</ele><time>2026-05-01T16:49:41.274Z</time></trkpt><trkpt lat="43.853841" lon="6.5032614"><ele>741.6666666666667</ele><time>2026-05-01T16:49:42.274Z</time></trkpt><trkpt lat="43.8539421" lon="6.5030348"><ele>742.0</ele><time>2026-05-01T16:49:43.274Z</time></trkpt><trkpt lat="43.8540409" lon="6.5028082"><ele>743.0</ele><time>2026-05-01T16:49:44.274Z</time></trkpt><trkpt lat="43.8541393" lon="6.5025957"><ele>744.0</ele><time>2026-05-01T16:49:45.274Z</time></trkpt><trkpt lat="43.8542369" lon="6.5023935"><ele>745.0</ele><time>2026-05-01T16:49:46.274Z</time></trkpt><trkpt lat="43.8543473" lon="6.5022004"><ele>746.0</ele><time>2026-05-01T16:49:47.274Z</time></trkpt><trkpt lat="43.8544703" lon="6.5020127"><ele>747.0</ele><time>2026-05-01T16:49:48.274Z</time></trkpt><trkpt lat="43.8546019" lon="6.5018382"><ele>748.0</ele><time>2026-05-01T16:49:49.274Z</time></trkpt><trkpt lat="43.8547274" lon="6.5016598"><ele>748.0</ele><time>2026-05-01T16:49:50.274Z</time></trkpt><trkpt lat="43.8548579" lon="6.5014929"><ele>748.0</ele><time>2026-05-01T16:49:51.274Z</time></trkpt><trkpt lat="43.8549835" lon="6.5013346"><ele>748.0</ele><time>2026-05-01T16:49:52.275Z</time></trkpt><trkpt lat="43.8551067" lon="6.5011713"><ele>749.5</ele><time>2026-05-01T16:49:53.274Z</time></trkpt><trkpt lat="43.8552268" lon="6.5010156"><ele>751.0</ele><time>2026-05-01T16:49:54.274Z</time></trkpt><trkpt lat="43.8554532" lon="6.5007017"><ele>751.0</ele><time>2026-05-01T16:49:56.274Z</time></trkpt><trkpt lat="43.8555617" lon="6.5005372"><ele>751.0</ele><time>2026-05-01T16:49:57.274Z</time></trkpt><trkpt lat="43.8556548" lon="6.5003607"><ele>751.0</ele><time>2026-05-01T16:49:58.274Z</time></trkpt><trkpt lat="43.8557214" lon="6.500168"><ele>752.0</ele><time>2026-05-01T16:49:59.274Z</time></trkpt><trkpt lat="43.8557602" lon="6.4999658"><ele>753.0</ele><time>2026-05-01T16:50:00.274Z</time></trkpt><trkpt lat="43.8557741" lon="6.499744"><ele>754.0</ele><time>2026-05-01T16:50:01.274Z</time></trkpt><trkpt lat="43.8557818" lon="6.4995156"><ele>754.6666666666667</ele><time>2026-05-01T16:50:02.275Z</time></trkpt><trkpt lat="43.855784" lon="6.4992699"><ele>755.3333333333334</ele><time>2026-05-01T16:50:03.275Z</time></trkpt><trkpt lat="43.8557943" lon="6.4990062"><ele>756.0</ele><time>2026-05-01T16:50:04.274Z</time></trkpt><trkpt lat="43.8558016" lon="6.4987339"><ele>756.3333333333334</ele><time>2026-05-01T16:50:05.274Z</time></trkpt><trkpt lat="43.8558125" lon="6.4984576"><ele>756.6666666666667</ele><time>2026-05-01T16:50:06.274Z</time></trkpt><trkpt lat="43.8558275" lon="6.498174"><ele>757.0</ele><time>2026-05-01T16:50:07.274Z</time></trkpt><trkpt lat="43.8558369" lon="6.4978971"><ele>757.6666666666667</ele><time>2026-05-01T16:50:08.274Z</time></trkpt><trkpt lat="43.8558454" lon="6.4976256"><ele>758.3333333333334</ele><time>2026-05-01T16:50:09.274Z</time></trkpt><trkpt lat="43.8558551" lon="6.4973696"><ele>759.0</ele><time>2026-05-01T16:50:10.274Z</time></trkpt><trkpt lat="43.8558659" lon="6.4971192"><ele>759.3333333333334</ele><time>2026-05-01T16:50:11.274Z</time></trkpt><trkpt lat="43.855876" lon="6.4968851"><ele>759.6666666666667</ele><time>2026-05-01T16:50:12.274Z</time></trkpt><trkpt lat="43.8558803" lon="6.4966652"><ele>760.0</ele><time>2026-05-01T16:50:13.274Z</time></trkpt><trkpt lat="43.8558865" lon="6.4964656"><ele>760.0</ele><time>2026-05-01T16:50:14.274Z</time></trkpt><trkpt lat="43.8558944" lon="6.4962784"><ele>760.0</ele><time>2026-05-01T16:50:15.274Z</time></trkpt><trkpt lat="43.8559328" lon="6.4959474"><ele>760.0</ele><time>2026-05-01T16:50:17.274Z</time></trkpt><trkpt lat="43.8559977" lon="6.4957971"><ele>762.0</ele><time>2026-05-01T16:50:18.274Z</time></trkpt><trkpt lat="43.856093" lon="6.4956725"><ele>764.0</ele><time>2026-05-01T16:50:19.274Z</time></trkpt><trkpt lat="43.8562192" lon="6.4955907"><ele>766.0</ele><time>2026-05-01T16:50:20.274Z</time></trkpt><trkpt lat="43.8563666" lon="6.4955537"><ele>768.0</ele><time>2026-05-01T16:50:21.275Z</time></trkpt><trkpt lat="43.8565328" lon="6.4955647"><ele>768.0</ele><time>2026-05-01T16:50:22.274Z</time></trkpt><trkpt lat="43.8566958" lon="6.4955932"><ele>768.0</ele><time>2026-05-01T16:50:23.274Z</time></trkpt><trkpt lat="43.8568517" lon="6.4956167"><ele>768.0</ele><time>2026-05-01T16:50:24.274Z</time></trkpt><trkpt lat="43.856997" lon="6.4956281"><ele>767.5</ele><time>2026-05-01T16:50:25.274Z</time></trkpt><trkpt lat="43.8571334" lon="6.4956144"><ele>767.0</ele><time>2026-05-01T16:50:26.274Z</time></trkpt><trkpt lat="43.8572493" lon="6.4955535"><ele>766.5</ele><time>2026-05-01T16:50:27.274Z</time></trkpt><trkpt lat="43.8573511" lon="6.4954192"><ele>766.0</ele><time>2026-05-01T16:50:28.274Z</time></trkpt><trkpt lat="43.8574539" lon="6.4952685"><ele>772.0</ele><time>2026-05-01T16:50:29.274Z</time></trkpt><trkpt lat="43.8575826" lon="6.495152"><ele>778.0</ele><time>2026-05-01T16:50:30.274Z</time></trkpt><trkpt lat="43.8577478" lon="6.4951068"><ele>784.0</ele><time>2026-05-01T16:50:31.274Z</time></trkpt><trkpt lat="43.8579248" lon="6.4951175"><ele>784.6666666666666</ele><time>2026-05-01T16:50:32.275Z</time></trkpt><trkpt lat="43.8581094" lon="6.4951134"><ele>785.3333333333333</ele><time>2026-05-01T16:50:33.275Z</time></trkpt><trkpt lat="43.8582896" lon="6.4950608"><ele>786.0</ele><time>2026-05-01T16:50:34.274Z</time></trkpt><trkpt lat="43.8584786" lon="6.4950047"><ele>788.5</ele><time>2026-05-01T16:50:35.274Z</time></trkpt><trkpt lat="43.8586722" lon="6.4949576"><ele>791.0</ele><time>2026-05-01T16:50:36.274Z</time></trkpt><trkpt lat="43.8590769" lon="6.4949382"><ele>793.6666666666667</ele><time>2026-05-01T16:50:38.274Z</time></trkpt><trkpt lat="43.8592903" lon="6.4949573"><ele>796.3333333333333</ele><time>2026-05-01T16:50:39.274Z</time></trkpt><trkpt lat="43.859503" lon="6.494971"><ele>799.0</ele><time>2026-05-01T16:50:40.274Z</time></trkpt><trkpt lat="43.8596944" lon="6.4949894"><ele>799.0</ele><time>2026-05-01T16:50:41.274Z</time></trkpt><trkpt lat="43.8598697" lon="6.4949941"><ele>799.0</ele><time>2026-05-01T16:50:42.274Z</time></trkpt><trkpt lat="43.8600313" lon="6.4950255"><ele>799.0</ele><time>2026-05-01T16:50:43.274Z</time></trkpt><trkpt lat="43.8601782" lon="6.4950644"><ele>800.0</ele><time>2026-05-01T16:50:44.274Z</time></trkpt><trkpt lat="43.8603045" lon="6.4951347"><ele>801.0</ele><time>2026-05-01T16:50:45.275Z</time></trkpt><trkpt lat="43.8604009" lon="6.49523"><ele>802.0</ele><time>2026-05-01T16:50:46.274Z</time></trkpt><trkpt lat="43.8604804" lon="6.4953494"><ele>803.0</ele><time>2026-05-01T16:50:47.274Z</time></trkpt><trkpt lat="43.8605676" lon="6.4954427"><ele>802.5999999999999</ele><time>2026-05-01T16:50:48.274Z</time></trkpt><trkpt lat="43.8606765" lon="6.4954898"><ele>802.1999999999999</ele><time>2026-05-01T16:50:49.274Z</time></trkpt><trkpt lat="43.8607813" lon="6.4954861"><ele>801.8</ele><time>2026-05-01T16:50:50.274Z</time></trkpt><trkpt lat="43.8608777" lon="6.4954437"><ele>801.4</ele><time>2026-05-01T16:50:51.274Z</time></trkpt><trkpt lat="43.8609545" lon="6.4953507"><ele>801.0</ele><time>2026-05-01T16:50:52.274Z</time></trkpt><trkpt lat="43.8610049" lon="6.4952163"><ele>801.0</ele><time>2026-05-01T16:50:53.274Z</time></trkpt><trkpt lat="43.8610232" lon="6.4950607"><ele>801.0</ele><time>2026-05-01T16:50:54.275Z</time></trkpt><trkpt lat="43.8610028" lon="6.4949094"><ele>801.0</ele><time>2026-05-01T16:50:55.274Z</time></trkpt><trkpt lat="43.8609578" lon="6.4947762"><ele>801.0</ele><time>2026-05-01T16:50:56.275Z</time></trkpt><trkpt lat="43.8608793" lon="6.4946703"><ele>801.0</ele><time>2026-05-01T16:50:57.274Z</time></trkpt><trkpt lat="43.8606213" lon="6.4945893"><ele>810.6666666666667</ele><time>2026-05-01T16:50:59.274Z</time></trkpt><trkpt lat="43.8604712" lon="6.4945578"><ele>820.3333333333334</ele><time>2026-05-01T16:51:00.274Z</time></trkpt><trkpt lat="43.8603227" lon="6.494525"><ele>830.0</ele><time>2026-05-01T16:51:01.274Z</time></trkpt><trkpt lat="43.8601678" lon="6.494514"><ele>830.3333333333334</ele><time>2026-05-01T16:51:02.274Z</time></trkpt><trkpt lat="43.860012" lon="6.4945185"><ele>830.6666666666667</ele><time>2026-05-01T16:51:03.274Z</time></trkpt><trkpt lat="43.8598644" lon="6.4945152"><ele>831.0</ele><time>2026-05-01T16:51:04.275Z</time></trkpt><trkpt lat="43.8597146" lon="6.4944859"><ele>831.0</ele><time>2026-05-01T16:51:05.275Z</time></trkpt><trkpt lat="43.8595665" lon="6.4944189"><ele>831.0</ele><time>2026-05-01T16:51:06.274Z</time></trkpt><trkpt lat="43.8594108" lon="6.4943396"><ele>831.0</ele><time>2026-05-01T16:51:07.274Z</time></trkpt><trkpt lat="43.8592475" lon="6.4942822"><ele>828.6666666666667</ele><time>2026-05-01T16:51:08.274Z</time></trkpt><trkpt lat="43.8590785" lon="6.4942395"><ele>826.3333333333334</ele><time>2026-05-01T16:51:09.274Z</time></trkpt><trkpt lat="43.8589193" lon="6.4941951"><ele>824.0</ele><time>2026-05-01T16:51:10.274Z</time></trkpt><trkpt lat="43.8587754" lon="6.4941336"><ele>824.0</ele><time>2026-05-01T16:51:11.275Z</time></trkpt><trkpt lat="43.8586547" lon="6.4940749"><ele>824.0</ele><time>2026-05-01T16:51:12.275Z</time></trkpt><trkpt lat="43.8585596" lon="6.4940028"><ele>824.0</ele><time>2026-05-01T16:51:13.274Z</time></trkpt><trkpt lat="43.858499" lon="6.4939092"><ele>824.0</ele><time>2026-05-01T16:51:14.274Z</time></trkpt><trkpt lat="43.8584816" lon="6.4937889"><ele>824.0</ele><time>2026-05-01T16:51:15.275Z</time></trkpt><trkpt lat="43.8584925" lon="6.4936393"><ele>830.6666666666667</ele><time>2026-05-01T16:51:16.274Z</time></trkpt><trkpt lat="43.8585408" lon="6.4934714"><ele>837.3333333333333</ele><time>2026-05-01T16:51:17.274Z</time></trkpt><trkpt lat="43.8586343" lon="6.4932929"><ele>844.0</ele><time>2026-05-01T16:51:18.274Z</time></trkpt><trkpt lat="43.8588643" lon="6.4929374"><ele>842.3333333333333</ele><time>2026-05-01T16:51:20.274Z</time></trkpt><trkpt lat="43.8589676" lon="6.4927638"><ele>840.6666666666667</ele><time>2026-05-01T16:51:21.275Z</time></trkpt><trkpt lat="43.8590461" lon="6.4925572"><ele>839.0</ele><time>2026-05-01T16:51:22.274Z</time></trkpt><trkpt lat="43.8591212" lon="6.492342"><ele>839.0</ele><time>2026-05-01T16:51:23.274Z</time></trkpt><trkpt lat="43.8592082" lon="6.4921527"><ele>839.0</ele><time>2026-05-01T16:51:24.274Z</time></trkpt><trkpt lat="43.859322" lon="6.4920001"><ele>839.0</ele><time>2026-05-01T16:51:25.274Z</time></trkpt><trkpt lat="43.8594377" lon="6.491856"><ele>846.0</ele><time>2026-05-01T16:51:26.274Z</time></trkpt><trkpt lat="43.8595621" lon="6.4917134"><ele>853.0</ele><time>2026-05-01T16:51:27.274Z</time></trkpt><trkpt lat="43.8596876" lon="6.4915816"><ele>860.0</ele><time>2026-05-01T16:51:28.274Z</time></trkpt><trkpt lat="43.8597935" lon="6.4914543"><ele>860.0</ele><time>2026-05-01T16:51:29.274Z</time></trkpt><trkpt lat="43.8598956" lon="6.4913429"><ele>860.0</ele><time>2026-05-01T16:51:30.274Z</time></trkpt><trkpt lat="43.859982" lon="6.4912423"><ele>860.0</ele><time>2026-05-01T16:51:31.274Z</time></trkpt><trkpt lat="43.8600431" lon="6.4911206"><ele>860.0</ele><time>2026-05-01T16:51:32.274Z</time></trkpt><trkpt lat="43.8600665" lon="6.4909817"><ele>859.25</ele><time>2026-05-01T16:51:33.274Z</time></trkpt><trkpt lat="43.8600506" lon="6.4908276"><ele>858.5</ele><time>2026-05-01T16:51:34.274Z</time></trkpt><trkpt lat="43.8600119" lon="6.4906662"><ele>857.75</ele><time>2026-05-01T16:51:35.274Z</time></trkpt><trkpt lat="43.8599798" lon="6.4905019"><ele>857.0</ele><time>2026-05-01T16:51:36.274Z</time></trkpt><trkpt lat="43.8599747" lon="6.490331"><ele>857.0</ele><time>2026-05-01T16:51:37.275Z</time></trkpt><trkpt lat="43.8599868" lon="6.4901516"><ele>857.0</ele><time>2026-05-01T16:51:38.274Z</time></trkpt><trkpt lat="43.8599877" lon="6.4899852"><ele>857.0</ele><time>2026-05-01T16:51:39.274Z</time></trkpt><trkpt lat="43.8599197" lon="6.4897036"><ele>857.0000000000001</ele><time>2026-05-01T16:51:41.274Z</time></trkpt><trkpt lat="43.859874" lon="6.4895975"><ele>857.0</ele><time>2026-05-01T16:51:42.275Z</time></trkpt><trkpt lat="43.8598452" lon="6.4895015"><ele>857.0</ele><time>2026-05-01T16:51:43.274Z</time></trkpt><trkpt lat="43.8598456" lon="6.4894057"><ele>857.0</ele><time>2026-05-01T16:51:44.274Z</time></trkpt><trkpt lat="43.8598805" lon="6.4893113"><ele>857.0000000000001</ele><time>2026-05-01T16:51:45.274Z</time></trkpt><trkpt lat="43.8599387" lon="6.4892636"><ele>857.0</ele><time>2026-05-01T16:51:46.274Z</time></trkpt><trkpt lat="43.8600211" lon="6.4892688"><ele>857.5</ele><time>2026-05-01T16:51:47.274Z</time></trkpt><trkpt lat="43.8600951" lon="6.4893459"><ele>858.0</ele><time>2026-05-01T16:51:48.274Z</time></trkpt><trkpt lat="43.8601529" lon="6.4894918"><ele>858.5</ele><time>2026-05-01T16:51:49.274Z</time></trkpt><trkpt lat="43.8601865" lon="6.4896887"><ele>859.0</ele><time>2026-05-01T16:51:50.274Z</time></trkpt><trkpt lat="43.8601972" lon="6.4898847"><ele>867.8000000000001</ele><time>2026-05-01T16:51:51.274Z</time></trkpt><trkpt lat="43.8601909" lon="6.490062"><ele>876.6000000000001</ele><time>2026-05-01T16:51:52.274Z</time></trkpt><trkpt lat="43.8601772" lon="6.4902194"><ele>885.4</ele><time>2026-05-01T16:51:53.274Z</time></trkpt><trkpt lat="43.8601666" lon="6.4903616"><ele>894.2</ele><time>2026-05-01T16:51:54.274Z</time></trkpt><trkpt lat="43.8601754" lon="6.4904977"><ele>903.0</ele><time>2026-05-01T16:51:55.274Z</time></trkpt><trkpt lat="43.8602235" lon="6.4906212"><ele>903.0</ele><time>2026-05-01T16:51:56.274Z</time></trkpt><trkpt lat="43.8603026" lon="6.49074"><ele>903.0</ele><time>2026-05-01T16:51:57.275Z</time></trkpt><trkpt lat="43.8603735" lon="6.4908867"><ele>903.0</ele><time>2026-05-01T16:51:58.274Z</time></trkpt><trkpt lat="43.8604114" lon="6.4910571"><ele>903.0</ele><time>2026-05-01T16:51:59.274Z</time></trkpt><trkpt lat="43.8603981" lon="6.4912265"><ele>902.3333333333333</ele><time>2026-05-01T16:52:00.274Z</time></trkpt><trkpt lat="43.8602448" lon="6.4915053"><ele>901.6666666666666</ele><time>2026-05-01T16:52:02.275Z</time></trkpt><trkpt lat="43.8601353" lon="6.4916043"><ele>901.0</ele><time>2026-05-01T16:52:03.274Z</time></trkpt><trkpt lat="43.8600459" lon="6.4917191"><ele>894.0</ele><time>2026-05-01T16:52:04.274Z</time></trkpt><trkpt lat="43.8599802" lon="6.4918854"><ele>887.0</ele><time>2026-05-01T16:52:05.274Z</time></trkpt><trkpt lat="43.8599174" lon="6.4920569"><ele>880.0</ele><time>2026-05-01T16:52:06.274Z</time></trkpt><trkpt lat="43.8598447" lon="6.4921998"><ele>873.0</ele><time>2026-05-01T16:52:07.274Z</time></trkpt><trkpt lat="43.8597718" lon="6.4923329"><ele>873.0</ele><time>2026-05-01T16:52:08.274Z</time></trkpt><trkpt lat="43.8597134" lon="6.4924741"><ele>873.0</ele><time>2026-05-01T16:52:09.274Z</time></trkpt><trkpt lat="43.8596844" lon="6.4926187"><ele>873.0</ele><time>2026-05-01T16:52:10.275Z</time></trkpt><trkpt lat="43.8596901" lon="6.4927347"><ele>873.0</ele><time>2026-05-01T16:52:11.274Z</time></trkpt><trkpt lat="43.8597282" lon="6.4928293"><ele>873.0</ele><time>2026-05-01T16:52:12.274Z</time></trkpt><trkpt lat="43.8597856" lon="6.4928865"><ele>873.0</ele><time>2026-05-01T16:52:13.274Z</time></trkpt><trkpt lat="43.8598724" lon="6.4929032"><ele>873.0</ele><time>2026-05-01T16:52:14.274Z</time></trkpt><trkpt lat="43.859993" lon="6.4928629"><ele>873.0</ele><time>2026-05-01T16:52:15.274Z</time></trkpt><trkpt lat="43.86015" lon="6.4927715"><ele>873.0</ele><time>2026-05-01T16:52:16.274Z</time></trkpt><trkpt lat="43.8603199" lon="6.4926796"><ele>879.0</ele><time>2026-05-01T16:52:17.275Z</time></trkpt><trkpt lat="43.8604924" lon="6.4926288"><ele>885.0</ele><time>2026-05-01T16:52:18.274Z</time></trkpt><trkpt lat="43.8606657" lon="6.4926336"><ele>891.0</ele><time>2026-05-01T16:52:19.274Z</time></trkpt><trkpt lat="43.8608434" lon="6.4926612"><ele>897.0</ele><time>2026-05-01T16:52:20.274Z</time></trkpt><trkpt lat="43.8610331" lon="6.4926888"><ele>903.0</ele><time>2026-05-01T16:52:21.274Z</time></trkpt><trkpt lat="43.8613935" lon="6.4927118"><ele>903.0</ele><time>2026-05-01T16:52:23.274Z</time></trkpt><trkpt lat="43.8615559" lon="6.4927485"><ele>903.0</ele><time>2026-05-01T16:52:24.274Z</time></trkpt><trkpt lat="43.8616936" lon="6.4928"><ele>903.0</ele><time>2026-05-01T16:52:25.274Z</time></trkpt><trkpt lat="43.8618322" lon="6.4927984"><ele>903.0</ele><time>2026-05-01T16:52:26.274Z</time></trkpt><trkpt lat="43.8619843" lon="6.492753"><ele>900.0</ele><time>2026-05-01T16:52:27.274Z</time></trkpt><trkpt lat="43.8621396" lon="6.4926708"><ele>897.0</ele><time>2026-05-01T16:52:28.274Z</time></trkpt><trkpt lat="43.8623012" lon="6.4925802"><ele>894.0</ele><time>2026-05-01T16:52:29.274Z</time></trkpt><trkpt lat="43.8624642" lon="6.4924923"><ele>889.0</ele><time>2026-05-01T16:52:30.274Z</time></trkpt><trkpt lat="43.8626219" lon="6.4924209"><ele>884.0</ele><time>2026-05-01T16:52:31.274Z</time></trkpt><trkpt lat="43.8627742" lon="6.4923549"><ele>879.0</ele><time>2026-05-01T16:52:32.275Z</time></trkpt><trkpt lat="43.8629347" lon="6.4922993"><ele>879.0</ele><time>2026-05-01T16:52:33.274Z</time></trkpt><trkpt lat="43.8630932" lon="6.4922324"><ele>879.0</ele><time>2026-05-01T16:52:34.274Z</time></trkpt><trkpt lat="43.8632441" lon="6.4921394"><ele>879.0</ele><time>2026-05-01T16:52:35.275Z</time></trkpt><trkpt lat="43.8633969" lon="6.4920153"><ele>884.6666666666667</ele><time>2026-05-01T16:52:36.274Z</time></trkpt><trkpt lat="43.8635503" lon="6.4918824"><ele>890.3333333333334</ele><time>2026-05-01T16:52:37.274Z</time></trkpt><trkpt lat="43.8637067" lon="6.4917402"><ele>896.0</ele><time>2026-05-01T16:52:38.274Z</time></trkpt><trkpt lat="43.863863" lon="6.4915894"><ele>896.0</ele><time>2026-05-01T16:52:39.275Z</time></trkpt><trkpt lat="43.8640305" lon="6.4914584"><ele>896.0</ele><time>2026-05-01T16:52:40.274Z</time></trkpt><trkpt lat="43.8642002" lon="6.4913517"><ele>896.0</ele><time>2026-05-01T16:52:41.274Z</time></trkpt><trkpt lat="43.8643851" lon="6.4912745"><ele>913.0</ele><time>2026-05-01T16:52:42.274Z</time></trkpt><trkpt lat="43.8647397" lon="6.4911617"><ele>930.0</ele><time>2026-05-01T16:52:44.274Z</time></trkpt><trkpt lat="43.8649105" lon="6.4911242"><ele>930.0</ele><time>2026-05-01T16:52:45.274Z</time></trkpt><trkpt lat="43.865083" lon="6.4911055"><ele>930.0</ele><time>2026-05-01T16:52:46.274Z</time></trkpt><trkpt lat="43.865261" lon="6.4911164"><ele>930.0</ele><time>2026-05-01T16:52:47.274Z</time></trkpt><trkpt lat="43.865431" lon="6.4911488"><ele>932.3333333333333</ele><time>2026-05-01T16:52:48.274Z</time></trkpt><trkpt lat="43.8656067" lon="6.4912114"><ele>934.6666666666666</ele><time>2026-05-01T16:52:49.274Z</time></trkpt><trkpt lat="43.8657786" lon="6.4912682"><ele>937.0</ele><time>2026-05-01T16:52:50.274Z</time></trkpt><trkpt lat="43.8659438" lon="6.4913308"><ele>928.0</ele><time>2026-05-01T16:52:51.274Z</time></trkpt><trkpt lat="43.866096" lon="6.491406"><ele>919.0</ele><time>2026-05-01T16:52:52.274Z</time></trkpt><trkpt lat="43.8662283" lon="6.4914831"><ele>910.0</ele><time>2026-05-01T16:52:53.274Z</time></trkpt><trkpt lat="43.8663486" lon="6.4915423"><ele>901.0</ele><time>2026-05-01T16:52:54.274Z</time></trkpt><trkpt lat="43.8664565" lon="6.4915659"><ele>900.9999999999999</ele><time>2026-05-01T16:52:55.274Z</time></trkpt><trkpt lat="43.8665481" lon="6.4915487"><ele>901.0</ele><time>2026-05-01T16:52:56.274Z</time></trkpt><trkpt lat="43.8666132" lon="6.4914871"><ele>901.0</ele><time>2026-05-01T16:52:57.274Z</time></trkpt><trkpt lat="43.8666643" lon="6.4913915"><ele>901.0</ele><time>2026-05-01T16:52:58.274Z</time></trkpt><trkpt lat="43.8666755" lon="6.4912913"><ele>900.9999999999999</ele><time>2026-05-01T16:52:59.274Z</time></trkpt><trkpt lat="43.8666338" lon="6.4911862"><ele>901.0</ele><time>2026-05-01T16:53:00.274Z</time></trkpt><trkpt lat="43.8665414" lon="6.4910895"><ele>910.0</ele><time>2026-05-01T16:53:01.274Z</time></trkpt><trkpt lat="43.8663972" lon="6.4910402"><ele>919.0</ele><time>2026-05-01T16:53:02.274Z</time></trkpt><trkpt lat="43.8662236" lon="6.4910106"><ele>928.0</ele><time>2026-05-01T16:53:03.274Z</time></trkpt><trkpt lat="43.8658935" lon="6.4909094"><ele>931.0</ele><time>2026-05-01T16:53:05.274Z</time></trkpt><trkpt lat="43.8657411" lon="6.490836"><ele>934.0</ele><time>2026-05-01T16:53:06.274Z</time></trkpt><trkpt lat="43.8655837" lon="6.4907541"><ele>937.0</ele><time>2026-05-01T16:53:07.274Z</time></trkpt><trkpt lat="43.8654305" lon="6.4906734"><ele>937.0</ele><time>2026-05-01T16:53:08.275Z</time></trkpt><trkpt lat="43.8652661" lon="6.4906094"><ele>937.0</ele><time>2026-05-01T16:53:09.274Z</time></trkpt><trkpt lat="43.8650971" lon="6.4905587"><ele>937.0</ele><time>2026-05-01T16:53:10.274Z</time></trkpt><trkpt lat="43.8649225" lon="6.4905364"><ele>934.6666666666666</ele><time>2026-05-01T16:53:11.275Z</time></trkpt><trkpt lat="43.864737" lon="6.4905353"><ele>932.3333333333333</ele><time>2026-05-01T16:53:12.274Z</time></trkpt><trkpt lat="43.8645586" lon="6.4905393"><ele>930.0</ele><time>2026-05-01T16:53:13.274Z</time></trkpt><trkpt lat="43.8643788" lon="6.4905504"><ele>931.3333333333333</ele><time>2026-05-01T16:53:14.274Z</time></trkpt><trkpt lat="43.8642017" lon="6.4905493"><ele>932.6666666666666</ele><time>2026-05-01T16:53:15.274Z</time></trkpt><trkpt lat="43.8640297" lon="6.4905548"><ele>934.0</ele><time>2026-05-01T16:53:16.274Z</time></trkpt><trkpt lat="43.8638594" lon="6.4905738"><ele>934.0</ele><time>2026-05-01T16:53:17.274Z</time></trkpt><trkpt lat="43.8636924" lon="6.4906216"><ele>934.0</ele><time>2026-05-01T16:53:18.274Z</time></trkpt><trkpt lat="43.8635293" lon="6.4907044"><ele>934.0</ele><time>2026-05-01T16:53:19.274Z</time></trkpt><trkpt lat="43.8633818" lon="6.4907923"><ele>937.25</ele><time>2026-05-01T16:53:20.274Z</time></trkpt><trkpt lat="43.8632526" lon="6.4908772"><ele>940.5</ele><time>2026-05-01T16:53:21.274Z</time></trkpt><trkpt lat="43.8631224" lon="6.4909329"><ele>943.75</ele><time>2026-05-01T16:53:22.274Z</time></trkpt><trkpt lat="43.8629929" lon="6.4909515"><ele>947.0</ele><time>2026-05-01T16:53:23.274Z</time></trkpt><trkpt lat="43.8628572" lon="6.4909174"><ele>949.5</ele><time>2026-05-01T16:53:24.274Z</time></trkpt><trkpt lat="43.8625691" lon="6.4908046"><ele>952.0</ele><time>2026-05-01T16:53:26.274Z</time></trkpt><trkpt lat="43.8624206" lon="6.4907341"><ele>952.0</ele><time>2026-05-01T16:53:27.274Z</time></trkpt><trkpt lat="43.8622859" lon="6.4906349"><ele>952.0</ele><time>2026-05-01T16:53:28.274Z</time></trkpt><trkpt lat="43.8621608" lon="6.4904986"><ele>952.0</ele><time>2026-05-01T16:53:29.275Z</time></trkpt><trkpt lat="43.8620408" lon="6.4903429"><ele>952.25</ele><time>2026-05-01T16:53:30.274Z</time></trkpt><trkpt lat="43.8619251" lon="6.4901807"><ele>952.5</ele><time>2026-05-01T16:53:31.274Z</time></trkpt><trkpt lat="43.86182" lon="6.4900382"><ele>952.75</ele><time>2026-05-01T16:53:32.274Z</time></trkpt><trkpt lat="43.8617306" lon="6.4898964"><ele>953.0</ele><time>2026-05-01T16:53:33.274Z</time></trkpt><trkpt lat="43.8616498" lon="6.4897693"><ele>953.0000000000001</ele><time>2026-05-01T16:53:34.275Z</time></trkpt><trkpt lat="43.8615938" lon="6.489646"><ele>953.0</ele><time>2026-05-01T16:53:35.274Z</time></trkpt><trkpt lat="43.8615726" lon="6.4895424"><ele>953.0</ele><time>2026-05-01T16:53:36.274Z</time></trkpt><trkpt lat="43.8616059" lon="6.4894638"><ele>953.0</ele><time>2026-05-01T16:53:37.274Z</time></trkpt><trkpt lat="43.8617049" lon="6.4893965"><ele>953.0000000000001</ele><time>2026-05-01T16:53:39.274Z</time></trkpt><trkpt lat="43.8617605" lon="6.4894478"><ele>953.0</ele><time>2026-05-01T16:53:40.274Z</time></trkpt><trkpt lat="43.8618095" lon="6.4895667"><ele>957.0</ele><time>2026-05-01T16:53:41.274Z</time></trkpt><trkpt lat="43.8618832" lon="6.4896946"><ele>961.0</ele><time>2026-05-01T16:53:42.275Z</time></trkpt><trkpt lat="43.8619793" lon="6.4897848"><ele>965.0</ele><time>2026-05-01T16:53:43.275Z</time></trkpt><trkpt lat="43.8621031" lon="6.4898112"><ele>969.0</ele><time>2026-05-01T16:53:44.274Z</time></trkpt><trkpt lat="43.8622481" lon="6.4898016"><ele>969.0</ele><time>2026-05-01T16:53:45.274Z</time></trkpt><trkpt lat="43.8625718" lon="6.4898275"><ele>969.0</ele><time>2026-05-01T16:53:47.274Z</time></trkpt><trkpt lat="43.8627414" lon="6.4898833"><ele>969.6666666666667</ele><time>2026-05-01T16:53:48.274Z</time></trkpt><trkpt lat="43.8629045" lon="6.4899377"><ele>970.3333333333334</ele><time>2026-05-01T16:53:49.274Z</time></trkpt><trkpt lat="43.8630556" lon="6.489998"><ele>971.0</ele><time>2026-05-01T16:53:50.274Z</time></trkpt><trkpt lat="43.8632029" lon="6.4900393"><ele>971.0</ele><time>2026-05-01T16:53:51.274Z</time></trkpt><trkpt lat="43.8633571" lon="6.4900444"><ele>971.0</ele><time>2026-05-01T16:53:52.274Z</time></trkpt><trkpt lat="43.8635143" lon="6.4899827"><ele>971.0</ele><time>2026-05-01T16:53:53.274Z</time></trkpt><trkpt lat="43.8636789" lon="6.4899033"><ele>969.3333333333334</ele><time>2026-05-01T16:53:54.274Z</time></trkpt><trkpt lat="43.8638437" lon="6.4898437"><ele>967.6666666666667</ele><time>2026-05-01T16:53:55.274Z</time></trkpt><trkpt lat="43.8640054" lon="6.4898"><ele>966.0</ele><time>2026-05-01T16:53:56.274Z</time></trkpt><trkpt lat="43.8641618" lon="6.4897674"><ele>966.75</ele><time>2026-05-01T16:53:57.274Z</time></trkpt><trkpt lat="43.8643057" lon="6.4897254"><ele>967.5</ele><time>2026-05-01T16:53:58.275Z</time></trkpt><trkpt lat="43.8644406" lon="6.4896822"><ele>968.25</ele><time>2026-05-01T16:53:59.274Z</time></trkpt><trkpt lat="43.8645592" lon="6.4896283"><ele>969.0</ele><time>2026-05-01T16:54:00.274Z</time></trkpt><trkpt lat="43.8646761" lon="6.4895293"><ele>972.75</ele><time>2026-05-01T16:54:01.274Z</time></trkpt><trkpt lat="43.8647887" lon="6.4894272"><ele>976.5</ele><time>2026-05-01T16:54:02.274Z</time></trkpt><trkpt lat="43.8649107" lon="6.4893345"><ele>980.25</ele><time>2026-05-01T16:54:03.274Z</time></trkpt><trkpt lat="43.8650483" lon="6.4892587"><ele>984.0</ele><time>2026-05-01T16:54:04.274Z</time></trkpt><trkpt lat="43.8651938" lon="6.4892105"><ele>984.0</ele><time>2026-05-01T16:54:05.274Z</time></trkpt><trkpt lat="43.8653439" lon="6.4891626"><ele>984.0</ele><time>2026-05-01T16:54:06.274Z</time></trkpt><trkpt lat="43.8656059" lon="6.4889655"><ele>984.0</ele><time>2026-05-01T16:54:08.274Z</time></trkpt><trkpt lat="43.8657195" lon="6.4888133"><ele>984.0</ele><time>2026-05-01T16:54:09.274Z</time></trkpt><trkpt lat="43.865823" lon="6.4886493"><ele>984.0</ele><time>2026-05-01T16:54:10.274Z</time></trkpt><trkpt lat="43.8659165" lon="6.488476"><ele>982.6666666666667</ele><time>2026-05-01T16:54:11.274Z</time></trkpt><trkpt lat="43.8659893" lon="6.488286"><ele>981.3333333333334</ele><time>2026-05-01T16:54:12.274Z</time></trkpt><trkpt lat="43.86605" lon="6.4880828"><ele>980.0</ele><time>2026-05-01T16:54:13.274Z</time></trkpt><trkpt lat="43.8661067" lon="6.4878825"><ele>984.0</ele><time>2026-05-01T16:54:14.274Z</time></trkpt><trkpt lat="43.8661595" lon="6.4876944"><ele>988.0</ele><time>2026-05-01T16:54:15.274Z</time></trkpt><trkpt lat="43.8662242" lon="6.4875438"><ele>992.0</ele><time>2026-05-01T16:54:16.274Z</time></trkpt><trkpt lat="43.8663099" lon="6.487438"><ele>996.0</ele><time>2026-05-01T16:54:17.274Z</time></trkpt><trkpt lat="43.8664304" lon="6.4873912"><ele>996.0</ele><time>2026-05-01T16:54:18.274Z</time></trkpt><trkpt lat="43.8665839" lon="6.4873831"><ele>996.0</ele><time>2026-05-01T16:54:19.274Z</time></trkpt><trkpt lat="43.8667404" lon="6.4873536"><ele>996.0</ele><time>2026-05-01T16:54:20.274Z</time></trkpt><trkpt lat="43.8668879" lon="6.4872852"><ele>998.6666666666667</ele><time>2026-05-01T16:54:21.274Z</time></trkpt><trkpt lat="43.8670172" lon="6.4871648"><ele>1001.3333333333334</ele><time>2026-05-01T16:54:22.274Z</time></trkpt><trkpt lat="43.8671443" lon="6.4870374"><ele>1004.0</ele><time>2026-05-01T16:54:23.274Z</time></trkpt><trkpt lat="43.8672612" lon="6.4869077"><ele>1004.0</ele><time>2026-05-01T16:54:24.274Z</time></trkpt><trkpt lat="43.867365" lon="6.4867816"><ele>1004.0</ele><time>2026-05-01T16:54:25.275Z</time></trkpt><trkpt lat="43.8674505" lon="6.4866495"><ele>1004.0</ele><time>2026-05-01T16:54:26.274Z</time></trkpt><trkpt lat="43.8675112" lon="6.4865204"><ele>1004.0</ele><time>2026-05-01T16:54:27.274Z</time></trkpt><trkpt lat="43.8675155" lon="6.4862509"><ele>1007.0</ele><time>2026-05-01T16:54:29.274Z</time></trkpt><trkpt lat="43.867453" lon="6.4861293"><ele>1010.0</ele><time>2026-05-01T16:54:30.274Z</time></trkpt><trkpt lat="43.8673594" lon="6.4860638"><ele>1013.0</ele><time>2026-05-01T16:54:31.274Z</time></trkpt><trkpt lat="43.867247" lon="6.4860547"><ele>1016.0</ele><time>2026-05-01T16:54:32.274Z</time></trkpt><trkpt lat="43.8671265" lon="6.4861015"><ele>1016.0</ele><time>2026-05-01T16:54:33.275Z</time></trkpt><trkpt lat="43.8669935" lon="6.4862048"><ele>1016.0</ele><time>2026-05-01T16:54:34.274Z</time></trkpt><trkpt lat="43.8668587" lon="6.4863328"><ele>1016.0</ele><time>2026-05-01T16:54:35.274Z</time></trkpt><trkpt lat="43.86673" lon="6.4864364"><ele>1015.75</ele><time>2026-05-01T16:54:36.274Z</time></trkpt><trkpt lat="43.8666063" lon="6.486515"><ele>1015.5</ele><time>2026-05-01T16:54:37.274Z</time></trkpt><trkpt lat="43.8664766" lon="6.4865545"><ele>1015.25</ele><time>2026-05-01T16:54:38.274Z</time></trkpt><trkpt lat="43.8663463" lon="6.4865576"><ele>1015.0</ele><time>2026-05-01T16:54:39.274Z</time></trkpt><trkpt lat="43.8662115" lon="6.48653"><ele>1015.0</ele><time>2026-05-01T16:54:40.274Z</time></trkpt><trkpt lat="43.866068" lon="6.4864846"><ele>1015.0</ele><time>2026-05-01T16:54:41.274Z</time></trkpt><trkpt lat="43.8659318" lon="6.486436"><ele>1015.0</ele><time>2026-05-01T16:54:42.275Z</time></trkpt><trkpt lat="43.8657982" lon="6.4863899"><ele>1015.0</ele><time>2026-05-01T16:54:43.274Z</time></trkpt><trkpt lat="43.8656725" lon="6.4863587"><ele>1017.0</ele><time>2026-05-01T16:54:44.274Z</time></trkpt><trkpt lat="43.8655554" lon="6.4863612"><ele>1019.0</ele><time>2026-05-01T16:54:45.274Z</time></trkpt><trkpt lat="43.865449" lon="6.4864108"><ele>1021.0</ele><time>2026-05-01T16:54:46.274Z</time></trkpt><trkpt lat="43.8653599" lon="6.4865059"><ele>1023.0</ele><time>2026-05-01T16:54:47.275Z</time></trkpt><trkpt lat="43.8652992" lon="6.4866419"><ele>1023.0</ele><time>2026-05-01T16:54:48.274Z</time></trkpt><trkpt lat="43.8651744" lon="6.486903"><ele>1023.0</ele><time>2026-05-01T16:54:50.274Z</time></trkpt><trkpt lat="43.8650726" lon="6.4869933"><ele>1023.0</ele><time>2026-05-01T16:54:51.275Z</time></trkpt><trkpt lat="43.864945" lon="6.4870334"><ele>1025.75</ele><time>2026-05-01T16:54:52.274Z</time></trkpt><trkpt lat="43.8648039" lon="6.4870462"><ele>1028.5</ele><time>2026-05-01T16:54:53.274Z</time></trkpt><trkpt lat="43.8646673" lon="6.4870308"><ele>1031.25</ele><time>2026-05-01T16:54:54.274Z</time></trkpt><trkpt lat="43.8645442" lon="6.4869719"><ele>1034.0</ele><time>2026-05-01T16:54:55.274Z</time></trkpt><trkpt lat="43.8644314" lon="6.4868696"><ele>1034.0</ele><time>2026-05-01T16:54:56.274Z</time></trkpt><trkpt lat="43.8643231" lon="6.486734"><ele>1034.0</ele><time>2026-05-01T16:54:57.275Z</time></trkpt><trkpt lat="43.8642133" lon="6.4865834"><ele>1034.0</ele><time>2026-05-01T16:54:58.274Z</time></trkpt><trkpt lat="43.8641049" lon="6.4864213"><ele>1039.3333333333335</ele><time>2026-05-01T16:54:59.274Z</time></trkpt><trkpt lat="43.863997" lon="6.4862498"><ele>1044.6666666666667</ele><time>2026-05-01T16:55:00.275Z</time></trkpt><trkpt lat="43.8638882" lon="6.486076"><ele>1050.0</ele><time>2026-05-01T16:55:01.274Z</time></trkpt><trkpt lat="43.8637752" lon="6.4859343"><ele>1050.0</ele><time>2026-05-01T16:55:02.274Z</time></trkpt><trkpt lat="43.8636585" lon="6.485833"><ele>1050.0</ele><time>2026-05-01T16:55:03.274Z</time></trkpt><trkpt lat="43.863552" lon="6.4857672"><ele>1050.0</ele><time>2026-05-01T16:55:04.275Z</time></trkpt><trkpt lat="43.8634783" lon="6.4856906"><ele>1050.0</ele><time>2026-05-01T16:55:05.274Z</time></trkpt><trkpt lat="43.8634355" lon="6.4855945"><ele>1050.0</ele><time>2026-05-01T16:55:06.274Z</time></trkpt><trkpt lat="43.863436" lon="6.4854903"><ele>1050.0</ele><time>2026-05-01T16:55:07.274Z</time></trkpt><trkpt lat="43.8634778" lon="6.4854017"><ele>1050.0</ele><time>2026-05-01T16:55:08.274Z</time></trkpt><trkpt lat="43.8635647" lon="6.4853635"><ele>1050.0</ele><time>2026-05-01T16:55:09.274Z</time></trkpt><trkpt lat="43.8637874" lon="6.485477"><ele>1050.0</ele><time>2026-05-01T16:55:11.274Z</time></trkpt><trkpt lat="43.8639185" lon="6.4855735"><ele>1050.0</ele><time>2026-05-01T16:55:12.274Z</time></trkpt><trkpt lat="43.8640447" lon="6.4856248"><ele>1050.0</ele><time>2026-05-01T16:55:13.274Z</time></trkpt><trkpt lat="43.8641747" lon="6.4856329"><ele>1050.0</ele><time>2026-05-01T16:55:14.275Z</time></trkpt><trkpt lat="43.864309" lon="6.4856064"><ele>1050.0</ele><time>2026-05-01T16:55:15.275Z</time></trkpt><trkpt lat="43.8644448" lon="6.4855373"><ele>1048.75</ele><time>2026-05-01T16:55:16.274Z</time></trkpt><trkpt lat="43.8645787" lon="6.4854724"><ele>1047.5</ele><time>2026-05-01T16:55:17.274Z</time></trkpt><trkpt lat="43.8647084" lon="6.4854106"><ele>1046.25</ele><time>2026-05-01T16:55:18.274Z</time></trkpt><trkpt lat="43.864823" lon="6.4853683"><ele>1045.0</ele><time>2026-05-01T16:55:19.274Z</time></trkpt><trkpt lat="43.8649261" lon="6.4853222"><ele>1047.3333333333333</ele><time>2026-05-01T16:55:20.274Z</time></trkpt><trkpt lat="43.8650042" lon="6.4852589"><ele>1049.6666666666665</ele><time>2026-05-01T16:55:21.274Z</time></trkpt><trkpt lat="43.8650498" lon="6.4851751"><ele>1052.0</ele><time>2026-05-01T16:55:22.275Z</time></trkpt><trkpt lat="43.865063" lon="6.4850834"><ele>1054.3333333333333</ele><time>2026-05-01T16:55:23.274Z</time></trkpt><trkpt lat="43.8650351" lon="6.4850014"><ele>1056.6666666666667</ele><time>2026-05-01T16:55:24.274Z</time></trkpt><trkpt lat="43.8649545" lon="6.4849455"><ele>1059.0</ele><time>2026-05-01T16:55:25.274Z</time></trkpt><trkpt lat="43.8648367" lon="6.4849598"><ele>1059.0</ele><time>2026-05-01T16:55:26.275Z</time></trkpt><trkpt lat="43.8646826" lon="6.4850334"><ele>1059.0</ele><time>2026-05-01T16:55:27.274Z</time></trkpt><trkpt lat="43.8645364" lon="6.485113"><ele>1059.0</ele><time>2026-05-01T16:55:28.274Z</time></trkpt><trkpt lat="43.8644095" lon="6.4851456"><ele>1059.0</ele><time>2026-05-01T16:55:29.274Z</time></trkpt><trkpt lat="43.8642996" lon="6.4851111"><ele>1058.0</ele><time>2026-05-01T16:55:30.274Z</time></trkpt><trkpt lat="43.8641394" lon="6.4848821"><ele>1057.0</ele><time>2026-05-01T16:55:32.274Z</time></trkpt><trkpt lat="43.8641181" lon="6.4847045"><ele>1056.0</ele><time>2026-05-01T16:55:33.275Z</time></trkpt><trkpt lat="43.8641255" lon="6.4845055"><ele>1057.5</ele><time>2026-05-01T16:55:34.274Z</time></trkpt><trkpt lat="43.8641296" lon="6.4843224"><ele>1059.0</ele><time>2026-05-01T16:55:35.274Z</time></trkpt><trkpt lat="43.8640914" lon="6.4841585"><ele>1060.5</ele><time>2026-05-01T16:55:36.274Z</time></trkpt><trkpt lat="43.8640277" lon="6.4839918"><ele>1062.0</ele><time>2026-05-01T16:55:37.275Z</time></trkpt><trkpt lat="43.8639767" lon="6.4838229"><ele>1064.5</ele><time>2026-05-01T16:55:38.274Z</time></trkpt><trkpt lat="43.8639478" lon="6.4836443"><ele>1067.0</ele><time>2026-05-01T16:55:39.274Z</time></trkpt><trkpt lat="43.8639432" lon="6.4834596"><ele>1069.5</ele><time>2026-05-01T16:55:40.274Z</time></trkpt><trkpt lat="43.8639539" lon="6.4832638"><ele>1072.0</ele><time>2026-05-01T16:55:41.274Z</time></trkpt><trkpt lat="43.8639751" lon="6.4830654"><ele>1071.5</ele><time>2026-05-01T16:55:42.274Z</time></trkpt><trkpt lat="43.8640002" lon="6.4828743"><ele>1071.0</ele><time>2026-05-01T16:55:43.274Z</time></trkpt><trkpt lat="43.8640291" lon="6.4826833"><ele>1070.5</ele><time>2026-05-01T16:55:44.274Z</time></trkpt><trkpt lat="43.8640598" lon="6.4824944"><ele>1070.0</ele><time>2026-05-01T16:55:45.274Z</time></trkpt><trkpt lat="43.8640955" lon="6.482303"><ele>1070.0</ele><time>2026-05-01T16:55:46.274Z</time></trkpt><trkpt lat="43.8641409" lon="6.4821295"><ele>1070.0</ele><time>2026-05-01T16:55:47.274Z</time></trkpt><trkpt lat="43.8642169" lon="6.4819727"><ele>1070.0</ele><time>2026-05-01T16:55:48.274Z</time></trkpt><trkpt lat="43.8643171" lon="6.4818303"><ele>1070.0</ele><time>2026-05-01T16:55:49.275Z</time></trkpt><trkpt lat="43.8644251" lon="6.4816988"><ele>1075.3333333333335</ele><time>2026-05-01T16:55:50.274Z</time></trkpt><trkpt lat="43.8645342" lon="6.4815766"><ele>1080.6666666666667</ele><time>2026-05-01T16:55:51.274Z</time></trkpt><trkpt lat="43.8647423" lon="6.481322"><ele>1086.0</ele><time>2026-05-01T16:55:53.274Z</time></trkpt><trkpt lat="43.8648222" lon="6.4811708"><ele>1086.0</ele><time>2026-05-01T16:55:54.274Z</time></trkpt><trkpt lat="43.8648818" lon="6.4809979"><ele>1086.0</ele><time>2026-05-01T16:55:55.274Z</time></trkpt><trkpt lat="43.8649362" lon="6.4808028"><ele>1086.0</ele><time>2026-05-01T16:55:56.274Z</time></trkpt><trkpt lat="43.8649889" lon="6.4806004"><ele>1086.0</ele><time>2026-05-01T16:55:57.274Z</time></trkpt><trkpt lat="43.8650426" lon="6.4804056"><ele>1083.0</ele><time>2026-05-01T16:55:58.274Z</time></trkpt><trkpt lat="43.8650996" lon="6.4802153"><ele>1080.0</ele><time>2026-05-01T16:55:59.274Z</time></trkpt><trkpt lat="43.865163" lon="6.4800245"><ele>1077.0</ele><time>2026-05-01T16:56:00.274Z</time></trkpt><trkpt lat="43.8652145" lon="6.4798167"><ele>1089.0</ele><time>2026-05-01T16:56:01.274Z</time></trkpt><trkpt lat="43.8652442" lon="6.4796016"><ele>1101.0</ele><time>2026-05-01T16:56:02.274Z</time></trkpt><trkpt lat="43.8652629" lon="6.4793919"><ele>1113.0</ele><time>2026-05-01T16:56:03.274Z</time></trkpt><trkpt lat="43.8652868" lon="6.4791808"><ele>1113.0</ele><time>2026-05-01T16:56:04.274Z</time></trkpt><trkpt lat="43.8653167" lon="6.478971"><ele>1113.0</ele><time>2026-05-01T16:56:05.274Z</time></trkpt><trkpt lat="43.8653273" lon="6.4787489"><ele>1113.0</ele><time>2026-05-01T16:56:06.274Z</time></trkpt><trkpt lat="43.8653346" lon="6.4785416"><ele>1111.25</ele><time>2026-05-01T16:56:07.274Z</time></trkpt><trkpt lat="43.8653547" lon="6.4783603"><ele>1109.5</ele><time>2026-05-01T16:56:08.274Z</time></trkpt><trkpt lat="43.8654052" lon="6.4781966"><ele>1107.75</ele><time>2026-05-01T16:56:09.274Z</time></trkpt><trkpt lat="43.865486" lon="6.4780496"><ele>1106.0</ele><time>2026-05-01T16:56:10.274Z</time></trkpt><trkpt lat="43.8655929" lon="6.4779152"><ele>1111.5</ele><time>2026-05-01T16:56:11.274Z</time></trkpt><trkpt lat="43.8657152" lon="6.4777746"><ele>1117.0</ele><time>2026-05-01T16:56:12.274Z</time></trkpt><trkpt lat="43.8659466" lon="6.4774849"><ele>1117.0</ele><time>2026-05-01T16:56:14.274Z</time></trkpt><trkpt lat="43.8660612" lon="6.4773457"><ele>1117.0</ele><time>2026-05-01T16:56:15.274Z</time></trkpt><trkpt lat="43.8661675" lon="6.477204"><ele>1117.0</ele><time>2026-05-01T16:56:16.274Z</time></trkpt><trkpt lat="43.8662721" lon="6.4770616"><ele>1117.0</ele><time>2026-05-01T16:56:17.274Z</time></trkpt><trkpt lat="43.8663723" lon="6.4769069"><ele>1113.6666666666665</ele><time>2026-05-01T16:56:18.274Z</time></trkpt><trkpt lat="43.8664645" lon="6.4767364"><ele>1110.3333333333333</ele><time>2026-05-01T16:56:19.275Z</time></trkpt><trkpt lat="43.8665312" lon="6.4765487"><ele>1107.0</ele><time>2026-05-01T16:56:20.274Z</time></trkpt><trkpt lat="43.8665756" lon="6.4763491"><ele>1105.6666666666667</ele><time>2026-05-01T16:56:21.274Z</time></trkpt><trkpt lat="43.8665976" lon="6.4761375"><ele>1104.3333333333335</ele><time>2026-05-01T16:56:22.274Z</time></trkpt><trkpt lat="43.8666134" lon="6.4759226"><ele>1103.0</ele><time>2026-05-01T16:56:23.274Z</time></trkpt><trkpt lat="43.8666341" lon="6.4757113"><ele>1103.0</ele><time>2026-05-01T16:56:24.275Z</time></trkpt><trkpt lat="43.8666565" lon="6.4755012"><ele>1103.0</ele><time>2026-05-01T16:56:25.274Z</time></trkpt><trkpt lat="43.8666894" lon="6.4752928"><ele>1103.0</ele><time>2026-05-01T16:56:26.274Z</time></trkpt><trkpt lat="43.8667513" lon="6.4750978"><ele>1105.0</ele><time>2026-05-01T16:56:27.274Z</time></trkpt><trkpt lat="43.8668422" lon="6.4749166"><ele>1107.0</ele><time>2026-05-01T16:56:28.274Z</time></trkpt><trkpt lat="43.8669435" lon="6.474744"><ele>1109.0</ele><time>2026-05-01T16:56:29.274Z</time></trkpt><trkpt lat="43.8670419" lon="6.4745737"><ele>1109.0</ele><time>2026-05-01T16:56:30.274Z</time></trkpt><trkpt lat="43.8671399" lon="6.4743963"><ele>1109.0</ele><time>2026-05-01T16:56:31.274Z</time></trkpt><trkpt lat="43.8672333" lon="6.4742197"><ele>1109.0</ele><time>2026-05-01T16:56:32.274Z</time></trkpt><trkpt lat="43.8673025" lon="6.4740475"><ele>1107.6666666666667</ele><time>2026-05-01T16:56:33.274Z</time></trkpt><trkpt lat="43.8673186" lon="6.473708"><ele>1106.3333333333333</ele><time>2026-05-01T16:56:35.274Z</time></trkpt><trkpt lat="43.8673154" lon="6.4735445"><ele>1105.0</ele><time>2026-05-01T16:56:36.274Z</time></trkpt><trkpt lat="43.8673531" lon="6.4733881"><ele>1105.0</ele><time>2026-05-01T16:56:37.274Z</time></trkpt><trkpt lat="43.867425" lon="6.4732264"><ele>1105.0</ele><time>2026-05-01T16:56:38.274Z</time></trkpt><trkpt lat="43.8675138" lon="6.4730694"><ele>1105.0</ele><time>2026-05-01T16:56:39.274Z</time></trkpt><trkpt lat="43.8676015" lon="6.4729061"><ele>1105.0</ele><time>2026-05-01T16:56:40.274Z</time></trkpt><trkpt lat="43.8676874" lon="6.4727381"><ele>1117.0</ele><time>2026-05-01T16:56:41.274Z</time></trkpt><trkpt lat="43.8677731" lon="6.4725559"><ele>1129.0</ele><time>2026-05-01T16:56:42.275Z</time></trkpt><trkpt lat="43.86786" lon="6.4723862"><ele>1141.0</ele><time>2026-05-01T16:56:43.274Z</time></trkpt><trkpt lat="43.8679451" lon="6.4722142"><ele>1134.75</ele><time>2026-05-01T16:56:44.274Z</time></trkpt><trkpt lat="43.8680333" lon="6.4720357"><ele>1128.5</ele><time>2026-05-01T16:56:45.275Z</time></trkpt><trkpt lat="43.8681001" lon="6.4718517"><ele>1122.25</ele><time>2026-05-01T16:56:46.274Z</time></trkpt><trkpt lat="43.8681739" lon="6.4716891"><ele>1116.0</ele><time>2026-05-01T16:56:47.275Z</time></trkpt><trkpt lat="43.8682657" lon="6.4715618"><ele>1116.0</ele><time>2026-05-01T16:56:48.274Z</time></trkpt><trkpt lat="43.8683845" lon="6.4714752"><ele>1116.0</ele><time>2026-05-01T16:56:49.274Z</time></trkpt><trkpt lat="43.8685001" lon="6.4714067"><ele>1116.0</ele><time>2026-05-01T16:56:50.274Z</time></trkpt><trkpt lat="43.8685878" lon="6.4713126"><ele>1116.0</ele><time>2026-05-01T16:56:51.274Z</time></trkpt><trkpt lat="43.8686316" lon="6.4711573"><ele>1123.3333333333333</ele><time>2026-05-01T16:56:52.274Z</time></trkpt><trkpt lat="43.8686449" lon="6.4709641"><ele>1130.6666666666665</ele><time>2026-05-01T16:56:53.274Z</time></trkpt><trkpt lat="43.8686416" lon="6.4707472"><ele>1138.0</ele><time>2026-05-01T16:56:54.274Z</time></trkpt><trkpt lat="43.868697" lon="6.4703016"><ele>1138.0</ele><time>2026-05-01T16:56:56.274Z</time></trkpt><trkpt lat="43.868739" lon="6.4701035"><ele>1138.0</ele><time>2026-05-01T16:56:57.274Z</time></trkpt><trkpt lat="43.8687934" lon="6.4699152"><ele>1138.0</ele><time>2026-05-01T16:56:58.274Z</time></trkpt><trkpt lat="43.8688646" lon="6.4697426"><ele>1138.0</ele><time>2026-05-01T16:56:59.275Z</time></trkpt><trkpt lat="43.8689373" lon="6.4695897"><ele>1136.5</ele><time>2026-05-01T16:57:00.274Z</time></trkpt><trkpt lat="43.8689875" lon="6.4694355"><ele>1135.0</ele><time>2026-05-01T16:57:01.274Z</time></trkpt><trkpt lat="43.8689899" lon="6.4692686"><ele>1133.5</ele><time>2026-05-01T16:57:02.274Z</time></trkpt><trkpt lat="43.8689521" lon="6.4690945"><ele>1132.0</ele><time>2026-05-01T16:57:03.274Z</time></trkpt><trkpt lat="43.8689198" lon="6.4689113"><ele>1132.25</ele><time>2026-05-01T16:57:04.274Z</time></trkpt><trkpt lat="43.8689281" lon="6.4687327"><ele>1132.5</ele><time>2026-05-01T16:57:05.274Z</time></trkpt><trkpt lat="43.8689777" lon="6.4685338"><ele>1132.75</ele><time>2026-05-01T16:57:06.275Z</time></trkpt><trkpt lat="43.8690199" lon="6.4683406"><ele>1133.0</ele><time>2026-05-01T16:57:07.275Z</time></trkpt><trkpt lat="43.8690159" lon="6.4681489"><ele>1133.0</ele><time>2026-05-01T16:57:08.275Z</time></trkpt><trkpt lat="43.8689631" lon="6.467961"><ele>1133.0</ele><time>2026-05-01T16:57:09.274Z</time></trkpt><trkpt lat="43.8688805" lon="6.4677935"><ele>1133.0</ele><time>2026-05-01T16:57:10.274Z</time></trkpt><trkpt lat="43.8687917" lon="6.4676356"><ele>1133.0</ele><time>2026-05-01T16:57:11.275Z</time></trkpt><trkpt lat="43.8686979" lon="6.46749"><ele>1132.25</ele><time>2026-05-01T16:57:12.274Z</time></trkpt><trkpt lat="43.8685905" lon="6.4673737"><ele>1131.5</ele><time>2026-05-01T16:57:13.274Z</time></trkpt><trkpt lat="43.8684741" lon="6.4673028"><ele>1130.75</ele><time>2026-05-01T16:57:14.274Z</time></trkpt><trkpt lat="43.8683326" lon="6.4673004"><ele>1130.0</ele><time>2026-05-01T16:57:15.274Z</time></trkpt><trkpt lat="43.8680627" lon="6.4674533"><ele>1130.0</ele><time>2026-05-01T16:57:17.274Z</time></trkpt><trkpt lat="43.8679386" lon="6.4675594"><ele>1130.0</ele><time>2026-05-01T16:57:18.274Z</time></trkpt><trkpt lat="43.8678139" lon="6.4676245"><ele>1130.0</ele><time>2026-05-01T16:57:19.274Z</time></trkpt><trkpt lat="43.8676856" lon="6.4676406"><ele>1130.0</ele><time>2026-05-01T16:57:20.274Z</time></trkpt><trkpt lat="43.8675505" lon="6.4676195"><ele>1130.0</ele><time>2026-05-01T16:57:21.274Z</time></trkpt><trkpt lat="43.8674093" lon="6.4675896"><ele>1130.0</ele><time>2026-05-01T16:57:22.274Z</time></trkpt><trkpt lat="43.8672607" lon="6.467563"><ele>1130.0</ele><time>2026-05-01T16:57:23.274Z</time></trkpt><trkpt lat="43.8671146" lon="6.4675615"><ele>1130.0</ele><time>2026-05-01T16:57:24.274Z</time></trkpt><trkpt lat="43.8669699" lon="6.4675934"><ele>1130.0</ele><time>2026-05-01T16:57:25.274Z</time></trkpt><trkpt lat="43.8668271" lon="6.4676636"><ele>1130.0</ele><time>2026-05-01T16:57:26.274Z</time></trkpt><trkpt lat="43.8666904" lon="6.4677503"><ele>1130.0</ele><time>2026-05-01T16:57:27.274Z</time></trkpt><trkpt lat="43.8665584" lon="6.4678371"><ele>1130.0</ele><time>2026-05-01T16:57:28.274Z</time></trkpt><trkpt lat="43.866436" lon="6.4679099"><ele>1129.0</ele><time>2026-05-01T16:57:29.274Z</time></trkpt><trkpt lat="43.8663241" lon="6.4679549"><ele>1128.0</ele><time>2026-05-01T16:57:30.274Z</time></trkpt><trkpt lat="43.8662144" lon="6.4679542"><ele>1127.0</ele><time>2026-05-01T16:57:31.274Z</time></trkpt><trkpt lat="43.866109" lon="6.4679019"><ele>1126.0</ele><time>2026-05-01T16:57:32.274Z</time></trkpt><trkpt lat="43.8660218" lon="6.4677826"><ele>1128.0</ele><time>2026-05-01T16:57:33.275Z</time></trkpt><trkpt lat="43.8659536" lon="6.4676099"><ele>1130.0</ele><time>2026-05-01T16:57:34.274Z</time></trkpt><trkpt lat="43.8658967" lon="6.4674244"><ele>1132.0</ele><time>2026-05-01T16:57:35.274Z</time></trkpt><trkpt lat="43.8658298" lon="6.4672536"><ele>1134.0</ele><time>2026-05-01T16:57:36.274Z</time></trkpt><trkpt lat="43.8656725" lon="6.4669422"><ele>1137.5</ele><time>2026-05-01T16:57:38.274Z</time></trkpt><trkpt lat="43.8655726" lon="6.4668157"><ele>1141.0</ele><time>2026-05-01T16:57:39.274Z</time></trkpt><trkpt lat="43.8654576" lon="6.4667209"><ele>1144.5</ele><time>2026-05-01T16:57:40.274Z</time></trkpt><trkpt lat="43.8653357" lon="6.4666412"><ele>1148.0</ele><time>2026-05-01T16:57:41.274Z</time></trkpt><trkpt lat="43.8652133" lon="6.4665651"><ele>1146.25</ele><time>2026-05-01T16:57:42.274Z</time></trkpt><trkpt lat="43.8651053" lon="6.4664962"><ele>1144.5</ele><time>2026-05-01T16:57:43.274Z</time></trkpt><trkpt lat="43.8650093" lon="6.4664091"><ele>1142.75</ele><time>2026-05-01T16:57:44.274Z</time></trkpt><trkpt lat="43.8649517" lon="6.4662799"><ele>1141.0</ele><time>2026-05-01T16:57:45.274Z</time></trkpt><trkpt lat="43.864945" lon="6.466129"><ele>1141.0</ele><time>2026-05-01T16:57:46.274Z</time></trkpt><trkpt lat="43.8649749" lon="6.4659557"><ele>1141.0</ele><time>2026-05-01T16:57:47.274Z</time></trkpt><trkpt lat="43.8650191" lon="6.4657642"><ele>1141.0</ele><time>2026-05-01T16:57:48.274Z</time></trkpt><trkpt lat="43.8650717" lon="6.465561"><ele>1141.0</ele><time>2026-05-01T16:57:49.274Z</time></trkpt><trkpt lat="43.8651152" lon="6.4653668"><ele>1143.75</ele><time>2026-05-01T16:57:50.274Z</time></trkpt><trkpt lat="43.8651589" lon="6.4651791"><ele>1146.5</ele><time>2026-05-01T16:57:51.274Z</time></trkpt><trkpt lat="43.8652078" lon="6.4650102"><ele>1149.25</ele><time>2026-05-01T16:57:52.274Z</time></trkpt><trkpt lat="43.8652688" lon="6.4648444"><ele>1152.0</ele><time>2026-05-01T16:57:53.274Z</time></trkpt><trkpt lat="43.8653347" lon="6.4646875"><ele>1151.5</ele><time>2026-05-01T16:57:54.274Z</time></trkpt><trkpt lat="43.8653981" lon="6.4645329"><ele>1151.0</ele><time>2026-05-01T16:57:55.274Z</time></trkpt><trkpt lat="43.8654457" lon="6.464376"><ele>1150.5</ele><time>2026-05-01T16:57:56.275Z</time></trkpt><trkpt lat="43.8654763" lon="6.4642038"><ele>1150.0</ele><time>2026-05-01T16:57:57.274Z</time></trkpt><trkpt lat="43.8654909" lon="6.4638368"><ele>1149.75</ele><time>2026-05-01T16:57:59.274Z</time></trkpt><trkpt lat="43.865492" lon="6.4636428"><ele>1149.5</ele><time>2026-05-01T16:58:00.274Z</time></trkpt><trkpt lat="43.8654949" lon="6.4634468"><ele>1149.25</ele><time>2026-05-01T16:58:01.274Z</time></trkpt><trkpt lat="43.8654986" lon="6.4632468"><ele>1149.0</ele><time>2026-05-01T16:58:02.274Z</time></trkpt><trkpt lat="43.8655016" lon="6.4630525"><ele>1148.25</ele><time>2026-05-01T16:58:03.274Z</time></trkpt><trkpt lat="43.8655038" lon="6.4628658"><ele>1147.5</ele><time>2026-05-01T16:58:04.274Z</time></trkpt><trkpt lat="43.8655041" lon="6.4626857"><ele>1146.75</ele><time>2026-05-01T16:58:05.274Z</time></trkpt><trkpt lat="43.8655067" lon="6.4625045"><ele>1146.0</ele><time>2026-05-01T16:58:06.275Z</time></trkpt><trkpt lat="43.8655113" lon="6.4623214"><ele>1146.0</ele><time>2026-05-01T16:58:07.274Z</time></trkpt><trkpt lat="43.8655307" lon="6.462132"><ele>1146.0</ele><time>2026-05-01T16:58:08.274Z</time></trkpt><trkpt lat="43.8655725" lon="6.4619454"><ele>1146.0</ele><time>2026-05-01T16:58:09.274Z</time></trkpt><trkpt lat="43.8656394" lon="6.4617541"><ele>1146.0</ele><time>2026-05-01T16:58:10.274Z</time></trkpt><trkpt lat="43.8657135" lon="6.4615511"><ele>1143.6666666666667</ele><time>2026-05-01T16:58:11.275Z</time></trkpt><trkpt lat="43.8657875" lon="6.4613407"><ele>1141.3333333333335</ele><time>2026-05-01T16:58:12.274Z</time></trkpt><trkpt lat="43.8658593" lon="6.4611354"><ele>1139.0</ele><time>2026-05-01T16:58:13.274Z</time></trkpt><trkpt lat="43.8659343" lon="6.4609263"><ele>1141.0</ele><time>2026-05-01T16:58:14.274Z</time></trkpt><trkpt lat="43.8660105" lon="6.4607211"><ele>1143.0</ele><time>2026-05-01T16:58:15.274Z</time></trkpt><trkpt lat="43.8660811" lon="6.4605228"><ele>1145.0</ele><time>2026-05-01T16:58:16.274Z</time></trkpt><trkpt lat="43.8661421" lon="6.4603296"><ele>1145.0</ele><time>2026-05-01T16:58:17.274Z</time></trkpt><trkpt lat="43.8661973" lon="6.460137"><ele>1145.0</ele><time>2026-05-01T16:58:18.274Z</time></trkpt><trkpt lat="43.8662955" lon="6.459771"><ele>1145.0</ele><time>2026-05-01T16:58:20.274Z</time></trkpt><trkpt lat="43.8663612" lon="6.4596143"><ele>1143.6666666666667</ele><time>2026-05-01T16:58:21.274Z</time></trkpt><trkpt lat="43.8664356" lon="6.4594858"><ele>1142.3333333333335</ele><time>2026-05-01T16:58:22.274Z</time></trkpt><trkpt lat="43.8664881" lon="6.4593694"><ele>1141.0</ele><time>2026-05-01T16:58:23.274Z</time></trkpt><trkpt lat="43.8665062" lon="6.4592617"><ele>1139.6666666666667</ele><time>2026-05-01T16:58:24.274Z</time></trkpt><trkpt lat="43.8664898" lon="6.4591752"><ele>1138.3333333333333</ele><time>2026-05-01T16:58:25.274Z</time></trkpt><trkpt lat="43.8664454" lon="6.4591089"><ele>1137.0</ele><time>2026-05-01T16:58:26.274Z</time></trkpt><trkpt lat="43.8663739" lon="6.4590857"><ele>1137.0</ele><time>2026-05-01T16:58:27.274Z</time></trkpt><trkpt lat="43.866287" lon="6.4591262"><ele>1137.0</ele><time>2026-05-01T16:58:28.274Z</time></trkpt><trkpt lat="43.8661833" lon="6.4592204"><ele>1137.0</ele><time>2026-05-01T16:58:29.274Z</time></trkpt><trkpt lat="43.8660632" lon="6.4593544"><ele>1137.0</ele><time>2026-05-01T16:58:30.274Z</time></trkpt><trkpt lat="43.8659359" lon="6.4594793"><ele>1133.75</ele><time>2026-05-01T16:58:31.274Z</time></trkpt><trkpt lat="43.8658213" lon="6.4596011"><ele>1130.5</ele><time>2026-05-01T16:58:32.275Z</time></trkpt><trkpt lat="43.8657277" lon="6.4597372"><ele>1127.25</ele><time>2026-05-01T16:58:33.274Z</time></trkpt><trkpt lat="43.865649" lon="6.4598913"><ele>1124.0</ele><time>2026-05-01T16:58:34.274Z</time></trkpt><trkpt lat="43.8655779" lon="6.4600646"><ele>1124.0</ele><time>2026-05-01T16:58:35.274Z</time></trkpt><trkpt lat="43.8655121" lon="6.4602439"><ele>1124.0</ele><time>2026-05-01T16:58:36.274Z</time></trkpt><trkpt lat="43.8654553" lon="6.460432"><ele>1124.0</ele><time>2026-05-01T16:58:37.274Z</time></trkpt><trkpt lat="43.8654016" lon="6.4606255"><ele>1124.0</ele><time>2026-05-01T16:58:38.274Z</time></trkpt><trkpt lat="43.8653497" lon="6.4608084"><ele>1125.5</ele><time>2026-05-01T16:58:39.274Z</time></trkpt><trkpt lat="43.8652507" lon="6.4611313"><ele>1127.0</ele><time>2026-05-01T16:58:41.274Z</time></trkpt><trkpt lat="43.8652155" lon="6.4612542"><ele>1128.5</ele><time>2026-05-01T16:58:42.274Z</time></trkpt><trkpt lat="43.8651799" lon="6.4613455"><ele>1130.0</ele><time>2026-05-01T16:58:43.274Z</time></trkpt><trkpt lat="43.8651282" lon="6.4614075"><ele>1129.0</ele><time>2026-05-01T16:58:44.274Z</time></trkpt><trkpt lat="43.8650669" lon="6.4614292"><ele>1128.0</ele><time>2026-05-01T16:58:45.274Z</time></trkpt><trkpt lat="43.8650037" lon="6.4614053"><ele>1127.0</ele><time>2026-05-01T16:58:46.274Z</time></trkpt><trkpt lat="43.8649552" lon="6.4613254"><ele>1126.0</ele><time>2026-05-01T16:58:47.274Z</time></trkpt><trkpt lat="43.8649288" lon="6.4611854"><ele>1125.0</ele><time>2026-05-01T16:58:48.275Z</time></trkpt><trkpt lat="43.8649421" lon="6.4610009"><ele>1124.0</ele><time>2026-05-01T16:58:49.274Z</time></trkpt><trkpt lat="43.8649835" lon="6.4607808"><ele>1120.0</ele><time>2026-05-01T16:58:50.274Z</time></trkpt><trkpt lat="43.8650295" lon="6.4605378"><ele>1116.0</ele><time>2026-05-01T16:58:51.275Z</time></trkpt><trkpt lat="43.8650619" lon="6.4602983"><ele>1112.0</ele><time>2026-05-01T16:58:52.274Z</time></trkpt><trkpt lat="43.8650871" lon="6.4600666"><ele>1110.6666666666667</ele><time>2026-05-01T16:58:53.274Z</time></trkpt><trkpt lat="43.865108" lon="6.4598442"><ele>1109.3333333333333</ele><time>2026-05-01T16:58:54.274Z</time></trkpt><trkpt lat="43.8651388" lon="6.4596257"><ele>1108.0</ele><time>2026-05-01T16:58:55.274Z</time></trkpt><trkpt lat="43.8651708" lon="6.4594117"><ele>1107.3333333333333</ele><time>2026-05-01T16:58:56.274Z</time></trkpt><trkpt lat="43.8652119" lon="6.4591847"><ele>1106.6666666666667</ele><time>2026-05-01T16:58:57.274Z</time></trkpt><trkpt lat="43.865264" lon="6.4589556"><ele>1106.0</ele><time>2026-05-01T16:58:58.274Z</time></trkpt><trkpt lat="43.8653319" lon="6.4587236"><ele>1106.0</ele><time>2026-05-01T16:58:59.274Z</time></trkpt><trkpt lat="43.865398" lon="6.4584959"><ele>1106.0</ele><time>2026-05-01T16:59:00.274Z</time></trkpt><trkpt lat="43.8655297" lon="6.4580432"><ele>1102.3333333333335</ele><time>2026-05-01T16:59:02.274Z</time></trkpt><trkpt lat="43.8655823" lon="6.4578238"><ele>1098.6666666666667</ele><time>2026-05-01T16:59:03.274Z</time></trkpt><trkpt lat="43.865632" lon="6.4576064"><ele>1095.0</ele><time>2026-05-01T16:59:04.274Z</time></trkpt><trkpt lat="43.8656818" lon="6.4573929"><ele>1095.0</ele><time>2026-05-01T16:59:05.274Z</time></trkpt><trkpt lat="43.8657116" lon="6.4571828"><ele>1095.0</ele><time>2026-05-01T16:59:06.274Z</time></trkpt><trkpt lat="43.865733" lon="6.4569531"><ele>1095.0</ele><time>2026-05-01T16:59:07.274Z</time></trkpt><trkpt lat="43.8657524" lon="6.4567188"><ele>1092.6666666666667</ele><time>2026-05-01T16:59:08.275Z</time></trkpt><trkpt lat="43.8657944" lon="6.4564877"><ele>1090.3333333333335</ele><time>2026-05-01T16:59:09.274Z</time></trkpt><trkpt lat="43.8658643" lon="6.4562538"><ele>1088.0</ele><time>2026-05-01T16:59:10.274Z</time></trkpt><trkpt lat="43.8659391" lon="6.4560237"><ele>1087.0</ele><time>2026-05-01T16:59:11.274Z</time></trkpt><trkpt lat="43.8660036" lon="6.455791"><ele>1086.0</ele><time>2026-05-01T16:59:12.274Z</time></trkpt><trkpt lat="43.8660623" lon="6.4555718"><ele>1085.0</ele><time>2026-05-01T16:59:13.275Z</time></trkpt><trkpt lat="43.8661251" lon="6.4553661"><ele>1083.0</ele><time>2026-05-01T16:59:14.274Z</time></trkpt><trkpt lat="43.8661948" lon="6.455173"><ele>1081.0</ele><time>2026-05-01T16:59:15.275Z</time></trkpt><trkpt lat="43.8662761" lon="6.4549866"><ele>1079.0</ele><time>2026-05-01T16:59:16.274Z</time></trkpt><trkpt lat="43.8663822" lon="6.4548098"><ele>1079.0</ele><time>2026-05-01T16:59:17.275Z</time></trkpt><trkpt lat="43.8665163" lon="6.4546554"><ele>1079.0</ele><time>2026-05-01T16:59:18.274Z</time></trkpt><trkpt lat="43.8666691" lon="6.4545311"><ele>1079.0</ele><time>2026-05-01T16:59:19.275Z</time></trkpt><trkpt lat="43.8668377" lon="6.4544369"><ele>1074.5</ele><time>2026-05-01T16:59:20.274Z</time></trkpt><trkpt lat="43.8670089" lon="6.4543603"><ele>1070.0</ele><time>2026-05-01T16:59:21.274Z</time></trkpt><trkpt lat="43.8673402" lon="6.4542758"><ele>1070.0</ele><time>2026-05-01T16:59:23.274Z</time></trkpt><trkpt lat="43.867485" lon="6.4542087"><ele>1070.0</ele><time>2026-05-01T16:59:24.274Z</time></trkpt><trkpt lat="43.8676179" lon="6.4540973"><ele>1070.0</ele><time>2026-05-01T16:59:25.274Z</time></trkpt><trkpt lat="43.8677333" lon="6.4539452"><ele>1071.0</ele><time>2026-05-01T16:59:26.274Z</time></trkpt><trkpt lat="43.8678473" lon="6.4537936"><ele>1072.0</ele><time>2026-05-01T16:59:27.274Z</time></trkpt><trkpt lat="43.8679475" lon="6.4536163"><ele>1073.0</ele><time>2026-05-01T16:59:28.274Z</time></trkpt><trkpt lat="43.8680428" lon="6.4534198"><ele>1073.0</ele><time>2026-05-01T16:59:29.274Z</time></trkpt><trkpt lat="43.8681241" lon="6.4532163"><ele>1073.0</ele><time>2026-05-01T16:59:30.274Z</time></trkpt><trkpt lat="43.8682055" lon="6.4530046"><ele>1073.0</ele><time>2026-05-01T16:59:31.274Z</time></trkpt><trkpt lat="43.8682864" lon="6.4527968"><ele>1072.0</ele><time>2026-05-01T16:59:32.274Z</time></trkpt><trkpt lat="43.8683698" lon="6.4525874"><ele>1071.0</ele><time>2026-05-01T16:59:33.274Z</time></trkpt><trkpt lat="43.8684685" lon="6.4523908"><ele>1070.0</ele><time>2026-05-01T16:59:34.274Z</time></trkpt><trkpt lat="43.8685761" lon="6.4521972"><ele>1068.6666666666667</ele><time>2026-05-01T16:59:35.274Z</time></trkpt><trkpt lat="43.8686863" lon="6.4520201"><ele>1067.3333333333333</ele><time>2026-05-01T16:59:36.274Z</time></trkpt><trkpt lat="43.8687919" lon="6.4518434"><ele>1066.0</ele><time>2026-05-01T16:59:37.274Z</time></trkpt><trkpt lat="43.868889" lon="6.4516715"><ele>1066.0</ele><time>2026-05-01T16:59:38.274Z</time></trkpt><trkpt lat="43.8689821" lon="6.451506"><ele>1066.0</ele><time>2026-05-01T16:59:39.275Z</time></trkpt><trkpt lat="43.8690736" lon="6.4513458"><ele>1066.0</ele><time>2026-05-01T16:59:40.274Z</time></trkpt><trkpt lat="43.8691634" lon="6.4511971"><ele>1066.0</ele><time>2026-05-01T16:59:41.274Z</time></trkpt><trkpt lat="43.8692499" lon="6.4510385"><ele>1064.3333333333333</ele><time>2026-05-01T16:59:42.274Z</time></trkpt><trkpt lat="43.8694218" lon="6.4507427"><ele>1062.6666666666667</ele><time>2026-05-01T16:59:44.275Z</time></trkpt><trkpt lat="43.8695037" lon="6.4506075"><ele>1061.0</ele><time>2026-05-01T16:59:45.274Z</time></trkpt><trkpt lat="43.8695772" lon="6.4504852"><ele>1060.0</ele><time>2026-05-01T16:59:46.274Z</time></trkpt><trkpt lat="43.8696379" lon="6.450382"><ele>1059.0</ele><time>2026-05-01T16:59:47.274Z</time></trkpt><trkpt lat="43.8696895" lon="6.4502939"><ele>1058.0</ele><time>2026-05-01T16:59:48.274Z</time></trkpt><trkpt lat="43.8697251" lon="6.4502143"><ele>1057.0</ele><time>2026-05-01T16:59:49.275Z</time></trkpt><trkpt lat="43.8697336" lon="6.450092"><ele>1056.0</ele><time>2026-05-01T16:59:51.274Z</time></trkpt><trkpt lat="43.869637" lon="6.4499689"><ele>1056.0</ele><time>2026-05-01T16:59:53.274Z</time></trkpt><trkpt lat="43.8695744" lon="6.449901"><ele>1056.0</ele><time>2026-05-01T16:59:54.274Z</time></trkpt><trkpt lat="43.869511" lon="6.4498252"><ele>1056.0</ele><time>2026-05-01T16:59:55.275Z</time></trkpt><trkpt lat="43.8694501" lon="6.4497596"><ele>1056.0</ele><time>2026-05-01T16:59:56.274Z</time></trkpt><trkpt lat="43.8693927" lon="6.4497074"><ele>1056.0</ele><time>2026-05-01T16:59:57.275Z</time></trkpt><trkpt lat="43.8693379" lon="6.4496521"><ele>1056.0</ele><time>2026-05-01T16:59:58.274Z</time></trkpt><trkpt lat="43.8692648" lon="6.4495672"><ele>1055.8333333333333</ele><time>2026-05-01T17:00:00.274Z</time></trkpt><trkpt lat="43.8692163" lon="6.4495062"><ele>1055.6666666666667</ele><time>2026-05-01T17:00:03.274Z</time></trkpt><trkpt lat="43.8691414" lon="6.4493301"><ele>1055.5</ele><time>2026-05-01T17:00:08.275Z</time></trkpt><trkpt lat="43.8691164" lon="6.4492287"><ele>1055.3333333333335</ele><time>2026-05-01T17:00:10.274Z</time></trkpt><trkpt lat="43.8691122" lon="6.4491374"><ele>1055.1666666666667</ele><time>2026-05-01T17:00:13.274Z</time></trkpt><trkpt lat="43.8691547" lon="6.4490666"><ele>1055.0</ele><time>2026-05-01T17:00:28.274Z</time></trkpt><trkpt lat="43.8692853" lon="6.4489525"><ele>1055.0</ele><time>2026-05-01T17:00:34.274Z</time></trkpt><trkpt lat="43.8693057" lon="6.4488484"><ele>1055.0</ele><time>2026-05-01T17:00:39.275Z</time></trkpt><trkpt lat="43.8692865" lon="6.4487572"><ele>1055.0</ele><time>2026-05-01T17:00:41.274Z</time></trkpt><trkpt lat="43.86927" lon="6.4486398"><ele>1055.0</ele><time>2026-05-01T17:00:44.274Z</time></trkpt><trkpt lat="43.8692864" lon="6.4487363"><ele>1055.0</ele><time>2026-05-01T17:00:52.274Z</time></trkpt><trkpt lat="43.8692622" lon="6.4489479"><ele>1055.6</ele><time>2026-05-01T17:01:09.274Z</time></trkpt><trkpt lat="43.8691914" lon="6.4490068"><ele>1056.2</ele><time>2026-05-01T17:01:15.274Z</time></trkpt><trkpt lat="43.8691289" lon="6.449155"><ele>1056.8</ele><time>2026-05-01T17:01:22.274Z</time></trkpt><trkpt lat="43.869137" lon="6.4492516"><ele>1057.4</ele><time>2026-05-01T17:01:38.275Z</time></trkpt><trkpt lat="43.8691855" lon="6.4494671"><ele>1058.0</ele><time>2026-05-01T17:01:42.275Z</time></trkpt><trkpt lat="43.8692623" lon="6.4494735"><ele>1058.0</ele><time>2026-05-01T17:01:45.274Z</time></trkpt><trkpt lat="43.8693139" lon="6.4493788"><ele>1055.0</ele><time>2026-05-01T17:01:49.274Z</time></trkpt><trkpt lat="43.8693053" lon="6.4492623"><ele>1055.0</ele><time>2026-05-01T17:01:52.274Z</time></trkpt></trkseg></trk></gpx>